<?xml version="1.0" encoding="UTF-8" standalone="no" ?>
<gpx xmlns="http://www.topografix.com/GPX/1/1" xmlns:xsi="http://www.w3.org/2001/XMLSchema-instance" xsi:schemaLocation="http://www.topografix.com/GPX/1/1 http://www.topografix.com/GPX/1/1/gpx.xsd" version="1.1" creator="VisuGPX - https://www.visugpx.com">
  <metadata>
    <name>GRAN D`ARAN</name>
    <desc><![CDATA[GRAN D`ARAN, RUTA PER LA VALL D`ARAN  I EL PASSARAN]]></desc>
  </metadata>
  <trk>
    <name><![CDATA[GRAN ARAN on GPSies.com]]></name>
    <trkseg>
      <trkpt lat="42.70763" lon="0.90414">
        <ele>1270</ele>
        <time>2010-01-01T00:00:00Z</time>
      </trkpt>
      <trkpt lat="42.70765" lon="0.90398">
        <ele>1269</ele>
        <time>2010-01-01T00:00:04Z</time>
      </trkpt>
      <trkpt lat="42.70766" lon="0.90382">
        <ele>1268</ele>
        <time>2010-01-01T00:00:09Z</time>
      </trkpt>
      <trkpt lat="42.70777" lon="0.9038">
        <ele>1268</ele>
        <time>2010-01-01T00:00:14Z</time>
      </trkpt>
      <trkpt lat="42.70789" lon="0.90389">
        <ele>1270</ele>
        <time>2010-01-01T00:00:19Z</time>
      </trkpt>
      <trkpt lat="42.70798" lon="0.90398">
        <ele>1270</ele>
        <time>2010-01-01T00:00:23Z</time>
      </trkpt>
      <trkpt lat="42.70806" lon="0.90407">
        <ele>1271</ele>
        <time>2010-01-01T00:00:28Z</time>
      </trkpt>
      <trkpt lat="42.70814" lon="0.90415">
        <ele>1272</ele>
        <time>2010-01-01T00:00:32Z</time>
      </trkpt>
      <trkpt lat="42.70824" lon="0.90424">
        <ele>1273</ele>
        <time>2010-01-01T00:00:36Z</time>
      </trkpt>
      <trkpt lat="42.70833" lon="0.90432">
        <ele>1274</ele>
        <time>2010-01-01T00:00:41Z</time>
      </trkpt>
      <trkpt lat="42.70839" lon="0.9044">
        <ele>1275</ele>
        <time>2010-01-01T00:00:44Z</time>
      </trkpt>
      <trkpt lat="42.70845" lon="0.90451">
        <ele>1277</ele>
        <time>2010-01-01T00:00:48Z</time>
      </trkpt>
      <trkpt lat="42.70855" lon="0.9046">
        <ele>1278</ele>
        <time>2010-01-01T00:00:53Z</time>
      </trkpt>
      <trkpt lat="42.70864" lon="0.90467">
        <ele>1280</ele>
        <time>2010-01-01T00:00:57Z</time>
      </trkpt>
      <trkpt lat="42.70874" lon="0.90473">
        <ele>1281</ele>
        <time>2010-01-01T00:01:01Z</time>
      </trkpt>
      <trkpt lat="42.70883" lon="0.90482">
        <ele>1284</ele>
        <time>2010-01-01T00:01:06Z</time>
      </trkpt>
      <trkpt lat="42.70892" lon="0.90489">
        <ele>1286</ele>
        <time>2010-01-01T00:01:10Z</time>
      </trkpt>
      <trkpt lat="42.70902" lon="0.90495">
        <ele>1286</ele>
        <time>2010-01-01T00:01:14Z</time>
      </trkpt>
      <trkpt lat="42.70911" lon="0.90503">
        <ele>1286</ele>
        <time>2010-01-01T00:01:19Z</time>
      </trkpt>
      <trkpt lat="42.70918" lon="0.90512">
        <ele>1287</ele>
        <time>2010-01-01T00:01:22Z</time>
      </trkpt>
      <trkpt lat="42.70927" lon="0.90518">
        <ele>1287</ele>
        <time>2010-01-01T00:01:27Z</time>
      </trkpt>
      <trkpt lat="42.70937" lon="0.90523">
        <ele>1286</ele>
        <time>2010-01-01T00:01:31Z</time>
      </trkpt>
      <trkpt lat="42.70948" lon="0.90528">
        <ele>1286</ele>
        <time>2010-01-01T00:01:35Z</time>
      </trkpt>
      <trkpt lat="42.70957" lon="0.90531">
        <ele>1285</ele>
        <time>2010-01-01T00:01:39Z</time>
      </trkpt>
      <trkpt lat="42.70969" lon="0.90532">
        <ele>1283</ele>
        <time>2010-01-01T00:01:44Z</time>
      </trkpt>
      <trkpt lat="42.70982" lon="0.90533">
        <ele>1283</ele>
        <time>2010-01-01T00:01:49Z</time>
      </trkpt>
      <trkpt lat="42.70992" lon="0.90533">
        <ele>1283</ele>
        <time>2010-01-01T00:01:53Z</time>
      </trkpt>
      <trkpt lat="42.71002" lon="0.90534">
        <ele>1284</ele>
        <time>2010-01-01T00:01:57Z</time>
      </trkpt>
      <trkpt lat="42.71013" lon="0.90535">
        <ele>1284</ele>
        <time>2010-01-01T00:02:01Z</time>
      </trkpt>
      <trkpt lat="42.71022" lon="0.90534">
        <ele>1284</ele>
        <time>2010-01-01T00:02:05Z</time>
      </trkpt>
      <trkpt lat="42.71031" lon="0.90529">
        <ele>1283</ele>
        <time>2010-01-01T00:02:09Z</time>
      </trkpt>
      <trkpt lat="42.7104" lon="0.90522">
        <ele>1280</ele>
        <time>2010-01-01T00:02:13Z</time>
      </trkpt>
      <trkpt lat="42.7105" lon="0.90516">
        <ele>1279</ele>
        <time>2010-01-01T00:02:18Z</time>
      </trkpt>
      <trkpt lat="42.7106" lon="0.90509">
        <ele>1277</ele>
        <time>2010-01-01T00:02:22Z</time>
      </trkpt>
      <trkpt lat="42.7107" lon="0.90504">
        <ele>1277</ele>
        <time>2010-01-01T00:02:26Z</time>
      </trkpt>
      <trkpt lat="42.7108" lon="0.90501">
        <ele>1277</ele>
        <time>2010-01-01T00:02:31Z</time>
      </trkpt>
      <trkpt lat="42.71091" lon="0.90501">
        <ele>1276</ele>
        <time>2010-01-01T00:02:35Z</time>
      </trkpt>
      <trkpt lat="42.71101" lon="0.90501">
        <ele>1276</ele>
        <time>2010-01-01T00:02:39Z</time>
      </trkpt>
      <trkpt lat="42.71112" lon="0.90501">
        <ele>1276</ele>
        <time>2010-01-01T00:02:43Z</time>
      </trkpt>
      <trkpt lat="42.71124" lon="0.90501">
        <ele>1276</ele>
        <time>2010-01-01T00:02:48Z</time>
      </trkpt>
      <trkpt lat="42.71135" lon="0.90498">
        <ele>1277</ele>
        <time>2010-01-01T00:02:53Z</time>
      </trkpt>
      <trkpt lat="42.71145" lon="0.90492">
        <ele>1278</ele>
        <time>2010-01-01T00:02:57Z</time>
      </trkpt>
      <trkpt lat="42.71155" lon="0.90483">
        <ele>1278</ele>
        <time>2010-01-01T00:03:02Z</time>
      </trkpt>
      <trkpt lat="42.71166" lon="0.90486">
        <ele>1278</ele>
        <time>2010-01-01T00:03:06Z</time>
      </trkpt>
      <trkpt lat="42.71172" lon="0.90498">
        <ele>1278</ele>
        <time>2010-01-01T00:03:11Z</time>
      </trkpt>
      <trkpt lat="42.71176" lon="0.90512">
        <ele>1278</ele>
        <time>2010-01-01T00:03:15Z</time>
      </trkpt>
      <trkpt lat="42.71179" lon="0.90526">
        <ele>1278</ele>
        <time>2010-01-01T00:03:19Z</time>
      </trkpt>
      <trkpt lat="42.71184" lon="0.9054">
        <ele>1278</ele>
        <time>2010-01-01T00:03:24Z</time>
      </trkpt>
      <trkpt lat="42.71189" lon="0.90554">
        <ele>1278</ele>
        <time>2010-01-01T00:03:28Z</time>
      </trkpt>
      <trkpt lat="42.71197" lon="0.90567">
        <ele>1279</ele>
        <time>2010-01-01T00:03:33Z</time>
      </trkpt>
      <trkpt lat="42.71203" lon="0.90579">
        <ele>1280</ele>
        <time>2010-01-01T00:03:38Z</time>
      </trkpt>
      <trkpt lat="42.71206" lon="0.90593">
        <ele>1283</ele>
        <time>2010-01-01T00:03:42Z</time>
      </trkpt>
      <trkpt lat="42.71208" lon="0.90607">
        <ele>1284</ele>
        <time>2010-01-01T00:03:46Z</time>
      </trkpt>
      <trkpt lat="42.71208" lon="0.90626">
        <ele>1286</ele>
        <time>2010-01-01T00:03:52Z</time>
      </trkpt>
      <trkpt lat="42.71209" lon="0.90645">
        <ele>1287</ele>
        <time>2010-01-01T00:03:57Z</time>
      </trkpt>
      <trkpt lat="42.7121" lon="0.90662">
        <ele>1287</ele>
        <time>2010-01-01T00:04:02Z</time>
      </trkpt>
      <trkpt lat="42.71212" lon="0.90679">
        <ele>1288</ele>
        <time>2010-01-01T00:04:07Z</time>
      </trkpt>
      <trkpt lat="42.71213" lon="0.90698">
        <ele>1288</ele>
        <time>2010-01-01T00:04:13Z</time>
      </trkpt>
      <trkpt lat="42.71216" lon="0.90711">
        <ele>1289</ele>
        <time>2010-01-01T00:04:17Z</time>
      </trkpt>
      <trkpt lat="42.7122" lon="0.90728">
        <ele>1289</ele>
        <time>2010-01-01T00:04:22Z</time>
      </trkpt>
      <trkpt lat="42.7122" lon="0.90748">
        <ele>1289</ele>
        <time>2010-01-01T00:04:28Z</time>
      </trkpt>
      <trkpt lat="42.71231" lon="0.90764">
        <ele>1288</ele>
        <time>2010-01-01T00:04:34Z</time>
      </trkpt>
      <trkpt lat="42.71235" lon="0.90776">
        <ele>1287</ele>
        <time>2010-01-01T00:04:38Z</time>
      </trkpt>
      <trkpt lat="42.71241" lon="0.90791">
        <ele>1288</ele>
        <time>2010-01-01T00:04:43Z</time>
      </trkpt>
      <trkpt lat="42.71245" lon="0.90804">
        <ele>1287</ele>
        <time>2010-01-01T00:04:47Z</time>
      </trkpt>
      <trkpt lat="42.7124" lon="0.90814">
        <ele>1286</ele>
        <time>2010-01-01T00:04:51Z</time>
      </trkpt>
      <trkpt lat="42.71231" lon="0.90834">
        <ele>1284</ele>
        <time>2010-01-01T00:04:58Z</time>
      </trkpt>
      <trkpt lat="42.7123" lon="0.90858">
        <ele>1283</ele>
        <time>2010-01-01T00:05:05Z</time>
      </trkpt>
      <trkpt lat="42.71233" lon="0.90878">
        <ele>1283</ele>
        <time>2010-01-01T00:05:11Z</time>
      </trkpt>
      <trkpt lat="42.71239" lon="0.90895">
        <ele>1283</ele>
        <time>2010-01-01T00:05:16Z</time>
      </trkpt>
      <trkpt lat="42.71244" lon="0.90908">
        <ele>1283</ele>
        <time>2010-01-01T00:05:21Z</time>
      </trkpt>
      <trkpt lat="42.71251" lon="0.90923">
        <ele>1283</ele>
        <time>2010-01-01T00:05:26Z</time>
      </trkpt>
      <trkpt lat="42.71262" lon="0.90942">
        <ele>1286</ele>
        <time>2010-01-01T00:05:33Z</time>
      </trkpt>
      <trkpt lat="42.71272" lon="0.90956">
        <ele>1287</ele>
        <time>2010-01-01T00:05:39Z</time>
      </trkpt>
      <trkpt lat="42.71286" lon="0.9098">
        <ele>1289</ele>
        <time>2010-01-01T00:05:48Z</time>
      </trkpt>
      <trkpt lat="42.71289" lon="0.91003">
        <ele>1292</ele>
        <time>2010-01-01T00:05:55Z</time>
      </trkpt>
      <trkpt lat="42.71306" lon="0.91033">
        <ele>1294</ele>
        <time>2010-01-01T00:06:06Z</time>
      </trkpt>
      <trkpt lat="42.71315" lon="0.91049">
        <ele>1295</ele>
        <time>2010-01-01T00:06:12Z</time>
      </trkpt>
      <trkpt lat="42.71338" lon="0.9108">
        <ele>1299</ele>
        <time>2010-01-01T00:06:25Z</time>
      </trkpt>
      <trkpt lat="42.71356" lon="0.91087">
        <ele>1302</ele>
        <time>2010-01-01T00:06:32Z</time>
      </trkpt>
      <trkpt lat="42.7138" lon="0.91096">
        <ele>1305</ele>
        <time>2010-01-01T00:06:42Z</time>
      </trkpt>
      <trkpt lat="42.71397" lon="0.91106">
        <ele>1308</ele>
        <time>2010-01-01T00:06:49Z</time>
      </trkpt>
      <trkpt lat="42.7141" lon="0.91114">
        <ele>1309</ele>
        <time>2010-01-01T00:06:55Z</time>
      </trkpt>
      <trkpt lat="42.71421" lon="0.91124">
        <ele>1310</ele>
        <time>2010-01-01T00:07:00Z</time>
      </trkpt>
      <trkpt lat="42.71424" lon="0.91139">
        <ele>1309</ele>
        <time>2010-01-01T00:07:05Z</time>
      </trkpt>
      <trkpt lat="42.71427" lon="0.91168">
        <ele>1309</ele>
        <time>2010-01-01T00:07:14Z</time>
      </trkpt>
      <trkpt lat="42.71433" lon="0.91196">
        <ele>1312</ele>
        <time>2010-01-01T00:07:22Z</time>
      </trkpt>
      <trkpt lat="42.71458" lon="0.91254">
        <ele>1333</ele>
        <time>2010-01-01T00:07:42Z</time>
      </trkpt>
      <trkpt lat="42.71455" lon="0.91268">
        <ele>1339</ele>
        <time>2010-01-01T00:07:46Z</time>
      </trkpt>
      <trkpt lat="42.71467" lon="0.91274">
        <ele>1342</ele>
        <time>2010-01-01T00:07:51Z</time>
      </trkpt>
      <trkpt lat="42.71493" lon="0.91285">
        <ele>1350</ele>
        <time>2010-01-01T00:08:03Z</time>
      </trkpt>
      <trkpt lat="42.71525" lon="0.91289">
        <ele>1350</ele>
        <time>2010-01-01T00:08:15Z</time>
      </trkpt>
      <trkpt lat="42.71536" lon="0.91292">
        <ele>1351</ele>
        <time>2010-01-01T00:08:20Z</time>
      </trkpt>
      <trkpt lat="42.71554" lon="0.91303">
        <ele>1354</ele>
        <time>2010-01-01T00:08:28Z</time>
      </trkpt>
      <trkpt lat="42.71564" lon="0.91318">
        <ele>1356</ele>
        <time>2010-01-01T00:08:34Z</time>
      </trkpt>
      <trkpt lat="42.71569" lon="0.91332">
        <ele>1358</ele>
        <time>2010-01-01T00:08:38Z</time>
      </trkpt>
      <trkpt lat="42.71571" lon="0.91353">
        <ele>1364</ele>
        <time>2010-01-01T00:08:45Z</time>
      </trkpt>
      <trkpt lat="42.71588" lon="0.91386">
        <ele>1367</ele>
        <time>2010-01-01T00:08:57Z</time>
      </trkpt>
      <trkpt lat="42.71617" lon="0.91381">
        <ele>1365</ele>
        <time>2010-01-01T00:09:08Z</time>
      </trkpt>
      <trkpt lat="42.71631" lon="0.91385">
        <ele>1368</ele>
        <time>2010-01-01T00:09:14Z</time>
      </trkpt>
      <trkpt lat="42.71642" lon="0.91384">
        <ele>1369</ele>
        <time>2010-01-01T00:09:18Z</time>
      </trkpt>
      <trkpt lat="42.71653" lon="0.91381">
        <ele>1370</ele>
        <time>2010-01-01T00:09:23Z</time>
      </trkpt>
      <trkpt lat="42.71677" lon="0.91392">
        <ele>1375</ele>
        <time>2010-01-01T00:09:33Z</time>
      </trkpt>
      <trkpt lat="42.71709" lon="0.91396">
        <ele>1378</ele>
        <time>2010-01-01T00:09:46Z</time>
      </trkpt>
      <trkpt lat="42.71746" lon="0.91417">
        <ele>1385</ele>
        <time>2010-01-01T00:10:02Z</time>
      </trkpt>
      <trkpt lat="42.71775" lon="0.91447">
        <ele>1395</ele>
        <time>2010-01-01T00:10:16Z</time>
      </trkpt>
      <trkpt lat="42.71784" lon="0.91464">
        <ele>1399</ele>
        <time>2010-01-01T00:10:23Z</time>
      </trkpt>
      <trkpt lat="42.71791" lon="0.9149">
        <ele>1406</ele>
        <time>2010-01-01T00:10:31Z</time>
      </trkpt>
      <trkpt lat="42.71805" lon="0.91508">
        <ele>1413</ele>
        <time>2010-01-01T00:10:39Z</time>
      </trkpt>
      <trkpt lat="42.71818" lon="0.91513">
        <ele>1415</ele>
        <time>2010-01-01T00:10:44Z</time>
      </trkpt>
      <trkpt lat="42.71825" lon="0.91519">
        <ele>1417</ele>
        <time>2010-01-01T00:10:47Z</time>
      </trkpt>
      <trkpt lat="42.71829" lon="0.91533">
        <ele>1421</ele>
        <time>2010-01-01T00:10:51Z</time>
      </trkpt>
      <trkpt lat="42.71821" lon="0.91549">
        <ele>1423</ele>
        <time>2010-01-01T00:10:57Z</time>
      </trkpt>
      <trkpt lat="42.71814" lon="0.91565">
        <ele>1424</ele>
        <time>2010-01-01T00:11:03Z</time>
      </trkpt>
      <trkpt lat="42.71808" lon="0.9158">
        <ele>1425</ele>
        <time>2010-01-01T00:11:08Z</time>
      </trkpt>
      <trkpt lat="42.71799" lon="0.91599">
        <ele>1426</ele>
        <time>2010-01-01T00:11:14Z</time>
      </trkpt>
      <trkpt lat="42.71794" lon="0.91613">
        <ele>1427</ele>
        <time>2010-01-01T00:11:19Z</time>
      </trkpt>
      <trkpt lat="42.71795" lon="0.91629">
        <ele>1429</ele>
        <time>2010-01-01T00:11:23Z</time>
      </trkpt>
      <trkpt lat="42.71794" lon="0.91643">
        <ele>1431</ele>
        <time>2010-01-01T00:11:28Z</time>
      </trkpt>
      <trkpt lat="42.71793" lon="0.91657">
        <ele>1432</ele>
        <time>2010-01-01T00:11:32Z</time>
      </trkpt>
      <trkpt lat="42.71792" lon="0.91672">
        <ele>1433</ele>
        <time>2010-01-01T00:11:36Z</time>
      </trkpt>
      <trkpt lat="42.71793" lon="0.91686">
        <ele>1434</ele>
        <time>2010-01-01T00:11:40Z</time>
      </trkpt>
      <trkpt lat="42.71795" lon="0.91701">
        <ele>1435</ele>
        <time>2010-01-01T00:11:45Z</time>
      </trkpt>
      <trkpt lat="42.71799" lon="0.91714">
        <ele>1437</ele>
        <time>2010-01-01T00:11:49Z</time>
      </trkpt>
      <trkpt lat="42.71804" lon="0.91726">
        <ele>1439</ele>
        <time>2010-01-01T00:11:53Z</time>
      </trkpt>
      <trkpt lat="42.71806" lon="0.91739">
        <ele>1440</ele>
        <time>2010-01-01T00:11:57Z</time>
      </trkpt>
      <trkpt lat="42.7181" lon="0.91753">
        <ele>1443</ele>
        <time>2010-01-01T00:12:01Z</time>
      </trkpt>
      <trkpt lat="42.71813" lon="0.91767">
        <ele>1446</ele>
        <time>2010-01-01T00:12:05Z</time>
      </trkpt>
      <trkpt lat="42.71816" lon="0.91781">
        <ele>1448</ele>
        <time>2010-01-01T00:12:10Z</time>
      </trkpt>
      <trkpt lat="42.71815" lon="0.91801">
        <ele>1450</ele>
        <time>2010-01-01T00:12:16Z</time>
      </trkpt>
      <trkpt lat="42.71808" lon="0.91821">
        <ele>1451</ele>
        <time>2010-01-01T00:12:22Z</time>
      </trkpt>
      <trkpt lat="42.71794" lon="0.91857">
        <ele>1455</ele>
        <time>2010-01-01T00:12:34Z</time>
      </trkpt>
      <trkpt lat="42.71791" lon="0.91876">
        <ele>1458</ele>
        <time>2010-01-01T00:12:40Z</time>
      </trkpt>
      <trkpt lat="42.71789" lon="0.91898">
        <ele>1463</ele>
        <time>2010-01-01T00:12:47Z</time>
      </trkpt>
      <trkpt lat="42.7178" lon="0.91926">
        <ele>1469</ele>
        <time>2010-01-01T00:12:55Z</time>
      </trkpt>
      <trkpt lat="42.71761" lon="0.91948">
        <ele>1473</ele>
        <time>2010-01-01T00:13:05Z</time>
      </trkpt>
      <trkpt lat="42.7175" lon="0.91963">
        <ele>1476</ele>
        <time>2010-01-01T00:13:12Z</time>
      </trkpt>
      <trkpt lat="42.71715" lon="0.92009">
        <ele>1492</ele>
        <time>2010-01-01T00:13:31Z</time>
      </trkpt>
      <trkpt lat="42.71705" lon="0.92035">
        <ele>1501</ele>
        <time>2010-01-01T00:13:40Z</time>
      </trkpt>
      <trkpt lat="42.71711" lon="0.92048">
        <ele>1501</ele>
        <time>2010-01-01T00:13:44Z</time>
      </trkpt>
      <trkpt lat="42.71713" lon="0.92065">
        <ele>1505</ele>
        <time>2010-01-01T00:13:49Z</time>
      </trkpt>
      <trkpt lat="42.71717" lon="0.92083">
        <ele>1508</ele>
        <time>2010-01-01T00:13:55Z</time>
      </trkpt>
      <trkpt lat="42.71714" lon="0.92087">
        <ele>1511</ele>
        <time>2010-01-01T00:13:56Z</time>
      </trkpt>
      <trkpt lat="42.71703" lon="0.92083">
        <ele>1513</ele>
        <time>2010-01-01T00:14:01Z</time>
      </trkpt>
      <trkpt lat="42.71693" lon="0.92076">
        <ele>1515</ele>
        <time>2010-01-01T00:14:05Z</time>
      </trkpt>
      <trkpt lat="42.71682" lon="0.92067">
        <ele>1519</ele>
        <time>2010-01-01T00:14:10Z</time>
      </trkpt>
      <trkpt lat="42.71673" lon="0.92055">
        <ele>1521</ele>
        <time>2010-01-01T00:14:15Z</time>
      </trkpt>
      <trkpt lat="42.71665" lon="0.92041">
        <ele>1523</ele>
        <time>2010-01-01T00:14:21Z</time>
      </trkpt>
      <trkpt lat="42.71643" lon="0.92007">
        <ele>1525</ele>
        <time>2010-01-01T00:14:34Z</time>
      </trkpt>
      <trkpt lat="42.71631" lon="0.92011">
        <ele>1529</ele>
        <time>2010-01-01T00:14:39Z</time>
      </trkpt>
      <trkpt lat="42.71638" lon="0.92021">
        <ele>1531</ele>
        <time>2010-01-01T00:14:43Z</time>
      </trkpt>
      <trkpt lat="42.71622" lon="0.92027">
        <ele>1536</ele>
        <time>2010-01-01T00:14:50Z</time>
      </trkpt>
      <trkpt lat="42.7161" lon="0.92027">
        <ele>1538</ele>
        <time>2010-01-01T00:14:55Z</time>
      </trkpt>
      <trkpt lat="42.71597" lon="0.92029">
        <ele>1540</ele>
        <time>2010-01-01T00:15:00Z</time>
      </trkpt>
      <trkpt lat="42.71574" lon="0.92031">
        <ele>1544</ele>
        <time>2010-01-01T00:15:09Z</time>
      </trkpt>
      <trkpt lat="42.71554" lon="0.92032">
        <ele>1551</ele>
        <time>2010-01-01T00:15:17Z</time>
      </trkpt>
      <trkpt lat="42.71551" lon="0.92044">
        <ele>1553</ele>
        <time>2010-01-01T00:15:21Z</time>
      </trkpt>
      <trkpt lat="42.71561" lon="0.92048">
        <ele>1551</ele>
        <time>2010-01-01T00:15:25Z</time>
      </trkpt>
      <trkpt lat="42.7157" lon="0.92057">
        <ele>1551</ele>
        <time>2010-01-01T00:15:29Z</time>
      </trkpt>
      <trkpt lat="42.7158" lon="0.92068">
        <ele>1555</ele>
        <time>2010-01-01T00:15:35Z</time>
      </trkpt>
      <trkpt lat="42.71583" lon="0.92079">
        <ele>1560</ele>
        <time>2010-01-01T00:15:38Z</time>
      </trkpt>
      <trkpt lat="42.71574" lon="0.92082">
        <ele>1561</ele>
        <time>2010-01-01T00:15:42Z</time>
      </trkpt>
      <trkpt lat="42.71562" lon="0.92086">
        <ele>1563</ele>
        <time>2010-01-01T00:15:47Z</time>
      </trkpt>
      <trkpt lat="42.71549" lon="0.92088">
        <ele>1567</ele>
        <time>2010-01-01T00:15:52Z</time>
      </trkpt>
      <trkpt lat="42.71525" lon="0.92072">
        <ele>1570</ele>
        <time>2010-01-01T00:16:03Z</time>
      </trkpt>
      <trkpt lat="42.71517" lon="0.92057">
        <ele>1571</ele>
        <time>2010-01-01T00:16:08Z</time>
      </trkpt>
      <trkpt lat="42.71513" lon="0.92041">
        <ele>1571</ele>
        <time>2010-01-01T00:16:13Z</time>
      </trkpt>
      <trkpt lat="42.71508" lon="0.92028">
        <ele>1574</ele>
        <time>2010-01-01T00:16:18Z</time>
      </trkpt>
      <trkpt lat="42.71499" lon="0.92019">
        <ele>1578</ele>
        <time>2010-01-01T00:16:22Z</time>
      </trkpt>
      <trkpt lat="42.71488" lon="0.92015">
        <ele>1581</ele>
        <time>2010-01-01T00:16:27Z</time>
      </trkpt>
      <trkpt lat="42.71477" lon="0.9201">
        <ele>1584</ele>
        <time>2010-01-01T00:16:31Z</time>
      </trkpt>
      <trkpt lat="42.71467" lon="0.92004">
        <ele>1585</ele>
        <time>2010-01-01T00:16:36Z</time>
      </trkpt>
      <trkpt lat="42.71453" lon="0.91996">
        <ele>1587</ele>
        <time>2010-01-01T00:16:42Z</time>
      </trkpt>
      <trkpt lat="42.71436" lon="0.91983">
        <ele>1590</ele>
        <time>2010-01-01T00:16:50Z</time>
      </trkpt>
      <trkpt lat="42.71423" lon="0.91977">
        <ele>1594</ele>
        <time>2010-01-01T00:16:55Z</time>
      </trkpt>
      <trkpt lat="42.7141" lon="0.91969">
        <ele>1598</ele>
        <time>2010-01-01T00:17:01Z</time>
      </trkpt>
      <trkpt lat="42.71395" lon="0.91958">
        <ele>1601</ele>
        <time>2010-01-01T00:17:07Z</time>
      </trkpt>
      <trkpt lat="42.71384" lon="0.9195">
        <ele>1604</ele>
        <time>2010-01-01T00:17:13Z</time>
      </trkpt>
      <trkpt lat="42.71373" lon="0.91939">
        <ele>1602</ele>
        <time>2010-01-01T00:17:18Z</time>
      </trkpt>
      <trkpt lat="42.71361" lon="0.91936">
        <ele>1603</ele>
        <time>2010-01-01T00:17:23Z</time>
      </trkpt>
      <trkpt lat="42.7135" lon="0.91934">
        <ele>1603</ele>
        <time>2010-01-01T00:17:27Z</time>
      </trkpt>
      <trkpt lat="42.71339" lon="0.91934">
        <ele>1605</ele>
        <time>2010-01-01T00:17:32Z</time>
      </trkpt>
      <trkpt lat="42.71327" lon="0.91935">
        <ele>1606</ele>
        <time>2010-01-01T00:17:37Z</time>
      </trkpt>
      <trkpt lat="42.7131" lon="0.9193">
        <ele>1604</ele>
        <time>2010-01-01T00:17:44Z</time>
      </trkpt>
      <trkpt lat="42.71297" lon="0.91924">
        <ele>1603</ele>
        <time>2010-01-01T00:17:49Z</time>
      </trkpt>
      <trkpt lat="42.71287" lon="0.91925">
        <ele>1605</ele>
        <time>2010-01-01T00:17:53Z</time>
      </trkpt>
      <trkpt lat="42.71277" lon="0.91926">
        <ele>1607</ele>
        <time>2010-01-01T00:17:57Z</time>
      </trkpt>
      <trkpt lat="42.71267" lon="0.9193">
        <ele>1610</ele>
        <time>2010-01-01T00:18:01Z</time>
      </trkpt>
      <trkpt lat="42.71258" lon="0.91932">
        <ele>1612</ele>
        <time>2010-01-01T00:18:05Z</time>
      </trkpt>
      <trkpt lat="42.71247" lon="0.91934">
        <ele>1614</ele>
        <time>2010-01-01T00:18:09Z</time>
      </trkpt>
      <trkpt lat="42.71236" lon="0.91935">
        <ele>1613</ele>
        <time>2010-01-01T00:18:13Z</time>
      </trkpt>
      <trkpt lat="42.71226" lon="0.91937">
        <ele>1614</ele>
        <time>2010-01-01T00:18:18Z</time>
      </trkpt>
      <trkpt lat="42.71215" lon="0.9194">
        <ele>1613</ele>
        <time>2010-01-01T00:18:22Z</time>
      </trkpt>
      <trkpt lat="42.71206" lon="0.91944">
        <ele>1613</ele>
        <time>2010-01-01T00:18:26Z</time>
      </trkpt>
      <trkpt lat="42.71197" lon="0.91949">
        <ele>1614</ele>
        <time>2010-01-01T00:18:30Z</time>
      </trkpt>
      <trkpt lat="42.71188" lon="0.91956">
        <ele>1617</ele>
        <time>2010-01-01T00:18:34Z</time>
      </trkpt>
      <trkpt lat="42.7118" lon="0.91966">
        <ele>1622</ele>
        <time>2010-01-01T00:18:38Z</time>
      </trkpt>
      <trkpt lat="42.71173" lon="0.91979">
        <ele>1628</ele>
        <time>2010-01-01T00:18:43Z</time>
      </trkpt>
      <trkpt lat="42.71166" lon="0.91989">
        <ele>1633</ele>
        <time>2010-01-01T00:18:47Z</time>
      </trkpt>
      <trkpt lat="42.71158" lon="0.91999">
        <ele>1638</ele>
        <time>2010-01-01T00:18:51Z</time>
      </trkpt>
      <trkpt lat="42.71149" lon="0.92004">
        <ele>1641</ele>
        <time>2010-01-01T00:18:55Z</time>
      </trkpt>
      <trkpt lat="42.71139" lon="0.92007">
        <ele>1642</ele>
        <time>2010-01-01T00:18:59Z</time>
      </trkpt>
      <trkpt lat="42.71129" lon="0.92008">
        <ele>1639</ele>
        <time>2010-01-01T00:19:03Z</time>
      </trkpt>
      <trkpt lat="42.71119" lon="0.92009">
        <ele>1637</ele>
        <time>2010-01-01T00:19:08Z</time>
      </trkpt>
      <trkpt lat="42.7111" lon="0.9201">
        <ele>1636</ele>
        <time>2010-01-01T00:19:11Z</time>
      </trkpt>
      <trkpt lat="42.711" lon="0.92013">
        <ele>1636</ele>
        <time>2010-01-01T00:19:15Z</time>
      </trkpt>
      <trkpt lat="42.7109" lon="0.92019">
        <ele>1638</ele>
        <time>2010-01-01T00:19:19Z</time>
      </trkpt>
      <trkpt lat="42.71081" lon="0.92025">
        <ele>1640</ele>
        <time>2010-01-01T00:19:24Z</time>
      </trkpt>
      <trkpt lat="42.71071" lon="0.92031">
        <ele>1640</ele>
        <time>2010-01-01T00:19:28Z</time>
      </trkpt>
      <trkpt lat="42.71061" lon="0.92038">
        <ele>1641</ele>
        <time>2010-01-01T00:19:33Z</time>
      </trkpt>
      <trkpt lat="42.7105" lon="0.92044">
        <ele>1641</ele>
        <time>2010-01-01T00:19:37Z</time>
      </trkpt>
      <trkpt lat="42.71039" lon="0.92046">
        <ele>1640</ele>
        <time>2010-01-01T00:19:41Z</time>
      </trkpt>
      <trkpt lat="42.71029" lon="0.92045">
        <ele>1638</ele>
        <time>2010-01-01T00:19:46Z</time>
      </trkpt>
      <trkpt lat="42.71018" lon="0.92043">
        <ele>1639</ele>
        <time>2010-01-01T00:19:50Z</time>
      </trkpt>
      <trkpt lat="42.71007" lon="0.92041">
        <ele>1641</ele>
        <time>2010-01-01T00:19:54Z</time>
      </trkpt>
      <trkpt lat="42.70997" lon="0.92038">
        <ele>1642</ele>
        <time>2010-01-01T00:19:59Z</time>
      </trkpt>
      <trkpt lat="42.70986" lon="0.92036">
        <ele>1643</ele>
        <time>2010-01-01T00:20:03Z</time>
      </trkpt>
      <trkpt lat="42.70976" lon="0.92033">
        <ele>1642</ele>
        <time>2010-01-01T00:20:07Z</time>
      </trkpt>
      <trkpt lat="42.70964" lon="0.92023">
        <ele>1639</ele>
        <time>2010-01-01T00:20:13Z</time>
      </trkpt>
      <trkpt lat="42.70956" lon="0.92013">
        <ele>1636</ele>
        <time>2010-01-01T00:20:17Z</time>
      </trkpt>
      <trkpt lat="42.70947" lon="0.92004">
        <ele>1633</ele>
        <time>2010-01-01T00:20:22Z</time>
      </trkpt>
      <trkpt lat="42.70937" lon="0.91997">
        <ele>1634</ele>
        <time>2010-01-01T00:20:26Z</time>
      </trkpt>
      <trkpt lat="42.70927" lon="0.91994">
        <ele>1639</ele>
        <time>2010-01-01T00:20:30Z</time>
      </trkpt>
      <trkpt lat="42.70917" lon="0.91992">
        <ele>1645</ele>
        <time>2010-01-01T00:20:34Z</time>
      </trkpt>
      <trkpt lat="42.70907" lon="0.9199">
        <ele>1650</ele>
        <time>2010-01-01T00:20:38Z</time>
      </trkpt>
      <trkpt lat="42.70897" lon="0.9199">
        <ele>1655</ele>
        <time>2010-01-01T00:20:42Z</time>
      </trkpt>
      <trkpt lat="42.7089" lon="0.91998">
        <ele>1659</ele>
        <time>2010-01-01T00:20:46Z</time>
      </trkpt>
      <trkpt lat="42.70891" lon="0.92011">
        <ele>1660</ele>
        <time>2010-01-01T00:20:50Z</time>
      </trkpt>
      <trkpt lat="42.70889" lon="0.92025">
        <ele>1664</ele>
        <time>2010-01-01T00:20:54Z</time>
      </trkpt>
      <trkpt lat="42.70885" lon="0.92038">
        <ele>1666</ele>
        <time>2010-01-01T00:20:58Z</time>
      </trkpt>
      <trkpt lat="42.70879" lon="0.92049">
        <ele>1667</ele>
        <time>2010-01-01T00:21:02Z</time>
      </trkpt>
      <trkpt lat="42.70872" lon="0.92059">
        <ele>1668</ele>
        <time>2010-01-01T00:21:06Z</time>
      </trkpt>
      <trkpt lat="42.70866" lon="0.9207">
        <ele>1670</ele>
        <time>2010-01-01T00:21:10Z</time>
      </trkpt>
      <trkpt lat="42.70861" lon="0.92084">
        <ele>1672</ele>
        <time>2010-01-01T00:21:15Z</time>
      </trkpt>
      <trkpt lat="42.70857" lon="0.92096">
        <ele>1672</ele>
        <time>2010-01-01T00:21:19Z</time>
      </trkpt>
      <trkpt lat="42.70852" lon="0.92108">
        <ele>1673</ele>
        <time>2010-01-01T00:21:23Z</time>
      </trkpt>
      <trkpt lat="42.70847" lon="0.92119">
        <ele>1673</ele>
        <time>2010-01-01T00:21:26Z</time>
      </trkpt>
      <trkpt lat="42.70844" lon="0.92131">
        <ele>1674</ele>
        <time>2010-01-01T00:21:30Z</time>
      </trkpt>
      <trkpt lat="42.70838" lon="0.92143">
        <ele>1673</ele>
        <time>2010-01-01T00:21:34Z</time>
      </trkpt>
      <trkpt lat="42.70834" lon="0.92155">
        <ele>1674</ele>
        <time>2010-01-01T00:21:38Z</time>
      </trkpt>
      <trkpt lat="42.70833" lon="0.92169">
        <ele>1677</ele>
        <time>2010-01-01T00:21:42Z</time>
      </trkpt>
      <trkpt lat="42.70834" lon="0.92182">
        <ele>1680</ele>
        <time>2010-01-01T00:21:46Z</time>
      </trkpt>
      <trkpt lat="42.70837" lon="0.92195">
        <ele>1684</ele>
        <time>2010-01-01T00:21:50Z</time>
      </trkpt>
      <trkpt lat="42.70838" lon="0.92209">
        <ele>1686</ele>
        <time>2010-01-01T00:21:54Z</time>
      </trkpt>
      <trkpt lat="42.70837" lon="0.92221">
        <ele>1688</ele>
        <time>2010-01-01T00:21:58Z</time>
      </trkpt>
      <trkpt lat="42.70836" lon="0.92235">
        <ele>1689</ele>
        <time>2010-01-01T00:22:02Z</time>
      </trkpt>
      <trkpt lat="42.70834" lon="0.92249">
        <ele>1691</ele>
        <time>2010-01-01T00:22:06Z</time>
      </trkpt>
      <trkpt lat="42.70831" lon="0.92262">
        <ele>1691</ele>
        <time>2010-01-01T00:22:10Z</time>
      </trkpt>
      <trkpt lat="42.70828" lon="0.92274">
        <ele>1692</ele>
        <time>2010-01-01T00:22:14Z</time>
      </trkpt>
      <trkpt lat="42.70824" lon="0.92285">
        <ele>1692</ele>
        <time>2010-01-01T00:22:18Z</time>
      </trkpt>
      <trkpt lat="42.7082" lon="0.92298">
        <ele>1692</ele>
        <time>2010-01-01T00:22:22Z</time>
      </trkpt>
      <trkpt lat="42.70817" lon="0.9231">
        <ele>1693</ele>
        <time>2010-01-01T00:22:26Z</time>
      </trkpt>
      <trkpt lat="42.70812" lon="0.92322">
        <ele>1693</ele>
        <time>2010-01-01T00:22:30Z</time>
      </trkpt>
      <trkpt lat="42.70809" lon="0.92334">
        <ele>1693</ele>
        <time>2010-01-01T00:22:33Z</time>
      </trkpt>
      <trkpt lat="42.70807" lon="0.92347">
        <ele>1694</ele>
        <time>2010-01-01T00:22:37Z</time>
      </trkpt>
      <trkpt lat="42.70805" lon="0.92361">
        <ele>1695</ele>
        <time>2010-01-01T00:22:41Z</time>
      </trkpt>
      <trkpt lat="42.70804" lon="0.92375">
        <ele>1696</ele>
        <time>2010-01-01T00:22:46Z</time>
      </trkpt>
      <trkpt lat="42.70802" lon="0.92388">
        <ele>1696</ele>
        <time>2010-01-01T00:22:49Z</time>
      </trkpt>
      <trkpt lat="42.70802" lon="0.92402">
        <ele>1698</ele>
        <time>2010-01-01T00:22:54Z</time>
      </trkpt>
      <trkpt lat="42.70801" lon="0.92416">
        <ele>1699</ele>
        <time>2010-01-01T00:22:58Z</time>
      </trkpt>
      <trkpt lat="42.70802" lon="0.92429">
        <ele>1701</ele>
        <time>2010-01-01T00:23:02Z</time>
      </trkpt>
      <trkpt lat="42.708" lon="0.92443">
        <ele>1701</ele>
        <time>2010-01-01T00:23:06Z</time>
      </trkpt>
      <trkpt lat="42.70799" lon="0.92456">
        <ele>1701</ele>
        <time>2010-01-01T00:23:10Z</time>
      </trkpt>
      <trkpt lat="42.70798" lon="0.92471">
        <ele>1701</ele>
        <time>2010-01-01T00:23:14Z</time>
      </trkpt>
      <trkpt lat="42.70797" lon="0.92485">
        <ele>1703</ele>
        <time>2010-01-01T00:23:18Z</time>
      </trkpt>
      <trkpt lat="42.70795" lon="0.92498">
        <ele>1704</ele>
        <time>2010-01-01T00:23:22Z</time>
      </trkpt>
      <trkpt lat="42.70794" lon="0.92512">
        <ele>1706</ele>
        <time>2010-01-01T00:23:26Z</time>
      </trkpt>
      <trkpt lat="42.70794" lon="0.92525">
        <ele>1708</ele>
        <time>2010-01-01T00:23:30Z</time>
      </trkpt>
      <trkpt lat="42.70793" lon="0.92538">
        <ele>1710</ele>
        <time>2010-01-01T00:23:34Z</time>
      </trkpt>
      <trkpt lat="42.70792" lon="0.92552">
        <ele>1711</ele>
        <time>2010-01-01T00:23:38Z</time>
      </trkpt>
      <trkpt lat="42.7079" lon="0.92565">
        <ele>1713</ele>
        <time>2010-01-01T00:23:42Z</time>
      </trkpt>
      <trkpt lat="42.70788" lon="0.92579">
        <ele>1715</ele>
        <time>2010-01-01T00:23:46Z</time>
      </trkpt>
      <trkpt lat="42.70786" lon="0.92592">
        <ele>1717</ele>
        <time>2010-01-01T00:23:50Z</time>
      </trkpt>
      <trkpt lat="42.70785" lon="0.92605">
        <ele>1719</ele>
        <time>2010-01-01T00:23:54Z</time>
      </trkpt>
      <trkpt lat="42.70783" lon="0.92619">
        <ele>1721</ele>
        <time>2010-01-01T00:23:58Z</time>
      </trkpt>
      <trkpt lat="42.70781" lon="0.92632">
        <ele>1722</ele>
        <time>2010-01-01T00:24:02Z</time>
      </trkpt>
      <trkpt lat="42.7078" lon="0.92645">
        <ele>1723</ele>
        <time>2010-01-01T00:24:06Z</time>
      </trkpt>
      <trkpt lat="42.70778" lon="0.92659">
        <ele>1724</ele>
        <time>2010-01-01T00:24:10Z</time>
      </trkpt>
      <trkpt lat="42.70776" lon="0.92673">
        <ele>1725</ele>
        <time>2010-01-01T00:24:14Z</time>
      </trkpt>
      <trkpt lat="42.70775" lon="0.92686">
        <ele>1726</ele>
        <time>2010-01-01T00:24:18Z</time>
      </trkpt>
      <trkpt lat="42.70773" lon="0.92699">
        <ele>1727</ele>
        <time>2010-01-01T00:24:22Z</time>
      </trkpt>
      <trkpt lat="42.70772" lon="0.92715">
        <ele>1729</ele>
        <time>2010-01-01T00:24:26Z</time>
      </trkpt>
      <trkpt lat="42.70772" lon="0.92728">
        <ele>1731</ele>
        <time>2010-01-01T00:24:30Z</time>
      </trkpt>
      <trkpt lat="42.70771" lon="0.92741">
        <ele>1733</ele>
        <time>2010-01-01T00:24:34Z</time>
      </trkpt>
      <trkpt lat="42.7077" lon="0.92754">
        <ele>1734</ele>
        <time>2010-01-01T00:24:38Z</time>
      </trkpt>
      <trkpt lat="42.70768" lon="0.92767">
        <ele>1734</ele>
        <time>2010-01-01T00:24:42Z</time>
      </trkpt>
      <trkpt lat="42.70767" lon="0.9278">
        <ele>1734</ele>
        <time>2010-01-01T00:24:46Z</time>
      </trkpt>
      <trkpt lat="42.70766" lon="0.92795">
        <ele>1733</ele>
        <time>2010-01-01T00:24:50Z</time>
      </trkpt>
      <trkpt lat="42.70766" lon="0.92809">
        <ele>1733</ele>
        <time>2010-01-01T00:24:54Z</time>
      </trkpt>
      <trkpt lat="42.70766" lon="0.92823">
        <ele>1735</ele>
        <time>2010-01-01T00:24:59Z</time>
      </trkpt>
      <trkpt lat="42.70766" lon="0.92837">
        <ele>1737</ele>
        <time>2010-01-01T00:25:03Z</time>
      </trkpt>
      <trkpt lat="42.70766" lon="0.9285">
        <ele>1738</ele>
        <time>2010-01-01T00:25:07Z</time>
      </trkpt>
      <trkpt lat="42.70766" lon="0.92864">
        <ele>1739</ele>
        <time>2010-01-01T00:25:11Z</time>
      </trkpt>
      <trkpt lat="42.70767" lon="0.92878">
        <ele>1741</ele>
        <time>2010-01-01T00:25:15Z</time>
      </trkpt>
      <trkpt lat="42.70767" lon="0.92891">
        <ele>1742</ele>
        <time>2010-01-01T00:25:19Z</time>
      </trkpt>
      <trkpt lat="42.70767" lon="0.92904">
        <ele>1742</ele>
        <time>2010-01-01T00:25:22Z</time>
      </trkpt>
      <trkpt lat="42.70767" lon="0.92917">
        <ele>1743</ele>
        <time>2010-01-01T00:25:26Z</time>
      </trkpt>
      <trkpt lat="42.70767" lon="0.92931">
        <ele>1742</ele>
        <time>2010-01-01T00:25:30Z</time>
      </trkpt>
      <trkpt lat="42.70766" lon="0.92945">
        <ele>1742</ele>
        <time>2010-01-01T00:25:34Z</time>
      </trkpt>
      <trkpt lat="42.70767" lon="0.9296">
        <ele>1742</ele>
        <time>2010-01-01T00:25:39Z</time>
      </trkpt>
      <trkpt lat="42.70768" lon="0.92975">
        <ele>1743</ele>
        <time>2010-01-01T00:25:43Z</time>
      </trkpt>
      <trkpt lat="42.70769" lon="0.92988">
        <ele>1745</ele>
        <time>2010-01-01T00:25:47Z</time>
      </trkpt>
      <trkpt lat="42.70772" lon="0.93001">
        <ele>1747</ele>
        <time>2010-01-01T00:25:51Z</time>
      </trkpt>
      <trkpt lat="42.70774" lon="0.93014">
        <ele>1749</ele>
        <time>2010-01-01T00:25:55Z</time>
      </trkpt>
      <trkpt lat="42.70776" lon="0.93029">
        <ele>1750</ele>
        <time>2010-01-01T00:25:59Z</time>
      </trkpt>
      <trkpt lat="42.70777" lon="0.93042">
        <ele>1751</ele>
        <time>2010-01-01T00:26:03Z</time>
      </trkpt>
      <trkpt lat="42.70777" lon="0.93054">
        <ele>1752</ele>
        <time>2010-01-01T00:26:07Z</time>
      </trkpt>
      <trkpt lat="42.70777" lon="0.93069">
        <ele>1753</ele>
        <time>2010-01-01T00:26:11Z</time>
      </trkpt>
      <trkpt lat="42.70776" lon="0.93083">
        <ele>1754</ele>
        <time>2010-01-01T00:26:15Z</time>
      </trkpt>
      <trkpt lat="42.70775" lon="0.93096">
        <ele>1754</ele>
        <time>2010-01-01T00:26:19Z</time>
      </trkpt>
      <trkpt lat="42.70775" lon="0.93109">
        <ele>1755</ele>
        <time>2010-01-01T00:26:23Z</time>
      </trkpt>
      <trkpt lat="42.70778" lon="0.93122">
        <ele>1756</ele>
        <time>2010-01-01T00:26:27Z</time>
      </trkpt>
      <trkpt lat="42.70782" lon="0.93137">
        <ele>1758</ele>
        <time>2010-01-01T00:26:32Z</time>
      </trkpt>
      <trkpt lat="42.70782" lon="0.93151">
        <ele>1759</ele>
        <time>2010-01-01T00:26:36Z</time>
      </trkpt>
      <trkpt lat="42.70782" lon="0.93164">
        <ele>1759</ele>
        <time>2010-01-01T00:26:40Z</time>
      </trkpt>
      <trkpt lat="42.70781" lon="0.93177">
        <ele>1759</ele>
        <time>2010-01-01T00:26:44Z</time>
      </trkpt>
      <trkpt lat="42.70779" lon="0.9319">
        <ele>1759</ele>
        <time>2010-01-01T00:26:47Z</time>
      </trkpt>
      <trkpt lat="42.70779" lon="0.93203">
        <ele>1759</ele>
        <time>2010-01-01T00:26:51Z</time>
      </trkpt>
      <trkpt lat="42.7078" lon="0.93216">
        <ele>1760</ele>
        <time>2010-01-01T00:26:55Z</time>
      </trkpt>
      <trkpt lat="42.70781" lon="0.93229">
        <ele>1760</ele>
        <time>2010-01-01T00:26:59Z</time>
      </trkpt>
      <trkpt lat="42.70782" lon="0.93242">
        <ele>1761</ele>
        <time>2010-01-01T00:27:03Z</time>
      </trkpt>
      <trkpt lat="42.70782" lon="0.93254">
        <ele>1761</ele>
        <time>2010-01-01T00:27:06Z</time>
      </trkpt>
      <trkpt lat="42.70781" lon="0.93267">
        <ele>1761</ele>
        <time>2010-01-01T00:27:10Z</time>
      </trkpt>
      <trkpt lat="42.70783" lon="0.93281">
        <ele>1762</ele>
        <time>2010-01-01T00:27:14Z</time>
      </trkpt>
      <trkpt lat="42.70783" lon="0.93294">
        <ele>1763</ele>
        <time>2010-01-01T00:27:18Z</time>
      </trkpt>
      <trkpt lat="42.70785" lon="0.93307">
        <ele>1765</ele>
        <time>2010-01-01T00:27:22Z</time>
      </trkpt>
      <trkpt lat="42.70785" lon="0.9332">
        <ele>1766</ele>
        <time>2010-01-01T00:27:26Z</time>
      </trkpt>
      <trkpt lat="42.70785" lon="0.93333">
        <ele>1768</ele>
        <time>2010-01-01T00:27:30Z</time>
      </trkpt>
      <trkpt lat="42.70787" lon="0.93346">
        <ele>1771</ele>
        <time>2010-01-01T00:27:34Z</time>
      </trkpt>
      <trkpt lat="42.70788" lon="0.93361">
        <ele>1773</ele>
        <time>2010-01-01T00:27:38Z</time>
      </trkpt>
      <trkpt lat="42.70787" lon="0.93374">
        <ele>1777</ele>
        <time>2010-01-01T00:27:42Z</time>
      </trkpt>
      <trkpt lat="42.70785" lon="0.93388">
        <ele>1780</ele>
        <time>2010-01-01T00:27:46Z</time>
      </trkpt>
      <trkpt lat="42.70781" lon="0.934">
        <ele>1781</ele>
        <time>2010-01-01T00:27:50Z</time>
      </trkpt>
      <trkpt lat="42.70776" lon="0.93411">
        <ele>1780</ele>
        <time>2010-01-01T00:27:54Z</time>
      </trkpt>
      <trkpt lat="42.7077" lon="0.93423">
        <ele>1777</ele>
        <time>2010-01-01T00:27:58Z</time>
      </trkpt>
      <trkpt lat="42.70765" lon="0.93435">
        <ele>1774</ele>
        <time>2010-01-01T00:28:02Z</time>
      </trkpt>
      <trkpt lat="42.7076" lon="0.93446">
        <ele>1772</ele>
        <time>2010-01-01T00:28:06Z</time>
      </trkpt>
      <trkpt lat="42.70755" lon="0.93458">
        <ele>1770</ele>
        <time>2010-01-01T00:28:10Z</time>
      </trkpt>
      <trkpt lat="42.70753" lon="0.9347">
        <ele>1770</ele>
        <time>2010-01-01T00:28:14Z</time>
      </trkpt>
      <trkpt lat="42.70751" lon="0.93483">
        <ele>1771</ele>
        <time>2010-01-01T00:28:17Z</time>
      </trkpt>
      <trkpt lat="42.70748" lon="0.93495">
        <ele>1773</ele>
        <time>2010-01-01T00:28:21Z</time>
      </trkpt>
      <trkpt lat="42.70744" lon="0.93507">
        <ele>1775</ele>
        <time>2010-01-01T00:28:25Z</time>
      </trkpt>
      <trkpt lat="42.70739" lon="0.93518">
        <ele>1776</ele>
        <time>2010-01-01T00:28:29Z</time>
      </trkpt>
      <trkpt lat="42.70735" lon="0.9353">
        <ele>1779</ele>
        <time>2010-01-01T00:28:33Z</time>
      </trkpt>
      <trkpt lat="42.70731" lon="0.93542">
        <ele>1781</ele>
        <time>2010-01-01T00:28:37Z</time>
      </trkpt>
      <trkpt lat="42.70728" lon="0.93556">
        <ele>1784</ele>
        <time>2010-01-01T00:28:41Z</time>
      </trkpt>
      <trkpt lat="42.70726" lon="0.9357">
        <ele>1785</ele>
        <time>2010-01-01T00:28:45Z</time>
      </trkpt>
      <trkpt lat="42.70725" lon="0.93583">
        <ele>1785</ele>
        <time>2010-01-01T00:28:49Z</time>
      </trkpt>
      <trkpt lat="42.70723" lon="0.93597">
        <ele>1783</ele>
        <time>2010-01-01T00:28:53Z</time>
      </trkpt>
      <trkpt lat="42.70721" lon="0.93611">
        <ele>1781</ele>
        <time>2010-01-01T00:28:57Z</time>
      </trkpt>
      <trkpt lat="42.70721" lon="0.93623">
        <ele>1779</ele>
        <time>2010-01-01T00:29:01Z</time>
      </trkpt>
      <trkpt lat="42.7072" lon="0.93636">
        <ele>1776</ele>
        <time>2010-01-01T00:29:05Z</time>
      </trkpt>
      <trkpt lat="42.70719" lon="0.9365">
        <ele>1774</ele>
        <time>2010-01-01T00:29:09Z</time>
      </trkpt>
      <trkpt lat="42.7072" lon="0.93664">
        <ele>1773</ele>
        <time>2010-01-01T00:29:13Z</time>
      </trkpt>
      <trkpt lat="42.70724" lon="0.93676">
        <ele>1776</ele>
        <time>2010-01-01T00:29:17Z</time>
      </trkpt>
      <trkpt lat="42.70731" lon="0.93686">
        <ele>1782</ele>
        <time>2010-01-01T00:29:21Z</time>
      </trkpt>
      <trkpt lat="42.70739" lon="0.93695">
        <ele>1789</ele>
        <time>2010-01-01T00:29:25Z</time>
      </trkpt>
      <trkpt lat="42.70747" lon="0.93706">
        <ele>1795</ele>
        <time>2010-01-01T00:29:30Z</time>
      </trkpt>
      <trkpt lat="42.7075" lon="0.93719">
        <ele>1796</ele>
        <time>2010-01-01T00:29:34Z</time>
      </trkpt>
      <trkpt lat="42.7075" lon="0.93733">
        <ele>1795</ele>
        <time>2010-01-01T00:29:38Z</time>
      </trkpt>
      <trkpt lat="42.70751" lon="0.93746">
        <ele>1793</ele>
        <time>2010-01-01T00:29:42Z</time>
      </trkpt>
      <trkpt lat="42.70752" lon="0.9376">
        <ele>1792</ele>
        <time>2010-01-01T00:29:46Z</time>
      </trkpt>
      <trkpt lat="42.70752" lon="0.93774">
        <ele>1791</ele>
        <time>2010-01-01T00:29:50Z</time>
      </trkpt>
      <trkpt lat="42.70754" lon="0.93787">
        <ele>1791</ele>
        <time>2010-01-01T00:29:54Z</time>
      </trkpt>
      <trkpt lat="42.70755" lon="0.938">
        <ele>1792</ele>
        <time>2010-01-01T00:29:58Z</time>
      </trkpt>
      <trkpt lat="42.70757" lon="0.93813">
        <ele>1792</ele>
        <time>2010-01-01T00:30:02Z</time>
      </trkpt>
      <trkpt lat="42.70761" lon="0.93827">
        <ele>1793</ele>
        <time>2010-01-01T00:30:06Z</time>
      </trkpt>
      <trkpt lat="42.70764" lon="0.9384">
        <ele>1794</ele>
        <time>2010-01-01T00:30:10Z</time>
      </trkpt>
      <trkpt lat="42.70767" lon="0.93852">
        <ele>1796</ele>
        <time>2010-01-01T00:30:14Z</time>
      </trkpt>
      <trkpt lat="42.70769" lon="0.93866">
        <ele>1797</ele>
        <time>2010-01-01T00:30:18Z</time>
      </trkpt>
      <trkpt lat="42.70771" lon="0.93878">
        <ele>1799</ele>
        <time>2010-01-01T00:30:21Z</time>
      </trkpt>
      <trkpt lat="42.70772" lon="0.93892">
        <ele>1801</ele>
        <time>2010-01-01T00:30:26Z</time>
      </trkpt>
      <trkpt lat="42.70775" lon="0.93905">
        <ele>1802</ele>
        <time>2010-01-01T00:30:29Z</time>
      </trkpt>
      <trkpt lat="42.70778" lon="0.93918">
        <ele>1803</ele>
        <time>2010-01-01T00:30:34Z</time>
      </trkpt>
      <trkpt lat="42.70783" lon="0.93932">
        <ele>1803</ele>
        <time>2010-01-01T00:30:38Z</time>
      </trkpt>
      <trkpt lat="42.70786" lon="0.93945">
        <ele>1803</ele>
        <time>2010-01-01T00:30:42Z</time>
      </trkpt>
      <trkpt lat="42.70789" lon="0.93959">
        <ele>1805</ele>
        <time>2010-01-01T00:30:47Z</time>
      </trkpt>
      <trkpt lat="42.70794" lon="0.93973">
        <ele>1808</ele>
        <time>2010-01-01T00:30:51Z</time>
      </trkpt>
      <trkpt lat="42.70797" lon="0.93987">
        <ele>1811</ele>
        <time>2010-01-01T00:30:55Z</time>
      </trkpt>
      <trkpt lat="42.70802" lon="0.94">
        <ele>1813</ele>
        <time>2010-01-01T00:31:00Z</time>
      </trkpt>
      <trkpt lat="42.70806" lon="0.94013">
        <ele>1815</ele>
        <time>2010-01-01T00:31:04Z</time>
      </trkpt>
      <trkpt lat="42.70811" lon="0.94025">
        <ele>1817</ele>
        <time>2010-01-01T00:31:08Z</time>
      </trkpt>
      <trkpt lat="42.70816" lon="0.94036">
        <ele>1818</ele>
        <time>2010-01-01T00:31:12Z</time>
      </trkpt>
      <trkpt lat="42.70821" lon="0.94047">
        <ele>1818</ele>
        <time>2010-01-01T00:31:16Z</time>
      </trkpt>
      <trkpt lat="42.70825" lon="0.94059">
        <ele>1817</ele>
        <time>2010-01-01T00:31:19Z</time>
      </trkpt>
      <trkpt lat="42.70831" lon="0.9407">
        <ele>1817</ele>
        <time>2010-01-01T00:31:23Z</time>
      </trkpt>
      <trkpt lat="42.70836" lon="0.94081">
        <ele>1817</ele>
        <time>2010-01-01T00:31:27Z</time>
      </trkpt>
      <trkpt lat="42.7084" lon="0.94092">
        <ele>1819</ele>
        <time>2010-01-01T00:31:31Z</time>
      </trkpt>
      <trkpt lat="42.70845" lon="0.94103">
        <ele>1820</ele>
        <time>2010-01-01T00:31:35Z</time>
      </trkpt>
      <trkpt lat="42.70851" lon="0.94114">
        <ele>1823</ele>
        <time>2010-01-01T00:31:39Z</time>
      </trkpt>
      <trkpt lat="42.70858" lon="0.94124">
        <ele>1826</ele>
        <time>2010-01-01T00:31:43Z</time>
      </trkpt>
      <trkpt lat="42.70863" lon="0.94137">
        <ele>1827</ele>
        <time>2010-01-01T00:31:47Z</time>
      </trkpt>
      <trkpt lat="42.70868" lon="0.94149">
        <ele>1828</ele>
        <time>2010-01-01T00:31:51Z</time>
      </trkpt>
      <trkpt lat="42.70873" lon="0.94159">
        <ele>1829</ele>
        <time>2010-01-01T00:31:55Z</time>
      </trkpt>
      <trkpt lat="42.70879" lon="0.9417">
        <ele>1830</ele>
        <time>2010-01-01T00:31:59Z</time>
      </trkpt>
      <trkpt lat="42.70887" lon="0.94179">
        <ele>1832</ele>
        <time>2010-01-01T00:32:03Z</time>
      </trkpt>
      <trkpt lat="42.70896" lon="0.94186">
        <ele>1835</ele>
        <time>2010-01-01T00:32:07Z</time>
      </trkpt>
      <trkpt lat="42.70904" lon="0.94193">
        <ele>1838</ele>
        <time>2010-01-01T00:32:11Z</time>
      </trkpt>
      <trkpt lat="42.70911" lon="0.94202">
        <ele>1840</ele>
        <time>2010-01-01T00:32:14Z</time>
      </trkpt>
      <trkpt lat="42.70916" lon="0.94213">
        <ele>1842</ele>
        <time>2010-01-01T00:32:18Z</time>
      </trkpt>
      <trkpt lat="42.70921" lon="0.94223">
        <ele>1843</ele>
        <time>2010-01-01T00:32:22Z</time>
      </trkpt>
      <trkpt lat="42.70927" lon="0.94234">
        <ele>1846</ele>
        <time>2010-01-01T00:32:26Z</time>
      </trkpt>
      <trkpt lat="42.70931" lon="0.94247">
        <ele>1847</ele>
        <time>2010-01-01T00:32:30Z</time>
      </trkpt>
      <trkpt lat="42.70932" lon="0.94261">
        <ele>1848</ele>
        <time>2010-01-01T00:32:34Z</time>
      </trkpt>
      <trkpt lat="42.70935" lon="0.94274">
        <ele>1850</ele>
        <time>2010-01-01T00:32:38Z</time>
      </trkpt>
      <trkpt lat="42.70937" lon="0.94287">
        <ele>1852</ele>
        <time>2010-01-01T00:32:42Z</time>
      </trkpt>
      <trkpt lat="42.70941" lon="0.943">
        <ele>1855</ele>
        <time>2010-01-01T00:32:46Z</time>
      </trkpt>
      <trkpt lat="42.70943" lon="0.94312">
        <ele>1857</ele>
        <time>2010-01-01T00:32:50Z</time>
      </trkpt>
      <trkpt lat="42.70947" lon="0.94325">
        <ele>1857</ele>
        <time>2010-01-01T00:32:54Z</time>
      </trkpt>
      <trkpt lat="42.70951" lon="0.94337">
        <ele>1858</ele>
        <time>2010-01-01T00:32:58Z</time>
      </trkpt>
      <trkpt lat="42.70952" lon="0.9435">
        <ele>1858</ele>
        <time>2010-01-01T00:33:02Z</time>
      </trkpt>
      <trkpt lat="42.70955" lon="0.94365">
        <ele>1859</ele>
        <time>2010-01-01T00:33:06Z</time>
      </trkpt>
      <trkpt lat="42.7096" lon="0.94377">
        <ele>1862</ele>
        <time>2010-01-01T00:33:10Z</time>
      </trkpt>
      <trkpt lat="42.70963" lon="0.9439">
        <ele>1864</ele>
        <time>2010-01-01T00:33:14Z</time>
      </trkpt>
      <trkpt lat="42.70967" lon="0.94402">
        <ele>1865</ele>
        <time>2010-01-01T00:33:18Z</time>
      </trkpt>
      <trkpt lat="42.70973" lon="0.94412">
        <ele>1866</ele>
        <time>2010-01-01T00:33:22Z</time>
      </trkpt>
      <trkpt lat="42.70979" lon="0.94423">
        <ele>1867</ele>
        <time>2010-01-01T00:33:26Z</time>
      </trkpt>
      <trkpt lat="42.70985" lon="0.94434">
        <ele>1868</ele>
        <time>2010-01-01T00:33:30Z</time>
      </trkpt>
      <trkpt lat="42.70991" lon="0.94446">
        <ele>1868</ele>
        <time>2010-01-01T00:33:34Z</time>
      </trkpt>
      <trkpt lat="42.70996" lon="0.94457">
        <ele>1869</ele>
        <time>2010-01-01T00:33:38Z</time>
      </trkpt>
      <trkpt lat="42.71002" lon="0.9447">
        <ele>1870</ele>
        <time>2010-01-01T00:33:43Z</time>
      </trkpt>
      <trkpt lat="42.71006" lon="0.94482">
        <ele>1871</ele>
        <time>2010-01-01T00:33:47Z</time>
      </trkpt>
      <trkpt lat="42.71011" lon="0.94495">
        <ele>1871</ele>
        <time>2010-01-01T00:33:51Z</time>
      </trkpt>
      <trkpt lat="42.71014" lon="0.9451">
        <ele>1870</ele>
        <time>2010-01-01T00:33:55Z</time>
      </trkpt>
      <trkpt lat="42.71017" lon="0.94524">
        <ele>1870</ele>
        <time>2010-01-01T00:34:00Z</time>
      </trkpt>
      <trkpt lat="42.7102" lon="0.94536">
        <ele>1870</ele>
        <time>2010-01-01T00:34:04Z</time>
      </trkpt>
      <trkpt lat="42.71021" lon="0.94549">
        <ele>1870</ele>
        <time>2010-01-01T00:34:07Z</time>
      </trkpt>
      <trkpt lat="42.71022" lon="0.94563">
        <ele>1871</ele>
        <time>2010-01-01T00:34:11Z</time>
      </trkpt>
      <trkpt lat="42.71021" lon="0.94576">
        <ele>1873</ele>
        <time>2010-01-01T00:34:15Z</time>
      </trkpt>
      <trkpt lat="42.71019" lon="0.94589">
        <ele>1874</ele>
        <time>2010-01-01T00:34:19Z</time>
      </trkpt>
      <trkpt lat="42.71015" lon="0.94602">
        <ele>1876</ele>
        <time>2010-01-01T00:34:23Z</time>
      </trkpt>
      <trkpt lat="42.71014" lon="0.94617">
        <ele>1877</ele>
        <time>2010-01-01T00:34:28Z</time>
      </trkpt>
      <trkpt lat="42.71012" lon="0.94631">
        <ele>1877</ele>
        <time>2010-01-01T00:34:32Z</time>
      </trkpt>
      <trkpt lat="42.71011" lon="0.94645">
        <ele>1877</ele>
        <time>2010-01-01T00:34:36Z</time>
      </trkpt>
      <trkpt lat="42.71011" lon="0.94658">
        <ele>1877</ele>
        <time>2010-01-01T00:34:40Z</time>
      </trkpt>
      <trkpt lat="42.71012" lon="0.94672">
        <ele>1877</ele>
        <time>2010-01-01T00:34:44Z</time>
      </trkpt>
      <trkpt lat="42.71014" lon="0.94687">
        <ele>1878</ele>
        <time>2010-01-01T00:34:49Z</time>
      </trkpt>
      <trkpt lat="42.71015" lon="0.94702">
        <ele>1879</ele>
        <time>2010-01-01T00:34:53Z</time>
      </trkpt>
      <trkpt lat="42.71016" lon="0.94716">
        <ele>1880</ele>
        <time>2010-01-01T00:34:57Z</time>
      </trkpt>
      <trkpt lat="42.71016" lon="0.94731">
        <ele>1882</ele>
        <time>2010-01-01T00:35:01Z</time>
      </trkpt>
      <trkpt lat="42.71014" lon="0.94743">
        <ele>1884</ele>
        <time>2010-01-01T00:35:05Z</time>
      </trkpt>
      <trkpt lat="42.71013" lon="0.94757">
        <ele>1885</ele>
        <time>2010-01-01T00:35:09Z</time>
      </trkpt>
      <trkpt lat="42.71012" lon="0.94767">
        <ele>1885</ele>
        <time>2010-01-01T00:35:12Z</time>
      </trkpt>
      <trkpt lat="42.71012" lon="0.94783">
        <ele>1886</ele>
        <time>2010-01-01T00:35:17Z</time>
      </trkpt>
      <trkpt lat="42.71011" lon="0.94795">
        <ele>1887</ele>
        <time>2010-01-01T00:35:20Z</time>
      </trkpt>
      <trkpt lat="42.71009" lon="0.94808">
        <ele>1887</ele>
        <time>2010-01-01T00:35:24Z</time>
      </trkpt>
      <trkpt lat="42.71007" lon="0.94822">
        <ele>1886</ele>
        <time>2010-01-01T00:35:28Z</time>
      </trkpt>
      <trkpt lat="42.71001" lon="0.94832">
        <ele>1885</ele>
        <time>2010-01-01T00:35:32Z</time>
      </trkpt>
      <trkpt lat="42.70997" lon="0.94844">
        <ele>1884</ele>
        <time>2010-01-01T00:35:36Z</time>
      </trkpt>
      <trkpt lat="42.70992" lon="0.94854">
        <ele>1883</ele>
        <time>2010-01-01T00:35:40Z</time>
      </trkpt>
      <trkpt lat="42.70987" lon="0.94868">
        <ele>1882</ele>
        <time>2010-01-01T00:35:44Z</time>
      </trkpt>
      <trkpt lat="42.70985" lon="0.94882">
        <ele>1881</ele>
        <time>2010-01-01T00:35:48Z</time>
      </trkpt>
      <trkpt lat="42.7098" lon="0.94893">
        <ele>1879</ele>
        <time>2010-01-01T00:35:52Z</time>
      </trkpt>
      <trkpt lat="42.70973" lon="0.94902">
        <ele>1878</ele>
        <time>2010-01-01T00:35:56Z</time>
      </trkpt>
      <trkpt lat="42.70965" lon="0.94913">
        <ele>1878</ele>
        <time>2010-01-01T00:36:00Z</time>
      </trkpt>
      <trkpt lat="42.7096" lon="0.94925">
        <ele>1879</ele>
        <time>2010-01-01T00:36:05Z</time>
      </trkpt>
      <trkpt lat="42.70954" lon="0.94938">
        <ele>1880</ele>
        <time>2010-01-01T00:36:09Z</time>
      </trkpt>
      <trkpt lat="42.70951" lon="0.94953">
        <ele>1881</ele>
        <time>2010-01-01T00:36:14Z</time>
      </trkpt>
      <trkpt lat="42.70948" lon="0.94969">
        <ele>1882</ele>
        <time>2010-01-01T00:36:18Z</time>
      </trkpt>
      <trkpt lat="42.70948" lon="0.94981">
        <ele>1883</ele>
        <time>2010-01-01T00:36:22Z</time>
      </trkpt>
      <trkpt lat="42.70948" lon="0.94996">
        <ele>1884</ele>
        <time>2010-01-01T00:36:26Z</time>
      </trkpt>
      <trkpt lat="42.70947" lon="0.95011">
        <ele>1884</ele>
        <time>2010-01-01T00:36:31Z</time>
      </trkpt>
      <trkpt lat="42.70944" lon="0.95026">
        <ele>1884</ele>
        <time>2010-01-01T00:36:35Z</time>
      </trkpt>
      <trkpt lat="42.70938" lon="0.95036">
        <ele>1882</ele>
        <time>2010-01-01T00:36:39Z</time>
      </trkpt>
      <trkpt lat="42.70931" lon="0.95043">
        <ele>1881</ele>
        <time>2010-01-01T00:36:43Z</time>
      </trkpt>
      <trkpt lat="42.70921" lon="0.95051">
        <ele>1881</ele>
        <time>2010-01-01T00:36:47Z</time>
      </trkpt>
      <trkpt lat="42.70914" lon="0.95058">
        <ele>1880</ele>
        <time>2010-01-01T00:36:51Z</time>
      </trkpt>
      <trkpt lat="42.70907" lon="0.95067">
        <ele>1880</ele>
        <time>2010-01-01T00:36:55Z</time>
      </trkpt>
      <trkpt lat="42.70899" lon="0.95076">
        <ele>1879</ele>
        <time>2010-01-01T00:36:59Z</time>
      </trkpt>
      <trkpt lat="42.70891" lon="0.95087">
        <ele>1879</ele>
        <time>2010-01-01T00:37:03Z</time>
      </trkpt>
      <trkpt lat="42.70885" lon="0.95097">
        <ele>1879</ele>
        <time>2010-01-01T00:37:07Z</time>
      </trkpt>
      <trkpt lat="42.70877" lon="0.95108">
        <ele>1877</ele>
        <time>2010-01-01T00:37:12Z</time>
      </trkpt>
      <trkpt lat="42.70869" lon="0.95115">
        <ele>1876</ele>
        <time>2010-01-01T00:37:15Z</time>
      </trkpt>
      <trkpt lat="42.7086" lon="0.95114">
        <ele>1875</ele>
        <time>2010-01-01T00:37:19Z</time>
      </trkpt>
      <trkpt lat="42.70849" lon="0.95118">
        <ele>1874</ele>
        <time>2010-01-01T00:37:24Z</time>
      </trkpt>
      <trkpt lat="42.70842" lon="0.95128">
        <ele>1873</ele>
        <time>2010-01-01T00:37:28Z</time>
      </trkpt>
      <trkpt lat="42.70838" lon="0.95141">
        <ele>1872</ele>
        <time>2010-01-01T00:37:32Z</time>
      </trkpt>
      <trkpt lat="42.70835" lon="0.95156">
        <ele>1872</ele>
        <time>2010-01-01T00:37:37Z</time>
      </trkpt>
      <trkpt lat="42.70832" lon="0.95169">
        <ele>1871</ele>
        <time>2010-01-01T00:37:41Z</time>
      </trkpt>
      <trkpt lat="42.70831" lon="0.95183">
        <ele>1869</ele>
        <time>2010-01-01T00:37:45Z</time>
      </trkpt>
      <trkpt lat="42.70829" lon="0.95197">
        <ele>1868</ele>
        <time>2010-01-01T00:37:49Z</time>
      </trkpt>
      <trkpt lat="42.70827" lon="0.9521">
        <ele>1868</ele>
        <time>2010-01-01T00:37:53Z</time>
      </trkpt>
      <trkpt lat="42.70822" lon="0.95221">
        <ele>1867</ele>
        <time>2010-01-01T00:37:56Z</time>
      </trkpt>
      <trkpt lat="42.70816" lon="0.9523">
        <ele>1867</ele>
        <time>2010-01-01T00:38:00Z</time>
      </trkpt>
      <trkpt lat="42.70808" lon="0.9524">
        <ele>1866</ele>
        <time>2010-01-01T00:38:05Z</time>
      </trkpt>
      <trkpt lat="42.70801" lon="0.95248">
        <ele>1866</ele>
        <time>2010-01-01T00:38:08Z</time>
      </trkpt>
      <trkpt lat="42.70794" lon="0.95258">
        <ele>1867</ele>
        <time>2010-01-01T00:38:12Z</time>
      </trkpt>
      <trkpt lat="42.70785" lon="0.95264">
        <ele>1867</ele>
        <time>2010-01-01T00:38:16Z</time>
      </trkpt>
      <trkpt lat="42.70776" lon="0.95267">
        <ele>1867</ele>
        <time>2010-01-01T00:38:20Z</time>
      </trkpt>
      <trkpt lat="42.70766" lon="0.95269">
        <ele>1868</ele>
        <time>2010-01-01T00:38:24Z</time>
      </trkpt>
      <trkpt lat="42.70757" lon="0.95272">
        <ele>1868</ele>
        <time>2010-01-01T00:38:28Z</time>
      </trkpt>
      <trkpt lat="42.70747" lon="0.95275">
        <ele>1869</ele>
        <time>2010-01-01T00:38:32Z</time>
      </trkpt>
      <trkpt lat="42.7074" lon="0.95284">
        <ele>1870</ele>
        <time>2010-01-01T00:38:36Z</time>
      </trkpt>
      <trkpt lat="42.70735" lon="0.95296">
        <ele>1871</ele>
        <time>2010-01-01T00:38:40Z</time>
      </trkpt>
      <trkpt lat="42.7073" lon="0.95307">
        <ele>1872</ele>
        <time>2010-01-01T00:38:44Z</time>
      </trkpt>
      <trkpt lat="42.70726" lon="0.95318">
        <ele>1871</ele>
        <time>2010-01-01T00:38:47Z</time>
      </trkpt>
      <trkpt lat="42.70728" lon="0.95331">
        <ele>1870</ele>
        <time>2010-01-01T00:38:51Z</time>
      </trkpt>
      <trkpt lat="42.70724" lon="0.95341">
        <ele>1870</ele>
        <time>2010-01-01T00:38:54Z</time>
      </trkpt>
      <trkpt lat="42.70716" lon="0.95351">
        <ele>1870</ele>
        <time>2010-01-01T00:38:59Z</time>
      </trkpt>
      <trkpt lat="42.70711" lon="0.95362">
        <ele>1869</ele>
        <time>2010-01-01T00:39:03Z</time>
      </trkpt>
      <trkpt lat="42.70707" lon="0.95373">
        <ele>1869</ele>
        <time>2010-01-01T00:39:06Z</time>
      </trkpt>
      <trkpt lat="42.70703" lon="0.95386">
        <ele>1868</ele>
        <time>2010-01-01T00:39:10Z</time>
      </trkpt>
      <trkpt lat="42.707" lon="0.95402">
        <ele>1868</ele>
        <time>2010-01-01T00:39:15Z</time>
      </trkpt>
      <trkpt lat="42.70698" lon="0.95416">
        <ele>1868</ele>
        <time>2010-01-01T00:39:20Z</time>
      </trkpt>
      <trkpt lat="42.70695" lon="0.95431">
        <ele>1868</ele>
        <time>2010-01-01T00:39:24Z</time>
      </trkpt>
      <trkpt lat="42.70694" lon="0.95445">
        <ele>1868</ele>
        <time>2010-01-01T00:39:28Z</time>
      </trkpt>
      <trkpt lat="42.70693" lon="0.95461">
        <ele>1868</ele>
        <time>2010-01-01T00:39:33Z</time>
      </trkpt>
      <trkpt lat="42.70692" lon="0.95475">
        <ele>1867</ele>
        <time>2010-01-01T00:39:37Z</time>
      </trkpt>
      <trkpt lat="42.70693" lon="0.95491">
        <ele>1867</ele>
        <time>2010-01-01T00:39:42Z</time>
      </trkpt>
      <trkpt lat="42.70694" lon="0.95504">
        <ele>1866</ele>
        <time>2010-01-01T00:39:45Z</time>
      </trkpt>
      <trkpt lat="42.70694" lon="0.9552">
        <ele>1866</ele>
        <time>2010-01-01T00:39:50Z</time>
      </trkpt>
      <trkpt lat="42.70694" lon="0.95535">
        <ele>1866</ele>
        <time>2010-01-01T00:39:55Z</time>
      </trkpt>
      <trkpt lat="42.70696" lon="0.95549">
        <ele>1867</ele>
        <time>2010-01-01T00:39:59Z</time>
      </trkpt>
      <trkpt lat="42.70697" lon="0.95559">
        <ele>1867</ele>
        <time>2010-01-01T00:40:02Z</time>
      </trkpt>
      <trkpt lat="42.70707" lon="0.95554">
        <ele>1867</ele>
        <time>2010-01-01T00:40:06Z</time>
      </trkpt>
      <trkpt lat="42.70714" lon="0.9556">
        <ele>1868</ele>
        <time>2010-01-01T00:40:09Z</time>
      </trkpt>
      <trkpt lat="42.70714" lon="0.95573">
        <ele>1868</ele>
        <time>2010-01-01T00:40:13Z</time>
      </trkpt>
      <trkpt lat="42.70713" lon="0.95588">
        <ele>1867</ele>
        <time>2010-01-01T00:40:17Z</time>
      </trkpt>
      <trkpt lat="42.70711" lon="0.95603">
        <ele>1867</ele>
        <time>2010-01-01T00:40:22Z</time>
      </trkpt>
      <trkpt lat="42.70715" lon="0.95616">
        <ele>1867</ele>
        <time>2010-01-01T00:40:26Z</time>
      </trkpt>
      <trkpt lat="42.70715" lon="0.9563">
        <ele>1867</ele>
        <time>2010-01-01T00:40:30Z</time>
      </trkpt>
      <trkpt lat="42.70715" lon="0.95643">
        <ele>1866</ele>
        <time>2010-01-01T00:40:34Z</time>
      </trkpt>
      <trkpt lat="42.70711" lon="0.95658">
        <ele>1866</ele>
        <time>2010-01-01T00:40:39Z</time>
      </trkpt>
      <trkpt lat="42.70707" lon="0.95671">
        <ele>1866</ele>
        <time>2010-01-01T00:40:43Z</time>
      </trkpt>
      <trkpt lat="42.70703" lon="0.95683">
        <ele>1866</ele>
        <time>2010-01-01T00:40:47Z</time>
      </trkpt>
      <trkpt lat="42.70702" lon="0.95695">
        <ele>1867</ele>
        <time>2010-01-01T00:40:50Z</time>
      </trkpt>
      <trkpt lat="42.70703" lon="0.95707">
        <ele>1868</ele>
        <time>2010-01-01T00:40:54Z</time>
      </trkpt>
      <trkpt lat="42.70703" lon="0.95721">
        <ele>1868</ele>
        <time>2010-01-01T00:40:58Z</time>
      </trkpt>
      <trkpt lat="42.70701" lon="0.95736">
        <ele>1869</ele>
        <time>2010-01-01T00:41:02Z</time>
      </trkpt>
      <trkpt lat="42.707" lon="0.95749">
        <ele>1870</ele>
        <time>2010-01-01T00:41:06Z</time>
      </trkpt>
      <trkpt lat="42.70697" lon="0.95761">
        <ele>1869</ele>
        <time>2010-01-01T00:41:10Z</time>
      </trkpt>
      <trkpt lat="42.70694" lon="0.95774">
        <ele>1868</ele>
        <time>2010-01-01T00:41:14Z</time>
      </trkpt>
      <trkpt lat="42.70694" lon="0.95788">
        <ele>1867</ele>
        <time>2010-01-01T00:41:18Z</time>
      </trkpt>
      <trkpt lat="42.70701" lon="0.95798">
        <ele>1868</ele>
        <time>2010-01-01T00:41:22Z</time>
      </trkpt>
      <trkpt lat="42.70701" lon="0.9581">
        <ele>1868</ele>
        <time>2010-01-01T00:41:26Z</time>
      </trkpt>
      <trkpt lat="42.70703" lon="0.95825">
        <ele>1870</ele>
        <time>2010-01-01T00:41:30Z</time>
      </trkpt>
      <trkpt lat="42.70707" lon="0.95837">
        <ele>1871</ele>
        <time>2010-01-01T00:41:34Z</time>
      </trkpt>
      <trkpt lat="42.70712" lon="0.95849">
        <ele>1874</ele>
        <time>2010-01-01T00:41:38Z</time>
      </trkpt>
      <trkpt lat="42.70717" lon="0.9586">
        <ele>1876</ele>
        <time>2010-01-01T00:41:42Z</time>
      </trkpt>
      <trkpt lat="42.70723" lon="0.95871">
        <ele>1878</ele>
        <time>2010-01-01T00:41:46Z</time>
      </trkpt>
      <trkpt lat="42.70725" lon="0.95884">
        <ele>1878</ele>
        <time>2010-01-01T00:41:50Z</time>
      </trkpt>
      <trkpt lat="42.70726" lon="0.95897">
        <ele>1878</ele>
        <time>2010-01-01T00:41:54Z</time>
      </trkpt>
      <trkpt lat="42.70727" lon="0.95911">
        <ele>1878</ele>
        <time>2010-01-01T00:41:58Z</time>
      </trkpt>
      <trkpt lat="42.70726" lon="0.95924">
        <ele>1878</ele>
        <time>2010-01-01T00:42:02Z</time>
      </trkpt>
      <trkpt lat="42.7073" lon="0.95938">
        <ele>1879</ele>
        <time>2010-01-01T00:42:06Z</time>
      </trkpt>
      <trkpt lat="42.70732" lon="0.95952">
        <ele>1880</ele>
        <time>2010-01-01T00:42:10Z</time>
      </trkpt>
      <trkpt lat="42.70734" lon="0.95965">
        <ele>1882</ele>
        <time>2010-01-01T00:42:14Z</time>
      </trkpt>
      <trkpt lat="42.70735" lon="0.95978">
        <ele>1884</ele>
        <time>2010-01-01T00:42:18Z</time>
      </trkpt>
      <trkpt lat="42.70737" lon="0.95989">
        <ele>1887</ele>
        <time>2010-01-01T00:42:21Z</time>
      </trkpt>
      <trkpt lat="42.70739" lon="0.96003">
        <ele>1890</ele>
        <time>2010-01-01T00:42:25Z</time>
      </trkpt>
      <trkpt lat="42.70743" lon="0.96014">
        <ele>1892</ele>
        <time>2010-01-01T00:42:29Z</time>
      </trkpt>
      <trkpt lat="42.70748" lon="0.96024">
        <ele>1894</ele>
        <time>2010-01-01T00:42:32Z</time>
      </trkpt>
      <trkpt lat="42.70752" lon="0.96036">
        <ele>1897</ele>
        <time>2010-01-01T00:42:36Z</time>
      </trkpt>
      <trkpt lat="42.70756" lon="0.96046">
        <ele>1898</ele>
        <time>2010-01-01T00:42:40Z</time>
      </trkpt>
      <trkpt lat="42.70763" lon="0.96057">
        <ele>1900</ele>
        <time>2010-01-01T00:42:44Z</time>
      </trkpt>
      <trkpt lat="42.70767" lon="0.9607">
        <ele>1902</ele>
        <time>2010-01-01T00:42:48Z</time>
      </trkpt>
      <trkpt lat="42.70774" lon="0.96078">
        <ele>1904</ele>
        <time>2010-01-01T00:42:52Z</time>
      </trkpt>
      <trkpt lat="42.70781" lon="0.96088">
        <ele>1907</ele>
        <time>2010-01-01T00:42:56Z</time>
      </trkpt>
      <trkpt lat="42.70788" lon="0.96096">
        <ele>1909</ele>
        <time>2010-01-01T00:43:00Z</time>
      </trkpt>
      <trkpt lat="42.70796" lon="0.96102">
        <ele>1912</ele>
        <time>2010-01-01T00:43:03Z</time>
      </trkpt>
      <trkpt lat="42.70803" lon="0.96111">
        <ele>1915</ele>
        <time>2010-01-01T00:43:07Z</time>
      </trkpt>
      <trkpt lat="42.7081" lon="0.96121">
        <ele>1918</ele>
        <time>2010-01-01T00:43:11Z</time>
      </trkpt>
      <trkpt lat="42.70817" lon="0.9613">
        <ele>1920</ele>
        <time>2010-01-01T00:43:15Z</time>
      </trkpt>
      <trkpt lat="42.70822" lon="0.9614">
        <ele>1922</ele>
        <time>2010-01-01T00:43:19Z</time>
      </trkpt>
      <trkpt lat="42.70829" lon="0.96149">
        <ele>1924</ele>
        <time>2010-01-01T00:43:22Z</time>
      </trkpt>
      <trkpt lat="42.70835" lon="0.9616">
        <ele>1927</ele>
        <time>2010-01-01T00:43:26Z</time>
      </trkpt>
      <trkpt lat="42.7084" lon="0.96171">
        <ele>1930</ele>
        <time>2010-01-01T00:43:30Z</time>
      </trkpt>
      <trkpt lat="42.70845" lon="0.96181">
        <ele>1932</ele>
        <time>2010-01-01T00:43:34Z</time>
      </trkpt>
      <trkpt lat="42.7085" lon="0.96192">
        <ele>1935</ele>
        <time>2010-01-01T00:43:37Z</time>
      </trkpt>
      <trkpt lat="42.70855" lon="0.96204">
        <ele>1938</ele>
        <time>2010-01-01T00:43:42Z</time>
      </trkpt>
      <trkpt lat="42.7086" lon="0.96214">
        <ele>1939</ele>
        <time>2010-01-01T00:43:45Z</time>
      </trkpt>
      <trkpt lat="42.70863" lon="0.96225">
        <ele>1941</ele>
        <time>2010-01-01T00:43:49Z</time>
      </trkpt>
      <trkpt lat="42.70867" lon="0.96237">
        <ele>1943</ele>
        <time>2010-01-01T00:43:53Z</time>
      </trkpt>
      <trkpt lat="42.70871" lon="0.96248">
        <ele>1945</ele>
        <time>2010-01-01T00:43:56Z</time>
      </trkpt>
      <trkpt lat="42.70875" lon="0.96259">
        <ele>1947</ele>
        <time>2010-01-01T00:44:00Z</time>
      </trkpt>
      <trkpt lat="42.7088" lon="0.96271">
        <ele>1950</ele>
        <time>2010-01-01T00:44:04Z</time>
      </trkpt>
      <trkpt lat="42.70885" lon="0.96283">
        <ele>1952</ele>
        <time>2010-01-01T00:44:08Z</time>
      </trkpt>
      <trkpt lat="42.7089" lon="0.96294">
        <ele>1954</ele>
        <time>2010-01-01T00:44:12Z</time>
      </trkpt>
      <trkpt lat="42.70896" lon="0.96306">
        <ele>1957</ele>
        <time>2010-01-01T00:44:16Z</time>
      </trkpt>
      <trkpt lat="42.70901" lon="0.96317">
        <ele>1960</ele>
        <time>2010-01-01T00:44:20Z</time>
      </trkpt>
      <trkpt lat="42.70907" lon="0.96326">
        <ele>1963</ele>
        <time>2010-01-01T00:44:23Z</time>
      </trkpt>
      <trkpt lat="42.70912" lon="0.96339">
        <ele>1965</ele>
        <time>2010-01-01T00:44:27Z</time>
      </trkpt>
      <trkpt lat="42.70917" lon="0.96349">
        <ele>1967</ele>
        <time>2010-01-01T00:44:31Z</time>
      </trkpt>
      <trkpt lat="42.70922" lon="0.9636">
        <ele>1970</ele>
        <time>2010-01-01T00:44:35Z</time>
      </trkpt>
      <trkpt lat="42.70926" lon="0.96372">
        <ele>1972</ele>
        <time>2010-01-01T00:44:39Z</time>
      </trkpt>
      <trkpt lat="42.70929" lon="0.96384">
        <ele>1975</ele>
        <time>2010-01-01T00:44:43Z</time>
      </trkpt>
      <trkpt lat="42.70933" lon="0.96397">
        <ele>1978</ele>
        <time>2010-01-01T00:44:47Z</time>
      </trkpt>
      <trkpt lat="42.70936" lon="0.96408">
        <ele>1981</ele>
        <time>2010-01-01T00:44:50Z</time>
      </trkpt>
      <trkpt lat="42.7094" lon="0.96421">
        <ele>1984</ele>
        <time>2010-01-01T00:44:54Z</time>
      </trkpt>
      <trkpt lat="42.70945" lon="0.96433">
        <ele>1987</ele>
        <time>2010-01-01T00:44:59Z</time>
      </trkpt>
      <trkpt lat="42.70949" lon="0.96445">
        <ele>1989</ele>
        <time>2010-01-01T00:45:02Z</time>
      </trkpt>
      <trkpt lat="42.70953" lon="0.96457">
        <ele>1992</ele>
        <time>2010-01-01T00:45:06Z</time>
      </trkpt>
      <trkpt lat="42.70958" lon="0.96469">
        <ele>1994</ele>
        <time>2010-01-01T00:45:10Z</time>
      </trkpt>
      <trkpt lat="42.70961" lon="0.96481">
        <ele>1997</ele>
        <time>2010-01-01T00:45:14Z</time>
      </trkpt>
      <trkpt lat="42.70966" lon="0.96491">
        <ele>2000</ele>
        <time>2010-01-01T00:45:18Z</time>
      </trkpt>
      <trkpt lat="42.70969" lon="0.96503">
        <ele>2003</ele>
        <time>2010-01-01T00:45:21Z</time>
      </trkpt>
      <trkpt lat="42.70973" lon="0.96514">
        <ele>2006</ele>
        <time>2010-01-01T00:45:25Z</time>
      </trkpt>
      <trkpt lat="42.70979" lon="0.96522">
        <ele>2010</ele>
        <time>2010-01-01T00:45:28Z</time>
      </trkpt>
      <trkpt lat="42.70984" lon="0.96533">
        <ele>2013</ele>
        <time>2010-01-01T00:45:32Z</time>
      </trkpt>
      <trkpt lat="42.70988" lon="0.96545">
        <ele>2017</ele>
        <time>2010-01-01T00:45:36Z</time>
      </trkpt>
      <trkpt lat="42.70991" lon="0.96557">
        <ele>2020</ele>
        <time>2010-01-01T00:45:40Z</time>
      </trkpt>
      <trkpt lat="42.70997" lon="0.96569">
        <ele>2023</ele>
        <time>2010-01-01T00:45:44Z</time>
      </trkpt>
      <trkpt lat="42.71003" lon="0.96579">
        <ele>2026</ele>
        <time>2010-01-01T00:45:48Z</time>
      </trkpt>
      <trkpt lat="42.71008" lon="0.96588">
        <ele>2028</ele>
        <time>2010-01-01T00:45:51Z</time>
      </trkpt>
      <trkpt lat="42.71014" lon="0.96598">
        <ele>2031</ele>
        <time>2010-01-01T00:45:55Z</time>
      </trkpt>
      <trkpt lat="42.7102" lon="0.96607">
        <ele>2034</ele>
        <time>2010-01-01T00:45:58Z</time>
      </trkpt>
      <trkpt lat="42.71027" lon="0.96616">
        <ele>2036</ele>
        <time>2010-01-01T00:46:02Z</time>
      </trkpt>
      <trkpt lat="42.71033" lon="0.96625">
        <ele>2039</ele>
        <time>2010-01-01T00:46:06Z</time>
      </trkpt>
      <trkpt lat="42.71039" lon="0.96633">
        <ele>2042</ele>
        <time>2010-01-01T00:46:09Z</time>
      </trkpt>
      <trkpt lat="42.71044" lon="0.96644">
        <ele>2045</ele>
        <time>2010-01-01T00:46:13Z</time>
      </trkpt>
      <trkpt lat="42.7105" lon="0.96653">
        <ele>2048</ele>
        <time>2010-01-01T00:46:17Z</time>
      </trkpt>
      <trkpt lat="42.71055" lon="0.96663">
        <ele>2051</ele>
        <time>2010-01-01T00:46:20Z</time>
      </trkpt>
      <trkpt lat="42.71061" lon="0.96672">
        <ele>2053</ele>
        <time>2010-01-01T00:46:24Z</time>
      </trkpt>
      <trkpt lat="42.71066" lon="0.96683">
        <ele>2056</ele>
        <time>2010-01-01T00:46:27Z</time>
      </trkpt>
      <trkpt lat="42.71072" lon="0.96693">
        <ele>2058</ele>
        <time>2010-01-01T00:46:31Z</time>
      </trkpt>
      <trkpt lat="42.71077" lon="0.96703">
        <ele>2060</ele>
        <time>2010-01-01T00:46:35Z</time>
      </trkpt>
      <trkpt lat="42.71083" lon="0.96715">
        <ele>2062</ele>
        <time>2010-01-01T00:46:39Z</time>
      </trkpt>
      <trkpt lat="42.71088" lon="0.96726">
        <ele>2064</ele>
        <time>2010-01-01T00:46:43Z</time>
      </trkpt>
      <trkpt lat="42.71092" lon="0.96738">
        <ele>2066</ele>
        <time>2010-01-01T00:46:47Z</time>
      </trkpt>
      <trkpt lat="42.71097" lon="0.96749">
        <ele>2067</ele>
        <time>2010-01-01T00:46:51Z</time>
      </trkpt>
      <trkpt lat="42.71102" lon="0.96759">
        <ele>2069</ele>
        <time>2010-01-01T00:46:54Z</time>
      </trkpt>
      <trkpt lat="42.71107" lon="0.96769">
        <ele>2071</ele>
        <time>2010-01-01T00:46:58Z</time>
      </trkpt>
      <trkpt lat="42.71112" lon="0.96781">
        <ele>2073</ele>
        <time>2010-01-01T00:47:02Z</time>
      </trkpt>
      <trkpt lat="42.71117" lon="0.96792">
        <ele>2076</ele>
        <time>2010-01-01T00:47:06Z</time>
      </trkpt>
      <trkpt lat="42.71122" lon="0.96802">
        <ele>2078</ele>
        <time>2010-01-01T00:47:09Z</time>
      </trkpt>
      <trkpt lat="42.71126" lon="0.96814">
        <ele>2080</ele>
        <time>2010-01-01T00:47:13Z</time>
      </trkpt>
      <trkpt lat="42.71131" lon="0.96827">
        <ele>2083</ele>
        <time>2010-01-01T00:47:17Z</time>
      </trkpt>
      <trkpt lat="42.71136" lon="0.96838">
        <ele>2085</ele>
        <time>2010-01-01T00:47:21Z</time>
      </trkpt>
      <trkpt lat="42.71141" lon="0.96849">
        <ele>2087</ele>
        <time>2010-01-01T00:47:25Z</time>
      </trkpt>
      <trkpt lat="42.71147" lon="0.96859">
        <ele>2089</ele>
        <time>2010-01-01T00:47:29Z</time>
      </trkpt>
      <trkpt lat="42.71154" lon="0.96867">
        <ele>2090</ele>
        <time>2010-01-01T00:47:33Z</time>
      </trkpt>
      <trkpt lat="42.71162" lon="0.96874">
        <ele>2091</ele>
        <time>2010-01-01T00:47:37Z</time>
      </trkpt>
      <trkpt lat="42.7117" lon="0.9688">
        <ele>2092</ele>
        <time>2010-01-01T00:47:40Z</time>
      </trkpt>
      <trkpt lat="42.71179" lon="0.96886">
        <ele>2093</ele>
        <time>2010-01-01T00:47:44Z</time>
      </trkpt>
      <trkpt lat="42.71188" lon="0.96893">
        <ele>2093</ele>
        <time>2010-01-01T00:47:48Z</time>
      </trkpt>
      <trkpt lat="42.71196" lon="0.96902">
        <ele>2094</ele>
        <time>2010-01-01T00:47:52Z</time>
      </trkpt>
      <trkpt lat="42.71203" lon="0.96911">
        <ele>2095</ele>
        <time>2010-01-01T00:47:56Z</time>
      </trkpt>
      <trkpt lat="42.7121" lon="0.96923">
        <ele>2097</ele>
        <time>2010-01-01T00:48:00Z</time>
      </trkpt>
      <trkpt lat="42.71214" lon="0.96934">
        <ele>2098</ele>
        <time>2010-01-01T00:48:04Z</time>
      </trkpt>
      <trkpt lat="42.71221" lon="0.96946">
        <ele>2099</ele>
        <time>2010-01-01T00:48:09Z</time>
      </trkpt>
      <trkpt lat="42.71227" lon="0.96956">
        <ele>2099</ele>
        <time>2010-01-01T00:48:12Z</time>
      </trkpt>
      <trkpt lat="42.71231" lon="0.96967">
        <ele>2101</ele>
        <time>2010-01-01T00:48:16Z</time>
      </trkpt>
      <trkpt lat="42.71237" lon="0.96978">
        <ele>2101</ele>
        <time>2010-01-01T00:48:20Z</time>
      </trkpt>
      <trkpt lat="42.71243" lon="0.9699">
        <ele>2102</ele>
        <time>2010-01-01T00:48:24Z</time>
      </trkpt>
      <trkpt lat="42.71249" lon="0.97001">
        <ele>2102</ele>
        <time>2010-01-01T00:48:28Z</time>
      </trkpt>
      <trkpt lat="42.71254" lon="0.97012">
        <ele>2102</ele>
        <time>2010-01-01T00:48:32Z</time>
      </trkpt>
      <trkpt lat="42.7126" lon="0.97025">
        <ele>2103</ele>
        <time>2010-01-01T00:48:37Z</time>
      </trkpt>
      <trkpt lat="42.71264" lon="0.97036">
        <ele>2104</ele>
        <time>2010-01-01T00:48:40Z</time>
      </trkpt>
      <trkpt lat="42.71269" lon="0.97048">
        <ele>2104</ele>
        <time>2010-01-01T00:48:44Z</time>
      </trkpt>
      <trkpt lat="42.71272" lon="0.97061">
        <ele>2105</ele>
        <time>2010-01-01T00:48:48Z</time>
      </trkpt>
      <trkpt lat="42.71276" lon="0.97073">
        <ele>2106</ele>
        <time>2010-01-01T00:48:52Z</time>
      </trkpt>
      <trkpt lat="42.71279" lon="0.97086">
        <ele>2107</ele>
        <time>2010-01-01T00:48:56Z</time>
      </trkpt>
      <trkpt lat="42.71284" lon="0.97098">
        <ele>2108</ele>
        <time>2010-01-01T00:49:00Z</time>
      </trkpt>
      <trkpt lat="42.71288" lon="0.97111">
        <ele>2109</ele>
        <time>2010-01-01T00:49:04Z</time>
      </trkpt>
      <trkpt lat="42.71292" lon="0.97124">
        <ele>2110</ele>
        <time>2010-01-01T00:49:08Z</time>
      </trkpt>
      <trkpt lat="42.71297" lon="0.97135">
        <ele>2110</ele>
        <time>2010-01-01T00:49:12Z</time>
      </trkpt>
      <trkpt lat="42.71301" lon="0.97148">
        <ele>2111</ele>
        <time>2010-01-01T00:49:17Z</time>
      </trkpt>
      <trkpt lat="42.71304" lon="0.97161">
        <ele>2111</ele>
        <time>2010-01-01T00:49:21Z</time>
      </trkpt>
      <trkpt lat="42.71309" lon="0.97173">
        <ele>2112</ele>
        <time>2010-01-01T00:49:25Z</time>
      </trkpt>
      <trkpt lat="42.71312" lon="0.97185">
        <ele>2112</ele>
        <time>2010-01-01T00:49:28Z</time>
      </trkpt>
      <trkpt lat="42.71315" lon="0.972">
        <ele>2113</ele>
        <time>2010-01-01T00:49:33Z</time>
      </trkpt>
      <trkpt lat="42.71318" lon="0.97212">
        <ele>2114</ele>
        <time>2010-01-01T00:49:37Z</time>
      </trkpt>
      <trkpt lat="42.71322" lon="0.97224">
        <ele>2114</ele>
        <time>2010-01-01T00:49:40Z</time>
      </trkpt>
      <trkpt lat="42.71326" lon="0.97235">
        <ele>2115</ele>
        <time>2010-01-01T00:49:44Z</time>
      </trkpt>
      <trkpt lat="42.71331" lon="0.97246">
        <ele>2116</ele>
        <time>2010-01-01T00:49:48Z</time>
      </trkpt>
      <trkpt lat="42.71336" lon="0.97257">
        <ele>2118</ele>
        <time>2010-01-01T00:49:52Z</time>
      </trkpt>
      <trkpt lat="42.7134" lon="0.97269">
        <ele>2120</ele>
        <time>2010-01-01T00:49:56Z</time>
      </trkpt>
      <trkpt lat="42.71346" lon="0.9728">
        <ele>2123</ele>
        <time>2010-01-01T00:50:00Z</time>
      </trkpt>
      <trkpt lat="42.7135" lon="0.97292">
        <ele>2126</ele>
        <time>2010-01-01T00:50:03Z</time>
      </trkpt>
      <trkpt lat="42.71356" lon="0.97304">
        <ele>2129</ele>
        <time>2010-01-01T00:50:08Z</time>
      </trkpt>
      <trkpt lat="42.71361" lon="0.97314">
        <ele>2131</ele>
        <time>2010-01-01T00:50:11Z</time>
      </trkpt>
      <trkpt lat="42.71365" lon="0.97326">
        <ele>2133</ele>
        <time>2010-01-01T00:50:15Z</time>
      </trkpt>
      <trkpt lat="42.71369" lon="0.97337">
        <ele>2135</ele>
        <time>2010-01-01T00:50:19Z</time>
      </trkpt>
      <trkpt lat="42.71374" lon="0.97349">
        <ele>2137</ele>
        <time>2010-01-01T00:50:23Z</time>
      </trkpt>
      <trkpt lat="42.71377" lon="0.97362">
        <ele>2139</ele>
        <time>2010-01-01T00:50:27Z</time>
      </trkpt>
      <trkpt lat="42.7138" lon="0.97374">
        <ele>2140</ele>
        <time>2010-01-01T00:50:31Z</time>
      </trkpt>
      <trkpt lat="42.71382" lon="0.97387">
        <ele>2142</ele>
        <time>2010-01-01T00:50:35Z</time>
      </trkpt>
      <trkpt lat="42.71385" lon="0.97401">
        <ele>2143</ele>
        <time>2010-01-01T00:50:39Z</time>
      </trkpt>
      <trkpt lat="42.71387" lon="0.97412">
        <ele>2145</ele>
        <time>2010-01-01T00:50:42Z</time>
      </trkpt>
      <trkpt lat="42.71391" lon="0.97425">
        <ele>2146</ele>
        <time>2010-01-01T00:50:46Z</time>
      </trkpt>
      <trkpt lat="42.71395" lon="0.97438">
        <ele>2148</ele>
        <time>2010-01-01T00:50:50Z</time>
      </trkpt>
      <trkpt lat="42.71399" lon="0.97451">
        <ele>2149</ele>
        <time>2010-01-01T00:50:54Z</time>
      </trkpt>
      <trkpt lat="42.71402" lon="0.97464">
        <ele>2151</ele>
        <time>2010-01-01T00:50:58Z</time>
      </trkpt>
      <trkpt lat="42.71405" lon="0.97476">
        <ele>2152</ele>
        <time>2010-01-01T00:51:02Z</time>
      </trkpt>
      <trkpt lat="42.7141" lon="0.97487">
        <ele>2153</ele>
        <time>2010-01-01T00:51:06Z</time>
      </trkpt>
      <trkpt lat="42.71414" lon="0.97498">
        <ele>2154</ele>
        <time>2010-01-01T00:51:10Z</time>
      </trkpt>
      <trkpt lat="42.71418" lon="0.9751">
        <ele>2155</ele>
        <time>2010-01-01T00:51:14Z</time>
      </trkpt>
      <trkpt lat="42.71423" lon="0.97522">
        <ele>2156</ele>
        <time>2010-01-01T00:51:17Z</time>
      </trkpt>
      <trkpt lat="42.71428" lon="0.97533">
        <ele>2157</ele>
        <time>2010-01-01T00:51:21Z</time>
      </trkpt>
      <trkpt lat="42.71435" lon="0.97544">
        <ele>2158</ele>
        <time>2010-01-01T00:51:26Z</time>
      </trkpt>
      <trkpt lat="42.71441" lon="0.97556">
        <ele>2159</ele>
        <time>2010-01-01T00:51:30Z</time>
      </trkpt>
      <trkpt lat="42.71448" lon="0.97568">
        <ele>2160</ele>
        <time>2010-01-01T00:51:34Z</time>
      </trkpt>
      <trkpt lat="42.71454" lon="0.97577">
        <ele>2161</ele>
        <time>2010-01-01T00:51:38Z</time>
      </trkpt>
      <trkpt lat="42.7146" lon="0.97587">
        <ele>2162</ele>
        <time>2010-01-01T00:51:42Z</time>
      </trkpt>
      <trkpt lat="42.71465" lon="0.97597">
        <ele>2164</ele>
        <time>2010-01-01T00:51:45Z</time>
      </trkpt>
      <trkpt lat="42.7147" lon="0.9761">
        <ele>2165</ele>
        <time>2010-01-01T00:51:50Z</time>
      </trkpt>
      <trkpt lat="42.71477" lon="0.97619">
        <ele>2166</ele>
        <time>2010-01-01T00:51:53Z</time>
      </trkpt>
      <trkpt lat="42.71484" lon="0.97629">
        <ele>2167</ele>
        <time>2010-01-01T00:51:57Z</time>
      </trkpt>
      <trkpt lat="42.71492" lon="0.97637">
        <ele>2167</ele>
        <time>2010-01-01T00:52:01Z</time>
      </trkpt>
      <trkpt lat="42.715" lon="0.97646">
        <ele>2168</ele>
        <time>2010-01-01T00:52:06Z</time>
      </trkpt>
      <trkpt lat="42.71506" lon="0.97657">
        <ele>2169</ele>
        <time>2010-01-01T00:52:10Z</time>
      </trkpt>
      <trkpt lat="42.71509" lon="0.97668">
        <ele>2170</ele>
        <time>2010-01-01T00:52:13Z</time>
      </trkpt>
      <trkpt lat="42.71511" lon="0.97682">
        <ele>2173</ele>
        <time>2010-01-01T00:52:17Z</time>
      </trkpt>
      <trkpt lat="42.71513" lon="0.97695">
        <ele>2175</ele>
        <time>2010-01-01T00:52:21Z</time>
      </trkpt>
      <trkpt lat="42.71515" lon="0.97708">
        <ele>2176</ele>
        <time>2010-01-01T00:52:25Z</time>
      </trkpt>
      <trkpt lat="42.71519" lon="0.9772">
        <ele>2178</ele>
        <time>2010-01-01T00:52:29Z</time>
      </trkpt>
      <trkpt lat="42.7152" lon="0.97733">
        <ele>2179</ele>
        <time>2010-01-01T00:52:33Z</time>
      </trkpt>
      <trkpt lat="42.71523" lon="0.97747">
        <ele>2181</ele>
        <time>2010-01-01T00:52:37Z</time>
      </trkpt>
      <trkpt lat="42.71526" lon="0.97759">
        <ele>2182</ele>
        <time>2010-01-01T00:52:41Z</time>
      </trkpt>
      <trkpt lat="42.71529" lon="0.97773">
        <ele>2183</ele>
        <time>2010-01-01T00:52:45Z</time>
      </trkpt>
      <trkpt lat="42.71531" lon="0.97785">
        <ele>2184</ele>
        <time>2010-01-01T00:52:49Z</time>
      </trkpt>
      <trkpt lat="42.71534" lon="0.97797">
        <ele>2186</ele>
        <time>2010-01-01T00:52:53Z</time>
      </trkpt>
      <trkpt lat="42.71536" lon="0.9781">
        <ele>2187</ele>
        <time>2010-01-01T00:52:56Z</time>
      </trkpt>
      <trkpt lat="42.7154" lon="0.97822">
        <ele>2189</ele>
        <time>2010-01-01T00:53:00Z</time>
      </trkpt>
      <trkpt lat="42.71543" lon="0.97835">
        <ele>2191</ele>
        <time>2010-01-01T00:53:04Z</time>
      </trkpt>
      <trkpt lat="42.71547" lon="0.97846">
        <ele>2192</ele>
        <time>2010-01-01T00:53:08Z</time>
      </trkpt>
      <trkpt lat="42.7155" lon="0.97859">
        <ele>2194</ele>
        <time>2010-01-01T00:53:12Z</time>
      </trkpt>
      <trkpt lat="42.71553" lon="0.97871">
        <ele>2196</ele>
        <time>2010-01-01T00:53:16Z</time>
      </trkpt>
      <trkpt lat="42.71556" lon="0.97883">
        <ele>2198</ele>
        <time>2010-01-01T00:53:19Z</time>
      </trkpt>
      <trkpt lat="42.7156" lon="0.97896">
        <ele>2201</ele>
        <time>2010-01-01T00:53:24Z</time>
      </trkpt>
      <trkpt lat="42.71564" lon="0.97908">
        <ele>2202</ele>
        <time>2010-01-01T00:53:27Z</time>
      </trkpt>
      <trkpt lat="42.71567" lon="0.97921">
        <ele>2204</ele>
        <time>2010-01-01T00:53:31Z</time>
      </trkpt>
      <trkpt lat="42.71569" lon="0.97933">
        <ele>2206</ele>
        <time>2010-01-01T00:53:35Z</time>
      </trkpt>
      <trkpt lat="42.71566" lon="0.97947">
        <ele>2207</ele>
        <time>2010-01-01T00:53:39Z</time>
      </trkpt>
      <trkpt lat="42.7156" lon="0.97957">
        <ele>2209</ele>
        <time>2010-01-01T00:53:43Z</time>
      </trkpt>
      <trkpt lat="42.71553" lon="0.97967">
        <ele>2211</ele>
        <time>2010-01-01T00:53:47Z</time>
      </trkpt>
      <trkpt lat="42.71546" lon="0.97977">
        <ele>2214</ele>
        <time>2010-01-01T00:53:51Z</time>
      </trkpt>
      <trkpt lat="42.7154" lon="0.97987">
        <ele>2217</ele>
        <time>2010-01-01T00:53:55Z</time>
      </trkpt>
      <trkpt lat="42.71536" lon="0.97999">
        <ele>2219</ele>
        <time>2010-01-01T00:53:59Z</time>
      </trkpt>
      <trkpt lat="42.71532" lon="0.98013">
        <ele>2222</ele>
        <time>2010-01-01T00:54:03Z</time>
      </trkpt>
      <trkpt lat="42.71526" lon="0.98025">
        <ele>2225</ele>
        <time>2010-01-01T00:54:08Z</time>
      </trkpt>
      <trkpt lat="42.71522" lon="0.98038">
        <ele>2227</ele>
        <time>2010-01-01T00:54:12Z</time>
      </trkpt>
      <trkpt lat="42.71521" lon="0.9805">
        <ele>2229</ele>
        <time>2010-01-01T00:54:15Z</time>
      </trkpt>
      <trkpt lat="42.71524" lon="0.98062">
        <ele>2230</ele>
        <time>2010-01-01T00:54:19Z</time>
      </trkpt>
      <trkpt lat="42.71528" lon="0.98074">
        <ele>2232</ele>
        <time>2010-01-01T00:54:23Z</time>
      </trkpt>
      <trkpt lat="42.71532" lon="0.98086">
        <ele>2234</ele>
        <time>2010-01-01T00:54:27Z</time>
      </trkpt>
      <trkpt lat="42.71537" lon="0.98097">
        <ele>2237</ele>
        <time>2010-01-01T00:54:30Z</time>
      </trkpt>
      <trkpt lat="42.71541" lon="0.98107">
        <ele>2239</ele>
        <time>2010-01-01T00:54:34Z</time>
      </trkpt>
      <trkpt lat="42.71547" lon="0.98117">
        <ele>2241</ele>
        <time>2010-01-01T00:54:38Z</time>
      </trkpt>
      <trkpt lat="42.71553" lon="0.98124">
        <ele>2244</ele>
        <time>2010-01-01T00:54:41Z</time>
      </trkpt>
      <trkpt lat="42.71557" lon="0.98136">
        <ele>2247</ele>
        <time>2010-01-01T00:54:45Z</time>
      </trkpt>
      <trkpt lat="42.71563" lon="0.98146">
        <ele>2252</ele>
        <time>2010-01-01T00:54:48Z</time>
      </trkpt>
      <trkpt lat="42.71569" lon="0.98158">
        <ele>2256</ele>
        <time>2010-01-01T00:54:53Z</time>
      </trkpt>
      <trkpt lat="42.71575" lon="0.98168">
        <ele>2261</ele>
        <time>2010-01-01T00:54:57Z</time>
      </trkpt>
      <trkpt lat="42.71583" lon="0.98179">
        <ele>2266</ele>
        <time>2010-01-01T00:55:01Z</time>
      </trkpt>
      <trkpt lat="42.71589" lon="0.98189">
        <ele>2269</ele>
        <time>2010-01-01T00:55:05Z</time>
      </trkpt>
      <trkpt lat="42.71595" lon="0.982">
        <ele>2273</ele>
        <time>2010-01-01T00:55:09Z</time>
      </trkpt>
      <trkpt lat="42.71601" lon="0.98208">
        <ele>2276</ele>
        <time>2010-01-01T00:55:12Z</time>
      </trkpt>
      <trkpt lat="42.71605" lon="0.98219">
        <ele>2280</ele>
        <time>2010-01-01T00:55:16Z</time>
      </trkpt>
      <trkpt lat="42.71608" lon="0.98231">
        <ele>2284</ele>
        <time>2010-01-01T00:55:20Z</time>
      </trkpt>
      <trkpt lat="42.71611" lon="0.98243">
        <ele>2288</ele>
        <time>2010-01-01T00:55:23Z</time>
      </trkpt>
      <trkpt lat="42.71614" lon="0.98254">
        <ele>2291</ele>
        <time>2010-01-01T00:55:27Z</time>
      </trkpt>
      <trkpt lat="42.71616" lon="0.98267">
        <ele>2294</ele>
        <time>2010-01-01T00:55:31Z</time>
      </trkpt>
      <trkpt lat="42.71615" lon="0.98281">
        <ele>2298</ele>
        <time>2010-01-01T00:55:35Z</time>
      </trkpt>
      <trkpt lat="42.71614" lon="0.98294">
        <ele>2300</ele>
        <time>2010-01-01T00:55:39Z</time>
      </trkpt>
      <trkpt lat="42.71612" lon="0.98307">
        <ele>2302</ele>
        <time>2010-01-01T00:55:43Z</time>
      </trkpt>
      <trkpt lat="42.71611" lon="0.98321">
        <ele>2303</ele>
        <time>2010-01-01T00:55:47Z</time>
      </trkpt>
      <trkpt lat="42.71604" lon="0.98331">
        <ele>2303</ele>
        <time>2010-01-01T00:55:51Z</time>
      </trkpt>
      <trkpt lat="42.71599" lon="0.98342">
        <ele>2305</ele>
        <time>2010-01-01T00:55:54Z</time>
      </trkpt>
      <trkpt lat="42.71594" lon="0.98354">
        <ele>2306</ele>
        <time>2010-01-01T00:55:58Z</time>
      </trkpt>
      <trkpt lat="42.7159" lon="0.98367">
        <ele>2309</ele>
        <time>2010-01-01T00:56:03Z</time>
      </trkpt>
      <trkpt lat="42.71589" lon="0.9838">
        <ele>2313</ele>
        <time>2010-01-01T00:56:07Z</time>
      </trkpt>
      <trkpt lat="42.71589" lon="0.98395">
        <ele>2318</ele>
        <time>2010-01-01T00:56:11Z</time>
      </trkpt>
      <trkpt lat="42.71588" lon="0.98408">
        <ele>2323</ele>
        <time>2010-01-01T00:56:15Z</time>
      </trkpt>
      <trkpt lat="42.71588" lon="0.98421">
        <ele>2327</ele>
        <time>2010-01-01T00:56:19Z</time>
      </trkpt>
      <trkpt lat="42.71588" lon="0.98436">
        <ele>2330</ele>
        <time>2010-01-01T00:56:23Z</time>
      </trkpt>
      <trkpt lat="42.71592" lon="0.98448">
        <ele>2332</ele>
        <time>2010-01-01T00:56:27Z</time>
      </trkpt>
      <trkpt lat="42.71596" lon="0.9846">
        <ele>2333</ele>
        <time>2010-01-01T00:56:31Z</time>
      </trkpt>
      <trkpt lat="42.71601" lon="0.9847">
        <ele>2334</ele>
        <time>2010-01-01T00:56:34Z</time>
      </trkpt>
      <trkpt lat="42.71607" lon="0.98481">
        <ele>2333</ele>
        <time>2010-01-01T00:56:38Z</time>
      </trkpt>
      <trkpt lat="42.71614" lon="0.98489">
        <ele>2330</ele>
        <time>2010-01-01T00:56:42Z</time>
      </trkpt>
      <trkpt lat="42.71612" lon="0.98502">
        <ele>2329</ele>
        <time>2010-01-01T00:56:46Z</time>
      </trkpt>
      <trkpt lat="42.71611" lon="0.98515">
        <ele>2328</ele>
        <time>2010-01-01T00:56:50Z</time>
      </trkpt>
      <trkpt lat="42.71602" lon="0.98522">
        <ele>2330</ele>
        <time>2010-01-01T00:56:54Z</time>
      </trkpt>
      <trkpt lat="42.71598" lon="0.98535">
        <ele>2329</ele>
        <time>2010-01-01T00:56:58Z</time>
      </trkpt>
      <trkpt lat="42.71594" lon="0.98546">
        <ele>2328</ele>
        <time>2010-01-01T00:57:01Z</time>
      </trkpt>
      <trkpt lat="42.71592" lon="0.98557">
        <ele>2327</ele>
        <time>2010-01-01T00:57:05Z</time>
      </trkpt>
      <trkpt lat="42.71593" lon="0.98568">
        <ele>2323</ele>
        <time>2010-01-01T00:57:08Z</time>
      </trkpt>
      <trkpt lat="42.71588" lon="0.98582">
        <ele>2322</ele>
        <time>2010-01-01T00:57:12Z</time>
      </trkpt>
      <trkpt lat="42.71585" lon="0.98594">
        <ele>2319</ele>
        <time>2010-01-01T00:57:16Z</time>
      </trkpt>
      <trkpt lat="42.71579" lon="0.98605">
        <ele>2319</ele>
        <time>2010-01-01T00:57:20Z</time>
      </trkpt>
      <trkpt lat="42.71572" lon="0.98614">
        <ele>2321</ele>
        <time>2010-01-01T00:57:24Z</time>
      </trkpt>
      <trkpt lat="42.71568" lon="0.98627">
        <ele>2319</ele>
        <time>2010-01-01T00:57:28Z</time>
      </trkpt>
      <trkpt lat="42.71566" lon="0.98642">
        <ele>2315</ele>
        <time>2010-01-01T00:57:32Z</time>
      </trkpt>
      <trkpt lat="42.71563" lon="0.98656">
        <ele>2311</ele>
        <time>2010-01-01T00:57:37Z</time>
      </trkpt>
      <trkpt lat="42.7156" lon="0.98671">
        <ele>2307</ele>
        <time>2010-01-01T00:57:41Z</time>
      </trkpt>
      <trkpt lat="42.71556" lon="0.98683">
        <ele>2308</ele>
        <time>2010-01-01T00:57:45Z</time>
      </trkpt>
      <trkpt lat="42.71551" lon="0.98694">
        <ele>2310</ele>
        <time>2010-01-01T00:57:49Z</time>
      </trkpt>
      <trkpt lat="42.7155" lon="0.98708">
        <ele>2306</ele>
        <time>2010-01-01T00:57:53Z</time>
      </trkpt>
      <trkpt lat="42.71555" lon="0.98723">
        <ele>2297</ele>
        <time>2010-01-01T00:57:58Z</time>
      </trkpt>
      <trkpt lat="42.71563" lon="0.98738">
        <ele>2291</ele>
        <time>2010-01-01T00:58:03Z</time>
      </trkpt>
      <trkpt lat="42.71568" lon="0.98753">
        <ele>2287</ele>
        <time>2010-01-01T00:58:08Z</time>
      </trkpt>
      <trkpt lat="42.71573" lon="0.98761">
        <ele>2285</ele>
        <time>2010-01-01T00:58:12Z</time>
      </trkpt>
      <trkpt lat="42.71581" lon="0.98771">
        <ele>2281</ele>
        <time>2010-01-01T00:58:16Z</time>
      </trkpt>
      <trkpt lat="42.71589" lon="0.98781">
        <ele>2277</ele>
        <time>2010-01-01T00:58:20Z</time>
      </trkpt>
      <trkpt lat="42.71593" lon="0.98791">
        <ele>2275</ele>
        <time>2010-01-01T00:58:24Z</time>
      </trkpt>
      <trkpt lat="42.71601" lon="0.98797">
        <ele>2271</ele>
        <time>2010-01-01T00:58:27Z</time>
      </trkpt>
      <trkpt lat="42.71607" lon="0.98809">
        <ele>2268</ele>
        <time>2010-01-01T00:58:31Z</time>
      </trkpt>
      <trkpt lat="42.71611" lon="0.9882">
        <ele>2265</ele>
        <time>2010-01-01T00:58:35Z</time>
      </trkpt>
      <trkpt lat="42.71617" lon="0.98828">
        <ele>2263</ele>
        <time>2010-01-01T00:58:38Z</time>
      </trkpt>
      <trkpt lat="42.71624" lon="0.98837">
        <ele>2260</ele>
        <time>2010-01-01T00:58:42Z</time>
      </trkpt>
      <trkpt lat="42.71629" lon="0.98849">
        <ele>2257</ele>
        <time>2010-01-01T00:58:46Z</time>
      </trkpt>
      <trkpt lat="42.7163" lon="0.98862">
        <ele>2256</ele>
        <time>2010-01-01T00:58:50Z</time>
      </trkpt>
      <trkpt lat="42.71635" lon="0.98873">
        <ele>2252</ele>
        <time>2010-01-01T00:58:54Z</time>
      </trkpt>
      <trkpt lat="42.71636" lon="0.98887">
        <ele>2250</ele>
        <time>2010-01-01T00:58:58Z</time>
      </trkpt>
      <trkpt lat="42.7164" lon="0.98899">
        <ele>2247</ele>
        <time>2010-01-01T00:59:02Z</time>
      </trkpt>
      <trkpt lat="42.71641" lon="0.98913">
        <ele>2246</ele>
        <time>2010-01-01T00:59:06Z</time>
      </trkpt>
      <trkpt lat="42.71645" lon="0.98925">
        <ele>2245</ele>
        <time>2010-01-01T00:59:10Z</time>
      </trkpt>
      <trkpt lat="42.7165" lon="0.98937">
        <ele>2244</ele>
        <time>2010-01-01T00:59:14Z</time>
      </trkpt>
      <trkpt lat="42.71654" lon="0.98949">
        <ele>2243</ele>
        <time>2010-01-01T00:59:18Z</time>
      </trkpt>
      <trkpt lat="42.71661" lon="0.98961">
        <ele>2242</ele>
        <time>2010-01-01T00:59:22Z</time>
      </trkpt>
      <trkpt lat="42.71666" lon="0.98976">
        <ele>2241</ele>
        <time>2010-01-01T00:59:27Z</time>
      </trkpt>
      <trkpt lat="42.71674" lon="0.98988">
        <ele>2240</ele>
        <time>2010-01-01T00:59:32Z</time>
      </trkpt>
      <trkpt lat="42.71683" lon="0.98993">
        <ele>2238</ele>
        <time>2010-01-01T00:59:36Z</time>
      </trkpt>
      <trkpt lat="42.71693" lon="0.99">
        <ele>2235</ele>
        <time>2010-01-01T00:59:40Z</time>
      </trkpt>
      <trkpt lat="42.71701" lon="0.99004">
        <ele>2235</ele>
        <time>2010-01-01T00:59:44Z</time>
      </trkpt>
      <trkpt lat="42.71708" lon="0.99015">
        <ele>2235</ele>
        <time>2010-01-01T00:59:48Z</time>
      </trkpt>
      <trkpt lat="42.71708" lon="0.99026">
        <ele>2235</ele>
        <time>2010-01-01T00:59:51Z</time>
      </trkpt>
      <trkpt lat="42.71711" lon="0.99041">
        <ele>2236</ele>
        <time>2010-01-01T00:59:56Z</time>
      </trkpt>
      <trkpt lat="42.71717" lon="0.99052">
        <ele>2235</ele>
        <time>2010-01-01T01:00:00Z</time>
      </trkpt>
      <trkpt lat="42.71717" lon="0.99066">
        <ele>2235</ele>
        <time>2010-01-01T01:00:04Z</time>
      </trkpt>
      <trkpt lat="42.71722" lon="0.99074">
        <ele>2234</ele>
        <time>2010-01-01T01:00:07Z</time>
      </trkpt>
      <trkpt lat="42.71731" lon="0.9908">
        <ele>2234</ele>
        <time>2010-01-01T01:00:11Z</time>
      </trkpt>
      <trkpt lat="42.71741" lon="0.99089">
        <ele>2234</ele>
        <time>2010-01-01T01:00:16Z</time>
      </trkpt>
      <trkpt lat="42.71746" lon="0.99098">
        <ele>2235</ele>
        <time>2010-01-01T01:00:19Z</time>
      </trkpt>
      <trkpt lat="42.71749" lon="0.9911">
        <ele>2235</ele>
        <time>2010-01-01T01:00:23Z</time>
      </trkpt>
      <trkpt lat="42.71746" lon="0.99124">
        <ele>2237</ele>
        <time>2010-01-01T01:00:27Z</time>
      </trkpt>
      <trkpt lat="42.71745" lon="0.99139">
        <ele>2238</ele>
        <time>2010-01-01T01:00:31Z</time>
      </trkpt>
      <trkpt lat="42.71744" lon="0.99155">
        <ele>2240</ele>
        <time>2010-01-01T01:00:36Z</time>
      </trkpt>
      <trkpt lat="42.71743" lon="0.99174">
        <ele>2242</ele>
        <time>2010-01-01T01:00:42Z</time>
      </trkpt>
      <trkpt lat="42.71743" lon="0.99188">
        <ele>2245</ele>
        <time>2010-01-01T01:00:46Z</time>
      </trkpt>
      <trkpt lat="42.71751" lon="0.99196">
        <ele>2245</ele>
        <time>2010-01-01T01:00:50Z</time>
      </trkpt>
      <trkpt lat="42.7176" lon="0.99191">
        <ele>2243</ele>
        <time>2010-01-01T01:00:54Z</time>
      </trkpt>
      <trkpt lat="42.71769" lon="0.99189">
        <ele>2242</ele>
        <time>2010-01-01T01:00:58Z</time>
      </trkpt>
      <trkpt lat="42.71778" lon="0.99186">
        <ele>2242</ele>
        <time>2010-01-01T01:01:01Z</time>
      </trkpt>
      <trkpt lat="42.71787" lon="0.9918">
        <ele>2240</ele>
        <time>2010-01-01T01:01:05Z</time>
      </trkpt>
      <trkpt lat="42.71797" lon="0.99184">
        <ele>2238</ele>
        <time>2010-01-01T01:01:09Z</time>
      </trkpt>
      <trkpt lat="42.71805" lon="0.99192">
        <ele>2237</ele>
        <time>2010-01-01T01:01:13Z</time>
      </trkpt>
      <trkpt lat="42.71811" lon="0.99207">
        <ele>2238</ele>
        <time>2010-01-01T01:01:18Z</time>
      </trkpt>
      <trkpt lat="42.71817" lon="0.9922">
        <ele>2238</ele>
        <time>2010-01-01T01:01:23Z</time>
      </trkpt>
      <trkpt lat="42.71822" lon="0.99234">
        <ele>2238</ele>
        <time>2010-01-01T01:01:28Z</time>
      </trkpt>
      <trkpt lat="42.71826" lon="0.99246">
        <ele>2238</ele>
        <time>2010-01-01T01:01:32Z</time>
      </trkpt>
      <trkpt lat="42.71832" lon="0.99258">
        <ele>2238</ele>
        <time>2010-01-01T01:01:36Z</time>
      </trkpt>
      <trkpt lat="42.71836" lon="0.99273">
        <ele>2239</ele>
        <time>2010-01-01T01:01:40Z</time>
      </trkpt>
      <trkpt lat="42.71838" lon="0.99287">
        <ele>2239</ele>
        <time>2010-01-01T01:01:44Z</time>
      </trkpt>
      <trkpt lat="42.71839" lon="0.99299">
        <ele>2240</ele>
        <time>2010-01-01T01:01:48Z</time>
      </trkpt>
      <trkpt lat="42.71842" lon="0.99313">
        <ele>2241</ele>
        <time>2010-01-01T01:01:53Z</time>
      </trkpt>
      <trkpt lat="42.71844" lon="0.99328">
        <ele>2242</ele>
        <time>2010-01-01T01:01:57Z</time>
      </trkpt>
      <trkpt lat="42.71848" lon="0.9934">
        <ele>2243</ele>
        <time>2010-01-01T01:02:01Z</time>
      </trkpt>
      <trkpt lat="42.71853" lon="0.99352">
        <ele>2244</ele>
        <time>2010-01-01T01:02:05Z</time>
      </trkpt>
      <trkpt lat="42.71854" lon="0.99367">
        <ele>2244</ele>
        <time>2010-01-01T01:02:09Z</time>
      </trkpt>
      <trkpt lat="42.71855" lon="0.99383">
        <ele>2243</ele>
        <time>2010-01-01T01:02:14Z</time>
      </trkpt>
      <trkpt lat="42.71859" lon="0.99396">
        <ele>2244</ele>
        <time>2010-01-01T01:02:18Z</time>
      </trkpt>
      <trkpt lat="42.7186" lon="0.9941">
        <ele>2244</ele>
        <time>2010-01-01T01:02:22Z</time>
      </trkpt>
      <trkpt lat="42.71865" lon="0.99422">
        <ele>2244</ele>
        <time>2010-01-01T01:02:26Z</time>
      </trkpt>
      <trkpt lat="42.71869" lon="0.99434">
        <ele>2245</ele>
        <time>2010-01-01T01:02:30Z</time>
      </trkpt>
      <trkpt lat="42.71871" lon="0.99449">
        <ele>2246</ele>
        <time>2010-01-01T01:02:34Z</time>
      </trkpt>
      <trkpt lat="42.71873" lon="0.99463">
        <ele>2247</ele>
        <time>2010-01-01T01:02:39Z</time>
      </trkpt>
      <trkpt lat="42.71875" lon="0.99478">
        <ele>2247</ele>
        <time>2010-01-01T01:02:43Z</time>
      </trkpt>
      <trkpt lat="42.71877" lon="0.99491">
        <ele>2248</ele>
        <time>2010-01-01T01:02:47Z</time>
      </trkpt>
      <trkpt lat="42.71882" lon="0.99503">
        <ele>2250</ele>
        <time>2010-01-01T01:02:51Z</time>
      </trkpt>
      <trkpt lat="42.71883" lon="0.99518">
        <ele>2250</ele>
        <time>2010-01-01T01:02:56Z</time>
      </trkpt>
      <trkpt lat="42.71884" lon="0.99532">
        <ele>2249</ele>
        <time>2010-01-01T01:03:00Z</time>
      </trkpt>
      <trkpt lat="42.71887" lon="0.99547">
        <ele>2249</ele>
        <time>2010-01-01T01:03:04Z</time>
      </trkpt>
      <trkpt lat="42.71889" lon="0.99562">
        <ele>2248</ele>
        <time>2010-01-01T01:03:09Z</time>
      </trkpt>
      <trkpt lat="42.71893" lon="0.99577">
        <ele>2248</ele>
        <time>2010-01-01T01:03:13Z</time>
      </trkpt>
      <trkpt lat="42.71899" lon="0.99587">
        <ele>2248</ele>
        <time>2010-01-01T01:03:17Z</time>
      </trkpt>
      <trkpt lat="42.71903" lon="0.99599">
        <ele>2248</ele>
        <time>2010-01-01T01:03:21Z</time>
      </trkpt>
      <trkpt lat="42.71912" lon="0.99606">
        <ele>2249</ele>
        <time>2010-01-01T01:03:25Z</time>
      </trkpt>
      <trkpt lat="42.7192" lon="0.99612">
        <ele>2249</ele>
        <time>2010-01-01T01:03:29Z</time>
      </trkpt>
      <trkpt lat="42.71929" lon="0.9962">
        <ele>2249</ele>
        <time>2010-01-01T01:03:33Z</time>
      </trkpt>
      <trkpt lat="42.71936" lon="0.99626">
        <ele>2249</ele>
        <time>2010-01-01T01:03:36Z</time>
      </trkpt>
      <trkpt lat="42.71941" lon="0.99635">
        <ele>2249</ele>
        <time>2010-01-01T01:03:40Z</time>
      </trkpt>
      <trkpt lat="42.71951" lon="0.99643">
        <ele>2249</ele>
        <time>2010-01-01T01:03:44Z</time>
      </trkpt>
      <trkpt lat="42.71961" lon="0.99646">
        <ele>2250</ele>
        <time>2010-01-01T01:03:49Z</time>
      </trkpt>
      <trkpt lat="42.71971" lon="0.99647">
        <ele>2250</ele>
        <time>2010-01-01T01:03:52Z</time>
      </trkpt>
      <trkpt lat="42.71979" lon="0.99642">
        <ele>2251</ele>
        <time>2010-01-01T01:03:56Z</time>
      </trkpt>
      <trkpt lat="42.7199" lon="0.99648">
        <ele>2253</ele>
        <time>2010-01-01T01:04:01Z</time>
      </trkpt>
      <trkpt lat="42.71999" lon="0.99652">
        <ele>2254</ele>
        <time>2010-01-01T01:04:05Z</time>
      </trkpt>
      <trkpt lat="42.7201" lon="0.99658">
        <ele>2255</ele>
        <time>2010-01-01T01:04:09Z</time>
      </trkpt>
      <trkpt lat="42.72018" lon="0.99663">
        <ele>2256</ele>
        <time>2010-01-01T01:04:13Z</time>
      </trkpt>
      <trkpt lat="42.72027" lon="0.99664">
        <ele>2257</ele>
        <time>2010-01-01T01:04:16Z</time>
      </trkpt>
      <trkpt lat="42.72036" lon="0.9966">
        <ele>2258</ele>
        <time>2010-01-01T01:04:20Z</time>
      </trkpt>
      <trkpt lat="42.72043" lon="0.99652">
        <ele>2258</ele>
        <time>2010-01-01T01:04:24Z</time>
      </trkpt>
      <trkpt lat="42.7205" lon="0.99645">
        <ele>2259</ele>
        <time>2010-01-01T01:04:27Z</time>
      </trkpt>
      <trkpt lat="42.72057" lon="0.99636">
        <ele>2260</ele>
        <time>2010-01-01T01:04:31Z</time>
      </trkpt>
      <trkpt lat="42.72064" lon="0.99628">
        <ele>2260</ele>
        <time>2010-01-01T01:04:35Z</time>
      </trkpt>
      <trkpt lat="42.72073" lon="0.99624">
        <ele>2260</ele>
        <time>2010-01-01T01:04:39Z</time>
      </trkpt>
      <trkpt lat="42.72083" lon="0.99621">
        <ele>2261</ele>
        <time>2010-01-01T01:04:43Z</time>
      </trkpt>
      <trkpt lat="42.72093" lon="0.99617">
        <ele>2262</ele>
        <time>2010-01-01T01:04:47Z</time>
      </trkpt>
      <trkpt lat="42.72104" lon="0.99618">
        <ele>2264</ele>
        <time>2010-01-01T01:04:52Z</time>
      </trkpt>
      <trkpt lat="42.72115" lon="0.99621">
        <ele>2266</ele>
        <time>2010-01-01T01:04:56Z</time>
      </trkpt>
      <trkpt lat="42.72123" lon="0.99615">
        <ele>2267</ele>
        <time>2010-01-01T01:05:00Z</time>
      </trkpt>
      <trkpt lat="42.72129" lon="0.99604">
        <ele>2267</ele>
        <time>2010-01-01T01:05:04Z</time>
      </trkpt>
      <trkpt lat="42.72139" lon="0.99602">
        <ele>2269</ele>
        <time>2010-01-01T01:05:08Z</time>
      </trkpt>
      <trkpt lat="42.72148" lon="0.9961">
        <ele>2270</ele>
        <time>2010-01-01T01:05:12Z</time>
      </trkpt>
      <trkpt lat="42.72157" lon="0.99618">
        <ele>2272</ele>
        <time>2010-01-01T01:05:16Z</time>
      </trkpt>
      <trkpt lat="42.72166" lon="0.99626">
        <ele>2275</ele>
        <time>2010-01-01T01:05:21Z</time>
      </trkpt>
      <trkpt lat="42.72171" lon="0.99637">
        <ele>2278</ele>
        <time>2010-01-01T01:05:24Z</time>
      </trkpt>
      <trkpt lat="42.72176" lon="0.99649">
        <ele>2281</ele>
        <time>2010-01-01T01:05:28Z</time>
      </trkpt>
      <trkpt lat="42.72181" lon="0.9966">
        <ele>2285</ele>
        <time>2010-01-01T01:05:32Z</time>
      </trkpt>
      <trkpt lat="42.7218" lon="0.99673">
        <ele>2288</ele>
        <time>2010-01-01T01:05:36Z</time>
      </trkpt>
      <trkpt lat="42.72181" lon="0.99687">
        <ele>2293</ele>
        <time>2010-01-01T01:05:40Z</time>
      </trkpt>
      <trkpt lat="42.72188" lon="0.99685">
        <ele>2294</ele>
        <time>2010-01-01T01:05:43Z</time>
      </trkpt>
      <trkpt lat="42.72194" lon="0.99686">
        <ele>2296</ele>
        <time>2010-01-01T01:05:45Z</time>
      </trkpt>
      <trkpt lat="42.72202" lon="0.99681">
        <ele>2297</ele>
        <time>2010-01-01T01:05:49Z</time>
      </trkpt>
      <trkpt lat="42.7221" lon="0.99685">
        <ele>2302</ele>
        <time>2010-01-01T01:05:52Z</time>
      </trkpt>
      <trkpt lat="42.72207" lon="0.99698">
        <ele>2306</ele>
        <time>2010-01-01T01:05:56Z</time>
      </trkpt>
      <trkpt lat="42.7221" lon="0.99707">
        <ele>2310</ele>
        <time>2010-01-01T01:05:59Z</time>
      </trkpt>
      <trkpt lat="42.72211" lon="0.99718">
        <ele>2314</ele>
        <time>2010-01-01T01:06:02Z</time>
      </trkpt>
      <trkpt lat="42.72215" lon="0.99723">
        <ele>2317</ele>
        <time>2010-01-01T01:06:04Z</time>
      </trkpt>
      <trkpt lat="42.72213" lon="0.99735">
        <ele>2322</ele>
        <time>2010-01-01T01:06:08Z</time>
      </trkpt>
      <trkpt lat="42.72221" lon="0.99734">
        <ele>2326</ele>
        <time>2010-01-01T01:06:12Z</time>
      </trkpt>
      <trkpt lat="42.72226" lon="0.99738">
        <ele>2331</ele>
        <time>2010-01-01T01:06:14Z</time>
      </trkpt>
      <trkpt lat="42.72225" lon="0.99751">
        <ele>2337</ele>
        <time>2010-01-01T01:06:18Z</time>
      </trkpt>
      <trkpt lat="42.72226" lon="0.99761">
        <ele>2341</ele>
        <time>2010-01-01T01:06:21Z</time>
      </trkpt>
      <trkpt lat="42.72231" lon="0.99764">
        <ele>2345</ele>
        <time>2010-01-01T01:06:23Z</time>
      </trkpt>
      <trkpt lat="42.72231" lon="0.99777">
        <ele>2349</ele>
        <time>2010-01-01T01:06:27Z</time>
      </trkpt>
      <trkpt lat="42.72236" lon="0.99779">
        <ele>2352</ele>
        <time>2010-01-01T01:06:29Z</time>
      </trkpt>
      <trkpt lat="42.72239" lon="0.9979">
        <ele>2356</ele>
        <time>2010-01-01T01:06:32Z</time>
      </trkpt>
      <trkpt lat="42.7224" lon="0.99802">
        <ele>2359</ele>
        <time>2010-01-01T01:06:36Z</time>
      </trkpt>
      <trkpt lat="42.7224" lon="0.99814">
        <ele>2362</ele>
        <time>2010-01-01T01:06:39Z</time>
      </trkpt>
      <trkpt lat="42.72246" lon="0.99818">
        <ele>2366</ele>
        <time>2010-01-01T01:06:42Z</time>
      </trkpt>
      <trkpt lat="42.72247" lon="0.9983">
        <ele>2369</ele>
        <time>2010-01-01T01:06:45Z</time>
      </trkpt>
      <trkpt lat="42.72251" lon="0.99835">
        <ele>2372</ele>
        <time>2010-01-01T01:06:48Z</time>
      </trkpt>
      <trkpt lat="42.72256" lon="0.99845">
        <ele>2376</ele>
        <time>2010-01-01T01:06:51Z</time>
      </trkpt>
      <trkpt lat="42.72255" lon="0.99858">
        <ele>2378</ele>
        <time>2010-01-01T01:06:55Z</time>
      </trkpt>
      <trkpt lat="42.72258" lon="0.99869">
        <ele>2382</ele>
        <time>2010-01-01T01:06:58Z</time>
      </trkpt>
      <trkpt lat="42.72261" lon="0.99879">
        <ele>2385</ele>
        <time>2010-01-01T01:07:01Z</time>
      </trkpt>
      <trkpt lat="42.72262" lon="0.9989">
        <ele>2387</ele>
        <time>2010-01-01T01:07:05Z</time>
      </trkpt>
      <trkpt lat="42.72264" lon="0.99902">
        <ele>2390</ele>
        <time>2010-01-01T01:07:08Z</time>
      </trkpt>
      <trkpt lat="42.72267" lon="0.99912">
        <ele>2393</ele>
        <time>2010-01-01T01:07:12Z</time>
      </trkpt>
      <trkpt lat="42.72269" lon="0.99925">
        <ele>2396</ele>
        <time>2010-01-01T01:07:16Z</time>
      </trkpt>
      <trkpt lat="42.72269" lon="0.99937">
        <ele>2399</ele>
        <time>2010-01-01T01:07:19Z</time>
      </trkpt>
      <trkpt lat="42.72268" lon="0.99951">
        <ele>2402</ele>
        <time>2010-01-01T01:07:23Z</time>
      </trkpt>
      <trkpt lat="42.72265" lon="0.99964">
        <ele>2404</ele>
        <time>2010-01-01T01:07:27Z</time>
      </trkpt>
      <trkpt lat="42.72258" lon="0.99971">
        <ele>2405</ele>
        <time>2010-01-01T01:07:31Z</time>
      </trkpt>
      <trkpt lat="42.72258" lon="0.99985">
        <ele>2409</ele>
        <time>2010-01-01T01:07:35Z</time>
      </trkpt>
      <trkpt lat="42.72257" lon="0.99996">
        <ele>2412</ele>
        <time>2010-01-01T01:07:38Z</time>
      </trkpt>
      <trkpt lat="42.7226" lon="1.00013">
        <ele>2418</ele>
        <time>2010-01-01T01:07:43Z</time>
      </trkpt>
      <trkpt lat="42.72261" lon="1.00026">
        <ele>2422</ele>
        <time>2010-01-01T01:07:47Z</time>
      </trkpt>
      <trkpt lat="42.72264" lon="1.00038">
        <ele>2426</ele>
        <time>2010-01-01T01:07:51Z</time>
      </trkpt>
      <trkpt lat="42.72254" lon="1.00045">
        <ele>2429</ele>
        <time>2010-01-01T01:07:55Z</time>
      </trkpt>
      <trkpt lat="42.72244" lon="1.0005">
        <ele>2429</ele>
        <time>2010-01-01T01:07:59Z</time>
      </trkpt>
      <trkpt lat="42.72237" lon="1.00057">
        <ele>2429</ele>
        <time>2010-01-01T01:08:03Z</time>
      </trkpt>
      <trkpt lat="42.72236" lon="1.0007">
        <ele>2432</ele>
        <time>2010-01-01T01:08:07Z</time>
      </trkpt>
      <trkpt lat="42.72234" lon="1.00084">
        <ele>2435</ele>
        <time>2010-01-01T01:08:11Z</time>
      </trkpt>
      <trkpt lat="42.72238" lon="1.00095">
        <ele>2440</ele>
        <time>2010-01-01T01:08:15Z</time>
      </trkpt>
      <trkpt lat="42.72245" lon="1.00105">
        <ele>2444</ele>
        <time>2010-01-01T01:08:19Z</time>
      </trkpt>
      <trkpt lat="42.72248" lon="1.00117">
        <ele>2448</ele>
        <time>2010-01-01T01:08:23Z</time>
      </trkpt>
      <trkpt lat="42.72252" lon="1.0013">
        <ele>2453</ele>
        <time>2010-01-01T01:08:27Z</time>
      </trkpt>
      <trkpt lat="42.72256" lon="1.00144">
        <ele>2458</ele>
        <time>2010-01-01T01:08:31Z</time>
      </trkpt>
      <trkpt lat="42.72261" lon="1.00146">
        <ele>2459</ele>
        <time>2010-01-01T01:08:33Z</time>
      </trkpt>
      <trkpt lat="42.72268" lon="1.00159">
        <ele>2463</ele>
        <time>2010-01-01T01:08:38Z</time>
      </trkpt>
      <trkpt lat="42.72272" lon="1.00171">
        <ele>2469</ele>
        <time>2010-01-01T01:08:42Z</time>
      </trkpt>
      <trkpt lat="42.72277" lon="1.00182">
        <ele>2475</ele>
        <time>2010-01-01T01:08:46Z</time>
      </trkpt>
      <trkpt lat="42.72282" lon="1.00193">
        <ele>2480</ele>
        <time>2010-01-01T01:08:49Z</time>
      </trkpt>
      <trkpt lat="42.72286" lon="1.00206">
        <ele>2484</ele>
        <time>2010-01-01T01:08:54Z</time>
      </trkpt>
      <trkpt lat="42.72291" lon="1.00216">
        <ele>2488</ele>
        <time>2010-01-01T01:08:57Z</time>
      </trkpt>
      <trkpt lat="42.72293" lon="1.00225">
        <ele>2491</ele>
        <time>2010-01-01T01:09:00Z</time>
      </trkpt>
      <trkpt lat="42.72296" lon="1.00236">
        <ele>2495</ele>
        <time>2010-01-01T01:09:03Z</time>
      </trkpt>
      <trkpt lat="42.72299" lon="1.00246">
        <ele>2497</ele>
        <time>2010-01-01T01:09:07Z</time>
      </trkpt>
      <trkpt lat="42.72303" lon="1.00257">
        <ele>2501</ele>
        <time>2010-01-01T01:09:10Z</time>
      </trkpt>
      <trkpt lat="42.72301" lon="1.00269">
        <ele>2504</ele>
        <time>2010-01-01T01:09:14Z</time>
      </trkpt>
      <trkpt lat="42.72299" lon="1.00279">
        <ele>2506</ele>
        <time>2010-01-01T01:09:17Z</time>
      </trkpt>
      <trkpt lat="42.72304" lon="1.00289">
        <ele>2511</ele>
        <time>2010-01-01T01:09:20Z</time>
      </trkpt>
      <trkpt lat="42.72304" lon="1.00299">
        <ele>2514</ele>
        <time>2010-01-01T01:09:23Z</time>
      </trkpt>
      <trkpt lat="42.72306" lon="1.00308">
        <ele>2517</ele>
        <time>2010-01-01T01:09:26Z</time>
      </trkpt>
      <trkpt lat="42.72308" lon="1.00317">
        <ele>2521</ele>
        <time>2010-01-01T01:09:29Z</time>
      </trkpt>
      <trkpt lat="42.72311" lon="1.00328">
        <ele>2526</ele>
        <time>2010-01-01T01:09:32Z</time>
      </trkpt>
      <trkpt lat="42.72311" lon="1.00337">
        <ele>2529</ele>
        <time>2010-01-01T01:09:35Z</time>
      </trkpt>
      <trkpt lat="42.72315" lon="1.00345">
        <ele>2532</ele>
        <time>2010-01-01T01:09:38Z</time>
      </trkpt>
      <trkpt lat="42.72315" lon="1.00356">
        <ele>2535</ele>
        <time>2010-01-01T01:09:41Z</time>
      </trkpt>
      <trkpt lat="42.7232" lon="1.00363">
        <ele>2538</ele>
        <time>2010-01-01T01:09:43Z</time>
      </trkpt>
      <trkpt lat="42.72316" lon="1.00374">
        <ele>2540</ele>
        <time>2010-01-01T01:09:47Z</time>
      </trkpt>
      <trkpt lat="42.72323" lon="1.00381">
        <ele>2545</ele>
        <time>2010-01-01T01:09:51Z</time>
      </trkpt>
      <trkpt lat="42.72325" lon="1.0039">
        <ele>2550</ele>
        <time>2010-01-01T01:09:54Z</time>
      </trkpt>
      <trkpt lat="42.72326" lon="1.004">
        <ele>2554</ele>
        <time>2010-01-01T01:09:56Z</time>
      </trkpt>
      <trkpt lat="42.72327" lon="1.00409">
        <ele>2557</ele>
        <time>2010-01-01T01:09:59Z</time>
      </trkpt>
      <trkpt lat="42.72335" lon="1.00416">
        <ele>2563</ele>
        <time>2010-01-01T01:10:03Z</time>
      </trkpt>
      <trkpt lat="42.72333" lon="1.00425">
        <ele>2565</ele>
        <time>2010-01-01T01:10:06Z</time>
      </trkpt>
      <trkpt lat="42.72337" lon="1.00434">
        <ele>2569</ele>
        <time>2010-01-01T01:10:09Z</time>
      </trkpt>
      <trkpt lat="42.72339" lon="1.00445">
        <ele>2572</ele>
        <time>2010-01-01T01:10:12Z</time>
      </trkpt>
      <trkpt lat="42.72345" lon="1.00454">
        <ele>2576</ele>
        <time>2010-01-01T01:10:16Z</time>
      </trkpt>
      <trkpt lat="42.72351" lon="1.00464">
        <ele>2579</ele>
        <time>2010-01-01T01:10:20Z</time>
      </trkpt>
      <trkpt lat="42.72356" lon="1.00473">
        <ele>2581</ele>
        <time>2010-01-01T01:10:23Z</time>
      </trkpt>
      <trkpt lat="42.72362" lon="1.00483">
        <ele>2582</ele>
        <time>2010-01-01T01:10:27Z</time>
      </trkpt>
      <trkpt lat="42.7237" lon="1.00491">
        <ele>2581</ele>
        <time>2010-01-01T01:10:31Z</time>
      </trkpt>
      <trkpt lat="42.72379" lon="1.00496">
        <ele>2579</ele>
        <time>2010-01-01T01:10:35Z</time>
      </trkpt>
      <trkpt lat="42.72388" lon="1.005">
        <ele>2578</ele>
        <time>2010-01-01T01:10:38Z</time>
      </trkpt>
      <trkpt lat="42.72397" lon="1.00501">
        <ele>2578</ele>
        <time>2010-01-01T01:10:42Z</time>
      </trkpt>
      <trkpt lat="42.72407" lon="1.00494">
        <ele>2578</ele>
        <time>2010-01-01T01:10:46Z</time>
      </trkpt>
      <trkpt lat="42.72415" lon="1.00489">
        <ele>2576</ele>
        <time>2010-01-01T01:10:50Z</time>
      </trkpt>
      <trkpt lat="42.72423" lon="1.00485">
        <ele>2573</ele>
        <time>2010-01-01T01:10:54Z</time>
      </trkpt>
      <trkpt lat="42.72433" lon="1.00481">
        <ele>2568</ele>
        <time>2010-01-01T01:10:58Z</time>
      </trkpt>
      <trkpt lat="42.7244" lon="1.00475">
        <ele>2563</ele>
        <time>2010-01-01T01:11:01Z</time>
      </trkpt>
      <trkpt lat="42.72446" lon="1.00466">
        <ele>2557</ele>
        <time>2010-01-01T01:11:05Z</time>
      </trkpt>
      <trkpt lat="42.72446" lon="1.00455">
        <ele>2554</ele>
        <time>2010-01-01T01:11:08Z</time>
      </trkpt>
      <trkpt lat="42.72455" lon="1.00451">
        <ele>2549</ele>
        <time>2010-01-01T01:11:12Z</time>
      </trkpt>
      <trkpt lat="42.7246" lon="1.00445">
        <ele>2545</ele>
        <time>2010-01-01T01:11:14Z</time>
      </trkpt>
      <trkpt lat="42.7247" lon="1.00444">
        <ele>2540</ele>
        <time>2010-01-01T01:11:18Z</time>
      </trkpt>
      <trkpt lat="42.72481" lon="1.00444">
        <ele>2535</ele>
        <time>2010-01-01T01:11:23Z</time>
      </trkpt>
      <trkpt lat="42.7249" lon="1.0044">
        <ele>2530</ele>
        <time>2010-01-01T01:11:27Z</time>
      </trkpt>
      <trkpt lat="42.72493" lon="1.00431">
        <ele>2527</ele>
        <time>2010-01-01T01:11:29Z</time>
      </trkpt>
      <trkpt lat="42.72503" lon="1.00433">
        <ele>2523</ele>
        <time>2010-01-01T01:11:33Z</time>
      </trkpt>
      <trkpt lat="42.72512" lon="1.00432">
        <ele>2519</ele>
        <time>2010-01-01T01:11:37Z</time>
      </trkpt>
      <trkpt lat="42.72523" lon="1.0043">
        <ele>2515</ele>
        <time>2010-01-01T01:11:41Z</time>
      </trkpt>
      <trkpt lat="42.72534" lon="1.00431">
        <ele>2512</ele>
        <time>2010-01-01T01:11:46Z</time>
      </trkpt>
      <trkpt lat="42.72544" lon="1.00434">
        <ele>2510</ele>
        <time>2010-01-01T01:11:50Z</time>
      </trkpt>
      <trkpt lat="42.72553" lon="1.00438">
        <ele>2508</ele>
        <time>2010-01-01T01:11:54Z</time>
      </trkpt>
      <trkpt lat="42.72562" lon="1.0044">
        <ele>2506</ele>
        <time>2010-01-01T01:11:57Z</time>
      </trkpt>
      <trkpt lat="42.72571" lon="1.00445">
        <ele>2505</ele>
        <time>2010-01-01T01:12:01Z</time>
      </trkpt>
      <trkpt lat="42.72579" lon="1.00452">
        <ele>2503</ele>
        <time>2010-01-01T01:12:05Z</time>
      </trkpt>
      <trkpt lat="42.72587" lon="1.00461">
        <ele>2501</ele>
        <time>2010-01-01T01:12:09Z</time>
      </trkpt>
      <trkpt lat="42.72597" lon="1.00467">
        <ele>2499</ele>
        <time>2010-01-01T01:12:13Z</time>
      </trkpt>
      <trkpt lat="42.72606" lon="1.0047">
        <ele>2497</ele>
        <time>2010-01-01T01:12:17Z</time>
      </trkpt>
      <trkpt lat="42.72616" lon="1.00473">
        <ele>2496</ele>
        <time>2010-01-01T01:12:21Z</time>
      </trkpt>
      <trkpt lat="42.72626" lon="1.00475">
        <ele>2494</ele>
        <time>2010-01-01T01:12:26Z</time>
      </trkpt>
      <trkpt lat="42.72635" lon="1.00483">
        <ele>2493</ele>
        <time>2010-01-01T01:12:30Z</time>
      </trkpt>
      <trkpt lat="42.72643" lon="1.00492">
        <ele>2493</ele>
        <time>2010-01-01T01:12:34Z</time>
      </trkpt>
      <trkpt lat="42.72652" lon="1.00499">
        <ele>2492</ele>
        <time>2010-01-01T01:12:38Z</time>
      </trkpt>
      <trkpt lat="42.7266" lon="1.00506">
        <ele>2491</ele>
        <time>2010-01-01T01:12:42Z</time>
      </trkpt>
      <trkpt lat="42.7267" lon="1.0051">
        <ele>2491</ele>
        <time>2010-01-01T01:12:46Z</time>
      </trkpt>
      <trkpt lat="42.72679" lon="1.00516">
        <ele>2492</ele>
        <time>2010-01-01T01:12:50Z</time>
      </trkpt>
      <trkpt lat="42.72689" lon="1.00522">
        <ele>2493</ele>
        <time>2010-01-01T01:12:54Z</time>
      </trkpt>
      <trkpt lat="42.727" lon="1.00528">
        <ele>2494</ele>
        <time>2010-01-01T01:12:59Z</time>
      </trkpt>
      <trkpt lat="42.72709" lon="1.00533">
        <ele>2493</ele>
        <time>2010-01-01T01:13:03Z</time>
      </trkpt>
      <trkpt lat="42.72719" lon="1.00536">
        <ele>2492</ele>
        <time>2010-01-01T01:13:07Z</time>
      </trkpt>
      <trkpt lat="42.72729" lon="1.00535">
        <ele>2491</ele>
        <time>2010-01-01T01:13:11Z</time>
      </trkpt>
      <trkpt lat="42.72738" lon="1.00536">
        <ele>2490</ele>
        <time>2010-01-01T01:13:15Z</time>
      </trkpt>
      <trkpt lat="42.72748" lon="1.00536">
        <ele>2489</ele>
        <time>2010-01-01T01:13:19Z</time>
      </trkpt>
      <trkpt lat="42.72757" lon="1.00536">
        <ele>2488</ele>
        <time>2010-01-01T01:13:22Z</time>
      </trkpt>
      <trkpt lat="42.72765" lon="1.00533">
        <ele>2488</ele>
        <time>2010-01-01T01:13:26Z</time>
      </trkpt>
      <trkpt lat="42.72774" lon="1.00532">
        <ele>2487</ele>
        <time>2010-01-01T01:13:29Z</time>
      </trkpt>
      <trkpt lat="42.72783" lon="1.00527">
        <ele>2485</ele>
        <time>2010-01-01T01:13:33Z</time>
      </trkpt>
      <trkpt lat="42.72791" lon="1.00522">
        <ele>2483</ele>
        <time>2010-01-01T01:13:37Z</time>
      </trkpt>
      <trkpt lat="42.728" lon="1.00517">
        <ele>2480</ele>
        <time>2010-01-01T01:13:41Z</time>
      </trkpt>
      <trkpt lat="42.72809" lon="1.00518">
        <ele>2477</ele>
        <time>2010-01-01T01:13:44Z</time>
      </trkpt>
      <trkpt lat="42.72818" lon="1.00513">
        <ele>2472</ele>
        <time>2010-01-01T01:13:48Z</time>
      </trkpt>
      <trkpt lat="42.72828" lon="1.00509">
        <ele>2466</ele>
        <time>2010-01-01T01:13:52Z</time>
      </trkpt>
      <trkpt lat="42.72836" lon="1.0051">
        <ele>2463</ele>
        <time>2010-01-01T01:13:56Z</time>
      </trkpt>
      <trkpt lat="42.72843" lon="1.00505">
        <ele>2459</ele>
        <time>2010-01-01T01:13:58Z</time>
      </trkpt>
      <trkpt lat="42.7285" lon="1.00497">
        <ele>2454</ele>
        <time>2010-01-01T01:14:02Z</time>
      </trkpt>
      <trkpt lat="42.7286" lon="1.00495">
        <ele>2449</ele>
        <time>2010-01-01T01:14:06Z</time>
      </trkpt>
      <trkpt lat="42.7287" lon="1.00497">
        <ele>2445</ele>
        <time>2010-01-01T01:14:10Z</time>
      </trkpt>
      <trkpt lat="42.7288" lon="1.00499">
        <ele>2441</ele>
        <time>2010-01-01T01:14:14Z</time>
      </trkpt>
      <trkpt lat="42.72891" lon="1.00499">
        <ele>2437</ele>
        <time>2010-01-01T01:14:19Z</time>
      </trkpt>
      <trkpt lat="42.72901" lon="1.00497">
        <ele>2434</ele>
        <time>2010-01-01T01:14:23Z</time>
      </trkpt>
      <trkpt lat="42.72912" lon="1.00494">
        <ele>2430</ele>
        <time>2010-01-01T01:14:27Z</time>
      </trkpt>
      <trkpt lat="42.7292" lon="1.00489">
        <ele>2427</ele>
        <time>2010-01-01T01:14:31Z</time>
      </trkpt>
      <trkpt lat="42.7293" lon="1.00487">
        <ele>2422</ele>
        <time>2010-01-01T01:14:35Z</time>
      </trkpt>
      <trkpt lat="42.72931" lon="1.00478">
        <ele>2422</ele>
        <time>2010-01-01T01:14:37Z</time>
      </trkpt>
      <trkpt lat="42.72936" lon="1.00469">
        <ele>2419</ele>
        <time>2010-01-01T01:14:41Z</time>
      </trkpt>
      <trkpt lat="42.7294" lon="1.0046">
        <ele>2416</ele>
        <time>2010-01-01T01:14:44Z</time>
      </trkpt>
      <trkpt lat="42.72948" lon="1.00461">
        <ele>2414</ele>
        <time>2010-01-01T01:14:47Z</time>
      </trkpt>
      <trkpt lat="42.72958" lon="1.00461">
        <ele>2412</ele>
        <time>2010-01-01T01:14:51Z</time>
      </trkpt>
      <trkpt lat="42.72968" lon="1.00462">
        <ele>2410</ele>
        <time>2010-01-01T01:14:55Z</time>
      </trkpt>
      <trkpt lat="42.72978" lon="1.00461">
        <ele>2406</ele>
        <time>2010-01-01T01:14:59Z</time>
      </trkpt>
      <trkpt lat="42.72988" lon="1.00458">
        <ele>2403</ele>
        <time>2010-01-01T01:15:03Z</time>
      </trkpt>
      <trkpt lat="42.72998" lon="1.00456">
        <ele>2399</ele>
        <time>2010-01-01T01:15:07Z</time>
      </trkpt>
      <trkpt lat="42.73008" lon="1.00452">
        <ele>2397</ele>
        <time>2010-01-01T01:15:12Z</time>
      </trkpt>
      <trkpt lat="42.73016" lon="1.00446">
        <ele>2396</ele>
        <time>2010-01-01T01:15:15Z</time>
      </trkpt>
      <trkpt lat="42.73024" lon="1.00442">
        <ele>2395</ele>
        <time>2010-01-01T01:15:19Z</time>
      </trkpt>
      <trkpt lat="42.73031" lon="1.00435">
        <ele>2395</ele>
        <time>2010-01-01T01:15:22Z</time>
      </trkpt>
      <trkpt lat="42.73039" lon="1.00429">
        <ele>2395</ele>
        <time>2010-01-01T01:15:26Z</time>
      </trkpt>
      <trkpt lat="42.73048" lon="1.00427">
        <ele>2396</ele>
        <time>2010-01-01T01:15:30Z</time>
      </trkpt>
      <trkpt lat="42.73056" lon="1.00424">
        <ele>2397</ele>
        <time>2010-01-01T01:15:33Z</time>
      </trkpt>
      <trkpt lat="42.73066" lon="1.0042">
        <ele>2399</ele>
        <time>2010-01-01T01:15:37Z</time>
      </trkpt>
      <trkpt lat="42.73075" lon="1.00419">
        <ele>2400</ele>
        <time>2010-01-01T01:15:40Z</time>
      </trkpt>
      <trkpt lat="42.73085" lon="1.00418">
        <ele>2402</ele>
        <time>2010-01-01T01:15:45Z</time>
      </trkpt>
      <trkpt lat="42.73095" lon="1.00415">
        <ele>2404</ele>
        <time>2010-01-01T01:15:49Z</time>
      </trkpt>
      <trkpt lat="42.73104" lon="1.00411">
        <ele>2405</ele>
        <time>2010-01-01T01:15:53Z</time>
      </trkpt>
      <trkpt lat="42.73113" lon="1.00408">
        <ele>2408</ele>
        <time>2010-01-01T01:15:56Z</time>
      </trkpt>
      <trkpt lat="42.73122" lon="1.00402">
        <ele>2410</ele>
        <time>2010-01-01T01:16:00Z</time>
      </trkpt>
      <trkpt lat="42.73131" lon="1.00398">
        <ele>2412</ele>
        <time>2010-01-01T01:16:04Z</time>
      </trkpt>
      <trkpt lat="42.7314" lon="1.00392">
        <ele>2415</ele>
        <time>2010-01-01T01:16:08Z</time>
      </trkpt>
      <trkpt lat="42.73147" lon="1.00384">
        <ele>2417</ele>
        <time>2010-01-01T01:16:12Z</time>
      </trkpt>
      <trkpt lat="42.73155" lon="1.00378">
        <ele>2418</ele>
        <time>2010-01-01T01:16:15Z</time>
      </trkpt>
      <trkpt lat="42.73163" lon="1.00371">
        <ele>2420</ele>
        <time>2010-01-01T01:16:19Z</time>
      </trkpt>
      <trkpt lat="42.7317" lon="1.00363">
        <ele>2422</ele>
        <time>2010-01-01T01:16:23Z</time>
      </trkpt>
      <trkpt lat="42.73178" lon="1.00355">
        <ele>2424</ele>
        <time>2010-01-01T01:16:27Z</time>
      </trkpt>
      <trkpt lat="42.73185" lon="1.00356">
        <ele>2425</ele>
        <time>2010-01-01T01:16:30Z</time>
      </trkpt>
      <trkpt lat="42.73194" lon="1.00351">
        <ele>2427</ele>
        <time>2010-01-01T01:16:33Z</time>
      </trkpt>
      <trkpt lat="42.73201" lon="1.00346">
        <ele>2430</ele>
        <time>2010-01-01T01:16:37Z</time>
      </trkpt>
      <trkpt lat="42.73212" lon="1.00344">
        <ele>2433</ele>
        <time>2010-01-01T01:16:41Z</time>
      </trkpt>
      <trkpt lat="42.73221" lon="1.00339">
        <ele>2437</ele>
        <time>2010-01-01T01:16:45Z</time>
      </trkpt>
      <trkpt lat="42.73229" lon="1.00335">
        <ele>2438</ele>
        <time>2010-01-01T01:16:48Z</time>
      </trkpt>
      <trkpt lat="42.73237" lon="1.00329">
        <ele>2439</ele>
        <time>2010-01-01T01:16:52Z</time>
      </trkpt>
      <trkpt lat="42.73244" lon="1.00323">
        <ele>2441</ele>
        <time>2010-01-01T01:16:55Z</time>
      </trkpt>
      <trkpt lat="42.73249" lon="1.00315">
        <ele>2443</ele>
        <time>2010-01-01T01:16:58Z</time>
      </trkpt>
      <trkpt lat="42.73257" lon="1.00309">
        <ele>2444</ele>
        <time>2010-01-01T01:17:02Z</time>
      </trkpt>
      <trkpt lat="42.73263" lon="1.00301">
        <ele>2446</ele>
        <time>2010-01-01T01:17:06Z</time>
      </trkpt>
      <trkpt lat="42.73271" lon="1.00294">
        <ele>2448</ele>
        <time>2010-01-01T01:17:09Z</time>
      </trkpt>
      <trkpt lat="42.73279" lon="1.00288">
        <ele>2451</ele>
        <time>2010-01-01T01:17:13Z</time>
      </trkpt>
      <trkpt lat="42.73288" lon="1.00283">
        <ele>2454</ele>
        <time>2010-01-01T01:17:17Z</time>
      </trkpt>
      <trkpt lat="42.73296" lon="1.00279">
        <ele>2458</ele>
        <time>2010-01-01T01:17:21Z</time>
      </trkpt>
      <trkpt lat="42.73305" lon="1.00272">
        <ele>2461</ele>
        <time>2010-01-01T01:17:25Z</time>
      </trkpt>
      <trkpt lat="42.73314" lon="1.00267">
        <ele>2463</ele>
        <time>2010-01-01T01:17:28Z</time>
      </trkpt>
      <trkpt lat="42.73323" lon="1.00265">
        <ele>2464</ele>
        <time>2010-01-01T01:17:32Z</time>
      </trkpt>
      <trkpt lat="42.73333" lon="1.00261">
        <ele>2465</ele>
        <time>2010-01-01T01:17:36Z</time>
      </trkpt>
      <trkpt lat="42.73343" lon="1.00257">
        <ele>2464</ele>
        <time>2010-01-01T01:17:40Z</time>
      </trkpt>
      <trkpt lat="42.73352" lon="1.00255">
        <ele>2463</ele>
        <time>2010-01-01T01:17:44Z</time>
      </trkpt>
      <trkpt lat="42.73359" lon="1.00262">
        <ele>2463</ele>
        <time>2010-01-01T01:17:47Z</time>
      </trkpt>
      <trkpt lat="42.73368" lon="1.00264">
        <ele>2464</ele>
        <time>2010-01-01T01:17:51Z</time>
      </trkpt>
      <trkpt lat="42.73378" lon="1.00269">
        <ele>2465</ele>
        <time>2010-01-01T01:17:55Z</time>
      </trkpt>
      <trkpt lat="42.73388" lon="1.00266">
        <ele>2465</ele>
        <time>2010-01-01T01:17:59Z</time>
      </trkpt>
      <trkpt lat="42.73396" lon="1.00261">
        <ele>2466</ele>
        <time>2010-01-01T01:18:03Z</time>
      </trkpt>
      <trkpt lat="42.73403" lon="1.00256">
        <ele>2468</ele>
        <time>2010-01-01T01:18:06Z</time>
      </trkpt>
      <trkpt lat="42.73413" lon="1.00257">
        <ele>2470</ele>
        <time>2010-01-01T01:18:10Z</time>
      </trkpt>
      <trkpt lat="42.73422" lon="1.00259">
        <ele>2473</ele>
        <time>2010-01-01T01:18:14Z</time>
      </trkpt>
      <trkpt lat="42.73432" lon="1.00257">
        <ele>2476</ele>
        <time>2010-01-01T01:18:18Z</time>
      </trkpt>
      <trkpt lat="42.73442" lon="1.00254">
        <ele>2479</ele>
        <time>2010-01-01T01:18:22Z</time>
      </trkpt>
      <trkpt lat="42.73453" lon="1.0025">
        <ele>2478</ele>
        <time>2010-01-01T01:18:26Z</time>
      </trkpt>
      <trkpt lat="42.73462" lon="1.00245">
        <ele>2477</ele>
        <time>2010-01-01T01:18:31Z</time>
      </trkpt>
      <trkpt lat="42.73471" lon="1.00238">
        <ele>2477</ele>
        <time>2010-01-01T01:18:34Z</time>
      </trkpt>
      <trkpt lat="42.73479" lon="1.00231">
        <ele>2477</ele>
        <time>2010-01-01T01:18:38Z</time>
      </trkpt>
      <trkpt lat="42.73486" lon="1.00223">
        <ele>2478</ele>
        <time>2010-01-01T01:18:42Z</time>
      </trkpt>
      <trkpt lat="42.73495" lon="1.00217">
        <ele>2478</ele>
        <time>2010-01-01T01:18:46Z</time>
      </trkpt>
      <trkpt lat="42.73505" lon="1.00209">
        <ele>2479</ele>
        <time>2010-01-01T01:18:50Z</time>
      </trkpt>
      <trkpt lat="42.73513" lon="1.00202">
        <ele>2481</ele>
        <time>2010-01-01T01:18:54Z</time>
      </trkpt>
      <trkpt lat="42.73522" lon="1.00195">
        <ele>2483</ele>
        <time>2010-01-01T01:18:59Z</time>
      </trkpt>
      <trkpt lat="42.7353" lon="1.00187">
        <ele>2484</ele>
        <time>2010-01-01T01:19:03Z</time>
      </trkpt>
      <trkpt lat="42.73537" lon="1.00178">
        <ele>2484</ele>
        <time>2010-01-01T01:19:06Z</time>
      </trkpt>
      <trkpt lat="42.73544" lon="1.00169">
        <ele>2485</ele>
        <time>2010-01-01T01:19:10Z</time>
      </trkpt>
      <trkpt lat="42.73552" lon="1.00162">
        <ele>2486</ele>
        <time>2010-01-01T01:19:14Z</time>
      </trkpt>
      <trkpt lat="42.73558" lon="1.00153">
        <ele>2486</ele>
        <time>2010-01-01T01:19:18Z</time>
      </trkpt>
      <trkpt lat="42.73567" lon="1.00145">
        <ele>2486</ele>
        <time>2010-01-01T01:19:22Z</time>
      </trkpt>
      <trkpt lat="42.73574" lon="1.00136">
        <ele>2486</ele>
        <time>2010-01-01T01:19:26Z</time>
      </trkpt>
      <trkpt lat="42.73583" lon="1.00127">
        <ele>2486</ele>
        <time>2010-01-01T01:19:30Z</time>
      </trkpt>
      <trkpt lat="42.7359" lon="1.00119">
        <ele>2487</ele>
        <time>2010-01-01T01:19:34Z</time>
      </trkpt>
      <trkpt lat="42.73596" lon="1.0011">
        <ele>2487</ele>
        <time>2010-01-01T01:19:37Z</time>
      </trkpt>
      <trkpt lat="42.73602" lon="1.001">
        <ele>2487</ele>
        <time>2010-01-01T01:19:41Z</time>
      </trkpt>
      <trkpt lat="42.73607" lon="1.0009">
        <ele>2487</ele>
        <time>2010-01-01T01:19:45Z</time>
      </trkpt>
      <trkpt lat="42.73612" lon="1.00079">
        <ele>2486</ele>
        <time>2010-01-01T01:19:49Z</time>
      </trkpt>
      <trkpt lat="42.73617" lon="1.00068">
        <ele>2486</ele>
        <time>2010-01-01T01:19:52Z</time>
      </trkpt>
      <trkpt lat="42.73622" lon="1.00057">
        <ele>2485</ele>
        <time>2010-01-01T01:19:56Z</time>
      </trkpt>
      <trkpt lat="42.73627" lon="1.00046">
        <ele>2485</ele>
        <time>2010-01-01T01:20:00Z</time>
      </trkpt>
      <trkpt lat="42.73631" lon="1.00035">
        <ele>2486</ele>
        <time>2010-01-01T01:20:04Z</time>
      </trkpt>
      <trkpt lat="42.73637" lon="1.00024">
        <ele>2485</ele>
        <time>2010-01-01T01:20:08Z</time>
      </trkpt>
      <trkpt lat="42.73642" lon="1.00012">
        <ele>2485</ele>
        <time>2010-01-01T01:20:12Z</time>
      </trkpt>
      <trkpt lat="42.73647" lon="1.00001">
        <ele>2485</ele>
        <time>2010-01-01T01:20:15Z</time>
      </trkpt>
      <trkpt lat="42.73651" lon="0.99989">
        <ele>2485</ele>
        <time>2010-01-01T01:20:19Z</time>
      </trkpt>
      <trkpt lat="42.73655" lon="0.99977">
        <ele>2486</ele>
        <time>2010-01-01T01:20:23Z</time>
      </trkpt>
      <trkpt lat="42.73659" lon="0.99964">
        <ele>2487</ele>
        <time>2010-01-01T01:20:27Z</time>
      </trkpt>
      <trkpt lat="42.73663" lon="0.99949">
        <ele>2487</ele>
        <time>2010-01-01T01:20:32Z</time>
      </trkpt>
      <trkpt lat="42.73667" lon="0.99937">
        <ele>2487</ele>
        <time>2010-01-01T01:20:36Z</time>
      </trkpt>
      <trkpt lat="42.73671" lon="0.99924">
        <ele>2487</ele>
        <time>2010-01-01T01:20:40Z</time>
      </trkpt>
      <trkpt lat="42.73675" lon="0.99912">
        <ele>2487</ele>
        <time>2010-01-01T01:20:44Z</time>
      </trkpt>
      <trkpt lat="42.7368" lon="0.99899">
        <ele>2487</ele>
        <time>2010-01-01T01:20:48Z</time>
      </trkpt>
      <trkpt lat="42.73684" lon="0.99887">
        <ele>2487</ele>
        <time>2010-01-01T01:20:52Z</time>
      </trkpt>
      <trkpt lat="42.73689" lon="0.99875">
        <ele>2487</ele>
        <time>2010-01-01T01:20:56Z</time>
      </trkpt>
      <trkpt lat="42.73694" lon="0.99863">
        <ele>2487</ele>
        <time>2010-01-01T01:21:00Z</time>
      </trkpt>
      <trkpt lat="42.73698" lon="0.99851">
        <ele>2486</ele>
        <time>2010-01-01T01:21:04Z</time>
      </trkpt>
      <trkpt lat="42.73703" lon="0.9984">
        <ele>2484</ele>
        <time>2010-01-01T01:21:08Z</time>
      </trkpt>
      <trkpt lat="42.73708" lon="0.99828">
        <ele>2482</ele>
        <time>2010-01-01T01:21:12Z</time>
      </trkpt>
      <trkpt lat="42.73714" lon="0.99818">
        <ele>2479</ele>
        <time>2010-01-01T01:21:16Z</time>
      </trkpt>
      <trkpt lat="42.73719" lon="0.99807">
        <ele>2478</ele>
        <time>2010-01-01T01:21:19Z</time>
      </trkpt>
      <trkpt lat="42.73725" lon="0.99794">
        <ele>2475</ele>
        <time>2010-01-01T01:21:24Z</time>
      </trkpt>
      <trkpt lat="42.7373" lon="0.99781">
        <ele>2473</ele>
        <time>2010-01-01T01:21:28Z</time>
      </trkpt>
      <trkpt lat="42.73734" lon="0.99768">
        <ele>2473</ele>
        <time>2010-01-01T01:21:32Z</time>
      </trkpt>
      <trkpt lat="42.73739" lon="0.99756">
        <ele>2473</ele>
        <time>2010-01-01T01:21:37Z</time>
      </trkpt>
      <trkpt lat="42.73744" lon="0.99744">
        <ele>2474</ele>
        <time>2010-01-01T01:21:41Z</time>
      </trkpt>
      <trkpt lat="42.7375" lon="0.99731">
        <ele>2476</ele>
        <time>2010-01-01T01:21:45Z</time>
      </trkpt>
      <trkpt lat="42.73754" lon="0.99718">
        <ele>2478</ele>
        <time>2010-01-01T01:21:49Z</time>
      </trkpt>
      <trkpt lat="42.73759" lon="0.99706">
        <ele>2481</ele>
        <time>2010-01-01T01:21:53Z</time>
      </trkpt>
      <trkpt lat="42.73765" lon="0.99695">
        <ele>2483</ele>
        <time>2010-01-01T01:21:57Z</time>
      </trkpt>
      <trkpt lat="42.73771" lon="0.99684">
        <ele>2486</ele>
        <time>2010-01-01T01:22:01Z</time>
      </trkpt>
      <trkpt lat="42.73779" lon="0.99675">
        <ele>2489</ele>
        <time>2010-01-01T01:22:05Z</time>
      </trkpt>
      <trkpt lat="42.73786" lon="0.99667">
        <ele>2490</ele>
        <time>2010-01-01T01:22:09Z</time>
      </trkpt>
      <trkpt lat="42.73794" lon="0.99657">
        <ele>2491</ele>
        <time>2010-01-01T01:22:13Z</time>
      </trkpt>
      <trkpt lat="42.73802" lon="0.99649">
        <ele>2492</ele>
        <time>2010-01-01T01:22:17Z</time>
      </trkpt>
      <trkpt lat="42.73811" lon="0.99642">
        <ele>2493</ele>
        <time>2010-01-01T01:22:21Z</time>
      </trkpt>
      <trkpt lat="42.7382" lon="0.99637">
        <ele>2493</ele>
        <time>2010-01-01T01:22:26Z</time>
      </trkpt>
      <trkpt lat="42.73825" lon="0.99641">
        <ele>2491</ele>
        <time>2010-01-01T01:22:28Z</time>
      </trkpt>
      <trkpt lat="42.73828" lon="0.99631">
        <ele>2494</ele>
        <time>2010-01-01T01:22:31Z</time>
      </trkpt>
      <trkpt lat="42.73827" lon="0.99621">
        <ele>2496</ele>
        <time>2010-01-01T01:22:34Z</time>
      </trkpt>
      <trkpt lat="42.73834" lon="0.99614">
        <ele>2498</ele>
        <time>2010-01-01T01:22:37Z</time>
      </trkpt>
      <trkpt lat="42.73842" lon="0.99611">
        <ele>2498</ele>
        <time>2010-01-01T01:22:41Z</time>
      </trkpt>
      <trkpt lat="42.73853" lon="0.99611">
        <ele>2497</ele>
        <time>2010-01-01T01:22:45Z</time>
      </trkpt>
      <trkpt lat="42.7386" lon="0.99619">
        <ele>2495</ele>
        <time>2010-01-01T01:22:49Z</time>
      </trkpt>
      <trkpt lat="42.73869" lon="0.99623">
        <ele>2496</ele>
        <time>2010-01-01T01:22:53Z</time>
      </trkpt>
      <trkpt lat="42.73878" lon="0.99628">
        <ele>2496</ele>
        <time>2010-01-01T01:22:57Z</time>
      </trkpt>
      <trkpt lat="42.73887" lon="0.99631">
        <ele>2497</ele>
        <time>2010-01-01T01:23:00Z</time>
      </trkpt>
      <trkpt lat="42.73895" lon="0.99631">
        <ele>2497</ele>
        <time>2010-01-01T01:23:04Z</time>
      </trkpt>
      <trkpt lat="42.73905" lon="0.99634">
        <ele>2497</ele>
        <time>2010-01-01T01:23:07Z</time>
      </trkpt>
      <trkpt lat="42.73913" lon="0.99641">
        <ele>2496</ele>
        <time>2010-01-01T01:23:11Z</time>
      </trkpt>
      <trkpt lat="42.73922" lon="0.99645">
        <ele>2496</ele>
        <time>2010-01-01T01:23:15Z</time>
      </trkpt>
      <trkpt lat="42.73931" lon="0.99651">
        <ele>2495</ele>
        <time>2010-01-01T01:23:19Z</time>
      </trkpt>
      <trkpt lat="42.73937" lon="0.9966">
        <ele>2495</ele>
        <time>2010-01-01T01:23:23Z</time>
      </trkpt>
      <trkpt lat="42.73945" lon="0.99669">
        <ele>2495</ele>
        <time>2010-01-01T01:23:27Z</time>
      </trkpt>
      <trkpt lat="42.73953" lon="0.99678">
        <ele>2494</ele>
        <time>2010-01-01T01:23:31Z</time>
      </trkpt>
      <trkpt lat="42.73962" lon="0.99686">
        <ele>2494</ele>
        <time>2010-01-01T01:23:35Z</time>
      </trkpt>
      <trkpt lat="42.73972" lon="0.99691">
        <ele>2495</ele>
        <time>2010-01-01T01:23:40Z</time>
      </trkpt>
      <trkpt lat="42.73982" lon="0.99693">
        <ele>2495</ele>
        <time>2010-01-01T01:23:44Z</time>
      </trkpt>
      <trkpt lat="42.7399" lon="0.99699">
        <ele>2496</ele>
        <time>2010-01-01T01:23:47Z</time>
      </trkpt>
      <trkpt lat="42.73996" lon="0.99708">
        <ele>2496</ele>
        <time>2010-01-01T01:23:51Z</time>
      </trkpt>
      <trkpt lat="42.74003" lon="0.99717">
        <ele>2498</ele>
        <time>2010-01-01T01:23:55Z</time>
      </trkpt>
      <trkpt lat="42.74012" lon="0.99723">
        <ele>2498</ele>
        <time>2010-01-01T01:23:59Z</time>
      </trkpt>
      <trkpt lat="42.7402" lon="0.99729">
        <ele>2499</ele>
        <time>2010-01-01T01:24:03Z</time>
      </trkpt>
      <trkpt lat="42.74025" lon="0.9974">
        <ele>2499</ele>
        <time>2010-01-01T01:24:06Z</time>
      </trkpt>
      <trkpt lat="42.74032" lon="0.99751">
        <ele>2500</ele>
        <time>2010-01-01T01:24:11Z</time>
      </trkpt>
      <trkpt lat="42.74038" lon="0.99762">
        <ele>2498</ele>
        <time>2010-01-01T01:24:15Z</time>
      </trkpt>
      <trkpt lat="42.74045" lon="0.99773">
        <ele>2498</ele>
        <time>2010-01-01T01:24:19Z</time>
      </trkpt>
      <trkpt lat="42.74051" lon="0.99784">
        <ele>2497</ele>
        <time>2010-01-01T01:24:23Z</time>
      </trkpt>
      <trkpt lat="42.74059" lon="0.99793">
        <ele>2497</ele>
        <time>2010-01-01T01:24:27Z</time>
      </trkpt>
      <trkpt lat="42.74064" lon="0.99804">
        <ele>2496</ele>
        <time>2010-01-01T01:24:31Z</time>
      </trkpt>
      <trkpt lat="42.74071" lon="0.99813">
        <ele>2494</ele>
        <time>2010-01-01T01:24:35Z</time>
      </trkpt>
      <trkpt lat="42.74076" lon="0.99821">
        <ele>2493</ele>
        <time>2010-01-01T01:24:38Z</time>
      </trkpt>
      <trkpt lat="42.74082" lon="0.99831">
        <ele>2492</ele>
        <time>2010-01-01T01:24:42Z</time>
      </trkpt>
      <trkpt lat="42.74088" lon="0.99843">
        <ele>2488</ele>
        <time>2010-01-01T01:24:46Z</time>
      </trkpt>
      <trkpt lat="42.74092" lon="0.99853">
        <ele>2484</ele>
        <time>2010-01-01T01:24:49Z</time>
      </trkpt>
      <trkpt lat="42.74102" lon="0.9986">
        <ele>2483</ele>
        <time>2010-01-01T01:24:54Z</time>
      </trkpt>
      <trkpt lat="42.74107" lon="0.99869">
        <ele>2480</ele>
        <time>2010-01-01T01:24:57Z</time>
      </trkpt>
      <trkpt lat="42.7411" lon="0.99881">
        <ele>2476</ele>
        <time>2010-01-01T01:25:01Z</time>
      </trkpt>
      <trkpt lat="42.74107" lon="0.99891">
        <ele>2472</ele>
        <time>2010-01-01T01:25:04Z</time>
      </trkpt>
      <trkpt lat="42.74105" lon="0.99901">
        <ele>2468</ele>
        <time>2010-01-01T01:25:07Z</time>
      </trkpt>
      <trkpt lat="42.74103" lon="0.99911">
        <ele>2464</ele>
        <time>2010-01-01T01:25:10Z</time>
      </trkpt>
      <trkpt lat="42.74103" lon="0.99921">
        <ele>2460</ele>
        <time>2010-01-01T01:25:13Z</time>
      </trkpt>
      <trkpt lat="42.74107" lon="0.99932">
        <ele>2455</ele>
        <time>2010-01-01T01:25:17Z</time>
      </trkpt>
      <trkpt lat="42.74106" lon="0.99943">
        <ele>2450</ele>
        <time>2010-01-01T01:25:20Z</time>
      </trkpt>
      <trkpt lat="42.7411" lon="0.99955">
        <ele>2445</ele>
        <time>2010-01-01T01:25:24Z</time>
      </trkpt>
      <trkpt lat="42.74117" lon="0.99963">
        <ele>2441</ele>
        <time>2010-01-01T01:25:28Z</time>
      </trkpt>
      <trkpt lat="42.74122" lon="0.99974">
        <ele>2437</ele>
        <time>2010-01-01T01:25:31Z</time>
      </trkpt>
      <trkpt lat="42.74126" lon="0.99985">
        <ele>2433</ele>
        <time>2010-01-01T01:25:35Z</time>
      </trkpt>
      <trkpt lat="42.74129" lon="0.99996">
        <ele>2430</ele>
        <time>2010-01-01T01:25:39Z</time>
      </trkpt>
      <trkpt lat="42.74134" lon="1.00009">
        <ele>2426</ele>
        <time>2010-01-01T01:25:43Z</time>
      </trkpt>
      <trkpt lat="42.74132" lon="1.00019">
        <ele>2423</ele>
        <time>2010-01-01T01:25:46Z</time>
      </trkpt>
      <trkpt lat="42.74127" lon="1.00028">
        <ele>2420</ele>
        <time>2010-01-01T01:25:49Z</time>
      </trkpt>
      <trkpt lat="42.74129" lon="1.00041">
        <ele>2417</ele>
        <time>2010-01-01T01:25:53Z</time>
      </trkpt>
      <trkpt lat="42.74135" lon="1.00052">
        <ele>2414</ele>
        <time>2010-01-01T01:25:57Z</time>
      </trkpt>
      <trkpt lat="42.74137" lon="1.00065">
        <ele>2410</ele>
        <time>2010-01-01T01:26:01Z</time>
      </trkpt>
      <trkpt lat="42.74141" lon="1.00076">
        <ele>2407</ele>
        <time>2010-01-01T01:26:05Z</time>
      </trkpt>
      <trkpt lat="42.74141" lon="1.00088">
        <ele>2404</ele>
        <time>2010-01-01T01:26:08Z</time>
      </trkpt>
      <trkpt lat="42.74145" lon="1.00099">
        <ele>2401</ele>
        <time>2010-01-01T01:26:12Z</time>
      </trkpt>
      <trkpt lat="42.74146" lon="1.0011">
        <ele>2398</ele>
        <time>2010-01-01T01:26:15Z</time>
      </trkpt>
      <trkpt lat="42.74148" lon="1.00123">
        <ele>2394</ele>
        <time>2010-01-01T01:26:19Z</time>
      </trkpt>
      <trkpt lat="42.74152" lon="1.00137">
        <ele>2390</ele>
        <time>2010-01-01T01:26:23Z</time>
      </trkpt>
      <trkpt lat="42.74153" lon="1.00151">
        <ele>2386</ele>
        <time>2010-01-01T01:26:27Z</time>
      </trkpt>
      <trkpt lat="42.74153" lon="1.00166">
        <ele>2382</ele>
        <time>2010-01-01T01:26:32Z</time>
      </trkpt>
      <trkpt lat="42.74154" lon="1.00179">
        <ele>2379</ele>
        <time>2010-01-01T01:26:36Z</time>
      </trkpt>
      <trkpt lat="42.74156" lon="1.00192">
        <ele>2376</ele>
        <time>2010-01-01T01:26:40Z</time>
      </trkpt>
      <trkpt lat="42.74158" lon="1.00205">
        <ele>2373</ele>
        <time>2010-01-01T01:26:43Z</time>
      </trkpt>
      <trkpt lat="42.74161" lon="1.00217">
        <ele>2371</ele>
        <time>2010-01-01T01:26:47Z</time>
      </trkpt>
      <trkpt lat="42.74163" lon="1.0023">
        <ele>2369</ele>
        <time>2010-01-01T01:26:51Z</time>
      </trkpt>
      <trkpt lat="42.74165" lon="1.00242">
        <ele>2367</ele>
        <time>2010-01-01T01:26:55Z</time>
      </trkpt>
      <trkpt lat="42.74168" lon="1.00254">
        <ele>2366</ele>
        <time>2010-01-01T01:26:58Z</time>
      </trkpt>
      <trkpt lat="42.74167" lon="1.00269">
        <ele>2362</ele>
        <time>2010-01-01T01:27:03Z</time>
      </trkpt>
      <trkpt lat="42.74169" lon="1.00284">
        <ele>2359</ele>
        <time>2010-01-01T01:27:07Z</time>
      </trkpt>
      <trkpt lat="42.7417" lon="1.00297">
        <ele>2355</ele>
        <time>2010-01-01T01:27:11Z</time>
      </trkpt>
      <trkpt lat="42.74168" lon="1.00309">
        <ele>2351</ele>
        <time>2010-01-01T01:27:15Z</time>
      </trkpt>
      <trkpt lat="42.74168" lon="1.00321">
        <ele>2347</ele>
        <time>2010-01-01T01:27:18Z</time>
      </trkpt>
      <trkpt lat="42.7417" lon="1.00334">
        <ele>2343</ele>
        <time>2010-01-01T01:27:22Z</time>
      </trkpt>
      <trkpt lat="42.7417" lon="1.00348">
        <ele>2339</ele>
        <time>2010-01-01T01:27:26Z</time>
      </trkpt>
      <trkpt lat="42.7417" lon="1.00361">
        <ele>2335</ele>
        <time>2010-01-01T01:27:30Z</time>
      </trkpt>
      <trkpt lat="42.74165" lon="1.0037">
        <ele>2332</ele>
        <time>2010-01-01T01:27:34Z</time>
      </trkpt>
      <trkpt lat="42.7416" lon="1.00382">
        <ele>2328</ele>
        <time>2010-01-01T01:27:37Z</time>
      </trkpt>
      <trkpt lat="42.7415" lon="1.00386">
        <ele>2326</ele>
        <time>2010-01-01T01:27:42Z</time>
      </trkpt>
      <trkpt lat="42.74142" lon="1.00393">
        <ele>2323</ele>
        <time>2010-01-01T01:27:45Z</time>
      </trkpt>
      <trkpt lat="42.74135" lon="1.00399">
        <ele>2320</ele>
        <time>2010-01-01T01:27:49Z</time>
      </trkpt>
      <trkpt lat="42.74125" lon="1.004">
        <ele>2316</ele>
        <time>2010-01-01T01:27:53Z</time>
      </trkpt>
      <trkpt lat="42.74113" lon="1.00398">
        <ele>2313</ele>
        <time>2010-01-01T01:27:58Z</time>
      </trkpt>
      <trkpt lat="42.74104" lon="1.00396">
        <ele>2311</ele>
        <time>2010-01-01T01:28:01Z</time>
      </trkpt>
      <trkpt lat="42.74094" lon="1.00396">
        <ele>2308</ele>
        <time>2010-01-01T01:28:05Z</time>
      </trkpt>
      <trkpt lat="42.74084" lon="1.00394">
        <ele>2306</ele>
        <time>2010-01-01T01:28:10Z</time>
      </trkpt>
      <trkpt lat="42.74074" lon="1.00393">
        <ele>2305</ele>
        <time>2010-01-01T01:28:13Z</time>
      </trkpt>
      <trkpt lat="42.74065" lon="1.00391">
        <ele>2305</ele>
        <time>2010-01-01T01:28:17Z</time>
      </trkpt>
      <trkpt lat="42.74057" lon="1.00385">
        <ele>2305</ele>
        <time>2010-01-01T01:28:21Z</time>
      </trkpt>
      <trkpt lat="42.74048" lon="1.00389">
        <ele>2305</ele>
        <time>2010-01-01T01:28:24Z</time>
      </trkpt>
      <trkpt lat="42.7404" lon="1.00393">
        <ele>2305</ele>
        <time>2010-01-01T01:28:28Z</time>
      </trkpt>
      <trkpt lat="42.74035" lon="1.00404">
        <ele>2304</ele>
        <time>2010-01-01T01:28:32Z</time>
      </trkpt>
      <trkpt lat="42.74028" lon="1.00414">
        <ele>2303</ele>
        <time>2010-01-01T01:28:36Z</time>
      </trkpt>
      <trkpt lat="42.74018" lon="1.00419">
        <ele>2302</ele>
        <time>2010-01-01T01:28:40Z</time>
      </trkpt>
      <trkpt lat="42.7401" lon="1.00426">
        <ele>2301</ele>
        <time>2010-01-01T01:28:44Z</time>
      </trkpt>
      <trkpt lat="42.74002" lon="1.0043">
        <ele>2300</ele>
        <time>2010-01-01T01:28:47Z</time>
      </trkpt>
      <trkpt lat="42.73997" lon="1.00441">
        <ele>2296</ele>
        <time>2010-01-01T01:28:51Z</time>
      </trkpt>
      <trkpt lat="42.73996" lon="1.00454">
        <ele>2293</ele>
        <time>2010-01-01T01:28:55Z</time>
      </trkpt>
      <trkpt lat="42.73991" lon="1.00464">
        <ele>2290</ele>
        <time>2010-01-01T01:28:58Z</time>
      </trkpt>
      <trkpt lat="42.73986" lon="1.00476">
        <ele>2287</ele>
        <time>2010-01-01T01:29:02Z</time>
      </trkpt>
      <trkpt lat="42.73983" lon="1.00488">
        <ele>2285</ele>
        <time>2010-01-01T01:29:06Z</time>
      </trkpt>
      <trkpt lat="42.73981" lon="1.00501">
        <ele>2282</ele>
        <time>2010-01-01T01:29:10Z</time>
      </trkpt>
      <trkpt lat="42.73977" lon="1.00511">
        <ele>2278</ele>
        <time>2010-01-01T01:29:13Z</time>
      </trkpt>
      <trkpt lat="42.73976" lon="1.00524">
        <ele>2273</ele>
        <time>2010-01-01T01:29:17Z</time>
      </trkpt>
      <trkpt lat="42.73975" lon="1.00536">
        <ele>2271</ele>
        <time>2010-01-01T01:29:21Z</time>
      </trkpt>
      <trkpt lat="42.73977" lon="1.00551">
        <ele>2268</ele>
        <time>2010-01-01T01:29:25Z</time>
      </trkpt>
      <trkpt lat="42.73976" lon="1.00566">
        <ele>2265</ele>
        <time>2010-01-01T01:29:30Z</time>
      </trkpt>
      <trkpt lat="42.73972" lon="1.00578">
        <ele>2262</ele>
        <time>2010-01-01T01:29:33Z</time>
      </trkpt>
      <trkpt lat="42.73966" lon="1.00589">
        <ele>2260</ele>
        <time>2010-01-01T01:29:37Z</time>
      </trkpt>
      <trkpt lat="42.73959" lon="1.00594">
        <ele>2259</ele>
        <time>2010-01-01T01:29:41Z</time>
      </trkpt>
      <trkpt lat="42.7395" lon="1.0061">
        <ele>2256</ele>
        <time>2010-01-01T01:29:46Z</time>
      </trkpt>
      <trkpt lat="42.73946" lon="1.00625">
        <ele>2253</ele>
        <time>2010-01-01T01:29:51Z</time>
      </trkpt>
      <trkpt lat="42.73944" lon="1.0064">
        <ele>2251</ele>
        <time>2010-01-01T01:29:56Z</time>
      </trkpt>
      <trkpt lat="42.73942" lon="1.00656">
        <ele>2250</ele>
        <time>2010-01-01T01:30:00Z</time>
      </trkpt>
      <trkpt lat="42.73942" lon="1.00671">
        <ele>2249</ele>
        <time>2010-01-01T01:30:05Z</time>
      </trkpt>
      <trkpt lat="42.73938" lon="1.00683">
        <ele>2250</ele>
        <time>2010-01-01T01:30:09Z</time>
      </trkpt>
      <trkpt lat="42.73938" lon="1.00698">
        <ele>2248</ele>
        <time>2010-01-01T01:30:13Z</time>
      </trkpt>
      <trkpt lat="42.73938" lon="1.0071">
        <ele>2246</ele>
        <time>2010-01-01T01:30:17Z</time>
      </trkpt>
      <trkpt lat="42.73937" lon="1.00724">
        <ele>2245</ele>
        <time>2010-01-01T01:30:21Z</time>
      </trkpt>
      <trkpt lat="42.73931" lon="1.00735">
        <ele>2246</ele>
        <time>2010-01-01T01:30:25Z</time>
      </trkpt>
      <trkpt lat="42.73933" lon="1.00749">
        <ele>2243</ele>
        <time>2010-01-01T01:30:29Z</time>
      </trkpt>
      <trkpt lat="42.73939" lon="1.00761">
        <ele>2241</ele>
        <time>2010-01-01T01:30:33Z</time>
      </trkpt>
      <trkpt lat="42.73946" lon="1.00771">
        <ele>2238</ele>
        <time>2010-01-01T01:30:37Z</time>
      </trkpt>
      <trkpt lat="42.73954" lon="1.00778">
        <ele>2237</ele>
        <time>2010-01-01T01:30:41Z</time>
      </trkpt>
      <trkpt lat="42.73961" lon="1.00789">
        <ele>2236</ele>
        <time>2010-01-01T01:30:45Z</time>
      </trkpt>
      <trkpt lat="42.73968" lon="1.00799">
        <ele>2235</ele>
        <time>2010-01-01T01:30:49Z</time>
      </trkpt>
      <trkpt lat="42.73975" lon="1.00807">
        <ele>2234</ele>
        <time>2010-01-01T01:30:53Z</time>
      </trkpt>
      <trkpt lat="42.73978" lon="1.00819">
        <ele>2234</ele>
        <time>2010-01-01T01:30:57Z</time>
      </trkpt>
      <trkpt lat="42.73982" lon="1.00833">
        <ele>2233</ele>
        <time>2010-01-01T01:31:01Z</time>
      </trkpt>
      <trkpt lat="42.73985" lon="1.00845">
        <ele>2233</ele>
        <time>2010-01-01T01:31:05Z</time>
      </trkpt>
      <trkpt lat="42.73991" lon="1.00856">
        <ele>2232</ele>
        <time>2010-01-01T01:31:09Z</time>
      </trkpt>
      <trkpt lat="42.73995" lon="1.00869">
        <ele>2232</ele>
        <time>2010-01-01T01:31:13Z</time>
      </trkpt>
      <trkpt lat="42.73998" lon="1.00881">
        <ele>2232</ele>
        <time>2010-01-01T01:31:17Z</time>
      </trkpt>
      <trkpt lat="42.73998" lon="1.00894">
        <ele>2232</ele>
        <time>2010-01-01T01:31:21Z</time>
      </trkpt>
      <trkpt lat="42.74001" lon="1.00908">
        <ele>2233</ele>
        <time>2010-01-01T01:31:25Z</time>
      </trkpt>
      <trkpt lat="42.74005" lon="1.00921">
        <ele>2232</ele>
        <time>2010-01-01T01:31:29Z</time>
      </trkpt>
      <trkpt lat="42.74017" lon="1.00923">
        <ele>2227</ele>
        <time>2010-01-01T01:31:34Z</time>
      </trkpt>
      <trkpt lat="42.74027" lon="1.00928">
        <ele>2223</ele>
        <time>2010-01-01T01:31:38Z</time>
      </trkpt>
      <trkpt lat="42.74035" lon="1.00937">
        <ele>2222</ele>
        <time>2010-01-01T01:31:42Z</time>
      </trkpt>
      <trkpt lat="42.74038" lon="1.0095">
        <ele>2222</ele>
        <time>2010-01-01T01:31:46Z</time>
      </trkpt>
      <trkpt lat="42.74042" lon="1.00962">
        <ele>2223</ele>
        <time>2010-01-01T01:31:50Z</time>
      </trkpt>
      <trkpt lat="42.74049" lon="1.00972">
        <ele>2223</ele>
        <time>2010-01-01T01:31:54Z</time>
      </trkpt>
      <trkpt lat="42.74056" lon="1.00982">
        <ele>2222</ele>
        <time>2010-01-01T01:31:58Z</time>
      </trkpt>
      <trkpt lat="42.74063" lon="1.00993">
        <ele>2222</ele>
        <time>2010-01-01T01:32:03Z</time>
      </trkpt>
      <trkpt lat="42.74069" lon="1.01004">
        <ele>2222</ele>
        <time>2010-01-01T01:32:07Z</time>
      </trkpt>
      <trkpt lat="42.74075" lon="1.01013">
        <ele>2220</ele>
        <time>2010-01-01T01:32:10Z</time>
      </trkpt>
      <trkpt lat="42.74082" lon="1.01024">
        <ele>2219</ele>
        <time>2010-01-01T01:32:15Z</time>
      </trkpt>
      <trkpt lat="42.74087" lon="1.01035">
        <ele>2218</ele>
        <time>2010-01-01T01:32:18Z</time>
      </trkpt>
      <trkpt lat="42.74097" lon="1.01038">
        <ele>2216</ele>
        <time>2010-01-01T01:32:23Z</time>
      </trkpt>
      <trkpt lat="42.74108" lon="1.0104">
        <ele>2214</ele>
        <time>2010-01-01T01:32:27Z</time>
      </trkpt>
      <trkpt lat="42.74118" lon="1.01044">
        <ele>2213</ele>
        <time>2010-01-01T01:32:31Z</time>
      </trkpt>
      <trkpt lat="42.74128" lon="1.01043">
        <ele>2212</ele>
        <time>2010-01-01T01:32:35Z</time>
      </trkpt>
      <trkpt lat="42.74138" lon="1.01041">
        <ele>2210</ele>
        <time>2010-01-01T01:32:39Z</time>
      </trkpt>
      <trkpt lat="42.74144" lon="1.01051">
        <ele>2210</ele>
        <time>2010-01-01T01:32:43Z</time>
      </trkpt>
      <trkpt lat="42.7415" lon="1.01061">
        <ele>2211</ele>
        <time>2010-01-01T01:32:46Z</time>
      </trkpt>
      <trkpt lat="42.74158" lon="1.01067">
        <ele>2210</ele>
        <time>2010-01-01T01:32:50Z</time>
      </trkpt>
      <trkpt lat="42.74168" lon="1.01071">
        <ele>2209</ele>
        <time>2010-01-01T01:32:54Z</time>
      </trkpt>
      <trkpt lat="42.74177" lon="1.01073">
        <ele>2206</ele>
        <time>2010-01-01T01:32:58Z</time>
      </trkpt>
      <trkpt lat="42.74185" lon="1.01067">
        <ele>2202</ele>
        <time>2010-01-01T01:33:02Z</time>
      </trkpt>
      <trkpt lat="42.74193" lon="1.01059">
        <ele>2198</ele>
        <time>2010-01-01T01:33:06Z</time>
      </trkpt>
      <trkpt lat="42.74202" lon="1.01055">
        <ele>2194</ele>
        <time>2010-01-01T01:33:09Z</time>
      </trkpt>
      <trkpt lat="42.74211" lon="1.0105">
        <ele>2190</ele>
        <time>2010-01-01T01:33:14Z</time>
      </trkpt>
      <trkpt lat="42.74221" lon="1.01045">
        <ele>2186</ele>
        <time>2010-01-01T01:33:18Z</time>
      </trkpt>
      <trkpt lat="42.74228" lon="1.0104">
        <ele>2183</ele>
        <time>2010-01-01T01:33:21Z</time>
      </trkpt>
      <trkpt lat="42.74232" lon="1.01031">
        <ele>2180</ele>
        <time>2010-01-01T01:33:24Z</time>
      </trkpt>
      <trkpt lat="42.74242" lon="1.01028">
        <ele>2176</ele>
        <time>2010-01-01T01:33:28Z</time>
      </trkpt>
      <trkpt lat="42.7425" lon="1.01023">
        <ele>2173</ele>
        <time>2010-01-01T01:33:32Z</time>
      </trkpt>
      <trkpt lat="42.74259" lon="1.01025">
        <ele>2171</ele>
        <time>2010-01-01T01:33:35Z</time>
      </trkpt>
      <trkpt lat="42.74268" lon="1.01026">
        <ele>2168</ele>
        <time>2010-01-01T01:33:39Z</time>
      </trkpt>
      <trkpt lat="42.74278" lon="1.01026">
        <ele>2165</ele>
        <time>2010-01-01T01:33:43Z</time>
      </trkpt>
      <trkpt lat="42.74289" lon="1.01027">
        <ele>2161</ele>
        <time>2010-01-01T01:33:47Z</time>
      </trkpt>
      <trkpt lat="42.74298" lon="1.01029">
        <ele>2159</ele>
        <time>2010-01-01T01:33:51Z</time>
      </trkpt>
      <trkpt lat="42.74307" lon="1.01032">
        <ele>2157</ele>
        <time>2010-01-01T01:33:55Z</time>
      </trkpt>
      <trkpt lat="42.74312" lon="1.01024">
        <ele>2153</ele>
        <time>2010-01-01T01:33:58Z</time>
      </trkpt>
      <trkpt lat="42.74321" lon="1.01022">
        <ele>2151</ele>
        <time>2010-01-01T01:34:01Z</time>
      </trkpt>
      <trkpt lat="42.7433" lon="1.01022">
        <ele>2149</ele>
        <time>2010-01-01T01:34:05Z</time>
      </trkpt>
      <trkpt lat="42.74339" lon="1.01026">
        <ele>2149</ele>
        <time>2010-01-01T01:34:09Z</time>
      </trkpt>
      <trkpt lat="42.74349" lon="1.01028">
        <ele>2148</ele>
        <time>2010-01-01T01:34:13Z</time>
      </trkpt>
      <trkpt lat="42.7436" lon="1.01024">
        <ele>2145</ele>
        <time>2010-01-01T01:34:17Z</time>
      </trkpt>
      <trkpt lat="42.7437" lon="1.0102">
        <ele>2142</ele>
        <time>2010-01-01T01:34:21Z</time>
      </trkpt>
      <trkpt lat="42.74379" lon="1.01015">
        <ele>2139</ele>
        <time>2010-01-01T01:34:25Z</time>
      </trkpt>
      <trkpt lat="42.74388" lon="1.01008">
        <ele>2134</ele>
        <time>2010-01-01T01:34:29Z</time>
      </trkpt>
      <trkpt lat="42.74396" lon="1.01">
        <ele>2129</ele>
        <time>2010-01-01T01:34:33Z</time>
      </trkpt>
      <trkpt lat="42.74406" lon="1.00995">
        <ele>2127</ele>
        <time>2010-01-01T01:34:38Z</time>
      </trkpt>
      <trkpt lat="42.74416" lon="1.00993">
        <ele>2125</ele>
        <time>2010-01-01T01:34:42Z</time>
      </trkpt>
      <trkpt lat="42.74426" lon="1.00988">
        <ele>2124</ele>
        <time>2010-01-01T01:34:46Z</time>
      </trkpt>
      <trkpt lat="42.74434" lon="1.00981">
        <ele>2121</ele>
        <time>2010-01-01T01:34:50Z</time>
      </trkpt>
      <trkpt lat="42.74437" lon="1.0097">
        <ele>2116</ele>
        <time>2010-01-01T01:34:53Z</time>
      </trkpt>
      <trkpt lat="42.74445" lon="1.00965">
        <ele>2115</ele>
        <time>2010-01-01T01:34:57Z</time>
      </trkpt>
      <trkpt lat="42.74455" lon="1.00962">
        <ele>2114</ele>
        <time>2010-01-01T01:35:01Z</time>
      </trkpt>
      <trkpt lat="42.74464" lon="1.00956">
        <ele>2112</ele>
        <time>2010-01-01T01:35:05Z</time>
      </trkpt>
      <trkpt lat="42.74473" lon="1.00951">
        <ele>2110</ele>
        <time>2010-01-01T01:35:09Z</time>
      </trkpt>
      <trkpt lat="42.74482" lon="1.00947">
        <ele>2107</ele>
        <time>2010-01-01T01:35:12Z</time>
      </trkpt>
      <trkpt lat="42.74492" lon="1.00944">
        <ele>2106</ele>
        <time>2010-01-01T01:35:16Z</time>
      </trkpt>
      <trkpt lat="42.74501" lon="1.00938">
        <ele>2104</ele>
        <time>2010-01-01T01:35:21Z</time>
      </trkpt>
      <trkpt lat="42.74509" lon="1.0093">
        <ele>2100</ele>
        <time>2010-01-01T01:35:25Z</time>
      </trkpt>
      <trkpt lat="42.74519" lon="1.00926">
        <ele>2099</ele>
        <time>2010-01-01T01:35:29Z</time>
      </trkpt>
      <trkpt lat="42.74528" lon="1.0092">
        <ele>2096</ele>
        <time>2010-01-01T01:35:33Z</time>
      </trkpt>
      <trkpt lat="42.74536" lon="1.00913">
        <ele>2095</ele>
        <time>2010-01-01T01:35:37Z</time>
      </trkpt>
      <trkpt lat="42.74547" lon="1.00909">
        <ele>2095</ele>
        <time>2010-01-01T01:35:41Z</time>
      </trkpt>
      <trkpt lat="42.74555" lon="1.00901">
        <ele>2092</ele>
        <time>2010-01-01T01:35:45Z</time>
      </trkpt>
      <trkpt lat="42.74564" lon="1.00897">
        <ele>2093</ele>
        <time>2010-01-01T01:35:49Z</time>
      </trkpt>
      <trkpt lat="42.74572" lon="1.0089">
        <ele>2092</ele>
        <time>2010-01-01T01:35:53Z</time>
      </trkpt>
      <trkpt lat="42.7458" lon="1.00879">
        <ele>2090</ele>
        <time>2010-01-01T01:35:57Z</time>
      </trkpt>
      <trkpt lat="42.74585" lon="1.00866">
        <ele>2088</ele>
        <time>2010-01-01T01:36:02Z</time>
      </trkpt>
      <trkpt lat="42.74593" lon="1.00857">
        <ele>2088</ele>
        <time>2010-01-01T01:36:06Z</time>
      </trkpt>
      <trkpt lat="42.74599" lon="1.00846">
        <ele>2087</ele>
        <time>2010-01-01T01:36:10Z</time>
      </trkpt>
      <trkpt lat="42.74601" lon="1.00832">
        <ele>2084</ele>
        <time>2010-01-01T01:36:14Z</time>
      </trkpt>
      <trkpt lat="42.74602" lon="1.00818">
        <ele>2081</ele>
        <time>2010-01-01T01:36:18Z</time>
      </trkpt>
      <trkpt lat="42.746" lon="1.00804">
        <ele>2077</ele>
        <time>2010-01-01T01:36:22Z</time>
      </trkpt>
      <trkpt lat="42.746" lon="1.00789">
        <ele>2074</ele>
        <time>2010-01-01T01:36:27Z</time>
      </trkpt>
      <trkpt lat="42.74603" lon="1.00774">
        <ele>2071</ele>
        <time>2010-01-01T01:36:31Z</time>
      </trkpt>
      <trkpt lat="42.74607" lon="1.00761">
        <ele>2068</ele>
        <time>2010-01-01T01:36:35Z</time>
      </trkpt>
      <trkpt lat="42.74614" lon="1.00751">
        <ele>2065</ele>
        <time>2010-01-01T01:36:39Z</time>
      </trkpt>
      <trkpt lat="42.74621" lon="1.00742">
        <ele>2064</ele>
        <time>2010-01-01T01:36:43Z</time>
      </trkpt>
      <trkpt lat="42.74629" lon="1.0073">
        <ele>2063</ele>
        <time>2010-01-01T01:36:48Z</time>
      </trkpt>
      <trkpt lat="42.74639" lon="1.00721">
        <ele>2062</ele>
        <time>2010-01-01T01:36:53Z</time>
      </trkpt>
      <trkpt lat="42.74647" lon="1.00712">
        <ele>2061</ele>
        <time>2010-01-01T01:36:57Z</time>
      </trkpt>
      <trkpt lat="42.74657" lon="1.00704">
        <ele>2059</ele>
        <time>2010-01-01T01:37:02Z</time>
      </trkpt>
      <trkpt lat="42.74672" lon="1.00696">
        <ele>2058</ele>
        <time>2010-01-01T01:37:08Z</time>
      </trkpt>
      <trkpt lat="42.74683" lon="1.00687">
        <ele>2054</ele>
        <time>2010-01-01T01:37:13Z</time>
      </trkpt>
      <trkpt lat="42.74691" lon="1.0068">
        <ele>2051</ele>
        <time>2010-01-01T01:37:17Z</time>
      </trkpt>
      <trkpt lat="42.74701" lon="1.0067">
        <ele>2046</ele>
        <time>2010-01-01T01:37:22Z</time>
      </trkpt>
      <trkpt lat="42.74707" lon="1.0066">
        <ele>2041</ele>
        <time>2010-01-01T01:37:26Z</time>
      </trkpt>
      <trkpt lat="42.74717" lon="1.00656">
        <ele>2037</ele>
        <time>2010-01-01T01:37:30Z</time>
      </trkpt>
      <trkpt lat="42.74727" lon="1.00652">
        <ele>2035</ele>
        <time>2010-01-01T01:37:34Z</time>
      </trkpt>
      <trkpt lat="42.74737" lon="1.00647">
        <ele>2034</ele>
        <time>2010-01-01T01:37:38Z</time>
      </trkpt>
      <trkpt lat="42.74746" lon="1.00642">
        <ele>2033</ele>
        <time>2010-01-01T01:37:42Z</time>
      </trkpt>
      <trkpt lat="42.74757" lon="1.00641">
        <ele>2030</ele>
        <time>2010-01-01T01:37:47Z</time>
      </trkpt>
      <trkpt lat="42.74768" lon="1.00637">
        <ele>2025</ele>
        <time>2010-01-01T01:37:51Z</time>
      </trkpt>
      <trkpt lat="42.74777" lon="1.00633">
        <ele>2021</ele>
        <time>2010-01-01T01:37:55Z</time>
      </trkpt>
      <trkpt lat="42.74786" lon="1.0063">
        <ele>2019</ele>
        <time>2010-01-01T01:37:59Z</time>
      </trkpt>
      <trkpt lat="42.74796" lon="1.00628">
        <ele>2016</ele>
        <time>2010-01-01T01:38:03Z</time>
      </trkpt>
      <trkpt lat="42.74806" lon="1.0063">
        <ele>2016</ele>
        <time>2010-01-01T01:38:07Z</time>
      </trkpt>
      <trkpt lat="42.74816" lon="1.00631">
        <ele>2014</ele>
        <time>2010-01-01T01:38:11Z</time>
      </trkpt>
      <trkpt lat="42.74825" lon="1.00629">
        <ele>2012</ele>
        <time>2010-01-01T01:38:15Z</time>
      </trkpt>
      <trkpt lat="42.74835" lon="1.00626">
        <ele>2010</ele>
        <time>2010-01-01T01:38:19Z</time>
      </trkpt>
      <trkpt lat="42.74845" lon="1.00622">
        <ele>2006</ele>
        <time>2010-01-01T01:38:23Z</time>
      </trkpt>
      <trkpt lat="42.74854" lon="1.00617">
        <ele>2003</ele>
        <time>2010-01-01T01:38:26Z</time>
      </trkpt>
      <trkpt lat="42.74866" lon="1.00612">
        <ele>1999</ele>
        <time>2010-01-01T01:38:32Z</time>
      </trkpt>
      <trkpt lat="42.74876" lon="1.00614">
        <ele>1997</ele>
        <time>2010-01-01T01:38:36Z</time>
      </trkpt>
      <trkpt lat="42.74885" lon="1.00616">
        <ele>1996</ele>
        <time>2010-01-01T01:38:39Z</time>
      </trkpt>
      <trkpt lat="42.74894" lon="1.00618">
        <ele>1994</ele>
        <time>2010-01-01T01:38:43Z</time>
      </trkpt>
      <trkpt lat="42.74906" lon="1.00619">
        <ele>1991</ele>
        <time>2010-01-01T01:38:48Z</time>
      </trkpt>
      <trkpt lat="42.74924" lon="1.00621">
        <ele>1988</ele>
        <time>2010-01-01T01:38:55Z</time>
      </trkpt>
      <trkpt lat="42.74936" lon="1.00624">
        <ele>1985</ele>
        <time>2010-01-01T01:39:00Z</time>
      </trkpt>
      <trkpt lat="42.74968" lon="1.00634">
        <ele>1984</ele>
        <time>2010-01-01T01:39:13Z</time>
      </trkpt>
      <trkpt lat="42.74983" lon="1.00632">
        <ele>1982</ele>
        <time>2010-01-01T01:39:19Z</time>
      </trkpt>
      <trkpt lat="42.74993" lon="1.00609">
        <ele>1974</ele>
        <time>2010-01-01T01:39:27Z</time>
      </trkpt>
      <trkpt lat="42.75017" lon="1.00611">
        <ele>1972</ele>
        <time>2010-01-01T01:39:37Z</time>
      </trkpt>
      <trkpt lat="42.75042" lon="1.00607">
        <ele>1967</ele>
        <time>2010-01-01T01:39:47Z</time>
      </trkpt>
      <trkpt lat="42.75084" lon="1.0059">
        <ele>1953</ele>
        <time>2010-01-01T01:40:04Z</time>
      </trkpt>
      <trkpt lat="42.75096" lon="1.0058">
        <ele>1947</ele>
        <time>2010-01-01T01:40:10Z</time>
      </trkpt>
      <trkpt lat="42.75106" lon="1.00559">
        <ele>1935</ele>
        <time>2010-01-01T01:40:17Z</time>
      </trkpt>
      <trkpt lat="42.75107" lon="1.00536">
        <ele>1927</ele>
        <time>2010-01-01T01:40:24Z</time>
      </trkpt>
      <trkpt lat="42.75112" lon="1.00516">
        <ele>1923</ele>
        <time>2010-01-01T01:40:30Z</time>
      </trkpt>
      <trkpt lat="42.75122" lon="1.00494">
        <ele>1919</ele>
        <time>2010-01-01T01:40:38Z</time>
      </trkpt>
      <trkpt lat="42.75133" lon="1.00475">
        <ele>1916</ele>
        <time>2010-01-01T01:40:45Z</time>
      </trkpt>
      <trkpt lat="42.75143" lon="1.00466">
        <ele>1914</ele>
        <time>2010-01-01T01:40:50Z</time>
      </trkpt>
      <trkpt lat="42.75153" lon="1.00458">
        <ele>1913</ele>
        <time>2010-01-01T01:40:55Z</time>
      </trkpt>
      <trkpt lat="42.75158" lon="1.00446">
        <ele>1911</ele>
        <time>2010-01-01T01:40:59Z</time>
      </trkpt>
      <trkpt lat="42.75171" lon="1.00431">
        <ele>1907</ele>
        <time>2010-01-01T01:41:05Z</time>
      </trkpt>
      <trkpt lat="42.75189" lon="1.00422">
        <ele>1904</ele>
        <time>2010-01-01T01:41:13Z</time>
      </trkpt>
      <trkpt lat="42.75199" lon="1.00418">
        <ele>1903</ele>
        <time>2010-01-01T01:41:17Z</time>
      </trkpt>
      <trkpt lat="42.7521" lon="1.00412">
        <ele>1900</ele>
        <time>2010-01-01T01:41:22Z</time>
      </trkpt>
      <trkpt lat="42.75222" lon="1.00401">
        <ele>1893</ele>
        <time>2010-01-01T01:41:28Z</time>
      </trkpt>
      <trkpt lat="42.75235" lon="1.00384">
        <ele>1890</ele>
        <time>2010-01-01T01:41:35Z</time>
      </trkpt>
      <trkpt lat="42.7525" lon="1.00381">
        <ele>1892</ele>
        <time>2010-01-01T01:41:41Z</time>
      </trkpt>
      <trkpt lat="42.75278" lon="1.00352">
        <ele>1885</ele>
        <time>2010-01-01T01:41:55Z</time>
      </trkpt>
      <trkpt lat="42.75307" lon="1.00328">
        <ele>1883</ele>
        <time>2010-01-01T01:42:09Z</time>
      </trkpt>
      <trkpt lat="42.75317" lon="1.00318">
        <ele>1881</ele>
        <time>2010-01-01T01:42:14Z</time>
      </trkpt>
      <trkpt lat="42.75329" lon="1.00309">
        <ele>1879</ele>
        <time>2010-01-01T01:42:19Z</time>
      </trkpt>
      <trkpt lat="42.75344" lon="1.00291">
        <ele>1871</ele>
        <time>2010-01-01T01:42:27Z</time>
      </trkpt>
      <trkpt lat="42.75354" lon="1.0028">
        <ele>1866</ele>
        <time>2010-01-01T01:42:32Z</time>
      </trkpt>
      <trkpt lat="42.75362" lon="1.00266">
        <ele>1861</ele>
        <time>2010-01-01T01:42:37Z</time>
      </trkpt>
      <trkpt lat="42.75372" lon="1.00262">
        <ele>1860</ele>
        <time>2010-01-01T01:42:42Z</time>
      </trkpt>
      <trkpt lat="42.75386" lon="1.00249">
        <ele>1854</ele>
        <time>2010-01-01T01:42:48Z</time>
      </trkpt>
      <trkpt lat="42.75393" lon="1.00235">
        <ele>1851</ele>
        <time>2010-01-01T01:42:53Z</time>
      </trkpt>
      <trkpt lat="42.75402" lon="1.00226">
        <ele>1849</ele>
        <time>2010-01-01T01:42:58Z</time>
      </trkpt>
      <trkpt lat="42.75413" lon="1.00215">
        <ele>1845</ele>
        <time>2010-01-01T01:43:03Z</time>
      </trkpt>
      <trkpt lat="42.75425" lon="1.00209">
        <ele>1843</ele>
        <time>2010-01-01T01:43:09Z</time>
      </trkpt>
      <trkpt lat="42.75435" lon="1.00202">
        <ele>1842</ele>
        <time>2010-01-01T01:43:13Z</time>
      </trkpt>
      <trkpt lat="42.75444" lon="1.00197">
        <ele>1841</ele>
        <time>2010-01-01T01:43:17Z</time>
      </trkpt>
      <trkpt lat="42.75453" lon="1.00191">
        <ele>1838</ele>
        <time>2010-01-01T01:43:21Z</time>
      </trkpt>
      <trkpt lat="42.75463" lon="1.00181">
        <ele>1835</ele>
        <time>2010-01-01T01:43:26Z</time>
      </trkpt>
      <trkpt lat="42.75472" lon="1.00176">
        <ele>1834</ele>
        <time>2010-01-01T01:43:30Z</time>
      </trkpt>
      <trkpt lat="42.75485" lon="1.00178">
        <ele>1833</ele>
        <time>2010-01-01T01:43:35Z</time>
      </trkpt>
      <trkpt lat="42.75501" lon="1.00168">
        <ele>1830</ele>
        <time>2010-01-01T01:43:42Z</time>
      </trkpt>
      <trkpt lat="42.75517" lon="1.00153">
        <ele>1823</ele>
        <time>2010-01-01T01:43:49Z</time>
      </trkpt>
      <trkpt lat="42.75538" lon="1.0014">
        <ele>1815</ele>
        <time>2010-01-01T01:43:59Z</time>
      </trkpt>
      <trkpt lat="42.75566" lon="1.00105">
        <ele>1801</ele>
        <time>2010-01-01T01:44:14Z</time>
      </trkpt>
      <trkpt lat="42.75576" lon="1.00096">
        <ele>1798</ele>
        <time>2010-01-01T01:44:19Z</time>
      </trkpt>
      <trkpt lat="42.75599" lon="1.00074">
        <ele>1791</ele>
        <time>2010-01-01T01:44:30Z</time>
      </trkpt>
      <trkpt lat="42.75605" lon="1.00055">
        <ele>1789</ele>
        <time>2010-01-01T01:44:36Z</time>
      </trkpt>
      <trkpt lat="42.75613" lon="1.00045">
        <ele>1787</ele>
        <time>2010-01-01T01:44:41Z</time>
      </trkpt>
      <trkpt lat="42.75626" lon="1.00041">
        <ele>1783</ele>
        <time>2010-01-01T01:44:46Z</time>
      </trkpt>
      <trkpt lat="42.75667" lon="1.00041">
        <ele>1763</ele>
        <time>2010-01-01T01:45:02Z</time>
      </trkpt>
      <trkpt lat="42.7568" lon="1.00035">
        <ele>1756</ele>
        <time>2010-01-01T01:45:08Z</time>
      </trkpt>
      <trkpt lat="42.75686" lon="1.00022">
        <ele>1752</ele>
        <time>2010-01-01T01:45:12Z</time>
      </trkpt>
      <trkpt lat="42.75696" lon="1.00016">
        <ele>1747</ele>
        <time>2010-01-01T01:45:16Z</time>
      </trkpt>
      <trkpt lat="42.75701" lon="1.00003">
        <ele>1745</ele>
        <time>2010-01-01T01:45:21Z</time>
      </trkpt>
      <trkpt lat="42.7571" lon="0.99992">
        <ele>1740</ele>
        <time>2010-01-01T01:45:25Z</time>
      </trkpt>
      <trkpt lat="42.75721" lon="0.9997">
        <ele>1733</ele>
        <time>2010-01-01T01:45:33Z</time>
      </trkpt>
      <trkpt lat="42.75724" lon="0.99943">
        <ele>1726</ele>
        <time>2010-01-01T01:45:41Z</time>
      </trkpt>
      <trkpt lat="42.75723" lon="0.99881">
        <ele>1715</ele>
        <time>2010-01-01T01:46:00Z</time>
      </trkpt>
      <trkpt lat="42.7573" lon="0.99866">
        <ele>1711</ele>
        <time>2010-01-01T01:46:05Z</time>
      </trkpt>
      <trkpt lat="42.75733" lon="0.99841">
        <ele>1708</ele>
        <time>2010-01-01T01:46:12Z</time>
      </trkpt>
      <trkpt lat="42.75728" lon="0.99825">
        <ele>1710</ele>
        <time>2010-01-01T01:46:17Z</time>
      </trkpt>
      <trkpt lat="42.75721" lon="0.99808">
        <ele>1713</ele>
        <time>2010-01-01T01:46:23Z</time>
      </trkpt>
      <trkpt lat="42.75718" lon="0.99791">
        <ele>1714</ele>
        <time>2010-01-01T01:46:28Z</time>
      </trkpt>
      <trkpt lat="42.75714" lon="0.99777">
        <ele>1716</ele>
        <time>2010-01-01T01:46:33Z</time>
      </trkpt>
      <trkpt lat="42.75713" lon="0.99764">
        <ele>1716</ele>
        <time>2010-01-01T01:46:37Z</time>
      </trkpt>
      <trkpt lat="42.75716" lon="0.99748">
        <ele>1715</ele>
        <time>2010-01-01T01:46:41Z</time>
      </trkpt>
      <trkpt lat="42.75717" lon="0.9973">
        <ele>1713</ele>
        <time>2010-01-01T01:46:47Z</time>
      </trkpt>
      <trkpt lat="42.75722" lon="0.99712">
        <ele>1711</ele>
        <time>2010-01-01T01:46:52Z</time>
      </trkpt>
      <trkpt lat="42.75729" lon="0.99693">
        <ele>1710</ele>
        <time>2010-01-01T01:46:59Z</time>
      </trkpt>
      <trkpt lat="42.7573" lon="0.99677">
        <ele>1710</ele>
        <time>2010-01-01T01:47:03Z</time>
      </trkpt>
      <trkpt lat="42.7573" lon="0.99659">
        <ele>1710</ele>
        <time>2010-01-01T01:47:08Z</time>
      </trkpt>
      <trkpt lat="42.75729" lon="0.99647">
        <ele>1710</ele>
        <time>2010-01-01T01:47:12Z</time>
      </trkpt>
      <trkpt lat="42.75737" lon="0.99636">
        <ele>1711</ele>
        <time>2010-01-01T01:47:17Z</time>
      </trkpt>
      <trkpt lat="42.75747" lon="0.99617">
        <ele>1711</ele>
        <time>2010-01-01T01:47:24Z</time>
      </trkpt>
      <trkpt lat="42.7575" lon="0.99599">
        <ele>1712</ele>
        <time>2010-01-01T01:47:29Z</time>
      </trkpt>
      <trkpt lat="42.75757" lon="0.99579">
        <ele>1713</ele>
        <time>2010-01-01T01:47:35Z</time>
      </trkpt>
      <trkpt lat="42.75771" lon="0.99549">
        <ele>1709</ele>
        <time>2010-01-01T01:47:46Z</time>
      </trkpt>
      <trkpt lat="42.7578" lon="0.99541">
        <ele>1706</ele>
        <time>2010-01-01T01:47:50Z</time>
      </trkpt>
      <trkpt lat="42.75786" lon="0.99528">
        <ele>1701</ele>
        <time>2010-01-01T01:47:55Z</time>
      </trkpt>
      <trkpt lat="42.75786" lon="0.99512">
        <ele>1698</ele>
        <time>2010-01-01T01:47:59Z</time>
      </trkpt>
      <trkpt lat="42.75808" lon="0.99485">
        <ele>1684</ele>
        <time>2010-01-01T01:48:11Z</time>
      </trkpt>
      <trkpt lat="42.75834" lon="0.99479">
        <ele>1674</ele>
        <time>2010-01-01T01:48:22Z</time>
      </trkpt>
      <trkpt lat="42.75924" lon="0.99581">
        <ele>1653</ele>
        <time>2010-01-01T01:49:09Z</time>
      </trkpt>
      <trkpt lat="42.75919" lon="0.9955">
        <ele>1652</ele>
        <time>2010-01-01T01:49:18Z</time>
      </trkpt>
      <trkpt lat="42.75917" lon="0.99548">
        <ele>1652</ele>
        <time>2010-01-01T01:49:19Z</time>
      </trkpt>
      <trkpt lat="42.75913" lon="0.99533">
        <ele>1652</ele>
        <time>2010-01-01T01:49:24Z</time>
      </trkpt>
      <trkpt lat="42.75904" lon="0.99518">
        <ele>1654</ele>
        <time>2010-01-01T01:49:29Z</time>
      </trkpt>
      <trkpt lat="42.75904" lon="0.99518">
        <ele>1654</ele>
        <time>2010-01-01T01:49:29Z</time>
      </trkpt>
      <trkpt lat="42.75897" lon="0.99483">
        <ele>1653</ele>
        <time>2010-01-01T01:49:40Z</time>
      </trkpt>
      <trkpt lat="42.75896" lon="0.9948">
        <ele>1653</ele>
        <time>2010-01-01T01:49:41Z</time>
      </trkpt>
      <trkpt lat="42.75911" lon="0.99464">
        <ele>1652</ele>
        <time>2010-01-01T01:49:48Z</time>
      </trkpt>
      <trkpt lat="42.75919" lon="0.99477">
        <ele>1652</ele>
        <time>2010-01-01T01:49:53Z</time>
      </trkpt>
      <trkpt lat="42.75924" lon="0.99489">
        <ele>1651</ele>
        <time>2010-01-01T01:49:57Z</time>
      </trkpt>
      <trkpt lat="42.75926" lon="0.99491">
        <ele>1651</ele>
        <time>2010-01-01T01:49:58Z</time>
      </trkpt>
      <trkpt lat="42.75939" lon="0.99513">
        <ele>1650</ele>
        <time>2010-01-01T01:50:06Z</time>
      </trkpt>
      <trkpt lat="42.7595" lon="0.99524">
        <ele>1649</ele>
        <time>2010-01-01T01:50:12Z</time>
      </trkpt>
      <trkpt lat="42.75964" lon="0.99538">
        <ele>1649</ele>
        <time>2010-01-01T01:50:19Z</time>
      </trkpt>
      <trkpt lat="42.75967" lon="0.99545">
        <ele>1649</ele>
        <time>2010-01-01T01:50:21Z</time>
      </trkpt>
      <trkpt lat="42.7597" lon="0.99549">
        <ele>1649</ele>
        <time>2010-01-01T01:50:23Z</time>
      </trkpt>
      <trkpt lat="42.75982" lon="0.99571">
        <ele>1650</ele>
        <time>2010-01-01T01:50:31Z</time>
      </trkpt>
      <trkpt lat="42.75984" lon="0.99572">
        <ele>1651</ele>
        <time>2010-01-01T01:50:32Z</time>
      </trkpt>
      <trkpt lat="42.75992" lon="0.99576">
        <ele>1652</ele>
        <time>2010-01-01T01:50:35Z</time>
      </trkpt>
      <trkpt lat="42.75996" lon="0.99583">
        <ele>1652</ele>
        <time>2010-01-01T01:50:38Z</time>
      </trkpt>
      <trkpt lat="42.75999" lon="0.99587">
        <ele>1652</ele>
        <time>2010-01-01T01:50:40Z</time>
      </trkpt>
      <trkpt lat="42.76009" lon="0.99611">
        <ele>1654</ele>
        <time>2010-01-01T01:50:48Z</time>
      </trkpt>
      <trkpt lat="42.76011" lon="0.99614">
        <ele>1654</ele>
        <time>2010-01-01T01:50:49Z</time>
      </trkpt>
      <trkpt lat="42.76031" lon="0.99645">
        <ele>1655</ele>
        <time>2010-01-01T01:51:01Z</time>
      </trkpt>
      <trkpt lat="42.76033" lon="0.99652">
        <ele>1655</ele>
        <time>2010-01-01T01:51:03Z</time>
      </trkpt>
      <trkpt lat="42.76041" lon="0.99677">
        <ele>1654</ele>
        <time>2010-01-01T01:51:11Z</time>
      </trkpt>
      <trkpt lat="42.76045" lon="0.99707">
        <ele>1650</ele>
        <time>2010-01-01T01:51:20Z</time>
      </trkpt>
      <trkpt lat="42.76047" lon="0.99724">
        <ele>1649</ele>
        <time>2010-01-01T01:51:25Z</time>
      </trkpt>
      <trkpt lat="42.76055" lon="0.99731">
        <ele>1650</ele>
        <time>2010-01-01T01:51:29Z</time>
      </trkpt>
      <trkpt lat="42.76063" lon="0.99737">
        <ele>1652</ele>
        <time>2010-01-01T01:51:33Z</time>
      </trkpt>
      <trkpt lat="42.7608" lon="0.99777">
        <ele>1652</ele>
        <time>2010-01-01T01:51:46Z</time>
      </trkpt>
      <trkpt lat="42.76082" lon="0.99783">
        <ele>1652</ele>
        <time>2010-01-01T01:51:48Z</time>
      </trkpt>
      <trkpt lat="42.76088" lon="0.99794">
        <ele>1652</ele>
        <time>2010-01-01T01:51:52Z</time>
      </trkpt>
      <trkpt lat="42.76094" lon="0.99811">
        <ele>1652</ele>
        <time>2010-01-01T01:51:58Z</time>
      </trkpt>
      <trkpt lat="42.76108" lon="0.99834">
        <ele>1653</ele>
        <time>2010-01-01T01:52:06Z</time>
      </trkpt>
      <trkpt lat="42.76108" lon="0.99835">
        <ele>1653</ele>
        <time>2010-01-01T01:52:07Z</time>
      </trkpt>
      <trkpt lat="42.76119" lon="0.9986">
        <ele>1656</ele>
        <time>2010-01-01T01:52:15Z</time>
      </trkpt>
      <trkpt lat="42.76131" lon="0.9987">
        <ele>1661</ele>
        <time>2010-01-01T01:52:21Z</time>
      </trkpt>
      <trkpt lat="42.76137" lon="0.9989">
        <ele>1663</ele>
        <time>2010-01-01T01:52:27Z</time>
      </trkpt>
      <trkpt lat="42.76138" lon="0.99898">
        <ele>1662</ele>
        <time>2010-01-01T01:52:29Z</time>
      </trkpt>
      <trkpt lat="42.76142" lon="0.99907">
        <ele>1663</ele>
        <time>2010-01-01T01:52:33Z</time>
      </trkpt>
      <trkpt lat="42.76146" lon="0.9992">
        <ele>1663</ele>
        <time>2010-01-01T01:52:37Z</time>
      </trkpt>
      <trkpt lat="42.76144" lon="0.99939">
        <ele>1660</ele>
        <time>2010-01-01T01:52:43Z</time>
      </trkpt>
      <trkpt lat="42.7615" lon="0.99967">
        <ele>1658</ele>
        <time>2010-01-01T01:52:51Z</time>
      </trkpt>
      <trkpt lat="42.7615" lon="0.99971">
        <ele>1658</ele>
        <time>2010-01-01T01:52:52Z</time>
      </trkpt>
      <trkpt lat="42.76152" lon="0.99981">
        <ele>1658</ele>
        <time>2010-01-01T01:52:55Z</time>
      </trkpt>
      <trkpt lat="42.76154" lon="1.00013">
        <ele>1658</ele>
        <time>2010-01-01T01:53:04Z</time>
      </trkpt>
      <trkpt lat="42.76155" lon="1.00016">
        <ele>1658</ele>
        <time>2010-01-01T01:53:06Z</time>
      </trkpt>
      <trkpt lat="42.76158" lon="1.00023">
        <ele>1660</ele>
        <time>2010-01-01T01:53:08Z</time>
      </trkpt>
      <trkpt lat="42.76159" lon="1.00026">
        <ele>1660</ele>
        <time>2010-01-01T01:53:09Z</time>
      </trkpt>
      <trkpt lat="42.76158" lon="1.00029">
        <ele>1660</ele>
        <time>2010-01-01T01:53:10Z</time>
      </trkpt>
      <trkpt lat="42.76156" lon="1.00042">
        <ele>1659</ele>
        <time>2010-01-01T01:53:14Z</time>
      </trkpt>
      <trkpt lat="42.76153" lon="1.00051">
        <ele>1658</ele>
        <time>2010-01-01T01:53:16Z</time>
      </trkpt>
      <trkpt lat="42.76153" lon="1.00056">
        <ele>1658</ele>
        <time>2010-01-01T01:53:18Z</time>
      </trkpt>
      <trkpt lat="42.76161" lon="1.0009">
        <ele>1661</ele>
        <time>2010-01-01T01:53:28Z</time>
      </trkpt>
      <trkpt lat="42.76162" lon="1.00092">
        <ele>1661</ele>
        <time>2010-01-01T01:53:29Z</time>
      </trkpt>
      <trkpt lat="42.76164" lon="1.00093">
        <ele>1661</ele>
        <time>2010-01-01T01:53:30Z</time>
      </trkpt>
      <trkpt lat="42.76168" lon="1.00097">
        <ele>1663</ele>
        <time>2010-01-01T01:53:32Z</time>
      </trkpt>
      <trkpt lat="42.76173" lon="1.00106">
        <ele>1665</ele>
        <time>2010-01-01T01:53:35Z</time>
      </trkpt>
      <trkpt lat="42.76181" lon="1.00121">
        <ele>1668</ele>
        <time>2010-01-01T01:53:41Z</time>
      </trkpt>
      <trkpt lat="42.76182" lon="1.00122">
        <ele>1669</ele>
        <time>2010-01-01T01:53:41Z</time>
      </trkpt>
      <trkpt lat="42.76189" lon="1.00129">
        <ele>1672</ele>
        <time>2010-01-01T01:53:45Z</time>
      </trkpt>
      <trkpt lat="42.76196" lon="1.00141">
        <ele>1675</ele>
        <time>2010-01-01T01:53:49Z</time>
      </trkpt>
      <trkpt lat="42.76201" lon="1.0015">
        <ele>1676</ele>
        <time>2010-01-01T01:53:52Z</time>
      </trkpt>
      <trkpt lat="42.76203" lon="1.00163">
        <ele>1676</ele>
        <time>2010-01-01T01:53:56Z</time>
      </trkpt>
      <trkpt lat="42.76205" lon="1.0018">
        <ele>1674</ele>
        <time>2010-01-01T01:54:02Z</time>
      </trkpt>
      <trkpt lat="42.76206" lon="1.00184">
        <ele>1674</ele>
        <time>2010-01-01T01:54:03Z</time>
      </trkpt>
      <trkpt lat="42.76214" lon="1.00216">
        <ele>1673</ele>
        <time>2010-01-01T01:54:13Z</time>
      </trkpt>
      <trkpt lat="42.76226" lon="1.0025">
        <ele>1675</ele>
        <time>2010-01-01T01:54:24Z</time>
      </trkpt>
      <trkpt lat="42.76232" lon="1.00281">
        <ele>1673</ele>
        <time>2010-01-01T01:54:33Z</time>
      </trkpt>
      <trkpt lat="42.76246" lon="1.00309">
        <ele>1674</ele>
        <time>2010-01-01T01:54:43Z</time>
      </trkpt>
      <trkpt lat="42.7626" lon="1.00338">
        <ele>1674</ele>
        <time>2010-01-01T01:54:53Z</time>
      </trkpt>
      <trkpt lat="42.76265" lon="1.0035">
        <ele>1675</ele>
        <time>2010-01-01T01:54:57Z</time>
      </trkpt>
      <trkpt lat="42.76273" lon="1.00382">
        <ele>1676</ele>
        <time>2010-01-01T01:55:07Z</time>
      </trkpt>
      <trkpt lat="42.76287" lon="1.00408">
        <ele>1682</ele>
        <time>2010-01-01T01:55:17Z</time>
      </trkpt>
      <trkpt lat="42.76295" lon="1.0043">
        <ele>1683</ele>
        <time>2010-01-01T01:55:24Z</time>
      </trkpt>
      <trkpt lat="42.76295" lon="1.00434">
        <ele>1683</ele>
        <time>2010-01-01T01:55:25Z</time>
      </trkpt>
      <trkpt lat="42.76299" lon="1.00448">
        <ele>1683</ele>
        <time>2010-01-01T01:55:30Z</time>
      </trkpt>
      <trkpt lat="42.76302" lon="1.00455">
        <ele>1683</ele>
        <time>2010-01-01T01:55:32Z</time>
      </trkpt>
      <trkpt lat="42.7632" lon="1.00471">
        <ele>1687</ele>
        <time>2010-01-01T01:55:41Z</time>
      </trkpt>
      <trkpt lat="42.76336" lon="1.00478">
        <ele>1692</ele>
        <time>2010-01-01T01:55:47Z</time>
      </trkpt>
      <trkpt lat="42.76344" lon="1.00493">
        <ele>1693</ele>
        <time>2010-01-01T01:55:53Z</time>
      </trkpt>
      <trkpt lat="42.76353" lon="1.00509">
        <ele>1695</ele>
        <time>2010-01-01T01:55:59Z</time>
      </trkpt>
      <trkpt lat="42.76357" lon="1.00515">
        <ele>1696</ele>
        <time>2010-01-01T01:56:01Z</time>
      </trkpt>
      <trkpt lat="42.76368" lon="1.00543">
        <ele>1696</ele>
        <time>2010-01-01T01:56:11Z</time>
      </trkpt>
      <trkpt lat="42.76378" lon="1.00575">
        <ele>1694</ele>
        <time>2010-01-01T01:56:21Z</time>
      </trkpt>
      <trkpt lat="42.76385" lon="1.006">
        <ele>1693</ele>
        <time>2010-01-01T01:56:29Z</time>
      </trkpt>
      <trkpt lat="42.76392" lon="1.00632">
        <ele>1692</ele>
        <time>2010-01-01T01:56:38Z</time>
      </trkpt>
      <trkpt lat="42.76402" lon="1.00656">
        <ele>1693</ele>
        <time>2010-01-01T01:56:46Z</time>
      </trkpt>
      <trkpt lat="42.7642" lon="1.00673">
        <ele>1696</ele>
        <time>2010-01-01T01:56:55Z</time>
      </trkpt>
      <trkpt lat="42.7644" lon="1.00687">
        <ele>1699</ele>
        <time>2010-01-01T01:57:04Z</time>
      </trkpt>
      <trkpt lat="42.76445" lon="1.00693">
        <ele>1699</ele>
        <time>2010-01-01T01:57:07Z</time>
      </trkpt>
      <trkpt lat="42.76449" lon="1.00698">
        <ele>1700</ele>
        <time>2010-01-01T01:57:09Z</time>
      </trkpt>
      <trkpt lat="42.76465" lon="1.00713">
        <ele>1703</ele>
        <time>2010-01-01T01:57:17Z</time>
      </trkpt>
      <trkpt lat="42.76476" lon="1.00725">
        <ele>1704</ele>
        <time>2010-01-01T01:57:22Z</time>
      </trkpt>
      <trkpt lat="42.76487" lon="1.00731">
        <ele>1705</ele>
        <time>2010-01-01T01:57:27Z</time>
      </trkpt>
      <trkpt lat="42.76489" lon="1.00735">
        <ele>1705</ele>
        <time>2010-01-01T01:57:29Z</time>
      </trkpt>
      <trkpt lat="42.76493" lon="1.00737">
        <ele>1705</ele>
        <time>2010-01-01T01:57:30Z</time>
      </trkpt>
      <trkpt lat="42.76496" lon="1.00742">
        <ele>1705</ele>
        <time>2010-01-01T01:57:32Z</time>
      </trkpt>
      <trkpt lat="42.76498" lon="1.00747">
        <ele>1705</ele>
        <time>2010-01-01T01:57:34Z</time>
      </trkpt>
      <trkpt lat="42.76517" lon="1.00774">
        <ele>1708</ele>
        <time>2010-01-01T01:57:45Z</time>
      </trkpt>
      <trkpt lat="42.76526" lon="1.00787">
        <ele>1708</ele>
        <time>2010-01-01T01:57:50Z</time>
      </trkpt>
      <trkpt lat="42.76531" lon="1.00792">
        <ele>1708</ele>
        <time>2010-01-01T01:57:53Z</time>
      </trkpt>
      <trkpt lat="42.76548" lon="1.00802">
        <ele>1708</ele>
        <time>2010-01-01T01:58:00Z</time>
      </trkpt>
      <trkpt lat="42.7655" lon="1.00804">
        <ele>1708</ele>
        <time>2010-01-01T01:58:01Z</time>
      </trkpt>
      <trkpt lat="42.7656" lon="1.00803">
        <ele>1709</ele>
        <time>2010-01-01T01:58:05Z</time>
      </trkpt>
      <trkpt lat="42.76566" lon="1.00806">
        <ele>1708</ele>
        <time>2010-01-01T01:58:07Z</time>
      </trkpt>
      <trkpt lat="42.76578" lon="1.00808">
        <ele>1707</ele>
        <time>2010-01-01T01:58:12Z</time>
      </trkpt>
      <trkpt lat="42.76595" lon="1.00812">
        <ele>1707</ele>
        <time>2010-01-01T01:58:19Z</time>
      </trkpt>
      <trkpt lat="42.76596" lon="1.00812">
        <ele>1707</ele>
        <time>2010-01-01T01:58:19Z</time>
      </trkpt>
      <trkpt lat="42.76604" lon="1.00812">
        <ele>1707</ele>
        <time>2010-01-01T01:58:23Z</time>
      </trkpt>
      <trkpt lat="42.76615" lon="1.00801">
        <ele>1709</ele>
        <time>2010-01-01T01:58:28Z</time>
      </trkpt>
      <trkpt lat="42.76625" lon="1.00798">
        <ele>1710</ele>
        <time>2010-01-01T01:58:32Z</time>
      </trkpt>
      <trkpt lat="42.76635" lon="1.00797">
        <ele>1710</ele>
        <time>2010-01-01T01:58:36Z</time>
      </trkpt>
      <trkpt lat="42.76641" lon="1.00796">
        <ele>1710</ele>
        <time>2010-01-01T01:58:39Z</time>
      </trkpt>
      <trkpt lat="42.76657" lon="1.00791">
        <ele>1714</ele>
        <time>2010-01-01T01:58:45Z</time>
      </trkpt>
      <trkpt lat="42.76663" lon="1.00793">
        <ele>1714</ele>
        <time>2010-01-01T01:58:48Z</time>
      </trkpt>
      <trkpt lat="42.76664" lon="1.00795">
        <ele>1714</ele>
        <time>2010-01-01T01:58:48Z</time>
      </trkpt>
      <trkpt lat="42.76686" lon="1.00797">
        <ele>1718</ele>
        <time>2010-01-01T01:58:57Z</time>
      </trkpt>
      <trkpt lat="42.76689" lon="1.008">
        <ele>1718</ele>
        <time>2010-01-01T01:58:59Z</time>
      </trkpt>
      <trkpt lat="42.7671" lon="1.00818">
        <ele>1717</ele>
        <time>2010-01-01T01:59:09Z</time>
      </trkpt>
      <trkpt lat="42.76719" lon="1.00824">
        <ele>1717</ele>
        <time>2010-01-01T01:59:12Z</time>
      </trkpt>
      <trkpt lat="42.76721" lon="1.00824">
        <ele>1717</ele>
        <time>2010-01-01T01:59:14Z</time>
      </trkpt>
      <trkpt lat="42.76725" lon="1.00827">
        <ele>1717</ele>
        <time>2010-01-01T01:59:15Z</time>
      </trkpt>
      <trkpt lat="42.76732" lon="1.00834">
        <ele>1717</ele>
        <time>2010-01-01T01:59:19Z</time>
      </trkpt>
      <trkpt lat="42.7674" lon="1.00836">
        <ele>1717</ele>
        <time>2010-01-01T01:59:22Z</time>
      </trkpt>
      <trkpt lat="42.76744" lon="1.00838">
        <ele>1718</ele>
        <time>2010-01-01T01:59:24Z</time>
      </trkpt>
      <trkpt lat="42.76753" lon="1.00839">
        <ele>1719</ele>
        <time>2010-01-01T01:59:27Z</time>
      </trkpt>
      <trkpt lat="42.7677" lon="1.00848">
        <ele>1723</ele>
        <time>2010-01-01T01:59:35Z</time>
      </trkpt>
      <trkpt lat="42.76773" lon="1.00851">
        <ele>1723</ele>
        <time>2010-01-01T01:59:36Z</time>
      </trkpt>
      <trkpt lat="42.76778" lon="1.00854">
        <ele>1724</ele>
        <time>2010-01-01T01:59:38Z</time>
      </trkpt>
      <trkpt lat="42.76799" lon="1.00853">
        <ele>1725</ele>
        <time>2010-01-01T01:59:47Z</time>
      </trkpt>
      <trkpt lat="42.76809" lon="1.00857">
        <ele>1725</ele>
        <time>2010-01-01T01:59:51Z</time>
      </trkpt>
      <trkpt lat="42.76814" lon="1.00864">
        <ele>1725</ele>
        <time>2010-01-01T01:59:53Z</time>
      </trkpt>
      <trkpt lat="42.76828" lon="1.00874">
        <ele>1726</ele>
        <time>2010-01-01T02:00:00Z</time>
      </trkpt>
      <trkpt lat="42.76841" lon="1.00885">
        <ele>1726</ele>
        <time>2010-01-01T02:00:06Z</time>
      </trkpt>
      <trkpt lat="42.7686" lon="1.00877">
        <ele>1726</ele>
        <time>2010-01-01T02:00:14Z</time>
      </trkpt>
      <trkpt lat="42.76862" lon="1.0088">
        <ele>1727</ele>
        <time>2010-01-01T02:00:15Z</time>
      </trkpt>
      <trkpt lat="42.7688" lon="1.00887">
        <ele>1727</ele>
        <time>2010-01-01T02:00:23Z</time>
      </trkpt>
      <trkpt lat="42.76884" lon="1.00895">
        <ele>1727</ele>
        <time>2010-01-01T02:00:25Z</time>
      </trkpt>
      <trkpt lat="42.76885" lon="1.00898">
        <ele>1727</ele>
        <time>2010-01-01T02:00:27Z</time>
      </trkpt>
      <trkpt lat="42.76885" lon="1.00908">
        <ele>1728</ele>
        <time>2010-01-01T02:00:30Z</time>
      </trkpt>
      <trkpt lat="42.76886" lon="1.00908">
        <ele>1728</ele>
        <time>2010-01-01T02:00:30Z</time>
      </trkpt>
      <trkpt lat="42.76891" lon="1.00915">
        <ele>1729</ele>
        <time>2010-01-01T02:00:33Z</time>
      </trkpt>
      <trkpt lat="42.7689" lon="1.00915">
        <ele>1729</ele>
        <time>2010-01-01T02:00:33Z</time>
      </trkpt>
      <trkpt lat="42.76888" lon="1.0093">
        <ele>1731</ele>
        <time>2010-01-01T02:00:37Z</time>
      </trkpt>
      <trkpt lat="42.76887" lon="1.00934">
        <ele>1732</ele>
        <time>2010-01-01T02:00:39Z</time>
      </trkpt>
      <trkpt lat="42.76881" lon="1.00951">
        <ele>1734</ele>
        <time>2010-01-01T02:00:44Z</time>
      </trkpt>
      <trkpt lat="42.7688" lon="1.00963">
        <ele>1735</ele>
        <time>2010-01-01T02:00:48Z</time>
      </trkpt>
      <trkpt lat="42.76877" lon="1.00968">
        <ele>1736</ele>
        <time>2010-01-01T02:00:50Z</time>
      </trkpt>
      <trkpt lat="42.7688" lon="1.00991">
        <ele>1740</ele>
        <time>2010-01-01T02:00:57Z</time>
      </trkpt>
      <trkpt lat="42.76879" lon="1.00992">
        <ele>1740</ele>
        <time>2010-01-01T02:00:57Z</time>
      </trkpt>
      <trkpt lat="42.76877" lon="1.00993">
        <ele>1740</ele>
        <time>2010-01-01T02:00:58Z</time>
      </trkpt>
      <trkpt lat="42.76873" lon="1.00997">
        <ele>1740</ele>
        <time>2010-01-01T02:01:00Z</time>
      </trkpt>
      <trkpt lat="42.76864" lon="1.01015">
        <ele>1746</ele>
        <time>2010-01-01T02:01:06Z</time>
      </trkpt>
      <trkpt lat="42.7686" lon="1.01023">
        <ele>1749</ele>
        <time>2010-01-01T02:01:09Z</time>
      </trkpt>
      <trkpt lat="42.76859" lon="1.01034">
        <ele>1752</ele>
        <time>2010-01-01T02:01:13Z</time>
      </trkpt>
      <trkpt lat="42.76857" lon="1.01045">
        <ele>1755</ele>
        <time>2010-01-01T02:01:16Z</time>
      </trkpt>
      <trkpt lat="42.76858" lon="1.01055">
        <ele>1758</ele>
        <time>2010-01-01T02:01:19Z</time>
      </trkpt>
      <trkpt lat="42.76855" lon="1.0106">
        <ele>1759</ele>
        <time>2010-01-01T02:01:21Z</time>
      </trkpt>
      <trkpt lat="42.76852" lon="1.01065">
        <ele>1760</ele>
        <time>2010-01-01T02:01:23Z</time>
      </trkpt>
      <trkpt lat="42.76847" lon="1.01072">
        <ele>1761</ele>
        <time>2010-01-01T02:01:25Z</time>
      </trkpt>
      <trkpt lat="42.7684" lon="1.01076">
        <ele>1762</ele>
        <time>2010-01-01T02:01:28Z</time>
      </trkpt>
      <trkpt lat="42.76835" lon="1.01082">
        <ele>1762</ele>
        <time>2010-01-01T02:01:31Z</time>
      </trkpt>
      <trkpt lat="42.76829" lon="1.01093">
        <ele>1764</ele>
        <time>2010-01-01T02:01:35Z</time>
      </trkpt>
      <trkpt lat="42.76824" lon="1.01102">
        <ele>1765</ele>
        <time>2010-01-01T02:01:38Z</time>
      </trkpt>
      <trkpt lat="42.76822" lon="1.0111">
        <ele>1765</ele>
        <time>2010-01-01T02:01:41Z</time>
      </trkpt>
      <trkpt lat="42.76819" lon="1.01121">
        <ele>1766</ele>
        <time>2010-01-01T02:01:44Z</time>
      </trkpt>
      <trkpt lat="42.76813" lon="1.0113">
        <ele>1767</ele>
        <time>2010-01-01T02:01:48Z</time>
      </trkpt>
      <trkpt lat="42.76811" lon="1.01137">
        <ele>1767</ele>
        <time>2010-01-01T02:01:50Z</time>
      </trkpt>
      <trkpt lat="42.76809" lon="1.01143">
        <ele>1768</ele>
        <time>2010-01-01T02:01:52Z</time>
      </trkpt>
      <trkpt lat="42.76807" lon="1.01147">
        <ele>1769</ele>
        <time>2010-01-01T02:01:53Z</time>
      </trkpt>
      <trkpt lat="42.76811" lon="1.01146">
        <ele>1770</ele>
        <time>2010-01-01T02:01:55Z</time>
      </trkpt>
      <trkpt lat="42.76807" lon="1.01154">
        <ele>1771</ele>
        <time>2010-01-01T02:01:58Z</time>
      </trkpt>
      <trkpt lat="42.76807" lon="1.01163">
        <ele>1774</ele>
        <time>2010-01-01T02:02:00Z</time>
      </trkpt>
      <trkpt lat="42.76806" lon="1.0117">
        <ele>1776</ele>
        <time>2010-01-01T02:02:02Z</time>
      </trkpt>
      <trkpt lat="42.76803" lon="1.01178">
        <ele>1778</ele>
        <time>2010-01-01T02:02:05Z</time>
      </trkpt>
      <trkpt lat="42.76801" lon="1.01187">
        <ele>1781</ele>
        <time>2010-01-01T02:02:08Z</time>
      </trkpt>
      <trkpt lat="42.76799" lon="1.01194">
        <ele>1783</ele>
        <time>2010-01-01T02:02:10Z</time>
      </trkpt>
      <trkpt lat="42.76798" lon="1.01201">
        <ele>1786</ele>
        <time>2010-01-01T02:02:12Z</time>
      </trkpt>
      <trkpt lat="42.76797" lon="1.01207">
        <ele>1788</ele>
        <time>2010-01-01T02:02:14Z</time>
      </trkpt>
      <trkpt lat="42.76798" lon="1.01206">
        <ele>1788</ele>
        <time>2010-01-01T02:02:15Z</time>
      </trkpt>
      <trkpt lat="42.76801" lon="1.01204">
        <ele>1787</ele>
        <time>2010-01-01T02:02:16Z</time>
      </trkpt>
      <trkpt lat="42.768" lon="1.01208">
        <ele>1789</ele>
        <time>2010-01-01T02:02:17Z</time>
      </trkpt>
      <trkpt lat="42.76797" lon="1.01213">
        <ele>1790</ele>
        <time>2010-01-01T02:02:19Z</time>
      </trkpt>
      <trkpt lat="42.76792" lon="1.0122">
        <ele>1793</ele>
        <time>2010-01-01T02:02:22Z</time>
      </trkpt>
      <trkpt lat="42.76781" lon="1.01232">
        <ele>1797</ele>
        <time>2010-01-01T02:02:28Z</time>
      </trkpt>
      <trkpt lat="42.76776" lon="1.01238">
        <ele>1799</ele>
        <time>2010-01-01T02:02:30Z</time>
      </trkpt>
      <trkpt lat="42.76775" lon="1.01239">
        <ele>1799</ele>
        <time>2010-01-01T02:02:31Z</time>
      </trkpt>
      <trkpt lat="42.76772" lon="1.01247">
        <ele>1802</ele>
        <time>2010-01-01T02:02:34Z</time>
      </trkpt>
      <trkpt lat="42.7677" lon="1.01259">
        <ele>1805</ele>
        <time>2010-01-01T02:02:37Z</time>
      </trkpt>
      <trkpt lat="42.76767" lon="1.01267">
        <ele>1806</ele>
        <time>2010-01-01T02:02:40Z</time>
      </trkpt>
      <trkpt lat="42.76762" lon="1.01273">
        <ele>1807</ele>
        <time>2010-01-01T02:02:43Z</time>
      </trkpt>
      <trkpt lat="42.76762" lon="1.01281">
        <ele>1809</ele>
        <time>2010-01-01T02:02:45Z</time>
      </trkpt>
      <trkpt lat="42.76761" lon="1.01287">
        <ele>1811</ele>
        <time>2010-01-01T02:02:47Z</time>
      </trkpt>
      <trkpt lat="42.76754" lon="1.01298">
        <ele>1813</ele>
        <time>2010-01-01T02:02:51Z</time>
      </trkpt>
      <trkpt lat="42.76753" lon="1.01306">
        <ele>1816</ele>
        <time>2010-01-01T02:02:53Z</time>
      </trkpt>
      <trkpt lat="42.76748" lon="1.0131">
        <ele>1817</ele>
        <time>2010-01-01T02:02:55Z</time>
      </trkpt>
      <trkpt lat="42.76745" lon="1.01317">
        <ele>1818</ele>
        <time>2010-01-01T02:02:58Z</time>
      </trkpt>
      <trkpt lat="42.76738" lon="1.01328">
        <ele>1821</ele>
        <time>2010-01-01T02:03:02Z</time>
      </trkpt>
      <trkpt lat="42.76732" lon="1.01333">
        <ele>1823</ele>
        <time>2010-01-01T02:03:05Z</time>
      </trkpt>
      <trkpt lat="42.76729" lon="1.01343">
        <ele>1826</ele>
        <time>2010-01-01T02:03:08Z</time>
      </trkpt>
      <trkpt lat="42.76725" lon="1.01351">
        <ele>1830</ele>
        <time>2010-01-01T02:03:11Z</time>
      </trkpt>
      <trkpt lat="42.76724" lon="1.0136">
        <ele>1833</ele>
        <time>2010-01-01T02:03:14Z</time>
      </trkpt>
      <trkpt lat="42.76717" lon="1.01366">
        <ele>1834</ele>
        <time>2010-01-01T02:03:17Z</time>
      </trkpt>
      <trkpt lat="42.76706" lon="1.01368">
        <ele>1834</ele>
        <time>2010-01-01T02:03:21Z</time>
      </trkpt>
      <trkpt lat="42.76697" lon="1.01374">
        <ele>1835</ele>
        <time>2010-01-01T02:03:25Z</time>
      </trkpt>
      <trkpt lat="42.76694" lon="1.01375">
        <ele>1835</ele>
        <time>2010-01-01T02:03:26Z</time>
      </trkpt>
      <trkpt lat="42.76694" lon="1.01376">
        <ele>1835</ele>
        <time>2010-01-01T02:03:27Z</time>
      </trkpt>
      <trkpt lat="42.76693" lon="1.01376">
        <ele>1835</ele>
        <time>2010-01-01T02:03:27Z</time>
      </trkpt>
      <trkpt lat="42.76688" lon="1.0138">
        <ele>1836</ele>
        <time>2010-01-01T02:03:29Z</time>
      </trkpt>
      <trkpt lat="42.76681" lon="1.01386">
        <ele>1837</ele>
        <time>2010-01-01T02:03:32Z</time>
      </trkpt>
      <trkpt lat="42.76674" lon="1.01396">
        <ele>1840</ele>
        <time>2010-01-01T02:03:37Z</time>
      </trkpt>
      <trkpt lat="42.7667" lon="1.01398">
        <ele>1840</ele>
        <time>2010-01-01T02:03:38Z</time>
      </trkpt>
      <trkpt lat="42.76665" lon="1.01406">
        <ele>1841</ele>
        <time>2010-01-01T02:03:41Z</time>
      </trkpt>
      <trkpt lat="42.76663" lon="1.01412">
        <ele>1842</ele>
        <time>2010-01-01T02:03:43Z</time>
      </trkpt>
      <trkpt lat="42.76664" lon="1.01412">
        <ele>1843</ele>
        <time>2010-01-01T02:03:44Z</time>
      </trkpt>
      <trkpt lat="42.76659" lon="1.01418">
        <ele>1844</ele>
        <time>2010-01-01T02:03:46Z</time>
      </trkpt>
      <trkpt lat="42.76653" lon="1.01423">
        <ele>1844</ele>
        <time>2010-01-01T02:03:49Z</time>
      </trkpt>
      <trkpt lat="42.76646" lon="1.01429">
        <ele>1845</ele>
        <time>2010-01-01T02:03:52Z</time>
      </trkpt>
      <trkpt lat="42.76637" lon="1.01439">
        <ele>1846</ele>
        <time>2010-01-01T02:03:57Z</time>
      </trkpt>
      <trkpt lat="42.76631" lon="1.0145">
        <ele>1847</ele>
        <time>2010-01-01T02:04:01Z</time>
      </trkpt>
      <trkpt lat="42.76626" lon="1.01456">
        <ele>1847</ele>
        <time>2010-01-01T02:04:04Z</time>
      </trkpt>
      <trkpt lat="42.76614" lon="1.01464">
        <ele>1846</ele>
        <time>2010-01-01T02:04:09Z</time>
      </trkpt>
      <trkpt lat="42.76612" lon="1.01469">
        <ele>1847</ele>
        <time>2010-01-01T02:04:10Z</time>
      </trkpt>
      <trkpt lat="42.76608" lon="1.01482">
        <ele>1849</ele>
        <time>2010-01-01T02:04:15Z</time>
      </trkpt>
      <trkpt lat="42.76603" lon="1.01492">
        <ele>1850</ele>
        <time>2010-01-01T02:04:18Z</time>
      </trkpt>
      <trkpt lat="42.76602" lon="1.01504">
        <ele>1853</ele>
        <time>2010-01-01T02:04:22Z</time>
      </trkpt>
      <trkpt lat="42.766" lon="1.01502">
        <ele>1852</ele>
        <time>2010-01-01T02:04:23Z</time>
      </trkpt>
      <trkpt lat="42.76597" lon="1.01502">
        <ele>1851</ele>
        <time>2010-01-01T02:04:24Z</time>
      </trkpt>
      <trkpt lat="42.7659" lon="1.01519">
        <ele>1851</ele>
        <time>2010-01-01T02:04:30Z</time>
      </trkpt>
      <trkpt lat="42.76589" lon="1.0153">
        <ele>1852</ele>
        <time>2010-01-01T02:04:33Z</time>
      </trkpt>
      <trkpt lat="42.76591" lon="1.01549">
        <ele>1853</ele>
        <time>2010-01-01T02:04:39Z</time>
      </trkpt>
      <trkpt lat="42.76591" lon="1.01558">
        <ele>1854</ele>
        <time>2010-01-01T02:04:41Z</time>
      </trkpt>
      <trkpt lat="42.76597" lon="1.01569">
        <ele>1856</ele>
        <time>2010-01-01T02:04:45Z</time>
      </trkpt>
      <trkpt lat="42.76604" lon="1.01579">
        <ele>1858</ele>
        <time>2010-01-01T02:04:49Z</time>
      </trkpt>
      <trkpt lat="42.76608" lon="1.01582">
        <ele>1860</ele>
        <time>2010-01-01T02:04:51Z</time>
      </trkpt>
      <trkpt lat="42.76612" lon="1.01589">
        <ele>1862</ele>
        <time>2010-01-01T02:04:54Z</time>
      </trkpt>
      <trkpt lat="42.76618" lon="1.01594">
        <ele>1866</ele>
        <time>2010-01-01T02:04:57Z</time>
      </trkpt>
      <trkpt lat="42.76623" lon="1.01593">
        <ele>1867</ele>
        <time>2010-01-01T02:04:58Z</time>
      </trkpt>
      <trkpt lat="42.76625" lon="1.01601">
        <ele>1869</ele>
        <time>2010-01-01T02:05:01Z</time>
      </trkpt>
      <trkpt lat="42.76631" lon="1.01606">
        <ele>1872</ele>
        <time>2010-01-01T02:05:04Z</time>
      </trkpt>
      <trkpt lat="42.76634" lon="1.01616">
        <ele>1875</ele>
        <time>2010-01-01T02:05:07Z</time>
      </trkpt>
      <trkpt lat="42.76637" lon="1.01619">
        <ele>1877</ele>
        <time>2010-01-01T02:05:08Z</time>
      </trkpt>
      <trkpt lat="42.7664" lon="1.01622">
        <ele>1878</ele>
        <time>2010-01-01T02:05:10Z</time>
      </trkpt>
      <trkpt lat="42.76646" lon="1.01621">
        <ele>1880</ele>
        <time>2010-01-01T02:05:12Z</time>
      </trkpt>
      <trkpt lat="42.76648" lon="1.01618">
        <ele>1880</ele>
        <time>2010-01-01T02:05:13Z</time>
      </trkpt>
      <trkpt lat="42.76655" lon="1.01619">
        <ele>1881</ele>
        <time>2010-01-01T02:05:16Z</time>
      </trkpt>
      <trkpt lat="42.76659" lon="1.01622">
        <ele>1883</ele>
        <time>2010-01-01T02:05:18Z</time>
      </trkpt>
      <trkpt lat="42.76661" lon="1.01619">
        <ele>1883</ele>
        <time>2010-01-01T02:05:19Z</time>
      </trkpt>
      <trkpt lat="42.76669" lon="1.01619">
        <ele>1885</ele>
        <time>2010-01-01T02:05:23Z</time>
      </trkpt>
      <trkpt lat="42.76672" lon="1.01621">
        <ele>1886</ele>
        <time>2010-01-01T02:05:24Z</time>
      </trkpt>
      <trkpt lat="42.76679" lon="1.01618">
        <ele>1886</ele>
        <time>2010-01-01T02:05:27Z</time>
      </trkpt>
      <trkpt lat="42.76679" lon="1.01628">
        <ele>1888</ele>
        <time>2010-01-01T02:05:30Z</time>
      </trkpt>
      <trkpt lat="42.76679" lon="1.0163">
        <ele>1889</ele>
        <time>2010-01-01T02:05:30Z</time>
      </trkpt>
      <trkpt lat="42.76673" lon="1.01656">
        <ele>1893</ele>
        <time>2010-01-01T02:05:38Z</time>
      </trkpt>
      <trkpt lat="42.76672" lon="1.01659">
        <ele>1893</ele>
        <time>2010-01-01T02:05:39Z</time>
      </trkpt>
      <trkpt lat="42.76672" lon="1.0166">
        <ele>1894</ele>
        <time>2010-01-01T02:05:40Z</time>
      </trkpt>
      <trkpt lat="42.76667" lon="1.01677">
        <ele>1895</ele>
        <time>2010-01-01T02:05:45Z</time>
      </trkpt>
      <trkpt lat="42.76666" lon="1.01685">
        <ele>1896</ele>
        <time>2010-01-01T02:05:48Z</time>
      </trkpt>
      <trkpt lat="42.76671" lon="1.01702">
        <ele>1900</ele>
        <time>2010-01-01T02:05:53Z</time>
      </trkpt>
      <trkpt lat="42.76671" lon="1.0171">
        <ele>1901</ele>
        <time>2010-01-01T02:05:55Z</time>
      </trkpt>
      <trkpt lat="42.7667" lon="1.01724">
        <ele>1903</ele>
        <time>2010-01-01T02:05:59Z</time>
      </trkpt>
      <trkpt lat="42.76667" lon="1.01739">
        <ele>1903</ele>
        <time>2010-01-01T02:06:04Z</time>
      </trkpt>
      <trkpt lat="42.76666" lon="1.01754">
        <ele>1905</ele>
        <time>2010-01-01T02:06:08Z</time>
      </trkpt>
      <trkpt lat="42.76665" lon="1.01767">
        <ele>1907</ele>
        <time>2010-01-01T02:06:12Z</time>
      </trkpt>
      <trkpt lat="42.76664" lon="1.0178">
        <ele>1908</ele>
        <time>2010-01-01T02:06:16Z</time>
      </trkpt>
      <trkpt lat="42.76662" lon="1.01796">
        <ele>1909</ele>
        <time>2010-01-01T02:06:21Z</time>
      </trkpt>
      <trkpt lat="42.76656" lon="1.01819">
        <ele>1910</ele>
        <time>2010-01-01T02:06:28Z</time>
      </trkpt>
      <trkpt lat="42.76653" lon="1.01838">
        <ele>1912</ele>
        <time>2010-01-01T02:06:34Z</time>
      </trkpt>
      <trkpt lat="42.76653" lon="1.01844">
        <ele>1913</ele>
        <time>2010-01-01T02:06:35Z</time>
      </trkpt>
      <trkpt lat="42.76653" lon="1.01848">
        <ele>1914</ele>
        <time>2010-01-01T02:06:37Z</time>
      </trkpt>
      <trkpt lat="42.76653" lon="1.01863">
        <ele>1916</ele>
        <time>2010-01-01T02:06:41Z</time>
      </trkpt>
      <trkpt lat="42.76653" lon="1.0187">
        <ele>1918</ele>
        <time>2010-01-01T02:06:43Z</time>
      </trkpt>
      <trkpt lat="42.76652" lon="1.019">
        <ele>1924</ele>
        <time>2010-01-01T02:06:52Z</time>
      </trkpt>
      <trkpt lat="42.76652" lon="1.01914">
        <ele>1928</ele>
        <time>2010-01-01T02:06:56Z</time>
      </trkpt>
      <trkpt lat="42.76655" lon="1.01928">
        <ele>1932</ele>
        <time>2010-01-01T02:07:00Z</time>
      </trkpt>
      <trkpt lat="42.76653" lon="1.01942">
        <ele>1935</ele>
        <time>2010-01-01T02:07:05Z</time>
      </trkpt>
      <trkpt lat="42.76647" lon="1.0195">
        <ele>1934</ele>
        <time>2010-01-01T02:07:08Z</time>
      </trkpt>
      <trkpt lat="42.76644" lon="1.01969">
        <ele>1936</ele>
        <time>2010-01-01T02:07:14Z</time>
      </trkpt>
      <trkpt lat="42.76638" lon="1.01991">
        <ele>1936</ele>
        <time>2010-01-01T02:07:21Z</time>
      </trkpt>
      <trkpt lat="42.76627" lon="1.02011">
        <ele>1934</ele>
        <time>2010-01-01T02:07:28Z</time>
      </trkpt>
      <trkpt lat="42.76627" lon="1.02012">
        <ele>1934</ele>
        <time>2010-01-01T02:07:28Z</time>
      </trkpt>
      <trkpt lat="42.76621" lon="1.02026">
        <ele>1934</ele>
        <time>2010-01-01T02:07:33Z</time>
      </trkpt>
      <trkpt lat="42.76612" lon="1.02049">
        <ele>1933</ele>
        <time>2010-01-01T02:07:40Z</time>
      </trkpt>
      <trkpt lat="42.76607" lon="1.02064">
        <ele>1932</ele>
        <time>2010-01-01T02:07:45Z</time>
      </trkpt>
      <trkpt lat="42.76607" lon="1.02087">
        <ele>1936</ele>
        <time>2010-01-01T02:07:52Z</time>
      </trkpt>
      <trkpt lat="42.76608" lon="1.02097">
        <ele>1938</ele>
        <time>2010-01-01T02:07:55Z</time>
      </trkpt>
      <trkpt lat="42.76602" lon="1.02115">
        <ele>1938</ele>
        <time>2010-01-01T02:08:01Z</time>
      </trkpt>
      <trkpt lat="42.76587" lon="1.02139">
        <ele>1935</ele>
        <time>2010-01-01T02:08:10Z</time>
      </trkpt>
      <trkpt lat="42.76586" lon="1.02142">
        <ele>1935</ele>
        <time>2010-01-01T02:08:11Z</time>
      </trkpt>
      <trkpt lat="42.76583" lon="1.02162">
        <ele>1937</ele>
        <time>2010-01-01T02:08:17Z</time>
      </trkpt>
      <trkpt lat="42.76579" lon="1.02175">
        <ele>1937</ele>
        <time>2010-01-01T02:08:21Z</time>
      </trkpt>
      <trkpt lat="42.7658" lon="1.02188">
        <ele>1940</ele>
        <time>2010-01-01T02:08:25Z</time>
      </trkpt>
      <trkpt lat="42.76584" lon="1.02204">
        <ele>1946</ele>
        <time>2010-01-01T02:08:30Z</time>
      </trkpt>
      <trkpt lat="42.76588" lon="1.02225">
        <ele>1955</ele>
        <time>2010-01-01T02:08:36Z</time>
      </trkpt>
      <trkpt lat="42.76589" lon="1.02245">
        <ele>1959</ele>
        <time>2010-01-01T02:08:42Z</time>
      </trkpt>
      <trkpt lat="42.76597" lon="1.0225">
        <ele>1965</ele>
        <time>2010-01-01T02:08:46Z</time>
      </trkpt>
      <trkpt lat="42.76603" lon="1.02262">
        <ele>1971</ele>
        <time>2010-01-01T02:08:50Z</time>
      </trkpt>
      <trkpt lat="42.76606" lon="1.02275">
        <ele>1974</ele>
        <time>2010-01-01T02:08:54Z</time>
      </trkpt>
      <trkpt lat="42.76604" lon="1.02286">
        <ele>1975</ele>
        <time>2010-01-01T02:08:57Z</time>
      </trkpt>
      <trkpt lat="42.76595" lon="1.02294">
        <ele>1973</ele>
        <time>2010-01-01T02:09:01Z</time>
      </trkpt>
      <trkpt lat="42.76589" lon="1.02305">
        <ele>1973</ele>
        <time>2010-01-01T02:09:06Z</time>
      </trkpt>
      <trkpt lat="42.76587" lon="1.0231">
        <ele>1973</ele>
        <time>2010-01-01T02:09:07Z</time>
      </trkpt>
      <trkpt lat="42.76581" lon="1.02315">
        <ele>1972</ele>
        <time>2010-01-01T02:09:10Z</time>
      </trkpt>
      <trkpt lat="42.76574" lon="1.02312">
        <ele>1967</ele>
        <time>2010-01-01T02:09:13Z</time>
      </trkpt>
      <trkpt lat="42.76571" lon="1.02309">
        <ele>1965</ele>
        <time>2010-01-01T02:09:15Z</time>
      </trkpt>
      <trkpt lat="42.76573" lon="1.0232">
        <ele>1969</ele>
        <time>2010-01-01T02:09:18Z</time>
      </trkpt>
      <trkpt lat="42.7657" lon="1.02322">
        <ele>1968</ele>
        <time>2010-01-01T02:09:19Z</time>
      </trkpt>
      <trkpt lat="42.76567" lon="1.02327">
        <ele>1968</ele>
        <time>2010-01-01T02:09:21Z</time>
      </trkpt>
      <trkpt lat="42.76566" lon="1.02341">
        <ele>1971</ele>
        <time>2010-01-01T02:09:25Z</time>
      </trkpt>
      <trkpt lat="42.76568" lon="1.02342">
        <ele>1972</ele>
        <time>2010-01-01T02:09:26Z</time>
      </trkpt>
      <trkpt lat="42.76571" lon="1.02362">
        <ele>1979</ele>
        <time>2010-01-01T02:09:32Z</time>
      </trkpt>
      <trkpt lat="42.76568" lon="1.02377">
        <ele>1982</ele>
        <time>2010-01-01T02:09:37Z</time>
      </trkpt>
      <trkpt lat="42.7656" lon="1.02393">
        <ele>1981</ele>
        <time>2010-01-01T02:09:42Z</time>
      </trkpt>
      <trkpt lat="42.76552" lon="1.02409">
        <ele>1981</ele>
        <time>2010-01-01T02:09:48Z</time>
      </trkpt>
      <trkpt lat="42.76545" lon="1.02422">
        <ele>1981</ele>
        <time>2010-01-01T02:09:53Z</time>
      </trkpt>
      <trkpt lat="42.76542" lon="1.02441">
        <ele>1984</ele>
        <time>2010-01-01T02:09:58Z</time>
      </trkpt>
      <trkpt lat="42.76533" lon="1.02444">
        <ele>1980</ele>
        <time>2010-01-01T02:10:02Z</time>
      </trkpt>
      <trkpt lat="42.76534" lon="1.02448">
        <ele>1981</ele>
        <time>2010-01-01T02:10:03Z</time>
      </trkpt>
      <trkpt lat="42.76534" lon="1.02456">
        <ele>1982</ele>
        <time>2010-01-01T02:10:05Z</time>
      </trkpt>
      <trkpt lat="42.76528" lon="1.02473">
        <ele>1983</ele>
        <time>2010-01-01T02:10:11Z</time>
      </trkpt>
      <trkpt lat="42.76523" lon="1.0249">
        <ele>1982</ele>
        <time>2010-01-01T02:10:16Z</time>
      </trkpt>
      <trkpt lat="42.76523" lon="1.02503">
        <ele>1984</ele>
        <time>2010-01-01T02:10:20Z</time>
      </trkpt>
      <trkpt lat="42.76526" lon="1.02515">
        <ele>1985</ele>
        <time>2010-01-01T02:10:24Z</time>
      </trkpt>
      <trkpt lat="42.76532" lon="1.02521">
        <ele>1986</ele>
        <time>2010-01-01T02:10:27Z</time>
      </trkpt>
      <trkpt lat="42.76537" lon="1.02524">
        <ele>1985</ele>
        <time>2010-01-01T02:10:29Z</time>
      </trkpt>
      <trkpt lat="42.76539" lon="1.02526">
        <ele>1985</ele>
        <time>2010-01-01T02:10:30Z</time>
      </trkpt>
      <trkpt lat="42.7654" lon="1.02524">
        <ele>1985</ele>
        <time>2010-01-01T02:10:31Z</time>
      </trkpt>
      <trkpt lat="42.76541" lon="1.02524">
        <ele>1985</ele>
        <time>2010-01-01T02:10:31Z</time>
      </trkpt>
      <trkpt lat="42.7654" lon="1.02525">
        <ele>1985</ele>
        <time>2010-01-01T02:10:32Z</time>
      </trkpt>
      <trkpt lat="42.7654" lon="1.02524">
        <ele>1985</ele>
        <time>2010-01-01T02:10:32Z</time>
      </trkpt>
      <trkpt lat="42.76539" lon="1.02525">
        <ele>1985</ele>
        <time>2010-01-01T02:10:32Z</time>
      </trkpt>
      <trkpt lat="42.76542" lon="1.02521">
        <ele>1985</ele>
        <time>2010-01-01T02:10:34Z</time>
      </trkpt>
      <trkpt lat="42.76543" lon="1.02524">
        <ele>1985</ele>
        <time>2010-01-01T02:10:35Z</time>
      </trkpt>
      <trkpt lat="42.76543" lon="1.02521">
        <ele>1985</ele>
        <time>2010-01-01T02:10:35Z</time>
      </trkpt>
      <trkpt lat="42.76543" lon="1.02522">
        <ele>1985</ele>
        <time>2010-01-01T02:10:35Z</time>
      </trkpt>
      <trkpt lat="42.76548" lon="1.02533">
        <ele>1982</ele>
        <time>2010-01-01T02:10:39Z</time>
      </trkpt>
      <trkpt lat="42.76549" lon="1.02536">
        <ele>1981</ele>
        <time>2010-01-01T02:10:40Z</time>
      </trkpt>
      <trkpt lat="42.76556" lon="1.02546">
        <ele>1977</ele>
        <time>2010-01-01T02:10:44Z</time>
      </trkpt>
      <trkpt lat="42.7656" lon="1.02538">
        <ele>1979</ele>
        <time>2010-01-01T02:10:47Z</time>
      </trkpt>
      <trkpt lat="42.76565" lon="1.02538">
        <ele>1978</ele>
        <time>2010-01-01T02:10:49Z</time>
      </trkpt>
      <trkpt lat="42.76571" lon="1.02538">
        <ele>1976</ele>
        <time>2010-01-01T02:10:51Z</time>
      </trkpt>
      <trkpt lat="42.76577" lon="1.02542">
        <ele>1973</ele>
        <time>2010-01-01T02:10:54Z</time>
      </trkpt>
      <trkpt lat="42.76583" lon="1.02544">
        <ele>1971</ele>
        <time>2010-01-01T02:10:56Z</time>
      </trkpt>
      <trkpt lat="42.76587" lon="1.02549">
        <ele>1967</ele>
        <time>2010-01-01T02:10:59Z</time>
      </trkpt>
      <trkpt lat="42.76588" lon="1.02549">
        <ele>1967</ele>
        <time>2010-01-01T02:10:59Z</time>
      </trkpt>
      <trkpt lat="42.76592" lon="1.02547">
        <ele>1967</ele>
        <time>2010-01-01T02:11:01Z</time>
      </trkpt>
      <trkpt lat="42.76599" lon="1.02552">
        <ele>1962</ele>
        <time>2010-01-01T02:11:04Z</time>
      </trkpt>
      <trkpt lat="42.76605" lon="1.02555">
        <ele>1960</ele>
        <time>2010-01-01T02:11:06Z</time>
      </trkpt>
      <trkpt lat="42.76608" lon="1.02556">
        <ele>1958</ele>
        <time>2010-01-01T02:11:08Z</time>
      </trkpt>
      <trkpt lat="42.76617" lon="1.02557">
        <ele>1956</ele>
        <time>2010-01-01T02:11:11Z</time>
      </trkpt>
      <trkpt lat="42.76627" lon="1.02556">
        <ele>1955</ele>
        <time>2010-01-01T02:11:16Z</time>
      </trkpt>
      <trkpt lat="42.76628" lon="1.02556">
        <ele>1955</ele>
        <time>2010-01-01T02:11:16Z</time>
      </trkpt>
      <trkpt lat="42.76634" lon="1.02556">
        <ele>1954</ele>
        <time>2010-01-01T02:11:18Z</time>
      </trkpt>
      <trkpt lat="42.76638" lon="1.02559">
        <ele>1952</ele>
        <time>2010-01-01T02:11:20Z</time>
      </trkpt>
      <trkpt lat="42.76641" lon="1.02562">
        <ele>1951</ele>
        <time>2010-01-01T02:11:22Z</time>
      </trkpt>
      <trkpt lat="42.76655" lon="1.02568">
        <ele>1946</ele>
        <time>2010-01-01T02:11:27Z</time>
      </trkpt>
      <trkpt lat="42.76673" lon="1.02581">
        <ele>1937</ele>
        <time>2010-01-01T02:11:35Z</time>
      </trkpt>
      <trkpt lat="42.7668" lon="1.02583">
        <ele>1936</ele>
        <time>2010-01-01T02:11:38Z</time>
      </trkpt>
      <trkpt lat="42.76701" lon="1.02588">
        <ele>1934</ele>
        <time>2010-01-01T02:11:47Z</time>
      </trkpt>
      <trkpt lat="42.76722" lon="1.02593">
        <ele>1937</ele>
        <time>2010-01-01T02:11:56Z</time>
      </trkpt>
      <trkpt lat="42.76727" lon="1.02596">
        <ele>1937</ele>
        <time>2010-01-01T02:11:58Z</time>
      </trkpt>
      <trkpt lat="42.76739" lon="1.02613">
        <ele>1936</ele>
        <time>2010-01-01T02:12:04Z</time>
      </trkpt>
      <trkpt lat="42.76748" lon="1.02616">
        <ele>1937</ele>
        <time>2010-01-01T02:12:08Z</time>
      </trkpt>
      <trkpt lat="42.76759" lon="1.02621">
        <ele>1938</ele>
        <time>2010-01-01T02:12:13Z</time>
      </trkpt>
      <trkpt lat="42.76765" lon="1.02623">
        <ele>1938</ele>
        <time>2010-01-01T02:12:15Z</time>
      </trkpt>
      <trkpt lat="42.76768" lon="1.02625">
        <ele>1938</ele>
        <time>2010-01-01T02:12:17Z</time>
      </trkpt>
      <trkpt lat="42.76789" lon="1.02635">
        <ele>1939</ele>
        <time>2010-01-01T02:12:25Z</time>
      </trkpt>
      <trkpt lat="42.76793" lon="1.02637">
        <ele>1939</ele>
        <time>2010-01-01T02:12:27Z</time>
      </trkpt>
      <trkpt lat="42.7681" lon="1.02646">
        <ele>1939</ele>
        <time>2010-01-01T02:12:35Z</time>
      </trkpt>
      <trkpt lat="42.76819" lon="1.02653">
        <ele>1940</ele>
        <time>2010-01-01T02:12:39Z</time>
      </trkpt>
      <trkpt lat="42.76824" lon="1.02661">
        <ele>1938</ele>
        <time>2010-01-01T02:12:42Z</time>
      </trkpt>
      <trkpt lat="42.76826" lon="1.02663">
        <ele>1938</ele>
        <time>2010-01-01T02:12:43Z</time>
      </trkpt>
      <trkpt lat="42.76828" lon="1.02668">
        <ele>1937</ele>
        <time>2010-01-01T02:12:45Z</time>
      </trkpt>
      <trkpt lat="42.76832" lon="1.02673">
        <ele>1938</ele>
        <time>2010-01-01T02:12:47Z</time>
      </trkpt>
      <trkpt lat="42.76841" lon="1.02685">
        <ele>1940</ele>
        <time>2010-01-01T02:12:52Z</time>
      </trkpt>
      <trkpt lat="42.76854" lon="1.02698">
        <ele>1942</ele>
        <time>2010-01-01T02:12:58Z</time>
      </trkpt>
      <trkpt lat="42.76857" lon="1.02705">
        <ele>1943</ele>
        <time>2010-01-01T02:13:01Z</time>
      </trkpt>
      <trkpt lat="42.76863" lon="1.02711">
        <ele>1944</ele>
        <time>2010-01-01T02:13:04Z</time>
      </trkpt>
      <trkpt lat="42.7687" lon="1.02727">
        <ele>1945</ele>
        <time>2010-01-01T02:13:09Z</time>
      </trkpt>
      <trkpt lat="42.76869" lon="1.02734">
        <ele>1946</ele>
        <time>2010-01-01T02:13:11Z</time>
      </trkpt>
      <trkpt lat="42.76866" lon="1.02751">
        <ele>1947</ele>
        <time>2010-01-01T02:13:16Z</time>
      </trkpt>
      <trkpt lat="42.76867" lon="1.02753">
        <ele>1947</ele>
        <time>2010-01-01T02:13:17Z</time>
      </trkpt>
      <trkpt lat="42.76872" lon="1.02768">
        <ele>1949</ele>
        <time>2010-01-01T02:13:22Z</time>
      </trkpt>
      <trkpt lat="42.76876" lon="1.02781">
        <ele>1950</ele>
        <time>2010-01-01T02:13:26Z</time>
      </trkpt>
      <trkpt lat="42.76883" lon="1.02785">
        <ele>1951</ele>
        <time>2010-01-01T02:13:29Z</time>
      </trkpt>
      <trkpt lat="42.7689" lon="1.02784">
        <ele>1951</ele>
        <time>2010-01-01T02:13:32Z</time>
      </trkpt>
      <trkpt lat="42.76899" lon="1.02792">
        <ele>1953</ele>
        <time>2010-01-01T02:13:36Z</time>
      </trkpt>
      <trkpt lat="42.76904" lon="1.02805">
        <ele>1955</ele>
        <time>2010-01-01T02:13:40Z</time>
      </trkpt>
      <trkpt lat="42.76913" lon="1.02812">
        <ele>1957</ele>
        <time>2010-01-01T02:13:45Z</time>
      </trkpt>
      <trkpt lat="42.76919" lon="1.0281">
        <ele>1957</ele>
        <time>2010-01-01T02:13:47Z</time>
      </trkpt>
      <trkpt lat="42.76927" lon="1.02817">
        <ele>1959</ele>
        <time>2010-01-01T02:13:51Z</time>
      </trkpt>
      <trkpt lat="42.76937" lon="1.02824">
        <ele>1961</ele>
        <time>2010-01-01T02:13:55Z</time>
      </trkpt>
      <trkpt lat="42.76946" lon="1.02825">
        <ele>1962</ele>
        <time>2010-01-01T02:13:59Z</time>
      </trkpt>
      <trkpt lat="42.76953" lon="1.0282">
        <ele>1963</ele>
        <time>2010-01-01T02:14:02Z</time>
      </trkpt>
      <trkpt lat="42.76965" lon="1.02817">
        <ele>1964</ele>
        <time>2010-01-01T02:14:07Z</time>
      </trkpt>
      <trkpt lat="42.76965" lon="1.02804">
        <ele>1963</ele>
        <time>2010-01-01T02:14:11Z</time>
      </trkpt>
      <trkpt lat="42.76961" lon="1.02792">
        <ele>1964</ele>
        <time>2010-01-01T02:14:15Z</time>
      </trkpt>
      <trkpt lat="42.76966" lon="1.02785">
        <ele>1966</ele>
        <time>2010-01-01T02:14:18Z</time>
      </trkpt>
      <trkpt lat="42.76979" lon="1.02785">
        <ele>1971</ele>
        <time>2010-01-01T02:14:23Z</time>
      </trkpt>
      <trkpt lat="42.76989" lon="1.0279">
        <ele>1975</ele>
        <time>2010-01-01T02:14:27Z</time>
      </trkpt>
      <trkpt lat="42.76998" lon="1.02795">
        <ele>1977</ele>
        <time>2010-01-01T02:14:31Z</time>
      </trkpt>
      <trkpt lat="42.77006" lon="1.02801">
        <ele>1979</ele>
        <time>2010-01-01T02:14:35Z</time>
      </trkpt>
      <trkpt lat="42.77014" lon="1.02802">
        <ele>1981</ele>
        <time>2010-01-01T02:14:38Z</time>
      </trkpt>
      <trkpt lat="42.77018" lon="1.02802">
        <ele>1982</ele>
        <time>2010-01-01T02:14:40Z</time>
      </trkpt>
      <trkpt lat="42.77023" lon="1.02812">
        <ele>1983</ele>
        <time>2010-01-01T02:14:43Z</time>
      </trkpt>
      <trkpt lat="42.77024" lon="1.02812">
        <ele>1983</ele>
        <time>2010-01-01T02:14:44Z</time>
      </trkpt>
      <trkpt lat="42.77024" lon="1.02808">
        <ele>1983</ele>
        <time>2010-01-01T02:14:44Z</time>
      </trkpt>
      <trkpt lat="42.77029" lon="1.02812">
        <ele>1985</ele>
        <time>2010-01-01T02:14:47Z</time>
      </trkpt>
      <trkpt lat="42.77036" lon="1.02819">
        <ele>1988</ele>
        <time>2010-01-01T02:14:50Z</time>
      </trkpt>
      <trkpt lat="42.77036" lon="1.02827">
        <ele>1988</ele>
        <time>2010-01-01T02:14:53Z</time>
      </trkpt>
      <trkpt lat="42.77035" lon="1.02832">
        <ele>1987</ele>
        <time>2010-01-01T02:14:54Z</time>
      </trkpt>
      <trkpt lat="42.77041" lon="1.02837">
        <ele>1990</ele>
        <time>2010-01-01T02:14:57Z</time>
      </trkpt>
      <trkpt lat="42.7705" lon="1.02838">
        <ele>1993</ele>
        <time>2010-01-01T02:15:01Z</time>
      </trkpt>
      <trkpt lat="42.77059" lon="1.02841">
        <ele>1997</ele>
        <time>2010-01-01T02:15:04Z</time>
      </trkpt>
      <trkpt lat="42.77067" lon="1.02841">
        <ele>1999</ele>
        <time>2010-01-01T02:15:07Z</time>
      </trkpt>
      <trkpt lat="42.77078" lon="1.02837">
        <ele>2002</ele>
        <time>2010-01-01T02:15:12Z</time>
      </trkpt>
      <trkpt lat="42.77089" lon="1.02828">
        <ele>2010</ele>
        <time>2010-01-01T02:15:17Z</time>
      </trkpt>
      <trkpt lat="42.77096" lon="1.02828">
        <ele>2012</ele>
        <time>2010-01-01T02:15:20Z</time>
      </trkpt>
      <trkpt lat="42.77098" lon="1.02829">
        <ele>2013</ele>
        <time>2010-01-01T02:15:21Z</time>
      </trkpt>
      <trkpt lat="42.7711" lon="1.02829">
        <ele>2018</ele>
        <time>2010-01-01T02:15:26Z</time>
      </trkpt>
      <trkpt lat="42.77119" lon="1.02827">
        <ele>2021</ele>
        <time>2010-01-01T02:15:29Z</time>
      </trkpt>
      <trkpt lat="42.77118" lon="1.02837">
        <ele>2020</ele>
        <time>2010-01-01T02:15:32Z</time>
      </trkpt>
      <trkpt lat="42.77116" lon="1.02848">
        <ele>2020</ele>
        <time>2010-01-01T02:15:35Z</time>
      </trkpt>
      <trkpt lat="42.77117" lon="1.02857">
        <ele>2021</ele>
        <time>2010-01-01T02:15:38Z</time>
      </trkpt>
      <trkpt lat="42.77115" lon="1.02867">
        <ele>2022</ele>
        <time>2010-01-01T02:15:41Z</time>
      </trkpt>
      <trkpt lat="42.77119" lon="1.02874">
        <ele>2025</ele>
        <time>2010-01-01T02:15:44Z</time>
      </trkpt>
      <trkpt lat="42.77117" lon="1.0289">
        <ele>2026</ele>
        <time>2010-01-01T02:15:48Z</time>
      </trkpt>
      <trkpt lat="42.77121" lon="1.02902">
        <ele>2029</ele>
        <time>2010-01-01T02:15:52Z</time>
      </trkpt>
      <trkpt lat="42.77128" lon="1.02919">
        <ele>2032</ele>
        <time>2010-01-01T02:15:58Z</time>
      </trkpt>
      <trkpt lat="42.77129" lon="1.02924">
        <ele>2032</ele>
        <time>2010-01-01T02:15:59Z</time>
      </trkpt>
      <trkpt lat="42.77133" lon="1.02936">
        <ele>2033</ele>
        <time>2010-01-01T02:16:04Z</time>
      </trkpt>
      <trkpt lat="42.77139" lon="1.02949">
        <ele>2035</ele>
        <time>2010-01-01T02:16:08Z</time>
      </trkpt>
      <trkpt lat="42.77149" lon="1.02957">
        <ele>2039</ele>
        <time>2010-01-01T02:16:13Z</time>
      </trkpt>
      <trkpt lat="42.77152" lon="1.02957">
        <ele>2040</ele>
        <time>2010-01-01T02:16:14Z</time>
      </trkpt>
      <trkpt lat="42.77154" lon="1.02963">
        <ele>2041</ele>
        <time>2010-01-01T02:16:16Z</time>
      </trkpt>
      <trkpt lat="42.77162" lon="1.02979">
        <ele>2046</ele>
        <time>2010-01-01T02:16:22Z</time>
      </trkpt>
      <trkpt lat="42.77163" lon="1.02996">
        <ele>2052</ele>
        <time>2010-01-01T02:16:26Z</time>
      </trkpt>
      <trkpt lat="42.77169" lon="1.03009">
        <ele>2056</ele>
        <time>2010-01-01T02:16:31Z</time>
      </trkpt>
      <trkpt lat="42.77172" lon="1.03012">
        <ele>2057</ele>
        <time>2010-01-01T02:16:32Z</time>
      </trkpt>
      <trkpt lat="42.77181" lon="1.03017">
        <ele>2056</ele>
        <time>2010-01-01T02:16:36Z</time>
      </trkpt>
      <trkpt lat="42.77186" lon="1.03017">
        <ele>2055</ele>
        <time>2010-01-01T02:16:38Z</time>
      </trkpt>
      <trkpt lat="42.77187" lon="1.03019">
        <ele>2055</ele>
        <time>2010-01-01T02:16:39Z</time>
      </trkpt>
      <trkpt lat="42.77202" lon="1.03043">
        <ele>2057</ele>
        <time>2010-01-01T02:16:48Z</time>
      </trkpt>
      <trkpt lat="42.7721" lon="1.03057">
        <ele>2058</ele>
        <time>2010-01-01T02:16:53Z</time>
      </trkpt>
      <trkpt lat="42.7722" lon="1.03057">
        <ele>2057</ele>
        <time>2010-01-01T02:16:58Z</time>
      </trkpt>
      <trkpt lat="42.77227" lon="1.0307">
        <ele>2059</ele>
        <time>2010-01-01T02:17:02Z</time>
      </trkpt>
      <trkpt lat="42.77229" lon="1.03078">
        <ele>2060</ele>
        <time>2010-01-01T02:17:05Z</time>
      </trkpt>
      <trkpt lat="42.77229" lon="1.03087">
        <ele>2062</ele>
        <time>2010-01-01T02:17:07Z</time>
      </trkpt>
      <trkpt lat="42.77228" lon="1.03085">
        <ele>2061</ele>
        <time>2010-01-01T02:17:08Z</time>
      </trkpt>
      <trkpt lat="42.77229" lon="1.03089">
        <ele>2063</ele>
        <time>2010-01-01T02:17:10Z</time>
      </trkpt>
      <trkpt lat="42.77234" lon="1.03105">
        <ele>2067</ele>
        <time>2010-01-01T02:17:15Z</time>
      </trkpt>
      <trkpt lat="42.77242" lon="1.03113">
        <ele>2069</ele>
        <time>2010-01-01T02:17:19Z</time>
      </trkpt>
      <trkpt lat="42.77239" lon="1.03127">
        <ele>2074</ele>
        <time>2010-01-01T02:17:23Z</time>
      </trkpt>
      <trkpt lat="42.77238" lon="1.03139">
        <ele>2077</ele>
        <time>2010-01-01T02:17:26Z</time>
      </trkpt>
      <trkpt lat="42.77239" lon="1.03139">
        <ele>2077</ele>
        <time>2010-01-01T02:17:27Z</time>
      </trkpt>
      <trkpt lat="42.77247" lon="1.03141">
        <ele>2076</ele>
        <time>2010-01-01T02:17:30Z</time>
      </trkpt>
      <trkpt lat="42.77258" lon="1.03141">
        <ele>2077</ele>
        <time>2010-01-01T02:17:34Z</time>
      </trkpt>
      <trkpt lat="42.77262" lon="1.03146">
        <ele>2078</ele>
        <time>2010-01-01T02:17:36Z</time>
      </trkpt>
      <trkpt lat="42.77275" lon="1.03145">
        <ele>2079</ele>
        <time>2010-01-01T02:17:42Z</time>
      </trkpt>
      <trkpt lat="42.77279" lon="1.03152">
        <ele>2081</ele>
        <time>2010-01-01T02:17:44Z</time>
      </trkpt>
      <trkpt lat="42.77283" lon="1.03154">
        <ele>2083</ele>
        <time>2010-01-01T02:17:46Z</time>
      </trkpt>
      <trkpt lat="42.77285" lon="1.03155">
        <ele>2084</ele>
        <time>2010-01-01T02:17:47Z</time>
      </trkpt>
      <trkpt lat="42.77288" lon="1.03148">
        <ele>2084</ele>
        <time>2010-01-01T02:17:49Z</time>
      </trkpt>
      <trkpt lat="42.77287" lon="1.0315">
        <ele>2084</ele>
        <time>2010-01-01T02:17:50Z</time>
      </trkpt>
      <trkpt lat="42.77288" lon="1.03155">
        <ele>2085</ele>
        <time>2010-01-01T02:17:52Z</time>
      </trkpt>
      <trkpt lat="42.7729" lon="1.03155">
        <ele>2085</ele>
        <time>2010-01-01T02:17:53Z</time>
      </trkpt>
      <trkpt lat="42.77292" lon="1.03156">
        <ele>2087</ele>
        <time>2010-01-01T02:17:54Z</time>
      </trkpt>
      <trkpt lat="42.77288" lon="1.03155">
        <ele>2085</ele>
        <time>2010-01-01T02:17:56Z</time>
      </trkpt>
      <trkpt lat="42.7729" lon="1.03155">
        <ele>2085</ele>
        <time>2010-01-01T02:17:57Z</time>
      </trkpt>
      <trkpt lat="42.77291" lon="1.03154">
        <ele>2086</ele>
        <time>2010-01-01T02:17:57Z</time>
      </trkpt>
      <trkpt lat="42.77289" lon="1.03154">
        <ele>2085</ele>
        <time>2010-01-01T02:17:58Z</time>
      </trkpt>
      <trkpt lat="42.7729" lon="1.03151">
        <ele>2085</ele>
        <time>2010-01-01T02:17:59Z</time>
      </trkpt>
      <trkpt lat="42.77288" lon="1.03149">
        <ele>2084</ele>
        <time>2010-01-01T02:18:00Z</time>
      </trkpt>
      <trkpt lat="42.77294" lon="1.03147">
        <ele>2086</ele>
        <time>2010-01-01T02:18:02Z</time>
      </trkpt>
      <trkpt lat="42.77301" lon="1.03144">
        <ele>2088</ele>
        <time>2010-01-01T02:18:05Z</time>
      </trkpt>
      <trkpt lat="42.77319" lon="1.03136">
        <ele>2095</ele>
        <time>2010-01-01T02:18:13Z</time>
      </trkpt>
      <trkpt lat="42.77333" lon="1.03129">
        <ele>2102</ele>
        <time>2010-01-01T02:18:19Z</time>
      </trkpt>
      <trkpt lat="42.7734" lon="1.03122">
        <ele>2104</ele>
        <time>2010-01-01T02:18:23Z</time>
      </trkpt>
      <trkpt lat="42.77344" lon="1.03111">
        <ele>2104</ele>
        <time>2010-01-01T02:18:26Z</time>
      </trkpt>
      <trkpt lat="42.77356" lon="1.03099">
        <ele>2106</ele>
        <time>2010-01-01T02:18:32Z</time>
      </trkpt>
      <trkpt lat="42.77358" lon="1.03095">
        <ele>2107</ele>
        <time>2010-01-01T02:18:33Z</time>
      </trkpt>
      <trkpt lat="42.77369" lon="1.03082">
        <ele>2106</ele>
        <time>2010-01-01T02:18:39Z</time>
      </trkpt>
      <trkpt lat="42.7737" lon="1.03081">
        <ele>2106</ele>
        <time>2010-01-01T02:18:40Z</time>
      </trkpt>
      <trkpt lat="42.77384" lon="1.03079">
        <ele>2105</ele>
        <time>2010-01-01T02:18:45Z</time>
      </trkpt>
      <trkpt lat="42.7739" lon="1.03083">
        <ele>2104</ele>
        <time>2010-01-01T02:18:48Z</time>
      </trkpt>
      <trkpt lat="42.77398" lon="1.03089">
        <ele>2103</ele>
        <time>2010-01-01T02:18:52Z</time>
      </trkpt>
      <trkpt lat="42.77406" lon="1.03103">
        <ele>2102</ele>
        <time>2010-01-01T02:18:57Z</time>
      </trkpt>
      <trkpt lat="42.77405" lon="1.0311">
        <ele>2102</ele>
        <time>2010-01-01T02:18:59Z</time>
      </trkpt>
      <trkpt lat="42.77404" lon="1.03137">
        <ele>2102</ele>
        <time>2010-01-01T02:19:07Z</time>
      </trkpt>
      <trkpt lat="42.774" lon="1.03161">
        <ele>2102</ele>
        <time>2010-01-01T02:19:14Z</time>
      </trkpt>
      <trkpt lat="42.77402" lon="1.03175">
        <ele>2103</ele>
        <time>2010-01-01T02:19:18Z</time>
      </trkpt>
      <trkpt lat="42.77407" lon="1.03174">
        <ele>2102</ele>
        <time>2010-01-01T02:19:21Z</time>
      </trkpt>
      <trkpt lat="42.77411" lon="1.03168">
        <ele>2101</ele>
        <time>2010-01-01T02:19:23Z</time>
      </trkpt>
      <trkpt lat="42.77415" lon="1.03165">
        <ele>2101</ele>
        <time>2010-01-01T02:19:25Z</time>
      </trkpt>
      <trkpt lat="42.77417" lon="1.0316">
        <ele>2101</ele>
        <time>2010-01-01T02:19:26Z</time>
      </trkpt>
      <trkpt lat="42.77419" lon="1.0316">
        <ele>2101</ele>
        <time>2010-01-01T02:19:27Z</time>
      </trkpt>
      <trkpt lat="42.77425" lon="1.03158">
        <ele>2101</ele>
        <time>2010-01-01T02:19:30Z</time>
      </trkpt>
      <trkpt lat="42.77427" lon="1.03156">
        <ele>2101</ele>
        <time>2010-01-01T02:19:30Z</time>
      </trkpt>
      <trkpt lat="42.77431" lon="1.03152">
        <ele>2100</ele>
        <time>2010-01-01T02:19:32Z</time>
      </trkpt>
      <trkpt lat="42.77448" lon="1.03149">
        <ele>2100</ele>
        <time>2010-01-01T02:19:39Z</time>
      </trkpt>
      <trkpt lat="42.7746" lon="1.03141">
        <ele>2099</ele>
        <time>2010-01-01T02:19:45Z</time>
      </trkpt>
      <trkpt lat="42.7747" lon="1.03138">
        <ele>2099</ele>
        <time>2010-01-01T02:19:49Z</time>
      </trkpt>
      <trkpt lat="42.77474" lon="1.03136">
        <ele>2099</ele>
        <time>2010-01-01T02:19:50Z</time>
      </trkpt>
      <trkpt lat="42.77486" lon="1.03134">
        <ele>2099</ele>
        <time>2010-01-01T02:19:55Z</time>
      </trkpt>
      <trkpt lat="42.77485" lon="1.03133">
        <ele>2099</ele>
        <time>2010-01-01T02:19:56Z</time>
      </trkpt>
      <trkpt lat="42.77492" lon="1.03128">
        <ele>2099</ele>
        <time>2010-01-01T02:19:59Z</time>
      </trkpt>
      <trkpt lat="42.77496" lon="1.03128">
        <ele>2099</ele>
        <time>2010-01-01T02:20:01Z</time>
      </trkpt>
      <trkpt lat="42.77513" lon="1.03128">
        <ele>2100</ele>
        <time>2010-01-01T02:20:07Z</time>
      </trkpt>
      <trkpt lat="42.77526" lon="1.03126">
        <ele>2100</ele>
        <time>2010-01-01T02:20:13Z</time>
      </trkpt>
      <trkpt lat="42.7754" lon="1.03119">
        <ele>2099</ele>
        <time>2010-01-01T02:20:19Z</time>
      </trkpt>
      <trkpt lat="42.77553" lon="1.03118">
        <ele>2098</ele>
        <time>2010-01-01T02:20:24Z</time>
      </trkpt>
      <trkpt lat="42.77564" lon="1.03119">
        <ele>2097</ele>
        <time>2010-01-01T02:20:28Z</time>
      </trkpt>
      <trkpt lat="42.77567" lon="1.03134">
        <ele>2096</ele>
        <time>2010-01-01T02:20:33Z</time>
      </trkpt>
      <trkpt lat="42.77571" lon="1.03141">
        <ele>2098</ele>
        <time>2010-01-01T02:20:35Z</time>
      </trkpt>
      <trkpt lat="42.77576" lon="1.03139">
        <ele>2098</ele>
        <time>2010-01-01T02:20:37Z</time>
      </trkpt>
      <trkpt lat="42.77576" lon="1.03137">
        <ele>2097</ele>
        <time>2010-01-01T02:20:38Z</time>
      </trkpt>
      <trkpt lat="42.77583" lon="1.03142">
        <ele>2103</ele>
        <time>2010-01-01T02:20:42Z</time>
      </trkpt>
      <trkpt lat="42.77593" lon="1.03145">
        <ele>2120</ele>
        <time>2010-01-01T02:20:45Z</time>
      </trkpt>
      <trkpt lat="42.77599" lon="1.03147">
        <ele>2131</ele>
        <time>2010-01-01T02:20:48Z</time>
      </trkpt>
      <trkpt lat="42.77605" lon="1.03145">
        <ele>2137</ele>
        <time>2010-01-01T02:20:50Z</time>
      </trkpt>
      <trkpt lat="42.77612" lon="1.03143">
        <ele>2146</ele>
        <time>2010-01-01T02:20:53Z</time>
      </trkpt>
      <trkpt lat="42.77611" lon="1.03142">
        <ele>2143</ele>
        <time>2010-01-01T02:20:54Z</time>
      </trkpt>
      <trkpt lat="42.77621" lon="1.03138">
        <ele>2149</ele>
        <time>2010-01-01T02:20:59Z</time>
      </trkpt>
      <trkpt lat="42.77629" lon="1.03142">
        <ele>2158</ele>
        <time>2010-01-01T02:21:02Z</time>
      </trkpt>
      <trkpt lat="42.77637" lon="1.0314">
        <ele>2164</ele>
        <time>2010-01-01T02:21:05Z</time>
      </trkpt>
      <trkpt lat="42.77642" lon="1.03144">
        <ele>2168</ele>
        <time>2010-01-01T02:21:07Z</time>
      </trkpt>
      <trkpt lat="42.77644" lon="1.03139">
        <ele>2165</ele>
        <time>2010-01-01T02:21:09Z</time>
      </trkpt>
      <trkpt lat="42.77647" lon="1.03137">
        <ele>2164</ele>
        <time>2010-01-01T02:21:10Z</time>
      </trkpt>
      <trkpt lat="42.77658" lon="1.03135">
        <ele>2164</ele>
        <time>2010-01-01T02:21:15Z</time>
      </trkpt>
      <trkpt lat="42.77665" lon="1.03135">
        <ele>2165</ele>
        <time>2010-01-01T02:21:17Z</time>
      </trkpt>
      <trkpt lat="42.77669" lon="1.03134">
        <ele>2166</ele>
        <time>2010-01-01T02:21:19Z</time>
      </trkpt>
      <trkpt lat="42.77667" lon="1.03142">
        <ele>2169</ele>
        <time>2010-01-01T02:21:22Z</time>
      </trkpt>
      <trkpt lat="42.77672" lon="1.03141">
        <ele>2169</ele>
        <time>2010-01-01T02:21:24Z</time>
      </trkpt>
      <trkpt lat="42.77674" lon="1.03142">
        <ele>2171</ele>
        <time>2010-01-01T02:21:25Z</time>
      </trkpt>
      <trkpt lat="42.77674" lon="1.0315">
        <ele>2176</ele>
        <time>2010-01-01T02:21:27Z</time>
      </trkpt>
      <trkpt lat="42.77672" lon="1.03157">
        <ele>2181</ele>
        <time>2010-01-01T02:21:29Z</time>
      </trkpt>
      <trkpt lat="42.7767" lon="1.03167">
        <ele>2187</ele>
        <time>2010-01-01T02:21:32Z</time>
      </trkpt>
      <trkpt lat="42.77672" lon="1.0317">
        <ele>2187</ele>
        <time>2010-01-01T02:21:34Z</time>
      </trkpt>
      <trkpt lat="42.77681" lon="1.03167">
        <ele>2190</ele>
        <time>2010-01-01T02:21:37Z</time>
      </trkpt>
      <trkpt lat="42.77687" lon="1.03171">
        <ele>2191</ele>
        <time>2010-01-01T02:21:40Z</time>
      </trkpt>
      <trkpt lat="42.7769" lon="1.03174">
        <ele>2192</ele>
        <time>2010-01-01T02:21:41Z</time>
      </trkpt>
      <trkpt lat="42.77698" lon="1.03173">
        <ele>2195</ele>
        <time>2010-01-01T02:21:44Z</time>
      </trkpt>
      <trkpt lat="42.77704" lon="1.03173">
        <ele>2197</ele>
        <time>2010-01-01T02:21:47Z</time>
      </trkpt>
      <trkpt lat="42.77707" lon="1.03176">
        <ele>2198</ele>
        <time>2010-01-01T02:21:48Z</time>
      </trkpt>
      <trkpt lat="42.77708" lon="1.03179">
        <ele>2197</ele>
        <time>2010-01-01T02:21:49Z</time>
      </trkpt>
      <trkpt lat="42.77702" lon="1.03191">
        <ele>2195</ele>
        <time>2010-01-01T02:21:53Z</time>
      </trkpt>
      <trkpt lat="42.77705" lon="1.03203">
        <ele>2196</ele>
        <time>2010-01-01T02:21:57Z</time>
      </trkpt>
      <trkpt lat="42.77704" lon="1.03213">
        <ele>2196</ele>
        <time>2010-01-01T02:22:00Z</time>
      </trkpt>
      <trkpt lat="42.77702" lon="1.03222">
        <ele>2197</ele>
        <time>2010-01-01T02:22:03Z</time>
      </trkpt>
      <trkpt lat="42.77701" lon="1.03229">
        <ele>2197</ele>
        <time>2010-01-01T02:22:05Z</time>
      </trkpt>
      <trkpt lat="42.777" lon="1.0324">
        <ele>2197</ele>
        <time>2010-01-01T02:22:08Z</time>
      </trkpt>
      <trkpt lat="42.77694" lon="1.03248">
        <ele>2194</ele>
        <time>2010-01-01T02:22:11Z</time>
      </trkpt>
      <trkpt lat="42.77695" lon="1.03259">
        <ele>2198</ele>
        <time>2010-01-01T02:22:14Z</time>
      </trkpt>
      <trkpt lat="42.77696" lon="1.03266">
        <ele>2201</ele>
        <time>2010-01-01T02:22:17Z</time>
      </trkpt>
      <trkpt lat="42.77698" lon="1.03274">
        <ele>2205</ele>
        <time>2010-01-01T02:22:19Z</time>
      </trkpt>
      <trkpt lat="42.77701" lon="1.0328">
        <ele>2209</ele>
        <time>2010-01-01T02:22:21Z</time>
      </trkpt>
      <trkpt lat="42.77705" lon="1.03284">
        <ele>2214</ele>
        <time>2010-01-01T02:22:23Z</time>
      </trkpt>
      <trkpt lat="42.77707" lon="1.03288">
        <ele>2217</ele>
        <time>2010-01-01T02:22:25Z</time>
      </trkpt>
      <trkpt lat="42.77712" lon="1.03284">
        <ele>2218</ele>
        <time>2010-01-01T02:22:27Z</time>
      </trkpt>
      <trkpt lat="42.77717" lon="1.03276">
        <ele>2217</ele>
        <time>2010-01-01T02:22:30Z</time>
      </trkpt>
      <trkpt lat="42.77721" lon="1.03278">
        <ele>2220</ele>
        <time>2010-01-01T02:22:32Z</time>
      </trkpt>
      <trkpt lat="42.77731" lon="1.03278">
        <ele>2223</ele>
        <time>2010-01-01T02:22:35Z</time>
      </trkpt>
      <trkpt lat="42.77741" lon="1.03277">
        <ele>2226</ele>
        <time>2010-01-01T02:22:39Z</time>
      </trkpt>
      <trkpt lat="42.77747" lon="1.03275">
        <ele>2227</ele>
        <time>2010-01-01T02:22:42Z</time>
      </trkpt>
      <trkpt lat="42.77756" lon="1.03276">
        <ele>2235</ele>
        <time>2010-01-01T02:22:46Z</time>
      </trkpt>
      <trkpt lat="42.77763" lon="1.03276">
        <ele>2243</ele>
        <time>2010-01-01T02:22:49Z</time>
      </trkpt>
      <trkpt lat="42.7777" lon="1.03277">
        <ele>2252</ele>
        <time>2010-01-01T02:22:51Z</time>
      </trkpt>
      <trkpt lat="42.77774" lon="1.0328">
        <ele>2257</ele>
        <time>2010-01-01T02:22:53Z</time>
      </trkpt>
      <trkpt lat="42.77775" lon="1.03286">
        <ele>2259</ele>
        <time>2010-01-01T02:22:55Z</time>
      </trkpt>
      <trkpt lat="42.77768" lon="1.03294">
        <ele>2254</ele>
        <time>2010-01-01T02:22:58Z</time>
      </trkpt>
      <trkpt lat="42.77762" lon="1.03304">
        <ele>2251</ele>
        <time>2010-01-01T02:23:02Z</time>
      </trkpt>
      <trkpt lat="42.7776" lon="1.03309">
        <ele>2253</ele>
        <time>2010-01-01T02:23:04Z</time>
      </trkpt>
      <trkpt lat="42.77756" lon="1.03318">
        <ele>2255</ele>
        <time>2010-01-01T02:23:07Z</time>
      </trkpt>
      <trkpt lat="42.77753" lon="1.03326">
        <ele>2258</ele>
        <time>2010-01-01T02:23:10Z</time>
      </trkpt>
      <trkpt lat="42.77748" lon="1.03335">
        <ele>2261</ele>
        <time>2010-01-01T02:23:13Z</time>
      </trkpt>
      <trkpt lat="42.77745" lon="1.03345">
        <ele>2265</ele>
        <time>2010-01-01T02:23:16Z</time>
      </trkpt>
      <trkpt lat="42.77743" lon="1.03354">
        <ele>2268</ele>
        <time>2010-01-01T02:23:19Z</time>
      </trkpt>
      <trkpt lat="42.77744" lon="1.03362">
        <ele>2272</ele>
        <time>2010-01-01T02:23:21Z</time>
      </trkpt>
      <trkpt lat="42.77744" lon="1.0337">
        <ele>2275</ele>
        <time>2010-01-01T02:23:24Z</time>
      </trkpt>
      <trkpt lat="42.77741" lon="1.03377">
        <ele>2277</ele>
        <time>2010-01-01T02:23:26Z</time>
      </trkpt>
      <trkpt lat="42.77741" lon="1.03384">
        <ele>2280</ele>
        <time>2010-01-01T02:23:28Z</time>
      </trkpt>
      <trkpt lat="42.77743" lon="1.03394">
        <ele>2285</ele>
        <time>2010-01-01T02:23:31Z</time>
      </trkpt>
      <trkpt lat="42.77743" lon="1.03402">
        <ele>2288</ele>
        <time>2010-01-01T02:23:33Z</time>
      </trkpt>
      <trkpt lat="42.77741" lon="1.03408">
        <ele>2290</ele>
        <time>2010-01-01T02:23:35Z</time>
      </trkpt>
      <trkpt lat="42.77739" lon="1.03415">
        <ele>2293</ele>
        <time>2010-01-01T02:23:37Z</time>
      </trkpt>
      <trkpt lat="42.77747" lon="1.03419">
        <ele>2297</ele>
        <time>2010-01-01T02:23:40Z</time>
      </trkpt>
      <trkpt lat="42.77754" lon="1.03417">
        <ele>2299</ele>
        <time>2010-01-01T02:23:44Z</time>
      </trkpt>
      <trkpt lat="42.77762" lon="1.03416">
        <ele>2302</ele>
        <time>2010-01-01T02:23:47Z</time>
      </trkpt>
      <trkpt lat="42.7777" lon="1.03409">
        <ele>2303</ele>
        <time>2010-01-01T02:23:50Z</time>
      </trkpt>
      <trkpt lat="42.77772" lon="1.03406">
        <ele>2302</ele>
        <time>2010-01-01T02:23:52Z</time>
      </trkpt>
      <trkpt lat="42.77778" lon="1.03402">
        <ele>2303</ele>
        <time>2010-01-01T02:23:54Z</time>
      </trkpt>
      <trkpt lat="42.7778" lon="1.03398">
        <ele>2303</ele>
        <time>2010-01-01T02:23:56Z</time>
      </trkpt>
      <trkpt lat="42.77789" lon="1.03394">
        <ele>2306</ele>
        <time>2010-01-01T02:24:00Z</time>
      </trkpt>
      <trkpt lat="42.77796" lon="1.03394">
        <ele>2309</ele>
        <time>2010-01-01T02:24:02Z</time>
      </trkpt>
      <trkpt lat="42.77802" lon="1.03389">
        <ele>2310</ele>
        <time>2010-01-01T02:24:05Z</time>
      </trkpt>
      <trkpt lat="42.7781" lon="1.03389">
        <ele>2314</ele>
        <time>2010-01-01T02:24:08Z</time>
      </trkpt>
      <trkpt lat="42.7782" lon="1.03386">
        <ele>2319</ele>
        <time>2010-01-01T02:24:13Z</time>
      </trkpt>
      <trkpt lat="42.77828" lon="1.0338">
        <ele>2322</ele>
        <time>2010-01-01T02:24:16Z</time>
      </trkpt>
      <trkpt lat="42.77837" lon="1.03378">
        <ele>2326</ele>
        <time>2010-01-01T02:24:20Z</time>
      </trkpt>
      <trkpt lat="42.77847" lon="1.03379">
        <ele>2329</ele>
        <time>2010-01-01T02:24:24Z</time>
      </trkpt>
      <trkpt lat="42.77855" lon="1.03375">
        <ele>2332</ele>
        <time>2010-01-01T02:24:27Z</time>
      </trkpt>
      <trkpt lat="42.77863" lon="1.03372">
        <ele>2333</ele>
        <time>2010-01-01T02:24:30Z</time>
      </trkpt>
      <trkpt lat="42.7787" lon="1.03367">
        <ele>2334</ele>
        <time>2010-01-01T02:24:34Z</time>
      </trkpt>
      <trkpt lat="42.77876" lon="1.03363">
        <ele>2335</ele>
        <time>2010-01-01T02:24:36Z</time>
      </trkpt>
      <trkpt lat="42.77883" lon="1.03362">
        <ele>2337</ele>
        <time>2010-01-01T02:24:39Z</time>
      </trkpt>
      <trkpt lat="42.77891" lon="1.03355">
        <ele>2339</ele>
        <time>2010-01-01T02:24:43Z</time>
      </trkpt>
      <trkpt lat="42.77896" lon="1.03352">
        <ele>2340</ele>
        <time>2010-01-01T02:24:45Z</time>
      </trkpt>
      <trkpt lat="42.77903" lon="1.03347">
        <ele>2342</ele>
        <time>2010-01-01T02:24:48Z</time>
      </trkpt>
      <trkpt lat="42.77902" lon="1.03347">
        <ele>2342</ele>
        <time>2010-01-01T02:24:49Z</time>
      </trkpt>
      <trkpt lat="42.77907" lon="1.03349">
        <ele>2344</ele>
        <time>2010-01-01T02:24:51Z</time>
      </trkpt>
      <trkpt lat="42.77912" lon="1.03356">
        <ele>2346</ele>
        <time>2010-01-01T02:24:53Z</time>
      </trkpt>
      <trkpt lat="42.77911" lon="1.03357">
        <ele>2346</ele>
        <time>2010-01-01T02:24:54Z</time>
      </trkpt>
      <trkpt lat="42.77911" lon="1.03383">
        <ele>2349</ele>
        <time>2010-01-01T02:25:01Z</time>
      </trkpt>
      <trkpt lat="42.77911" lon="1.03389">
        <ele>2350</ele>
        <time>2010-01-01T02:25:03Z</time>
      </trkpt>
      <trkpt lat="42.77914" lon="1.03401">
        <ele>2353</ele>
        <time>2010-01-01T02:25:07Z</time>
      </trkpt>
      <trkpt lat="42.77918" lon="1.03406">
        <ele>2354</ele>
        <time>2010-01-01T02:25:09Z</time>
      </trkpt>
      <trkpt lat="42.77928" lon="1.03407">
        <ele>2358</ele>
        <time>2010-01-01T02:25:13Z</time>
      </trkpt>
      <trkpt lat="42.77934" lon="1.03414">
        <ele>2361</ele>
        <time>2010-01-01T02:25:16Z</time>
      </trkpt>
      <trkpt lat="42.77941" lon="1.03418">
        <ele>2364</ele>
        <time>2010-01-01T02:25:19Z</time>
      </trkpt>
      <trkpt lat="42.77945" lon="1.03423">
        <ele>2367</ele>
        <time>2010-01-01T02:25:21Z</time>
      </trkpt>
      <trkpt lat="42.77942" lon="1.03434">
        <ele>2368</ele>
        <time>2010-01-01T02:25:25Z</time>
      </trkpt>
      <trkpt lat="42.77934" lon="1.03443">
        <ele>2368</ele>
        <time>2010-01-01T02:25:29Z</time>
      </trkpt>
      <trkpt lat="42.77927" lon="1.03456">
        <ele>2371</ele>
        <time>2010-01-01T02:25:34Z</time>
      </trkpt>
      <trkpt lat="42.77929" lon="1.03464">
        <ele>2375</ele>
        <time>2010-01-01T02:25:36Z</time>
      </trkpt>
      <trkpt lat="42.77924" lon="1.03472">
        <ele>2377</ele>
        <time>2010-01-01T02:25:39Z</time>
      </trkpt>
      <trkpt lat="42.77927" lon="1.03476">
        <ele>2379</ele>
        <time>2010-01-01T02:25:41Z</time>
      </trkpt>
      <trkpt lat="42.77924" lon="1.03479">
        <ele>2380</ele>
        <time>2010-01-01T02:25:42Z</time>
      </trkpt>
      <trkpt lat="42.77921" lon="1.0349">
        <ele>2384</ele>
        <time>2010-01-01T02:25:46Z</time>
      </trkpt>
      <trkpt lat="42.77919" lon="1.03499">
        <ele>2388</ele>
        <time>2010-01-01T02:25:49Z</time>
      </trkpt>
      <trkpt lat="42.77916" lon="1.03505">
        <ele>2389</ele>
        <time>2010-01-01T02:25:51Z</time>
      </trkpt>
      <trkpt lat="42.77911" lon="1.03514">
        <ele>2392</ele>
        <time>2010-01-01T02:25:54Z</time>
      </trkpt>
      <trkpt lat="42.7791" lon="1.03522">
        <ele>2394</ele>
        <time>2010-01-01T02:25:56Z</time>
      </trkpt>
      <trkpt lat="42.77916" lon="1.03532">
        <ele>2399</ele>
        <time>2010-01-01T02:26:00Z</time>
      </trkpt>
      <trkpt lat="42.77923" lon="1.03539">
        <ele>2403</ele>
        <time>2010-01-01T02:26:04Z</time>
      </trkpt>
      <trkpt lat="42.77928" lon="1.03547">
        <ele>2407</ele>
        <time>2010-01-01T02:26:07Z</time>
      </trkpt>
      <trkpt lat="42.7793" lon="1.03554">
        <ele>2410</ele>
        <time>2010-01-01T02:26:09Z</time>
      </trkpt>
      <trkpt lat="42.77927" lon="1.03567">
        <ele>2414</ele>
        <time>2010-01-01T02:26:13Z</time>
      </trkpt>
      <trkpt lat="42.77923" lon="1.03575">
        <ele>2416</ele>
        <time>2010-01-01T02:26:16Z</time>
      </trkpt>
      <trkpt lat="42.77919" lon="1.03589">
        <ele>2420</ele>
        <time>2010-01-01T02:26:20Z</time>
      </trkpt>
      <trkpt lat="42.77922" lon="1.03595">
        <ele>2424</ele>
        <time>2010-01-01T02:26:23Z</time>
      </trkpt>
      <trkpt lat="42.77924" lon="1.03609">
        <ele>2430</ele>
        <time>2010-01-01T02:26:27Z</time>
      </trkpt>
      <trkpt lat="42.77935" lon="1.03609">
        <ele>2433</ele>
        <time>2010-01-01T02:26:31Z</time>
      </trkpt>
      <trkpt lat="42.77941" lon="1.03606">
        <ele>2434</ele>
        <time>2010-01-01T02:26:34Z</time>
      </trkpt>
      <trkpt lat="42.77952" lon="1.036">
        <ele>2434</ele>
        <time>2010-01-01T02:26:38Z</time>
      </trkpt>
      <trkpt lat="42.7796" lon="1.03595">
        <ele>2435</ele>
        <time>2010-01-01T02:26:42Z</time>
      </trkpt>
      <trkpt lat="42.77972" lon="1.03591">
        <ele>2437</ele>
        <time>2010-01-01T02:26:47Z</time>
      </trkpt>
      <trkpt lat="42.77982" lon="1.03586">
        <ele>2438</ele>
        <time>2010-01-01T02:26:51Z</time>
      </trkpt>
      <trkpt lat="42.77991" lon="1.03578">
        <ele>2437</ele>
        <time>2010-01-01T02:26:55Z</time>
      </trkpt>
      <trkpt lat="42.77994" lon="1.03577">
        <ele>2437</ele>
        <time>2010-01-01T02:26:57Z</time>
      </trkpt>
      <trkpt lat="42.78008" lon="1.03571">
        <ele>2438</ele>
        <time>2010-01-01T02:27:03Z</time>
      </trkpt>
      <trkpt lat="42.7801" lon="1.0357">
        <ele>2438</ele>
        <time>2010-01-01T02:27:03Z</time>
      </trkpt>
      <trkpt lat="42.78013" lon="1.03572">
        <ele>2439</ele>
        <time>2010-01-01T02:27:05Z</time>
      </trkpt>
      <trkpt lat="42.78029" lon="1.03572">
        <ele>2441</ele>
        <time>2010-01-01T02:27:11Z</time>
      </trkpt>
      <trkpt lat="42.78041" lon="1.03569">
        <ele>2439</ele>
        <time>2010-01-01T02:27:16Z</time>
      </trkpt>
      <trkpt lat="42.78047" lon="1.0357">
        <ele>2439</ele>
        <time>2010-01-01T02:27:19Z</time>
      </trkpt>
      <trkpt lat="42.78047" lon="1.03571">
        <ele>2439</ele>
        <time>2010-01-01T02:27:19Z</time>
      </trkpt>
      <trkpt lat="42.78046" lon="1.03572">
        <ele>2439</ele>
        <time>2010-01-01T02:27:19Z</time>
      </trkpt>
      <trkpt lat="42.78048" lon="1.03578">
        <ele>2439</ele>
        <time>2010-01-01T02:27:21Z</time>
      </trkpt>
      <trkpt lat="42.78048" lon="1.03579">
        <ele>2439</ele>
        <time>2010-01-01T02:27:22Z</time>
      </trkpt>
      <trkpt lat="42.78048" lon="1.03579">
        <ele>2439</ele>
        <time>2010-01-01T02:27:22Z</time>
      </trkpt>
      <trkpt lat="42.78046" lon="1.03578">
        <ele>2439</ele>
        <time>2010-01-01T02:27:23Z</time>
      </trkpt>
      <trkpt lat="42.78041" lon="1.0358">
        <ele>2440</ele>
        <time>2010-01-01T02:27:25Z</time>
      </trkpt>
      <trkpt lat="42.78035" lon="1.03588">
        <ele>2442</ele>
        <time>2010-01-01T02:27:28Z</time>
      </trkpt>
      <trkpt lat="42.78032" lon="1.03594">
        <ele>2444</ele>
        <time>2010-01-01T02:27:30Z</time>
      </trkpt>
      <trkpt lat="42.78029" lon="1.03598">
        <ele>2445</ele>
        <time>2010-01-01T02:27:32Z</time>
      </trkpt>
      <trkpt lat="42.78022" lon="1.03606">
        <ele>2447</ele>
        <time>2010-01-01T02:27:36Z</time>
      </trkpt>
      <trkpt lat="42.78016" lon="1.03618">
        <ele>2449</ele>
        <time>2010-01-01T02:27:40Z</time>
      </trkpt>
      <trkpt lat="42.78015" lon="1.03619">
        <ele>2449</ele>
        <time>2010-01-01T02:27:40Z</time>
      </trkpt>
      <trkpt lat="42.78014" lon="1.03621">
        <ele>2449</ele>
        <time>2010-01-01T02:27:41Z</time>
      </trkpt>
      <trkpt lat="42.78005" lon="1.03634">
        <ele>2450</ele>
        <time>2010-01-01T02:27:46Z</time>
      </trkpt>
      <trkpt lat="42.78005" lon="1.03636">
        <ele>2450</ele>
        <time>2010-01-01T02:27:47Z</time>
      </trkpt>
      <trkpt lat="42.78003" lon="1.03638">
        <ele>2450</ele>
        <time>2010-01-01T02:27:48Z</time>
      </trkpt>
      <trkpt lat="42.78001" lon="1.03643">
        <ele>2451</ele>
        <time>2010-01-01T02:27:49Z</time>
      </trkpt>
      <trkpt lat="42.77999" lon="1.03645">
        <ele>2451</ele>
        <time>2010-01-01T02:27:50Z</time>
      </trkpt>
      <trkpt lat="42.77998" lon="1.03647">
        <ele>2452</ele>
        <time>2010-01-01T02:27:51Z</time>
      </trkpt>
      <trkpt lat="42.77986" lon="1.03655">
        <ele>2454</ele>
        <time>2010-01-01T02:27:56Z</time>
      </trkpt>
      <trkpt lat="42.77985" lon="1.03656">
        <ele>2454</ele>
        <time>2010-01-01T02:27:57Z</time>
      </trkpt>
      <trkpt lat="42.77982" lon="1.0366">
        <ele>2455</ele>
        <time>2010-01-01T02:27:59Z</time>
      </trkpt>
      <trkpt lat="42.77979" lon="1.03666">
        <ele>2457</ele>
        <time>2010-01-01T02:28:01Z</time>
      </trkpt>
      <trkpt lat="42.77973" lon="1.03678">
        <ele>2460</ele>
        <time>2010-01-01T02:28:05Z</time>
      </trkpt>
      <trkpt lat="42.77968" lon="1.03687">
        <ele>2463</ele>
        <time>2010-01-01T02:28:08Z</time>
      </trkpt>
      <trkpt lat="42.77955" lon="1.037">
        <ele>2467</ele>
        <time>2010-01-01T02:28:15Z</time>
      </trkpt>
      <trkpt lat="42.77954" lon="1.03701">
        <ele>2468</ele>
        <time>2010-01-01T02:28:15Z</time>
      </trkpt>
      <trkpt lat="42.77954" lon="1.037">
        <ele>2467</ele>
        <time>2010-01-01T02:28:16Z</time>
      </trkpt>
      <trkpt lat="42.77954" lon="1.03701">
        <ele>2468</ele>
        <time>2010-01-01T02:28:16Z</time>
      </trkpt>
      <trkpt lat="42.77952" lon="1.03704">
        <ele>2468</ele>
        <time>2010-01-01T02:28:17Z</time>
      </trkpt>
      <trkpt lat="42.77946" lon="1.0371">
        <ele>2470</ele>
        <time>2010-01-01T02:28:20Z</time>
      </trkpt>
      <trkpt lat="42.77938" lon="1.03714">
        <ele>2472</ele>
        <time>2010-01-01T02:28:24Z</time>
      </trkpt>
      <trkpt lat="42.77934" lon="1.03713">
        <ele>2472</ele>
        <time>2010-01-01T02:28:25Z</time>
      </trkpt>
      <trkpt lat="42.7793" lon="1.03715">
        <ele>2474</ele>
        <time>2010-01-01T02:28:27Z</time>
      </trkpt>
      <trkpt lat="42.77927" lon="1.0372">
        <ele>2476</ele>
        <time>2010-01-01T02:28:29Z</time>
      </trkpt>
      <trkpt lat="42.77921" lon="1.03722">
        <ele>2478</ele>
        <time>2010-01-01T02:28:31Z</time>
      </trkpt>
      <trkpt lat="42.77918" lon="1.03728">
        <ele>2482</ele>
        <time>2010-01-01T02:28:33Z</time>
      </trkpt>
      <trkpt lat="42.77912" lon="1.03731">
        <ele>2484</ele>
        <time>2010-01-01T02:28:36Z</time>
      </trkpt>
      <trkpt lat="42.7791" lon="1.03732">
        <ele>2485</ele>
        <time>2010-01-01T02:28:37Z</time>
      </trkpt>
      <trkpt lat="42.77907" lon="1.03734">
        <ele>2487</ele>
        <time>2010-01-01T02:28:38Z</time>
      </trkpt>
      <trkpt lat="42.77905" lon="1.03735">
        <ele>2488</ele>
        <time>2010-01-01T02:28:39Z</time>
      </trkpt>
      <trkpt lat="42.77902" lon="1.0374">
        <ele>2492</ele>
        <time>2010-01-01T02:28:41Z</time>
      </trkpt>
      <trkpt lat="42.77901" lon="1.03741">
        <ele>2492</ele>
        <time>2010-01-01T02:28:41Z</time>
      </trkpt>
      <trkpt lat="42.77898" lon="1.03744">
        <ele>2495</ele>
        <time>2010-01-01T02:28:43Z</time>
      </trkpt>
      <trkpt lat="42.77893" lon="1.03748">
        <ele>2499</ele>
        <time>2010-01-01T02:28:45Z</time>
      </trkpt>
      <trkpt lat="42.77889" lon="1.03752">
        <ele>2503</ele>
        <time>2010-01-01T02:28:47Z</time>
      </trkpt>
      <trkpt lat="42.77883" lon="1.03757">
        <ele>2509</ele>
        <time>2010-01-01T02:28:50Z</time>
      </trkpt>
      <trkpt lat="42.7788" lon="1.03758">
        <ele>2510</ele>
        <time>2010-01-01T02:28:51Z</time>
      </trkpt>
      <trkpt lat="42.77877" lon="1.03756">
        <ele>2509</ele>
        <time>2010-01-01T02:28:52Z</time>
      </trkpt>
      <trkpt lat="42.77877" lon="1.03757">
        <ele>2510</ele>
        <time>2010-01-01T02:28:53Z</time>
      </trkpt>
      <trkpt lat="42.77878" lon="1.03751">
        <ele>2505</ele>
        <time>2010-01-01T02:28:55Z</time>
      </trkpt>
      <trkpt lat="42.77877" lon="1.03753">
        <ele>2507</ele>
        <time>2010-01-01T02:28:55Z</time>
      </trkpt>
      <trkpt lat="42.77877" lon="1.03752">
        <ele>2507</ele>
        <time>2010-01-01T02:28:56Z</time>
      </trkpt>
      <trkpt lat="42.77879" lon="1.03753">
        <ele>2507</ele>
        <time>2010-01-01T02:28:57Z</time>
      </trkpt>
      <trkpt lat="42.77881" lon="1.03753">
        <ele>2506</ele>
        <time>2010-01-01T02:28:58Z</time>
      </trkpt>
      <trkpt lat="42.77883" lon="1.03752">
        <ele>2505</ele>
        <time>2010-01-01T02:28:58Z</time>
      </trkpt>
      <trkpt lat="42.77883" lon="1.03752">
        <ele>2504</ele>
        <time>2010-01-01T02:28:59Z</time>
      </trkpt>
      <trkpt lat="42.77882" lon="1.03757">
        <ele>2509</ele>
        <time>2010-01-01T02:29:00Z</time>
      </trkpt>
      <trkpt lat="42.77883" lon="1.03758">
        <ele>2509</ele>
        <time>2010-01-01T02:29:01Z</time>
      </trkpt>
      <trkpt lat="42.77883" lon="1.03759">
        <ele>2510</ele>
        <time>2010-01-01T02:29:01Z</time>
      </trkpt>
      <trkpt lat="42.77882" lon="1.03758">
        <ele>2510</ele>
        <time>2010-01-01T02:29:01Z</time>
      </trkpt>
      <trkpt lat="42.7788" lon="1.03753">
        <ele>2506</ele>
        <time>2010-01-01T02:29:03Z</time>
      </trkpt>
      <trkpt lat="42.77879" lon="1.03752">
        <ele>2506</ele>
        <time>2010-01-01T02:29:03Z</time>
      </trkpt>
      <trkpt lat="42.77882" lon="1.03756">
        <ele>2508</ele>
        <time>2010-01-01T02:29:05Z</time>
      </trkpt>
      <trkpt lat="42.77888" lon="1.03756">
        <ele>2507</ele>
        <time>2010-01-01T02:29:07Z</time>
      </trkpt>
      <trkpt lat="42.77892" lon="1.03756">
        <ele>2505</ele>
        <time>2010-01-01T02:29:09Z</time>
      </trkpt>
      <trkpt lat="42.77895" lon="1.03752">
        <ele>2501</ele>
        <time>2010-01-01T02:29:10Z</time>
      </trkpt>
      <trkpt lat="42.77904" lon="1.03751">
        <ele>2498</ele>
        <time>2010-01-01T02:29:14Z</time>
      </trkpt>
      <trkpt lat="42.77913" lon="1.03752">
        <ele>2495</ele>
        <time>2010-01-01T02:29:17Z</time>
      </trkpt>
      <trkpt lat="42.77922" lon="1.03752">
        <ele>2492</ele>
        <time>2010-01-01T02:29:21Z</time>
      </trkpt>
      <trkpt lat="42.77926" lon="1.03753">
        <ele>2491</ele>
        <time>2010-01-01T02:29:23Z</time>
      </trkpt>
      <trkpt lat="42.77931" lon="1.03755">
        <ele>2491</ele>
        <time>2010-01-01T02:29:25Z</time>
      </trkpt>
      <trkpt lat="42.77944" lon="1.03759">
        <ele>2488</ele>
        <time>2010-01-01T02:29:30Z</time>
      </trkpt>
      <trkpt lat="42.77948" lon="1.03756">
        <ele>2485</ele>
        <time>2010-01-01T02:29:32Z</time>
      </trkpt>
      <trkpt lat="42.77951" lon="1.03753">
        <ele>2483</ele>
        <time>2010-01-01T02:29:34Z</time>
      </trkpt>
      <trkpt lat="42.77952" lon="1.03743">
        <ele>2479</ele>
        <time>2010-01-01T02:29:37Z</time>
      </trkpt>
      <trkpt lat="42.77952" lon="1.03741">
        <ele>2478</ele>
        <time>2010-01-01T02:29:37Z</time>
      </trkpt>
      <trkpt lat="42.77956" lon="1.03737">
        <ele>2477</ele>
        <time>2010-01-01T02:29:39Z</time>
      </trkpt>
      <trkpt lat="42.77959" lon="1.03733">
        <ele>2476</ele>
        <time>2010-01-01T02:29:41Z</time>
      </trkpt>
      <trkpt lat="42.77965" lon="1.03729">
        <ele>2475</ele>
        <time>2010-01-01T02:29:43Z</time>
      </trkpt>
      <trkpt lat="42.77971" lon="1.03722">
        <ele>2473</ele>
        <time>2010-01-01T02:29:46Z</time>
      </trkpt>
      <trkpt lat="42.77976" lon="1.0372">
        <ele>2472</ele>
        <time>2010-01-01T02:29:48Z</time>
      </trkpt>
      <trkpt lat="42.77983" lon="1.03707">
        <ele>2468</ele>
        <time>2010-01-01T02:29:53Z</time>
      </trkpt>
      <trkpt lat="42.77983" lon="1.03697">
        <ele>2465</ele>
        <time>2010-01-01T02:29:56Z</time>
      </trkpt>
      <trkpt lat="42.77989" lon="1.0368">
        <ele>2460</ele>
        <time>2010-01-01T02:30:02Z</time>
      </trkpt>
      <trkpt lat="42.77986" lon="1.03678">
        <ele>2460</ele>
        <time>2010-01-01T02:30:03Z</time>
      </trkpt>
      <trkpt lat="42.77997" lon="1.03664">
        <ele>2454</ele>
        <time>2010-01-01T02:30:09Z</time>
      </trkpt>
      <trkpt lat="42.78001" lon="1.0366">
        <ele>2454</ele>
        <time>2010-01-01T02:30:11Z</time>
      </trkpt>
      <trkpt lat="42.78004" lon="1.03642">
        <ele>2451</ele>
        <time>2010-01-01T02:30:16Z</time>
      </trkpt>
      <trkpt lat="42.78007" lon="1.03637">
        <ele>2450</ele>
        <time>2010-01-01T02:30:18Z</time>
      </trkpt>
      <trkpt lat="42.78017" lon="1.03627">
        <ele>2449</ele>
        <time>2010-01-01T02:30:23Z</time>
      </trkpt>
      <trkpt lat="42.78016" lon="1.03622">
        <ele>2449</ele>
        <time>2010-01-01T02:30:25Z</time>
      </trkpt>
      <trkpt lat="42.78014" lon="1.0362">
        <ele>2449</ele>
        <time>2010-01-01T02:30:26Z</time>
      </trkpt>
      <trkpt lat="42.78014" lon="1.03616">
        <ele>2448</ele>
        <time>2010-01-01T02:30:27Z</time>
      </trkpt>
      <trkpt lat="42.78014" lon="1.03608">
        <ele>2447</ele>
        <time>2010-01-01T02:30:29Z</time>
      </trkpt>
      <trkpt lat="42.78013" lon="1.03604">
        <ele>2446</ele>
        <time>2010-01-01T02:30:31Z</time>
      </trkpt>
      <trkpt lat="42.78015" lon="1.036">
        <ele>2445</ele>
        <time>2010-01-01T02:30:32Z</time>
      </trkpt>
      <trkpt lat="42.78036" lon="1.0359">
        <ele>2442</ele>
        <time>2010-01-01T02:30:41Z</time>
      </trkpt>
      <trkpt lat="42.78038" lon="1.03589">
        <ele>2442</ele>
        <time>2010-01-01T02:30:41Z</time>
      </trkpt>
      <trkpt lat="42.78047" lon="1.03581">
        <ele>2439</ele>
        <time>2010-01-01T02:30:46Z</time>
      </trkpt>
      <trkpt lat="42.78046" lon="1.03578">
        <ele>2439</ele>
        <time>2010-01-01T02:30:47Z</time>
      </trkpt>
      <trkpt lat="42.78049" lon="1.03579">
        <ele>2439</ele>
        <time>2010-01-01T02:30:48Z</time>
      </trkpt>
      <trkpt lat="42.78049" lon="1.03578">
        <ele>2439</ele>
        <time>2010-01-01T02:30:49Z</time>
      </trkpt>
      <trkpt lat="42.78048" lon="1.03577">
        <ele>2439</ele>
        <time>2010-01-01T02:30:49Z</time>
      </trkpt>
      <trkpt lat="42.78048" lon="1.03579">
        <ele>2439</ele>
        <time>2010-01-01T02:30:50Z</time>
      </trkpt>
      <trkpt lat="42.78052" lon="1.0358">
        <ele>2438</ele>
        <time>2010-01-01T02:30:51Z</time>
      </trkpt>
      <trkpt lat="42.7805" lon="1.03579">
        <ele>2438</ele>
        <time>2010-01-01T02:30:52Z</time>
      </trkpt>
      <trkpt lat="42.78048" lon="1.03581">
        <ele>2439</ele>
        <time>2010-01-01T02:30:53Z</time>
      </trkpt>
      <trkpt lat="42.78049" lon="1.0358">
        <ele>2439</ele>
        <time>2010-01-01T02:30:53Z</time>
      </trkpt>
      <trkpt lat="42.78047" lon="1.03576">
        <ele>2439</ele>
        <time>2010-01-01T02:30:54Z</time>
      </trkpt>
      <trkpt lat="42.78047" lon="1.03575">
        <ele>2439</ele>
        <time>2010-01-01T02:30:55Z</time>
      </trkpt>
      <trkpt lat="42.78048" lon="1.03577">
        <ele>2439</ele>
        <time>2010-01-01T02:30:56Z</time>
      </trkpt>
      <trkpt lat="42.78048" lon="1.03576">
        <ele>2439</ele>
        <time>2010-01-01T02:30:56Z</time>
      </trkpt>
      <trkpt lat="42.78047" lon="1.03577">
        <ele>2439</ele>
        <time>2010-01-01T02:30:57Z</time>
      </trkpt>
      <trkpt lat="42.78048" lon="1.03578">
        <ele>2439</ele>
        <time>2010-01-01T02:30:57Z</time>
      </trkpt>
      <trkpt lat="42.78047" lon="1.03578">
        <ele>2439</ele>
        <time>2010-01-01T02:30:58Z</time>
      </trkpt>
      <trkpt lat="42.78049" lon="1.03576">
        <ele>2439</ele>
        <time>2010-01-01T02:30:59Z</time>
      </trkpt>
      <trkpt lat="42.78047" lon="1.03577">
        <ele>2439</ele>
        <time>2010-01-01T02:30:59Z</time>
      </trkpt>
      <trkpt lat="42.78047" lon="1.03578">
        <ele>2439</ele>
        <time>2010-01-01T02:31:00Z</time>
      </trkpt>
      <trkpt lat="42.78047" lon="1.03578">
        <ele>2439</ele>
        <time>2010-01-01T02:31:00Z</time>
      </trkpt>
      <trkpt lat="42.78047" lon="1.03579">
        <ele>2439</ele>
        <time>2010-01-01T02:31:00Z</time>
      </trkpt>
      <trkpt lat="42.78047" lon="1.03579">
        <ele>2439</ele>
        <time>2010-01-01T02:31:00Z</time>
      </trkpt>
      <trkpt lat="42.78047" lon="1.03578">
        <ele>2439</ele>
        <time>2010-01-01T02:31:01Z</time>
      </trkpt>
      <trkpt lat="42.78047" lon="1.03578">
        <ele>2439</ele>
        <time>2010-01-01T02:31:01Z</time>
      </trkpt>
      <trkpt lat="42.78047" lon="1.03577">
        <ele>2439</ele>
        <time>2010-01-01T02:31:01Z</time>
      </trkpt>
      <trkpt lat="42.78047" lon="1.03578">
        <ele>2439</ele>
        <time>2010-01-01T02:31:01Z</time>
      </trkpt>
      <trkpt lat="42.78047" lon="1.03578">
        <ele>2439</ele>
        <time>2010-01-01T02:31:01Z</time>
      </trkpt>
      <trkpt lat="42.78046" lon="1.03577">
        <ele>2439</ele>
        <time>2010-01-01T02:31:02Z</time>
      </trkpt>
      <trkpt lat="42.78047" lon="1.03575">
        <ele>2439</ele>
        <time>2010-01-01T02:31:03Z</time>
      </trkpt>
      <trkpt lat="42.78047" lon="1.03576">
        <ele>2439</ele>
        <time>2010-01-01T02:31:03Z</time>
      </trkpt>
      <trkpt lat="42.78046" lon="1.03577">
        <ele>2439</ele>
        <time>2010-01-01T02:31:03Z</time>
      </trkpt>
      <trkpt lat="42.78046" lon="1.03578">
        <ele>2439</ele>
        <time>2010-01-01T02:31:03Z</time>
      </trkpt>
      <trkpt lat="42.78047" lon="1.03578">
        <ele>2439</ele>
        <time>2010-01-01T02:31:04Z</time>
      </trkpt>
      <trkpt lat="42.78048" lon="1.03577">
        <ele>2439</ele>
        <time>2010-01-01T02:31:04Z</time>
      </trkpt>
      <trkpt lat="42.78046" lon="1.03578">
        <ele>2439</ele>
        <time>2010-01-01T02:31:05Z</time>
      </trkpt>
      <trkpt lat="42.78047" lon="1.03579">
        <ele>2439</ele>
        <time>2010-01-01T02:31:05Z</time>
      </trkpt>
      <trkpt lat="42.78047" lon="1.03578">
        <ele>2439</ele>
        <time>2010-01-01T02:31:05Z</time>
      </trkpt>
      <trkpt lat="42.78048" lon="1.0358">
        <ele>2439</ele>
        <time>2010-01-01T02:31:06Z</time>
      </trkpt>
      <trkpt lat="42.78047" lon="1.03578">
        <ele>2439</ele>
        <time>2010-01-01T02:31:07Z</time>
      </trkpt>
      <trkpt lat="42.78047" lon="1.03579">
        <ele>2439</ele>
        <time>2010-01-01T02:31:07Z</time>
      </trkpt>
      <trkpt lat="42.78047" lon="1.03579">
        <ele>2439</ele>
        <time>2010-01-01T02:31:08Z</time>
      </trkpt>
      <trkpt lat="42.78049" lon="1.03576">
        <ele>2438</ele>
        <time>2010-01-01T02:31:09Z</time>
      </trkpt>
      <trkpt lat="42.78051" lon="1.03576">
        <ele>2438</ele>
        <time>2010-01-01T02:31:10Z</time>
      </trkpt>
      <trkpt lat="42.78058" lon="1.03571">
        <ele>2437</ele>
        <time>2010-01-01T02:31:12Z</time>
      </trkpt>
      <trkpt lat="42.78056" lon="1.03572">
        <ele>2437</ele>
        <time>2010-01-01T02:31:13Z</time>
      </trkpt>
      <trkpt lat="42.78062" lon="1.03572">
        <ele>2436</ele>
        <time>2010-01-01T02:31:15Z</time>
      </trkpt>
      <trkpt lat="42.7807" lon="1.03575">
        <ele>2435</ele>
        <time>2010-01-01T02:31:19Z</time>
      </trkpt>
      <trkpt lat="42.78071" lon="1.0358">
        <ele>2435</ele>
        <time>2010-01-01T02:31:20Z</time>
      </trkpt>
      <trkpt lat="42.78071" lon="1.03594">
        <ele>2438</ele>
        <time>2010-01-01T02:31:24Z</time>
      </trkpt>
      <trkpt lat="42.7807" lon="1.03609">
        <ele>2441</ele>
        <time>2010-01-01T02:31:29Z</time>
      </trkpt>
      <trkpt lat="42.78067" lon="1.03614">
        <ele>2442</ele>
        <time>2010-01-01T02:31:31Z</time>
      </trkpt>
      <trkpt lat="42.78066" lon="1.03631">
        <ele>2443</ele>
        <time>2010-01-01T02:31:36Z</time>
      </trkpt>
      <trkpt lat="42.78073" lon="1.03649">
        <ele>2441</ele>
        <time>2010-01-01T02:31:42Z</time>
      </trkpt>
      <trkpt lat="42.78073" lon="1.03651">
        <ele>2441</ele>
        <time>2010-01-01T02:31:42Z</time>
      </trkpt>
      <trkpt lat="42.78075" lon="1.03667">
        <ele>2440</ele>
        <time>2010-01-01T02:31:47Z</time>
      </trkpt>
      <trkpt lat="42.78069" lon="1.03683">
        <ele>2443</ele>
        <time>2010-01-01T02:31:52Z</time>
      </trkpt>
      <trkpt lat="42.78068" lon="1.03687">
        <ele>2443</ele>
        <time>2010-01-01T02:31:54Z</time>
      </trkpt>
      <trkpt lat="42.78075" lon="1.03702">
        <ele>2443</ele>
        <time>2010-01-01T02:31:59Z</time>
      </trkpt>
      <trkpt lat="42.78076" lon="1.03703">
        <ele>2443</ele>
        <time>2010-01-01T02:31:59Z</time>
      </trkpt>
      <trkpt lat="42.78082" lon="1.03703">
        <ele>2442</ele>
        <time>2010-01-01T02:32:02Z</time>
      </trkpt>
      <trkpt lat="42.78089" lon="1.03712">
        <ele>2443</ele>
        <time>2010-01-01T02:32:06Z</time>
      </trkpt>
      <trkpt lat="42.78095" lon="1.03718">
        <ele>2444</ele>
        <time>2010-01-01T02:32:09Z</time>
      </trkpt>
      <trkpt lat="42.78096" lon="1.03723">
        <ele>2445</ele>
        <time>2010-01-01T02:32:10Z</time>
      </trkpt>
      <trkpt lat="42.78097" lon="1.03729">
        <ele>2447</ele>
        <time>2010-01-01T02:32:12Z</time>
      </trkpt>
      <trkpt lat="42.78107" lon="1.03729">
        <ele>2446</ele>
        <time>2010-01-01T02:32:16Z</time>
      </trkpt>
      <trkpt lat="42.7811" lon="1.0373">
        <ele>2447</ele>
        <time>2010-01-01T02:32:17Z</time>
      </trkpt>
      <trkpt lat="42.78129" lon="1.03742">
        <ele>2449</ele>
        <time>2010-01-01T02:32:25Z</time>
      </trkpt>
      <trkpt lat="42.78134" lon="1.0375">
        <ele>2452</ele>
        <time>2010-01-01T02:32:29Z</time>
      </trkpt>
      <trkpt lat="42.78133" lon="1.03761">
        <ele>2454</ele>
        <time>2010-01-01T02:32:32Z</time>
      </trkpt>
      <trkpt lat="42.78134" lon="1.03764">
        <ele>2455</ele>
        <time>2010-01-01T02:32:32Z</time>
      </trkpt>
      <trkpt lat="42.78137" lon="1.03774">
        <ele>2456</ele>
        <time>2010-01-01T02:32:36Z</time>
      </trkpt>
      <trkpt lat="42.7815" lon="1.03776">
        <ele>2455</ele>
        <time>2010-01-01T02:32:41Z</time>
      </trkpt>
      <trkpt lat="42.78168" lon="1.03778">
        <ele>2453</ele>
        <time>2010-01-01T02:32:48Z</time>
      </trkpt>
      <trkpt lat="42.78176" lon="1.03781">
        <ele>2454</ele>
        <time>2010-01-01T02:32:52Z</time>
      </trkpt>
      <trkpt lat="42.7818" lon="1.03785">
        <ele>2455</ele>
        <time>2010-01-01T02:32:54Z</time>
      </trkpt>
      <trkpt lat="42.78182" lon="1.03787">
        <ele>2455</ele>
        <time>2010-01-01T02:32:55Z</time>
      </trkpt>
      <trkpt lat="42.78189" lon="1.03791">
        <ele>2457</ele>
        <time>2010-01-01T02:32:58Z</time>
      </trkpt>
      <trkpt lat="42.78191" lon="1.03793">
        <ele>2457</ele>
        <time>2010-01-01T02:32:59Z</time>
      </trkpt>
      <trkpt lat="42.78209" lon="1.03804">
        <ele>2460</ele>
        <time>2010-01-01T02:33:07Z</time>
      </trkpt>
      <trkpt lat="42.78216" lon="1.03805">
        <ele>2460</ele>
        <time>2010-01-01T02:33:10Z</time>
      </trkpt>
      <trkpt lat="42.78225" lon="1.03803">
        <ele>2459</ele>
        <time>2010-01-01T02:33:13Z</time>
      </trkpt>
      <trkpt lat="42.78225" lon="1.03808">
        <ele>2460</ele>
        <time>2010-01-01T02:33:14Z</time>
      </trkpt>
      <trkpt lat="42.7823" lon="1.03817">
        <ele>2463</ele>
        <time>2010-01-01T02:33:18Z</time>
      </trkpt>
      <trkpt lat="42.7823" lon="1.03829">
        <ele>2466</ele>
        <time>2010-01-01T02:33:21Z</time>
      </trkpt>
      <trkpt lat="42.78235" lon="1.03836">
        <ele>2468</ele>
        <time>2010-01-01T02:33:24Z</time>
      </trkpt>
      <trkpt lat="42.78238" lon="1.03838">
        <ele>2468</ele>
        <time>2010-01-01T02:33:26Z</time>
      </trkpt>
      <trkpt lat="42.78245" lon="1.03851">
        <ele>2471</ele>
        <time>2010-01-01T02:33:30Z</time>
      </trkpt>
      <trkpt lat="42.78247" lon="1.03849">
        <ele>2470</ele>
        <time>2010-01-01T02:33:31Z</time>
      </trkpt>
      <trkpt lat="42.78255" lon="1.03839">
        <ele>2468</ele>
        <time>2010-01-01T02:33:36Z</time>
      </trkpt>
      <trkpt lat="42.78262" lon="1.03838">
        <ele>2468</ele>
        <time>2010-01-01T02:33:39Z</time>
      </trkpt>
      <trkpt lat="42.78265" lon="1.03842">
        <ele>2469</ele>
        <time>2010-01-01T02:33:40Z</time>
      </trkpt>
      <trkpt lat="42.78266" lon="1.03846">
        <ele>2470</ele>
        <time>2010-01-01T02:33:41Z</time>
      </trkpt>
      <trkpt lat="42.78273" lon="1.03856">
        <ele>2472</ele>
        <time>2010-01-01T02:33:46Z</time>
      </trkpt>
      <trkpt lat="42.78286" lon="1.03861">
        <ele>2473</ele>
        <time>2010-01-01T02:33:51Z</time>
      </trkpt>
      <trkpt lat="42.78294" lon="1.03853">
        <ele>2472</ele>
        <time>2010-01-01T02:33:55Z</time>
      </trkpt>
      <trkpt lat="42.78308" lon="1.03849">
        <ele>2471</ele>
        <time>2010-01-01T02:34:00Z</time>
      </trkpt>
      <trkpt lat="42.78315" lon="1.03846">
        <ele>2471</ele>
        <time>2010-01-01T02:34:03Z</time>
      </trkpt>
      <trkpt lat="42.78327" lon="1.03844">
        <ele>2472</ele>
        <time>2010-01-01T02:34:08Z</time>
      </trkpt>
      <trkpt lat="42.78329" lon="1.03843">
        <ele>2472</ele>
        <time>2010-01-01T02:34:09Z</time>
      </trkpt>
      <trkpt lat="42.78333" lon="1.03844">
        <ele>2473</ele>
        <time>2010-01-01T02:34:11Z</time>
      </trkpt>
      <trkpt lat="42.78343" lon="1.03861">
        <ele>2477</ele>
        <time>2010-01-01T02:34:17Z</time>
      </trkpt>
      <trkpt lat="42.78353" lon="1.03877">
        <ele>2481</ele>
        <time>2010-01-01T02:34:23Z</time>
      </trkpt>
      <trkpt lat="42.78361" lon="1.03888">
        <ele>2483</ele>
        <time>2010-01-01T02:34:28Z</time>
      </trkpt>
      <trkpt lat="42.78371" lon="1.03899">
        <ele>2486</ele>
        <time>2010-01-01T02:34:33Z</time>
      </trkpt>
      <trkpt lat="42.7838" lon="1.039">
        <ele>2486</ele>
        <time>2010-01-01T02:34:37Z</time>
      </trkpt>
      <trkpt lat="42.78393" lon="1.03895">
        <ele>2486</ele>
        <time>2010-01-01T02:34:42Z</time>
      </trkpt>
      <trkpt lat="42.78402" lon="1.03892">
        <ele>2486</ele>
        <time>2010-01-01T02:34:46Z</time>
      </trkpt>
      <trkpt lat="42.78412" lon="1.03875">
        <ele>2487</ele>
        <time>2010-01-01T02:34:52Z</time>
      </trkpt>
      <trkpt lat="42.78417" lon="1.03872">
        <ele>2488</ele>
        <time>2010-01-01T02:34:55Z</time>
      </trkpt>
      <trkpt lat="42.78432" lon="1.0386">
        <ele>2490</ele>
        <time>2010-01-01T02:35:01Z</time>
      </trkpt>
      <trkpt lat="42.78434" lon="1.03858">
        <ele>2490</ele>
        <time>2010-01-01T02:35:02Z</time>
      </trkpt>
      <trkpt lat="42.78451" lon="1.03842">
        <ele>2493</ele>
        <time>2010-01-01T02:35:11Z</time>
      </trkpt>
      <trkpt lat="42.78457" lon="1.03836">
        <ele>2493</ele>
        <time>2010-01-01T02:35:14Z</time>
      </trkpt>
      <trkpt lat="42.78459" lon="1.03835">
        <ele>2494</ele>
        <time>2010-01-01T02:35:15Z</time>
      </trkpt>
      <trkpt lat="42.7848" lon="1.03827">
        <ele>2495</ele>
        <time>2010-01-01T02:35:23Z</time>
      </trkpt>
      <trkpt lat="42.78501" lon="1.03825">
        <ele>2496</ele>
        <time>2010-01-01T02:35:32Z</time>
      </trkpt>
      <trkpt lat="42.78517" lon="1.03823">
        <ele>2497</ele>
        <time>2010-01-01T02:35:38Z</time>
      </trkpt>
      <trkpt lat="42.78531" lon="1.03814">
        <ele>2498</ele>
        <time>2010-01-01T02:35:44Z</time>
      </trkpt>
      <trkpt lat="42.78547" lon="1.03807">
        <ele>2499</ele>
        <time>2010-01-01T02:35:51Z</time>
      </trkpt>
      <trkpt lat="42.78559" lon="1.0381">
        <ele>2501</ele>
        <time>2010-01-01T02:35:56Z</time>
      </trkpt>
      <trkpt lat="42.78575" lon="1.03809">
        <ele>2502</ele>
        <time>2010-01-01T02:36:03Z</time>
      </trkpt>
      <trkpt lat="42.78578" lon="1.03809">
        <ele>2502</ele>
        <time>2010-01-01T02:36:04Z</time>
      </trkpt>
      <trkpt lat="42.78584" lon="1.03811">
        <ele>2502</ele>
        <time>2010-01-01T02:36:06Z</time>
      </trkpt>
      <trkpt lat="42.78588" lon="1.03813">
        <ele>2502</ele>
        <time>2010-01-01T02:36:08Z</time>
      </trkpt>
      <trkpt lat="42.78597" lon="1.03817">
        <ele>2503</ele>
        <time>2010-01-01T02:36:12Z</time>
      </trkpt>
      <trkpt lat="42.78618" lon="1.0382">
        <ele>2504</ele>
        <time>2010-01-01T02:36:20Z</time>
      </trkpt>
      <trkpt lat="42.78635" lon="1.03823">
        <ele>2507</ele>
        <time>2010-01-01T02:36:27Z</time>
      </trkpt>
      <trkpt lat="42.78639" lon="1.03822">
        <ele>2508</ele>
        <time>2010-01-01T02:36:28Z</time>
      </trkpt>
      <trkpt lat="42.7865" lon="1.03814">
        <ele>2508</ele>
        <time>2010-01-01T02:36:34Z</time>
      </trkpt>
      <trkpt lat="42.78655" lon="1.0381">
        <ele>2508</ele>
        <time>2010-01-01T02:36:36Z</time>
      </trkpt>
      <trkpt lat="42.78655" lon="1.03809">
        <ele>2508</ele>
        <time>2010-01-01T02:36:36Z</time>
      </trkpt>
      <trkpt lat="42.78655" lon="1.03807">
        <ele>2507</ele>
        <time>2010-01-01T02:36:37Z</time>
      </trkpt>
      <trkpt lat="42.78662" lon="1.03809">
        <ele>2510</ele>
        <time>2010-01-01T02:36:40Z</time>
      </trkpt>
      <trkpt lat="42.78675" lon="1.03806">
        <ele>2512</ele>
        <time>2010-01-01T02:36:45Z</time>
      </trkpt>
      <trkpt lat="42.78678" lon="1.03803">
        <ele>2512</ele>
        <time>2010-01-01T02:36:46Z</time>
      </trkpt>
      <trkpt lat="42.7868" lon="1.03802">
        <ele>2512</ele>
        <time>2010-01-01T02:36:47Z</time>
      </trkpt>
      <trkpt lat="42.78682" lon="1.038">
        <ele>2512</ele>
        <time>2010-01-01T02:36:48Z</time>
      </trkpt>
      <trkpt lat="42.78684" lon="1.03799">
        <ele>2512</ele>
        <time>2010-01-01T02:36:49Z</time>
      </trkpt>
      <trkpt lat="42.78693" lon="1.0379">
        <ele>2511</ele>
        <time>2010-01-01T02:36:53Z</time>
      </trkpt>
      <trkpt lat="42.78697" lon="1.03788">
        <ele>2511</ele>
        <time>2010-01-01T02:36:55Z</time>
      </trkpt>
      <trkpt lat="42.78696" lon="1.03789">
        <ele>2511</ele>
        <time>2010-01-01T02:36:56Z</time>
      </trkpt>
      <trkpt lat="42.78697" lon="1.03788">
        <ele>2511</ele>
        <time>2010-01-01T02:36:56Z</time>
      </trkpt>
      <trkpt lat="42.78699" lon="1.03787">
        <ele>2511</ele>
        <time>2010-01-01T02:36:57Z</time>
      </trkpt>
      <trkpt lat="42.78707" lon="1.03785">
        <ele>2509</ele>
        <time>2010-01-01T02:37:00Z</time>
      </trkpt>
      <trkpt lat="42.78717" lon="1.03781">
        <ele>2508</ele>
        <time>2010-01-01T02:37:04Z</time>
      </trkpt>
      <trkpt lat="42.78723" lon="1.0378">
        <ele>2506</ele>
        <time>2010-01-01T02:37:07Z</time>
      </trkpt>
      <trkpt lat="42.78739" lon="1.03784">
        <ele>2503</ele>
        <time>2010-01-01T02:37:13Z</time>
      </trkpt>
      <trkpt lat="42.78742" lon="1.03788">
        <ele>2503</ele>
        <time>2010-01-01T02:37:15Z</time>
      </trkpt>
      <trkpt lat="42.78755" lon="1.03802">
        <ele>2503</ele>
        <time>2010-01-01T02:37:22Z</time>
      </trkpt>
      <trkpt lat="42.78761" lon="1.03811">
        <ele>2503</ele>
        <time>2010-01-01T02:37:25Z</time>
      </trkpt>
      <trkpt lat="42.78768" lon="1.03819">
        <ele>2501</ele>
        <time>2010-01-01T02:37:29Z</time>
      </trkpt>
      <trkpt lat="42.7877" lon="1.03823">
        <ele>2501</ele>
        <time>2010-01-01T02:37:30Z</time>
      </trkpt>
      <trkpt lat="42.78771" lon="1.03831">
        <ele>2502</ele>
        <time>2010-01-01T02:37:33Z</time>
      </trkpt>
      <trkpt lat="42.78774" lon="1.03839">
        <ele>2500</ele>
        <time>2010-01-01T02:37:35Z</time>
      </trkpt>
      <trkpt lat="42.78782" lon="1.03854">
        <ele>2493</ele>
        <time>2010-01-01T02:37:41Z</time>
      </trkpt>
      <trkpt lat="42.78782" lon="1.03857">
        <ele>2493</ele>
        <time>2010-01-01T02:37:42Z</time>
      </trkpt>
      <trkpt lat="42.78784" lon="1.03862">
        <ele>2491</ele>
        <time>2010-01-01T02:37:43Z</time>
      </trkpt>
      <trkpt lat="42.78788" lon="1.03877">
        <ele>2484</ele>
        <time>2010-01-01T02:37:48Z</time>
      </trkpt>
      <trkpt lat="42.78788" lon="1.0389">
        <ele>2480</ele>
        <time>2010-01-01T02:37:52Z</time>
      </trkpt>
      <trkpt lat="42.78791" lon="1.03904">
        <ele>2474</ele>
        <time>2010-01-01T02:37:56Z</time>
      </trkpt>
      <trkpt lat="42.78796" lon="1.03918">
        <ele>2468</ele>
        <time>2010-01-01T02:38:01Z</time>
      </trkpt>
      <trkpt lat="42.78799" lon="1.03928">
        <ele>2463</ele>
        <time>2010-01-01T02:38:04Z</time>
      </trkpt>
      <trkpt lat="42.788" lon="1.03934">
        <ele>2461</ele>
        <time>2010-01-01T02:38:06Z</time>
      </trkpt>
      <trkpt lat="42.78799" lon="1.03937">
        <ele>2461</ele>
        <time>2010-01-01T02:38:07Z</time>
      </trkpt>
      <trkpt lat="42.78794" lon="1.03952">
        <ele>2459</ele>
        <time>2010-01-01T02:38:12Z</time>
      </trkpt>
      <trkpt lat="42.78792" lon="1.03967">
        <ele>2455</ele>
        <time>2010-01-01T02:38:16Z</time>
      </trkpt>
      <trkpt lat="42.78791" lon="1.03976">
        <ele>2452</ele>
        <time>2010-01-01T02:38:19Z</time>
      </trkpt>
      <trkpt lat="42.78794" lon="1.03982">
        <ele>2448</ele>
        <time>2010-01-01T02:38:21Z</time>
      </trkpt>
      <trkpt lat="42.78799" lon="1.03983">
        <ele>2445</ele>
        <time>2010-01-01T02:38:23Z</time>
      </trkpt>
      <trkpt lat="42.78799" lon="1.03991">
        <ele>2442</ele>
        <time>2010-01-01T02:38:25Z</time>
      </trkpt>
      <trkpt lat="42.788" lon="1.04">
        <ele>2438</ele>
        <time>2010-01-01T02:38:28Z</time>
      </trkpt>
      <trkpt lat="42.78805" lon="1.04004">
        <ele>2434</ele>
        <time>2010-01-01T02:38:30Z</time>
      </trkpt>
      <trkpt lat="42.7881" lon="1.04001">
        <ele>2431</ele>
        <time>2010-01-01T02:38:32Z</time>
      </trkpt>
      <trkpt lat="42.78814" lon="1.03995">
        <ele>2430</ele>
        <time>2010-01-01T02:38:35Z</time>
      </trkpt>
      <trkpt lat="42.7882" lon="1.04">
        <ele>2425</ele>
        <time>2010-01-01T02:38:37Z</time>
      </trkpt>
      <trkpt lat="42.78823" lon="1.03999">
        <ele>2422</ele>
        <time>2010-01-01T02:38:39Z</time>
      </trkpt>
      <trkpt lat="42.78826" lon="1.04002">
        <ele>2420</ele>
        <time>2010-01-01T02:38:40Z</time>
      </trkpt>
      <trkpt lat="42.78822" lon="1.04007">
        <ele>2422</ele>
        <time>2010-01-01T02:38:43Z</time>
      </trkpt>
      <trkpt lat="42.78821" lon="1.04017">
        <ele>2421</ele>
        <time>2010-01-01T02:38:45Z</time>
      </trkpt>
      <trkpt lat="42.7882" lon="1.04033">
        <ele>2419</ele>
        <time>2010-01-01T02:38:50Z</time>
      </trkpt>
      <trkpt lat="42.78819" lon="1.04039">
        <ele>2419</ele>
        <time>2010-01-01T02:38:52Z</time>
      </trkpt>
      <trkpt lat="42.78816" lon="1.04043">
        <ele>2420</ele>
        <time>2010-01-01T02:38:53Z</time>
      </trkpt>
      <trkpt lat="42.78812" lon="1.04053">
        <ele>2420</ele>
        <time>2010-01-01T02:38:57Z</time>
      </trkpt>
      <trkpt lat="42.78811" lon="1.04057">
        <ele>2420</ele>
        <time>2010-01-01T02:38:58Z</time>
      </trkpt>
      <trkpt lat="42.78808" lon="1.04062">
        <ele>2421</ele>
        <time>2010-01-01T02:39:00Z</time>
      </trkpt>
      <trkpt lat="42.78804" lon="1.04071">
        <ele>2422</ele>
        <time>2010-01-01T02:39:03Z</time>
      </trkpt>
      <trkpt lat="42.78802" lon="1.04083">
        <ele>2424</ele>
        <time>2010-01-01T02:39:07Z</time>
      </trkpt>
      <trkpt lat="42.78802" lon="1.04086">
        <ele>2424</ele>
        <time>2010-01-01T02:39:08Z</time>
      </trkpt>
      <trkpt lat="42.78801" lon="1.04093">
        <ele>2423</ele>
        <time>2010-01-01T02:39:10Z</time>
      </trkpt>
      <trkpt lat="42.78803" lon="1.04095">
        <ele>2422</ele>
        <time>2010-01-01T02:39:11Z</time>
      </trkpt>
      <trkpt lat="42.78802" lon="1.04099">
        <ele>2422</ele>
        <time>2010-01-01T02:39:12Z</time>
      </trkpt>
      <trkpt lat="42.78804" lon="1.04113">
        <ele>2420</ele>
        <time>2010-01-01T02:39:16Z</time>
      </trkpt>
      <trkpt lat="42.78808" lon="1.04124">
        <ele>2421</ele>
        <time>2010-01-01T02:39:20Z</time>
      </trkpt>
      <trkpt lat="42.78811" lon="1.04137">
        <ele>2423</ele>
        <time>2010-01-01T02:39:24Z</time>
      </trkpt>
      <trkpt lat="42.78814" lon="1.04146">
        <ele>2425</ele>
        <time>2010-01-01T02:39:26Z</time>
      </trkpt>
      <trkpt lat="42.78815" lon="1.0415">
        <ele>2426</ele>
        <time>2010-01-01T02:39:28Z</time>
      </trkpt>
      <trkpt lat="42.7882" lon="1.04166">
        <ele>2429</ele>
        <time>2010-01-01T02:39:33Z</time>
      </trkpt>
      <trkpt lat="42.78821" lon="1.04168">
        <ele>2429</ele>
        <time>2010-01-01T02:39:33Z</time>
      </trkpt>
      <trkpt lat="42.78824" lon="1.04181">
        <ele>2432</ele>
        <time>2010-01-01T02:39:38Z</time>
      </trkpt>
      <trkpt lat="42.78829" lon="1.04182">
        <ele>2429</ele>
        <time>2010-01-01T02:39:40Z</time>
      </trkpt>
      <trkpt lat="42.78834" lon="1.04194">
        <ele>2431</ele>
        <time>2010-01-01T02:39:43Z</time>
      </trkpt>
      <trkpt lat="42.78834" lon="1.042">
        <ele>2433</ele>
        <time>2010-01-01T02:39:45Z</time>
      </trkpt>
      <trkpt lat="42.78839" lon="1.04209">
        <ele>2432</ele>
        <time>2010-01-01T02:39:48Z</time>
      </trkpt>
      <trkpt lat="42.78843" lon="1.04217">
        <ele>2433</ele>
        <time>2010-01-01T02:39:51Z</time>
      </trkpt>
      <trkpt lat="42.78848" lon="1.04226">
        <ele>2434</ele>
        <time>2010-01-01T02:39:55Z</time>
      </trkpt>
      <trkpt lat="42.78854" lon="1.0423">
        <ele>2433</ele>
        <time>2010-01-01T02:39:57Z</time>
      </trkpt>
      <trkpt lat="42.78858" lon="1.0423">
        <ele>2431</ele>
        <time>2010-01-01T02:39:59Z</time>
      </trkpt>
      <trkpt lat="42.78864" lon="1.04235">
        <ele>2432</ele>
        <time>2010-01-01T02:40:02Z</time>
      </trkpt>
      <trkpt lat="42.78861" lon="1.04239">
        <ele>2434</ele>
        <time>2010-01-01T02:40:03Z</time>
      </trkpt>
      <trkpt lat="42.78868" lon="1.04237">
        <ele>2432</ele>
        <time>2010-01-01T02:40:06Z</time>
      </trkpt>
      <trkpt lat="42.78872" lon="1.04236">
        <ele>2431</ele>
        <time>2010-01-01T02:40:08Z</time>
      </trkpt>
      <trkpt lat="42.78878" lon="1.04235">
        <ele>2430</ele>
        <time>2010-01-01T02:40:10Z</time>
      </trkpt>
      <trkpt lat="42.78884" lon="1.04238">
        <ele>2431</ele>
        <time>2010-01-01T02:40:13Z</time>
      </trkpt>
      <trkpt lat="42.78892" lon="1.0424">
        <ele>2430</ele>
        <time>2010-01-01T02:40:16Z</time>
      </trkpt>
      <trkpt lat="42.78901" lon="1.04242">
        <ele>2429</ele>
        <time>2010-01-01T02:40:20Z</time>
      </trkpt>
      <trkpt lat="42.78914" lon="1.04252">
        <ele>2427</ele>
        <time>2010-01-01T02:40:26Z</time>
      </trkpt>
      <trkpt lat="42.78918" lon="1.04254">
        <ele>2426</ele>
        <time>2010-01-01T02:40:27Z</time>
      </trkpt>
      <trkpt lat="42.78922" lon="1.04256">
        <ele>2423</ele>
        <time>2010-01-01T02:40:29Z</time>
      </trkpt>
      <trkpt lat="42.78929" lon="1.04254">
        <ele>2420</ele>
        <time>2010-01-01T02:40:32Z</time>
      </trkpt>
      <trkpt lat="42.78926" lon="1.04252">
        <ele>2422</ele>
        <time>2010-01-01T02:40:33Z</time>
      </trkpt>
      <trkpt lat="42.78927" lon="1.0425">
        <ele>2422</ele>
        <time>2010-01-01T02:40:34Z</time>
      </trkpt>
      <trkpt lat="42.78933" lon="1.04242">
        <ele>2418</ele>
        <time>2010-01-01T02:40:38Z</time>
      </trkpt>
      <trkpt lat="42.78925" lon="1.04243">
        <ele>2421</ele>
        <time>2010-01-01T02:40:41Z</time>
      </trkpt>
      <trkpt lat="42.78922" lon="1.04241">
        <ele>2423</ele>
        <time>2010-01-01T02:40:42Z</time>
      </trkpt>
      <trkpt lat="42.78923" lon="1.04237">
        <ele>2421</ele>
        <time>2010-01-01T02:40:43Z</time>
      </trkpt>
      <trkpt lat="42.78927" lon="1.04242">
        <ele>2421</ele>
        <time>2010-01-01T02:40:46Z</time>
      </trkpt>
      <trkpt lat="42.7893" lon="1.04245">
        <ele>2420</ele>
        <time>2010-01-01T02:40:47Z</time>
      </trkpt>
      <trkpt lat="42.78931" lon="1.04246">
        <ele>2419</ele>
        <time>2010-01-01T02:40:48Z</time>
      </trkpt>
      <trkpt lat="42.78935" lon="1.04252">
        <ele>2418</ele>
        <time>2010-01-01T02:40:50Z</time>
      </trkpt>
      <trkpt lat="42.78939" lon="1.04247">
        <ele>2416</ele>
        <time>2010-01-01T02:40:52Z</time>
      </trkpt>
      <trkpt lat="42.78946" lon="1.04246">
        <ele>2413</ele>
        <time>2010-01-01T02:40:55Z</time>
      </trkpt>
      <trkpt lat="42.78948" lon="1.04244">
        <ele>2411</ele>
        <time>2010-01-01T02:40:56Z</time>
      </trkpt>
      <trkpt lat="42.78958" lon="1.04247">
        <ele>2407</ele>
        <time>2010-01-01T02:41:00Z</time>
      </trkpt>
      <trkpt lat="42.78959" lon="1.04244">
        <ele>2406</ele>
        <time>2010-01-01T02:41:01Z</time>
      </trkpt>
      <trkpt lat="42.78958" lon="1.04247">
        <ele>2407</ele>
        <time>2010-01-01T02:41:02Z</time>
      </trkpt>
      <trkpt lat="42.78959" lon="1.04249">
        <ele>2406</ele>
        <time>2010-01-01T02:41:03Z</time>
      </trkpt>
      <trkpt lat="42.78961" lon="1.04241">
        <ele>2406</ele>
        <time>2010-01-01T02:41:05Z</time>
      </trkpt>
      <trkpt lat="42.7896" lon="1.04245">
        <ele>2406</ele>
        <time>2010-01-01T02:41:06Z</time>
      </trkpt>
      <trkpt lat="42.78957" lon="1.04252">
        <ele>2407</ele>
        <time>2010-01-01T02:41:09Z</time>
      </trkpt>
      <trkpt lat="42.78962" lon="1.04248">
        <ele>2405</ele>
        <time>2010-01-01T02:41:11Z</time>
      </trkpt>
      <trkpt lat="42.78968" lon="1.04241">
        <ele>2403</ele>
        <time>2010-01-01T02:41:14Z</time>
      </trkpt>
      <trkpt lat="42.78971" lon="1.04239">
        <ele>2401</ele>
        <time>2010-01-01T02:41:15Z</time>
      </trkpt>
      <trkpt lat="42.78979" lon="1.04226">
        <ele>2401</ele>
        <time>2010-01-01T02:41:20Z</time>
      </trkpt>
      <trkpt lat="42.7898" lon="1.04223">
        <ele>2402</ele>
        <time>2010-01-01T02:41:21Z</time>
      </trkpt>
      <trkpt lat="42.78982" lon="1.04216">
        <ele>2400</ele>
        <time>2010-01-01T02:41:24Z</time>
      </trkpt>
      <trkpt lat="42.78988" lon="1.04212">
        <ele>2399</ele>
        <time>2010-01-01T02:41:26Z</time>
      </trkpt>
      <trkpt lat="42.78999" lon="1.04212">
        <ele>2399</ele>
        <time>2010-01-01T02:41:31Z</time>
      </trkpt>
      <trkpt lat="42.78999" lon="1.04213">
        <ele>2399</ele>
        <time>2010-01-01T02:41:31Z</time>
      </trkpt>
      <trkpt lat="42.79004" lon="1.04223">
        <ele>2400</ele>
        <time>2010-01-01T02:41:34Z</time>
      </trkpt>
      <trkpt lat="42.79006" lon="1.04246">
        <ele>2400</ele>
        <time>2010-01-01T02:41:41Z</time>
      </trkpt>
      <trkpt lat="42.79011" lon="1.04257">
        <ele>2399</ele>
        <time>2010-01-01T02:41:45Z</time>
      </trkpt>
      <trkpt lat="42.79014" lon="1.04267">
        <ele>2397</ele>
        <time>2010-01-01T02:41:48Z</time>
      </trkpt>
      <trkpt lat="42.79014" lon="1.04281">
        <ele>2394</ele>
        <time>2010-01-01T02:41:52Z</time>
      </trkpt>
      <trkpt lat="42.79014" lon="1.04282">
        <ele>2394</ele>
        <time>2010-01-01T02:41:52Z</time>
      </trkpt>
      <trkpt lat="42.79014" lon="1.04301">
        <ele>2390</ele>
        <time>2010-01-01T02:41:58Z</time>
      </trkpt>
      <trkpt lat="42.79014" lon="1.04313">
        <ele>2388</ele>
        <time>2010-01-01T02:42:02Z</time>
      </trkpt>
      <trkpt lat="42.79015" lon="1.04327">
        <ele>2384</ele>
        <time>2010-01-01T02:42:06Z</time>
      </trkpt>
      <trkpt lat="42.79014" lon="1.04345">
        <ele>2379</ele>
        <time>2010-01-01T02:42:11Z</time>
      </trkpt>
      <trkpt lat="42.79015" lon="1.04358">
        <ele>2376</ele>
        <time>2010-01-01T02:42:15Z</time>
      </trkpt>
      <trkpt lat="42.79014" lon="1.04363">
        <ele>2374</ele>
        <time>2010-01-01T02:42:16Z</time>
      </trkpt>
      <trkpt lat="42.79014" lon="1.04376">
        <ele>2370</ele>
        <time>2010-01-01T02:42:20Z</time>
      </trkpt>
      <trkpt lat="42.79014" lon="1.04391">
        <ele>2367</ele>
        <time>2010-01-01T02:42:24Z</time>
      </trkpt>
      <trkpt lat="42.79015" lon="1.04409">
        <ele>2364</ele>
        <time>2010-01-01T02:42:30Z</time>
      </trkpt>
      <trkpt lat="42.79015" lon="1.04415">
        <ele>2363</ele>
        <time>2010-01-01T02:42:32Z</time>
      </trkpt>
      <trkpt lat="42.79017" lon="1.04435">
        <ele>2360</ele>
        <time>2010-01-01T02:42:38Z</time>
      </trkpt>
      <trkpt lat="42.79014" lon="1.04447">
        <ele>2355</ele>
        <time>2010-01-01T02:42:41Z</time>
      </trkpt>
      <trkpt lat="42.79013" lon="1.04468">
        <ele>2351</ele>
        <time>2010-01-01T02:42:47Z</time>
      </trkpt>
      <trkpt lat="42.79011" lon="1.04473">
        <ele>2348</ele>
        <time>2010-01-01T02:42:49Z</time>
      </trkpt>
      <trkpt lat="42.79008" lon="1.04491">
        <ele>2343</ele>
        <time>2010-01-01T02:42:54Z</time>
      </trkpt>
      <trkpt lat="42.79008" lon="1.04499">
        <ele>2341</ele>
        <time>2010-01-01T02:42:57Z</time>
      </trkpt>
      <trkpt lat="42.79009" lon="1.04508">
        <ele>2342</ele>
        <time>2010-01-01T02:43:00Z</time>
      </trkpt>
      <trkpt lat="42.79006" lon="1.04529">
        <ele>2338</ele>
        <time>2010-01-01T02:43:06Z</time>
      </trkpt>
      <trkpt lat="42.79003" lon="1.04542">
        <ele>2335</ele>
        <time>2010-01-01T02:43:10Z</time>
      </trkpt>
      <trkpt lat="42.79003" lon="1.04549">
        <ele>2335</ele>
        <time>2010-01-01T02:43:12Z</time>
      </trkpt>
      <trkpt lat="42.79001" lon="1.04562">
        <ele>2332</ele>
        <time>2010-01-01T02:43:16Z</time>
      </trkpt>
      <trkpt lat="42.79" lon="1.04569">
        <ele>2330</ele>
        <time>2010-01-01T02:43:18Z</time>
      </trkpt>
      <trkpt lat="42.78998" lon="1.04587">
        <ele>2329</ele>
        <time>2010-01-01T02:43:23Z</time>
      </trkpt>
      <trkpt lat="42.79001" lon="1.04585">
        <ele>2331</ele>
        <time>2010-01-01T02:43:25Z</time>
      </trkpt>
      <trkpt lat="42.79005" lon="1.04586">
        <ele>2334</ele>
        <time>2010-01-01T02:43:26Z</time>
      </trkpt>
      <trkpt lat="42.79007" lon="1.04589">
        <ele>2336</ele>
        <time>2010-01-01T02:43:28Z</time>
      </trkpt>
      <trkpt lat="42.79003" lon="1.04587">
        <ele>2332</ele>
        <time>2010-01-01T02:43:29Z</time>
      </trkpt>
      <trkpt lat="42.79006" lon="1.04586">
        <ele>2335</ele>
        <time>2010-01-01T02:43:30Z</time>
      </trkpt>
      <trkpt lat="42.79004" lon="1.04586">
        <ele>2333</ele>
        <time>2010-01-01T02:43:31Z</time>
      </trkpt>
      <trkpt lat="42.79001" lon="1.04584">
        <ele>2331</ele>
        <time>2010-01-01T02:43:32Z</time>
      </trkpt>
      <trkpt lat="42.78999" lon="1.0459">
        <ele>2329</ele>
        <time>2010-01-01T02:43:34Z</time>
      </trkpt>
      <trkpt lat="42.78995" lon="1.04592">
        <ele>2328</ele>
        <time>2010-01-01T02:43:36Z</time>
      </trkpt>
      <trkpt lat="42.78994" lon="1.04599">
        <ele>2327</ele>
        <time>2010-01-01T02:43:38Z</time>
      </trkpt>
      <trkpt lat="42.7899" lon="1.04624">
        <ele>2323</ele>
        <time>2010-01-01T02:43:46Z</time>
      </trkpt>
      <trkpt lat="42.78989" lon="1.04627">
        <ele>2322</ele>
        <time>2010-01-01T02:43:46Z</time>
      </trkpt>
      <trkpt lat="42.78987" lon="1.04632">
        <ele>2320</ele>
        <time>2010-01-01T02:43:48Z</time>
      </trkpt>
      <trkpt lat="42.7898" lon="1.04643">
        <ele>2316</ele>
        <time>2010-01-01T02:43:52Z</time>
      </trkpt>
      <trkpt lat="42.78973" lon="1.04652">
        <ele>2312</ele>
        <time>2010-01-01T02:43:56Z</time>
      </trkpt>
      <trkpt lat="42.78973" lon="1.04655">
        <ele>2312</ele>
        <time>2010-01-01T02:43:57Z</time>
      </trkpt>
      <trkpt lat="42.78973" lon="1.04656">
        <ele>2311</ele>
        <time>2010-01-01T02:43:58Z</time>
      </trkpt>
      <trkpt lat="42.78971" lon="1.04669">
        <ele>2311</ele>
        <time>2010-01-01T02:44:01Z</time>
      </trkpt>
      <trkpt lat="42.78971" lon="1.0467">
        <ele>2310</ele>
        <time>2010-01-01T02:44:02Z</time>
      </trkpt>
      <trkpt lat="42.78964" lon="1.0468">
        <ele>2311</ele>
        <time>2010-01-01T02:44:06Z</time>
      </trkpt>
      <trkpt lat="42.78961" lon="1.04692">
        <ele>2310</ele>
        <time>2010-01-01T02:44:09Z</time>
      </trkpt>
      <trkpt lat="42.78961" lon="1.04701">
        <ele>2310</ele>
        <time>2010-01-01T02:44:12Z</time>
      </trkpt>
      <trkpt lat="42.7896" lon="1.04715">
        <ele>2311</ele>
        <time>2010-01-01T02:44:16Z</time>
      </trkpt>
      <trkpt lat="42.78961" lon="1.04722">
        <ele>2312</ele>
        <time>2010-01-01T02:44:19Z</time>
      </trkpt>
      <trkpt lat="42.78965" lon="1.04747">
        <ele>2312</ele>
        <time>2010-01-01T02:44:26Z</time>
      </trkpt>
      <trkpt lat="42.78961" lon="1.04758">
        <ele>2311</ele>
        <time>2010-01-01T02:44:30Z</time>
      </trkpt>
      <trkpt lat="42.78961" lon="1.04764">
        <ele>2310</ele>
        <time>2010-01-01T02:44:32Z</time>
      </trkpt>
      <trkpt lat="42.78958" lon="1.04771">
        <ele>2309</ele>
        <time>2010-01-01T02:44:34Z</time>
      </trkpt>
      <trkpt lat="42.78955" lon="1.04792">
        <ele>2305</ele>
        <time>2010-01-01T02:44:40Z</time>
      </trkpt>
      <trkpt lat="42.78956" lon="1.04817">
        <ele>2302</ele>
        <time>2010-01-01T02:44:48Z</time>
      </trkpt>
      <trkpt lat="42.78959" lon="1.04833">
        <ele>2300</ele>
        <time>2010-01-01T02:44:52Z</time>
      </trkpt>
      <trkpt lat="42.78961" lon="1.04846">
        <ele>2298</ele>
        <time>2010-01-01T02:44:56Z</time>
      </trkpt>
      <trkpt lat="42.7896" lon="1.04844">
        <ele>2298</ele>
        <time>2010-01-01T02:44:57Z</time>
      </trkpt>
      <trkpt lat="42.78962" lon="1.0485">
        <ele>2297</ele>
        <time>2010-01-01T02:44:59Z</time>
      </trkpt>
      <trkpt lat="42.78963" lon="1.04853">
        <ele>2297</ele>
        <time>2010-01-01T02:45:00Z</time>
      </trkpt>
      <trkpt lat="42.78965" lon="1.04869">
        <ele>2294</ele>
        <time>2010-01-01T02:45:05Z</time>
      </trkpt>
      <trkpt lat="42.78964" lon="1.04873">
        <ele>2292</ele>
        <time>2010-01-01T02:45:06Z</time>
      </trkpt>
      <trkpt lat="42.7896" lon="1.04881">
        <ele>2289</ele>
        <time>2010-01-01T02:45:09Z</time>
      </trkpt>
      <trkpt lat="42.78962" lon="1.04885">
        <ele>2288</ele>
        <time>2010-01-01T02:45:10Z</time>
      </trkpt>
      <trkpt lat="42.78966" lon="1.04898">
        <ele>2286</ele>
        <time>2010-01-01T02:45:14Z</time>
      </trkpt>
      <trkpt lat="42.78964" lon="1.04908">
        <ele>2283</ele>
        <time>2010-01-01T02:45:17Z</time>
      </trkpt>
      <trkpt lat="42.78962" lon="1.04911">
        <ele>2282</ele>
        <time>2010-01-01T02:45:19Z</time>
      </trkpt>
      <trkpt lat="42.78961" lon="1.04925">
        <ele>2279</ele>
        <time>2010-01-01T02:45:23Z</time>
      </trkpt>
      <trkpt lat="42.78962" lon="1.04932">
        <ele>2278</ele>
        <time>2010-01-01T02:45:25Z</time>
      </trkpt>
      <trkpt lat="42.78963" lon="1.04944">
        <ele>2277</ele>
        <time>2010-01-01T02:45:28Z</time>
      </trkpt>
      <trkpt lat="42.78961" lon="1.04955">
        <ele>2274</ele>
        <time>2010-01-01T02:45:32Z</time>
      </trkpt>
      <trkpt lat="42.78961" lon="1.04961">
        <ele>2272</ele>
        <time>2010-01-01T02:45:34Z</time>
      </trkpt>
      <trkpt lat="42.78961" lon="1.04973">
        <ele>2268</ele>
        <time>2010-01-01T02:45:37Z</time>
      </trkpt>
      <trkpt lat="42.78964" lon="1.04984">
        <ele>2267</ele>
        <time>2010-01-01T02:45:41Z</time>
      </trkpt>
      <trkpt lat="42.78966" lon="1.04997">
        <ele>2264</ele>
        <time>2010-01-01T02:45:45Z</time>
      </trkpt>
      <trkpt lat="42.78965" lon="1.0501">
        <ele>2257</ele>
        <time>2010-01-01T02:45:48Z</time>
      </trkpt>
      <trkpt lat="42.78965" lon="1.05019">
        <ele>2251</ele>
        <time>2010-01-01T02:45:51Z</time>
      </trkpt>
      <trkpt lat="42.78959" lon="1.0502">
        <ele>2246</ele>
        <time>2010-01-01T02:45:53Z</time>
      </trkpt>
      <trkpt lat="42.78957" lon="1.05026">
        <ele>2241</ele>
        <time>2010-01-01T02:45:55Z</time>
      </trkpt>
      <trkpt lat="42.78954" lon="1.05037">
        <ele>2234</ele>
        <time>2010-01-01T02:45:59Z</time>
      </trkpt>
      <trkpt lat="42.78954" lon="1.0504">
        <ele>2232</ele>
        <time>2010-01-01T02:46:00Z</time>
      </trkpt>
      <trkpt lat="42.78955" lon="1.05044">
        <ele>2231</ele>
        <time>2010-01-01T02:46:01Z</time>
      </trkpt>
      <trkpt lat="42.78953" lon="1.05048">
        <ele>2227</ele>
        <time>2010-01-01T02:46:02Z</time>
      </trkpt>
      <trkpt lat="42.78952" lon="1.05052">
        <ele>2225</ele>
        <time>2010-01-01T02:46:04Z</time>
      </trkpt>
      <trkpt lat="42.78951" lon="1.05058">
        <ele>2222</ele>
        <time>2010-01-01T02:46:05Z</time>
      </trkpt>
      <trkpt lat="42.78952" lon="1.05064">
        <ele>2222</ele>
        <time>2010-01-01T02:46:07Z</time>
      </trkpt>
      <trkpt lat="42.78954" lon="1.05072">
        <ele>2221</ele>
        <time>2010-01-01T02:46:10Z</time>
      </trkpt>
      <trkpt lat="42.78953" lon="1.0508">
        <ele>2220</ele>
        <time>2010-01-01T02:46:12Z</time>
      </trkpt>
      <trkpt lat="42.78952" lon="1.05091">
        <ele>2217</ele>
        <time>2010-01-01T02:46:15Z</time>
      </trkpt>
      <trkpt lat="42.78951" lon="1.05093">
        <ele>2216</ele>
        <time>2010-01-01T02:46:16Z</time>
      </trkpt>
      <trkpt lat="42.78943" lon="1.05103">
        <ele>2210</ele>
        <time>2010-01-01T02:46:20Z</time>
      </trkpt>
      <trkpt lat="42.78945" lon="1.05105">
        <ele>2210</ele>
        <time>2010-01-01T02:46:21Z</time>
      </trkpt>
      <trkpt lat="42.78947" lon="1.05105">
        <ele>2211</ele>
        <time>2010-01-01T02:46:22Z</time>
      </trkpt>
      <trkpt lat="42.78957" lon="1.05114">
        <ele>2212</ele>
        <time>2010-01-01T02:46:27Z</time>
      </trkpt>
      <trkpt lat="42.78956" lon="1.0512">
        <ele>2209</ele>
        <time>2010-01-01T02:46:29Z</time>
      </trkpt>
      <trkpt lat="42.78957" lon="1.05125">
        <ele>2208</ele>
        <time>2010-01-01T02:46:30Z</time>
      </trkpt>
      <trkpt lat="42.78953" lon="1.05134">
        <ele>2202</ele>
        <time>2010-01-01T02:46:33Z</time>
      </trkpt>
      <trkpt lat="42.78952" lon="1.05137">
        <ele>2201</ele>
        <time>2010-01-01T02:46:34Z</time>
      </trkpt>
      <trkpt lat="42.78953" lon="1.0514">
        <ele>2200</ele>
        <time>2010-01-01T02:46:35Z</time>
      </trkpt>
      <trkpt lat="42.78953" lon="1.05147">
        <ele>2197</ele>
        <time>2010-01-01T02:46:37Z</time>
      </trkpt>
      <trkpt lat="42.78952" lon="1.05155">
        <ele>2194</ele>
        <time>2010-01-01T02:46:40Z</time>
      </trkpt>
      <trkpt lat="42.78951" lon="1.05162">
        <ele>2191</ele>
        <time>2010-01-01T02:46:42Z</time>
      </trkpt>
      <trkpt lat="42.78952" lon="1.05172">
        <ele>2187</ele>
        <time>2010-01-01T02:46:45Z</time>
      </trkpt>
      <trkpt lat="42.7895" lon="1.05175">
        <ele>2185</ele>
        <time>2010-01-01T02:46:46Z</time>
      </trkpt>
      <trkpt lat="42.7895" lon="1.05175">
        <ele>2185</ele>
        <time>2010-01-01T02:46:46Z</time>
      </trkpt>
      <trkpt lat="42.78947" lon="1.05185">
        <ele>2179</ele>
        <time>2010-01-01T02:46:49Z</time>
      </trkpt>
      <trkpt lat="42.78942" lon="1.05193">
        <ele>2175</ele>
        <time>2010-01-01T02:46:52Z</time>
      </trkpt>
      <trkpt lat="42.78937" lon="1.052">
        <ele>2171</ele>
        <time>2010-01-01T02:46:55Z</time>
      </trkpt>
      <trkpt lat="42.78936" lon="1.05216">
        <ele>2166</ele>
        <time>2010-01-01T02:47:00Z</time>
      </trkpt>
      <trkpt lat="42.78934" lon="1.05227">
        <ele>2163</ele>
        <time>2010-01-01T02:47:03Z</time>
      </trkpt>
      <trkpt lat="42.78932" lon="1.05229">
        <ele>2162</ele>
        <time>2010-01-01T02:47:04Z</time>
      </trkpt>
      <trkpt lat="42.78932" lon="1.05244">
        <ele>2158</ele>
        <time>2010-01-01T02:47:09Z</time>
      </trkpt>
      <trkpt lat="42.78932" lon="1.05258">
        <ele>2156</ele>
        <time>2010-01-01T02:47:13Z</time>
      </trkpt>
      <trkpt lat="42.78935" lon="1.05265">
        <ele>2155</ele>
        <time>2010-01-01T02:47:15Z</time>
      </trkpt>
      <trkpt lat="42.78936" lon="1.05278">
        <ele>2153</ele>
        <time>2010-01-01T02:47:19Z</time>
      </trkpt>
      <trkpt lat="42.78936" lon="1.05291">
        <ele>2151</ele>
        <time>2010-01-01T02:47:23Z</time>
      </trkpt>
      <trkpt lat="42.78936" lon="1.05292">
        <ele>2150</ele>
        <time>2010-01-01T02:47:23Z</time>
      </trkpt>
      <trkpt lat="42.78932" lon="1.05309">
        <ele>2147</ele>
        <time>2010-01-01T02:47:28Z</time>
      </trkpt>
      <trkpt lat="42.78935" lon="1.05327">
        <ele>2147</ele>
        <time>2010-01-01T02:47:34Z</time>
      </trkpt>
      <trkpt lat="42.78936" lon="1.05341">
        <ele>2145</ele>
        <time>2010-01-01T02:47:38Z</time>
      </trkpt>
      <trkpt lat="42.78937" lon="1.05361">
        <ele>2142</ele>
        <time>2010-01-01T02:47:44Z</time>
      </trkpt>
      <trkpt lat="42.78939" lon="1.0537">
        <ele>2140</ele>
        <time>2010-01-01T02:47:46Z</time>
      </trkpt>
      <trkpt lat="42.78938" lon="1.05391">
        <ele>2136</ele>
        <time>2010-01-01T02:47:53Z</time>
      </trkpt>
      <trkpt lat="42.78945" lon="1.05407">
        <ele>2134</ele>
        <time>2010-01-01T02:47:58Z</time>
      </trkpt>
      <trkpt lat="42.7896" lon="1.05428">
        <ele>2135</ele>
        <time>2010-01-01T02:48:07Z</time>
      </trkpt>
      <trkpt lat="42.78962" lon="1.05432">
        <ele>2135</ele>
        <time>2010-01-01T02:48:08Z</time>
      </trkpt>
      <trkpt lat="42.78973" lon="1.05444">
        <ele>2137</ele>
        <time>2010-01-01T02:48:14Z</time>
      </trkpt>
      <trkpt lat="42.78978" lon="1.05455">
        <ele>2140</ele>
        <time>2010-01-01T02:48:18Z</time>
      </trkpt>
      <trkpt lat="42.7898" lon="1.05473">
        <ele>2141</ele>
        <time>2010-01-01T02:48:23Z</time>
      </trkpt>
      <trkpt lat="42.7898" lon="1.05483">
        <ele>2144</ele>
        <time>2010-01-01T02:48:26Z</time>
      </trkpt>
      <trkpt lat="42.78982" lon="1.05506">
        <ele>2153</ele>
        <time>2010-01-01T02:48:33Z</time>
      </trkpt>
      <trkpt lat="42.78979" lon="1.05525">
        <ele>2161</ele>
        <time>2010-01-01T02:48:38Z</time>
      </trkpt>
      <trkpt lat="42.78978" lon="1.05535">
        <ele>2165</ele>
        <time>2010-01-01T02:48:41Z</time>
      </trkpt>
      <trkpt lat="42.78978" lon="1.05538">
        <ele>2166</ele>
        <time>2010-01-01T02:48:42Z</time>
      </trkpt>
      <trkpt lat="42.78977" lon="1.05542">
        <ele>2167</ele>
        <time>2010-01-01T02:48:44Z</time>
      </trkpt>
      <trkpt lat="42.78978" lon="1.05552">
        <ele>2170</ele>
        <time>2010-01-01T02:48:46Z</time>
      </trkpt>
      <trkpt lat="42.78973" lon="1.05575">
        <ele>2173</ele>
        <time>2010-01-01T02:48:53Z</time>
      </trkpt>
      <trkpt lat="42.78937" lon="1.05621">
        <ele>2155</ele>
        <time>2010-01-01T02:49:13Z</time>
      </trkpt>
      <trkpt lat="42.78946" lon="1.05628">
        <ele>2159</ele>
        <time>2010-01-01T02:49:17Z</time>
      </trkpt>
      <trkpt lat="42.78954" lon="1.05621">
        <ele>2164</ele>
        <time>2010-01-01T02:49:21Z</time>
      </trkpt>
      <trkpt lat="42.78955" lon="1.05621">
        <ele>2164</ele>
        <time>2010-01-01T02:49:21Z</time>
      </trkpt>
      <trkpt lat="42.78955" lon="1.05627">
        <ele>2162</ele>
        <time>2010-01-01T02:49:23Z</time>
      </trkpt>
      <trkpt lat="42.78953" lon="1.05631">
        <ele>2160</ele>
        <time>2010-01-01T02:49:24Z</time>
      </trkpt>
      <trkpt lat="42.78948" lon="1.05643">
        <ele>2154</ele>
        <time>2010-01-01T02:49:28Z</time>
      </trkpt>
      <trkpt lat="42.7895" lon="1.05639">
        <ele>2155</ele>
        <time>2010-01-01T02:49:30Z</time>
      </trkpt>
      <trkpt lat="42.78952" lon="1.05642">
        <ele>2156</ele>
        <time>2010-01-01T02:49:31Z</time>
      </trkpt>
      <trkpt lat="42.78949" lon="1.0564">
        <ele>2155</ele>
        <time>2010-01-01T02:49:33Z</time>
      </trkpt>
      <trkpt lat="42.78935" lon="1.0565">
        <ele>2146</ele>
        <time>2010-01-01T02:49:39Z</time>
      </trkpt>
      <trkpt lat="42.78944" lon="1.05654">
        <ele>2150</ele>
        <time>2010-01-01T02:49:42Z</time>
      </trkpt>
      <trkpt lat="42.78939" lon="1.05652">
        <ele>2148</ele>
        <time>2010-01-01T02:49:44Z</time>
      </trkpt>
      <trkpt lat="42.78937" lon="1.0566">
        <ele>2145</ele>
        <time>2010-01-01T02:49:47Z</time>
      </trkpt>
      <trkpt lat="42.78935" lon="1.05674">
        <ele>2142</ele>
        <time>2010-01-01T02:49:51Z</time>
      </trkpt>
      <trkpt lat="42.78932" lon="1.05678">
        <ele>2140</ele>
        <time>2010-01-01T02:49:53Z</time>
      </trkpt>
      <trkpt lat="42.78931" lon="1.0568">
        <ele>2140</ele>
        <time>2010-01-01T02:49:54Z</time>
      </trkpt>
      <trkpt lat="42.78934" lon="1.05696">
        <ele>2140</ele>
        <time>2010-01-01T02:49:58Z</time>
      </trkpt>
      <trkpt lat="42.7894" lon="1.05703">
        <ele>2141</ele>
        <time>2010-01-01T02:50:02Z</time>
      </trkpt>
      <trkpt lat="42.78942" lon="1.05703">
        <ele>2142</ele>
        <time>2010-01-01T02:50:02Z</time>
      </trkpt>
      <trkpt lat="42.7895" lon="1.05713">
        <ele>2146</ele>
        <time>2010-01-01T02:50:07Z</time>
      </trkpt>
      <trkpt lat="42.78952" lon="1.05736">
        <ele>2146</ele>
        <time>2010-01-01T02:50:14Z</time>
      </trkpt>
      <trkpt lat="42.78954" lon="1.05743">
        <ele>2146</ele>
        <time>2010-01-01T02:50:16Z</time>
      </trkpt>
      <trkpt lat="42.78954" lon="1.0575">
        <ele>2146</ele>
        <time>2010-01-01T02:50:18Z</time>
      </trkpt>
      <trkpt lat="42.78955" lon="1.05762">
        <ele>2145</ele>
        <time>2010-01-01T02:50:21Z</time>
      </trkpt>
      <trkpt lat="42.78955" lon="1.05769">
        <ele>2145</ele>
        <time>2010-01-01T02:50:24Z</time>
      </trkpt>
      <trkpt lat="42.78953" lon="1.05783">
        <ele>2141</ele>
        <time>2010-01-01T02:50:28Z</time>
      </trkpt>
      <trkpt lat="42.78952" lon="1.0579">
        <ele>2141</ele>
        <time>2010-01-01T02:50:30Z</time>
      </trkpt>
      <trkpt lat="42.78948" lon="1.05804">
        <ele>2137</ele>
        <time>2010-01-01T02:50:34Z</time>
      </trkpt>
      <trkpt lat="42.78948" lon="1.05807">
        <ele>2138</ele>
        <time>2010-01-01T02:50:35Z</time>
      </trkpt>
      <trkpt lat="42.78946" lon="1.05809">
        <ele>2136</ele>
        <time>2010-01-01T02:50:36Z</time>
      </trkpt>
      <trkpt lat="42.78947" lon="1.05819">
        <ele>2139</ele>
        <time>2010-01-01T02:50:39Z</time>
      </trkpt>
      <trkpt lat="42.78948" lon="1.0582">
        <ele>2140</ele>
        <time>2010-01-01T02:50:40Z</time>
      </trkpt>
      <trkpt lat="42.78951" lon="1.05822">
        <ele>2142</ele>
        <time>2010-01-01T02:50:41Z</time>
      </trkpt>
      <trkpt lat="42.78951" lon="1.05824">
        <ele>2143</ele>
        <time>2010-01-01T02:50:42Z</time>
      </trkpt>
      <trkpt lat="42.78946" lon="1.05829">
        <ele>2140</ele>
        <time>2010-01-01T02:50:44Z</time>
      </trkpt>
      <trkpt lat="42.78941" lon="1.05828">
        <ele>2137</ele>
        <time>2010-01-01T02:50:46Z</time>
      </trkpt>
      <trkpt lat="42.78942" lon="1.05825">
        <ele>2137</ele>
        <time>2010-01-01T02:50:47Z</time>
      </trkpt>
      <trkpt lat="42.78942" lon="1.05825">
        <ele>2137</ele>
        <time>2010-01-01T02:50:48Z</time>
      </trkpt>
      <trkpt lat="42.78939" lon="1.05826">
        <ele>2136</ele>
        <time>2010-01-01T02:50:49Z</time>
      </trkpt>
      <trkpt lat="42.78942" lon="1.05831">
        <ele>2138</ele>
        <time>2010-01-01T02:50:51Z</time>
      </trkpt>
      <trkpt lat="42.78946" lon="1.05848">
        <ele>2143</ele>
        <time>2010-01-01T02:50:56Z</time>
      </trkpt>
      <trkpt lat="42.78948" lon="1.05855">
        <ele>2145</ele>
        <time>2010-01-01T02:50:58Z</time>
      </trkpt>
      <trkpt lat="42.78946" lon="1.05855">
        <ele>2144</ele>
        <time>2010-01-01T02:50:59Z</time>
      </trkpt>
      <trkpt lat="42.78949" lon="1.05869">
        <ele>2147</ele>
        <time>2010-01-01T02:51:03Z</time>
      </trkpt>
      <trkpt lat="42.78947" lon="1.05895">
        <ele>2148</ele>
        <time>2010-01-01T02:51:10Z</time>
      </trkpt>
      <trkpt lat="42.78952" lon="1.05911">
        <ele>2151</ele>
        <time>2010-01-01T02:51:15Z</time>
      </trkpt>
      <trkpt lat="42.78955" lon="1.05933">
        <ele>2155</ele>
        <time>2010-01-01T02:51:22Z</time>
      </trkpt>
      <trkpt lat="42.78956" lon="1.05935">
        <ele>2155</ele>
        <time>2010-01-01T02:51:23Z</time>
      </trkpt>
      <trkpt lat="42.78957" lon="1.05944">
        <ele>2157</ele>
        <time>2010-01-01T02:51:26Z</time>
      </trkpt>
      <trkpt lat="42.78958" lon="1.05948">
        <ele>2159</ele>
        <time>2010-01-01T02:51:27Z</time>
      </trkpt>
      <trkpt lat="42.78959" lon="1.05969">
        <ele>2163</ele>
        <time>2010-01-01T02:51:33Z</time>
      </trkpt>
      <trkpt lat="42.7896" lon="1.05965">
        <ele>2164</ele>
        <time>2010-01-01T02:51:34Z</time>
      </trkpt>
      <trkpt lat="42.78963" lon="1.05966">
        <ele>2165</ele>
        <time>2010-01-01T02:51:35Z</time>
      </trkpt>
      <trkpt lat="42.78966" lon="1.05973">
        <ele>2169</ele>
        <time>2010-01-01T02:51:37Z</time>
      </trkpt>
      <trkpt lat="42.78966" lon="1.0598">
        <ele>2167</ele>
        <time>2010-01-01T02:51:39Z</time>
      </trkpt>
      <trkpt lat="42.78975" lon="1.05981">
        <ele>2172</ele>
        <time>2010-01-01T02:51:43Z</time>
      </trkpt>
      <trkpt lat="42.78977" lon="1.05998">
        <ele>2169</ele>
        <time>2010-01-01T02:51:48Z</time>
      </trkpt>
      <trkpt lat="42.78976" lon="1.06003">
        <ele>2167</ele>
        <time>2010-01-01T02:51:50Z</time>
      </trkpt>
      <trkpt lat="42.7897" lon="1.05998">
        <ele>2167</ele>
        <time>2010-01-01T02:51:52Z</time>
      </trkpt>
      <trkpt lat="42.78966" lon="1.05998">
        <ele>2165</ele>
        <time>2010-01-01T02:51:54Z</time>
      </trkpt>
      <trkpt lat="42.78963" lon="1.06001">
        <ele>2163</ele>
        <time>2010-01-01T02:51:55Z</time>
      </trkpt>
      <trkpt lat="42.78963" lon="1.06033">
        <ele>2156</ele>
        <time>2010-01-01T02:52:05Z</time>
      </trkpt>
      <trkpt lat="42.78961" lon="1.06044">
        <ele>2153</ele>
        <time>2010-01-01T02:52:08Z</time>
      </trkpt>
      <trkpt lat="42.78957" lon="1.06054">
        <ele>2150</ele>
        <time>2010-01-01T02:52:12Z</time>
      </trkpt>
      <trkpt lat="42.78959" lon="1.06067">
        <ele>2147</ele>
        <time>2010-01-01T02:52:15Z</time>
      </trkpt>
      <trkpt lat="42.7896" lon="1.06073">
        <ele>2145</ele>
        <time>2010-01-01T02:52:17Z</time>
      </trkpt>
      <trkpt lat="42.78957" lon="1.061">
        <ele>2138</ele>
        <time>2010-01-01T02:52:25Z</time>
      </trkpt>
      <trkpt lat="42.78956" lon="1.06107">
        <ele>2136</ele>
        <time>2010-01-01T02:52:27Z</time>
      </trkpt>
      <trkpt lat="42.78951" lon="1.06128">
        <ele>2134</ele>
        <time>2010-01-01T02:52:34Z</time>
      </trkpt>
      <trkpt lat="42.78952" lon="1.06127">
        <ele>2134</ele>
        <time>2010-01-01T02:52:34Z</time>
      </trkpt>
      <trkpt lat="42.78952" lon="1.06131">
        <ele>2134</ele>
        <time>2010-01-01T02:52:35Z</time>
      </trkpt>
      <trkpt lat="42.78947" lon="1.06147">
        <ele>2133</ele>
        <time>2010-01-01T02:52:40Z</time>
      </trkpt>
      <trkpt lat="42.78944" lon="1.06152">
        <ele>2133</ele>
        <time>2010-01-01T02:52:42Z</time>
      </trkpt>
      <trkpt lat="42.78941" lon="1.06164">
        <ele>2130</ele>
        <time>2010-01-01T02:52:46Z</time>
      </trkpt>
      <trkpt lat="42.78939" lon="1.06165">
        <ele>2130</ele>
        <time>2010-01-01T02:52:47Z</time>
      </trkpt>
      <trkpt lat="42.78933" lon="1.06161">
        <ele>2130</ele>
        <time>2010-01-01T02:52:49Z</time>
      </trkpt>
      <trkpt lat="42.78932" lon="1.06161">
        <ele>2130</ele>
        <time>2010-01-01T02:52:50Z</time>
      </trkpt>
      <trkpt lat="42.7893" lon="1.06161">
        <ele>2129</ele>
        <time>2010-01-01T02:52:51Z</time>
      </trkpt>
      <trkpt lat="42.78927" lon="1.06162">
        <ele>2129</ele>
        <time>2010-01-01T02:52:52Z</time>
      </trkpt>
      <trkpt lat="42.78924" lon="1.06166">
        <ele>2128</ele>
        <time>2010-01-01T02:52:53Z</time>
      </trkpt>
      <trkpt lat="42.78924" lon="1.06171">
        <ele>2127</ele>
        <time>2010-01-01T02:52:55Z</time>
      </trkpt>
      <trkpt lat="42.78925" lon="1.06173">
        <ele>2127</ele>
        <time>2010-01-01T02:52:55Z</time>
      </trkpt>
      <trkpt lat="42.78934" lon="1.06191">
        <ele>2126</ele>
        <time>2010-01-01T02:53:02Z</time>
      </trkpt>
      <trkpt lat="42.78937" lon="1.06194">
        <ele>2126</ele>
        <time>2010-01-01T02:53:03Z</time>
      </trkpt>
      <trkpt lat="42.78944" lon="1.062">
        <ele>2126</ele>
        <time>2010-01-01T02:53:07Z</time>
      </trkpt>
      <trkpt lat="42.78947" lon="1.06199">
        <ele>2126</ele>
        <time>2010-01-01T02:53:08Z</time>
      </trkpt>
      <trkpt lat="42.78946" lon="1.06197">
        <ele>2126</ele>
        <time>2010-01-01T02:53:08Z</time>
      </trkpt>
      <trkpt lat="42.78948" lon="1.06199">
        <ele>2125</ele>
        <time>2010-01-01T02:53:09Z</time>
      </trkpt>
      <trkpt lat="42.78947" lon="1.06203">
        <ele>2125</ele>
        <time>2010-01-01T02:53:11Z</time>
      </trkpt>
      <trkpt lat="42.78947" lon="1.062">
        <ele>2125</ele>
        <time>2010-01-01T02:53:12Z</time>
      </trkpt>
      <trkpt lat="42.78946" lon="1.06199">
        <ele>2126</ele>
        <time>2010-01-01T02:53:12Z</time>
      </trkpt>
      <trkpt lat="42.78946" lon="1.06202">
        <ele>2125</ele>
        <time>2010-01-01T02:53:13Z</time>
      </trkpt>
      <trkpt lat="42.78946" lon="1.06203">
        <ele>2125</ele>
        <time>2010-01-01T02:53:13Z</time>
      </trkpt>
      <trkpt lat="42.78939" lon="1.06209">
        <ele>2124</ele>
        <time>2010-01-01T02:53:17Z</time>
      </trkpt>
      <trkpt lat="42.78937" lon="1.06209">
        <ele>2124</ele>
        <time>2010-01-01T02:53:17Z</time>
      </trkpt>
      <trkpt lat="42.78935" lon="1.06214">
        <ele>2124</ele>
        <time>2010-01-01T02:53:19Z</time>
      </trkpt>
      <trkpt lat="42.7893" lon="1.06236">
        <ele>2123</ele>
        <time>2010-01-01T02:53:26Z</time>
      </trkpt>
      <trkpt lat="42.7893" lon="1.0624">
        <ele>2123</ele>
        <time>2010-01-01T02:53:27Z</time>
      </trkpt>
      <trkpt lat="42.78922" lon="1.06259">
        <ele>2125</ele>
        <time>2010-01-01T02:53:33Z</time>
      </trkpt>
      <trkpt lat="42.78922" lon="1.0626">
        <ele>2125</ele>
        <time>2010-01-01T02:53:33Z</time>
      </trkpt>
      <trkpt lat="42.78923" lon="1.06263">
        <ele>2125</ele>
        <time>2010-01-01T02:53:34Z</time>
      </trkpt>
      <trkpt lat="42.7892" lon="1.06292">
        <ele>2126</ele>
        <time>2010-01-01T02:53:43Z</time>
      </trkpt>
      <trkpt lat="42.7892" lon="1.06306">
        <ele>2126</ele>
        <time>2010-01-01T02:53:47Z</time>
      </trkpt>
      <trkpt lat="42.78919" lon="1.06308">
        <ele>2127</ele>
        <time>2010-01-01T02:53:48Z</time>
      </trkpt>
      <trkpt lat="42.78918" lon="1.0631">
        <ele>2127</ele>
        <time>2010-01-01T02:53:49Z</time>
      </trkpt>
      <trkpt lat="42.7892" lon="1.06319">
        <ele>2125</ele>
        <time>2010-01-01T02:53:51Z</time>
      </trkpt>
      <trkpt lat="42.78928" lon="1.06323">
        <ele>2119</ele>
        <time>2010-01-01T02:53:55Z</time>
      </trkpt>
      <trkpt lat="42.78928" lon="1.06323">
        <ele>2119</ele>
        <time>2010-01-01T02:53:55Z</time>
      </trkpt>
      <trkpt lat="42.78931" lon="1.0632">
        <ele>2117</ele>
        <time>2010-01-01T02:53:56Z</time>
      </trkpt>
      <trkpt lat="42.78938" lon="1.06314">
        <ele>2112</ele>
        <time>2010-01-01T02:53:59Z</time>
      </trkpt>
      <trkpt lat="42.78941" lon="1.0631">
        <ele>2109</ele>
        <time>2010-01-01T02:54:01Z</time>
      </trkpt>
      <trkpt lat="42.78941" lon="1.06309">
        <ele>2109</ele>
        <time>2010-01-01T02:54:01Z</time>
      </trkpt>
      <trkpt lat="42.78945" lon="1.06303">
        <ele>2107</ele>
        <time>2010-01-01T02:54:04Z</time>
      </trkpt>
      <trkpt lat="42.78953" lon="1.06294">
        <ele>2105</ele>
        <time>2010-01-01T02:54:08Z</time>
      </trkpt>
      <trkpt lat="42.78957" lon="1.06286">
        <ele>2106</ele>
        <time>2010-01-01T02:54:11Z</time>
      </trkpt>
      <trkpt lat="42.78959" lon="1.0628">
        <ele>2106</ele>
        <time>2010-01-01T02:54:13Z</time>
      </trkpt>
      <trkpt lat="42.78959" lon="1.06279">
        <ele>2106</ele>
        <time>2010-01-01T02:54:13Z</time>
      </trkpt>
      <trkpt lat="42.78958" lon="1.06278">
        <ele>2107</ele>
        <time>2010-01-01T02:54:14Z</time>
      </trkpt>
      <trkpt lat="42.78965" lon="1.06265">
        <ele>2108</ele>
        <time>2010-01-01T02:54:18Z</time>
      </trkpt>
      <trkpt lat="42.78967" lon="1.06257">
        <ele>2109</ele>
        <time>2010-01-01T02:54:21Z</time>
      </trkpt>
      <trkpt lat="42.7897" lon="1.06248">
        <ele>2110</ele>
        <time>2010-01-01T02:54:24Z</time>
      </trkpt>
      <trkpt lat="42.78971" lon="1.06244">
        <ele>2111</ele>
        <time>2010-01-01T02:54:25Z</time>
      </trkpt>
      <trkpt lat="42.78974" lon="1.06236">
        <ele>2111</ele>
        <time>2010-01-01T02:54:28Z</time>
      </trkpt>
      <trkpt lat="42.78978" lon="1.06227">
        <ele>2112</ele>
        <time>2010-01-01T02:54:31Z</time>
      </trkpt>
      <trkpt lat="42.78982" lon="1.0622">
        <ele>2112</ele>
        <time>2010-01-01T02:54:33Z</time>
      </trkpt>
      <trkpt lat="42.78983" lon="1.06218">
        <ele>2112</ele>
        <time>2010-01-01T02:54:34Z</time>
      </trkpt>
      <trkpt lat="42.78991" lon="1.06211">
        <ele>2110</ele>
        <time>2010-01-01T02:54:38Z</time>
      </trkpt>
      <trkpt lat="42.78995" lon="1.06212">
        <ele>2108</ele>
        <time>2010-01-01T02:54:39Z</time>
      </trkpt>
      <trkpt lat="42.78997" lon="1.0621">
        <ele>2107</ele>
        <time>2010-01-01T02:54:41Z</time>
      </trkpt>
      <trkpt lat="42.78997" lon="1.06202">
        <ele>2108</ele>
        <time>2010-01-01T02:54:43Z</time>
      </trkpt>
      <trkpt lat="42.78998" lon="1.06202">
        <ele>2107</ele>
        <time>2010-01-01T02:54:43Z</time>
      </trkpt>
      <trkpt lat="42.78999" lon="1.06202">
        <ele>2107</ele>
        <time>2010-01-01T02:54:44Z</time>
      </trkpt>
      <trkpt lat="42.79003" lon="1.06204">
        <ele>2102</ele>
        <time>2010-01-01T02:54:45Z</time>
      </trkpt>
      <trkpt lat="42.79002" lon="1.06207">
        <ele>2103</ele>
        <time>2010-01-01T02:54:46Z</time>
      </trkpt>
      <trkpt lat="42.78997" lon="1.06206">
        <ele>2107</ele>
        <time>2010-01-01T02:54:48Z</time>
      </trkpt>
      <trkpt lat="42.78996" lon="1.06202">
        <ele>2108</ele>
        <time>2010-01-01T02:54:49Z</time>
      </trkpt>
      <trkpt lat="42.79" lon="1.06204">
        <ele>2106</ele>
        <time>2010-01-01T02:54:51Z</time>
      </trkpt>
      <trkpt lat="42.79001" lon="1.06202">
        <ele>2104</ele>
        <time>2010-01-01T02:54:52Z</time>
      </trkpt>
      <trkpt lat="42.79005" lon="1.06205">
        <ele>2098</ele>
        <time>2010-01-01T02:54:53Z</time>
      </trkpt>
      <trkpt lat="42.79011" lon="1.06202">
        <ele>2088</ele>
        <time>2010-01-01T02:54:56Z</time>
      </trkpt>
      <trkpt lat="42.79012" lon="1.06203">
        <ele>2086</ele>
        <time>2010-01-01T02:54:56Z</time>
      </trkpt>
      <trkpt lat="42.79015" lon="1.06201">
        <ele>2083</ele>
        <time>2010-01-01T02:54:57Z</time>
      </trkpt>
      <trkpt lat="42.79016" lon="1.06202">
        <ele>2080</ele>
        <time>2010-01-01T02:54:58Z</time>
      </trkpt>
      <trkpt lat="42.79012" lon="1.06211">
        <ele>2083</ele>
        <time>2010-01-01T02:55:01Z</time>
      </trkpt>
      <trkpt lat="42.7901" lon="1.06221">
        <ele>2085</ele>
        <time>2010-01-01T02:55:04Z</time>
      </trkpt>
      <trkpt lat="42.79011" lon="1.06228">
        <ele>2079</ele>
        <time>2010-01-01T02:55:06Z</time>
      </trkpt>
      <trkpt lat="42.79012" lon="1.06242">
        <ele>2064</ele>
        <time>2010-01-01T02:55:10Z</time>
      </trkpt>
      <trkpt lat="42.79011" lon="1.06253">
        <ele>2056</ele>
        <time>2010-01-01T02:55:14Z</time>
      </trkpt>
      <trkpt lat="42.79012" lon="1.06262">
        <ele>2046</ele>
        <time>2010-01-01T02:55:16Z</time>
      </trkpt>
      <trkpt lat="42.79014" lon="1.0626">
        <ele>2045</ele>
        <time>2010-01-01T02:55:18Z</time>
      </trkpt>
      <trkpt lat="42.79018" lon="1.0626">
        <ele>2039</ele>
        <time>2010-01-01T02:55:19Z</time>
      </trkpt>
      <trkpt lat="42.79019" lon="1.06262">
        <ele>2035</ele>
        <time>2010-01-01T02:55:20Z</time>
      </trkpt>
      <trkpt lat="42.79019" lon="1.06264">
        <ele>2033</ele>
        <time>2010-01-01T02:55:21Z</time>
      </trkpt>
      <trkpt lat="42.79017" lon="1.06269">
        <ele>2032</ele>
        <time>2010-01-01T02:55:22Z</time>
      </trkpt>
      <trkpt lat="42.79018" lon="1.06274">
        <ele>2027</ele>
        <time>2010-01-01T02:55:24Z</time>
      </trkpt>
      <trkpt lat="42.79022" lon="1.06281">
        <ele>2020</ele>
        <time>2010-01-01T02:55:26Z</time>
      </trkpt>
      <trkpt lat="42.79022" lon="1.06281">
        <ele>2020</ele>
        <time>2010-01-01T02:55:26Z</time>
      </trkpt>
      <trkpt lat="42.79022" lon="1.06288">
        <ele>2019</ele>
        <time>2010-01-01T02:55:28Z</time>
      </trkpt>
      <trkpt lat="42.79023" lon="1.06305">
        <ele>2016</ele>
        <time>2010-01-01T02:55:33Z</time>
      </trkpt>
      <trkpt lat="42.79021" lon="1.06312">
        <ele>2017</ele>
        <time>2010-01-01T02:55:36Z</time>
      </trkpt>
      <trkpt lat="42.79025" lon="1.06317">
        <ele>2013</ele>
        <time>2010-01-01T02:55:38Z</time>
      </trkpt>
      <trkpt lat="42.79022" lon="1.06321">
        <ele>2016</ele>
        <time>2010-01-01T02:55:39Z</time>
      </trkpt>
      <trkpt lat="42.79021" lon="1.06323">
        <ele>2016</ele>
        <time>2010-01-01T02:55:40Z</time>
      </trkpt>
      <trkpt lat="42.79023" lon="1.06337">
        <ele>2015</ele>
        <time>2010-01-01T02:55:44Z</time>
      </trkpt>
      <trkpt lat="42.79027" lon="1.06336">
        <ele>2010</ele>
        <time>2010-01-01T02:55:46Z</time>
      </trkpt>
      <trkpt lat="42.79032" lon="1.06332">
        <ele>2008</ele>
        <time>2010-01-01T02:55:48Z</time>
      </trkpt>
      <trkpt lat="42.79037" lon="1.06333">
        <ele>2005</ele>
        <time>2010-01-01T02:55:50Z</time>
      </trkpt>
      <trkpt lat="42.7904" lon="1.06336">
        <ele>2004</ele>
        <time>2010-01-01T02:55:52Z</time>
      </trkpt>
      <trkpt lat="42.79041" lon="1.0634">
        <ele>2003</ele>
        <time>2010-01-01T02:55:53Z</time>
      </trkpt>
      <trkpt lat="42.79042" lon="1.06348">
        <ele>2001</ele>
        <time>2010-01-01T02:55:56Z</time>
      </trkpt>
      <trkpt lat="42.79049" lon="1.0635">
        <ele>1998</ele>
        <time>2010-01-01T02:55:58Z</time>
      </trkpt>
      <trkpt lat="42.79051" lon="1.06351">
        <ele>1997</ele>
        <time>2010-01-01T02:55:59Z</time>
      </trkpt>
      <trkpt lat="42.79055" lon="1.06358">
        <ele>1993</ele>
        <time>2010-01-01T02:56:02Z</time>
      </trkpt>
      <trkpt lat="42.79059" lon="1.06359">
        <ele>1992</ele>
        <time>2010-01-01T02:56:03Z</time>
      </trkpt>
      <trkpt lat="42.79061" lon="1.06364">
        <ele>1990</ele>
        <time>2010-01-01T02:56:05Z</time>
      </trkpt>
      <trkpt lat="42.79064" lon="1.06362">
        <ele>1989</ele>
        <time>2010-01-01T02:56:07Z</time>
      </trkpt>
      <trkpt lat="42.79069" lon="1.06363">
        <ele>1987</ele>
        <time>2010-01-01T02:56:08Z</time>
      </trkpt>
      <trkpt lat="42.79072" lon="1.0636">
        <ele>1986</ele>
        <time>2010-01-01T02:56:10Z</time>
      </trkpt>
      <trkpt lat="42.79077" lon="1.06362">
        <ele>1983</ele>
        <time>2010-01-01T02:56:12Z</time>
      </trkpt>
      <trkpt lat="42.79081" lon="1.06363">
        <ele>1981</ele>
        <time>2010-01-01T02:56:14Z</time>
      </trkpt>
      <trkpt lat="42.79088" lon="1.06373">
        <ele>1977</ele>
        <time>2010-01-01T02:56:18Z</time>
      </trkpt>
      <trkpt lat="42.79092" lon="1.06377">
        <ele>1975</ele>
        <time>2010-01-01T02:56:20Z</time>
      </trkpt>
      <trkpt lat="42.79097" lon="1.06383">
        <ele>1972</ele>
        <time>2010-01-01T02:56:22Z</time>
      </trkpt>
      <trkpt lat="42.79104" lon="1.0639">
        <ele>1968</ele>
        <time>2010-01-01T02:56:26Z</time>
      </trkpt>
      <trkpt lat="42.79112" lon="1.06387">
        <ele>1964</ele>
        <time>2010-01-01T02:56:29Z</time>
      </trkpt>
      <trkpt lat="42.79114" lon="1.06388">
        <ele>1963</ele>
        <time>2010-01-01T02:56:30Z</time>
      </trkpt>
      <trkpt lat="42.79116" lon="1.06388">
        <ele>1962</ele>
        <time>2010-01-01T02:56:31Z</time>
      </trkpt>
      <trkpt lat="42.7912" lon="1.06399">
        <ele>1961</ele>
        <time>2010-01-01T02:56:35Z</time>
      </trkpt>
      <trkpt lat="42.7913" lon="1.06408">
        <ele>1956</ele>
        <time>2010-01-01T02:56:39Z</time>
      </trkpt>
      <trkpt lat="42.79138" lon="1.06413">
        <ele>1952</ele>
        <time>2010-01-01T02:56:43Z</time>
      </trkpt>
      <trkpt lat="42.79146" lon="1.06421">
        <ele>1949</ele>
        <time>2010-01-01T02:56:47Z</time>
      </trkpt>
      <trkpt lat="42.79156" lon="1.06432">
        <ele>1947</ele>
        <time>2010-01-01T02:56:52Z</time>
      </trkpt>
      <trkpt lat="42.79169" lon="1.06443">
        <ele>1944</ele>
        <time>2010-01-01T02:56:58Z</time>
      </trkpt>
      <trkpt lat="42.79176" lon="1.06451">
        <ele>1945</ele>
        <time>2010-01-01T02:57:02Z</time>
      </trkpt>
      <trkpt lat="42.79179" lon="1.06454">
        <ele>1946</ele>
        <time>2010-01-01T02:57:03Z</time>
      </trkpt>
      <trkpt lat="42.79183" lon="1.06466">
        <ele>1950</ele>
        <time>2010-01-01T02:57:07Z</time>
      </trkpt>
      <trkpt lat="42.79189" lon="1.06473">
        <ele>1952</ele>
        <time>2010-01-01T02:57:10Z</time>
      </trkpt>
      <trkpt lat="42.79196" lon="1.06486">
        <ele>1954</ele>
        <time>2010-01-01T02:57:15Z</time>
      </trkpt>
      <trkpt lat="42.79202" lon="1.06494">
        <ele>1954</ele>
        <time>2010-01-01T02:57:19Z</time>
      </trkpt>
      <trkpt lat="42.79212" lon="1.065">
        <ele>1950</ele>
        <time>2010-01-01T02:57:23Z</time>
      </trkpt>
      <trkpt lat="42.7922" lon="1.06506">
        <ele>1946</ele>
        <time>2010-01-01T02:57:27Z</time>
      </trkpt>
      <trkpt lat="42.79224" lon="1.06508">
        <ele>1945</ele>
        <time>2010-01-01T02:57:28Z</time>
      </trkpt>
      <trkpt lat="42.79226" lon="1.06509">
        <ele>1945</ele>
        <time>2010-01-01T02:57:29Z</time>
      </trkpt>
      <trkpt lat="42.79234" lon="1.06517">
        <ele>1945</ele>
        <time>2010-01-01T02:57:33Z</time>
      </trkpt>
      <trkpt lat="42.7924" lon="1.06517">
        <ele>1942</ele>
        <time>2010-01-01T02:57:35Z</time>
      </trkpt>
      <trkpt lat="42.7924" lon="1.06512">
        <ele>1940</ele>
        <time>2010-01-01T02:57:37Z</time>
      </trkpt>
      <trkpt lat="42.7924" lon="1.06514">
        <ele>1941</ele>
        <time>2010-01-01T02:57:37Z</time>
      </trkpt>
      <trkpt lat="42.79242" lon="1.06516">
        <ele>1941</ele>
        <time>2010-01-01T02:57:38Z</time>
      </trkpt>
      <trkpt lat="42.79244" lon="1.06515">
        <ele>1940</ele>
        <time>2010-01-01T02:57:39Z</time>
      </trkpt>
      <trkpt lat="42.79243" lon="1.06511">
        <ele>1939</ele>
        <time>2010-01-01T02:57:40Z</time>
      </trkpt>
      <trkpt lat="42.79245" lon="1.06511">
        <ele>1938</ele>
        <time>2010-01-01T02:57:41Z</time>
      </trkpt>
      <trkpt lat="42.79246" lon="1.06513">
        <ele>1938</ele>
        <time>2010-01-01T02:57:42Z</time>
      </trkpt>
      <trkpt lat="42.79244" lon="1.06514">
        <ele>1939</ele>
        <time>2010-01-01T02:57:42Z</time>
      </trkpt>
      <trkpt lat="42.79245" lon="1.06513">
        <ele>1939</ele>
        <time>2010-01-01T02:57:43Z</time>
      </trkpt>
      <trkpt lat="42.79245" lon="1.06514">
        <ele>1939</ele>
        <time>2010-01-01T02:57:43Z</time>
      </trkpt>
      <trkpt lat="42.79242" lon="1.06512">
        <ele>1939</ele>
        <time>2010-01-01T02:57:44Z</time>
      </trkpt>
      <trkpt lat="42.79243" lon="1.06512">
        <ele>1939</ele>
        <time>2010-01-01T02:57:45Z</time>
      </trkpt>
      <trkpt lat="42.79244" lon="1.06514">
        <ele>1940</ele>
        <time>2010-01-01T02:57:45Z</time>
      </trkpt>
      <trkpt lat="42.79242" lon="1.06517">
        <ele>1942</ele>
        <time>2010-01-01T02:57:46Z</time>
      </trkpt>
      <trkpt lat="42.79247" lon="1.06519">
        <ele>1941</ele>
        <time>2010-01-01T02:57:48Z</time>
      </trkpt>
      <trkpt lat="42.79243" lon="1.0652">
        <ele>1942</ele>
        <time>2010-01-01T02:57:50Z</time>
      </trkpt>
      <trkpt lat="42.79245" lon="1.06519">
        <ele>1942</ele>
        <time>2010-01-01T02:57:50Z</time>
      </trkpt>
      <trkpt lat="42.79242" lon="1.06515">
        <ele>1941</ele>
        <time>2010-01-01T02:57:52Z</time>
      </trkpt>
      <trkpt lat="42.79243" lon="1.06518">
        <ele>1942</ele>
        <time>2010-01-01T02:57:53Z</time>
      </trkpt>
      <trkpt lat="42.79242" lon="1.06517">
        <ele>1942</ele>
        <time>2010-01-01T02:57:53Z</time>
      </trkpt>
      <trkpt lat="42.79245" lon="1.06516">
        <ele>1940</ele>
        <time>2010-01-01T02:57:54Z</time>
      </trkpt>
      <trkpt lat="42.79258" lon="1.06518">
        <ele>1938</ele>
        <time>2010-01-01T02:58:00Z</time>
      </trkpt>
      <trkpt lat="42.79273" lon="1.06516">
        <ele>1937</ele>
        <time>2010-01-01T02:58:06Z</time>
      </trkpt>
      <trkpt lat="42.79291" lon="1.06522">
        <ele>1937</ele>
        <time>2010-01-01T02:58:13Z</time>
      </trkpt>
      <trkpt lat="42.79304" lon="1.06528">
        <ele>1939</ele>
        <time>2010-01-01T02:58:18Z</time>
      </trkpt>
      <trkpt lat="42.79308" lon="1.0653">
        <ele>1940</ele>
        <time>2010-01-01T02:58:20Z</time>
      </trkpt>
      <trkpt lat="42.79314" lon="1.06532">
        <ele>1943</ele>
        <time>2010-01-01T02:58:23Z</time>
      </trkpt>
      <trkpt lat="42.79327" lon="1.0653">
        <ele>1944</ele>
        <time>2010-01-01T02:58:28Z</time>
      </trkpt>
      <trkpt lat="42.79338" lon="1.06531">
        <ele>1946</ele>
        <time>2010-01-01T02:58:32Z</time>
      </trkpt>
      <trkpt lat="42.79355" lon="1.0653">
        <ele>1945</ele>
        <time>2010-01-01T02:58:39Z</time>
      </trkpt>
      <trkpt lat="42.7937" lon="1.0653">
        <ele>1948</ele>
        <time>2010-01-01T02:58:45Z</time>
      </trkpt>
      <trkpt lat="42.79372" lon="1.06529">
        <ele>1949</ele>
        <time>2010-01-01T02:58:46Z</time>
      </trkpt>
      <trkpt lat="42.79375" lon="1.06527">
        <ele>1949</ele>
        <time>2010-01-01T02:58:48Z</time>
      </trkpt>
      <trkpt lat="42.79379" lon="1.06527">
        <ele>1950</ele>
        <time>2010-01-01T02:58:49Z</time>
      </trkpt>
      <trkpt lat="42.79391" lon="1.06527">
        <ele>1953</ele>
        <time>2010-01-01T02:58:54Z</time>
      </trkpt>
      <trkpt lat="42.79386" lon="1.06525">
        <ele>1952</ele>
        <time>2010-01-01T02:58:56Z</time>
      </trkpt>
      <trkpt lat="42.79374" lon="1.06527">
        <ele>1949</ele>
        <time>2010-01-01T02:59:01Z</time>
      </trkpt>
      <trkpt lat="42.79373" lon="1.06536">
        <ele>1951</ele>
        <time>2010-01-01T02:59:03Z</time>
      </trkpt>
      <trkpt lat="42.79374" lon="1.06545">
        <ele>1954</ele>
        <time>2010-01-01T02:59:06Z</time>
      </trkpt>
      <trkpt lat="42.79374" lon="1.06545">
        <ele>1954</ele>
        <time>2010-01-01T02:59:06Z</time>
      </trkpt>
      <trkpt lat="42.79364" lon="1.06556">
        <ele>1954</ele>
        <time>2010-01-01T02:59:11Z</time>
      </trkpt>
      <trkpt lat="42.79357" lon="1.06562">
        <ele>1960</ele>
        <time>2010-01-01T02:59:15Z</time>
      </trkpt>
      <trkpt lat="42.79348" lon="1.06565">
        <ele>1965</ele>
        <time>2010-01-01T02:59:18Z</time>
      </trkpt>
      <trkpt lat="42.79342" lon="1.06572">
        <ele>1970</ele>
        <time>2010-01-01T02:59:22Z</time>
      </trkpt>
      <trkpt lat="42.79337" lon="1.06579">
        <ele>1974</ele>
        <time>2010-01-01T02:59:24Z</time>
      </trkpt>
      <trkpt lat="42.79336" lon="1.06586">
        <ele>1978</ele>
        <time>2010-01-01T02:59:27Z</time>
      </trkpt>
      <trkpt lat="42.7933" lon="1.06591">
        <ele>1979</ele>
        <time>2010-01-01T02:59:29Z</time>
      </trkpt>
      <trkpt lat="42.79334" lon="1.06598">
        <ele>1983</ele>
        <time>2010-01-01T02:59:32Z</time>
      </trkpt>
      <trkpt lat="42.79333" lon="1.06605">
        <ele>1986</ele>
        <time>2010-01-01T02:59:34Z</time>
      </trkpt>
      <trkpt lat="42.79331" lon="1.06613">
        <ele>1989</ele>
        <time>2010-01-01T02:59:36Z</time>
      </trkpt>
      <trkpt lat="42.79327" lon="1.06622">
        <ele>1992</ele>
        <time>2010-01-01T02:59:40Z</time>
      </trkpt>
      <trkpt lat="42.79327" lon="1.06629">
        <ele>1995</ele>
        <time>2010-01-01T02:59:41Z</time>
      </trkpt>
      <trkpt lat="42.79328" lon="1.06639">
        <ele>1999</ele>
        <time>2010-01-01T02:59:45Z</time>
      </trkpt>
      <trkpt lat="42.79328" lon="1.06649">
        <ele>2004</ele>
        <time>2010-01-01T02:59:47Z</time>
      </trkpt>
      <trkpt lat="42.79329" lon="1.0666">
        <ele>2008</ele>
        <time>2010-01-01T02:59:51Z</time>
      </trkpt>
      <trkpt lat="42.79329" lon="1.06671">
        <ele>2015</ele>
        <time>2010-01-01T02:59:54Z</time>
      </trkpt>
      <trkpt lat="42.79327" lon="1.06679">
        <ele>2021</ele>
        <time>2010-01-01T02:59:56Z</time>
      </trkpt>
      <trkpt lat="42.79326" lon="1.06685">
        <ele>2026</ele>
        <time>2010-01-01T02:59:58Z</time>
      </trkpt>
      <trkpt lat="42.79321" lon="1.06688">
        <ele>2028</ele>
        <time>2010-01-01T03:00:00Z</time>
      </trkpt>
      <trkpt lat="42.79323" lon="1.06686">
        <ele>2026</ele>
        <time>2010-01-01T03:00:01Z</time>
      </trkpt>
      <trkpt lat="42.79324" lon="1.06694">
        <ele>2032</ele>
        <time>2010-01-01T03:00:04Z</time>
      </trkpt>
      <trkpt lat="42.79321" lon="1.06698">
        <ele>2035</ele>
        <time>2010-01-01T03:00:06Z</time>
      </trkpt>
      <trkpt lat="42.7932" lon="1.06701">
        <ele>2037</ele>
        <time>2010-01-01T03:00:07Z</time>
      </trkpt>
      <trkpt lat="42.79311" lon="1.06701">
        <ele>2035</ele>
        <time>2010-01-01T03:00:10Z</time>
      </trkpt>
      <trkpt lat="42.79308" lon="1.06702">
        <ele>2036</ele>
        <time>2010-01-01T03:00:12Z</time>
      </trkpt>
      <trkpt lat="42.79304" lon="1.06699">
        <ele>2034</ele>
        <time>2010-01-01T03:00:13Z</time>
      </trkpt>
      <trkpt lat="42.793" lon="1.067">
        <ele>2036</ele>
        <time>2010-01-01T03:00:15Z</time>
      </trkpt>
      <trkpt lat="42.79297" lon="1.06707">
        <ele>2045</ele>
        <time>2010-01-01T03:00:18Z</time>
      </trkpt>
      <trkpt lat="42.79291" lon="1.06711">
        <ele>2050</ele>
        <time>2010-01-01T03:00:20Z</time>
      </trkpt>
      <trkpt lat="42.79292" lon="1.06713">
        <ele>2052</ele>
        <time>2010-01-01T03:00:21Z</time>
      </trkpt>
      <trkpt lat="42.79289" lon="1.06717">
        <ele>2056</ele>
        <time>2010-01-01T03:00:22Z</time>
      </trkpt>
      <trkpt lat="42.79293" lon="1.06722">
        <ele>2058</ele>
        <time>2010-01-01T03:00:25Z</time>
      </trkpt>
      <trkpt lat="42.79301" lon="1.06724">
        <ele>2056</ele>
        <time>2010-01-01T03:00:28Z</time>
      </trkpt>
      <trkpt lat="42.793" lon="1.06732">
        <ele>2063</ele>
        <time>2010-01-01T03:00:30Z</time>
      </trkpt>
      <trkpt lat="42.79299" lon="1.06737">
        <ele>2068</ele>
        <time>2010-01-01T03:00:32Z</time>
      </trkpt>
      <trkpt lat="42.79307" lon="1.06737">
        <ele>2062</ele>
        <time>2010-01-01T03:00:35Z</time>
      </trkpt>
      <trkpt lat="42.79311" lon="1.06744">
        <ele>2065</ele>
        <time>2010-01-01T03:00:37Z</time>
      </trkpt>
      <trkpt lat="42.79311" lon="1.06752">
        <ele>2070</ele>
        <time>2010-01-01T03:00:40Z</time>
      </trkpt>
      <trkpt lat="42.79312" lon="1.06747">
        <ele>2067</ele>
        <time>2010-01-01T03:00:41Z</time>
      </trkpt>
      <trkpt lat="42.79315" lon="1.06745">
        <ele>2065</ele>
        <time>2010-01-01T03:00:42Z</time>
      </trkpt>
      <trkpt lat="42.79317" lon="1.06753">
        <ele>2069</ele>
        <time>2010-01-01T03:00:45Z</time>
      </trkpt>
      <trkpt lat="42.79318" lon="1.06757">
        <ele>2072</ele>
        <time>2010-01-01T03:00:46Z</time>
      </trkpt>
      <trkpt lat="42.79323" lon="1.06756">
        <ele>2069</ele>
        <time>2010-01-01T03:00:48Z</time>
      </trkpt>
      <trkpt lat="42.79329" lon="1.06755">
        <ele>2067</ele>
        <time>2010-01-01T03:00:51Z</time>
      </trkpt>
      <trkpt lat="42.79334" lon="1.06756">
        <ele>2066</ele>
        <time>2010-01-01T03:00:53Z</time>
      </trkpt>
      <trkpt lat="42.7934" lon="1.06768">
        <ele>2071</ele>
        <time>2010-01-01T03:00:57Z</time>
      </trkpt>
      <trkpt lat="42.7934" lon="1.06777">
        <ele>2075</ele>
        <time>2010-01-01T03:00:59Z</time>
      </trkpt>
      <trkpt lat="42.79347" lon="1.06785">
        <ele>2077</ele>
        <time>2010-01-01T03:01:03Z</time>
      </trkpt>
      <trkpt lat="42.79355" lon="1.06797">
        <ele>2081</ele>
        <time>2010-01-01T03:01:08Z</time>
      </trkpt>
      <trkpt lat="42.79361" lon="1.06809">
        <ele>2084</ele>
        <time>2010-01-01T03:01:12Z</time>
      </trkpt>
      <trkpt lat="42.79362" lon="1.06822">
        <ele>2087</ele>
        <time>2010-01-01T03:01:16Z</time>
      </trkpt>
      <trkpt lat="42.79362" lon="1.06835">
        <ele>2090</ele>
        <time>2010-01-01T03:01:20Z</time>
      </trkpt>
      <trkpt lat="42.79364" lon="1.06846">
        <ele>2092</ele>
        <time>2010-01-01T03:01:23Z</time>
      </trkpt>
      <trkpt lat="42.79364" lon="1.06856">
        <ele>2095</ele>
        <time>2010-01-01T03:01:26Z</time>
      </trkpt>
      <trkpt lat="42.7937" lon="1.06865">
        <ele>2095</ele>
        <time>2010-01-01T03:01:29Z</time>
      </trkpt>
      <trkpt lat="42.79375" lon="1.06874">
        <ele>2097</ele>
        <time>2010-01-01T03:01:33Z</time>
      </trkpt>
      <trkpt lat="42.7938" lon="1.06881">
        <ele>2099</ele>
        <time>2010-01-01T03:01:35Z</time>
      </trkpt>
      <trkpt lat="42.79386" lon="1.06892">
        <ele>2102</ele>
        <time>2010-01-01T03:01:40Z</time>
      </trkpt>
      <trkpt lat="42.79392" lon="1.06905">
        <ele>2103</ele>
        <time>2010-01-01T03:01:44Z</time>
      </trkpt>
      <trkpt lat="42.79397" lon="1.06916">
        <ele>2106</ele>
        <time>2010-01-01T03:01:48Z</time>
      </trkpt>
      <trkpt lat="42.79397" lon="1.06925">
        <ele>2110</ele>
        <time>2010-01-01T03:01:51Z</time>
      </trkpt>
      <trkpt lat="42.79401" lon="1.06936">
        <ele>2113</ele>
        <time>2010-01-01T03:01:54Z</time>
      </trkpt>
      <trkpt lat="42.79406" lon="1.06949">
        <ele>2114</ele>
        <time>2010-01-01T03:01:58Z</time>
      </trkpt>
      <trkpt lat="42.79413" lon="1.06958">
        <ele>2111</ele>
        <time>2010-01-01T03:02:03Z</time>
      </trkpt>
      <trkpt lat="42.7942" lon="1.06963">
        <ele>2109</ele>
        <time>2010-01-01T03:02:06Z</time>
      </trkpt>
      <trkpt lat="42.79428" lon="1.06968">
        <ele>2111</ele>
        <time>2010-01-01T03:02:09Z</time>
      </trkpt>
      <trkpt lat="42.79429" lon="1.06969">
        <ele>2111</ele>
        <time>2010-01-01T03:02:10Z</time>
      </trkpt>
      <trkpt lat="42.79438" lon="1.06982">
        <ele>2118</ele>
        <time>2010-01-01T03:02:15Z</time>
      </trkpt>
      <trkpt lat="42.79442" lon="1.06991">
        <ele>2122</ele>
        <time>2010-01-01T03:02:18Z</time>
      </trkpt>
      <trkpt lat="42.79442" lon="1.06998">
        <ele>2125</ele>
        <time>2010-01-01T03:02:20Z</time>
      </trkpt>
      <trkpt lat="42.79446" lon="1.07002">
        <ele>2126</ele>
        <time>2010-01-01T03:02:22Z</time>
      </trkpt>
      <trkpt lat="42.79454" lon="1.07004">
        <ele>2128</ele>
        <time>2010-01-01T03:02:25Z</time>
      </trkpt>
      <trkpt lat="42.79459" lon="1.07004">
        <ele>2128</ele>
        <time>2010-01-01T03:02:27Z</time>
      </trkpt>
      <trkpt lat="42.79464" lon="1.07003">
        <ele>2128</ele>
        <time>2010-01-01T03:02:29Z</time>
      </trkpt>
      <trkpt lat="42.79469" lon="1.07008">
        <ele>2130</ele>
        <time>2010-01-01T03:02:32Z</time>
      </trkpt>
      <trkpt lat="42.79472" lon="1.07001">
        <ele>2127</ele>
        <time>2010-01-01T03:02:34Z</time>
      </trkpt>
      <trkpt lat="42.79473" lon="1.07">
        <ele>2127</ele>
        <time>2010-01-01T03:02:35Z</time>
      </trkpt>
      <trkpt lat="42.79476" lon="1.07003">
        <ele>2128</ele>
        <time>2010-01-01T03:02:36Z</time>
      </trkpt>
      <trkpt lat="42.79478" lon="1.06994">
        <ele>2125</ele>
        <time>2010-01-01T03:02:39Z</time>
      </trkpt>
      <trkpt lat="42.79483" lon="1.06997">
        <ele>2126</ele>
        <time>2010-01-01T03:02:41Z</time>
      </trkpt>
      <trkpt lat="42.79493" lon="1.0699">
        <ele>2125</ele>
        <time>2010-01-01T03:02:46Z</time>
      </trkpt>
      <trkpt lat="42.795" lon="1.06992">
        <ele>2126</ele>
        <time>2010-01-01T03:02:48Z</time>
      </trkpt>
      <trkpt lat="42.79509" lon="1.06999">
        <ele>2131</ele>
        <time>2010-01-01T03:02:53Z</time>
      </trkpt>
      <trkpt lat="42.79517" lon="1.07001">
        <ele>2134</ele>
        <time>2010-01-01T03:02:56Z</time>
      </trkpt>
      <trkpt lat="42.79521" lon="1.07007">
        <ele>2137</ele>
        <time>2010-01-01T03:02:58Z</time>
      </trkpt>
      <trkpt lat="42.7953" lon="1.07008">
        <ele>2139</ele>
        <time>2010-01-01T03:03:02Z</time>
      </trkpt>
      <trkpt lat="42.79536" lon="1.07006">
        <ele>2139</ele>
        <time>2010-01-01T03:03:04Z</time>
      </trkpt>
      <trkpt lat="42.79537" lon="1.07006">
        <ele>2139</ele>
        <time>2010-01-01T03:03:05Z</time>
      </trkpt>
      <trkpt lat="42.79537" lon="1.07002">
        <ele>2138</ele>
        <time>2010-01-01T03:03:06Z</time>
      </trkpt>
      <trkpt lat="42.79537" lon="1.07">
        <ele>2137</ele>
        <time>2010-01-01T03:03:07Z</time>
      </trkpt>
      <trkpt lat="42.79539" lon="1.07001">
        <ele>2138</ele>
        <time>2010-01-01T03:03:07Z</time>
      </trkpt>
      <trkpt lat="42.79537" lon="1.07005">
        <ele>2139</ele>
        <time>2010-01-01T03:03:09Z</time>
      </trkpt>
      <trkpt lat="42.79535" lon="1.07003">
        <ele>2138</ele>
        <time>2010-01-01T03:03:10Z</time>
      </trkpt>
      <trkpt lat="42.79537" lon="1.07001">
        <ele>2138</ele>
        <time>2010-01-01T03:03:11Z</time>
      </trkpt>
      <trkpt lat="42.79538" lon="1.07004">
        <ele>2139</ele>
        <time>2010-01-01T03:03:11Z</time>
      </trkpt>
      <trkpt lat="42.7954" lon="1.0701">
        <ele>2141</ele>
        <time>2010-01-01T03:03:13Z</time>
      </trkpt>
      <trkpt lat="42.79544" lon="1.07013">
        <ele>2142</ele>
        <time>2010-01-01T03:03:15Z</time>
      </trkpt>
      <trkpt lat="42.79557" lon="1.07016">
        <ele>2144</ele>
        <time>2010-01-01T03:03:21Z</time>
      </trkpt>
      <trkpt lat="42.79564" lon="1.07017">
        <ele>2144</ele>
        <time>2010-01-01T03:03:23Z</time>
      </trkpt>
      <trkpt lat="42.79569" lon="1.07018">
        <ele>2145</ele>
        <time>2010-01-01T03:03:25Z</time>
      </trkpt>
      <trkpt lat="42.79577" lon="1.07021">
        <ele>2146</ele>
        <time>2010-01-01T03:03:29Z</time>
      </trkpt>
      <trkpt lat="42.79583" lon="1.07026">
        <ele>2147</ele>
        <time>2010-01-01T03:03:32Z</time>
      </trkpt>
      <trkpt lat="42.79587" lon="1.07036">
        <ele>2152</ele>
        <time>2010-01-01T03:03:35Z</time>
      </trkpt>
      <trkpt lat="42.79593" lon="1.07039">
        <ele>2154</ele>
        <time>2010-01-01T03:03:37Z</time>
      </trkpt>
      <trkpt lat="42.79601" lon="1.07044">
        <ele>2159</ele>
        <time>2010-01-01T03:03:41Z</time>
      </trkpt>
      <trkpt lat="42.79605" lon="1.07054">
        <ele>2164</ele>
        <time>2010-01-01T03:03:44Z</time>
      </trkpt>
      <trkpt lat="42.79611" lon="1.07053">
        <ele>2165</ele>
        <time>2010-01-01T03:03:47Z</time>
      </trkpt>
      <trkpt lat="42.79615" lon="1.07061">
        <ele>2170</ele>
        <time>2010-01-01T03:03:50Z</time>
      </trkpt>
      <trkpt lat="42.79617" lon="1.07072">
        <ele>2176</ele>
        <time>2010-01-01T03:03:53Z</time>
      </trkpt>
      <trkpt lat="42.79617" lon="1.07085">
        <ele>2183</ele>
        <time>2010-01-01T03:03:57Z</time>
      </trkpt>
      <trkpt lat="42.79618" lon="1.07092">
        <ele>2187</ele>
        <time>2010-01-01T03:03:59Z</time>
      </trkpt>
      <trkpt lat="42.79622" lon="1.07096">
        <ele>2189</ele>
        <time>2010-01-01T03:04:01Z</time>
      </trkpt>
      <trkpt lat="42.79621" lon="1.07089">
        <ele>2185</ele>
        <time>2010-01-01T03:04:03Z</time>
      </trkpt>
      <trkpt lat="42.79621" lon="1.07098">
        <ele>2190</ele>
        <time>2010-01-01T03:04:06Z</time>
      </trkpt>
      <trkpt lat="42.79616" lon="1.07109">
        <ele>2196</ele>
        <time>2010-01-01T03:04:10Z</time>
      </trkpt>
      <trkpt lat="42.79612" lon="1.07115">
        <ele>2198</ele>
        <time>2010-01-01T03:04:12Z</time>
      </trkpt>
      <trkpt lat="42.79606" lon="1.07124">
        <ele>2201</ele>
        <time>2010-01-01T03:04:16Z</time>
      </trkpt>
      <trkpt lat="42.79605" lon="1.0712">
        <ele>2200</ele>
        <time>2010-01-01T03:04:17Z</time>
      </trkpt>
      <trkpt lat="42.79603" lon="1.07116">
        <ele>2198</ele>
        <time>2010-01-01T03:04:18Z</time>
      </trkpt>
      <trkpt lat="42.79601" lon="1.07125">
        <ele>2201</ele>
        <time>2010-01-01T03:04:21Z</time>
      </trkpt>
      <trkpt lat="42.79597" lon="1.0713">
        <ele>2203</ele>
        <time>2010-01-01T03:04:23Z</time>
      </trkpt>
      <trkpt lat="42.79595" lon="1.07128">
        <ele>2202</ele>
        <time>2010-01-01T03:04:24Z</time>
      </trkpt>
      <trkpt lat="42.79596" lon="1.07126">
        <ele>2202</ele>
        <time>2010-01-01T03:04:25Z</time>
      </trkpt>
      <trkpt lat="42.79596" lon="1.07134">
        <ele>2204</ele>
        <time>2010-01-01T03:04:27Z</time>
      </trkpt>
      <trkpt lat="42.79595" lon="1.07136">
        <ele>2205</ele>
        <time>2010-01-01T03:04:28Z</time>
      </trkpt>
      <trkpt lat="42.79599" lon="1.07143">
        <ele>2207</ele>
        <time>2010-01-01T03:04:30Z</time>
      </trkpt>
      <trkpt lat="42.796" lon="1.0715">
        <ele>2208</ele>
        <time>2010-01-01T03:04:33Z</time>
      </trkpt>
      <trkpt lat="42.79598" lon="1.0715">
        <ele>2208</ele>
        <time>2010-01-01T03:04:33Z</time>
      </trkpt>
      <trkpt lat="42.796" lon="1.07152">
        <ele>2209</ele>
        <time>2010-01-01T03:04:34Z</time>
      </trkpt>
      <trkpt lat="42.796" lon="1.07146">
        <ele>2207</ele>
        <time>2010-01-01T03:04:36Z</time>
      </trkpt>
      <trkpt lat="42.79599" lon="1.07145">
        <ele>2207</ele>
        <time>2010-01-01T03:04:37Z</time>
      </trkpt>
      <trkpt lat="42.79599" lon="1.07143">
        <ele>2207</ele>
        <time>2010-01-01T03:04:37Z</time>
      </trkpt>
      <trkpt lat="42.79599" lon="1.07145">
        <ele>2207</ele>
        <time>2010-01-01T03:04:38Z</time>
      </trkpt>
      <trkpt lat="42.796" lon="1.07142">
        <ele>2207</ele>
        <time>2010-01-01T03:04:38Z</time>
      </trkpt>
      <trkpt lat="42.79601" lon="1.0714">
        <ele>2206</ele>
        <time>2010-01-01T03:04:39Z</time>
      </trkpt>
      <trkpt lat="42.79597" lon="1.07144">
        <ele>2207</ele>
        <time>2010-01-01T03:04:41Z</time>
      </trkpt>
      <trkpt lat="42.79598" lon="1.07168">
        <ele>2212</ele>
        <time>2010-01-01T03:04:48Z</time>
      </trkpt>
      <trkpt lat="42.796" lon="1.07174">
        <ele>2214</ele>
        <time>2010-01-01T03:04:50Z</time>
      </trkpt>
      <trkpt lat="42.79608" lon="1.07181">
        <ele>2216</ele>
        <time>2010-01-01T03:04:54Z</time>
      </trkpt>
      <trkpt lat="42.79616" lon="1.07178">
        <ele>2217</ele>
        <time>2010-01-01T03:04:57Z</time>
      </trkpt>
      <trkpt lat="42.79621" lon="1.07181">
        <ele>2218</ele>
        <time>2010-01-01T03:05:00Z</time>
      </trkpt>
      <trkpt lat="42.79629" lon="1.07183">
        <ele>2220</ele>
        <time>2010-01-01T03:05:03Z</time>
      </trkpt>
      <trkpt lat="42.79632" lon="1.07186">
        <ele>2221</ele>
        <time>2010-01-01T03:05:04Z</time>
      </trkpt>
      <trkpt lat="42.79638" lon="1.07192">
        <ele>2224</ele>
        <time>2010-01-01T03:05:07Z</time>
      </trkpt>
      <trkpt lat="42.79641" lon="1.07196">
        <ele>2225</ele>
        <time>2010-01-01T03:05:09Z</time>
      </trkpt>
      <trkpt lat="42.79645" lon="1.07206">
        <ele>2228</ele>
        <time>2010-01-01T03:05:12Z</time>
      </trkpt>
      <trkpt lat="42.79654" lon="1.0721">
        <ele>2229</ele>
        <time>2010-01-01T03:05:16Z</time>
      </trkpt>
      <trkpt lat="42.79661" lon="1.07213">
        <ele>2230</ele>
        <time>2010-01-01T03:05:19Z</time>
      </trkpt>
      <trkpt lat="42.79669" lon="1.07221">
        <ele>2231</ele>
        <time>2010-01-01T03:05:23Z</time>
      </trkpt>
      <trkpt lat="42.79681" lon="1.07227">
        <ele>2232</ele>
        <time>2010-01-01T03:05:28Z</time>
      </trkpt>
      <trkpt lat="42.79687" lon="1.07231">
        <ele>2233</ele>
        <time>2010-01-01T03:05:31Z</time>
      </trkpt>
      <trkpt lat="42.79689" lon="1.07232">
        <ele>2234</ele>
        <time>2010-01-01T03:05:32Z</time>
      </trkpt>
      <trkpt lat="42.79696" lon="1.0723">
        <ele>2234</ele>
        <time>2010-01-01T03:05:34Z</time>
      </trkpt>
      <trkpt lat="42.79701" lon="1.07236">
        <ele>2236</ele>
        <time>2010-01-01T03:05:37Z</time>
      </trkpt>
      <trkpt lat="42.79706" lon="1.07236">
        <ele>2238</ele>
        <time>2010-01-01T03:05:39Z</time>
      </trkpt>
      <trkpt lat="42.79721" lon="1.07234">
        <ele>2241</ele>
        <time>2010-01-01T03:05:45Z</time>
      </trkpt>
      <trkpt lat="42.79728" lon="1.07236">
        <ele>2242</ele>
        <time>2010-01-01T03:05:48Z</time>
      </trkpt>
      <trkpt lat="42.7973" lon="1.07243">
        <ele>2243</ele>
        <time>2010-01-01T03:05:50Z</time>
      </trkpt>
      <trkpt lat="42.79731" lon="1.0724">
        <ele>2243</ele>
        <time>2010-01-01T03:05:51Z</time>
      </trkpt>
      <trkpt lat="42.79734" lon="1.0724">
        <ele>2243</ele>
        <time>2010-01-01T03:05:52Z</time>
      </trkpt>
      <trkpt lat="42.79733" lon="1.0724">
        <ele>2243</ele>
        <time>2010-01-01T03:05:52Z</time>
      </trkpt>
      <trkpt lat="42.79734" lon="1.0724">
        <ele>2244</ele>
        <time>2010-01-01T03:05:52Z</time>
      </trkpt>
      <trkpt lat="42.79733" lon="1.0724">
        <ele>2243</ele>
        <time>2010-01-01T03:05:53Z</time>
      </trkpt>
      <trkpt lat="42.79734" lon="1.0724">
        <ele>2244</ele>
        <time>2010-01-01T03:05:53Z</time>
      </trkpt>
      <trkpt lat="42.79732" lon="1.0724">
        <ele>2243</ele>
        <time>2010-01-01T03:05:53Z</time>
      </trkpt>
      <trkpt lat="42.79732" lon="1.07241">
        <ele>2243</ele>
        <time>2010-01-01T03:05:54Z</time>
      </trkpt>
      <trkpt lat="42.79732" lon="1.07241">
        <ele>2243</ele>
        <time>2010-01-01T03:05:54Z</time>
      </trkpt>
      <trkpt lat="42.79732" lon="1.07241">
        <ele>2243</ele>
        <time>2010-01-01T03:05:54Z</time>
      </trkpt>
      <trkpt lat="42.79732" lon="1.0724">
        <ele>2243</ele>
        <time>2010-01-01T03:05:54Z</time>
      </trkpt>
      <trkpt lat="42.79732" lon="1.0724">
        <ele>2243</ele>
        <time>2010-01-01T03:05:55Z</time>
      </trkpt>
      <trkpt lat="42.79731" lon="1.07239">
        <ele>2243</ele>
        <time>2010-01-01T03:05:55Z</time>
      </trkpt>
      <trkpt lat="42.7973" lon="1.07239">
        <ele>2243</ele>
        <time>2010-01-01T03:05:55Z</time>
      </trkpt>
      <trkpt lat="42.79731" lon="1.0724">
        <ele>2243</ele>
        <time>2010-01-01T03:05:55Z</time>
      </trkpt>
      <trkpt lat="42.79731" lon="1.07238">
        <ele>2243</ele>
        <time>2010-01-01T03:05:56Z</time>
      </trkpt>
      <trkpt lat="42.79732" lon="1.07241">
        <ele>2244</ele>
        <time>2010-01-01T03:05:57Z</time>
      </trkpt>
      <trkpt lat="42.7973" lon="1.0724">
        <ele>2243</ele>
        <time>2010-01-01T03:05:58Z</time>
      </trkpt>
      <trkpt lat="42.79731" lon="1.07239">
        <ele>2243</ele>
        <time>2010-01-01T03:05:58Z</time>
      </trkpt>
      <trkpt lat="42.79731" lon="1.07239">
        <ele>2243</ele>
        <time>2010-01-01T03:05:58Z</time>
      </trkpt>
      <trkpt lat="42.79731" lon="1.07236">
        <ele>2243</ele>
        <time>2010-01-01T03:05:59Z</time>
      </trkpt>
      <trkpt lat="42.79731" lon="1.07237">
        <ele>2243</ele>
        <time>2010-01-01T03:05:59Z</time>
      </trkpt>
      <trkpt lat="42.79732" lon="1.07239">
        <ele>2243</ele>
        <time>2010-01-01T03:06:00Z</time>
      </trkpt>
      <trkpt lat="42.79733" lon="1.0724">
        <ele>2243</ele>
        <time>2010-01-01T03:06:00Z</time>
      </trkpt>
      <trkpt lat="42.79732" lon="1.07238">
        <ele>2243</ele>
        <time>2010-01-01T03:06:01Z</time>
      </trkpt>
      <trkpt lat="42.79732" lon="1.07238">
        <ele>2243</ele>
        <time>2010-01-01T03:06:01Z</time>
      </trkpt>
      <trkpt lat="42.79731" lon="1.07236">
        <ele>2243</ele>
        <time>2010-01-01T03:06:02Z</time>
      </trkpt>
      <trkpt lat="42.7973" lon="1.07239">
        <ele>2243</ele>
        <time>2010-01-01T03:06:02Z</time>
      </trkpt>
      <trkpt lat="42.7973" lon="1.07238">
        <ele>2243</ele>
        <time>2010-01-01T03:06:03Z</time>
      </trkpt>
      <trkpt lat="42.79731" lon="1.07238">
        <ele>2243</ele>
        <time>2010-01-01T03:06:03Z</time>
      </trkpt>
      <trkpt lat="42.7973" lon="1.07237">
        <ele>2243</ele>
        <time>2010-01-01T03:06:03Z</time>
      </trkpt>
      <trkpt lat="42.7973" lon="1.07237">
        <ele>2243</ele>
        <time>2010-01-01T03:06:04Z</time>
      </trkpt>
      <trkpt lat="42.79728" lon="1.07238">
        <ele>2242</ele>
        <time>2010-01-01T03:06:05Z</time>
      </trkpt>
      <trkpt lat="42.79728" lon="1.0724">
        <ele>2243</ele>
        <time>2010-01-01T03:06:05Z</time>
      </trkpt>
      <trkpt lat="42.79729" lon="1.0724">
        <ele>2243</ele>
        <time>2010-01-01T03:06:05Z</time>
      </trkpt>
      <trkpt lat="42.79726" lon="1.07238">
        <ele>2242</ele>
        <time>2010-01-01T03:06:07Z</time>
      </trkpt>
      <trkpt lat="42.79725" lon="1.07238">
        <ele>2242</ele>
        <time>2010-01-01T03:06:07Z</time>
      </trkpt>
      <trkpt lat="42.79725" lon="1.07239">
        <ele>2242</ele>
        <time>2010-01-01T03:06:07Z</time>
      </trkpt>
      <trkpt lat="42.79727" lon="1.07236">
        <ele>2242</ele>
        <time>2010-01-01T03:06:09Z</time>
      </trkpt>
      <trkpt lat="42.7973" lon="1.07237">
        <ele>2243</ele>
        <time>2010-01-01T03:06:10Z</time>
      </trkpt>
      <trkpt lat="42.7973" lon="1.07239">
        <ele>2243</ele>
        <time>2010-01-01T03:06:10Z</time>
      </trkpt>
      <trkpt lat="42.7973" lon="1.07238">
        <ele>2243</ele>
        <time>2010-01-01T03:06:10Z</time>
      </trkpt>
      <trkpt lat="42.7973" lon="1.07239">
        <ele>2243</ele>
        <time>2010-01-01T03:06:10Z</time>
      </trkpt>
      <trkpt lat="42.79729" lon="1.07239">
        <ele>2243</ele>
        <time>2010-01-01T03:06:11Z</time>
      </trkpt>
      <trkpt lat="42.79729" lon="1.07239">
        <ele>2243</ele>
        <time>2010-01-01T03:06:11Z</time>
      </trkpt>
      <trkpt lat="42.79729" lon="1.07239">
        <ele>2243</ele>
        <time>2010-01-01T03:06:11Z</time>
      </trkpt>
      <trkpt lat="42.79729" lon="1.07239">
        <ele>2243</ele>
        <time>2010-01-01T03:06:11Z</time>
      </trkpt>
      <trkpt lat="42.7973" lon="1.07239">
        <ele>2243</ele>
        <time>2010-01-01T03:06:11Z</time>
      </trkpt>
      <trkpt lat="42.79731" lon="1.07239">
        <ele>2243</ele>
        <time>2010-01-01T03:06:12Z</time>
      </trkpt>
      <trkpt lat="42.79731" lon="1.07239">
        <ele>2243</ele>
        <time>2010-01-01T03:06:12Z</time>
      </trkpt>
      <trkpt lat="42.79731" lon="1.07239">
        <ele>2243</ele>
        <time>2010-01-01T03:06:12Z</time>
      </trkpt>
      <trkpt lat="42.79729" lon="1.07239">
        <ele>2243</ele>
        <time>2010-01-01T03:06:13Z</time>
      </trkpt>
      <trkpt lat="42.79728" lon="1.07238">
        <ele>2242</ele>
        <time>2010-01-01T03:06:13Z</time>
      </trkpt>
      <trkpt lat="42.79729" lon="1.07239">
        <ele>2243</ele>
        <time>2010-01-01T03:06:14Z</time>
      </trkpt>
      <trkpt lat="42.7973" lon="1.0724">
        <ele>2243</ele>
        <time>2010-01-01T03:06:14Z</time>
      </trkpt>
      <trkpt lat="42.79727" lon="1.07239">
        <ele>2243</ele>
        <time>2010-01-01T03:06:15Z</time>
      </trkpt>
      <trkpt lat="42.79726" lon="1.07239">
        <ele>2242</ele>
        <time>2010-01-01T03:06:16Z</time>
      </trkpt>
      <trkpt lat="42.79727" lon="1.07239">
        <ele>2242</ele>
        <time>2010-01-01T03:06:16Z</time>
      </trkpt>
      <trkpt lat="42.7973" lon="1.0724">
        <ele>2243</ele>
        <time>2010-01-01T03:06:17Z</time>
      </trkpt>
      <trkpt lat="42.79731" lon="1.0724">
        <ele>2243</ele>
        <time>2010-01-01T03:06:18Z</time>
      </trkpt>
      <trkpt lat="42.79732" lon="1.07241">
        <ele>2243</ele>
        <time>2010-01-01T03:06:18Z</time>
      </trkpt>
      <trkpt lat="42.79733" lon="1.07241">
        <ele>2244</ele>
        <time>2010-01-01T03:06:19Z</time>
      </trkpt>
      <trkpt lat="42.79733" lon="1.07241">
        <ele>2244</ele>
        <time>2010-01-01T03:06:19Z</time>
      </trkpt>
      <trkpt lat="42.79732" lon="1.0724">
        <ele>2243</ele>
        <time>2010-01-01T03:06:19Z</time>
      </trkpt>
      <trkpt lat="42.79732" lon="1.07241">
        <ele>2244</ele>
        <time>2010-01-01T03:06:19Z</time>
      </trkpt>
      <trkpt lat="42.79731" lon="1.0724">
        <ele>2243</ele>
        <time>2010-01-01T03:06:20Z</time>
      </trkpt>
      <trkpt lat="42.79731" lon="1.0724">
        <ele>2243</ele>
        <time>2010-01-01T03:06:20Z</time>
      </trkpt>
      <trkpt lat="42.79731" lon="1.0724">
        <ele>2243</ele>
        <time>2010-01-01T03:06:20Z</time>
      </trkpt>
      <trkpt lat="42.79731" lon="1.07239">
        <ele>2243</ele>
        <time>2010-01-01T03:06:20Z</time>
      </trkpt>
      <trkpt lat="42.79731" lon="1.0724">
        <ele>2243</ele>
        <time>2010-01-01T03:06:20Z</time>
      </trkpt>
      <trkpt lat="42.79731" lon="1.0724">
        <ele>2243</ele>
        <time>2010-01-01T03:06:21Z</time>
      </trkpt>
      <trkpt lat="42.79731" lon="1.0724">
        <ele>2243</ele>
        <time>2010-01-01T03:06:21Z</time>
      </trkpt>
      <trkpt lat="42.79731" lon="1.0724">
        <ele>2243</ele>
        <time>2010-01-01T03:06:21Z</time>
      </trkpt>
      <trkpt lat="42.79731" lon="1.07239">
        <ele>2243</ele>
        <time>2010-01-01T03:06:22Z</time>
      </trkpt>
      <trkpt lat="42.79731" lon="1.0724">
        <ele>2243</ele>
        <time>2010-01-01T03:06:22Z</time>
      </trkpt>
      <trkpt lat="42.7973" lon="1.07241">
        <ele>2243</ele>
        <time>2010-01-01T03:06:22Z</time>
      </trkpt>
      <trkpt lat="42.79729" lon="1.07241">
        <ele>2243</ele>
        <time>2010-01-01T03:06:23Z</time>
      </trkpt>
      <trkpt lat="42.7973" lon="1.0724">
        <ele>2243</ele>
        <time>2010-01-01T03:06:23Z</time>
      </trkpt>
      <trkpt lat="42.7973" lon="1.07241">
        <ele>2243</ele>
        <time>2010-01-01T03:06:23Z</time>
      </trkpt>
      <trkpt lat="42.79731" lon="1.0724">
        <ele>2243</ele>
        <time>2010-01-01T03:06:24Z</time>
      </trkpt>
      <trkpt lat="42.79731" lon="1.07237">
        <ele>2243</ele>
        <time>2010-01-01T03:06:25Z</time>
      </trkpt>
      <trkpt lat="42.79731" lon="1.07241">
        <ele>2243</ele>
        <time>2010-01-01T03:06:26Z</time>
      </trkpt>
      <trkpt lat="42.79729" lon="1.07239">
        <ele>2243</ele>
        <time>2010-01-01T03:06:27Z</time>
      </trkpt>
      <trkpt lat="42.79729" lon="1.07238">
        <ele>2243</ele>
        <time>2010-01-01T03:06:27Z</time>
      </trkpt>
      <trkpt lat="42.79728" lon="1.07237">
        <ele>2242</ele>
        <time>2010-01-01T03:06:27Z</time>
      </trkpt>
      <trkpt lat="42.79727" lon="1.07236">
        <ele>2242</ele>
        <time>2010-01-01T03:06:28Z</time>
      </trkpt>
      <trkpt lat="42.79727" lon="1.07235">
        <ele>2242</ele>
        <time>2010-01-01T03:06:28Z</time>
      </trkpt>
      <trkpt lat="42.79722" lon="1.07226">
        <ele>2240</ele>
        <time>2010-01-01T03:06:31Z</time>
      </trkpt>
      <trkpt lat="42.7972" lon="1.07224">
        <ele>2239</ele>
        <time>2010-01-01T03:06:32Z</time>
      </trkpt>
      <trkpt lat="42.79717" lon="1.07222">
        <ele>2238</ele>
        <time>2010-01-01T03:06:34Z</time>
      </trkpt>
      <trkpt lat="42.79718" lon="1.07219">
        <ele>2238</ele>
        <time>2010-01-01T03:06:35Z</time>
      </trkpt>
      <trkpt lat="42.79719" lon="1.07209">
        <ele>2235</ele>
        <time>2010-01-01T03:06:38Z</time>
      </trkpt>
      <trkpt lat="42.79715" lon="1.07195">
        <ele>2230</ele>
        <time>2010-01-01T03:06:42Z</time>
      </trkpt>
      <trkpt lat="42.79716" lon="1.07185">
        <ele>2227</ele>
        <time>2010-01-01T03:06:45Z</time>
      </trkpt>
      <trkpt lat="42.79707" lon="1.07176">
        <ele>2225</ele>
        <time>2010-01-01T03:06:50Z</time>
      </trkpt>
      <trkpt lat="42.79711" lon="1.07175">
        <ele>2224</ele>
        <time>2010-01-01T03:06:51Z</time>
      </trkpt>
      <trkpt lat="42.79717" lon="1.07167">
        <ele>2222</ele>
        <time>2010-01-01T03:06:55Z</time>
      </trkpt>
      <trkpt lat="42.79723" lon="1.0716">
        <ele>2218</ele>
        <time>2010-01-01T03:06:58Z</time>
      </trkpt>
      <trkpt lat="42.79725" lon="1.07154">
        <ele>2216</ele>
        <time>2010-01-01T03:07:00Z</time>
      </trkpt>
      <trkpt lat="42.79717" lon="1.07142">
        <ele>2210</ele>
        <time>2010-01-01T03:07:04Z</time>
      </trkpt>
      <trkpt lat="42.79711" lon="1.07141">
        <ele>2210</ele>
        <time>2010-01-01T03:07:07Z</time>
      </trkpt>
      <trkpt lat="42.7971" lon="1.07132">
        <ele>2204</ele>
        <time>2010-01-01T03:07:10Z</time>
      </trkpt>
      <trkpt lat="42.79722" lon="1.07125">
        <ele>2200</ele>
        <time>2010-01-01T03:07:15Z</time>
      </trkpt>
      <trkpt lat="42.79722" lon="1.07116">
        <ele>2196</ele>
        <time>2010-01-01T03:07:18Z</time>
      </trkpt>
      <trkpt lat="42.79722" lon="1.07111">
        <ele>2192</ele>
        <time>2010-01-01T03:07:19Z</time>
      </trkpt>
      <trkpt lat="42.7972" lon="1.071">
        <ele>2189</ele>
        <time>2010-01-01T03:07:22Z</time>
      </trkpt>
      <trkpt lat="42.79722" lon="1.07095">
        <ele>2187</ele>
        <time>2010-01-01T03:07:24Z</time>
      </trkpt>
      <trkpt lat="42.7972" lon="1.07088">
        <ele>2185</ele>
        <time>2010-01-01T03:07:26Z</time>
      </trkpt>
      <trkpt lat="42.79726" lon="1.07079">
        <ele>2184</ele>
        <time>2010-01-01T03:07:30Z</time>
      </trkpt>
      <trkpt lat="42.79729" lon="1.07067">
        <ele>2183</ele>
        <time>2010-01-01T03:07:34Z</time>
      </trkpt>
      <trkpt lat="42.79733" lon="1.07055">
        <ele>2182</ele>
        <time>2010-01-01T03:07:37Z</time>
      </trkpt>
      <trkpt lat="42.79733" lon="1.07053">
        <ele>2181</ele>
        <time>2010-01-01T03:07:38Z</time>
      </trkpt>
      <trkpt lat="42.79734" lon="1.0705">
        <ele>2181</ele>
        <time>2010-01-01T03:07:39Z</time>
      </trkpt>
      <trkpt lat="42.79738" lon="1.07044">
        <ele>2181</ele>
        <time>2010-01-01T03:07:41Z</time>
      </trkpt>
      <trkpt lat="42.79738" lon="1.0704">
        <ele>2180</ele>
        <time>2010-01-01T03:07:42Z</time>
      </trkpt>
      <trkpt lat="42.79742" lon="1.0703">
        <ele>2179</ele>
        <time>2010-01-01T03:07:46Z</time>
      </trkpt>
      <trkpt lat="42.79742" lon="1.07029">
        <ele>2179</ele>
        <time>2010-01-01T03:07:46Z</time>
      </trkpt>
      <trkpt lat="42.79743" lon="1.07023">
        <ele>2177</ele>
        <time>2010-01-01T03:07:48Z</time>
      </trkpt>
      <trkpt lat="42.79748" lon="1.0702">
        <ele>2178</ele>
        <time>2010-01-01T03:07:50Z</time>
      </trkpt>
      <trkpt lat="42.79749" lon="1.07018">
        <ele>2177</ele>
        <time>2010-01-01T03:07:51Z</time>
      </trkpt>
      <trkpt lat="42.79757" lon="1.07012">
        <ele>2179</ele>
        <time>2010-01-01T03:07:54Z</time>
      </trkpt>
      <trkpt lat="42.79758" lon="1.07008">
        <ele>2178</ele>
        <time>2010-01-01T03:07:56Z</time>
      </trkpt>
      <trkpt lat="42.79764" lon="1.06997">
        <ele>2177</ele>
        <time>2010-01-01T03:07:59Z</time>
      </trkpt>
      <trkpt lat="42.79765" lon="1.06995">
        <ele>2175</ele>
        <time>2010-01-01T03:08:00Z</time>
      </trkpt>
      <trkpt lat="42.79766" lon="1.06992">
        <ele>2174</ele>
        <time>2010-01-01T03:08:01Z</time>
      </trkpt>
      <trkpt lat="42.79772" lon="1.06987">
        <ele>2173</ele>
        <time>2010-01-01T03:08:04Z</time>
      </trkpt>
      <trkpt lat="42.79776" lon="1.06979">
        <ele>2169</ele>
        <time>2010-01-01T03:08:07Z</time>
      </trkpt>
      <trkpt lat="42.79781" lon="1.06971">
        <ele>2164</ele>
        <time>2010-01-01T03:08:10Z</time>
      </trkpt>
      <trkpt lat="42.79787" lon="1.06965">
        <ele>2162</ele>
        <time>2010-01-01T03:08:13Z</time>
      </trkpt>
      <trkpt lat="42.79793" lon="1.06956">
        <ele>2158</ele>
        <time>2010-01-01T03:08:17Z</time>
      </trkpt>
      <trkpt lat="42.79797" lon="1.06949">
        <ele>2155</ele>
        <time>2010-01-01T03:08:19Z</time>
      </trkpt>
      <trkpt lat="42.79798" lon="1.06938">
        <ele>2149</ele>
        <time>2010-01-01T03:08:22Z</time>
      </trkpt>
      <trkpt lat="42.79804" lon="1.06932">
        <ele>2148</ele>
        <time>2010-01-01T03:08:25Z</time>
      </trkpt>
      <trkpt lat="42.79812" lon="1.06928">
        <ele>2148</ele>
        <time>2010-01-01T03:08:29Z</time>
      </trkpt>
      <trkpt lat="42.79818" lon="1.06925">
        <ele>2150</ele>
        <time>2010-01-01T03:08:31Z</time>
      </trkpt>
      <trkpt lat="42.79818" lon="1.06923">
        <ele>2149</ele>
        <time>2010-01-01T03:08:32Z</time>
      </trkpt>
      <trkpt lat="42.79823" lon="1.06916">
        <ele>2147</ele>
        <time>2010-01-01T03:08:35Z</time>
      </trkpt>
      <trkpt lat="42.79829" lon="1.06908">
        <ele>2145</ele>
        <time>2010-01-01T03:08:38Z</time>
      </trkpt>
      <trkpt lat="42.79829" lon="1.06899">
        <ele>2138</ele>
        <time>2010-01-01T03:08:41Z</time>
      </trkpt>
      <trkpt lat="42.79831" lon="1.06893">
        <ele>2134</ele>
        <time>2010-01-01T03:08:43Z</time>
      </trkpt>
      <trkpt lat="42.79832" lon="1.06889">
        <ele>2131</ele>
        <time>2010-01-01T03:08:44Z</time>
      </trkpt>
      <trkpt lat="42.79835" lon="1.06886">
        <ele>2131</ele>
        <time>2010-01-01T03:08:46Z</time>
      </trkpt>
      <trkpt lat="42.79832" lon="1.06881">
        <ele>2126</ele>
        <time>2010-01-01T03:08:48Z</time>
      </trkpt>
      <trkpt lat="42.79833" lon="1.06875">
        <ele>2121</ele>
        <time>2010-01-01T03:08:49Z</time>
      </trkpt>
      <trkpt lat="42.79832" lon="1.06867">
        <ele>2115</ele>
        <time>2010-01-01T03:08:52Z</time>
      </trkpt>
      <trkpt lat="42.79837" lon="1.06863">
        <ele>2114</ele>
        <time>2010-01-01T03:08:54Z</time>
      </trkpt>
      <trkpt lat="42.79832" lon="1.06855">
        <ele>2107</ele>
        <time>2010-01-01T03:08:57Z</time>
      </trkpt>
      <trkpt lat="42.79829" lon="1.06848">
        <ele>2103</ele>
        <time>2010-01-01T03:08:59Z</time>
      </trkpt>
      <trkpt lat="42.79826" lon="1.06844">
        <ele>2101</ele>
        <time>2010-01-01T03:09:01Z</time>
      </trkpt>
      <trkpt lat="42.79829" lon="1.06843">
        <ele>2101</ele>
        <time>2010-01-01T03:09:02Z</time>
      </trkpt>
      <trkpt lat="42.79834" lon="1.06838">
        <ele>2100</ele>
        <time>2010-01-01T03:09:04Z</time>
      </trkpt>
      <trkpt lat="42.79828" lon="1.06829">
        <ele>2094</ele>
        <time>2010-01-01T03:09:08Z</time>
      </trkpt>
      <trkpt lat="42.79824" lon="1.06825">
        <ele>2092</ele>
        <time>2010-01-01T03:09:10Z</time>
      </trkpt>
      <trkpt lat="42.79819" lon="1.0682">
        <ele>2089</ele>
        <time>2010-01-01T03:09:12Z</time>
      </trkpt>
      <trkpt lat="42.79815" lon="1.06815">
        <ele>2086</ele>
        <time>2010-01-01T03:09:15Z</time>
      </trkpt>
      <trkpt lat="42.79813" lon="1.06812">
        <ele>2085</ele>
        <time>2010-01-01T03:09:16Z</time>
      </trkpt>
      <trkpt lat="42.79813" lon="1.06812">
        <ele>2085</ele>
        <time>2010-01-01T03:09:16Z</time>
      </trkpt>
      <trkpt lat="42.79812" lon="1.06812">
        <ele>2085</ele>
        <time>2010-01-01T03:09:16Z</time>
      </trkpt>
      <trkpt lat="42.79805" lon="1.06802">
        <ele>2081</ele>
        <time>2010-01-01T03:09:20Z</time>
      </trkpt>
      <trkpt lat="42.79812" lon="1.06796">
        <ele>2080</ele>
        <time>2010-01-01T03:09:23Z</time>
      </trkpt>
      <trkpt lat="42.7981" lon="1.06786">
        <ele>2077</ele>
        <time>2010-01-01T03:09:26Z</time>
      </trkpt>
      <trkpt lat="42.79804" lon="1.06785">
        <ele>2076</ele>
        <time>2010-01-01T03:09:29Z</time>
      </trkpt>
      <trkpt lat="42.79803" lon="1.06779">
        <ele>2074</ele>
        <time>2010-01-01T03:09:30Z</time>
      </trkpt>
      <trkpt lat="42.79803" lon="1.06777">
        <ele>2073</ele>
        <time>2010-01-01T03:09:31Z</time>
      </trkpt>
      <trkpt lat="42.79805" lon="1.06777">
        <ele>2074</ele>
        <time>2010-01-01T03:09:32Z</time>
      </trkpt>
      <trkpt lat="42.79808" lon="1.06775">
        <ele>2074</ele>
        <time>2010-01-01T03:09:33Z</time>
      </trkpt>
      <trkpt lat="42.79808" lon="1.06765">
        <ele>2070</ele>
        <time>2010-01-01T03:09:36Z</time>
      </trkpt>
      <trkpt lat="42.79812" lon="1.06756">
        <ele>2068</ele>
        <time>2010-01-01T03:09:39Z</time>
      </trkpt>
      <trkpt lat="42.79812" lon="1.06744">
        <ele>2065</ele>
        <time>2010-01-01T03:09:42Z</time>
      </trkpt>
      <trkpt lat="42.79809" lon="1.06736">
        <ele>2061</ele>
        <time>2010-01-01T03:09:45Z</time>
      </trkpt>
      <trkpt lat="42.79798" lon="1.0673">
        <ele>2051</ele>
        <time>2010-01-01T03:09:50Z</time>
      </trkpt>
      <trkpt lat="42.79798" lon="1.06724">
        <ele>2049</ele>
        <time>2010-01-01T03:09:51Z</time>
      </trkpt>
      <trkpt lat="42.79797" lon="1.0672">
        <ele>2047</ele>
        <time>2010-01-01T03:09:53Z</time>
      </trkpt>
      <trkpt lat="42.79794" lon="1.06715">
        <ele>2043</ele>
        <time>2010-01-01T03:09:54Z</time>
      </trkpt>
      <trkpt lat="42.79796" lon="1.06717">
        <ele>2045</ele>
        <time>2010-01-01T03:09:55Z</time>
      </trkpt>
      <trkpt lat="42.79796" lon="1.06717">
        <ele>2044</ele>
        <time>2010-01-01T03:09:55Z</time>
      </trkpt>
      <trkpt lat="42.79793" lon="1.06714">
        <ele>2041</ele>
        <time>2010-01-01T03:09:57Z</time>
      </trkpt>
      <trkpt lat="42.79794" lon="1.06709">
        <ele>2040</ele>
        <time>2010-01-01T03:09:58Z</time>
      </trkpt>
      <trkpt lat="42.79795" lon="1.06701">
        <ele>2038</ele>
        <time>2010-01-01T03:10:01Z</time>
      </trkpt>
      <trkpt lat="42.79796" lon="1.06692">
        <ele>2036</ele>
        <time>2010-01-01T03:10:03Z</time>
      </trkpt>
      <trkpt lat="42.79796" lon="1.06686">
        <ele>2035</ele>
        <time>2010-01-01T03:10:05Z</time>
      </trkpt>
      <trkpt lat="42.79793" lon="1.06676">
        <ele>2029</ele>
        <time>2010-01-01T03:10:08Z</time>
      </trkpt>
      <trkpt lat="42.79794" lon="1.06674">
        <ele>2029</ele>
        <time>2010-01-01T03:10:09Z</time>
      </trkpt>
      <trkpt lat="42.79793" lon="1.06675">
        <ele>2029</ele>
        <time>2010-01-01T03:10:09Z</time>
      </trkpt>
      <trkpt lat="42.79787" lon="1.06666">
        <ele>2022</ele>
        <time>2010-01-01T03:10:12Z</time>
      </trkpt>
      <trkpt lat="42.79787" lon="1.06666">
        <ele>2021</ele>
        <time>2010-01-01T03:10:13Z</time>
      </trkpt>
      <trkpt lat="42.79782" lon="1.06662">
        <ele>2016</ele>
        <time>2010-01-01T03:10:15Z</time>
      </trkpt>
      <trkpt lat="42.79784" lon="1.06652">
        <ele>2014</ele>
        <time>2010-01-01T03:10:18Z</time>
      </trkpt>
      <trkpt lat="42.79785" lon="1.06644">
        <ele>2012</ele>
        <time>2010-01-01T03:10:20Z</time>
      </trkpt>
      <trkpt lat="42.79789" lon="1.06638">
        <ele>2013</ele>
        <time>2010-01-01T03:10:23Z</time>
      </trkpt>
      <trkpt lat="42.79793" lon="1.0663">
        <ele>2014</ele>
        <time>2010-01-01T03:10:26Z</time>
      </trkpt>
      <trkpt lat="42.79796" lon="1.06622">
        <ele>2014</ele>
        <time>2010-01-01T03:10:28Z</time>
      </trkpt>
      <trkpt lat="42.798" lon="1.06615">
        <ele>2014</ele>
        <time>2010-01-01T03:10:31Z</time>
      </trkpt>
      <trkpt lat="42.79805" lon="1.06611">
        <ele>2015</ele>
        <time>2010-01-01T03:10:33Z</time>
      </trkpt>
      <trkpt lat="42.79807" lon="1.06611">
        <ele>2015</ele>
        <time>2010-01-01T03:10:34Z</time>
      </trkpt>
      <trkpt lat="42.79811" lon="1.06609">
        <ele>2014</ele>
        <time>2010-01-01T03:10:36Z</time>
      </trkpt>
      <trkpt lat="42.79816" lon="1.06604">
        <ele>2012</ele>
        <time>2010-01-01T03:10:38Z</time>
      </trkpt>
      <trkpt lat="42.79817" lon="1.06596">
        <ele>2009</ele>
        <time>2010-01-01T03:10:41Z</time>
      </trkpt>
      <trkpt lat="42.79817" lon="1.06595">
        <ele>2009</ele>
        <time>2010-01-01T03:10:41Z</time>
      </trkpt>
      <trkpt lat="42.79817" lon="1.06588">
        <ele>2006</ele>
        <time>2010-01-01T03:10:43Z</time>
      </trkpt>
      <trkpt lat="42.79817" lon="1.06577">
        <ele>2002</ele>
        <time>2010-01-01T03:10:46Z</time>
      </trkpt>
      <trkpt lat="42.79821" lon="1.06572">
        <ele>2000</ele>
        <time>2010-01-01T03:10:48Z</time>
      </trkpt>
      <trkpt lat="42.79822" lon="1.06567">
        <ele>1999</ele>
        <time>2010-01-01T03:10:50Z</time>
      </trkpt>
      <trkpt lat="42.79824" lon="1.0656">
        <ele>1996</ele>
        <time>2010-01-01T03:10:52Z</time>
      </trkpt>
      <trkpt lat="42.79828" lon="1.06558">
        <ele>1995</ele>
        <time>2010-01-01T03:10:54Z</time>
      </trkpt>
      <trkpt lat="42.79831" lon="1.06555">
        <ele>1994</ele>
        <time>2010-01-01T03:10:55Z</time>
      </trkpt>
      <trkpt lat="42.79826" lon="1.06543">
        <ele>1991</ele>
        <time>2010-01-01T03:10:59Z</time>
      </trkpt>
      <trkpt lat="42.7983" lon="1.06538">
        <ele>1989</ele>
        <time>2010-01-01T03:11:01Z</time>
      </trkpt>
      <trkpt lat="42.79832" lon="1.06535">
        <ele>1988</ele>
        <time>2010-01-01T03:11:02Z</time>
      </trkpt>
      <trkpt lat="42.79837" lon="1.0653">
        <ele>1986</ele>
        <time>2010-01-01T03:11:05Z</time>
      </trkpt>
      <trkpt lat="42.79843" lon="1.06524">
        <ele>1985</ele>
        <time>2010-01-01T03:11:08Z</time>
      </trkpt>
      <trkpt lat="42.79845" lon="1.06522">
        <ele>1984</ele>
        <time>2010-01-01T03:11:09Z</time>
      </trkpt>
      <trkpt lat="42.7985" lon="1.06517">
        <ele>1983</ele>
        <time>2010-01-01T03:11:11Z</time>
      </trkpt>
      <trkpt lat="42.79851" lon="1.06515">
        <ele>1982</ele>
        <time>2010-01-01T03:11:12Z</time>
      </trkpt>
      <trkpt lat="42.79855" lon="1.06507">
        <ele>1980</ele>
        <time>2010-01-01T03:11:15Z</time>
      </trkpt>
      <trkpt lat="42.79854" lon="1.06504">
        <ele>1979</ele>
        <time>2010-01-01T03:11:16Z</time>
      </trkpt>
      <trkpt lat="42.79849" lon="1.06496">
        <ele>1977</ele>
        <time>2010-01-01T03:11:19Z</time>
      </trkpt>
      <trkpt lat="42.79851" lon="1.0649">
        <ele>1976</ele>
        <time>2010-01-01T03:11:21Z</time>
      </trkpt>
      <trkpt lat="42.79845" lon="1.06476">
        <ele>1973</ele>
        <time>2010-01-01T03:11:26Z</time>
      </trkpt>
      <trkpt lat="42.79842" lon="1.06465">
        <ele>1970</ele>
        <time>2010-01-01T03:11:29Z</time>
      </trkpt>
      <trkpt lat="42.79839" lon="1.06459">
        <ele>1969</ele>
        <time>2010-01-01T03:11:31Z</time>
      </trkpt>
      <trkpt lat="42.79843" lon="1.06452">
        <ele>1967</ele>
        <time>2010-01-01T03:11:34Z</time>
      </trkpt>
      <trkpt lat="42.79845" lon="1.06442">
        <ele>1964</ele>
        <time>2010-01-01T03:11:37Z</time>
      </trkpt>
      <trkpt lat="42.7985" lon="1.06436">
        <ele>1961</ele>
        <time>2010-01-01T03:11:39Z</time>
      </trkpt>
      <trkpt lat="42.79852" lon="1.06431">
        <ele>1960</ele>
        <time>2010-01-01T03:11:41Z</time>
      </trkpt>
      <trkpt lat="42.79853" lon="1.06431">
        <ele>1960</ele>
        <time>2010-01-01T03:11:41Z</time>
      </trkpt>
      <trkpt lat="42.79858" lon="1.0642">
        <ele>1956</ele>
        <time>2010-01-01T03:11:45Z</time>
      </trkpt>
      <trkpt lat="42.79861" lon="1.06416">
        <ele>1955</ele>
        <time>2010-01-01T03:11:47Z</time>
      </trkpt>
      <trkpt lat="42.79862" lon="1.06414">
        <ele>1956</ele>
        <time>2010-01-01T03:11:48Z</time>
      </trkpt>
      <trkpt lat="42.7987" lon="1.06407">
        <ele>1956</ele>
        <time>2010-01-01T03:11:51Z</time>
      </trkpt>
      <trkpt lat="42.7987" lon="1.06404">
        <ele>1955</ele>
        <time>2010-01-01T03:11:52Z</time>
      </trkpt>
      <trkpt lat="42.7987" lon="1.06404">
        <ele>1955</ele>
        <time>2010-01-01T03:11:52Z</time>
      </trkpt>
      <trkpt lat="42.79876" lon="1.06406">
        <ele>1957</ele>
        <time>2010-01-01T03:11:55Z</time>
      </trkpt>
      <trkpt lat="42.79883" lon="1.06404">
        <ele>1957</ele>
        <time>2010-01-01T03:11:58Z</time>
      </trkpt>
      <trkpt lat="42.79887" lon="1.06394">
        <ele>1950</ele>
        <time>2010-01-01T03:12:01Z</time>
      </trkpt>
      <trkpt lat="42.7989" lon="1.06387">
        <ele>1945</ele>
        <time>2010-01-01T03:12:03Z</time>
      </trkpt>
      <trkpt lat="42.79891" lon="1.06377">
        <ele>1938</ele>
        <time>2010-01-01T03:12:06Z</time>
      </trkpt>
      <trkpt lat="42.79894" lon="1.06372">
        <ele>1936</ele>
        <time>2010-01-01T03:12:08Z</time>
      </trkpt>
      <trkpt lat="42.799" lon="1.06367">
        <ele>1935</ele>
        <time>2010-01-01T03:12:11Z</time>
      </trkpt>
      <trkpt lat="42.79904" lon="1.06356">
        <ele>1932</ele>
        <time>2010-01-01T03:12:14Z</time>
      </trkpt>
      <trkpt lat="42.79908" lon="1.06351">
        <ele>1933</ele>
        <time>2010-01-01T03:12:17Z</time>
      </trkpt>
      <trkpt lat="42.79911" lon="1.06348">
        <ele>1934</ele>
        <time>2010-01-01T03:12:18Z</time>
      </trkpt>
      <trkpt lat="42.79913" lon="1.06341">
        <ele>1932</ele>
        <time>2010-01-01T03:12:20Z</time>
      </trkpt>
      <trkpt lat="42.79919" lon="1.06332">
        <ele>1931</ele>
        <time>2010-01-01T03:12:24Z</time>
      </trkpt>
      <trkpt lat="42.79921" lon="1.06329">
        <ele>1930</ele>
        <time>2010-01-01T03:12:25Z</time>
      </trkpt>
      <trkpt lat="42.79927" lon="1.06317">
        <ele>1926</ele>
        <time>2010-01-01T03:12:29Z</time>
      </trkpt>
      <trkpt lat="42.79928" lon="1.06313">
        <ele>1925</ele>
        <time>2010-01-01T03:12:31Z</time>
      </trkpt>
      <trkpt lat="42.79928" lon="1.06313">
        <ele>1925</ele>
        <time>2010-01-01T03:12:31Z</time>
      </trkpt>
      <trkpt lat="42.79936" lon="1.06299">
        <ele>1921</ele>
        <time>2010-01-01T03:12:36Z</time>
      </trkpt>
      <trkpt lat="42.79936" lon="1.06295">
        <ele>1920</ele>
        <time>2010-01-01T03:12:37Z</time>
      </trkpt>
      <trkpt lat="42.79934" lon="1.06288">
        <ele>1917</ele>
        <time>2010-01-01T03:12:39Z</time>
      </trkpt>
      <trkpt lat="42.79934" lon="1.06284">
        <ele>1915</ele>
        <time>2010-01-01T03:12:40Z</time>
      </trkpt>
      <trkpt lat="42.79936" lon="1.06278">
        <ele>1914</ele>
        <time>2010-01-01T03:12:42Z</time>
      </trkpt>
      <trkpt lat="42.79938" lon="1.06275">
        <ele>1913</ele>
        <time>2010-01-01T03:12:43Z</time>
      </trkpt>
      <trkpt lat="42.7994" lon="1.06271">
        <ele>1913</ele>
        <time>2010-01-01T03:12:45Z</time>
      </trkpt>
      <trkpt lat="42.79944" lon="1.06265">
        <ele>1912</ele>
        <time>2010-01-01T03:12:47Z</time>
      </trkpt>
      <trkpt lat="42.79947" lon="1.06254">
        <ele>1910</ele>
        <time>2010-01-01T03:12:51Z</time>
      </trkpt>
      <trkpt lat="42.79952" lon="1.06244">
        <ele>1909</ele>
        <time>2010-01-01T03:12:54Z</time>
      </trkpt>
      <trkpt lat="42.79956" lon="1.0623">
        <ele>1908</ele>
        <time>2010-01-01T03:12:58Z</time>
      </trkpt>
      <trkpt lat="42.7996" lon="1.06225">
        <ele>1910</ele>
        <time>2010-01-01T03:13:01Z</time>
      </trkpt>
      <trkpt lat="42.79962" lon="1.06219">
        <ele>1909</ele>
        <time>2010-01-01T03:13:03Z</time>
      </trkpt>
      <trkpt lat="42.79967" lon="1.06212">
        <ele>1908</ele>
        <time>2010-01-01T03:13:06Z</time>
      </trkpt>
      <trkpt lat="42.79977" lon="1.06194">
        <ele>1902</ele>
        <time>2010-01-01T03:13:12Z</time>
      </trkpt>
      <trkpt lat="42.7998" lon="1.06186">
        <ele>1899</ele>
        <time>2010-01-01T03:13:15Z</time>
      </trkpt>
      <trkpt lat="42.79983" lon="1.06178">
        <ele>1895</ele>
        <time>2010-01-01T03:13:17Z</time>
      </trkpt>
      <trkpt lat="42.79993" lon="1.06162">
        <ele>1891</ele>
        <time>2010-01-01T03:13:24Z</time>
      </trkpt>
      <trkpt lat="42.79997" lon="1.0615">
        <ele>1889</ele>
        <time>2010-01-01T03:13:28Z</time>
      </trkpt>
      <trkpt lat="42.80003" lon="1.06135">
        <ele>1885</ele>
        <time>2010-01-01T03:13:32Z</time>
      </trkpt>
      <trkpt lat="42.80005" lon="1.06128">
        <ele>1882</ele>
        <time>2010-01-01T03:13:35Z</time>
      </trkpt>
      <trkpt lat="42.80007" lon="1.06123">
        <ele>1880</ele>
        <time>2010-01-01T03:13:36Z</time>
      </trkpt>
      <trkpt lat="42.80007" lon="1.06121">
        <ele>1879</ele>
        <time>2010-01-01T03:13:37Z</time>
      </trkpt>
      <trkpt lat="42.80008" lon="1.0611">
        <ele>1875</ele>
        <time>2010-01-01T03:13:40Z</time>
      </trkpt>
      <trkpt lat="42.80011" lon="1.06101">
        <ele>1872</ele>
        <time>2010-01-01T03:13:43Z</time>
      </trkpt>
      <trkpt lat="42.80012" lon="1.06095">
        <ele>1870</ele>
        <time>2010-01-01T03:13:45Z</time>
      </trkpt>
      <trkpt lat="42.80015" lon="1.06087">
        <ele>1868</ele>
        <time>2010-01-01T03:13:48Z</time>
      </trkpt>
      <trkpt lat="42.80021" lon="1.06072">
        <ele>1865</ele>
        <time>2010-01-01T03:13:53Z</time>
      </trkpt>
      <trkpt lat="42.80023" lon="1.06063">
        <ele>1863</ele>
        <time>2010-01-01T03:13:55Z</time>
      </trkpt>
      <trkpt lat="42.80023" lon="1.06051">
        <ele>1861</ele>
        <time>2010-01-01T03:13:59Z</time>
      </trkpt>
      <trkpt lat="42.80027" lon="1.0604">
        <ele>1860</ele>
        <time>2010-01-01T03:14:02Z</time>
      </trkpt>
      <trkpt lat="42.80028" lon="1.0603">
        <ele>1858</ele>
        <time>2010-01-01T03:14:05Z</time>
      </trkpt>
      <trkpt lat="42.80037" lon="1.06019">
        <ele>1860</ele>
        <time>2010-01-01T03:14:10Z</time>
      </trkpt>
      <trkpt lat="42.80038" lon="1.06018">
        <ele>1860</ele>
        <time>2010-01-01T03:14:11Z</time>
      </trkpt>
      <trkpt lat="42.80042" lon="1.06011">
        <ele>1861</ele>
        <time>2010-01-01T03:14:13Z</time>
      </trkpt>
      <trkpt lat="42.80045" lon="1.06004">
        <ele>1862</ele>
        <time>2010-01-01T03:14:16Z</time>
      </trkpt>
      <trkpt lat="42.8005" lon="1.05992">
        <ele>1862</ele>
        <time>2010-01-01T03:14:20Z</time>
      </trkpt>
      <trkpt lat="42.80045" lon="1.05986">
        <ele>1858</ele>
        <time>2010-01-01T03:14:22Z</time>
      </trkpt>
      <trkpt lat="42.80039" lon="1.05981">
        <ele>1854</ele>
        <time>2010-01-01T03:14:25Z</time>
      </trkpt>
      <trkpt lat="42.80039" lon="1.05978">
        <ele>1853</ele>
        <time>2010-01-01T03:14:26Z</time>
      </trkpt>
      <trkpt lat="42.80039" lon="1.05976">
        <ele>1853</ele>
        <time>2010-01-01T03:14:27Z</time>
      </trkpt>
      <trkpt lat="42.80036" lon="1.05965">
        <ele>1848</ele>
        <time>2010-01-01T03:14:30Z</time>
      </trkpt>
      <trkpt lat="42.80033" lon="1.05959">
        <ele>1844</ele>
        <time>2010-01-01T03:14:32Z</time>
      </trkpt>
      <trkpt lat="42.80033" lon="1.05959">
        <ele>1844</ele>
        <time>2010-01-01T03:14:32Z</time>
      </trkpt>
      <trkpt lat="42.80034" lon="1.05958">
        <ele>1844</ele>
        <time>2010-01-01T03:14:33Z</time>
      </trkpt>
      <trkpt lat="42.80039" lon="1.05952">
        <ele>1844</ele>
        <time>2010-01-01T03:14:35Z</time>
      </trkpt>
      <trkpt lat="42.8004" lon="1.05947">
        <ele>1842</ele>
        <time>2010-01-01T03:14:37Z</time>
      </trkpt>
      <trkpt lat="42.80042" lon="1.05937">
        <ele>1839</ele>
        <time>2010-01-01T03:14:40Z</time>
      </trkpt>
      <trkpt lat="42.80042" lon="1.05937">
        <ele>1839</ele>
        <time>2010-01-01T03:14:40Z</time>
      </trkpt>
      <trkpt lat="42.80046" lon="1.05931">
        <ele>1839</ele>
        <time>2010-01-01T03:14:43Z</time>
      </trkpt>
      <trkpt lat="42.80047" lon="1.05924">
        <ele>1837</ele>
        <time>2010-01-01T03:14:45Z</time>
      </trkpt>
      <trkpt lat="42.80051" lon="1.05914">
        <ele>1834</ele>
        <time>2010-01-01T03:14:48Z</time>
      </trkpt>
      <trkpt lat="42.80052" lon="1.05915">
        <ele>1835</ele>
        <time>2010-01-01T03:14:49Z</time>
      </trkpt>
      <trkpt lat="42.80049" lon="1.05909">
        <ele>1831</ele>
        <time>2010-01-01T03:14:51Z</time>
      </trkpt>
      <trkpt lat="42.8005" lon="1.05908">
        <ele>1831</ele>
        <time>2010-01-01T03:14:51Z</time>
      </trkpt>
      <trkpt lat="42.8005" lon="1.05897">
        <ele>1825</ele>
        <time>2010-01-01T03:14:54Z</time>
      </trkpt>
      <trkpt lat="42.8005" lon="1.05894">
        <ele>1824</ele>
        <time>2010-01-01T03:14:55Z</time>
      </trkpt>
      <trkpt lat="42.80052" lon="1.05879">
        <ele>1819</ele>
        <time>2010-01-01T03:15:00Z</time>
      </trkpt>
      <trkpt lat="42.80053" lon="1.05867">
        <ele>1816</ele>
        <time>2010-01-01T03:15:03Z</time>
      </trkpt>
      <trkpt lat="42.80053" lon="1.05855">
        <ele>1813</ele>
        <time>2010-01-01T03:15:07Z</time>
      </trkpt>
      <trkpt lat="42.80053" lon="1.0585">
        <ele>1812</ele>
        <time>2010-01-01T03:15:08Z</time>
      </trkpt>
      <trkpt lat="42.80058" lon="1.05839">
        <ele>1810</ele>
        <time>2010-01-01T03:15:12Z</time>
      </trkpt>
      <trkpt lat="42.8006" lon="1.05832">
        <ele>1808</ele>
        <time>2010-01-01T03:15:14Z</time>
      </trkpt>
      <trkpt lat="42.80064" lon="1.05826">
        <ele>1806</ele>
        <time>2010-01-01T03:15:17Z</time>
      </trkpt>
      <trkpt lat="42.80065" lon="1.05822">
        <ele>1805</ele>
        <time>2010-01-01T03:15:18Z</time>
      </trkpt>
      <trkpt lat="42.80065" lon="1.05818">
        <ele>1804</ele>
        <time>2010-01-01T03:15:19Z</time>
      </trkpt>
      <trkpt lat="42.80076" lon="1.05806">
        <ele>1801</ele>
        <time>2010-01-01T03:15:25Z</time>
      </trkpt>
      <trkpt lat="42.80081" lon="1.05796">
        <ele>1799</ele>
        <time>2010-01-01T03:15:28Z</time>
      </trkpt>
      <trkpt lat="42.80083" lon="1.05795">
        <ele>1799</ele>
        <time>2010-01-01T03:15:29Z</time>
      </trkpt>
      <trkpt lat="42.80086" lon="1.05793">
        <ele>1799</ele>
        <time>2010-01-01T03:15:30Z</time>
      </trkpt>
      <trkpt lat="42.80092" lon="1.05783">
        <ele>1799</ele>
        <time>2010-01-01T03:15:34Z</time>
      </trkpt>
      <trkpt lat="42.80096" lon="1.05772">
        <ele>1798</ele>
        <time>2010-01-01T03:15:38Z</time>
      </trkpt>
      <trkpt lat="42.80097" lon="1.05763">
        <ele>1796</ele>
        <time>2010-01-01T03:15:40Z</time>
      </trkpt>
      <trkpt lat="42.80096" lon="1.0576">
        <ele>1795</ele>
        <time>2010-01-01T03:15:41Z</time>
      </trkpt>
      <trkpt lat="42.80098" lon="1.0575">
        <ele>1793</ele>
        <time>2010-01-01T03:15:44Z</time>
      </trkpt>
      <trkpt lat="42.801" lon="1.05746">
        <ele>1793</ele>
        <time>2010-01-01T03:15:46Z</time>
      </trkpt>
      <trkpt lat="42.80103" lon="1.05742">
        <ele>1792</ele>
        <time>2010-01-01T03:15:47Z</time>
      </trkpt>
      <trkpt lat="42.80105" lon="1.05735">
        <ele>1790</ele>
        <time>2010-01-01T03:15:49Z</time>
      </trkpt>
      <trkpt lat="42.80103" lon="1.05725">
        <ele>1788</ele>
        <time>2010-01-01T03:15:52Z</time>
      </trkpt>
      <trkpt lat="42.80104" lon="1.05718">
        <ele>1786</ele>
        <time>2010-01-01T03:15:54Z</time>
      </trkpt>
      <trkpt lat="42.80108" lon="1.05705">
        <ele>1782</ele>
        <time>2010-01-01T03:15:59Z</time>
      </trkpt>
      <trkpt lat="42.80113" lon="1.05692">
        <ele>1777</ele>
        <time>2010-01-01T03:16:03Z</time>
      </trkpt>
      <trkpt lat="42.80124" lon="1.05683">
        <ele>1770</ele>
        <time>2010-01-01T03:16:08Z</time>
      </trkpt>
      <trkpt lat="42.80125" lon="1.05681">
        <ele>1769</ele>
        <time>2010-01-01T03:16:09Z</time>
      </trkpt>
      <trkpt lat="42.8013" lon="1.05677">
        <ele>1767</ele>
        <time>2010-01-01T03:16:11Z</time>
      </trkpt>
      <trkpt lat="42.80136" lon="1.05673">
        <ele>1764</ele>
        <time>2010-01-01T03:16:14Z</time>
      </trkpt>
      <trkpt lat="42.80138" lon="1.0567">
        <ele>1763</ele>
        <time>2010-01-01T03:16:15Z</time>
      </trkpt>
      <trkpt lat="42.80144" lon="1.05656">
        <ele>1762</ele>
        <time>2010-01-01T03:16:20Z</time>
      </trkpt>
      <trkpt lat="42.80148" lon="1.05649">
        <ele>1762</ele>
        <time>2010-01-01T03:16:22Z</time>
      </trkpt>
      <trkpt lat="42.80154" lon="1.05643">
        <ele>1763</ele>
        <time>2010-01-01T03:16:25Z</time>
      </trkpt>
      <trkpt lat="42.80158" lon="1.05638">
        <ele>1763</ele>
        <time>2010-01-01T03:16:28Z</time>
      </trkpt>
      <trkpt lat="42.80169" lon="1.05637">
        <ele>1764</ele>
        <time>2010-01-01T03:16:32Z</time>
      </trkpt>
      <trkpt lat="42.80177" lon="1.05635">
        <ele>1760</ele>
        <time>2010-01-01T03:16:35Z</time>
      </trkpt>
      <trkpt lat="42.80182" lon="1.05634">
        <ele>1759</ele>
        <time>2010-01-01T03:16:37Z</time>
      </trkpt>
      <trkpt lat="42.80187" lon="1.05631">
        <ele>1756</ele>
        <time>2010-01-01T03:16:40Z</time>
      </trkpt>
      <trkpt lat="42.80195" lon="1.05632">
        <ele>1754</ele>
        <time>2010-01-01T03:16:43Z</time>
      </trkpt>
      <trkpt lat="42.80199" lon="1.05626">
        <ele>1751</ele>
        <time>2010-01-01T03:16:45Z</time>
      </trkpt>
      <trkpt lat="42.80205" lon="1.05626">
        <ele>1748</ele>
        <time>2010-01-01T03:16:48Z</time>
      </trkpt>
      <trkpt lat="42.80213" lon="1.05627">
        <ele>1744</ele>
        <time>2010-01-01T03:16:51Z</time>
      </trkpt>
      <trkpt lat="42.80225" lon="1.0563">
        <ele>1740</ele>
        <time>2010-01-01T03:16:55Z</time>
      </trkpt>
      <trkpt lat="42.80233" lon="1.05633">
        <ele>1740</ele>
        <time>2010-01-01T03:16:59Z</time>
      </trkpt>
      <trkpt lat="42.80238" lon="1.05636">
        <ele>1741</ele>
        <time>2010-01-01T03:17:01Z</time>
      </trkpt>
      <trkpt lat="42.80251" lon="1.05634">
        <ele>1739</ele>
        <time>2010-01-01T03:17:06Z</time>
      </trkpt>
      <trkpt lat="42.80258" lon="1.05631">
        <ele>1736</ele>
        <time>2010-01-01T03:17:09Z</time>
      </trkpt>
      <trkpt lat="42.8026" lon="1.0563">
        <ele>1736</ele>
        <time>2010-01-01T03:17:10Z</time>
      </trkpt>
      <trkpt lat="42.80274" lon="1.05623">
        <ele>1729</ele>
        <time>2010-01-01T03:17:16Z</time>
      </trkpt>
      <trkpt lat="42.8028" lon="1.05621">
        <ele>1726</ele>
        <time>2010-01-01T03:17:19Z</time>
      </trkpt>
      <trkpt lat="42.8029" lon="1.05616">
        <ele>1724</ele>
        <time>2010-01-01T03:17:23Z</time>
      </trkpt>
      <trkpt lat="42.80294" lon="1.05614">
        <ele>1723</ele>
        <time>2010-01-01T03:17:24Z</time>
      </trkpt>
      <trkpt lat="42.80301" lon="1.0561">
        <ele>1721</ele>
        <time>2010-01-01T03:17:28Z</time>
      </trkpt>
      <trkpt lat="42.80304" lon="1.05607">
        <ele>1720</ele>
        <time>2010-01-01T03:17:29Z</time>
      </trkpt>
      <trkpt lat="42.8031" lon="1.05602">
        <ele>1720</ele>
        <time>2010-01-01T03:17:32Z</time>
      </trkpt>
      <trkpt lat="42.80318" lon="1.05587">
        <ele>1719</ele>
        <time>2010-01-01T03:17:37Z</time>
      </trkpt>
      <trkpt lat="42.80322" lon="1.05586">
        <ele>1719</ele>
        <time>2010-01-01T03:17:39Z</time>
      </trkpt>
      <trkpt lat="42.80329" lon="1.05584">
        <ele>1720</ele>
        <time>2010-01-01T03:17:42Z</time>
      </trkpt>
      <trkpt lat="42.80334" lon="1.05578">
        <ele>1721</ele>
        <time>2010-01-01T03:17:44Z</time>
      </trkpt>
      <trkpt lat="42.80341" lon="1.05575">
        <ele>1721</ele>
        <time>2010-01-01T03:17:47Z</time>
      </trkpt>
      <trkpt lat="42.80348" lon="1.0557">
        <ele>1720</ele>
        <time>2010-01-01T03:17:50Z</time>
      </trkpt>
      <trkpt lat="42.80359" lon="1.05568">
        <ele>1719</ele>
        <time>2010-01-01T03:17:55Z</time>
      </trkpt>
      <trkpt lat="42.80365" lon="1.05566">
        <ele>1718</ele>
        <time>2010-01-01T03:17:57Z</time>
      </trkpt>
      <trkpt lat="42.80368" lon="1.05565">
        <ele>1717</ele>
        <time>2010-01-01T03:17:59Z</time>
      </trkpt>
      <trkpt lat="42.8037" lon="1.05565">
        <ele>1717</ele>
        <time>2010-01-01T03:17:59Z</time>
      </trkpt>
      <trkpt lat="42.80383" lon="1.0556">
        <ele>1713</ele>
        <time>2010-01-01T03:18:05Z</time>
      </trkpt>
      <trkpt lat="42.80388" lon="1.05558">
        <ele>1712</ele>
        <time>2010-01-01T03:18:07Z</time>
      </trkpt>
      <trkpt lat="42.80399" lon="1.05555">
        <ele>1709</ele>
        <time>2010-01-01T03:18:11Z</time>
      </trkpt>
      <trkpt lat="42.80408" lon="1.05552">
        <ele>1708</ele>
        <time>2010-01-01T03:18:15Z</time>
      </trkpt>
      <trkpt lat="42.80413" lon="1.05545">
        <ele>1705</ele>
        <time>2010-01-01T03:18:18Z</time>
      </trkpt>
      <trkpt lat="42.80422" lon="1.05538">
        <ele>1702</ele>
        <time>2010-01-01T03:18:22Z</time>
      </trkpt>
      <trkpt lat="42.80428" lon="1.05527">
        <ele>1699</ele>
        <time>2010-01-01T03:18:26Z</time>
      </trkpt>
      <trkpt lat="42.80433" lon="1.05517">
        <ele>1696</ele>
        <time>2010-01-01T03:18:30Z</time>
      </trkpt>
      <trkpt lat="42.80439" lon="1.05503">
        <ele>1692</ele>
        <time>2010-01-01T03:18:34Z</time>
      </trkpt>
      <trkpt lat="42.8044" lon="1.05499">
        <ele>1690</ele>
        <time>2010-01-01T03:18:36Z</time>
      </trkpt>
      <trkpt lat="42.80442" lon="1.05486">
        <ele>1685</ele>
        <time>2010-01-01T03:18:39Z</time>
      </trkpt>
      <trkpt lat="42.80434" lon="1.05484">
        <ele>1685</ele>
        <time>2010-01-01T03:18:42Z</time>
      </trkpt>
      <trkpt lat="42.80432" lon="1.05482">
        <ele>1684</ele>
        <time>2010-01-01T03:18:44Z</time>
      </trkpt>
      <trkpt lat="42.80426" lon="1.05481">
        <ele>1684</ele>
        <time>2010-01-01T03:18:46Z</time>
      </trkpt>
      <trkpt lat="42.80425" lon="1.05472">
        <ele>1681</ele>
        <time>2010-01-01T03:18:49Z</time>
      </trkpt>
      <trkpt lat="42.80425" lon="1.05471">
        <ele>1681</ele>
        <time>2010-01-01T03:18:49Z</time>
      </trkpt>
      <trkpt lat="42.80427" lon="1.05466">
        <ele>1679</ele>
        <time>2010-01-01T03:18:50Z</time>
      </trkpt>
      <trkpt lat="42.80435" lon="1.05458">
        <ele>1675</ele>
        <time>2010-01-01T03:18:54Z</time>
      </trkpt>
      <trkpt lat="42.80438" lon="1.05453">
        <ele>1672</ele>
        <time>2010-01-01T03:18:57Z</time>
      </trkpt>
      <trkpt lat="42.80449" lon="1.05446">
        <ele>1669</ele>
        <time>2010-01-01T03:19:01Z</time>
      </trkpt>
      <trkpt lat="42.80456" lon="1.05445">
        <ele>1669</ele>
        <time>2010-01-01T03:19:04Z</time>
      </trkpt>
      <trkpt lat="42.80462" lon="1.05441">
        <ele>1668</ele>
        <time>2010-01-01T03:19:07Z</time>
      </trkpt>
      <trkpt lat="42.8047" lon="1.0544">
        <ele>1669</ele>
        <time>2010-01-01T03:19:10Z</time>
      </trkpt>
      <trkpt lat="42.8047" lon="1.05435">
        <ele>1666</ele>
        <time>2010-01-01T03:19:12Z</time>
      </trkpt>
      <trkpt lat="42.80465" lon="1.0543">
        <ele>1663</ele>
        <time>2010-01-01T03:19:14Z</time>
      </trkpt>
      <trkpt lat="42.80464" lon="1.05425">
        <ele>1661</ele>
        <time>2010-01-01T03:19:16Z</time>
      </trkpt>
      <trkpt lat="42.80464" lon="1.05425">
        <ele>1660</ele>
        <time>2010-01-01T03:19:16Z</time>
      </trkpt>
      <trkpt lat="42.80473" lon="1.0542">
        <ele>1658</ele>
        <time>2010-01-01T03:19:19Z</time>
      </trkpt>
      <trkpt lat="42.80473" lon="1.05418">
        <ele>1657</ele>
        <time>2010-01-01T03:19:20Z</time>
      </trkpt>
      <trkpt lat="42.80472" lon="1.05416">
        <ele>1656</ele>
        <time>2010-01-01T03:19:20Z</time>
      </trkpt>
      <trkpt lat="42.80472" lon="1.05411">
        <ele>1654</ele>
        <time>2010-01-01T03:19:22Z</time>
      </trkpt>
      <trkpt lat="42.80479" lon="1.05405">
        <ele>1652</ele>
        <time>2010-01-01T03:19:25Z</time>
      </trkpt>
      <trkpt lat="42.80482" lon="1.05401">
        <ele>1650</ele>
        <time>2010-01-01T03:19:27Z</time>
      </trkpt>
      <trkpt lat="42.80486" lon="1.05396">
        <ele>1649</ele>
        <time>2010-01-01T03:19:29Z</time>
      </trkpt>
      <trkpt lat="42.80489" lon="1.05389">
        <ele>1646</ele>
        <time>2010-01-01T03:19:31Z</time>
      </trkpt>
      <trkpt lat="42.80492" lon="1.05381">
        <ele>1642</ele>
        <time>2010-01-01T03:19:34Z</time>
      </trkpt>
      <trkpt lat="42.80492" lon="1.05376">
        <ele>1639</ele>
        <time>2010-01-01T03:19:35Z</time>
      </trkpt>
      <trkpt lat="42.80495" lon="1.05371">
        <ele>1636</ele>
        <time>2010-01-01T03:19:37Z</time>
      </trkpt>
      <trkpt lat="42.80506" lon="1.05366">
        <ele>1634</ele>
        <time>2010-01-01T03:19:42Z</time>
      </trkpt>
      <trkpt lat="42.80509" lon="1.05363">
        <ele>1632</ele>
        <time>2010-01-01T03:19:44Z</time>
      </trkpt>
      <trkpt lat="42.80518" lon="1.05359">
        <ele>1630</ele>
        <time>2010-01-01T03:19:47Z</time>
      </trkpt>
      <trkpt lat="42.80526" lon="1.05353">
        <ele>1628</ele>
        <time>2010-01-01T03:19:51Z</time>
      </trkpt>
      <trkpt lat="42.80527" lon="1.05346">
        <ele>1624</ele>
        <time>2010-01-01T03:19:53Z</time>
      </trkpt>
      <trkpt lat="42.80523" lon="1.0534">
        <ele>1619</ele>
        <time>2010-01-01T03:19:55Z</time>
      </trkpt>
      <trkpt lat="42.80522" lon="1.05337">
        <ele>1617</ele>
        <time>2010-01-01T03:19:56Z</time>
      </trkpt>
      <trkpt lat="42.8052" lon="1.05334">
        <ele>1615</ele>
        <time>2010-01-01T03:19:57Z</time>
      </trkpt>
      <trkpt lat="42.80512" lon="1.05331">
        <ele>1613</ele>
        <time>2010-01-01T03:20:01Z</time>
      </trkpt>
      <trkpt lat="42.805" lon="1.05328">
        <ele>1612</ele>
        <time>2010-01-01T03:20:05Z</time>
      </trkpt>
      <trkpt lat="42.80492" lon="1.05324">
        <ele>1612</ele>
        <time>2010-01-01T03:20:09Z</time>
      </trkpt>
      <trkpt lat="42.80482" lon="1.0532">
        <ele>1610</ele>
        <time>2010-01-01T03:20:13Z</time>
      </trkpt>
      <trkpt lat="42.80479" lon="1.05321">
        <ele>1611</ele>
        <time>2010-01-01T03:20:14Z</time>
      </trkpt>
      <trkpt lat="42.80478" lon="1.05321">
        <ele>1611</ele>
        <time>2010-01-01T03:20:15Z</time>
      </trkpt>
      <trkpt lat="42.80478" lon="1.0532">
        <ele>1610</ele>
        <time>2010-01-01T03:20:15Z</time>
      </trkpt>
      <trkpt lat="42.80477" lon="1.0532">
        <ele>1611</ele>
        <time>2010-01-01T03:20:16Z</time>
      </trkpt>
      <trkpt lat="42.80471" lon="1.05321">
        <ele>1611</ele>
        <time>2010-01-01T03:20:18Z</time>
      </trkpt>
      <trkpt lat="42.80462" lon="1.05319">
        <ele>1608</ele>
        <time>2010-01-01T03:20:22Z</time>
      </trkpt>
      <trkpt lat="42.80456" lon="1.05313">
        <ele>1604</ele>
        <time>2010-01-01T03:20:25Z</time>
      </trkpt>
      <trkpt lat="42.80457" lon="1.05309">
        <ele>1602</ele>
        <time>2010-01-01T03:20:26Z</time>
      </trkpt>
      <trkpt lat="42.80457" lon="1.05304">
        <ele>1598</ele>
        <time>2010-01-01T03:20:27Z</time>
      </trkpt>
      <trkpt lat="42.8046" lon="1.05299">
        <ele>1595</ele>
        <time>2010-01-01T03:20:29Z</time>
      </trkpt>
      <trkpt lat="42.80458" lon="1.05298">
        <ele>1594</ele>
        <time>2010-01-01T03:20:30Z</time>
      </trkpt>
      <trkpt lat="42.80439" lon="1.05299">
        <ele>1594</ele>
        <time>2010-01-01T03:20:38Z</time>
      </trkpt>
      <trkpt lat="42.8044" lon="1.053">
        <ele>1594</ele>
        <time>2010-01-01T03:20:38Z</time>
      </trkpt>
      <trkpt lat="42.80436" lon="1.05297">
        <ele>1593</ele>
        <time>2010-01-01T03:20:40Z</time>
      </trkpt>
      <trkpt lat="42.8043" lon="1.05302">
        <ele>1596</ele>
        <time>2010-01-01T03:20:43Z</time>
      </trkpt>
      <trkpt lat="42.80418" lon="1.05302">
        <ele>1597</ele>
        <time>2010-01-01T03:20:47Z</time>
      </trkpt>
      <trkpt lat="42.80412" lon="1.05302">
        <ele>1598</ele>
        <time>2010-01-01T03:20:50Z</time>
      </trkpt>
      <trkpt lat="42.80411" lon="1.05302">
        <ele>1598</ele>
        <time>2010-01-01T03:20:50Z</time>
      </trkpt>
      <trkpt lat="42.80417" lon="1.053">
        <ele>1596</ele>
        <time>2010-01-01T03:20:52Z</time>
      </trkpt>
      <trkpt lat="42.80412" lon="1.05296">
        <ele>1594</ele>
        <time>2010-01-01T03:20:55Z</time>
      </trkpt>
      <trkpt lat="42.80416" lon="1.05293">
        <ele>1592</ele>
        <time>2010-01-01T03:20:57Z</time>
      </trkpt>
      <trkpt lat="42.80411" lon="1.05289">
        <ele>1590</ele>
        <time>2010-01-01T03:20:59Z</time>
      </trkpt>
      <trkpt lat="42.80411" lon="1.0528">
        <ele>1585</ele>
        <time>2010-01-01T03:21:02Z</time>
      </trkpt>
      <trkpt lat="42.80414" lon="1.05275">
        <ele>1581</ele>
        <time>2010-01-01T03:21:04Z</time>
      </trkpt>
      <trkpt lat="42.8041" lon="1.05269">
        <ele>1577</ele>
        <time>2010-01-01T03:21:06Z</time>
      </trkpt>
      <trkpt lat="42.80404" lon="1.05261">
        <ele>1570</ele>
        <time>2010-01-01T03:21:10Z</time>
      </trkpt>
      <trkpt lat="42.80407" lon="1.05256">
        <ele>1567</ele>
        <time>2010-01-01T03:21:12Z</time>
      </trkpt>
      <trkpt lat="42.80414" lon="1.05251">
        <ele>1564</ele>
        <time>2010-01-01T03:21:15Z</time>
      </trkpt>
      <trkpt lat="42.80418" lon="1.05243">
        <ele>1559</ele>
        <time>2010-01-01T03:21:18Z</time>
      </trkpt>
      <trkpt lat="42.80412" lon="1.05234">
        <ele>1554</ele>
        <time>2010-01-01T03:21:21Z</time>
      </trkpt>
      <trkpt lat="42.80421" lon="1.05225">
        <ele>1549</ele>
        <time>2010-01-01T03:21:25Z</time>
      </trkpt>
      <trkpt lat="42.80428" lon="1.05224">
        <ele>1548</ele>
        <time>2010-01-01T03:21:28Z</time>
      </trkpt>
      <trkpt lat="42.8043" lon="1.05223">
        <ele>1548</ele>
        <time>2010-01-01T03:21:29Z</time>
      </trkpt>
      <trkpt lat="42.80442" lon="1.0522">
        <ele>1546</ele>
        <time>2010-01-01T03:21:34Z</time>
      </trkpt>
      <trkpt lat="42.80452" lon="1.05215">
        <ele>1545</ele>
        <time>2010-01-01T03:21:39Z</time>
      </trkpt>
      <trkpt lat="42.80459" lon="1.05205">
        <ele>1543</ele>
        <time>2010-01-01T03:21:42Z</time>
      </trkpt>
      <trkpt lat="42.8046" lon="1.05203">
        <ele>1543</ele>
        <time>2010-01-01T03:21:43Z</time>
      </trkpt>
      <trkpt lat="42.80472" lon="1.05196">
        <ele>1542</ele>
        <time>2010-01-01T03:21:48Z</time>
      </trkpt>
      <trkpt lat="42.80477" lon="1.05196">
        <ele>1542</ele>
        <time>2010-01-01T03:21:50Z</time>
      </trkpt>
      <trkpt lat="42.80479" lon="1.05191">
        <ele>1541</ele>
        <time>2010-01-01T03:21:52Z</time>
      </trkpt>
      <trkpt lat="42.80484" lon="1.05192">
        <ele>1542</ele>
        <time>2010-01-01T03:21:54Z</time>
      </trkpt>
      <trkpt lat="42.80485" lon="1.05193">
        <ele>1542</ele>
        <time>2010-01-01T03:21:55Z</time>
      </trkpt>
      <trkpt lat="42.80489" lon="1.05195">
        <ele>1543</ele>
        <time>2010-01-01T03:21:56Z</time>
      </trkpt>
      <trkpt lat="42.80488" lon="1.05195">
        <ele>1543</ele>
        <time>2010-01-01T03:21:57Z</time>
      </trkpt>
      <trkpt lat="42.80491" lon="1.05193">
        <ele>1543</ele>
        <time>2010-01-01T03:21:58Z</time>
      </trkpt>
      <trkpt lat="42.805" lon="1.05182">
        <ele>1540</ele>
        <time>2010-01-01T03:22:03Z</time>
      </trkpt>
      <trkpt lat="42.80502" lon="1.05179">
        <ele>1540</ele>
        <time>2010-01-01T03:22:04Z</time>
      </trkpt>
      <trkpt lat="42.80503" lon="1.05174">
        <ele>1538</ele>
        <time>2010-01-01T03:22:05Z</time>
      </trkpt>
      <trkpt lat="42.80507" lon="1.05166">
        <ele>1536</ele>
        <time>2010-01-01T03:22:08Z</time>
      </trkpt>
      <trkpt lat="42.80509" lon="1.05162">
        <ele>1535</ele>
        <time>2010-01-01T03:22:09Z</time>
      </trkpt>
      <trkpt lat="42.80514" lon="1.05158">
        <ele>1533</ele>
        <time>2010-01-01T03:22:12Z</time>
      </trkpt>
      <trkpt lat="42.80529" lon="1.05154">
        <ele>1533</ele>
        <time>2010-01-01T03:22:18Z</time>
      </trkpt>
      <trkpt lat="42.80538" lon="1.05149">
        <ele>1530</ele>
        <time>2010-01-01T03:22:22Z</time>
      </trkpt>
      <trkpt lat="42.80546" lon="1.05146">
        <ele>1527</ele>
        <time>2010-01-01T03:22:25Z</time>
      </trkpt>
      <trkpt lat="42.80555" lon="1.05138">
        <ele>1523</ele>
        <time>2010-01-01T03:22:29Z</time>
      </trkpt>
      <trkpt lat="42.80563" lon="1.05133">
        <ele>1519</ele>
        <time>2010-01-01T03:22:33Z</time>
      </trkpt>
      <trkpt lat="42.80571" lon="1.05126">
        <ele>1515</ele>
        <time>2010-01-01T03:22:37Z</time>
      </trkpt>
      <trkpt lat="42.80578" lon="1.05123">
        <ele>1513</ele>
        <time>2010-01-01T03:22:40Z</time>
      </trkpt>
      <trkpt lat="42.80586" lon="1.0512">
        <ele>1510</ele>
        <time>2010-01-01T03:22:43Z</time>
      </trkpt>
      <trkpt lat="42.80589" lon="1.05117">
        <ele>1509</ele>
        <time>2010-01-01T03:22:44Z</time>
      </trkpt>
      <trkpt lat="42.80592" lon="1.05116">
        <ele>1508</ele>
        <time>2010-01-01T03:22:46Z</time>
      </trkpt>
      <trkpt lat="42.80594" lon="1.05121">
        <ele>1507</ele>
        <time>2010-01-01T03:22:48Z</time>
      </trkpt>
      <trkpt lat="42.80598" lon="1.05126">
        <ele>1506</ele>
        <time>2010-01-01T03:22:50Z</time>
      </trkpt>
      <trkpt lat="42.80602" lon="1.0512">
        <ele>1505</ele>
        <time>2010-01-01T03:22:52Z</time>
      </trkpt>
      <trkpt lat="42.80605" lon="1.05119">
        <ele>1504</ele>
        <time>2010-01-01T03:22:53Z</time>
      </trkpt>
      <trkpt lat="42.8061" lon="1.0511">
        <ele>1502</ele>
        <time>2010-01-01T03:22:56Z</time>
      </trkpt>
      <trkpt lat="42.80615" lon="1.05103">
        <ele>1498</ele>
        <time>2010-01-01T03:22:59Z</time>
      </trkpt>
      <trkpt lat="42.80616" lon="1.05098">
        <ele>1497</ele>
        <time>2010-01-01T03:23:01Z</time>
      </trkpt>
      <trkpt lat="42.80622" lon="1.05094">
        <ele>1493</ele>
        <time>2010-01-01T03:23:03Z</time>
      </trkpt>
      <trkpt lat="42.80623" lon="1.05097">
        <ele>1492</ele>
        <time>2010-01-01T03:23:05Z</time>
      </trkpt>
      <trkpt lat="42.80624" lon="1.051">
        <ele>1492</ele>
        <time>2010-01-01T03:23:05Z</time>
      </trkpt>
      <trkpt lat="42.80623" lon="1.05105">
        <ele>1494</ele>
        <time>2010-01-01T03:23:07Z</time>
      </trkpt>
      <trkpt lat="42.80623" lon="1.0511">
        <ele>1494</ele>
        <time>2010-01-01T03:23:08Z</time>
      </trkpt>
      <trkpt lat="42.80633" lon="1.05112">
        <ele>1489</ele>
        <time>2010-01-01T03:23:12Z</time>
      </trkpt>
      <trkpt lat="42.80637" lon="1.05112">
        <ele>1487</ele>
        <time>2010-01-01T03:23:14Z</time>
      </trkpt>
      <trkpt lat="42.80637" lon="1.05108">
        <ele>1486</ele>
        <time>2010-01-01T03:23:15Z</time>
      </trkpt>
      <trkpt lat="42.80639" lon="1.05111">
        <ele>1485</ele>
        <time>2010-01-01T03:23:17Z</time>
      </trkpt>
      <trkpt lat="42.80642" lon="1.05121">
        <ele>1486</ele>
        <time>2010-01-01T03:23:20Z</time>
      </trkpt>
      <trkpt lat="42.80653" lon="1.05132">
        <ele>1481</ele>
        <time>2010-01-01T03:23:25Z</time>
      </trkpt>
      <trkpt lat="42.80655" lon="1.05134">
        <ele>1480</ele>
        <time>2010-01-01T03:23:26Z</time>
      </trkpt>
      <trkpt lat="42.80664" lon="1.05142">
        <ele>1477</ele>
        <time>2010-01-01T03:23:30Z</time>
      </trkpt>
      <trkpt lat="42.80669" lon="1.05147">
        <ele>1476</ele>
        <time>2010-01-01T03:23:33Z</time>
      </trkpt>
      <trkpt lat="42.80671" lon="1.05149">
        <ele>1476</ele>
        <time>2010-01-01T03:23:34Z</time>
      </trkpt>
      <trkpt lat="42.80683" lon="1.05161">
        <ele>1480</ele>
        <time>2010-01-01T03:23:40Z</time>
      </trkpt>
      <trkpt lat="42.80693" lon="1.05168">
        <ele>1487</ele>
        <time>2010-01-01T03:23:44Z</time>
      </trkpt>
      <trkpt lat="42.80694" lon="1.05169">
        <ele>1488</ele>
        <time>2010-01-01T03:23:45Z</time>
      </trkpt>
      <trkpt lat="42.80702" lon="1.05175">
        <ele>1493</ele>
        <time>2010-01-01T03:23:48Z</time>
      </trkpt>
      <trkpt lat="42.80706" lon="1.05174">
        <ele>1490</ele>
        <time>2010-01-01T03:23:50Z</time>
      </trkpt>
      <trkpt lat="42.80707" lon="1.05172">
        <ele>1488</ele>
        <time>2010-01-01T03:23:51Z</time>
      </trkpt>
      <trkpt lat="42.80703" lon="1.05166">
        <ele>1481</ele>
        <time>2010-01-01T03:23:53Z</time>
      </trkpt>
      <trkpt lat="42.80702" lon="1.05161">
        <ele>1471</ele>
        <time>2010-01-01T03:23:55Z</time>
      </trkpt>
      <trkpt lat="42.80702" lon="1.05153">
        <ele>1456</ele>
        <time>2010-01-01T03:23:57Z</time>
      </trkpt>
      <trkpt lat="42.80705" lon="1.05159">
        <ele>1466</ele>
        <time>2010-01-01T03:23:59Z</time>
      </trkpt>
      <trkpt lat="42.80709" lon="1.05161">
        <ele>1468</ele>
        <time>2010-01-01T03:24:01Z</time>
      </trkpt>
      <trkpt lat="42.80716" lon="1.05158">
        <ele>1459</ele>
        <time>2010-01-01T03:24:03Z</time>
      </trkpt>
      <trkpt lat="42.8072" lon="1.05156">
        <ele>1454</ele>
        <time>2010-01-01T03:24:05Z</time>
      </trkpt>
      <trkpt lat="42.80722" lon="1.05153">
        <ele>1447</ele>
        <time>2010-01-01T03:24:06Z</time>
      </trkpt>
      <trkpt lat="42.8072" lon="1.05152">
        <ele>1447</ele>
        <time>2010-01-01T03:24:07Z</time>
      </trkpt>
      <trkpt lat="42.80721" lon="1.05148">
        <ele>1439</ele>
        <time>2010-01-01T03:24:08Z</time>
      </trkpt>
      <trkpt lat="42.80717" lon="1.05142">
        <ele>1431</ele>
        <time>2010-01-01T03:24:10Z</time>
      </trkpt>
      <trkpt lat="42.80722" lon="1.05142">
        <ele>1428</ele>
        <time>2010-01-01T03:24:13Z</time>
      </trkpt>
      <trkpt lat="42.80727" lon="1.05147">
        <ele>1433</ele>
        <time>2010-01-01T03:24:15Z</time>
      </trkpt>
      <trkpt lat="42.80732" lon="1.05147">
        <ele>1431</ele>
        <time>2010-01-01T03:24:17Z</time>
      </trkpt>
      <trkpt lat="42.80746" lon="1.05151">
        <ele>1426</ele>
        <time>2010-01-01T03:24:23Z</time>
      </trkpt>
      <trkpt lat="42.80755" lon="1.05152">
        <ele>1426</ele>
        <time>2010-01-01T03:24:26Z</time>
      </trkpt>
      <trkpt lat="42.80763" lon="1.05151">
        <ele>1424</ele>
        <time>2010-01-01T03:24:30Z</time>
      </trkpt>
      <trkpt lat="42.80769" lon="1.0515">
        <ele>1423</ele>
        <time>2010-01-01T03:24:32Z</time>
      </trkpt>
      <trkpt lat="42.80769" lon="1.05156">
        <ele>1433</ele>
        <time>2010-01-01T03:24:34Z</time>
      </trkpt>
      <trkpt lat="42.8077" lon="1.05156">
        <ele>1433</ele>
        <time>2010-01-01T03:24:34Z</time>
      </trkpt>
      <trkpt lat="42.80772" lon="1.05159">
        <ele>1437</ele>
        <time>2010-01-01T03:24:35Z</time>
      </trkpt>
      <trkpt lat="42.80773" lon="1.05161">
        <ele>1441</ele>
        <time>2010-01-01T03:24:36Z</time>
      </trkpt>
      <trkpt lat="42.80772" lon="1.05159">
        <ele>1438</ele>
        <time>2010-01-01T03:24:37Z</time>
      </trkpt>
      <trkpt lat="42.80772" lon="1.05159">
        <ele>1438</ele>
        <time>2010-01-01T03:24:37Z</time>
      </trkpt>
      <trkpt lat="42.80772" lon="1.05159">
        <ele>1437</ele>
        <time>2010-01-01T03:24:37Z</time>
      </trkpt>
      <trkpt lat="42.80775" lon="1.0515">
        <ele>1423</ele>
        <time>2010-01-01T03:24:40Z</time>
      </trkpt>
      <trkpt lat="42.80777" lon="1.05146">
        <ele>1415</ele>
        <time>2010-01-01T03:24:42Z</time>
      </trkpt>
      <trkpt lat="42.80783" lon="1.05135">
        <ele>1403</ele>
        <time>2010-01-01T03:24:46Z</time>
      </trkpt>
      <trkpt lat="42.80789" lon="1.05128">
        <ele>1403</ele>
        <time>2010-01-01T03:24:49Z</time>
      </trkpt>
      <trkpt lat="42.80792" lon="1.05122">
        <ele>1401</ele>
        <time>2010-01-01T03:24:51Z</time>
      </trkpt>
      <trkpt lat="42.80788" lon="1.05118">
        <ele>1401</ele>
        <time>2010-01-01T03:24:53Z</time>
      </trkpt>
      <trkpt lat="42.80787" lon="1.05117">
        <ele>1401</ele>
        <time>2010-01-01T03:24:53Z</time>
      </trkpt>
      <trkpt lat="42.80777" lon="1.05106">
        <ele>1400</ele>
        <time>2010-01-01T03:24:58Z</time>
      </trkpt>
      <trkpt lat="42.8077" lon="1.05099">
        <ele>1399</ele>
        <time>2010-01-01T03:25:02Z</time>
      </trkpt>
      <trkpt lat="42.80768" lon="1.05097">
        <ele>1399</ele>
        <time>2010-01-01T03:25:03Z</time>
      </trkpt>
      <trkpt lat="42.80765" lon="1.05092">
        <ele>1398</ele>
        <time>2010-01-01T03:25:05Z</time>
      </trkpt>
      <trkpt lat="42.80759" lon="1.05081">
        <ele>1396</ele>
        <time>2010-01-01T03:25:09Z</time>
      </trkpt>
      <trkpt lat="42.8076" lon="1.0508">
        <ele>1396</ele>
        <time>2010-01-01T03:25:09Z</time>
      </trkpt>
      <trkpt lat="42.80771" lon="1.05081">
        <ele>1394</ele>
        <time>2010-01-01T03:25:14Z</time>
      </trkpt>
      <trkpt lat="42.80782" lon="1.05077">
        <ele>1390</ele>
        <time>2010-01-01T03:25:18Z</time>
      </trkpt>
      <trkpt lat="42.8079" lon="1.05073">
        <ele>1386</ele>
        <time>2010-01-01T03:25:22Z</time>
      </trkpt>
      <trkpt lat="42.80797" lon="1.05068">
        <ele>1382</ele>
        <time>2010-01-01T03:25:25Z</time>
      </trkpt>
      <trkpt lat="42.80799" lon="1.05065">
        <ele>1380</ele>
        <time>2010-01-01T03:25:26Z</time>
      </trkpt>
      <trkpt lat="42.80804" lon="1.0506">
        <ele>1377</ele>
        <time>2010-01-01T03:25:29Z</time>
      </trkpt>
      <trkpt lat="42.80815" lon="1.05059">
        <ele>1375</ele>
        <time>2010-01-01T03:25:33Z</time>
      </trkpt>
      <trkpt lat="42.80825" lon="1.05056">
        <ele>1374</ele>
        <time>2010-01-01T03:25:37Z</time>
      </trkpt>
      <trkpt lat="42.8082" lon="1.05049">
        <ele>1371</ele>
        <time>2010-01-01T03:25:40Z</time>
      </trkpt>
      <trkpt lat="42.80806" lon="1.05042">
        <ele>1368</ele>
        <time>2010-01-01T03:25:46Z</time>
      </trkpt>
      <trkpt lat="42.80802" lon="1.05038">
        <ele>1367</ele>
        <time>2010-01-01T03:25:48Z</time>
      </trkpt>
      <trkpt lat="42.80799" lon="1.05036">
        <ele>1366</ele>
        <time>2010-01-01T03:25:49Z</time>
      </trkpt>
      <trkpt lat="42.80798" lon="1.05033">
        <ele>1365</ele>
        <time>2010-01-01T03:25:50Z</time>
      </trkpt>
      <trkpt lat="42.8079" lon="1.05023">
        <ele>1361</ele>
        <time>2010-01-01T03:25:54Z</time>
      </trkpt>
      <trkpt lat="42.80786" lon="1.0501">
        <ele>1356</ele>
        <time>2010-01-01T03:25:58Z</time>
      </trkpt>
      <trkpt lat="42.80782" lon="1.04996">
        <ele>1351</ele>
        <time>2010-01-01T03:26:03Z</time>
      </trkpt>
      <trkpt lat="42.80778" lon="1.04992">
        <ele>1350</ele>
        <time>2010-01-01T03:26:05Z</time>
      </trkpt>
      <trkpt lat="42.80775" lon="1.04987">
        <ele>1351</ele>
        <time>2010-01-01T03:26:06Z</time>
      </trkpt>
      <trkpt lat="42.80765" lon="1.04977">
        <ele>1355</ele>
        <time>2010-01-01T03:26:12Z</time>
      </trkpt>
      <trkpt lat="42.8076" lon="1.04971">
        <ele>1356</ele>
        <time>2010-01-01T03:26:14Z</time>
      </trkpt>
      <trkpt lat="42.8076" lon="1.0497">
        <ele>1356</ele>
        <time>2010-01-01T03:26:15Z</time>
      </trkpt>
      <trkpt lat="42.8076" lon="1.04972">
        <ele>1356</ele>
        <time>2010-01-01T03:26:15Z</time>
      </trkpt>
      <trkpt lat="42.80761" lon="1.04971">
        <ele>1356</ele>
        <time>2010-01-01T03:26:16Z</time>
      </trkpt>
      <trkpt lat="42.80764" lon="1.04962">
        <ele>1354</ele>
        <time>2010-01-01T03:26:19Z</time>
      </trkpt>
      <trkpt lat="42.80765" lon="1.04958">
        <ele>1353</ele>
        <time>2010-01-01T03:26:20Z</time>
      </trkpt>
      <trkpt lat="42.80764" lon="1.04951">
        <ele>1353</ele>
        <time>2010-01-01T03:26:22Z</time>
      </trkpt>
      <trkpt lat="42.80762" lon="1.04947">
        <ele>1354</ele>
        <time>2010-01-01T03:26:23Z</time>
      </trkpt>
      <trkpt lat="42.80763" lon="1.04947">
        <ele>1353</ele>
        <time>2010-01-01T03:26:24Z</time>
      </trkpt>
      <trkpt lat="42.80766" lon="1.04946">
        <ele>1352</ele>
        <time>2010-01-01T03:26:25Z</time>
      </trkpt>
      <trkpt lat="42.80763" lon="1.04941">
        <ele>1354</ele>
        <time>2010-01-01T03:26:27Z</time>
      </trkpt>
      <trkpt lat="42.80765" lon="1.04943">
        <ele>1353</ele>
        <time>2010-01-01T03:26:28Z</time>
      </trkpt>
      <trkpt lat="42.80763" lon="1.04945">
        <ele>1353</ele>
        <time>2010-01-01T03:26:29Z</time>
      </trkpt>
      <trkpt lat="42.80763" lon="1.04944">
        <ele>1353</ele>
        <time>2010-01-01T03:26:29Z</time>
      </trkpt>
      <trkpt lat="42.80762" lon="1.04943">
        <ele>1354</ele>
        <time>2010-01-01T03:26:30Z</time>
      </trkpt>
      <trkpt lat="42.80761" lon="1.04941">
        <ele>1354</ele>
        <time>2010-01-01T03:26:30Z</time>
      </trkpt>
      <trkpt lat="42.80763" lon="1.04942">
        <ele>1353</ele>
        <time>2010-01-01T03:26:31Z</time>
      </trkpt>
      <trkpt lat="42.80763" lon="1.04938">
        <ele>1354</ele>
        <time>2010-01-01T03:26:33Z</time>
      </trkpt>
      <trkpt lat="42.8076" lon="1.04945">
        <ele>1355</ele>
        <time>2010-01-01T03:26:35Z</time>
      </trkpt>
      <trkpt lat="42.8076" lon="1.0494">
        <ele>1355</ele>
        <time>2010-01-01T03:26:37Z</time>
      </trkpt>
      <trkpt lat="42.8076" lon="1.04946">
        <ele>1354</ele>
        <time>2010-01-01T03:26:38Z</time>
      </trkpt>
      <trkpt lat="42.80762" lon="1.04947">
        <ele>1354</ele>
        <time>2010-01-01T03:26:39Z</time>
      </trkpt>
      <trkpt lat="42.80762" lon="1.04946">
        <ele>1354</ele>
        <time>2010-01-01T03:26:40Z</time>
      </trkpt>
      <trkpt lat="42.80765" lon="1.04951">
        <ele>1353</ele>
        <time>2010-01-01T03:26:42Z</time>
      </trkpt>
      <trkpt lat="42.80769" lon="1.04952">
        <ele>1351</ele>
        <time>2010-01-01T03:26:44Z</time>
      </trkpt>
      <trkpt lat="42.80774" lon="1.04951">
        <ele>1350</ele>
        <time>2010-01-01T03:26:45Z</time>
      </trkpt>
      <trkpt lat="42.80782" lon="1.04942">
        <ele>1348</ele>
        <time>2010-01-01T03:26:50Z</time>
      </trkpt>
      <trkpt lat="42.80782" lon="1.04938">
        <ele>1349</ele>
        <time>2010-01-01T03:26:51Z</time>
      </trkpt>
      <trkpt lat="42.80785" lon="1.04939">
        <ele>1348</ele>
        <time>2010-01-01T03:26:52Z</time>
      </trkpt>
      <trkpt lat="42.80797" lon="1.0493">
        <ele>1347</ele>
        <time>2010-01-01T03:26:57Z</time>
      </trkpt>
      <trkpt lat="42.80807" lon="1.04925">
        <ele>1346</ele>
        <time>2010-01-01T03:27:02Z</time>
      </trkpt>
      <trkpt lat="42.80811" lon="1.04923">
        <ele>1345</ele>
        <time>2010-01-01T03:27:03Z</time>
      </trkpt>
      <trkpt lat="42.80815" lon="1.04921">
        <ele>1344</ele>
        <time>2010-01-01T03:27:05Z</time>
      </trkpt>
      <trkpt lat="42.80817" lon="1.04902">
        <ele>1346</ele>
        <time>2010-01-01T03:27:11Z</time>
      </trkpt>
      <trkpt lat="42.80822" lon="1.04902">
        <ele>1345</ele>
        <time>2010-01-01T03:27:13Z</time>
      </trkpt>
      <trkpt lat="42.80829" lon="1.04899">
        <ele>1343</ele>
        <time>2010-01-01T03:27:16Z</time>
      </trkpt>
      <trkpt lat="42.8083" lon="1.04899">
        <ele>1343</ele>
        <time>2010-01-01T03:27:16Z</time>
      </trkpt>
      <trkpt lat="42.80835" lon="1.04899">
        <ele>1341</ele>
        <time>2010-01-01T03:27:18Z</time>
      </trkpt>
      <trkpt lat="42.80845" lon="1.04893">
        <ele>1337</ele>
        <time>2010-01-01T03:27:23Z</time>
      </trkpt>
      <trkpt lat="42.80846" lon="1.04897">
        <ele>1336</ele>
        <time>2010-01-01T03:27:24Z</time>
      </trkpt>
      <trkpt lat="42.80851" lon="1.04897">
        <ele>1334</ele>
        <time>2010-01-01T03:27:26Z</time>
      </trkpt>
      <trkpt lat="42.80861" lon="1.04895">
        <ele>1329</ele>
        <time>2010-01-01T03:27:30Z</time>
      </trkpt>
      <trkpt lat="42.80862" lon="1.04894">
        <ele>1329</ele>
        <time>2010-01-01T03:27:30Z</time>
      </trkpt>
      <trkpt lat="42.80869" lon="1.04891">
        <ele>1327</ele>
        <time>2010-01-01T03:27:33Z</time>
      </trkpt>
      <trkpt lat="42.80876" lon="1.04885">
        <ele>1326</ele>
        <time>2010-01-01T03:27:37Z</time>
      </trkpt>
      <trkpt lat="42.80883" lon="1.04885">
        <ele>1324</ele>
        <time>2010-01-01T03:27:39Z</time>
      </trkpt>
      <trkpt lat="42.80885" lon="1.04884">
        <ele>1324</ele>
        <time>2010-01-01T03:27:40Z</time>
      </trkpt>
      <trkpt lat="42.80887" lon="1.04882">
        <ele>1323</ele>
        <time>2010-01-01T03:27:41Z</time>
      </trkpt>
      <trkpt lat="42.80901" lon="1.0487">
        <ele>1321</ele>
        <time>2010-01-01T03:27:48Z</time>
      </trkpt>
      <trkpt lat="42.80914" lon="1.04865">
        <ele>1317</ele>
        <time>2010-01-01T03:27:53Z</time>
      </trkpt>
      <trkpt lat="42.80922" lon="1.04857">
        <ele>1315</ele>
        <time>2010-01-01T03:27:57Z</time>
      </trkpt>
      <trkpt lat="42.80929" lon="1.04849">
        <ele>1314</ele>
        <time>2010-01-01T03:28:01Z</time>
      </trkpt>
      <trkpt lat="42.80944" lon="1.0484">
        <ele>1310</ele>
        <time>2010-01-01T03:28:07Z</time>
      </trkpt>
      <trkpt lat="42.80957" lon="1.04833">
        <ele>1304</ele>
        <time>2010-01-01T03:28:13Z</time>
      </trkpt>
      <trkpt lat="42.80968" lon="1.04836">
        <ele>1299</ele>
        <time>2010-01-01T03:28:17Z</time>
      </trkpt>
      <trkpt lat="42.80976" lon="1.04834">
        <ele>1296</ele>
        <time>2010-01-01T03:28:21Z</time>
      </trkpt>
      <trkpt lat="42.80981" lon="1.04821">
        <ele>1297</ele>
        <time>2010-01-01T03:28:25Z</time>
      </trkpt>
      <trkpt lat="42.80985" lon="1.04816">
        <ele>1297</ele>
        <time>2010-01-01T03:28:27Z</time>
      </trkpt>
      <trkpt lat="42.80994" lon="1.04804">
        <ele>1294</ele>
        <time>2010-01-01T03:28:32Z</time>
      </trkpt>
      <trkpt lat="42.81" lon="1.04796">
        <ele>1293</ele>
        <time>2010-01-01T03:28:36Z</time>
      </trkpt>
      <trkpt lat="42.81006" lon="1.0479">
        <ele>1292</ele>
        <time>2010-01-01T03:28:39Z</time>
      </trkpt>
      <trkpt lat="42.81007" lon="1.0478">
        <ele>1292</ele>
        <time>2010-01-01T03:28:42Z</time>
      </trkpt>
      <trkpt lat="42.8101" lon="1.04775">
        <ele>1292</ele>
        <time>2010-01-01T03:28:44Z</time>
      </trkpt>
      <trkpt lat="42.81012" lon="1.0477">
        <ele>1292</ele>
        <time>2010-01-01T03:28:45Z</time>
      </trkpt>
      <trkpt lat="42.81025" lon="1.04758">
        <ele>1290</ele>
        <time>2010-01-01T03:28:52Z</time>
      </trkpt>
      <trkpt lat="42.81033" lon="1.04751">
        <ele>1288</ele>
        <time>2010-01-01T03:28:55Z</time>
      </trkpt>
      <trkpt lat="42.81038" lon="1.04748">
        <ele>1286</ele>
        <time>2010-01-01T03:28:58Z</time>
      </trkpt>
      <trkpt lat="42.81049" lon="1.04747">
        <ele>1282</ele>
        <time>2010-01-01T03:29:02Z</time>
      </trkpt>
      <trkpt lat="42.81062" lon="1.04746">
        <ele>1278</ele>
        <time>2010-01-01T03:29:07Z</time>
      </trkpt>
      <trkpt lat="42.81075" lon="1.04739">
        <ele>1275</ele>
        <time>2010-01-01T03:29:13Z</time>
      </trkpt>
      <trkpt lat="42.81086" lon="1.04743">
        <ele>1271</ele>
        <time>2010-01-01T03:29:17Z</time>
      </trkpt>
      <trkpt lat="42.81084" lon="1.04741">
        <ele>1272</ele>
        <time>2010-01-01T03:29:18Z</time>
      </trkpt>
      <trkpt lat="42.81081" lon="1.04744">
        <ele>1273</ele>
        <time>2010-01-01T03:29:20Z</time>
      </trkpt>
      <trkpt lat="42.81089" lon="1.04731">
        <ele>1271</ele>
        <time>2010-01-01T03:29:25Z</time>
      </trkpt>
      <trkpt lat="42.811" lon="1.04727">
        <ele>1268</ele>
        <time>2010-01-01T03:29:29Z</time>
      </trkpt>
      <trkpt lat="42.81101" lon="1.04725">
        <ele>1268</ele>
        <time>2010-01-01T03:29:30Z</time>
      </trkpt>
      <trkpt lat="42.8111" lon="1.04714">
        <ele>1267</ele>
        <time>2010-01-01T03:29:35Z</time>
      </trkpt>
      <trkpt lat="42.81111" lon="1.04714">
        <ele>1267</ele>
        <time>2010-01-01T03:29:35Z</time>
      </trkpt>
      <trkpt lat="42.81118" lon="1.04702">
        <ele>1264</ele>
        <time>2010-01-01T03:29:40Z</time>
      </trkpt>
      <trkpt lat="42.81124" lon="1.04696">
        <ele>1261</ele>
        <time>2010-01-01T03:29:43Z</time>
      </trkpt>
      <trkpt lat="42.81132" lon="1.04691">
        <ele>1257</ele>
        <time>2010-01-01T03:29:46Z</time>
      </trkpt>
      <trkpt lat="42.81139" lon="1.04683">
        <ele>1253</ele>
        <time>2010-01-01T03:29:50Z</time>
      </trkpt>
      <trkpt lat="42.81137" lon="1.04676">
        <ele>1254</ele>
        <time>2010-01-01T03:29:52Z</time>
      </trkpt>
      <trkpt lat="42.81144" lon="1.04677">
        <ele>1251</ele>
        <time>2010-01-01T03:29:54Z</time>
      </trkpt>
      <trkpt lat="42.81146" lon="1.04668">
        <ele>1249</ele>
        <time>2010-01-01T03:29:57Z</time>
      </trkpt>
      <trkpt lat="42.81152" lon="1.04676">
        <ele>1246</ele>
        <time>2010-01-01T03:30:00Z</time>
      </trkpt>
      <trkpt lat="42.8116" lon="1.04676">
        <ele>1242</ele>
        <time>2010-01-01T03:30:04Z</time>
      </trkpt>
      <trkpt lat="42.81162" lon="1.04675">
        <ele>1241</ele>
        <time>2010-01-01T03:30:05Z</time>
      </trkpt>
      <trkpt lat="42.81171" lon="1.04678">
        <ele>1239</ele>
        <time>2010-01-01T03:30:09Z</time>
      </trkpt>
      <trkpt lat="42.81173" lon="1.04666">
        <ele>1237</ele>
        <time>2010-01-01T03:30:12Z</time>
      </trkpt>
      <trkpt lat="42.81177" lon="1.04657">
        <ele>1236</ele>
        <time>2010-01-01T03:30:15Z</time>
      </trkpt>
      <trkpt lat="42.81177" lon="1.04647">
        <ele>1236</ele>
        <time>2010-01-01T03:30:18Z</time>
      </trkpt>
      <trkpt lat="42.81172" lon="1.04641">
        <ele>1238</ele>
        <time>2010-01-01T03:30:21Z</time>
      </trkpt>
      <trkpt lat="42.81181" lon="1.04642">
        <ele>1234</ele>
        <time>2010-01-01T03:30:25Z</time>
      </trkpt>
      <trkpt lat="42.81181" lon="1.04637">
        <ele>1235</ele>
        <time>2010-01-01T03:30:26Z</time>
      </trkpt>
      <trkpt lat="42.81182" lon="1.04624">
        <ele>1236</ele>
        <time>2010-01-01T03:30:30Z</time>
      </trkpt>
      <trkpt lat="42.81181" lon="1.04608">
        <ele>1238</ele>
        <time>2010-01-01T03:30:35Z</time>
      </trkpt>
      <trkpt lat="42.81197" lon="1.04601">
        <ele>1231</ele>
        <time>2010-01-01T03:30:41Z</time>
      </trkpt>
      <trkpt lat="42.81204" lon="1.04596">
        <ele>1229</ele>
        <time>2010-01-01T03:30:44Z</time>
      </trkpt>
      <trkpt lat="42.81217" lon="1.04589">
        <ele>1225</ele>
        <time>2010-01-01T03:30:50Z</time>
      </trkpt>
      <trkpt lat="42.81226" lon="1.04584">
        <ele>1221</ele>
        <time>2010-01-01T03:30:54Z</time>
      </trkpt>
      <trkpt lat="42.81229" lon="1.04583">
        <ele>1220</ele>
        <time>2010-01-01T03:30:55Z</time>
      </trkpt>
      <trkpt lat="42.81233" lon="1.04571">
        <ele>1219</ele>
        <time>2010-01-01T03:30:59Z</time>
      </trkpt>
      <trkpt lat="42.81239" lon="1.04566">
        <ele>1217</ele>
        <time>2010-01-01T03:31:02Z</time>
      </trkpt>
      <trkpt lat="42.81243" lon="1.04554">
        <ele>1214</ele>
        <time>2010-01-01T03:31:06Z</time>
      </trkpt>
      <trkpt lat="42.8124" lon="1.04545">
        <ele>1217</ele>
        <time>2010-01-01T03:31:08Z</time>
      </trkpt>
      <trkpt lat="42.81243" lon="1.04538">
        <ele>1217</ele>
        <time>2010-01-01T03:31:11Z</time>
      </trkpt>
      <trkpt lat="42.8125" lon="1.04535">
        <ele>1213</ele>
        <time>2010-01-01T03:31:14Z</time>
      </trkpt>
      <trkpt lat="42.81252" lon="1.04534">
        <ele>1213</ele>
        <time>2010-01-01T03:31:15Z</time>
      </trkpt>
      <trkpt lat="42.81255" lon="1.04524">
        <ele>1214</ele>
        <time>2010-01-01T03:31:18Z</time>
      </trkpt>
      <trkpt lat="42.81255" lon="1.04527">
        <ele>1213</ele>
        <time>2010-01-01T03:31:18Z</time>
      </trkpt>
      <trkpt lat="42.81262" lon="1.0453">
        <ele>1210</ele>
        <time>2010-01-01T03:31:21Z</time>
      </trkpt>
      <trkpt lat="42.81265" lon="1.04525">
        <ele>1209</ele>
        <time>2010-01-01T03:31:24Z</time>
      </trkpt>
      <trkpt lat="42.81273" lon="1.04507">
        <ele>1206</ele>
        <time>2010-01-01T03:31:29Z</time>
      </trkpt>
      <trkpt lat="42.81272" lon="1.04494">
        <ele>1209</ele>
        <time>2010-01-01T03:31:33Z</time>
      </trkpt>
      <trkpt lat="42.81284" lon="1.04481">
        <ele>1206</ele>
        <time>2010-01-01T03:31:39Z</time>
      </trkpt>
      <trkpt lat="42.81278" lon="1.04472">
        <ele>1212</ele>
        <time>2010-01-01T03:31:43Z</time>
      </trkpt>
      <trkpt lat="42.8126" lon="1.04455">
        <ele>1227</ele>
        <time>2010-01-01T03:31:52Z</time>
      </trkpt>
      <trkpt lat="42.81277" lon="1.04462">
        <ele>1214</ele>
        <time>2010-01-01T03:31:59Z</time>
      </trkpt>
      <trkpt lat="42.81307" lon="1.04461">
        <ele>1198</ele>
        <time>2010-01-01T03:32:11Z</time>
      </trkpt>
      <trkpt lat="42.81318" lon="1.04461">
        <ele>1195</ele>
        <time>2010-01-01T03:32:15Z</time>
      </trkpt>
      <trkpt lat="42.81327" lon="1.04447">
        <ele>1194</ele>
        <time>2010-01-01T03:32:20Z</time>
      </trkpt>
      <trkpt lat="42.81327" lon="1.04446">
        <ele>1193</ele>
        <time>2010-01-01T03:32:21Z</time>
      </trkpt>
      <trkpt lat="42.81338" lon="1.04432">
        <ele>1192</ele>
        <time>2010-01-01T03:32:27Z</time>
      </trkpt>
      <trkpt lat="42.81346" lon="1.04424">
        <ele>1191</ele>
        <time>2010-01-01T03:32:31Z</time>
      </trkpt>
      <trkpt lat="42.81356" lon="1.04424">
        <ele>1188</ele>
        <time>2010-01-01T03:32:35Z</time>
      </trkpt>
      <trkpt lat="42.81365" lon="1.04418">
        <ele>1187</ele>
        <time>2010-01-01T03:32:39Z</time>
      </trkpt>
      <trkpt lat="42.81376" lon="1.04407">
        <ele>1187</ele>
        <time>2010-01-01T03:32:44Z</time>
      </trkpt>
      <trkpt lat="42.81388" lon="1.04401">
        <ele>1186</ele>
        <time>2010-01-01T03:32:49Z</time>
      </trkpt>
      <trkpt lat="42.81399" lon="1.04389">
        <ele>1185</ele>
        <time>2010-01-01T03:32:55Z</time>
      </trkpt>
      <trkpt lat="42.81402" lon="1.04387">
        <ele>1184</ele>
        <time>2010-01-01T03:32:56Z</time>
      </trkpt>
      <trkpt lat="42.81407" lon="1.04384">
        <ele>1184</ele>
        <time>2010-01-01T03:32:58Z</time>
      </trkpt>
      <trkpt lat="42.81416" lon="1.04365">
        <ele>1182</ele>
        <time>2010-01-01T03:33:05Z</time>
      </trkpt>
      <trkpt lat="42.81431" lon="1.04361">
        <ele>1177</ele>
        <time>2010-01-01T03:33:11Z</time>
      </trkpt>
      <trkpt lat="42.81437" lon="1.04365">
        <ele>1175</ele>
        <time>2010-01-01T03:33:14Z</time>
      </trkpt>
      <trkpt lat="42.81436" lon="1.04376">
        <ele>1177</ele>
        <time>2010-01-01T03:33:17Z</time>
      </trkpt>
      <trkpt lat="42.81443" lon="1.04384">
        <ele>1176</ele>
        <time>2010-01-01T03:33:21Z</time>
      </trkpt>
      <trkpt lat="42.81452" lon="1.04386">
        <ele>1174</ele>
        <time>2010-01-01T03:33:24Z</time>
      </trkpt>
      <trkpt lat="42.81456" lon="1.04398">
        <ele>1175</ele>
        <time>2010-01-01T03:33:28Z</time>
      </trkpt>
      <trkpt lat="42.81459" lon="1.04394">
        <ele>1173</ele>
        <time>2010-01-01T03:33:30Z</time>
      </trkpt>
      <trkpt lat="42.81466" lon="1.04392">
        <ele>1171</ele>
        <time>2010-01-01T03:33:32Z</time>
      </trkpt>
      <trkpt lat="42.81482" lon="1.04392">
        <ele>1167</ele>
        <time>2010-01-01T03:33:39Z</time>
      </trkpt>
      <trkpt lat="42.81489" lon="1.0439">
        <ele>1164</ele>
        <time>2010-01-01T03:33:42Z</time>
      </trkpt>
      <trkpt lat="42.81491" lon="1.04387">
        <ele>1163</ele>
        <time>2010-01-01T03:33:43Z</time>
      </trkpt>
      <trkpt lat="42.81496" lon="1.04384">
        <ele>1161</ele>
        <time>2010-01-01T03:33:45Z</time>
      </trkpt>
      <trkpt lat="42.81504" lon="1.04373">
        <ele>1157</ele>
        <time>2010-01-01T03:33:50Z</time>
      </trkpt>
      <trkpt lat="42.81507" lon="1.04373">
        <ele>1156</ele>
        <time>2010-01-01T03:33:51Z</time>
      </trkpt>
      <trkpt lat="42.81519" lon="1.04365">
        <ele>1152</ele>
        <time>2010-01-01T03:33:56Z</time>
      </trkpt>
      <trkpt lat="42.81525" lon="1.04364">
        <ele>1150</ele>
        <time>2010-01-01T03:33:59Z</time>
      </trkpt>
      <trkpt lat="42.81538" lon="1.04359">
        <ele>1148</ele>
        <time>2010-01-01T03:34:04Z</time>
      </trkpt>
      <trkpt lat="42.81541" lon="1.04354">
        <ele>1148</ele>
        <time>2010-01-01T03:34:06Z</time>
      </trkpt>
      <trkpt lat="42.81549" lon="1.04353">
        <ele>1147</ele>
        <time>2010-01-01T03:34:09Z</time>
      </trkpt>
      <trkpt lat="42.81557" lon="1.04358">
        <ele>1147</ele>
        <time>2010-01-01T03:34:12Z</time>
      </trkpt>
      <trkpt lat="42.81556" lon="1.04357">
        <ele>1147</ele>
        <time>2010-01-01T03:34:13Z</time>
      </trkpt>
      <trkpt lat="42.81556" lon="1.04357">
        <ele>1147</ele>
        <time>2010-01-01T03:34:13Z</time>
      </trkpt>
      <trkpt lat="42.81559" lon="1.04356">
        <ele>1147</ele>
        <time>2010-01-01T03:34:14Z</time>
      </trkpt>
      <trkpt lat="42.81563" lon="1.04358">
        <ele>1147</ele>
        <time>2010-01-01T03:34:16Z</time>
      </trkpt>
      <trkpt lat="42.8157" lon="1.0436">
        <ele>1148</ele>
        <time>2010-01-01T03:34:19Z</time>
      </trkpt>
      <trkpt lat="42.81573" lon="1.0436">
        <ele>1149</ele>
        <time>2010-01-01T03:34:20Z</time>
      </trkpt>
      <trkpt lat="42.81578" lon="1.04355">
        <ele>1149</ele>
        <time>2010-01-01T03:34:23Z</time>
      </trkpt>
      <trkpt lat="42.81579" lon="1.04353">
        <ele>1149</ele>
        <time>2010-01-01T03:34:23Z</time>
      </trkpt>
      <trkpt lat="42.81585" lon="1.04342">
        <ele>1147</ele>
        <time>2010-01-01T03:34:27Z</time>
      </trkpt>
      <trkpt lat="42.81591" lon="1.04327">
        <ele>1145</ele>
        <time>2010-01-01T03:34:32Z</time>
      </trkpt>
      <trkpt lat="42.81602" lon="1.04312">
        <ele>1146</ele>
        <time>2010-01-01T03:34:39Z</time>
      </trkpt>
      <trkpt lat="42.81616" lon="1.04298">
        <ele>1148</ele>
        <time>2010-01-01T03:34:46Z</time>
      </trkpt>
      <trkpt lat="42.81625" lon="1.0429">
        <ele>1150</ele>
        <time>2010-01-01T03:34:50Z</time>
      </trkpt>
      <trkpt lat="42.81637" lon="1.04276">
        <ele>1150</ele>
        <time>2010-01-01T03:34:56Z</time>
      </trkpt>
      <trkpt lat="42.81646" lon="1.04271">
        <ele>1151</ele>
        <time>2010-01-01T03:35:00Z</time>
      </trkpt>
      <trkpt lat="42.81648" lon="1.04268">
        <ele>1150</ele>
        <time>2010-01-01T03:35:01Z</time>
      </trkpt>
      <trkpt lat="42.81654" lon="1.04261">
        <ele>1149</ele>
        <time>2010-01-01T03:35:04Z</time>
      </trkpt>
      <trkpt lat="42.81656" lon="1.04259">
        <ele>1149</ele>
        <time>2010-01-01T03:35:05Z</time>
      </trkpt>
      <trkpt lat="42.81658" lon="1.04239">
        <ele>1144</ele>
        <time>2010-01-01T03:35:12Z</time>
      </trkpt>
      <trkpt lat="42.81677" lon="1.04232">
        <ele>1145</ele>
        <time>2010-01-01T03:35:20Z</time>
      </trkpt>
      <trkpt lat="42.81687" lon="1.04224">
        <ele>1145</ele>
        <time>2010-01-01T03:35:24Z</time>
      </trkpt>
      <trkpt lat="42.81693" lon="1.04218">
        <ele>1145</ele>
        <time>2010-01-01T03:35:27Z</time>
      </trkpt>
      <trkpt lat="42.8171" lon="1.0421">
        <ele>1140</ele>
        <time>2010-01-01T03:35:34Z</time>
      </trkpt>
      <trkpt lat="42.81728" lon="1.04206">
        <ele>1135</ele>
        <time>2010-01-01T03:35:42Z</time>
      </trkpt>
      <trkpt lat="42.81729" lon="1.04204">
        <ele>1134</ele>
        <time>2010-01-01T03:35:42Z</time>
      </trkpt>
      <trkpt lat="42.81731" lon="1.042">
        <ele>1132</ele>
        <time>2010-01-01T03:35:44Z</time>
      </trkpt>
      <trkpt lat="42.81745" lon="1.04205">
        <ele>1129</ele>
        <time>2010-01-01T03:35:50Z</time>
      </trkpt>
      <trkpt lat="42.81751" lon="1.04208">
        <ele>1128</ele>
        <time>2010-01-01T03:35:52Z</time>
      </trkpt>
      <trkpt lat="42.81754" lon="1.04192">
        <ele>1124</ele>
        <time>2010-01-01T03:35:57Z</time>
      </trkpt>
      <trkpt lat="42.81769" lon="1.04192">
        <ele>1122</ele>
        <time>2010-01-01T03:36:03Z</time>
      </trkpt>
      <trkpt lat="42.81773" lon="1.04191">
        <ele>1121</ele>
        <time>2010-01-01T03:36:05Z</time>
      </trkpt>
      <trkpt lat="42.81778" lon="1.04194">
        <ele>1121</ele>
        <time>2010-01-01T03:36:06Z</time>
      </trkpt>
      <trkpt lat="42.81783" lon="1.042">
        <ele>1124</ele>
        <time>2010-01-01T03:36:09Z</time>
      </trkpt>
      <trkpt lat="42.8178" lon="1.04192">
        <ele>1121</ele>
        <time>2010-01-01T03:36:12Z</time>
      </trkpt>
      <trkpt lat="42.81774" lon="1.04175">
        <ele>1118</ele>
        <time>2010-01-01T03:36:17Z</time>
      </trkpt>
      <trkpt lat="42.81764" lon="1.04155">
        <ele>1117</ele>
        <time>2010-01-01T03:36:24Z</time>
      </trkpt>
      <trkpt lat="42.81774" lon="1.04158">
        <ele>1115</ele>
        <time>2010-01-01T03:36:28Z</time>
      </trkpt>
      <trkpt lat="42.81785" lon="1.0416">
        <ele>1113</ele>
        <time>2010-01-01T03:36:33Z</time>
      </trkpt>
      <trkpt lat="42.81788" lon="1.04159">
        <ele>1113</ele>
        <time>2010-01-01T03:36:34Z</time>
      </trkpt>
      <trkpt lat="42.81791" lon="1.04157">
        <ele>1111</ele>
        <time>2010-01-01T03:36:36Z</time>
      </trkpt>
      <trkpt lat="42.81806" lon="1.04154">
        <ele>1107</ele>
        <time>2010-01-01T03:36:42Z</time>
      </trkpt>
      <trkpt lat="42.81815" lon="1.04157">
        <ele>1108</ele>
        <time>2010-01-01T03:36:45Z</time>
      </trkpt>
      <trkpt lat="42.81817" lon="1.04154">
        <ele>1106</ele>
        <time>2010-01-01T03:36:47Z</time>
      </trkpt>
      <trkpt lat="42.81811" lon="1.04139">
        <ele>1100</ele>
        <time>2010-01-01T03:36:52Z</time>
      </trkpt>
      <trkpt lat="42.81815" lon="1.04126">
        <ele>1096</ele>
        <time>2010-01-01T03:36:56Z</time>
      </trkpt>
      <trkpt lat="42.81833" lon="1.04132">
        <ele>1097</ele>
        <time>2010-01-01T03:37:04Z</time>
      </trkpt>
      <trkpt lat="42.81846" lon="1.04128">
        <ele>1093</ele>
        <time>2010-01-01T03:37:09Z</time>
      </trkpt>
      <trkpt lat="42.81857" lon="1.04131">
        <ele>1092</ele>
        <time>2010-01-01T03:37:13Z</time>
      </trkpt>
      <trkpt lat="42.81872" lon="1.04133">
        <ele>1091</ele>
        <time>2010-01-01T03:37:19Z</time>
      </trkpt>
      <trkpt lat="42.81887" lon="1.0412">
        <ele>1082</ele>
        <time>2010-01-01T03:37:26Z</time>
      </trkpt>
      <trkpt lat="42.81897" lon="1.04118">
        <ele>1080</ele>
        <time>2010-01-01T03:37:31Z</time>
      </trkpt>
      <trkpt lat="42.81907" lon="1.04113">
        <ele>1076</ele>
        <time>2010-01-01T03:37:35Z</time>
      </trkpt>
      <trkpt lat="42.81923" lon="1.04117">
        <ele>1078</ele>
        <time>2010-01-01T03:37:41Z</time>
      </trkpt>
      <trkpt lat="42.8192" lon="1.04115">
        <ele>1077</ele>
        <time>2010-01-01T03:37:43Z</time>
      </trkpt>
      <trkpt lat="42.81932" lon="1.04105">
        <ele>1073</ele>
        <time>2010-01-01T03:37:48Z</time>
      </trkpt>
      <trkpt lat="42.81947" lon="1.04093">
        <ele>1071</ele>
        <time>2010-01-01T03:37:55Z</time>
      </trkpt>
      <trkpt lat="42.8196" lon="1.04073">
        <ele>1068</ele>
        <time>2010-01-01T03:38:03Z</time>
      </trkpt>
      <trkpt lat="42.81972" lon="1.04056">
        <ele>1067</ele>
        <time>2010-01-01T03:38:10Z</time>
      </trkpt>
      <trkpt lat="42.81984" lon="1.04054">
        <ele>1066</ele>
        <time>2010-01-01T03:38:15Z</time>
      </trkpt>
      <trkpt lat="42.81995" lon="1.04044">
        <ele>1061</ele>
        <time>2010-01-01T03:38:20Z</time>
      </trkpt>
      <trkpt lat="42.8202" lon="1.04038">
        <ele>1059</ele>
        <time>2010-01-01T03:38:30Z</time>
      </trkpt>
      <trkpt lat="42.82029" lon="1.04029">
        <ele>1053</ele>
        <time>2010-01-01T03:38:35Z</time>
      </trkpt>
      <trkpt lat="42.82048" lon="1.04032">
        <ele>1057</ele>
        <time>2010-01-01T03:38:42Z</time>
      </trkpt>
      <trkpt lat="42.82063" lon="1.04026">
        <ele>1054</ele>
        <time>2010-01-01T03:38:48Z</time>
      </trkpt>
      <trkpt lat="42.82066" lon="1.04026">
        <ele>1054</ele>
        <time>2010-01-01T03:38:50Z</time>
      </trkpt>
      <trkpt lat="42.82084" lon="1.04032">
        <ele>1057</ele>
        <time>2010-01-01T03:38:57Z</time>
      </trkpt>
      <trkpt lat="42.82095" lon="1.04019">
        <ele>1049</ele>
        <time>2010-01-01T03:39:03Z</time>
      </trkpt>
      <trkpt lat="42.82105" lon="1.04015">
        <ele>1046</ele>
        <time>2010-01-01T03:39:07Z</time>
      </trkpt>
      <trkpt lat="42.82117" lon="1.04015">
        <ele>1045</ele>
        <time>2010-01-01T03:39:12Z</time>
      </trkpt>
      <trkpt lat="42.8214" lon="1.04019">
        <ele>1043</ele>
        <time>2010-01-01T03:39:21Z</time>
      </trkpt>
      <trkpt lat="42.82149" lon="1.04017">
        <ele>1038</ele>
        <time>2010-01-01T03:39:25Z</time>
      </trkpt>
      <trkpt lat="42.82159" lon="1.04015">
        <ele>1035</ele>
        <time>2010-01-01T03:39:29Z</time>
      </trkpt>
      <trkpt lat="42.82169" lon="1.04021">
        <ele>1032</ele>
        <time>2010-01-01T03:39:33Z</time>
      </trkpt>
      <trkpt lat="42.82167" lon="1.04002">
        <ele>1029</ele>
        <time>2010-01-01T03:39:39Z</time>
      </trkpt>
      <trkpt lat="42.82186" lon="1.0401">
        <ele>1027</ele>
        <time>2010-01-01T03:39:47Z</time>
      </trkpt>
      <trkpt lat="42.82188" lon="1.04005">
        <ele>1026</ele>
        <time>2010-01-01T03:39:49Z</time>
      </trkpt>
      <trkpt lat="42.82189" lon="1.04006">
        <ele>1026</ele>
        <time>2010-01-01T03:39:49Z</time>
      </trkpt>
      <trkpt lat="42.82191" lon="1.04006">
        <ele>1026</ele>
        <time>2010-01-01T03:39:50Z</time>
      </trkpt>
      <trkpt lat="42.82196" lon="1.04006">
        <ele>1025</ele>
        <time>2010-01-01T03:39:52Z</time>
      </trkpt>
      <trkpt lat="42.82204" lon="1.04006">
        <ele>1023</ele>
        <time>2010-01-01T03:39:55Z</time>
      </trkpt>
      <trkpt lat="42.82225" lon="1.04004">
        <ele>1019</ele>
        <time>2010-01-01T03:40:04Z</time>
      </trkpt>
      <trkpt lat="42.82241" lon="1.03991">
        <ele>1013</ele>
        <time>2010-01-01T03:40:11Z</time>
      </trkpt>
      <trkpt lat="42.82255" lon="1.03987">
        <ele>1010</ele>
        <time>2010-01-01T03:40:17Z</time>
      </trkpt>
      <trkpt lat="42.82269" lon="1.03982">
        <ele>1008</ele>
        <time>2010-01-01T03:40:23Z</time>
      </trkpt>
      <trkpt lat="42.82282" lon="1.03982">
        <ele>1007</ele>
        <time>2010-01-01T03:40:28Z</time>
      </trkpt>
      <trkpt lat="42.82304" lon="1.03991">
        <ele>1005</ele>
        <time>2010-01-01T03:40:37Z</time>
      </trkpt>
      <trkpt lat="42.82311" lon="1.03994">
        <ele>1005</ele>
        <time>2010-01-01T03:40:40Z</time>
      </trkpt>
      <trkpt lat="42.82328" lon="1.03993">
        <ele>1005</ele>
        <time>2010-01-01T03:40:47Z</time>
      </trkpt>
      <trkpt lat="42.82337" lon="1.03983">
        <ele>1005</ele>
        <time>2010-01-01T03:40:51Z</time>
      </trkpt>
      <trkpt lat="42.82345" lon="1.03981">
        <ele>1004</ele>
        <time>2010-01-01T03:40:54Z</time>
      </trkpt>
      <trkpt lat="42.82358" lon="1.03969">
        <ele>1004</ele>
        <time>2010-01-01T03:41:01Z</time>
      </trkpt>
      <trkpt lat="42.8237" lon="1.03972">
        <ele>1002</ele>
        <time>2010-01-01T03:41:06Z</time>
      </trkpt>
      <trkpt lat="42.82373" lon="1.03972">
        <ele>1002</ele>
        <time>2010-01-01T03:41:07Z</time>
      </trkpt>
      <trkpt lat="42.82382" lon="1.03964">
        <ele>1002</ele>
        <time>2010-01-01T03:41:11Z</time>
      </trkpt>
      <trkpt lat="42.82388" lon="1.03956">
        <ele>1003</ele>
        <time>2010-01-01T03:41:15Z</time>
      </trkpt>
      <trkpt lat="42.82395" lon="1.03946">
        <ele>1004</ele>
        <time>2010-01-01T03:41:19Z</time>
      </trkpt>
      <trkpt lat="42.82396" lon="1.03937">
        <ele>1007</ele>
        <time>2010-01-01T03:41:21Z</time>
      </trkpt>
      <trkpt lat="42.82399" lon="1.0392">
        <ele>1012</ele>
        <time>2010-01-01T03:41:26Z</time>
      </trkpt>
      <trkpt lat="42.82402" lon="1.03918">
        <ele>1012</ele>
        <time>2010-01-01T03:41:28Z</time>
      </trkpt>
      <trkpt lat="42.82411" lon="1.03916">
        <ele>1012</ele>
        <time>2010-01-01T03:41:32Z</time>
      </trkpt>
      <trkpt lat="42.82418" lon="1.03915">
        <ele>1011</ele>
        <time>2010-01-01T03:41:34Z</time>
      </trkpt>
      <trkpt lat="42.82426" lon="1.03917">
        <ele>1008</ele>
        <time>2010-01-01T03:41:37Z</time>
      </trkpt>
      <trkpt lat="42.82437" lon="1.03917">
        <ele>1005</ele>
        <time>2010-01-01T03:41:42Z</time>
      </trkpt>
      <trkpt lat="42.82448" lon="1.03917">
        <ele>1003</ele>
        <time>2010-01-01T03:41:46Z</time>
      </trkpt>
      <trkpt lat="42.82463" lon="1.03919">
        <ele>1001</ele>
        <time>2010-01-01T03:41:52Z</time>
      </trkpt>
      <trkpt lat="42.82471" lon="1.03918">
        <ele>1000</ele>
        <time>2010-01-01T03:41:55Z</time>
      </trkpt>
      <trkpt lat="42.8248" lon="1.03918">
        <ele>1000</ele>
        <time>2010-01-01T03:41:59Z</time>
      </trkpt>
      <trkpt lat="42.82495" lon="1.03915">
        <ele>1002</ele>
        <time>2010-01-01T03:42:05Z</time>
      </trkpt>
      <trkpt lat="42.82504" lon="1.03919">
        <ele>1001</ele>
        <time>2010-01-01T03:42:09Z</time>
      </trkpt>
      <trkpt lat="42.82506" lon="1.03921">
        <ele>1001</ele>
        <time>2010-01-01T03:42:10Z</time>
      </trkpt>
      <trkpt lat="42.8251" lon="1.03921">
        <ele>1001</ele>
        <time>2010-01-01T03:42:12Z</time>
      </trkpt>
      <trkpt lat="42.82519" lon="1.03927">
        <ele>1000</ele>
        <time>2010-01-01T03:42:16Z</time>
      </trkpt>
      <trkpt lat="42.82521" lon="1.03928">
        <ele>999</ele>
        <time>2010-01-01T03:42:17Z</time>
      </trkpt>
      <trkpt lat="42.82531" lon="1.03931">
        <ele>999</ele>
        <time>2010-01-01T03:42:20Z</time>
      </trkpt>
      <trkpt lat="42.8254" lon="1.03932">
        <ele>999</ele>
        <time>2010-01-01T03:42:24Z</time>
      </trkpt>
      <trkpt lat="42.82558" lon="1.03931">
        <ele>1000</ele>
        <time>2010-01-01T03:42:31Z</time>
      </trkpt>
      <trkpt lat="42.82575" lon="1.03934">
        <ele>999</ele>
        <time>2010-01-01T03:42:38Z</time>
      </trkpt>
      <trkpt lat="42.82586" lon="1.03933">
        <ele>998</ele>
        <time>2010-01-01T03:42:43Z</time>
      </trkpt>
      <trkpt lat="42.82605" lon="1.03925">
        <ele>996</ele>
        <time>2010-01-01T03:42:51Z</time>
      </trkpt>
      <trkpt lat="42.82623" lon="1.03911">
        <ele>994</ele>
        <time>2010-01-01T03:42:59Z</time>
      </trkpt>
      <trkpt lat="42.82632" lon="1.03909">
        <ele>992</ele>
        <time>2010-01-01T03:43:03Z</time>
      </trkpt>
      <trkpt lat="42.82641" lon="1.03903">
        <ele>990</ele>
        <time>2010-01-01T03:43:06Z</time>
      </trkpt>
      <trkpt lat="42.82655" lon="1.03895">
        <ele>987</ele>
        <time>2010-01-01T03:43:13Z</time>
      </trkpt>
      <trkpt lat="42.82672" lon="1.03886">
        <ele>983</ele>
        <time>2010-01-01T03:43:20Z</time>
      </trkpt>
      <trkpt lat="42.82686" lon="1.0387">
        <ele>982</ele>
        <time>2010-01-01T03:43:27Z</time>
      </trkpt>
      <trkpt lat="42.82696" lon="1.03859">
        <ele>981</ele>
        <time>2010-01-01T03:43:32Z</time>
      </trkpt>
      <trkpt lat="42.82701" lon="1.03827">
        <ele>979</ele>
        <time>2010-01-01T03:43:42Z</time>
      </trkpt>
      <trkpt lat="42.82686" lon="1.03778">
        <ele>976</ele>
        <time>2010-01-01T03:43:57Z</time>
      </trkpt>
      <trkpt lat="42.82687" lon="1.03774">
        <ele>975</ele>
        <time>2010-01-01T03:43:59Z</time>
      </trkpt>
      <trkpt lat="42.8268" lon="1.03758">
        <ele>976</ele>
        <time>2010-01-01T03:44:04Z</time>
      </trkpt>
      <trkpt lat="42.82672" lon="1.03713">
        <ele>980</ele>
        <time>2010-01-01T03:44:18Z</time>
      </trkpt>
      <trkpt lat="42.8267" lon="1.03703">
        <ele>982</ele>
        <time>2010-01-01T03:44:21Z</time>
      </trkpt>
      <trkpt lat="42.82671" lon="1.037">
        <ele>982</ele>
        <time>2010-01-01T03:44:22Z</time>
      </trkpt>
      <trkpt lat="42.82674" lon="1.03694">
        <ele>982</ele>
        <time>2010-01-01T03:44:24Z</time>
      </trkpt>
      <trkpt lat="42.82674" lon="1.0366">
        <ele>990</ele>
        <time>2010-01-01T03:44:34Z</time>
      </trkpt>
      <trkpt lat="42.82674" lon="1.03659">
        <ele>990</ele>
        <time>2010-01-01T03:44:34Z</time>
      </trkpt>
      <trkpt lat="42.82678" lon="1.03633">
        <ele>997</ele>
        <time>2010-01-01T03:44:42Z</time>
      </trkpt>
      <trkpt lat="42.82688" lon="1.0361">
        <ele>1001</ele>
        <time>2010-01-01T03:44:50Z</time>
      </trkpt>
      <trkpt lat="42.82689" lon="1.03608">
        <ele>1001</ele>
        <time>2010-01-01T03:44:50Z</time>
      </trkpt>
      <trkpt lat="42.82691" lon="1.036">
        <ele>1003</ele>
        <time>2010-01-01T03:44:53Z</time>
      </trkpt>
      <trkpt lat="42.82707" lon="1.03574">
        <ele>1004</ele>
        <time>2010-01-01T03:45:03Z</time>
      </trkpt>
      <trkpt lat="42.8271" lon="1.03564">
        <ele>1006</ele>
        <time>2010-01-01T03:45:06Z</time>
      </trkpt>
      <trkpt lat="42.82715" lon="1.03558">
        <ele>1007</ele>
        <time>2010-01-01T03:45:09Z</time>
      </trkpt>
      <trkpt lat="42.8272" lon="1.03551">
        <ele>1008</ele>
        <time>2010-01-01T03:45:11Z</time>
      </trkpt>
      <trkpt lat="42.82726" lon="1.03547">
        <ele>1006</ele>
        <time>2010-01-01T03:45:14Z</time>
      </trkpt>
      <trkpt lat="42.82731" lon="1.03539">
        <ele>1006</ele>
        <time>2010-01-01T03:45:17Z</time>
      </trkpt>
      <trkpt lat="42.82733" lon="1.03535">
        <ele>1006</ele>
        <time>2010-01-01T03:45:19Z</time>
      </trkpt>
      <trkpt lat="42.82741" lon="1.0352">
        <ele>1007</ele>
        <time>2010-01-01T03:45:24Z</time>
      </trkpt>
      <trkpt lat="42.82751" lon="1.03514">
        <ele>1004</ele>
        <time>2010-01-01T03:45:28Z</time>
      </trkpt>
      <trkpt lat="42.82756" lon="1.03502">
        <ele>1006</ele>
        <time>2010-01-01T03:45:32Z</time>
      </trkpt>
      <trkpt lat="42.82771" lon="1.03485">
        <ele>1006</ele>
        <time>2010-01-01T03:45:40Z</time>
      </trkpt>
      <trkpt lat="42.82779" lon="1.03481">
        <ele>1004</ele>
        <time>2010-01-01T03:45:43Z</time>
      </trkpt>
      <trkpt lat="42.82787" lon="1.03471">
        <ele>1005</ele>
        <time>2010-01-01T03:45:48Z</time>
      </trkpt>
      <trkpt lat="42.82792" lon="1.03469">
        <ele>1003</ele>
        <time>2010-01-01T03:45:50Z</time>
      </trkpt>
      <trkpt lat="42.82807" lon="1.03463">
        <ele>1000</ele>
        <time>2010-01-01T03:45:56Z</time>
      </trkpt>
      <trkpt lat="42.82828" lon="1.0347">
        <ele>985</ele>
        <time>2010-01-01T03:46:05Z</time>
      </trkpt>
      <trkpt lat="42.82851" lon="1.03479">
        <ele>975</ele>
        <time>2010-01-01T03:46:14Z</time>
      </trkpt>
      <trkpt lat="42.82852" lon="1.03479">
        <ele>975</ele>
        <time>2010-01-01T03:46:15Z</time>
      </trkpt>
      <trkpt lat="42.82854" lon="1.03478">
        <ele>974</ele>
        <time>2010-01-01T03:46:16Z</time>
      </trkpt>
      <trkpt lat="42.82857" lon="1.03477">
        <ele>974</ele>
        <time>2010-01-01T03:46:17Z</time>
      </trkpt>
      <trkpt lat="42.82874" lon="1.03465">
        <ele>973</ele>
        <time>2010-01-01T03:46:25Z</time>
      </trkpt>
      <trkpt lat="42.82875" lon="1.03462">
        <ele>974</ele>
        <time>2010-01-01T03:46:26Z</time>
      </trkpt>
      <trkpt lat="42.82877" lon="1.0346">
        <ele>974</ele>
        <time>2010-01-01T03:46:27Z</time>
      </trkpt>
      <trkpt lat="42.82882" lon="1.03455">
        <ele>975</ele>
        <time>2010-01-01T03:46:29Z</time>
      </trkpt>
      <trkpt lat="42.82883" lon="1.03453">
        <ele>976</ele>
        <time>2010-01-01T03:46:30Z</time>
      </trkpt>
      <trkpt lat="42.82887" lon="1.0345">
        <ele>976</ele>
        <time>2010-01-01T03:46:32Z</time>
      </trkpt>
      <trkpt lat="42.82889" lon="1.03449">
        <ele>975</ele>
        <time>2010-01-01T03:46:33Z</time>
      </trkpt>
      <trkpt lat="42.8289" lon="1.03446">
        <ele>977</ele>
        <time>2010-01-01T03:46:34Z</time>
      </trkpt>
      <trkpt lat="42.82896" lon="1.03436">
        <ele>979</ele>
        <time>2010-01-01T03:46:37Z</time>
      </trkpt>
      <trkpt lat="42.82902" lon="1.03428">
        <ele>982</ele>
        <time>2010-01-01T03:46:41Z</time>
      </trkpt>
      <trkpt lat="42.82903" lon="1.03426">
        <ele>982</ele>
        <time>2010-01-01T03:46:41Z</time>
      </trkpt>
      <trkpt lat="42.82904" lon="1.03425">
        <ele>982</ele>
        <time>2010-01-01T03:46:42Z</time>
      </trkpt>
      <trkpt lat="42.82905" lon="1.03424">
        <ele>982</ele>
        <time>2010-01-01T03:46:42Z</time>
      </trkpt>
      <trkpt lat="42.82907" lon="1.03422">
        <ele>983</ele>
        <time>2010-01-01T03:46:44Z</time>
      </trkpt>
      <trkpt lat="42.82915" lon="1.03412">
        <ele>985</ele>
        <time>2010-01-01T03:46:48Z</time>
      </trkpt>
      <trkpt lat="42.82925" lon="1.03399">
        <ele>987</ele>
        <time>2010-01-01T03:46:53Z</time>
      </trkpt>
      <trkpt lat="42.82941" lon="1.03383">
        <ele>988</ele>
        <time>2010-01-01T03:47:01Z</time>
      </trkpt>
      <trkpt lat="42.82944" lon="1.03381">
        <ele>988</ele>
        <time>2010-01-01T03:47:03Z</time>
      </trkpt>
      <trkpt lat="42.82945" lon="1.03379">
        <ele>988</ele>
        <time>2010-01-01T03:47:03Z</time>
      </trkpt>
      <trkpt lat="42.82968" lon="1.03357">
        <ele>983</ele>
        <time>2010-01-01T03:47:14Z</time>
      </trkpt>
      <trkpt lat="42.82978" lon="1.03339">
        <ele>985</ele>
        <time>2010-01-01T03:47:21Z</time>
      </trkpt>
      <trkpt lat="42.82993" lon="1.03325">
        <ele>984</ele>
        <time>2010-01-01T03:47:28Z</time>
      </trkpt>
      <trkpt lat="42.82995" lon="1.03323">
        <ele>984</ele>
        <time>2010-01-01T03:47:29Z</time>
      </trkpt>
      <trkpt lat="42.83014" lon="1.03304">
        <ele>980</ele>
        <time>2010-01-01T03:47:39Z</time>
      </trkpt>
      <trkpt lat="42.83023" lon="1.03295">
        <ele>976</ele>
        <time>2010-01-01T03:47:43Z</time>
      </trkpt>
      <trkpt lat="42.83016" lon="1.03274">
        <ele>984</ele>
        <time>2010-01-01T03:47:50Z</time>
      </trkpt>
      <trkpt lat="42.83024" lon="1.03267">
        <ele>981</ele>
        <time>2010-01-01T03:47:54Z</time>
      </trkpt>
      <trkpt lat="42.83072" lon="1.03252">
        <ele>956</ele>
        <time>2010-01-01T03:48:14Z</time>
      </trkpt>
      <trkpt lat="42.83079" lon="1.03241">
        <ele>953</ele>
        <time>2010-01-01T03:48:18Z</time>
      </trkpt>
      <trkpt lat="42.83084" lon="1.03235">
        <ele>951</ele>
        <time>2010-01-01T03:48:21Z</time>
      </trkpt>
      <trkpt lat="42.83085" lon="1.03224">
        <ele>953</ele>
        <time>2010-01-01T03:48:24Z</time>
      </trkpt>
      <trkpt lat="42.83086" lon="1.03212">
        <ele>955</ele>
        <time>2010-01-01T03:48:27Z</time>
      </trkpt>
      <trkpt lat="42.83086" lon="1.03198">
        <ele>957</ele>
        <time>2010-01-01T03:48:31Z</time>
      </trkpt>
      <trkpt lat="42.83088" lon="1.03194">
        <ele>957</ele>
        <time>2010-01-01T03:48:33Z</time>
      </trkpt>
      <trkpt lat="42.83091" lon="1.03181">
        <ele>960</ele>
        <time>2010-01-01T03:48:37Z</time>
      </trkpt>
      <trkpt lat="42.83089" lon="1.03182">
        <ele>960</ele>
        <time>2010-01-01T03:48:38Z</time>
      </trkpt>
      <trkpt lat="42.83079" lon="1.03204">
        <ele>959</ele>
        <time>2010-01-01T03:48:45Z</time>
      </trkpt>
      <trkpt lat="42.83079" lon="1.03231">
        <ele>955</ele>
        <time>2010-01-01T03:48:53Z</time>
      </trkpt>
      <trkpt lat="42.83084" lon="1.03238">
        <ele>951</ele>
        <time>2010-01-01T03:48:56Z</time>
      </trkpt>
      <trkpt lat="42.83105" lon="1.03233">
        <ele>945</ele>
        <time>2010-01-01T03:49:04Z</time>
      </trkpt>
      <trkpt lat="42.83094" lon="1.03267">
        <ele>944</ele>
        <time>2010-01-01T03:49:15Z</time>
      </trkpt>
      <trkpt lat="42.83093" lon="1.03247">
        <ele>947</ele>
        <time>2010-01-01T03:49:21Z</time>
      </trkpt>
      <trkpt lat="42.83088" lon="1.03243">
        <ele>949</ele>
        <time>2010-01-01T03:49:24Z</time>
      </trkpt>
      <trkpt lat="42.83084" lon="1.03229">
        <ele>952</ele>
        <time>2010-01-01T03:49:28Z</time>
      </trkpt>
      <trkpt lat="42.83086" lon="1.03213">
        <ele>954</ele>
        <time>2010-01-01T03:49:33Z</time>
      </trkpt>
      <trkpt lat="42.83093" lon="1.03188">
        <ele>957</ele>
        <time>2010-01-01T03:49:41Z</time>
      </trkpt>
      <trkpt lat="42.83096" lon="1.03163">
        <ele>962</ele>
        <time>2010-01-01T03:49:48Z</time>
      </trkpt>
      <trkpt lat="42.83099" lon="1.03143">
        <ele>965</ele>
        <time>2010-01-01T03:49:54Z</time>
      </trkpt>
      <trkpt lat="42.831" lon="1.0314">
        <ele>965</ele>
        <time>2010-01-01T03:49:55Z</time>
      </trkpt>
      <trkpt lat="42.83103" lon="1.03132">
        <ele>965</ele>
        <time>2010-01-01T03:49:58Z</time>
      </trkpt>
      <trkpt lat="42.83127" lon="1.03109">
        <ele>959</ele>
        <time>2010-01-01T03:50:09Z</time>
      </trkpt>
      <trkpt lat="42.83143" lon="1.03103">
        <ele>954</ele>
        <time>2010-01-01T03:50:16Z</time>
      </trkpt>
      <trkpt lat="42.83151" lon="1.03107">
        <ele>953</ele>
        <time>2010-01-01T03:50:20Z</time>
      </trkpt>
      <trkpt lat="42.83168" lon="1.03103">
        <ele>952</ele>
        <time>2010-01-01T03:50:27Z</time>
      </trkpt>
      <trkpt lat="42.83182" lon="1.03102">
        <ele>951</ele>
        <time>2010-01-01T03:50:32Z</time>
      </trkpt>
      <trkpt lat="42.83204" lon="1.03083">
        <ele>952</ele>
        <time>2010-01-01T03:50:43Z</time>
      </trkpt>
      <trkpt lat="42.83212" lon="1.0308">
        <ele>952</ele>
        <time>2010-01-01T03:50:46Z</time>
      </trkpt>
      <trkpt lat="42.83213" lon="1.0308">
        <ele>952</ele>
        <time>2010-01-01T03:50:46Z</time>
      </trkpt>
      <trkpt lat="42.8323" lon="1.03074">
        <ele>951</ele>
        <time>2010-01-01T03:50:53Z</time>
      </trkpt>
      <trkpt lat="42.8324" lon="1.03071">
        <ele>950</ele>
        <time>2010-01-01T03:50:57Z</time>
      </trkpt>
      <trkpt lat="42.83259" lon="1.0307">
        <ele>948</ele>
        <time>2010-01-01T03:51:05Z</time>
      </trkpt>
      <trkpt lat="42.83266" lon="1.0307">
        <ele>948</ele>
        <time>2010-01-01T03:51:08Z</time>
      </trkpt>
      <trkpt lat="42.8327" lon="1.03065">
        <ele>948</ele>
        <time>2010-01-01T03:51:10Z</time>
      </trkpt>
      <trkpt lat="42.83276" lon="1.03059">
        <ele>949</ele>
        <time>2010-01-01T03:51:13Z</time>
      </trkpt>
      <trkpt lat="42.83281" lon="1.03056">
        <ele>949</ele>
        <time>2010-01-01T03:51:15Z</time>
      </trkpt>
      <trkpt lat="42.83275" lon="1.03053">
        <ele>950</ele>
        <time>2010-01-01T03:51:17Z</time>
      </trkpt>
      <trkpt lat="42.83271" lon="1.03045">
        <ele>952</ele>
        <time>2010-01-01T03:51:20Z</time>
      </trkpt>
      <trkpt lat="42.8327" lon="1.03032">
        <ele>954</ele>
        <time>2010-01-01T03:51:24Z</time>
      </trkpt>
      <trkpt lat="42.83274" lon="1.03023">
        <ele>956</ele>
        <time>2010-01-01T03:51:27Z</time>
      </trkpt>
      <trkpt lat="42.83272" lon="1.03009">
        <ele>959</ele>
        <time>2010-01-01T03:51:31Z</time>
      </trkpt>
      <trkpt lat="42.83272" lon="1.02993">
        <ele>963</ele>
        <time>2010-01-01T03:51:36Z</time>
      </trkpt>
      <trkpt lat="42.83267" lon="1.02977">
        <ele>967</ele>
        <time>2010-01-01T03:51:41Z</time>
      </trkpt>
      <trkpt lat="42.83255" lon="1.02971">
        <ele>969</ele>
        <time>2010-01-01T03:51:46Z</time>
      </trkpt>
      <trkpt lat="42.83255" lon="1.02952">
        <ele>972</ele>
        <time>2010-01-01T03:51:51Z</time>
      </trkpt>
      <trkpt lat="42.83261" lon="1.02943">
        <ele>975</ele>
        <time>2010-01-01T03:51:55Z</time>
      </trkpt>
      <trkpt lat="42.83251" lon="1.02921">
        <ele>980</ele>
        <time>2010-01-01T03:52:03Z</time>
      </trkpt>
      <trkpt lat="42.83248" lon="1.02905">
        <ele>983</ele>
        <time>2010-01-01T03:52:08Z</time>
      </trkpt>
      <trkpt lat="42.83239" lon="1.02896">
        <ele>984</ele>
        <time>2010-01-01T03:52:12Z</time>
      </trkpt>
      <trkpt lat="42.83234" lon="1.02894">
        <ele>984</ele>
        <time>2010-01-01T03:52:14Z</time>
      </trkpt>
      <trkpt lat="42.83229" lon="1.02878">
        <ele>987</ele>
        <time>2010-01-01T03:52:19Z</time>
      </trkpt>
      <trkpt lat="42.8323" lon="1.02879">
        <ele>987</ele>
        <time>2010-01-01T03:52:20Z</time>
      </trkpt>
      <trkpt lat="42.83222" lon="1.02876">
        <ele>987</ele>
        <time>2010-01-01T03:52:23Z</time>
      </trkpt>
      <trkpt lat="42.83222" lon="1.02875">
        <ele>987</ele>
        <time>2010-01-01T03:52:23Z</time>
      </trkpt>
      <trkpt lat="42.83216" lon="1.02876">
        <ele>988</ele>
        <time>2010-01-01T03:52:26Z</time>
      </trkpt>
      <trkpt lat="42.83223" lon="1.02873">
        <ele>987</ele>
        <time>2010-01-01T03:52:29Z</time>
      </trkpt>
      <trkpt lat="42.83221" lon="1.02874">
        <ele>987</ele>
        <time>2010-01-01T03:52:30Z</time>
      </trkpt>
      <trkpt lat="42.8322" lon="1.02867">
        <ele>989</ele>
        <time>2010-01-01T03:52:32Z</time>
      </trkpt>
      <trkpt lat="42.8322" lon="1.02855">
        <ele>991</ele>
        <time>2010-01-01T03:52:36Z</time>
      </trkpt>
      <trkpt lat="42.83223" lon="1.0284">
        <ele>993</ele>
        <time>2010-01-01T03:52:40Z</time>
      </trkpt>
      <trkpt lat="42.83224" lon="1.02828">
        <ele>997</ele>
        <time>2010-01-01T03:52:44Z</time>
      </trkpt>
      <trkpt lat="42.83227" lon="1.02808">
        <ele>1004</ele>
        <time>2010-01-01T03:52:50Z</time>
      </trkpt>
      <trkpt lat="42.83225" lon="1.02794">
        <ele>1008</ele>
        <time>2010-01-01T03:52:54Z</time>
      </trkpt>
      <trkpt lat="42.83222" lon="1.02786">
        <ele>1010</ele>
        <time>2010-01-01T03:52:57Z</time>
      </trkpt>
      <trkpt lat="42.83224" lon="1.02776">
        <ele>1013</ele>
        <time>2010-01-01T03:53:00Z</time>
      </trkpt>
      <trkpt lat="42.83225" lon="1.0276">
        <ele>1018</ele>
        <time>2010-01-01T03:53:04Z</time>
      </trkpt>
      <trkpt lat="42.83231" lon="1.02744">
        <ele>1024</ele>
        <time>2010-01-01T03:53:10Z</time>
      </trkpt>
      <trkpt lat="42.83232" lon="1.02728">
        <ele>1030</ele>
        <time>2010-01-01T03:53:14Z</time>
      </trkpt>
      <trkpt lat="42.83237" lon="1.02719">
        <ele>1033</ele>
        <time>2010-01-01T03:53:17Z</time>
      </trkpt>
      <trkpt lat="42.83239" lon="1.02709">
        <ele>1038</ele>
        <time>2010-01-01T03:53:21Z</time>
      </trkpt>
      <trkpt lat="42.83243" lon="1.02702">
        <ele>1041</ele>
        <time>2010-01-01T03:53:23Z</time>
      </trkpt>
      <trkpt lat="42.83236" lon="1.02695">
        <ele>1043</ele>
        <time>2010-01-01T03:53:27Z</time>
      </trkpt>
      <trkpt lat="42.83239" lon="1.02697">
        <ele>1042</ele>
        <time>2010-01-01T03:53:28Z</time>
      </trkpt>
      <trkpt lat="42.83238" lon="1.02707">
        <ele>1039</ele>
        <time>2010-01-01T03:53:31Z</time>
      </trkpt>
      <trkpt lat="42.83251" lon="1.02708">
        <ele>1040</ele>
        <time>2010-01-01T03:53:36Z</time>
      </trkpt>
      <trkpt lat="42.83257" lon="1.02707">
        <ele>1043</ele>
        <time>2010-01-01T03:53:38Z</time>
      </trkpt>
      <trkpt lat="42.83255" lon="1.02704">
        <ele>1043</ele>
        <time>2010-01-01T03:53:40Z</time>
      </trkpt>
      <trkpt lat="42.83259" lon="1.02706">
        <ele>1044</ele>
        <time>2010-01-01T03:53:41Z</time>
      </trkpt>
      <trkpt lat="42.83261" lon="1.02706">
        <ele>1045</ele>
        <time>2010-01-01T03:53:42Z</time>
      </trkpt>
      <trkpt lat="42.83268" lon="1.027">
        <ele>1050</ele>
        <time>2010-01-01T03:53:46Z</time>
      </trkpt>
      <trkpt lat="42.83269" lon="1.02697">
        <ele>1052</ele>
        <time>2010-01-01T03:53:47Z</time>
      </trkpt>
      <trkpt lat="42.83267" lon="1.027">
        <ele>1050</ele>
        <time>2010-01-01T03:53:48Z</time>
      </trkpt>
      <trkpt lat="42.83267" lon="1.02707">
        <ele>1046</ele>
        <time>2010-01-01T03:53:50Z</time>
      </trkpt>
      <trkpt lat="42.83261" lon="1.02695">
        <ele>1049</ele>
        <time>2010-01-01T03:53:54Z</time>
      </trkpt>
      <trkpt lat="42.83257" lon="1.02683">
        <ele>1053</ele>
        <time>2010-01-01T03:53:58Z</time>
      </trkpt>
      <trkpt lat="42.8326" lon="1.02681">
        <ele>1056</ele>
        <time>2010-01-01T03:54:00Z</time>
      </trkpt>
      <trkpt lat="42.83252" lon="1.02666">
        <ele>1058</ele>
        <time>2010-01-01T03:54:05Z</time>
      </trkpt>
      <trkpt lat="42.83252" lon="1.02661">
        <ele>1061</ele>
        <time>2010-01-01T03:54:07Z</time>
      </trkpt>
      <trkpt lat="42.83247" lon="1.02653">
        <ele>1064</ele>
        <time>2010-01-01T03:54:10Z</time>
      </trkpt>
      <trkpt lat="42.83245" lon="1.02645">
        <ele>1069</ele>
        <time>2010-01-01T03:54:12Z</time>
      </trkpt>
      <trkpt lat="42.83242" lon="1.02635">
        <ele>1074</ele>
        <time>2010-01-01T03:54:15Z</time>
      </trkpt>
      <trkpt lat="42.83238" lon="1.02622">
        <ele>1081</ele>
        <time>2010-01-01T03:54:20Z</time>
      </trkpt>
      <trkpt lat="42.83235" lon="1.02612">
        <ele>1086</ele>
        <time>2010-01-01T03:54:23Z</time>
      </trkpt>
      <trkpt lat="42.83229" lon="1.026">
        <ele>1089</ele>
        <time>2010-01-01T03:54:27Z</time>
      </trkpt>
      <trkpt lat="42.83222" lon="1.02606">
        <ele>1085</ele>
        <time>2010-01-01T03:54:30Z</time>
      </trkpt>
      <trkpt lat="42.8322" lon="1.02589">
        <ele>1091</ele>
        <time>2010-01-01T03:54:35Z</time>
      </trkpt>
      <trkpt lat="42.83216" lon="1.02578">
        <ele>1096</ele>
        <time>2010-01-01T03:54:39Z</time>
      </trkpt>
      <trkpt lat="42.83209" lon="1.02563">
        <ele>1101</ele>
        <time>2010-01-01T03:54:44Z</time>
      </trkpt>
      <trkpt lat="42.83205" lon="1.0255">
        <ele>1107</ele>
        <time>2010-01-01T03:54:48Z</time>
      </trkpt>
      <trkpt lat="42.83202" lon="1.02547">
        <ele>1108</ele>
        <time>2010-01-01T03:54:49Z</time>
      </trkpt>
      <trkpt lat="42.83207" lon="1.02546">
        <ele>1110</ele>
        <time>2010-01-01T03:54:51Z</time>
      </trkpt>
      <trkpt lat="42.83196" lon="1.02534">
        <ele>1114</ele>
        <time>2010-01-01T03:54:57Z</time>
      </trkpt>
      <trkpt lat="42.83193" lon="1.02535">
        <ele>1112</ele>
        <time>2010-01-01T03:54:58Z</time>
      </trkpt>
      <trkpt lat="42.83188" lon="1.02543">
        <ele>1107</ele>
        <time>2010-01-01T03:55:01Z</time>
      </trkpt>
      <trkpt lat="42.83182" lon="1.0254">
        <ele>1107</ele>
        <time>2010-01-01T03:55:04Z</time>
      </trkpt>
      <trkpt lat="42.83175" lon="1.0253">
        <ele>1111</ele>
        <time>2010-01-01T03:55:08Z</time>
      </trkpt>
      <trkpt lat="42.83166" lon="1.02519">
        <ele>1113</ele>
        <time>2010-01-01T03:55:13Z</time>
      </trkpt>
      <trkpt lat="42.83163" lon="1.02511">
        <ele>1116</ele>
        <time>2010-01-01T03:55:16Z</time>
      </trkpt>
      <trkpt lat="42.83156" lon="1.02505">
        <ele>1118</ele>
        <time>2010-01-01T03:55:19Z</time>
      </trkpt>
      <trkpt lat="42.83153" lon="1.02493">
        <ele>1125</ele>
        <time>2010-01-01T03:55:22Z</time>
      </trkpt>
      <trkpt lat="42.83147" lon="1.02497">
        <ele>1122</ele>
        <time>2010-01-01T03:55:25Z</time>
      </trkpt>
      <trkpt lat="42.8315" lon="1.02491">
        <ele>1125</ele>
        <time>2010-01-01T03:55:28Z</time>
      </trkpt>
      <trkpt lat="42.83144" lon="1.0248">
        <ele>1131</ele>
        <time>2010-01-01T03:55:32Z</time>
      </trkpt>
      <trkpt lat="42.83137" lon="1.02489">
        <ele>1125</ele>
        <time>2010-01-01T03:55:36Z</time>
      </trkpt>
      <trkpt lat="42.83133" lon="1.0248">
        <ele>1130</ele>
        <time>2010-01-01T03:55:39Z</time>
      </trkpt>
      <trkpt lat="42.83128" lon="1.02476">
        <ele>1131</ele>
        <time>2010-01-01T03:55:41Z</time>
      </trkpt>
      <trkpt lat="42.83126" lon="1.02477">
        <ele>1130</ele>
        <time>2010-01-01T03:55:42Z</time>
      </trkpt>
      <trkpt lat="42.83125" lon="1.02473">
        <ele>1132</ele>
        <time>2010-01-01T03:55:43Z</time>
      </trkpt>
      <trkpt lat="42.83117" lon="1.0248">
        <ele>1128</ele>
        <time>2010-01-01T03:55:47Z</time>
      </trkpt>
      <trkpt lat="42.83113" lon="1.02479">
        <ele>1128</ele>
        <time>2010-01-01T03:55:49Z</time>
      </trkpt>
      <trkpt lat="42.83102" lon="1.02468">
        <ele>1132</ele>
        <time>2010-01-01T03:55:54Z</time>
      </trkpt>
      <trkpt lat="42.83098" lon="1.02461">
        <ele>1135</ele>
        <time>2010-01-01T03:55:57Z</time>
      </trkpt>
      <trkpt lat="42.83093" lon="1.0245">
        <ele>1139</ele>
        <time>2010-01-01T03:56:00Z</time>
      </trkpt>
      <trkpt lat="42.83084" lon="1.02439">
        <ele>1142</ele>
        <time>2010-01-01T03:56:05Z</time>
      </trkpt>
      <trkpt lat="42.83081" lon="1.02427">
        <ele>1148</ele>
        <time>2010-01-01T03:56:09Z</time>
      </trkpt>
      <trkpt lat="42.83076" lon="1.02412">
        <ele>1156</ele>
        <time>2010-01-01T03:56:14Z</time>
      </trkpt>
      <trkpt lat="42.8307" lon="1.02399">
        <ele>1161</ele>
        <time>2010-01-01T03:56:18Z</time>
      </trkpt>
      <trkpt lat="42.83066" lon="1.02388">
        <ele>1166</ele>
        <time>2010-01-01T03:56:22Z</time>
      </trkpt>
      <trkpt lat="42.83059" lon="1.02378">
        <ele>1169</ele>
        <time>2010-01-01T03:56:26Z</time>
      </trkpt>
      <trkpt lat="42.83047" lon="1.02379">
        <ele>1162</ele>
        <time>2010-01-01T03:56:31Z</time>
      </trkpt>
      <trkpt lat="42.83038" lon="1.02387">
        <ele>1154</ele>
        <time>2010-01-01T03:56:35Z</time>
      </trkpt>
      <trkpt lat="42.83028" lon="1.02384">
        <ele>1152</ele>
        <time>2010-01-01T03:56:39Z</time>
      </trkpt>
      <trkpt lat="42.8302" lon="1.0238">
        <ele>1154</ele>
        <time>2010-01-01T03:56:43Z</time>
      </trkpt>
      <trkpt lat="42.83019" lon="1.02372">
        <ele>1156</ele>
        <time>2010-01-01T03:56:45Z</time>
      </trkpt>
      <trkpt lat="42.83014" lon="1.02362">
        <ele>1158</ele>
        <time>2010-01-01T03:56:49Z</time>
      </trkpt>
      <trkpt lat="42.83009" lon="1.02348">
        <ele>1166</ele>
        <time>2010-01-01T03:56:53Z</time>
      </trkpt>
      <trkpt lat="42.83001" lon="1.02342">
        <ele>1166</ele>
        <time>2010-01-01T03:56:57Z</time>
      </trkpt>
      <trkpt lat="42.82999" lon="1.02335">
        <ele>1169</ele>
        <time>2010-01-01T03:56:59Z</time>
      </trkpt>
      <trkpt lat="42.82996" lon="1.02333">
        <ele>1170</ele>
        <time>2010-01-01T03:57:00Z</time>
      </trkpt>
      <trkpt lat="42.82995" lon="1.02327">
        <ele>1174</ele>
        <time>2010-01-01T03:57:02Z</time>
      </trkpt>
      <trkpt lat="42.82989" lon="1.02323">
        <ele>1176</ele>
        <time>2010-01-01T03:57:05Z</time>
      </trkpt>
      <trkpt lat="42.8299" lon="1.02327">
        <ele>1172</ele>
        <time>2010-01-01T03:57:06Z</time>
      </trkpt>
      <trkpt lat="42.82983" lon="1.02319">
        <ele>1176</ele>
        <time>2010-01-01T03:57:10Z</time>
      </trkpt>
      <trkpt lat="42.82975" lon="1.02311">
        <ele>1178</ele>
        <time>2010-01-01T03:57:13Z</time>
      </trkpt>
      <trkpt lat="42.82973" lon="1.02296">
        <ele>1185</ele>
        <time>2010-01-01T03:57:18Z</time>
      </trkpt>
      <trkpt lat="42.82972" lon="1.02293">
        <ele>1186</ele>
        <time>2010-01-01T03:57:19Z</time>
      </trkpt>
      <trkpt lat="42.82972" lon="1.02289">
        <ele>1188</ele>
        <time>2010-01-01T03:57:20Z</time>
      </trkpt>
      <trkpt lat="42.82969" lon="1.0228">
        <ele>1191</ele>
        <time>2010-01-01T03:57:23Z</time>
      </trkpt>
      <trkpt lat="42.82965" lon="1.02273">
        <ele>1194</ele>
        <time>2010-01-01T03:57:26Z</time>
      </trkpt>
      <trkpt lat="42.82961" lon="1.02269">
        <ele>1195</ele>
        <time>2010-01-01T03:57:28Z</time>
      </trkpt>
      <trkpt lat="42.82957" lon="1.02268">
        <ele>1196</ele>
        <time>2010-01-01T03:57:29Z</time>
      </trkpt>
      <trkpt lat="42.82957" lon="1.02262">
        <ele>1199</ele>
        <time>2010-01-01T03:57:31Z</time>
      </trkpt>
      <trkpt lat="42.82944" lon="1.02264">
        <ele>1195</ele>
        <time>2010-01-01T03:57:36Z</time>
      </trkpt>
      <trkpt lat="42.8294" lon="1.02262">
        <ele>1197</ele>
        <time>2010-01-01T03:57:38Z</time>
      </trkpt>
      <trkpt lat="42.82935" lon="1.02255">
        <ele>1201</ele>
        <time>2010-01-01T03:57:40Z</time>
      </trkpt>
      <trkpt lat="42.82938" lon="1.02247">
        <ele>1205</ele>
        <time>2010-01-01T03:57:43Z</time>
      </trkpt>
      <trkpt lat="42.82939" lon="1.02245">
        <ele>1206</ele>
        <time>2010-01-01T03:57:44Z</time>
      </trkpt>
      <trkpt lat="42.82936" lon="1.02253">
        <ele>1202</ele>
        <time>2010-01-01T03:57:47Z</time>
      </trkpt>
      <trkpt lat="42.82936" lon="1.02249">
        <ele>1204</ele>
        <time>2010-01-01T03:57:48Z</time>
      </trkpt>
      <trkpt lat="42.82942" lon="1.02247">
        <ele>1205</ele>
        <time>2010-01-01T03:57:50Z</time>
      </trkpt>
      <trkpt lat="42.82945" lon="1.02248">
        <ele>1205</ele>
        <time>2010-01-01T03:57:52Z</time>
      </trkpt>
      <trkpt lat="42.82951" lon="1.02247">
        <ele>1207</ele>
        <time>2010-01-01T03:57:54Z</time>
      </trkpt>
      <trkpt lat="42.82946" lon="1.02237">
        <ele>1212</ele>
        <time>2010-01-01T03:57:58Z</time>
      </trkpt>
      <trkpt lat="42.82936" lon="1.02239">
        <ele>1210</ele>
        <time>2010-01-01T03:58:02Z</time>
      </trkpt>
      <trkpt lat="42.82936" lon="1.02222">
        <ele>1219</ele>
        <time>2010-01-01T03:58:07Z</time>
      </trkpt>
      <trkpt lat="42.82938" lon="1.0221">
        <ele>1227</ele>
        <time>2010-01-01T03:58:10Z</time>
      </trkpt>
      <trkpt lat="42.82946" lon="1.02205">
        <ele>1231</ele>
        <time>2010-01-01T03:58:14Z</time>
      </trkpt>
      <trkpt lat="42.82954" lon="1.022">
        <ele>1237</ele>
        <time>2010-01-01T03:58:17Z</time>
      </trkpt>
      <trkpt lat="42.82948" lon="1.02198">
        <ele>1236</ele>
        <time>2010-01-01T03:58:20Z</time>
      </trkpt>
      <trkpt lat="42.82955" lon="1.02189">
        <ele>1242</ele>
        <time>2010-01-01T03:58:24Z</time>
      </trkpt>
      <trkpt lat="42.82956" lon="1.02187">
        <ele>1242</ele>
        <time>2010-01-01T03:58:24Z</time>
      </trkpt>
      <trkpt lat="42.82971" lon="1.02182">
        <ele>1247</ele>
        <time>2010-01-01T03:58:31Z</time>
      </trkpt>
      <trkpt lat="42.82971" lon="1.02181">
        <ele>1247</ele>
        <time>2010-01-01T03:58:31Z</time>
      </trkpt>
      <trkpt lat="42.82967" lon="1.02171">
        <ele>1249</ele>
        <time>2010-01-01T03:58:34Z</time>
      </trkpt>
      <trkpt lat="42.82969" lon="1.02165">
        <ele>1252</ele>
        <time>2010-01-01T03:58:36Z</time>
      </trkpt>
      <trkpt lat="42.82966" lon="1.02156">
        <ele>1254</ele>
        <time>2010-01-01T03:58:39Z</time>
      </trkpt>
      <trkpt lat="42.82968" lon="1.02149">
        <ele>1257</ele>
        <time>2010-01-01T03:58:41Z</time>
      </trkpt>
      <trkpt lat="42.82967" lon="1.0215">
        <ele>1257</ele>
        <time>2010-01-01T03:58:42Z</time>
      </trkpt>
      <trkpt lat="42.82959" lon="1.02156">
        <ele>1253</ele>
        <time>2010-01-01T03:58:45Z</time>
      </trkpt>
      <trkpt lat="42.82957" lon="1.0216">
        <ele>1251</ele>
        <time>2010-01-01T03:58:47Z</time>
      </trkpt>
      <trkpt lat="42.82954" lon="1.02155">
        <ele>1252</ele>
        <time>2010-01-01T03:58:49Z</time>
      </trkpt>
      <trkpt lat="42.82955" lon="1.02142">
        <ele>1256</ele>
        <time>2010-01-01T03:58:53Z</time>
      </trkpt>
      <trkpt lat="42.82968" lon="1.02132">
        <ele>1264</ele>
        <time>2010-01-01T03:58:58Z</time>
      </trkpt>
      <trkpt lat="42.82968" lon="1.02136">
        <ele>1263</ele>
        <time>2010-01-01T03:59:00Z</time>
      </trkpt>
      <trkpt lat="42.82972" lon="1.02134">
        <ele>1265</ele>
        <time>2010-01-01T03:59:01Z</time>
      </trkpt>
      <trkpt lat="42.82971" lon="1.02127">
        <ele>1269</ele>
        <time>2010-01-01T03:59:03Z</time>
      </trkpt>
      <trkpt lat="42.82963" lon="1.02132">
        <ele>1263</ele>
        <time>2010-01-01T03:59:06Z</time>
      </trkpt>
      <trkpt lat="42.82963" lon="1.02115">
        <ele>1271</ele>
        <time>2010-01-01T03:59:11Z</time>
      </trkpt>
      <trkpt lat="42.82963" lon="1.02119">
        <ele>1269</ele>
        <time>2010-01-01T03:59:13Z</time>
      </trkpt>
      <trkpt lat="42.82968" lon="1.02114">
        <ele>1274</ele>
        <time>2010-01-01T03:59:15Z</time>
      </trkpt>
      <trkpt lat="42.8297" lon="1.02117">
        <ele>1273</ele>
        <time>2010-01-01T03:59:16Z</time>
      </trkpt>
      <trkpt lat="42.82977" lon="1.02119">
        <ele>1275</ele>
        <time>2010-01-01T03:59:19Z</time>
      </trkpt>
      <trkpt lat="42.82979" lon="1.02106">
        <ele>1282</ele>
        <time>2010-01-01T03:59:23Z</time>
      </trkpt>
      <trkpt lat="42.82978" lon="1.02096">
        <ele>1285</ele>
        <time>2010-01-01T03:59:26Z</time>
      </trkpt>
      <trkpt lat="42.82976" lon="1.02093">
        <ele>1286</ele>
        <time>2010-01-01T03:59:27Z</time>
      </trkpt>
      <trkpt lat="42.82972" lon="1.02096">
        <ele>1283</ele>
        <time>2010-01-01T03:59:29Z</time>
      </trkpt>
      <trkpt lat="42.82977" lon="1.02088">
        <ele>1288</ele>
        <time>2010-01-01T03:59:32Z</time>
      </trkpt>
      <trkpt lat="42.82983" lon="1.02095">
        <ele>1288</ele>
        <time>2010-01-01T03:59:35Z</time>
      </trkpt>
      <trkpt lat="42.82982" lon="1.02081">
        <ele>1292</ele>
        <time>2010-01-01T03:59:39Z</time>
      </trkpt>
      <trkpt lat="42.82981" lon="1.02074">
        <ele>1293</ele>
        <time>2010-01-01T03:59:41Z</time>
      </trkpt>
      <trkpt lat="42.82986" lon="1.02073">
        <ele>1296</ele>
        <time>2010-01-01T03:59:43Z</time>
      </trkpt>
      <trkpt lat="42.82991" lon="1.02069">
        <ele>1299</ele>
        <time>2010-01-01T03:59:45Z</time>
      </trkpt>
      <trkpt lat="42.82993" lon="1.02059">
        <ele>1303</ele>
        <time>2010-01-01T03:59:48Z</time>
      </trkpt>
      <trkpt lat="42.82984" lon="1.02063">
        <ele>1298</ele>
        <time>2010-01-01T03:59:52Z</time>
      </trkpt>
      <trkpt lat="42.82981" lon="1.02055">
        <ele>1299</ele>
        <time>2010-01-01T03:59:55Z</time>
      </trkpt>
      <trkpt lat="42.82982" lon="1.02046">
        <ele>1302</ele>
        <time>2010-01-01T03:59:58Z</time>
      </trkpt>
      <trkpt lat="42.82987" lon="1.0204">
        <ele>1307</ele>
        <time>2010-01-01T04:00:00Z</time>
      </trkpt>
      <trkpt lat="42.82987" lon="1.02036">
        <ele>1308</ele>
        <time>2010-01-01T04:00:01Z</time>
      </trkpt>
      <trkpt lat="42.82987" lon="1.02029">
        <ele>1311</ele>
        <time>2010-01-01T04:00:03Z</time>
      </trkpt>
      <trkpt lat="42.82988" lon="1.02022">
        <ele>1314</ele>
        <time>2010-01-01T04:00:05Z</time>
      </trkpt>
      <trkpt lat="42.82988" lon="1.02014">
        <ele>1317</ele>
        <time>2010-01-01T04:00:08Z</time>
      </trkpt>
      <trkpt lat="42.82991" lon="1.02005">
        <ele>1322</ele>
        <time>2010-01-01T04:00:11Z</time>
      </trkpt>
      <trkpt lat="42.8299" lon="1.0201">
        <ele>1319</ele>
        <time>2010-01-01T04:00:12Z</time>
      </trkpt>
      <trkpt lat="42.82989" lon="1.02018">
        <ele>1316</ele>
        <time>2010-01-01T04:00:14Z</time>
      </trkpt>
      <trkpt lat="42.82989" lon="1.02021">
        <ele>1315</ele>
        <time>2010-01-01T04:00:15Z</time>
      </trkpt>
      <trkpt lat="42.82995" lon="1.02012">
        <ele>1321</ele>
        <time>2010-01-01T04:00:19Z</time>
      </trkpt>
      <trkpt lat="42.82997" lon="1.02011">
        <ele>1323</ele>
        <time>2010-01-01T04:00:20Z</time>
      </trkpt>
      <trkpt lat="42.83007" lon="1.02015">
        <ele>1327</ele>
        <time>2010-01-01T04:00:24Z</time>
      </trkpt>
      <trkpt lat="42.83012" lon="1.02016">
        <ele>1331</ele>
        <time>2010-01-01T04:00:26Z</time>
      </trkpt>
      <trkpt lat="42.83013" lon="1.02005">
        <ele>1336</ele>
        <time>2010-01-01T04:00:29Z</time>
      </trkpt>
      <trkpt lat="42.83012" lon="1.01995">
        <ele>1339</ele>
        <time>2010-01-01T04:00:32Z</time>
      </trkpt>
      <trkpt lat="42.83008" lon="1.01983">
        <ele>1341</ele>
        <time>2010-01-01T04:00:36Z</time>
      </trkpt>
      <trkpt lat="42.83001" lon="1.01987">
        <ele>1334</ele>
        <time>2010-01-01T04:00:39Z</time>
      </trkpt>
      <trkpt lat="42.83001" lon="1.01985">
        <ele>1335</ele>
        <time>2010-01-01T04:00:40Z</time>
      </trkpt>
      <trkpt lat="42.83001" lon="1.01988">
        <ele>1334</ele>
        <time>2010-01-01T04:00:41Z</time>
      </trkpt>
      <trkpt lat="42.83001" lon="1.0198">
        <ele>1337</ele>
        <time>2010-01-01T04:00:43Z</time>
      </trkpt>
      <trkpt lat="42.83004" lon="1.01969">
        <ele>1342</ele>
        <time>2010-01-01T04:00:46Z</time>
      </trkpt>
      <trkpt lat="42.83003" lon="1.01958">
        <ele>1344</ele>
        <time>2010-01-01T04:00:50Z</time>
      </trkpt>
      <trkpt lat="42.83002" lon="1.01945">
        <ele>1346</ele>
        <time>2010-01-01T04:00:54Z</time>
      </trkpt>
      <trkpt lat="42.82999" lon="1.01932">
        <ele>1344</ele>
        <time>2010-01-01T04:00:57Z</time>
      </trkpt>
      <trkpt lat="42.83001" lon="1.01923">
        <ele>1346</ele>
        <time>2010-01-01T04:01:00Z</time>
      </trkpt>
      <trkpt lat="42.83002" lon="1.01908">
        <ele>1348</ele>
        <time>2010-01-01T04:01:04Z</time>
      </trkpt>
      <trkpt lat="42.83005" lon="1.01896">
        <ele>1351</ele>
        <time>2010-01-01T04:01:08Z</time>
      </trkpt>
      <trkpt lat="42.83009" lon="1.01888">
        <ele>1354</ele>
        <time>2010-01-01T04:01:11Z</time>
      </trkpt>
      <trkpt lat="42.83012" lon="1.01874">
        <ele>1358</ele>
        <time>2010-01-01T04:01:15Z</time>
      </trkpt>
      <trkpt lat="42.83015" lon="1.01867">
        <ele>1360</ele>
        <time>2010-01-01T04:01:18Z</time>
      </trkpt>
      <trkpt lat="42.83017" lon="1.01847">
        <ele>1365</ele>
        <time>2010-01-01T04:01:24Z</time>
      </trkpt>
      <trkpt lat="42.83019" lon="1.01838">
        <ele>1369</ele>
        <time>2010-01-01T04:01:27Z</time>
      </trkpt>
      <trkpt lat="42.83015" lon="1.01822">
        <ele>1370</ele>
        <time>2010-01-01T04:01:31Z</time>
      </trkpt>
      <trkpt lat="42.83011" lon="1.01811">
        <ele>1371</ele>
        <time>2010-01-01T04:01:35Z</time>
      </trkpt>
      <trkpt lat="42.83001" lon="1.01795">
        <ele>1372</ele>
        <time>2010-01-01T04:01:41Z</time>
      </trkpt>
      <trkpt lat="42.82999" lon="1.01798">
        <ele>1371</ele>
        <time>2010-01-01T04:01:43Z</time>
      </trkpt>
      <trkpt lat="42.82992" lon="1.01806">
        <ele>1366</ele>
        <time>2010-01-01T04:01:46Z</time>
      </trkpt>
      <trkpt lat="42.82985" lon="1.01812">
        <ele>1362</ele>
        <time>2010-01-01T04:01:49Z</time>
      </trkpt>
      <trkpt lat="42.82974" lon="1.01808">
        <ele>1361</ele>
        <time>2010-01-01T04:01:54Z</time>
      </trkpt>
      <trkpt lat="42.82962" lon="1.01803">
        <ele>1362</ele>
        <time>2010-01-01T04:01:59Z</time>
      </trkpt>
      <trkpt lat="42.82958" lon="1.01798">
        <ele>1363</ele>
        <time>2010-01-01T04:02:01Z</time>
      </trkpt>
      <trkpt lat="42.82952" lon="1.01793">
        <ele>1365</ele>
        <time>2010-01-01T04:02:04Z</time>
      </trkpt>
      <trkpt lat="42.82952" lon="1.01788">
        <ele>1366</ele>
        <time>2010-01-01T04:02:05Z</time>
      </trkpt>
      <trkpt lat="42.8295" lon="1.01782">
        <ele>1368</ele>
        <time>2010-01-01T04:02:07Z</time>
      </trkpt>
      <trkpt lat="42.82942" lon="1.01773">
        <ele>1370</ele>
        <time>2010-01-01T04:02:12Z</time>
      </trkpt>
      <trkpt lat="42.82937" lon="1.01768">
        <ele>1373</ele>
        <time>2010-01-01T04:02:14Z</time>
      </trkpt>
      <trkpt lat="42.82929" lon="1.01761">
        <ele>1377</ele>
        <time>2010-01-01T04:02:18Z</time>
      </trkpt>
      <trkpt lat="42.8293" lon="1.01756">
        <ele>1378</ele>
        <time>2010-01-01T04:02:19Z</time>
      </trkpt>
      <trkpt lat="42.82945" lon="1.01754">
        <ele>1376</ele>
        <time>2010-01-01T04:02:25Z</time>
      </trkpt>
      <trkpt lat="42.82948" lon="1.01765">
        <ele>1373</ele>
        <time>2010-01-01T04:02:29Z</time>
      </trkpt>
      <trkpt lat="42.8295" lon="1.01758">
        <ele>1376</ele>
        <time>2010-01-01T04:02:31Z</time>
      </trkpt>
      <trkpt lat="42.82954" lon="1.01753">
        <ele>1378</ele>
        <time>2010-01-01T04:02:33Z</time>
      </trkpt>
      <trkpt lat="42.82963" lon="1.01752">
        <ele>1379</ele>
        <time>2010-01-01T04:02:37Z</time>
      </trkpt>
      <trkpt lat="42.82976" lon="1.01753">
        <ele>1380</ele>
        <time>2010-01-01T04:02:42Z</time>
      </trkpt>
      <trkpt lat="42.82981" lon="1.01749">
        <ele>1382</ele>
        <time>2010-01-01T04:02:44Z</time>
      </trkpt>
      <trkpt lat="42.82977" lon="1.01749">
        <ele>1381</ele>
        <time>2010-01-01T04:02:46Z</time>
      </trkpt>
      <trkpt lat="42.82976" lon="1.01744">
        <ele>1383</ele>
        <time>2010-01-01T04:02:47Z</time>
      </trkpt>
      <trkpt lat="42.82971" lon="1.01733">
        <ele>1385</ele>
        <time>2010-01-01T04:02:51Z</time>
      </trkpt>
      <trkpt lat="42.82972" lon="1.0172">
        <ele>1389</ele>
        <time>2010-01-01T04:02:54Z</time>
      </trkpt>
      <trkpt lat="42.82976" lon="1.01723">
        <ele>1389</ele>
        <time>2010-01-01T04:02:56Z</time>
      </trkpt>
      <trkpt lat="42.82979" lon="1.01714">
        <ele>1391</ele>
        <time>2010-01-01T04:02:59Z</time>
      </trkpt>
      <trkpt lat="42.82974" lon="1.01708">
        <ele>1393</ele>
        <time>2010-01-01T04:03:02Z</time>
      </trkpt>
      <trkpt lat="42.82967" lon="1.01698">
        <ele>1396</ele>
        <time>2010-01-01T04:03:06Z</time>
      </trkpt>
      <trkpt lat="42.82958" lon="1.01689">
        <ele>1398</ele>
        <time>2010-01-01T04:03:10Z</time>
      </trkpt>
      <trkpt lat="42.8296" lon="1.01677">
        <ele>1401</ele>
        <time>2010-01-01T04:03:14Z</time>
      </trkpt>
      <trkpt lat="42.8297" lon="1.01673">
        <ele>1403</ele>
        <time>2010-01-01T04:03:18Z</time>
      </trkpt>
      <trkpt lat="42.82973" lon="1.0167">
        <ele>1403</ele>
        <time>2010-01-01T04:03:19Z</time>
      </trkpt>
      <trkpt lat="42.82977" lon="1.01661">
        <ele>1406</ele>
        <time>2010-01-01T04:03:22Z</time>
      </trkpt>
      <trkpt lat="42.82974" lon="1.01648">
        <ele>1409</ele>
        <time>2010-01-01T04:03:26Z</time>
      </trkpt>
      <trkpt lat="42.82973" lon="1.01646">
        <ele>1410</ele>
        <time>2010-01-01T04:03:27Z</time>
      </trkpt>
      <trkpt lat="42.82971" lon="1.0164">
        <ele>1411</ele>
        <time>2010-01-01T04:03:29Z</time>
      </trkpt>
      <trkpt lat="42.82971" lon="1.01631">
        <ele>1413</ele>
        <time>2010-01-01T04:03:32Z</time>
      </trkpt>
      <trkpt lat="42.82967" lon="1.01621">
        <ele>1414</ele>
        <time>2010-01-01T04:03:35Z</time>
      </trkpt>
      <trkpt lat="42.8296" lon="1.0161">
        <ele>1416</ele>
        <time>2010-01-01T04:03:39Z</time>
      </trkpt>
      <trkpt lat="42.82957" lon="1.01607">
        <ele>1416</ele>
        <time>2010-01-01T04:03:41Z</time>
      </trkpt>
      <trkpt lat="42.82955" lon="1.01606">
        <ele>1417</ele>
        <time>2010-01-01T04:03:42Z</time>
      </trkpt>
      <trkpt lat="42.82959" lon="1.01608">
        <ele>1416</ele>
        <time>2010-01-01T04:03:44Z</time>
      </trkpt>
      <trkpt lat="42.82963" lon="1.01611">
        <ele>1416</ele>
        <time>2010-01-01T04:03:45Z</time>
      </trkpt>
      <trkpt lat="42.82955" lon="1.01599">
        <ele>1419</ele>
        <time>2010-01-01T04:03:50Z</time>
      </trkpt>
      <trkpt lat="42.82949" lon="1.01612">
        <ele>1415</ele>
        <time>2010-01-01T04:03:55Z</time>
      </trkpt>
      <trkpt lat="42.82954" lon="1.01615">
        <ele>1414</ele>
        <time>2010-01-01T04:03:57Z</time>
      </trkpt>
      <trkpt lat="42.82958" lon="1.01606">
        <ele>1417</ele>
        <time>2010-01-01T04:04:00Z</time>
      </trkpt>
      <trkpt lat="42.82951" lon="1.01609">
        <ele>1416</ele>
        <time>2010-01-01T04:04:03Z</time>
      </trkpt>
      <trkpt lat="42.82946" lon="1.01668">
        <ele>1403</ele>
        <time>2010-01-01T04:04:21Z</time>
      </trkpt>
      <trkpt lat="42.82952" lon="1.01696">
        <ele>1397</ele>
        <time>2010-01-01T04:04:29Z</time>
      </trkpt>
      <trkpt lat="42.82947" lon="1.01685">
        <ele>1400</ele>
        <time>2010-01-01T04:04:33Z</time>
      </trkpt>
      <trkpt lat="42.82953" lon="1.01657">
        <ele>1406</ele>
        <time>2010-01-01T04:04:41Z</time>
      </trkpt>
      <trkpt lat="42.82962" lon="1.01623">
        <ele>1414</ele>
        <time>2010-01-01T04:04:52Z</time>
      </trkpt>
      <trkpt lat="42.82967" lon="1.01616">
        <ele>1415</ele>
        <time>2010-01-01T04:04:55Z</time>
      </trkpt>
      <trkpt lat="42.82965" lon="1.01607">
        <ele>1417</ele>
        <time>2010-01-01T04:04:58Z</time>
      </trkpt>
      <trkpt lat="42.82959" lon="1.01606">
        <ele>1417</ele>
        <time>2010-01-01T04:05:00Z</time>
      </trkpt>
      <trkpt lat="42.8295" lon="1.01603">
        <ele>1417</ele>
        <time>2010-01-01T04:05:04Z</time>
      </trkpt>
      <trkpt lat="42.82955" lon="1.01603">
        <ele>1418</ele>
        <time>2010-01-01T04:05:06Z</time>
      </trkpt>
      <trkpt lat="42.82957" lon="1.01603">
        <ele>1418</ele>
        <time>2010-01-01T04:05:06Z</time>
      </trkpt>
      <trkpt lat="42.82952" lon="1.01601">
        <ele>1418</ele>
        <time>2010-01-01T04:05:08Z</time>
      </trkpt>
      <trkpt lat="42.82953" lon="1.01603">
        <ele>1417</ele>
        <time>2010-01-01T04:05:09Z</time>
      </trkpt>
      <trkpt lat="42.82952" lon="1.01598">
        <ele>1419</ele>
        <time>2010-01-01T04:05:11Z</time>
      </trkpt>
      <trkpt lat="42.82952" lon="1.01609">
        <ele>1416</ele>
        <time>2010-01-01T04:05:14Z</time>
      </trkpt>
      <trkpt lat="42.82954" lon="1.01607">
        <ele>1416</ele>
        <time>2010-01-01T04:05:15Z</time>
      </trkpt>
      <trkpt lat="42.82956" lon="1.01605">
        <ele>1417</ele>
        <time>2010-01-01T04:05:16Z</time>
      </trkpt>
      <trkpt lat="42.82956" lon="1.01604">
        <ele>1417</ele>
        <time>2010-01-01T04:05:16Z</time>
      </trkpt>
      <trkpt lat="42.8296" lon="1.01605">
        <ele>1417</ele>
        <time>2010-01-01T04:05:18Z</time>
      </trkpt>
      <trkpt lat="42.8296" lon="1.01606">
        <ele>1417</ele>
        <time>2010-01-01T04:05:18Z</time>
      </trkpt>
      <trkpt lat="42.82953" lon="1.01603">
        <ele>1418</ele>
        <time>2010-01-01T04:05:22Z</time>
      </trkpt>
      <trkpt lat="42.82952" lon="1.01594">
        <ele>1420</ele>
        <time>2010-01-01T04:05:24Z</time>
      </trkpt>
      <trkpt lat="42.82941" lon="1.01584">
        <ele>1424</ele>
        <time>2010-01-01T04:05:29Z</time>
      </trkpt>
      <trkpt lat="42.82927" lon="1.01578">
        <ele>1427</ele>
        <time>2010-01-01T04:05:35Z</time>
      </trkpt>
      <trkpt lat="42.82925" lon="1.01571">
        <ele>1430</ele>
        <time>2010-01-01T04:05:38Z</time>
      </trkpt>
      <trkpt lat="42.82939" lon="1.01561">
        <ele>1433</ele>
        <time>2010-01-01T04:05:44Z</time>
      </trkpt>
      <trkpt lat="42.82942" lon="1.0156">
        <ele>1433</ele>
        <time>2010-01-01T04:05:45Z</time>
      </trkpt>
      <trkpt lat="42.82955" lon="1.0155">
        <ele>1435</ele>
        <time>2010-01-01T04:05:51Z</time>
      </trkpt>
      <trkpt lat="42.82948" lon="1.01545">
        <ele>1438</ele>
        <time>2010-01-01T04:05:54Z</time>
      </trkpt>
      <trkpt lat="42.82939" lon="1.01544">
        <ele>1440</ele>
        <time>2010-01-01T04:05:58Z</time>
      </trkpt>
      <trkpt lat="42.82935" lon="1.01543">
        <ele>1441</ele>
        <time>2010-01-01T04:05:59Z</time>
      </trkpt>
      <trkpt lat="42.82913" lon="1.01539">
        <ele>1445</ele>
        <time>2010-01-01T04:06:08Z</time>
      </trkpt>
      <trkpt lat="42.82897" lon="1.01534">
        <ele>1449</ele>
        <time>2010-01-01T04:06:15Z</time>
      </trkpt>
      <trkpt lat="42.8288" lon="1.01536">
        <ele>1457</ele>
        <time>2010-01-01T04:06:22Z</time>
      </trkpt>
      <trkpt lat="42.82861" lon="1.01539">
        <ele>1469</ele>
        <time>2010-01-01T04:06:29Z</time>
      </trkpt>
      <trkpt lat="42.82847" lon="1.01548">
        <ele>1474</ele>
        <time>2010-01-01T04:06:36Z</time>
      </trkpt>
      <trkpt lat="42.82841" lon="1.01552">
        <ele>1477</ele>
        <time>2010-01-01T04:06:38Z</time>
      </trkpt>
      <trkpt lat="42.8284" lon="1.01553">
        <ele>1477</ele>
        <time>2010-01-01T04:06:39Z</time>
      </trkpt>
      <trkpt lat="42.82818" lon="1.01567">
        <ele>1479</ele>
        <time>2010-01-01T04:06:48Z</time>
      </trkpt>
      <trkpt lat="42.82795" lon="1.01576">
        <ele>1480</ele>
        <time>2010-01-01T04:06:58Z</time>
      </trkpt>
      <trkpt lat="42.82788" lon="1.01579">
        <ele>1478</ele>
        <time>2010-01-01T04:07:01Z</time>
      </trkpt>
      <trkpt lat="42.82783" lon="1.01597">
        <ele>1474</ele>
        <time>2010-01-01T04:07:07Z</time>
      </trkpt>
      <trkpt lat="42.82778" lon="1.01611">
        <ele>1473</ele>
        <time>2010-01-01T04:07:11Z</time>
      </trkpt>
      <trkpt lat="42.82773" lon="1.0162">
        <ele>1476</ele>
        <time>2010-01-01T04:07:15Z</time>
      </trkpt>
      <trkpt lat="42.82771" lon="1.0163">
        <ele>1477</ele>
        <time>2010-01-01T04:07:18Z</time>
      </trkpt>
      <trkpt lat="42.8277" lon="1.01636">
        <ele>1478</ele>
        <time>2010-01-01T04:07:19Z</time>
      </trkpt>
      <trkpt lat="42.82765" lon="1.0165">
        <ele>1481</ele>
        <time>2010-01-01T04:07:24Z</time>
      </trkpt>
      <trkpt lat="42.82761" lon="1.01667">
        <ele>1483</ele>
        <time>2010-01-01T04:07:29Z</time>
      </trkpt>
      <trkpt lat="42.82756" lon="1.01667">
        <ele>1486</ele>
        <time>2010-01-01T04:07:31Z</time>
      </trkpt>
      <trkpt lat="42.82753" lon="1.01653">
        <ele>1487</ele>
        <time>2010-01-01T04:07:36Z</time>
      </trkpt>
      <trkpt lat="42.82749" lon="1.01644">
        <ele>1488</ele>
        <time>2010-01-01T04:07:39Z</time>
      </trkpt>
      <trkpt lat="42.82746" lon="1.01626">
        <ele>1487</ele>
        <time>2010-01-01T04:07:44Z</time>
      </trkpt>
      <trkpt lat="42.82744" lon="1.01611">
        <ele>1487</ele>
        <time>2010-01-01T04:07:49Z</time>
      </trkpt>
      <trkpt lat="42.8274" lon="1.01597">
        <ele>1492</ele>
        <time>2010-01-01T04:07:53Z</time>
      </trkpt>
      <trkpt lat="42.82736" lon="1.01612">
        <ele>1493</ele>
        <time>2010-01-01T04:07:58Z</time>
      </trkpt>
      <trkpt lat="42.82734" lon="1.01632">
        <ele>1497</ele>
        <time>2010-01-01T04:08:03Z</time>
      </trkpt>
      <trkpt lat="42.82732" lon="1.01651">
        <ele>1499</ele>
        <time>2010-01-01T04:08:09Z</time>
      </trkpt>
      <trkpt lat="42.82727" lon="1.01639">
        <ele>1502</ele>
        <time>2010-01-01T04:08:13Z</time>
      </trkpt>
      <trkpt lat="42.82725" lon="1.01631">
        <ele>1503</ele>
        <time>2010-01-01T04:08:16Z</time>
      </trkpt>
      <trkpt lat="42.82724" lon="1.01627">
        <ele>1503</ele>
        <time>2010-01-01T04:08:17Z</time>
      </trkpt>
      <trkpt lat="42.82722" lon="1.01609">
        <ele>1505</ele>
        <time>2010-01-01T04:08:22Z</time>
      </trkpt>
      <trkpt lat="42.8272" lon="1.01595">
        <ele>1507</ele>
        <time>2010-01-01T04:08:26Z</time>
      </trkpt>
      <trkpt lat="42.8272" lon="1.01583">
        <ele>1508</ele>
        <time>2010-01-01T04:08:30Z</time>
      </trkpt>
      <trkpt lat="42.82716" lon="1.01583">
        <ele>1512</ele>
        <time>2010-01-01T04:08:32Z</time>
      </trkpt>
      <trkpt lat="42.82712" lon="1.01592">
        <ele>1515</ele>
        <time>2010-01-01T04:08:35Z</time>
      </trkpt>
      <trkpt lat="42.82707" lon="1.01607">
        <ele>1519</ele>
        <time>2010-01-01T04:08:40Z</time>
      </trkpt>
      <trkpt lat="42.82703" lon="1.01621">
        <ele>1522</ele>
        <time>2010-01-01T04:08:44Z</time>
      </trkpt>
      <trkpt lat="42.82702" lon="1.01632">
        <ele>1523</ele>
        <time>2010-01-01T04:08:47Z</time>
      </trkpt>
      <trkpt lat="42.82699" lon="1.01636">
        <ele>1525</ele>
        <time>2010-01-01T04:08:49Z</time>
      </trkpt>
      <trkpt lat="42.82696" lon="1.01629">
        <ele>1528</ele>
        <time>2010-01-01T04:08:51Z</time>
      </trkpt>
      <trkpt lat="42.82696" lon="1.01628">
        <ele>1528</ele>
        <time>2010-01-01T04:08:51Z</time>
      </trkpt>
      <trkpt lat="42.8269" lon="1.01613">
        <ele>1533</ele>
        <time>2010-01-01T04:08:57Z</time>
      </trkpt>
      <trkpt lat="42.82686" lon="1.01598">
        <ele>1536</ele>
        <time>2010-01-01T04:09:01Z</time>
      </trkpt>
      <trkpt lat="42.82687" lon="1.0158">
        <ele>1537</ele>
        <time>2010-01-01T04:09:07Z</time>
      </trkpt>
      <trkpt lat="42.82691" lon="1.01567">
        <ele>1535</ele>
        <time>2010-01-01T04:09:11Z</time>
      </trkpt>
      <trkpt lat="42.82689" lon="1.01568">
        <ele>1536</ele>
        <time>2010-01-01T04:09:12Z</time>
      </trkpt>
      <trkpt lat="42.82682" lon="1.01581">
        <ele>1539</ele>
        <time>2010-01-01T04:09:16Z</time>
      </trkpt>
      <trkpt lat="42.82677" lon="1.01588">
        <ele>1541</ele>
        <time>2010-01-01T04:09:20Z</time>
      </trkpt>
      <trkpt lat="42.82672" lon="1.01601">
        <ele>1543</ele>
        <time>2010-01-01T04:09:24Z</time>
      </trkpt>
      <trkpt lat="42.8267" lon="1.01618">
        <ele>1544</ele>
        <time>2010-01-01T04:09:29Z</time>
      </trkpt>
      <trkpt lat="42.82666" lon="1.0162">
        <ele>1546</ele>
        <time>2010-01-01T04:09:30Z</time>
      </trkpt>
      <trkpt lat="42.82658" lon="1.01608">
        <ele>1550</ele>
        <time>2010-01-01T04:09:35Z</time>
      </trkpt>
      <trkpt lat="42.82654" lon="1.01595">
        <ele>1551</ele>
        <time>2010-01-01T04:09:39Z</time>
      </trkpt>
      <trkpt lat="42.8265" lon="1.01581">
        <ele>1553</ele>
        <time>2010-01-01T04:09:44Z</time>
      </trkpt>
      <trkpt lat="42.82652" lon="1.01572">
        <ele>1552</ele>
        <time>2010-01-01T04:09:47Z</time>
      </trkpt>
      <trkpt lat="42.82651" lon="1.01571">
        <ele>1552</ele>
        <time>2010-01-01T04:09:47Z</time>
      </trkpt>
      <trkpt lat="42.82651" lon="1.0157">
        <ele>1552</ele>
        <time>2010-01-01T04:09:47Z</time>
      </trkpt>
      <trkpt lat="42.82654" lon="1.01556">
        <ele>1551</ele>
        <time>2010-01-01T04:09:52Z</time>
      </trkpt>
      <trkpt lat="42.82654" lon="1.01553">
        <ele>1551</ele>
        <time>2010-01-01T04:09:53Z</time>
      </trkpt>
      <trkpt lat="42.82652" lon="1.01547">
        <ele>1551</ele>
        <time>2010-01-01T04:09:55Z</time>
      </trkpt>
      <trkpt lat="42.82654" lon="1.01539">
        <ele>1549</ele>
        <time>2010-01-01T04:09:57Z</time>
      </trkpt>
      <trkpt lat="42.82654" lon="1.01538">
        <ele>1549</ele>
        <time>2010-01-01T04:09:58Z</time>
      </trkpt>
      <trkpt lat="42.82651" lon="1.01529">
        <ele>1548</ele>
        <time>2010-01-01T04:10:00Z</time>
      </trkpt>
      <trkpt lat="42.82651" lon="1.01528">
        <ele>1548</ele>
        <time>2010-01-01T04:10:01Z</time>
      </trkpt>
      <trkpt lat="42.82653" lon="1.01529">
        <ele>1548</ele>
        <time>2010-01-01T04:10:01Z</time>
      </trkpt>
      <trkpt lat="42.82647" lon="1.01528">
        <ele>1549</ele>
        <time>2010-01-01T04:10:04Z</time>
      </trkpt>
      <trkpt lat="42.82648" lon="1.01529">
        <ele>1549</ele>
        <time>2010-01-01T04:10:05Z</time>
      </trkpt>
      <trkpt lat="42.82648" lon="1.01532">
        <ele>1549</ele>
        <time>2010-01-01T04:10:06Z</time>
      </trkpt>
      <trkpt lat="42.82641" lon="1.01532">
        <ele>1551</ele>
        <time>2010-01-01T04:10:08Z</time>
      </trkpt>
      <trkpt lat="42.82631" lon="1.01522">
        <ele>1555</ele>
        <time>2010-01-01T04:10:13Z</time>
      </trkpt>
      <trkpt lat="42.82631" lon="1.01533">
        <ele>1558</ele>
        <time>2010-01-01T04:10:17Z</time>
      </trkpt>
      <trkpt lat="42.82632" lon="1.01552">
        <ele>1562</ele>
        <time>2010-01-01T04:10:22Z</time>
      </trkpt>
      <trkpt lat="42.82632" lon="1.01557">
        <ele>1563</ele>
        <time>2010-01-01T04:10:24Z</time>
      </trkpt>
      <trkpt lat="42.82627" lon="1.01559">
        <ele>1567</ele>
        <time>2010-01-01T04:10:26Z</time>
      </trkpt>
      <trkpt lat="42.82619" lon="1.01541">
        <ele>1570</ele>
        <time>2010-01-01T04:10:32Z</time>
      </trkpt>
      <trkpt lat="42.82609" lon="1.01531">
        <ele>1574</ele>
        <time>2010-01-01T04:10:37Z</time>
      </trkpt>
      <trkpt lat="42.82608" lon="1.0153">
        <ele>1574</ele>
        <time>2010-01-01T04:10:37Z</time>
      </trkpt>
      <trkpt lat="42.82592" lon="1.01511">
        <ele>1580</ele>
        <time>2010-01-01T04:10:46Z</time>
      </trkpt>
      <trkpt lat="42.82589" lon="1.01508">
        <ele>1582</ele>
        <time>2010-01-01T04:10:47Z</time>
      </trkpt>
      <trkpt lat="42.82581" lon="1.01487">
        <ele>1584</ele>
        <time>2010-01-01T04:10:54Z</time>
      </trkpt>
      <trkpt lat="42.82576" lon="1.01468">
        <ele>1585</ele>
        <time>2010-01-01T04:11:00Z</time>
      </trkpt>
      <trkpt lat="42.82571" lon="1.01443">
        <ele>1586</ele>
        <time>2010-01-01T04:11:08Z</time>
      </trkpt>
      <trkpt lat="42.82568" lon="1.01419">
        <ele>1590</ele>
        <time>2010-01-01T04:11:15Z</time>
      </trkpt>
      <trkpt lat="42.82568" lon="1.014">
        <ele>1595</ele>
        <time>2010-01-01T04:11:20Z</time>
      </trkpt>
      <trkpt lat="42.82568" lon="1.01384">
        <ele>1599</ele>
        <time>2010-01-01T04:11:25Z</time>
      </trkpt>
      <trkpt lat="42.82569" lon="1.0137">
        <ele>1600</ele>
        <time>2010-01-01T04:11:29Z</time>
      </trkpt>
      <trkpt lat="42.82574" lon="1.01349">
        <ele>1598</ele>
        <time>2010-01-01T04:11:36Z</time>
      </trkpt>
      <trkpt lat="42.82578" lon="1.01336">
        <ele>1596</ele>
        <time>2010-01-01T04:11:40Z</time>
      </trkpt>
      <trkpt lat="42.82581" lon="1.01329">
        <ele>1595</ele>
        <time>2010-01-01T04:11:43Z</time>
      </trkpt>
      <trkpt lat="42.82582" lon="1.01325">
        <ele>1596</ele>
        <time>2010-01-01T04:11:44Z</time>
      </trkpt>
      <trkpt lat="42.82582" lon="1.01316">
        <ele>1599</ele>
        <time>2010-01-01T04:11:46Z</time>
      </trkpt>
      <trkpt lat="42.82594" lon="1.0129">
        <ele>1606</ele>
        <time>2010-01-01T04:11:55Z</time>
      </trkpt>
      <trkpt lat="42.826" lon="1.01272">
        <ele>1613</ele>
        <time>2010-01-01T04:12:01Z</time>
      </trkpt>
      <trkpt lat="42.826" lon="1.01261">
        <ele>1617</ele>
        <time>2010-01-01T04:12:04Z</time>
      </trkpt>
      <trkpt lat="42.82573" lon="1.01263">
        <ele>1623</ele>
        <time>2010-01-01T04:12:15Z</time>
      </trkpt>
      <trkpt lat="42.82568" lon="1.01264">
        <ele>1624</ele>
        <time>2010-01-01T04:12:17Z</time>
      </trkpt>
      <trkpt lat="42.82557" lon="1.01267">
        <ele>1627</ele>
        <time>2010-01-01T04:12:22Z</time>
      </trkpt>
      <trkpt lat="42.82556" lon="1.01267">
        <ele>1627</ele>
        <time>2010-01-01T04:12:22Z</time>
      </trkpt>
      <trkpt lat="42.8256" lon="1.01254">
        <ele>1629</ele>
        <time>2010-01-01T04:12:26Z</time>
      </trkpt>
      <trkpt lat="42.82569" lon="1.01231">
        <ele>1637</ele>
        <time>2010-01-01T04:12:34Z</time>
      </trkpt>
      <trkpt lat="42.82579" lon="1.01211">
        <ele>1640</ele>
        <time>2010-01-01T04:12:41Z</time>
      </trkpt>
      <trkpt lat="42.82581" lon="1.01204">
        <ele>1642</ele>
        <time>2010-01-01T04:12:43Z</time>
      </trkpt>
      <trkpt lat="42.82554" lon="1.01213">
        <ele>1653</ele>
        <time>2010-01-01T04:12:55Z</time>
      </trkpt>
      <trkpt lat="42.82536" lon="1.01232">
        <ele>1671</ele>
        <time>2010-01-01T04:13:04Z</time>
      </trkpt>
      <trkpt lat="42.82535" lon="1.01234">
        <ele>1672</ele>
        <time>2010-01-01T04:13:04Z</time>
      </trkpt>
      <trkpt lat="42.82523" lon="1.01251">
        <ele>1678</ele>
        <time>2010-01-01T04:13:12Z</time>
      </trkpt>
      <trkpt lat="42.82519" lon="1.01269">
        <ele>1664</ele>
        <time>2010-01-01T04:13:17Z</time>
      </trkpt>
      <trkpt lat="42.82518" lon="1.01276">
        <ele>1659</ele>
        <time>2010-01-01T04:13:19Z</time>
      </trkpt>
      <trkpt lat="42.82513" lon="1.01291">
        <ele>1654</ele>
        <time>2010-01-01T04:13:24Z</time>
      </trkpt>
      <trkpt lat="42.82508" lon="1.01291">
        <ele>1655</ele>
        <time>2010-01-01T04:13:26Z</time>
      </trkpt>
      <trkpt lat="42.82506" lon="1.01285">
        <ele>1657</ele>
        <time>2010-01-01T04:13:28Z</time>
      </trkpt>
      <trkpt lat="42.825" lon="1.01283">
        <ele>1659</ele>
        <time>2010-01-01T04:13:31Z</time>
      </trkpt>
      <trkpt lat="42.82497" lon="1.01288">
        <ele>1658</ele>
        <time>2010-01-01T04:13:33Z</time>
      </trkpt>
      <trkpt lat="42.82494" lon="1.01285">
        <ele>1659</ele>
        <time>2010-01-01T04:13:34Z</time>
      </trkpt>
      <trkpt lat="42.82495" lon="1.01285">
        <ele>1659</ele>
        <time>2010-01-01T04:13:34Z</time>
      </trkpt>
      <trkpt lat="42.82494" lon="1.01281">
        <ele>1660</ele>
        <time>2010-01-01T04:13:35Z</time>
      </trkpt>
      <trkpt lat="42.82492" lon="1.01269">
        <ele>1665</ele>
        <time>2010-01-01T04:13:39Z</time>
      </trkpt>
      <trkpt lat="42.82494" lon="1.01252">
        <ele>1674</ele>
        <time>2010-01-01T04:13:44Z</time>
      </trkpt>
      <trkpt lat="42.82491" lon="1.01246">
        <ele>1677</ele>
        <time>2010-01-01T04:13:46Z</time>
      </trkpt>
      <trkpt lat="42.8249" lon="1.01244">
        <ele>1678</ele>
        <time>2010-01-01T04:13:47Z</time>
      </trkpt>
      <trkpt lat="42.82491" lon="1.01245">
        <ele>1677</ele>
        <time>2010-01-01T04:13:47Z</time>
      </trkpt>
      <trkpt lat="42.82488" lon="1.01237">
        <ele>1682</ele>
        <time>2010-01-01T04:13:50Z</time>
      </trkpt>
      <trkpt lat="42.82484" lon="1.01227">
        <ele>1688</ele>
        <time>2010-01-01T04:13:53Z</time>
      </trkpt>
      <trkpt lat="42.82483" lon="1.01219">
        <ele>1690</ele>
        <time>2010-01-01T04:13:56Z</time>
      </trkpt>
      <trkpt lat="42.8248" lon="1.01207">
        <ele>1692</ele>
        <time>2010-01-01T04:14:00Z</time>
      </trkpt>
      <trkpt lat="42.82478" lon="1.01201">
        <ele>1692</ele>
        <time>2010-01-01T04:14:01Z</time>
      </trkpt>
      <trkpt lat="42.8248" lon="1.01199">
        <ele>1692</ele>
        <time>2010-01-01T04:14:02Z</time>
      </trkpt>
      <trkpt lat="42.82482" lon="1.01185">
        <ele>1692</ele>
        <time>2010-01-01T04:14:06Z</time>
      </trkpt>
      <trkpt lat="42.82481" lon="1.01182">
        <ele>1692</ele>
        <time>2010-01-01T04:14:07Z</time>
      </trkpt>
      <trkpt lat="42.82478" lon="1.01182">
        <ele>1693</ele>
        <time>2010-01-01T04:14:08Z</time>
      </trkpt>
      <trkpt lat="42.82475" lon="1.01183">
        <ele>1695</ele>
        <time>2010-01-01T04:14:10Z</time>
      </trkpt>
      <trkpt lat="42.82473" lon="1.01191">
        <ele>1695</ele>
        <time>2010-01-01T04:14:12Z</time>
      </trkpt>
      <trkpt lat="42.82472" lon="1.01189">
        <ele>1695</ele>
        <time>2010-01-01T04:14:13Z</time>
      </trkpt>
      <trkpt lat="42.82474" lon="1.01187">
        <ele>1695</ele>
        <time>2010-01-01T04:14:14Z</time>
      </trkpt>
      <trkpt lat="42.82472" lon="1.0119">
        <ele>1695</ele>
        <time>2010-01-01T04:14:15Z</time>
      </trkpt>
      <trkpt lat="42.82465" lon="1.01197">
        <ele>1700</ele>
        <time>2010-01-01T04:14:18Z</time>
      </trkpt>
      <trkpt lat="42.82459" lon="1.01203">
        <ele>1704</ele>
        <time>2010-01-01T04:14:21Z</time>
      </trkpt>
      <trkpt lat="42.82455" lon="1.01211">
        <ele>1706</ele>
        <time>2010-01-01T04:14:24Z</time>
      </trkpt>
      <trkpt lat="42.82452" lon="1.01217">
        <ele>1707</ele>
        <time>2010-01-01T04:14:26Z</time>
      </trkpt>
      <trkpt lat="42.82452" lon="1.01218">
        <ele>1706</ele>
        <time>2010-01-01T04:14:26Z</time>
      </trkpt>
      <trkpt lat="42.8245" lon="1.01219">
        <ele>1707</ele>
        <time>2010-01-01T04:14:27Z</time>
      </trkpt>
      <trkpt lat="42.82445" lon="1.01224">
        <ele>1708</ele>
        <time>2010-01-01T04:14:30Z</time>
      </trkpt>
      <trkpt lat="42.82443" lon="1.01228">
        <ele>1707</ele>
        <time>2010-01-01T04:14:31Z</time>
      </trkpt>
      <trkpt lat="42.82433" lon="1.01245">
        <ele>1704</ele>
        <time>2010-01-01T04:14:38Z</time>
      </trkpt>
      <trkpt lat="42.82432" lon="1.0125">
        <ele>1703</ele>
        <time>2010-01-01T04:14:39Z</time>
      </trkpt>
      <trkpt lat="42.82431" lon="1.01254">
        <ele>1703</ele>
        <time>2010-01-01T04:14:40Z</time>
      </trkpt>
      <trkpt lat="42.82427" lon="1.01258">
        <ele>1705</ele>
        <time>2010-01-01T04:14:42Z</time>
      </trkpt>
      <trkpt lat="42.82426" lon="1.01255">
        <ele>1707</ele>
        <time>2010-01-01T04:14:43Z</time>
      </trkpt>
      <trkpt lat="42.82427" lon="1.01243">
        <ele>1711</ele>
        <time>2010-01-01T04:14:47Z</time>
      </trkpt>
      <trkpt lat="42.82428" lon="1.01235">
        <ele>1713</ele>
        <time>2010-01-01T04:14:49Z</time>
      </trkpt>
      <trkpt lat="42.82429" lon="1.0122">
        <ele>1718</ele>
        <time>2010-01-01T04:14:54Z</time>
      </trkpt>
      <trkpt lat="42.82428" lon="1.01207">
        <ele>1722</ele>
        <time>2010-01-01T04:14:58Z</time>
      </trkpt>
      <trkpt lat="42.8243" lon="1.01201">
        <ele>1723</ele>
        <time>2010-01-01T04:14:59Z</time>
      </trkpt>
      <trkpt lat="42.8243" lon="1.01193">
        <ele>1724</ele>
        <time>2010-01-01T04:15:02Z</time>
      </trkpt>
      <trkpt lat="42.82431" lon="1.01182">
        <ele>1725</ele>
        <time>2010-01-01T04:15:05Z</time>
      </trkpt>
      <trkpt lat="42.82431" lon="1.01184">
        <ele>1725</ele>
        <time>2010-01-01T04:15:06Z</time>
      </trkpt>
      <trkpt lat="42.8243" lon="1.01183">
        <ele>1726</ele>
        <time>2010-01-01T04:15:06Z</time>
      </trkpt>
      <trkpt lat="42.82434" lon="1.01168">
        <ele>1725</ele>
        <time>2010-01-01T04:15:11Z</time>
      </trkpt>
      <trkpt lat="42.82437" lon="1.01161">
        <ele>1724</ele>
        <time>2010-01-01T04:15:13Z</time>
      </trkpt>
      <trkpt lat="42.82443" lon="1.01147">
        <ele>1720</ele>
        <time>2010-01-01T04:15:18Z</time>
      </trkpt>
      <trkpt lat="42.82452" lon="1.01131">
        <ele>1717</ele>
        <time>2010-01-01T04:15:24Z</time>
      </trkpt>
      <trkpt lat="42.82454" lon="1.01114">
        <ele>1720</ele>
        <time>2010-01-01T04:15:29Z</time>
      </trkpt>
      <trkpt lat="42.82453" lon="1.01105">
        <ele>1722</ele>
        <time>2010-01-01T04:15:31Z</time>
      </trkpt>
      <trkpt lat="42.82454" lon="1.01096">
        <ele>1724</ele>
        <time>2010-01-01T04:15:34Z</time>
      </trkpt>
      <trkpt lat="42.82455" lon="1.01094">
        <ele>1724</ele>
        <time>2010-01-01T04:15:35Z</time>
      </trkpt>
      <trkpt lat="42.82456" lon="1.01093">
        <ele>1724</ele>
        <time>2010-01-01T04:15:35Z</time>
      </trkpt>
      <trkpt lat="42.82455" lon="1.01093">
        <ele>1724</ele>
        <time>2010-01-01T04:15:36Z</time>
      </trkpt>
      <trkpt lat="42.82454" lon="1.0108">
        <ele>1728</ele>
        <time>2010-01-01T04:15:39Z</time>
      </trkpt>
      <trkpt lat="42.82451" lon="1.01073">
        <ele>1730</ele>
        <time>2010-01-01T04:15:42Z</time>
      </trkpt>
      <trkpt lat="42.82449" lon="1.01061">
        <ele>1734</ele>
        <time>2010-01-01T04:15:45Z</time>
      </trkpt>
      <trkpt lat="42.82451" lon="1.01045">
        <ele>1738</ele>
        <time>2010-01-01T04:15:50Z</time>
      </trkpt>
      <trkpt lat="42.82454" lon="1.01032">
        <ele>1742</ele>
        <time>2010-01-01T04:15:54Z</time>
      </trkpt>
      <trkpt lat="42.82451" lon="1.01027">
        <ele>1743</ele>
        <time>2010-01-01T04:15:56Z</time>
      </trkpt>
      <trkpt lat="42.82439" lon="1.01036">
        <ele>1741</ele>
        <time>2010-01-01T04:16:01Z</time>
      </trkpt>
      <trkpt lat="42.82435" lon="1.01045">
        <ele>1740</ele>
        <time>2010-01-01T04:16:04Z</time>
      </trkpt>
      <trkpt lat="42.82428" lon="1.01064">
        <ele>1736</ele>
        <time>2010-01-01T04:16:10Z</time>
      </trkpt>
      <trkpt lat="42.82425" lon="1.0107">
        <ele>1735</ele>
        <time>2010-01-01T04:16:13Z</time>
      </trkpt>
      <trkpt lat="42.82417" lon="1.01081">
        <ele>1736</ele>
        <time>2010-01-01T04:16:17Z</time>
      </trkpt>
      <trkpt lat="42.82407" lon="1.01094">
        <ele>1741</ele>
        <time>2010-01-01T04:16:23Z</time>
      </trkpt>
      <trkpt lat="42.82399" lon="1.01101">
        <ele>1744</ele>
        <time>2010-01-01T04:16:26Z</time>
      </trkpt>
      <trkpt lat="42.82396" lon="1.01103">
        <ele>1745</ele>
        <time>2010-01-01T04:16:28Z</time>
      </trkpt>
      <trkpt lat="42.82395" lon="1.01105">
        <ele>1745</ele>
        <time>2010-01-01T04:16:29Z</time>
      </trkpt>
      <trkpt lat="42.82392" lon="1.01107">
        <ele>1746</ele>
        <time>2010-01-01T04:16:30Z</time>
      </trkpt>
      <trkpt lat="42.82379" lon="1.01114">
        <ele>1747</ele>
        <time>2010-01-01T04:16:35Z</time>
      </trkpt>
      <trkpt lat="42.82378" lon="1.01116">
        <ele>1746</ele>
        <time>2010-01-01T04:16:36Z</time>
      </trkpt>
      <trkpt lat="42.82366" lon="1.01126">
        <ele>1742</ele>
        <time>2010-01-01T04:16:42Z</time>
      </trkpt>
      <trkpt lat="42.82363" lon="1.01129">
        <ele>1740</ele>
        <time>2010-01-01T04:16:43Z</time>
      </trkpt>
      <trkpt lat="42.82366" lon="1.01129">
        <ele>1740</ele>
        <time>2010-01-01T04:16:45Z</time>
      </trkpt>
      <trkpt lat="42.82369" lon="1.01121">
        <ele>1744</ele>
        <time>2010-01-01T04:16:48Z</time>
      </trkpt>
      <trkpt lat="42.82374" lon="1.01108">
        <ele>1750</ele>
        <time>2010-01-01T04:16:52Z</time>
      </trkpt>
      <trkpt lat="42.82375" lon="1.01103">
        <ele>1753</ele>
        <time>2010-01-01T04:16:53Z</time>
      </trkpt>
      <trkpt lat="42.82376" lon="1.011">
        <ele>1754</ele>
        <time>2010-01-01T04:16:54Z</time>
      </trkpt>
      <trkpt lat="42.82378" lon="1.01095">
        <ele>1756</ele>
        <time>2010-01-01T04:16:56Z</time>
      </trkpt>
      <trkpt lat="42.82383" lon="1.01076">
        <ele>1760</ele>
        <time>2010-01-01T04:17:02Z</time>
      </trkpt>
      <trkpt lat="42.82386" lon="1.01056">
        <ele>1765</ele>
        <time>2010-01-01T04:17:08Z</time>
      </trkpt>
      <trkpt lat="42.82388" lon="1.0104">
        <ele>1772</ele>
        <time>2010-01-01T04:17:13Z</time>
      </trkpt>
      <trkpt lat="42.82392" lon="1.01019">
        <ele>1777</ele>
        <time>2010-01-01T04:17:19Z</time>
      </trkpt>
      <trkpt lat="42.82392" lon="1.00998">
        <ele>1784</ele>
        <time>2010-01-01T04:17:25Z</time>
      </trkpt>
      <trkpt lat="42.82394" lon="1.00991">
        <ele>1783</ele>
        <time>2010-01-01T04:17:27Z</time>
      </trkpt>
      <trkpt lat="42.82396" lon="1.00991">
        <ele>1782</ele>
        <time>2010-01-01T04:17:28Z</time>
      </trkpt>
      <trkpt lat="42.82396" lon="1.00992">
        <ele>1781</ele>
        <time>2010-01-01T04:17:29Z</time>
      </trkpt>
      <trkpt lat="42.82398" lon="1.00987">
        <ele>1781</ele>
        <time>2010-01-01T04:17:30Z</time>
      </trkpt>
      <trkpt lat="42.824" lon="1.00972">
        <ele>1781</ele>
        <time>2010-01-01T04:17:35Z</time>
      </trkpt>
      <trkpt lat="42.82403" lon="1.00963">
        <ele>1781</ele>
        <time>2010-01-01T04:17:37Z</time>
      </trkpt>
      <trkpt lat="42.82414" lon="1.00954">
        <ele>1774</ele>
        <time>2010-01-01T04:17:43Z</time>
      </trkpt>
      <trkpt lat="42.82419" lon="1.00944">
        <ele>1773</ele>
        <time>2010-01-01T04:17:46Z</time>
      </trkpt>
      <trkpt lat="42.82423" lon="1.00928">
        <ele>1778</ele>
        <time>2010-01-01T04:17:51Z</time>
      </trkpt>
      <trkpt lat="42.82432" lon="1.00907">
        <ele>1785</ele>
        <time>2010-01-01T04:17:58Z</time>
      </trkpt>
      <trkpt lat="42.82434" lon="1.00903">
        <ele>1787</ele>
        <time>2010-01-01T04:18:00Z</time>
      </trkpt>
      <trkpt lat="42.82438" lon="1.009">
        <ele>1787</ele>
        <time>2010-01-01T04:18:02Z</time>
      </trkpt>
      <trkpt lat="42.8244" lon="1.00891">
        <ele>1790</ele>
        <time>2010-01-01T04:18:04Z</time>
      </trkpt>
      <trkpt lat="42.82444" lon="1.00879">
        <ele>1793</ele>
        <time>2010-01-01T04:18:08Z</time>
      </trkpt>
      <trkpt lat="42.82448" lon="1.00873">
        <ele>1794</ele>
        <time>2010-01-01T04:18:11Z</time>
      </trkpt>
      <trkpt lat="42.82448" lon="1.00866">
        <ele>1797</ele>
        <time>2010-01-01T04:18:13Z</time>
      </trkpt>
      <trkpt lat="42.82455" lon="1.00857">
        <ele>1799</ele>
        <time>2010-01-01T04:18:17Z</time>
      </trkpt>
      <trkpt lat="42.82461" lon="1.00855">
        <ele>1799</ele>
        <time>2010-01-01T04:18:19Z</time>
      </trkpt>
      <trkpt lat="42.82461" lon="1.00853">
        <ele>1800</ele>
        <time>2010-01-01T04:18:19Z</time>
      </trkpt>
      <trkpt lat="42.8246" lon="1.00853">
        <ele>1800</ele>
        <time>2010-01-01T04:18:19Z</time>
      </trkpt>
      <trkpt lat="42.8246" lon="1.00853">
        <ele>1800</ele>
        <time>2010-01-01T04:18:20Z</time>
      </trkpt>
      <trkpt lat="42.82463" lon="1.00851">
        <ele>1801</ele>
        <time>2010-01-01T04:18:21Z</time>
      </trkpt>
      <trkpt lat="42.82469" lon="1.00846">
        <ele>1802</ele>
        <time>2010-01-01T04:18:24Z</time>
      </trkpt>
      <trkpt lat="42.82477" lon="1.00839">
        <ele>1805</ele>
        <time>2010-01-01T04:18:27Z</time>
      </trkpt>
      <trkpt lat="42.82479" lon="1.00835">
        <ele>1807</ele>
        <time>2010-01-01T04:18:29Z</time>
      </trkpt>
      <trkpt lat="42.82483" lon="1.00831">
        <ele>1809</ele>
        <time>2010-01-01T04:18:31Z</time>
      </trkpt>
      <trkpt lat="42.82485" lon="1.0083">
        <ele>1810</ele>
        <time>2010-01-01T04:18:32Z</time>
      </trkpt>
      <trkpt lat="42.82504" lon="1.00824">
        <ele>1816</ele>
        <time>2010-01-01T04:18:40Z</time>
      </trkpt>
      <trkpt lat="42.8251" lon="1.00822">
        <ele>1820</ele>
        <time>2010-01-01T04:18:42Z</time>
      </trkpt>
      <trkpt lat="42.82511" lon="1.00822">
        <ele>1820</ele>
        <time>2010-01-01T04:18:42Z</time>
      </trkpt>
      <trkpt lat="42.82523" lon="1.00825">
        <ele>1823</ele>
        <time>2010-01-01T04:18:48Z</time>
      </trkpt>
      <trkpt lat="42.82528" lon="1.00825">
        <ele>1825</ele>
        <time>2010-01-01T04:18:49Z</time>
      </trkpt>
      <trkpt lat="42.82533" lon="1.00826">
        <ele>1825</ele>
        <time>2010-01-01T04:18:51Z</time>
      </trkpt>
      <trkpt lat="42.82538" lon="1.00829">
        <ele>1824</ele>
        <time>2010-01-01T04:18:54Z</time>
      </trkpt>
      <trkpt lat="42.82544" lon="1.00831">
        <ele>1823</ele>
        <time>2010-01-01T04:18:56Z</time>
      </trkpt>
      <trkpt lat="42.8256" lon="1.00838">
        <ele>1822</ele>
        <time>2010-01-01T04:19:03Z</time>
      </trkpt>
      <trkpt lat="42.82568" lon="1.00849">
        <ele>1819</ele>
        <time>2010-01-01T04:19:07Z</time>
      </trkpt>
      <trkpt lat="42.82573" lon="1.00866">
        <ele>1813</ele>
        <time>2010-01-01T04:19:13Z</time>
      </trkpt>
      <trkpt lat="42.82585" lon="1.00881">
        <ele>1811</ele>
        <time>2010-01-01T04:19:19Z</time>
      </trkpt>
      <trkpt lat="42.82595" lon="1.00885">
        <ele>1808</ele>
        <time>2010-01-01T04:19:23Z</time>
      </trkpt>
      <trkpt lat="42.82605" lon="1.00887">
        <ele>1807</ele>
        <time>2010-01-01T04:19:27Z</time>
      </trkpt>
      <trkpt lat="42.82605" lon="1.00888">
        <ele>1806</ele>
        <time>2010-01-01T04:19:28Z</time>
      </trkpt>
      <trkpt lat="42.8261" lon="1.0089">
        <ele>1805</ele>
        <time>2010-01-01T04:19:29Z</time>
      </trkpt>
      <trkpt lat="42.82612" lon="1.0089">
        <ele>1805</ele>
        <time>2010-01-01T04:19:30Z</time>
      </trkpt>
      <trkpt lat="42.82614" lon="1.00888">
        <ele>1805</ele>
        <time>2010-01-01T04:19:31Z</time>
      </trkpt>
      <trkpt lat="42.82619" lon="1.00886">
        <ele>1804</ele>
        <time>2010-01-01T04:19:33Z</time>
      </trkpt>
      <trkpt lat="42.82625" lon="1.00879">
        <ele>1806</ele>
        <time>2010-01-01T04:19:36Z</time>
      </trkpt>
      <trkpt lat="42.82638" lon="1.00863">
        <ele>1814</ele>
        <time>2010-01-01T04:19:43Z</time>
      </trkpt>
      <trkpt lat="42.8264" lon="1.00861">
        <ele>1815</ele>
        <time>2010-01-01T04:19:45Z</time>
      </trkpt>
      <trkpt lat="42.82644" lon="1.0085">
        <ele>1819</ele>
        <time>2010-01-01T04:19:48Z</time>
      </trkpt>
      <trkpt lat="42.82648" lon="1.00845">
        <ele>1820</ele>
        <time>2010-01-01T04:19:50Z</time>
      </trkpt>
      <trkpt lat="42.82656" lon="1.00836">
        <ele>1820</ele>
        <time>2010-01-01T04:19:54Z</time>
      </trkpt>
      <trkpt lat="42.82661" lon="1.00825">
        <ele>1823</ele>
        <time>2010-01-01T04:19:58Z</time>
      </trkpt>
      <trkpt lat="42.82665" lon="1.0082">
        <ele>1824</ele>
        <time>2010-01-01T04:20:00Z</time>
      </trkpt>
      <trkpt lat="42.82674" lon="1.00801">
        <ele>1836</ele>
        <time>2010-01-01T04:20:07Z</time>
      </trkpt>
      <trkpt lat="42.82681" lon="1.0079">
        <ele>1841</ele>
        <time>2010-01-01T04:20:11Z</time>
      </trkpt>
      <trkpt lat="42.82683" lon="1.00788">
        <ele>1842</ele>
        <time>2010-01-01T04:20:12Z</time>
      </trkpt>
      <trkpt lat="42.82698" lon="1.00776">
        <ele>1843</ele>
        <time>2010-01-01T04:20:19Z</time>
      </trkpt>
      <trkpt lat="42.82709" lon="1.00766">
        <ele>1833</ele>
        <time>2010-01-01T04:20:24Z</time>
      </trkpt>
      <trkpt lat="42.82711" lon="1.00764">
        <ele>1831</ele>
        <time>2010-01-01T04:20:26Z</time>
      </trkpt>
      <trkpt lat="42.82729" lon="1.0074">
        <ele>1818</ele>
        <time>2010-01-01T04:20:36Z</time>
      </trkpt>
      <trkpt lat="42.82734" lon="1.00732">
        <ele>1814</ele>
        <time>2010-01-01T04:20:39Z</time>
      </trkpt>
      <trkpt lat="42.82745" lon="1.00716">
        <ele>1810</ele>
        <time>2010-01-01T04:20:45Z</time>
      </trkpt>
      <trkpt lat="42.82749" lon="1.0071">
        <ele>1810</ele>
        <time>2010-01-01T04:20:48Z</time>
      </trkpt>
      <trkpt lat="42.82758" lon="1.00695">
        <ele>1815</ele>
        <time>2010-01-01T04:20:53Z</time>
      </trkpt>
      <trkpt lat="42.82763" lon="1.00683">
        <ele>1819</ele>
        <time>2010-01-01T04:20:57Z</time>
      </trkpt>
      <trkpt lat="42.82772" lon="1.00661">
        <ele>1824</ele>
        <time>2010-01-01T04:21:05Z</time>
      </trkpt>
      <trkpt lat="42.82781" lon="1.00646">
        <ele>1820</ele>
        <time>2010-01-01T04:21:11Z</time>
      </trkpt>
      <trkpt lat="42.82804" lon="1.00617">
        <ele>1797</ele>
        <time>2010-01-01T04:21:23Z</time>
      </trkpt>
      <trkpt lat="42.82822" lon="1.00596">
        <ele>1794</ele>
        <time>2010-01-01T04:21:32Z</time>
      </trkpt>
      <trkpt lat="42.82843" lon="1.00574">
        <ele>1796</ele>
        <time>2010-01-01T04:21:43Z</time>
      </trkpt>
      <trkpt lat="42.82864" lon="1.00562">
        <ele>1805</ele>
        <time>2010-01-01T04:21:52Z</time>
      </trkpt>
      <trkpt lat="42.82886" lon="1.00552">
        <ele>1810</ele>
        <time>2010-01-01T04:22:01Z</time>
      </trkpt>
      <trkpt lat="42.82894" lon="1.00546">
        <ele>1812</ele>
        <time>2010-01-01T04:22:05Z</time>
      </trkpt>
      <trkpt lat="42.82897" lon="1.00545">
        <ele>1812</ele>
        <time>2010-01-01T04:22:06Z</time>
      </trkpt>
      <trkpt lat="42.82901" lon="1.00542">
        <ele>1812</ele>
        <time>2010-01-01T04:22:08Z</time>
      </trkpt>
      <trkpt lat="42.82917" lon="1.00538">
        <ele>1811</ele>
        <time>2010-01-01T04:22:14Z</time>
      </trkpt>
      <trkpt lat="42.82922" lon="1.00534">
        <ele>1814</ele>
        <time>2010-01-01T04:22:17Z</time>
      </trkpt>
      <trkpt lat="42.82924" lon="1.00525">
        <ele>1818</ele>
        <time>2010-01-01T04:22:20Z</time>
      </trkpt>
      <trkpt lat="42.82916" lon="1.00517">
        <ele>1817</ele>
        <time>2010-01-01T04:22:24Z</time>
      </trkpt>
      <trkpt lat="42.82909" lon="1.00515">
        <ele>1818</ele>
        <time>2010-01-01T04:22:26Z</time>
      </trkpt>
      <trkpt lat="42.82903" lon="1.00507">
        <ele>1820</ele>
        <time>2010-01-01T04:22:30Z</time>
      </trkpt>
      <trkpt lat="42.82898" lon="1.005">
        <ele>1821</ele>
        <time>2010-01-01T04:22:33Z</time>
      </trkpt>
      <trkpt lat="42.82904" lon="1.00492">
        <ele>1820</ele>
        <time>2010-01-01T04:22:36Z</time>
      </trkpt>
      <trkpt lat="42.82909" lon="1.00481">
        <ele>1820</ele>
        <time>2010-01-01T04:22:40Z</time>
      </trkpt>
      <trkpt lat="42.8291" lon="1.0047">
        <ele>1820</ele>
        <time>2010-01-01T04:22:43Z</time>
      </trkpt>
      <trkpt lat="42.82912" lon="1.00459">
        <ele>1820</ele>
        <time>2010-01-01T04:22:47Z</time>
      </trkpt>
      <trkpt lat="42.82905" lon="1.00453">
        <ele>1820</ele>
        <time>2010-01-01T04:22:50Z</time>
      </trkpt>
      <trkpt lat="42.82901" lon="1.00453">
        <ele>1819</ele>
        <time>2010-01-01T04:22:51Z</time>
      </trkpt>
      <trkpt lat="42.82896" lon="1.0045">
        <ele>1818</ele>
        <time>2010-01-01T04:22:54Z</time>
      </trkpt>
      <trkpt lat="42.82892" lon="1.00449">
        <ele>1817</ele>
        <time>2010-01-01T04:22:55Z</time>
      </trkpt>
      <trkpt lat="42.82893" lon="1.00449">
        <ele>1818</ele>
        <time>2010-01-01T04:22:56Z</time>
      </trkpt>
      <trkpt lat="42.82901" lon="1.00454">
        <ele>1819</ele>
        <time>2010-01-01T04:22:59Z</time>
      </trkpt>
      <trkpt lat="42.82897" lon="1.00451">
        <ele>1818</ele>
        <time>2010-01-01T04:23:01Z</time>
      </trkpt>
      <trkpt lat="42.82893" lon="1.0045">
        <ele>1818</ele>
        <time>2010-01-01T04:23:03Z</time>
      </trkpt>
      <trkpt lat="42.82901" lon="1.00453">
        <ele>1819</ele>
        <time>2010-01-01T04:23:06Z</time>
      </trkpt>
      <trkpt lat="42.82899" lon="1.00453">
        <ele>1819</ele>
        <time>2010-01-01T04:23:07Z</time>
      </trkpt>
      <trkpt lat="42.82902" lon="1.00454">
        <ele>1819</ele>
        <time>2010-01-01T04:23:07Z</time>
      </trkpt>
      <trkpt lat="42.82896" lon="1.00447">
        <ele>1818</ele>
        <time>2010-01-01T04:23:10Z</time>
      </trkpt>
      <trkpt lat="42.82891" lon="1.00438">
        <ele>1817</ele>
        <time>2010-01-01T04:23:14Z</time>
      </trkpt>
      <trkpt lat="42.82876" lon="1.00418">
        <ele>1821</ele>
        <time>2010-01-01T04:23:22Z</time>
      </trkpt>
      <trkpt lat="42.82875" lon="1.00417">
        <ele>1821</ele>
        <time>2010-01-01T04:23:23Z</time>
      </trkpt>
      <trkpt lat="42.82864" lon="1.0041">
        <ele>1824</ele>
        <time>2010-01-01T04:23:27Z</time>
      </trkpt>
      <trkpt lat="42.82864" lon="1.00409">
        <ele>1824</ele>
        <time>2010-01-01T04:23:28Z</time>
      </trkpt>
      <trkpt lat="42.8286" lon="1.00408">
        <ele>1824</ele>
        <time>2010-01-01T04:23:29Z</time>
      </trkpt>
      <trkpt lat="42.82859" lon="1.00406">
        <ele>1824</ele>
        <time>2010-01-01T04:23:30Z</time>
      </trkpt>
      <trkpt lat="42.82858" lon="1.00407">
        <ele>1824</ele>
        <time>2010-01-01T04:23:31Z</time>
      </trkpt>
      <trkpt lat="42.82859" lon="1.00406">
        <ele>1824</ele>
        <time>2010-01-01T04:23:31Z</time>
      </trkpt>
      <trkpt lat="42.82859" lon="1.00406">
        <ele>1824</ele>
        <time>2010-01-01T04:23:31Z</time>
      </trkpt>
      <trkpt lat="42.82859" lon="1.00405">
        <ele>1824</ele>
        <time>2010-01-01T04:23:31Z</time>
      </trkpt>
      <trkpt lat="42.82859" lon="1.00406">
        <ele>1824</ele>
        <time>2010-01-01T04:23:32Z</time>
      </trkpt>
      <trkpt lat="42.82859" lon="1.00405">
        <ele>1824</ele>
        <time>2010-01-01T04:23:32Z</time>
      </trkpt>
      <trkpt lat="42.8286" lon="1.00406">
        <ele>1824</ele>
        <time>2010-01-01T04:23:32Z</time>
      </trkpt>
      <trkpt lat="42.82859" lon="1.00406">
        <ele>1824</ele>
        <time>2010-01-01T04:23:32Z</time>
      </trkpt>
      <trkpt lat="42.82859" lon="1.00405">
        <ele>1824</ele>
        <time>2010-01-01T04:23:32Z</time>
      </trkpt>
      <trkpt lat="42.82859" lon="1.00405">
        <ele>1824</ele>
        <time>2010-01-01T04:23:33Z</time>
      </trkpt>
      <trkpt lat="42.82859" lon="1.00406">
        <ele>1824</ele>
        <time>2010-01-01T04:23:33Z</time>
      </trkpt>
      <trkpt lat="42.82859" lon="1.00406">
        <ele>1824</ele>
        <time>2010-01-01T04:23:33Z</time>
      </trkpt>
      <trkpt lat="42.82859" lon="1.00405">
        <ele>1824</ele>
        <time>2010-01-01T04:23:33Z</time>
      </trkpt>
      <trkpt lat="42.82859" lon="1.00406">
        <ele>1824</ele>
        <time>2010-01-01T04:23:34Z</time>
      </trkpt>
      <trkpt lat="42.8286" lon="1.00405">
        <ele>1824</ele>
        <time>2010-01-01T04:23:34Z</time>
      </trkpt>
      <trkpt lat="42.82859" lon="1.00406">
        <ele>1824</ele>
        <time>2010-01-01T04:23:35Z</time>
      </trkpt>
      <trkpt lat="42.82859" lon="1.00405">
        <ele>1824</ele>
        <time>2010-01-01T04:23:35Z</time>
      </trkpt>
      <trkpt lat="42.82858" lon="1.00406">
        <ele>1824</ele>
        <time>2010-01-01T04:23:35Z</time>
      </trkpt>
      <trkpt lat="42.82858" lon="1.00406">
        <ele>1824</ele>
        <time>2010-01-01T04:23:35Z</time>
      </trkpt>
      <trkpt lat="42.8286" lon="1.00406">
        <ele>1824</ele>
        <time>2010-01-01T04:23:36Z</time>
      </trkpt>
      <trkpt lat="42.82859" lon="1.00405">
        <ele>1824</ele>
        <time>2010-01-01T04:23:36Z</time>
      </trkpt>
      <trkpt lat="42.82859" lon="1.00406">
        <ele>1824</ele>
        <time>2010-01-01T04:23:36Z</time>
      </trkpt>
      <trkpt lat="42.82859" lon="1.00406">
        <ele>1824</ele>
        <time>2010-01-01T04:23:36Z</time>
      </trkpt>
      <trkpt lat="42.82859" lon="1.00406">
        <ele>1824</ele>
        <time>2010-01-01T04:23:37Z</time>
      </trkpt>
      <trkpt lat="42.8286" lon="1.00405">
        <ele>1824</ele>
        <time>2010-01-01T04:23:37Z</time>
      </trkpt>
      <trkpt lat="42.82859" lon="1.00406">
        <ele>1824</ele>
        <time>2010-01-01T04:23:37Z</time>
      </trkpt>
      <trkpt lat="42.82862" lon="1.00407">
        <ele>1824</ele>
        <time>2010-01-01T04:23:39Z</time>
      </trkpt>
      <trkpt lat="42.82863" lon="1.00405">
        <ele>1824</ele>
        <time>2010-01-01T04:23:40Z</time>
      </trkpt>
      <trkpt lat="42.82867" lon="1.00396">
        <ele>1823</ele>
        <time>2010-01-01T04:23:43Z</time>
      </trkpt>
      <trkpt lat="42.82869" lon="1.00392">
        <ele>1822</ele>
        <time>2010-01-01T04:23:44Z</time>
      </trkpt>
      <trkpt lat="42.82875" lon="1.00382">
        <ele>1819</ele>
        <time>2010-01-01T04:23:48Z</time>
      </trkpt>
      <trkpt lat="42.82876" lon="1.0038">
        <ele>1819</ele>
        <time>2010-01-01T04:23:49Z</time>
      </trkpt>
      <trkpt lat="42.82878" lon="1.00378">
        <ele>1818</ele>
        <time>2010-01-01T04:23:50Z</time>
      </trkpt>
      <trkpt lat="42.82882" lon="1.0037">
        <ele>1816</ele>
        <time>2010-01-01T04:23:53Z</time>
      </trkpt>
      <trkpt lat="42.82876" lon="1.00368">
        <ele>1816</ele>
        <time>2010-01-01T04:23:55Z</time>
      </trkpt>
      <trkpt lat="42.8288" lon="1.0036">
        <ele>1813</ele>
        <time>2010-01-01T04:23:58Z</time>
      </trkpt>
      <trkpt lat="42.82882" lon="1.00352">
        <ele>1809</ele>
        <time>2010-01-01T04:24:01Z</time>
      </trkpt>
      <trkpt lat="42.82885" lon="1.00343">
        <ele>1805</ele>
        <time>2010-01-01T04:24:03Z</time>
      </trkpt>
      <trkpt lat="42.82892" lon="1.00326">
        <ele>1799</ele>
        <time>2010-01-01T04:24:09Z</time>
      </trkpt>
      <trkpt lat="42.82899" lon="1.00307">
        <ele>1794</ele>
        <time>2010-01-01T04:24:15Z</time>
      </trkpt>
      <trkpt lat="42.829" lon="1.00304">
        <ele>1793</ele>
        <time>2010-01-01T04:24:16Z</time>
      </trkpt>
      <trkpt lat="42.82903" lon="1.0029">
        <ele>1790</ele>
        <time>2010-01-01T04:24:21Z</time>
      </trkpt>
      <trkpt lat="42.82904" lon="1.00287">
        <ele>1790</ele>
        <time>2010-01-01T04:24:21Z</time>
      </trkpt>
      <trkpt lat="42.8291" lon="1.00278">
        <ele>1790</ele>
        <time>2010-01-01T04:24:25Z</time>
      </trkpt>
      <trkpt lat="42.82917" lon="1.00268">
        <ele>1789</ele>
        <time>2010-01-01T04:24:29Z</time>
      </trkpt>
      <trkpt lat="42.82922" lon="1.00263">
        <ele>1788</ele>
        <time>2010-01-01T04:24:31Z</time>
      </trkpt>
      <trkpt lat="42.82931" lon="1.00249">
        <ele>1786</ele>
        <time>2010-01-01T04:24:37Z</time>
      </trkpt>
      <trkpt lat="42.82935" lon="1.00244">
        <ele>1785</ele>
        <time>2010-01-01T04:24:39Z</time>
      </trkpt>
      <trkpt lat="42.82942" lon="1.00231">
        <ele>1779</ele>
        <time>2010-01-01T04:24:44Z</time>
      </trkpt>
      <trkpt lat="42.82953" lon="1.00212">
        <ele>1772</ele>
        <time>2010-01-01T04:24:51Z</time>
      </trkpt>
      <trkpt lat="42.82963" lon="1.00199">
        <ele>1768</ele>
        <time>2010-01-01T04:24:57Z</time>
      </trkpt>
      <trkpt lat="42.82968" lon="1.00193">
        <ele>1766</ele>
        <time>2010-01-01T04:24:59Z</time>
      </trkpt>
      <trkpt lat="42.82974" lon="1.00183">
        <ele>1763</ele>
        <time>2010-01-01T04:25:03Z</time>
      </trkpt>
      <trkpt lat="42.82981" lon="1.00176">
        <ele>1763</ele>
        <time>2010-01-01T04:25:07Z</time>
      </trkpt>
      <trkpt lat="42.82988" lon="1.00165">
        <ele>1760</ele>
        <time>2010-01-01T04:25:11Z</time>
      </trkpt>
      <trkpt lat="42.82981" lon="1.00158">
        <ele>1754</ele>
        <time>2010-01-01T04:25:14Z</time>
      </trkpt>
      <trkpt lat="42.8298" lon="1.00158">
        <ele>1754</ele>
        <time>2010-01-01T04:25:14Z</time>
      </trkpt>
      <trkpt lat="42.82978" lon="1.00158">
        <ele>1753</ele>
        <time>2010-01-01T04:25:15Z</time>
      </trkpt>
      <trkpt lat="42.82964" lon="1.00156">
        <ele>1749</ele>
        <time>2010-01-01T04:25:21Z</time>
      </trkpt>
      <trkpt lat="42.82956" lon="1.00153">
        <ele>1746</ele>
        <time>2010-01-01T04:25:24Z</time>
      </trkpt>
      <trkpt lat="42.82957" lon="1.00151">
        <ele>1745</ele>
        <time>2010-01-01T04:25:25Z</time>
      </trkpt>
      <trkpt lat="42.82957" lon="1.00141">
        <ele>1741</ele>
        <time>2010-01-01T04:25:28Z</time>
      </trkpt>
      <trkpt lat="42.8295" lon="1.0014">
        <ele>1739</ele>
        <time>2010-01-01T04:25:31Z</time>
      </trkpt>
      <trkpt lat="42.82941" lon="1.00137">
        <ele>1736</ele>
        <time>2010-01-01T04:25:34Z</time>
      </trkpt>
      <trkpt lat="42.82931" lon="1.00134">
        <ele>1732</ele>
        <time>2010-01-01T04:25:39Z</time>
      </trkpt>
      <trkpt lat="42.82925" lon="1.00127">
        <ele>1729</ele>
        <time>2010-01-01T04:25:42Z</time>
      </trkpt>
      <trkpt lat="42.82932" lon="1.00118">
        <ele>1728</ele>
        <time>2010-01-01T04:25:45Z</time>
      </trkpt>
      <trkpt lat="42.82938" lon="1.0011">
        <ele>1727</ele>
        <time>2010-01-01T04:25:49Z</time>
      </trkpt>
      <trkpt lat="42.82943" lon="1.00098">
        <ele>1725</ele>
        <time>2010-01-01T04:25:53Z</time>
      </trkpt>
      <trkpt lat="42.82946" lon="1.00088">
        <ele>1722</ele>
        <time>2010-01-01T04:25:56Z</time>
      </trkpt>
      <trkpt lat="42.82952" lon="1.00078">
        <ele>1720</ele>
        <time>2010-01-01T04:26:00Z</time>
      </trkpt>
      <trkpt lat="42.82962" lon="1.00066">
        <ele>1717</ele>
        <time>2010-01-01T04:26:05Z</time>
      </trkpt>
      <trkpt lat="42.8297" lon="1.00056">
        <ele>1714</ele>
        <time>2010-01-01T04:26:09Z</time>
      </trkpt>
      <trkpt lat="42.82978" lon="1.00048">
        <ele>1712</ele>
        <time>2010-01-01T04:26:13Z</time>
      </trkpt>
      <trkpt lat="42.82981" lon="1.00042">
        <ele>1709</ele>
        <time>2010-01-01T04:26:15Z</time>
      </trkpt>
      <trkpt lat="42.82982" lon="1.00043">
        <ele>1710</ele>
        <time>2010-01-01T04:26:16Z</time>
      </trkpt>
      <trkpt lat="42.82984" lon="1.00044">
        <ele>1710</ele>
        <time>2010-01-01T04:26:17Z</time>
      </trkpt>
      <trkpt lat="42.82986" lon="1.00043">
        <ele>1710</ele>
        <time>2010-01-01T04:26:17Z</time>
      </trkpt>
      <trkpt lat="42.82984" lon="1.00042">
        <ele>1709</ele>
        <time>2010-01-01T04:26:18Z</time>
      </trkpt>
      <trkpt lat="42.82986" lon="1.00041">
        <ele>1708</ele>
        <time>2010-01-01T04:26:19Z</time>
      </trkpt>
      <trkpt lat="42.8298" lon="1.00031">
        <ele>1704</ele>
        <time>2010-01-01T04:26:23Z</time>
      </trkpt>
      <trkpt lat="42.8297" lon="1.00023">
        <ele>1699</ele>
        <time>2010-01-01T04:26:28Z</time>
      </trkpt>
      <trkpt lat="42.82961" lon="1.00016">
        <ele>1694</ele>
        <time>2010-01-01T04:26:32Z</time>
      </trkpt>
      <trkpt lat="42.82952" lon="1.00006">
        <ele>1687</ele>
        <time>2010-01-01T04:26:36Z</time>
      </trkpt>
      <trkpt lat="42.82956" lon="0.99999">
        <ele>1685</ele>
        <time>2010-01-01T04:26:39Z</time>
      </trkpt>
      <trkpt lat="42.82965" lon="0.9999">
        <ele>1681</ele>
        <time>2010-01-01T04:26:43Z</time>
      </trkpt>
      <trkpt lat="42.82969" lon="0.99984">
        <ele>1679</ele>
        <time>2010-01-01T04:26:46Z</time>
      </trkpt>
      <trkpt lat="42.82962" lon="0.99974">
        <ele>1672</ele>
        <time>2010-01-01T04:26:50Z</time>
      </trkpt>
      <trkpt lat="42.82958" lon="0.99964">
        <ele>1667</ele>
        <time>2010-01-01T04:26:53Z</time>
      </trkpt>
      <trkpt lat="42.82953" lon="0.99953">
        <ele>1663</ele>
        <time>2010-01-01T04:26:57Z</time>
      </trkpt>
      <trkpt lat="42.82947" lon="0.99941">
        <ele>1659</ele>
        <time>2010-01-01T04:27:01Z</time>
      </trkpt>
      <trkpt lat="42.82939" lon="0.99935">
        <ele>1656</ele>
        <time>2010-01-01T04:27:05Z</time>
      </trkpt>
      <trkpt lat="42.8293" lon="0.99929">
        <ele>1654</ele>
        <time>2010-01-01T04:27:09Z</time>
      </trkpt>
      <trkpt lat="42.82919" lon="0.99928">
        <ele>1652</ele>
        <time>2010-01-01T04:27:13Z</time>
      </trkpt>
      <trkpt lat="42.8292" lon="0.9992">
        <ele>1650</ele>
        <time>2010-01-01T04:27:16Z</time>
      </trkpt>
      <trkpt lat="42.82925" lon="0.99908">
        <ele>1646</ele>
        <time>2010-01-01T04:27:20Z</time>
      </trkpt>
      <trkpt lat="42.82923" lon="0.99903">
        <ele>1644</ele>
        <time>2010-01-01T04:27:21Z</time>
      </trkpt>
      <trkpt lat="42.82915" lon="0.999">
        <ele>1641</ele>
        <time>2010-01-01T04:27:25Z</time>
      </trkpt>
      <trkpt lat="42.82903" lon="0.99899">
        <ele>1639</ele>
        <time>2010-01-01T04:27:30Z</time>
      </trkpt>
      <trkpt lat="42.82889" lon="0.99898">
        <ele>1636</ele>
        <time>2010-01-01T04:27:35Z</time>
      </trkpt>
      <trkpt lat="42.82885" lon="0.99898">
        <ele>1635</ele>
        <time>2010-01-01T04:27:37Z</time>
      </trkpt>
      <trkpt lat="42.82871" lon="0.99896">
        <ele>1630</ele>
        <time>2010-01-01T04:27:42Z</time>
      </trkpt>
      <trkpt lat="42.82872" lon="0.99889">
        <ele>1627</ele>
        <time>2010-01-01T04:27:45Z</time>
      </trkpt>
      <trkpt lat="42.82877" lon="0.99879">
        <ele>1623</ele>
        <time>2010-01-01T04:27:48Z</time>
      </trkpt>
      <trkpt lat="42.82866" lon="0.99874">
        <ele>1618</ele>
        <time>2010-01-01T04:27:52Z</time>
      </trkpt>
      <trkpt lat="42.82857" lon="0.9987">
        <ele>1613</ele>
        <time>2010-01-01T04:27:56Z</time>
      </trkpt>
      <trkpt lat="42.82846" lon="0.99865">
        <ele>1605</ele>
        <time>2010-01-01T04:28:01Z</time>
      </trkpt>
      <trkpt lat="42.82848" lon="0.9986">
        <ele>1604</ele>
        <time>2010-01-01T04:28:03Z</time>
      </trkpt>
      <trkpt lat="42.82858" lon="0.99852">
        <ele>1604</ele>
        <time>2010-01-01T04:28:07Z</time>
      </trkpt>
      <trkpt lat="42.82864" lon="0.9984">
        <ele>1600</ele>
        <time>2010-01-01T04:28:12Z</time>
      </trkpt>
      <trkpt lat="42.82871" lon="0.99831">
        <ele>1598</ele>
        <time>2010-01-01T04:28:16Z</time>
      </trkpt>
      <trkpt lat="42.82877" lon="0.99825">
        <ele>1598</ele>
        <time>2010-01-01T04:28:18Z</time>
      </trkpt>
      <trkpt lat="42.82887" lon="0.99811">
        <ele>1596</ele>
        <time>2010-01-01T04:28:24Z</time>
      </trkpt>
      <trkpt lat="42.82893" lon="0.99803">
        <ele>1594</ele>
        <time>2010-01-01T04:28:27Z</time>
      </trkpt>
      <trkpt lat="42.82901" lon="0.99791">
        <ele>1592</ele>
        <time>2010-01-01T04:28:32Z</time>
      </trkpt>
      <trkpt lat="42.8291" lon="0.99779">
        <ele>1590</ele>
        <time>2010-01-01T04:28:37Z</time>
      </trkpt>
      <trkpt lat="42.82917" lon="0.9977">
        <ele>1589</ele>
        <time>2010-01-01T04:28:41Z</time>
      </trkpt>
      <trkpt lat="42.82923" lon="0.9976">
        <ele>1584</ele>
        <time>2010-01-01T04:28:45Z</time>
      </trkpt>
      <trkpt lat="42.82928" lon="0.9975">
        <ele>1579</ele>
        <time>2010-01-01T04:28:48Z</time>
      </trkpt>
      <trkpt lat="42.82929" lon="0.99743">
        <ele>1575</ele>
        <time>2010-01-01T04:28:51Z</time>
      </trkpt>
      <trkpt lat="42.82935" lon="0.99732">
        <ele>1569</ele>
        <time>2010-01-01T04:28:55Z</time>
      </trkpt>
      <trkpt lat="42.8294" lon="0.99722">
        <ele>1564</ele>
        <time>2010-01-01T04:28:58Z</time>
      </trkpt>
      <trkpt lat="42.82946" lon="0.99712">
        <ele>1560</ele>
        <time>2010-01-01T04:29:02Z</time>
      </trkpt>
      <trkpt lat="42.82947" lon="0.9971">
        <ele>1559</ele>
        <time>2010-01-01T04:29:03Z</time>
      </trkpt>
      <trkpt lat="42.82953" lon="0.997">
        <ele>1555</ele>
        <time>2010-01-01T04:29:07Z</time>
      </trkpt>
      <trkpt lat="42.82959" lon="0.99691">
        <ele>1553</ele>
        <time>2010-01-01T04:29:10Z</time>
      </trkpt>
      <trkpt lat="42.82964" lon="0.99681">
        <ele>1550</ele>
        <time>2010-01-01T04:29:14Z</time>
      </trkpt>
      <trkpt lat="42.82969" lon="0.99669">
        <ele>1547</ele>
        <time>2010-01-01T04:29:18Z</time>
      </trkpt>
      <trkpt lat="42.82971" lon="0.99664">
        <ele>1545</ele>
        <time>2010-01-01T04:29:19Z</time>
      </trkpt>
      <trkpt lat="42.82974" lon="0.99656">
        <ele>1542</ele>
        <time>2010-01-01T04:29:22Z</time>
      </trkpt>
      <trkpt lat="42.82977" lon="0.99645">
        <ele>1539</ele>
        <time>2010-01-01T04:29:25Z</time>
      </trkpt>
      <trkpt lat="42.82977" lon="0.99638">
        <ele>1536</ele>
        <time>2010-01-01T04:29:28Z</time>
      </trkpt>
      <trkpt lat="42.82979" lon="0.99634">
        <ele>1536</ele>
        <time>2010-01-01T04:29:29Z</time>
      </trkpt>
      <trkpt lat="42.82979" lon="0.99623">
        <ele>1532</ele>
        <time>2010-01-01T04:29:32Z</time>
      </trkpt>
      <trkpt lat="42.82974" lon="0.99612">
        <ele>1527</ele>
        <time>2010-01-01T04:29:37Z</time>
      </trkpt>
      <trkpt lat="42.82971" lon="0.99603">
        <ele>1524</ele>
        <time>2010-01-01T04:29:39Z</time>
      </trkpt>
      <trkpt lat="42.82972" lon="0.996">
        <ele>1523</ele>
        <time>2010-01-01T04:29:40Z</time>
      </trkpt>
      <trkpt lat="42.82974" lon="0.99599">
        <ele>1523</ele>
        <time>2010-01-01T04:29:41Z</time>
      </trkpt>
      <trkpt lat="42.82978" lon="0.99599">
        <ele>1524</ele>
        <time>2010-01-01T04:29:43Z</time>
      </trkpt>
      <trkpt lat="42.82984" lon="0.99598">
        <ele>1525</ele>
        <time>2010-01-01T04:29:45Z</time>
      </trkpt>
      <trkpt lat="42.8298" lon="0.99599">
        <ele>1525</ele>
        <time>2010-01-01T04:29:47Z</time>
      </trkpt>
      <trkpt lat="42.82978" lon="0.99597">
        <ele>1523</ele>
        <time>2010-01-01T04:29:48Z</time>
      </trkpt>
      <trkpt lat="42.82978" lon="0.99594">
        <ele>1522</ele>
        <time>2010-01-01T04:29:49Z</time>
      </trkpt>
      <trkpt lat="42.82978" lon="0.99597">
        <ele>1524</ele>
        <time>2010-01-01T04:29:50Z</time>
      </trkpt>
      <trkpt lat="42.82977" lon="0.99599">
        <ele>1524</ele>
        <time>2010-01-01T04:29:50Z</time>
      </trkpt>
      <trkpt lat="42.82978" lon="0.996">
        <ele>1525</ele>
        <time>2010-01-01T04:29:51Z</time>
      </trkpt>
      <trkpt lat="42.82977" lon="0.99601">
        <ele>1525</ele>
        <time>2010-01-01T04:29:51Z</time>
      </trkpt>
      <trkpt lat="42.82972" lon="0.99594">
        <ele>1521</ele>
        <time>2010-01-01T04:29:54Z</time>
      </trkpt>
      <trkpt lat="42.82975" lon="0.99588">
        <ele>1520</ele>
        <time>2010-01-01T04:29:57Z</time>
      </trkpt>
      <trkpt lat="42.82979" lon="0.9958">
        <ele>1518</ele>
        <time>2010-01-01T04:29:59Z</time>
      </trkpt>
      <trkpt lat="42.82981" lon="0.99587">
        <ele>1521</ele>
        <time>2010-01-01T04:30:02Z</time>
      </trkpt>
      <trkpt lat="42.82982" lon="0.99588">
        <ele>1522</ele>
        <time>2010-01-01T04:30:02Z</time>
      </trkpt>
      <trkpt lat="42.82979" lon="0.99579">
        <ele>1517</ele>
        <time>2010-01-01T04:30:05Z</time>
      </trkpt>
      <trkpt lat="42.82981" lon="0.99576">
        <ele>1516</ele>
        <time>2010-01-01T04:30:06Z</time>
      </trkpt>
      <trkpt lat="42.82994" lon="0.99566">
        <ele>1516</ele>
        <time>2010-01-01T04:30:12Z</time>
      </trkpt>
      <trkpt lat="42.83002" lon="0.99557">
        <ele>1514</ele>
        <time>2010-01-01T04:30:16Z</time>
      </trkpt>
      <trkpt lat="42.8301" lon="0.99552">
        <ele>1511</ele>
        <time>2010-01-01T04:30:20Z</time>
      </trkpt>
      <trkpt lat="42.83019" lon="0.99545">
        <ele>1506</ele>
        <time>2010-01-01T04:30:24Z</time>
      </trkpt>
      <trkpt lat="42.83027" lon="0.9954">
        <ele>1500</ele>
        <time>2010-01-01T04:30:28Z</time>
      </trkpt>
      <trkpt lat="42.83038" lon="0.9954">
        <ele>1500</ele>
        <time>2010-01-01T04:30:32Z</time>
      </trkpt>
      <trkpt lat="42.83048" lon="0.99538">
        <ele>1497</ele>
        <time>2010-01-01T04:30:36Z</time>
      </trkpt>
      <trkpt lat="42.83055" lon="0.99535">
        <ele>1493</ele>
        <time>2010-01-01T04:30:39Z</time>
      </trkpt>
      <trkpt lat="42.83063" lon="0.99534">
        <ele>1489</ele>
        <time>2010-01-01T04:30:42Z</time>
      </trkpt>
      <trkpt lat="42.83067" lon="0.9953">
        <ele>1484</ele>
        <time>2010-01-01T04:30:44Z</time>
      </trkpt>
      <trkpt lat="42.83062" lon="0.9952">
        <ele>1482</ele>
        <time>2010-01-01T04:30:48Z</time>
      </trkpt>
      <trkpt lat="42.83059" lon="0.99514">
        <ele>1481</ele>
        <time>2010-01-01T04:30:49Z</time>
      </trkpt>
      <trkpt lat="42.83049" lon="0.99502">
        <ele>1479</ele>
        <time>2010-01-01T04:30:55Z</time>
      </trkpt>
      <trkpt lat="42.83042" lon="0.99498">
        <ele>1479</ele>
        <time>2010-01-01T04:30:58Z</time>
      </trkpt>
      <trkpt lat="42.83034" lon="0.99487">
        <ele>1478</ele>
        <time>2010-01-01T04:31:03Z</time>
      </trkpt>
      <trkpt lat="42.83028" lon="0.99479">
        <ele>1477</ele>
        <time>2010-01-01T04:31:06Z</time>
      </trkpt>
      <trkpt lat="42.83018" lon="0.99473">
        <ele>1477</ele>
        <time>2010-01-01T04:31:10Z</time>
      </trkpt>
      <trkpt lat="42.83011" lon="0.99471">
        <ele>1477</ele>
        <time>2010-01-01T04:31:13Z</time>
      </trkpt>
      <trkpt lat="42.83009" lon="0.9947">
        <ele>1477</ele>
        <time>2010-01-01T04:31:14Z</time>
      </trkpt>
      <trkpt lat="42.83007" lon="0.99469">
        <ele>1477</ele>
        <time>2010-01-01T04:31:15Z</time>
      </trkpt>
      <trkpt lat="42.82996" lon="0.99466">
        <ele>1475</ele>
        <time>2010-01-01T04:31:20Z</time>
      </trkpt>
      <trkpt lat="42.82986" lon="0.99456">
        <ele>1469</ele>
        <time>2010-01-01T04:31:24Z</time>
      </trkpt>
      <trkpt lat="42.82981" lon="0.99453">
        <ele>1466</ele>
        <time>2010-01-01T04:31:27Z</time>
      </trkpt>
      <trkpt lat="42.82965" lon="0.99452">
        <ele>1461</ele>
        <time>2010-01-01T04:31:33Z</time>
      </trkpt>
      <trkpt lat="42.82961" lon="0.99453">
        <ele>1459</ele>
        <time>2010-01-01T04:31:35Z</time>
      </trkpt>
      <trkpt lat="42.82952" lon="0.99457">
        <ele>1456</ele>
        <time>2010-01-01T04:31:38Z</time>
      </trkpt>
      <trkpt lat="42.82942" lon="0.99459">
        <ele>1453</ele>
        <time>2010-01-01T04:31:42Z</time>
      </trkpt>
      <trkpt lat="42.82934" lon="0.99464">
        <ele>1452</ele>
        <time>2010-01-01T04:31:46Z</time>
      </trkpt>
      <trkpt lat="42.82914" lon="0.99471">
        <ele>1450</ele>
        <time>2010-01-01T04:31:54Z</time>
      </trkpt>
      <trkpt lat="42.82895" lon="0.99477">
        <ele>1451</ele>
        <time>2010-01-01T04:32:02Z</time>
      </trkpt>
      <trkpt lat="42.82889" lon="0.99479">
        <ele>1452</ele>
        <time>2010-01-01T04:32:04Z</time>
      </trkpt>
      <trkpt lat="42.82877" lon="0.99479">
        <ele>1449</ele>
        <time>2010-01-01T04:32:09Z</time>
      </trkpt>
      <trkpt lat="42.82868" lon="0.99474">
        <ele>1445</ele>
        <time>2010-01-01T04:32:13Z</time>
      </trkpt>
      <trkpt lat="42.8286" lon="0.99469">
        <ele>1441</ele>
        <time>2010-01-01T04:32:17Z</time>
      </trkpt>
      <trkpt lat="42.82849" lon="0.99462">
        <ele>1435</ele>
        <time>2010-01-01T04:32:21Z</time>
      </trkpt>
      <trkpt lat="42.82836" lon="0.99453">
        <ele>1428</ele>
        <time>2010-01-01T04:32:27Z</time>
      </trkpt>
      <trkpt lat="42.82831" lon="0.99446">
        <ele>1424</ele>
        <time>2010-01-01T04:32:30Z</time>
      </trkpt>
      <trkpt lat="42.82832" lon="0.99446">
        <ele>1424</ele>
        <time>2010-01-01T04:32:31Z</time>
      </trkpt>
      <trkpt lat="42.82837" lon="0.99445">
        <ele>1425</ele>
        <time>2010-01-01T04:32:33Z</time>
      </trkpt>
      <trkpt lat="42.82846" lon="0.99443">
        <ele>1427</ele>
        <time>2010-01-01T04:32:36Z</time>
      </trkpt>
      <trkpt lat="42.82838" lon="0.99437">
        <ele>1423</ele>
        <time>2010-01-01T04:32:40Z</time>
      </trkpt>
      <trkpt lat="42.82828" lon="0.99434">
        <ele>1420</ele>
        <time>2010-01-01T04:32:44Z</time>
      </trkpt>
      <trkpt lat="42.82821" lon="0.9943">
        <ele>1418</ele>
        <time>2010-01-01T04:32:47Z</time>
      </trkpt>
      <trkpt lat="42.82825" lon="0.99424">
        <ele>1418</ele>
        <time>2010-01-01T04:32:49Z</time>
      </trkpt>
      <trkpt lat="42.82822" lon="0.99421">
        <ele>1416</ele>
        <time>2010-01-01T04:32:51Z</time>
      </trkpt>
      <trkpt lat="42.82812" lon="0.99413">
        <ele>1412</ele>
        <time>2010-01-01T04:32:55Z</time>
      </trkpt>
      <trkpt lat="42.82805" lon="0.99409">
        <ele>1409</ele>
        <time>2010-01-01T04:32:58Z</time>
      </trkpt>
      <trkpt lat="42.82807" lon="0.99395">
        <ele>1404</ele>
        <time>2010-01-01T04:33:02Z</time>
      </trkpt>
      <trkpt lat="42.82803" lon="0.99395">
        <ele>1403</ele>
        <time>2010-01-01T04:33:04Z</time>
      </trkpt>
      <trkpt lat="42.82793" lon="0.99406">
        <ele>1404</ele>
        <time>2010-01-01T04:33:09Z</time>
      </trkpt>
      <trkpt lat="42.82774" lon="0.99412">
        <ele>1399</ele>
        <time>2010-01-01T04:33:17Z</time>
      </trkpt>
      <trkpt lat="42.8276" lon="0.99416">
        <ele>1393</ele>
        <time>2010-01-01T04:33:23Z</time>
      </trkpt>
      <trkpt lat="42.82761" lon="0.99407">
        <ele>1389</ele>
        <time>2010-01-01T04:33:25Z</time>
      </trkpt>
      <trkpt lat="42.82758" lon="0.99402">
        <ele>1385</ele>
        <time>2010-01-01T04:33:27Z</time>
      </trkpt>
      <trkpt lat="42.82752" lon="0.99401">
        <ele>1381</ele>
        <time>2010-01-01T04:33:29Z</time>
      </trkpt>
      <trkpt lat="42.82752" lon="0.99396">
        <ele>1378</ele>
        <time>2010-01-01T04:33:31Z</time>
      </trkpt>
      <trkpt lat="42.82745" lon="0.994">
        <ele>1375</ele>
        <time>2010-01-01T04:33:34Z</time>
      </trkpt>
      <trkpt lat="42.82745" lon="0.99392">
        <ele>1371</ele>
        <time>2010-01-01T04:33:36Z</time>
      </trkpt>
      <trkpt lat="42.82749" lon="0.99383">
        <ele>1370</ele>
        <time>2010-01-01T04:33:39Z</time>
      </trkpt>
      <trkpt lat="42.82755" lon="0.99372">
        <ele>1368</ele>
        <time>2010-01-01T04:33:43Z</time>
      </trkpt>
      <trkpt lat="42.82755" lon="0.99369">
        <ele>1366</ele>
        <time>2010-01-01T04:33:44Z</time>
      </trkpt>
      <trkpt lat="42.82742" lon="0.99381">
        <ele>1364</ele>
        <time>2010-01-01T04:33:51Z</time>
      </trkpt>
      <trkpt lat="42.82747" lon="0.99364">
        <ele>1359</ele>
        <time>2010-01-01T04:33:56Z</time>
      </trkpt>
      <trkpt lat="42.82749" lon="0.99356">
        <ele>1357</ele>
        <time>2010-01-01T04:33:58Z</time>
      </trkpt>
      <trkpt lat="42.82741" lon="0.99355">
        <ele>1352</ele>
        <time>2010-01-01T04:34:01Z</time>
      </trkpt>
      <trkpt lat="42.82732" lon="0.99356">
        <ele>1347</ele>
        <time>2010-01-01T04:34:05Z</time>
      </trkpt>
      <trkpt lat="42.82721" lon="0.99358">
        <ele>1342</ele>
        <time>2010-01-01T04:34:10Z</time>
      </trkpt>
      <trkpt lat="42.8271" lon="0.99361">
        <ele>1337</ele>
        <time>2010-01-01T04:34:14Z</time>
      </trkpt>
      <trkpt lat="42.82704" lon="0.99368">
        <ele>1337</ele>
        <time>2010-01-01T04:34:17Z</time>
      </trkpt>
      <trkpt lat="42.82698" lon="0.99381">
        <ele>1338</ele>
        <time>2010-01-01T04:34:22Z</time>
      </trkpt>
      <trkpt lat="42.82689" lon="0.99391">
        <ele>1336</ele>
        <time>2010-01-01T04:34:26Z</time>
      </trkpt>
      <trkpt lat="42.82687" lon="0.99389">
        <ele>1334</ele>
        <time>2010-01-01T04:34:27Z</time>
      </trkpt>
      <trkpt lat="42.82687" lon="0.99389">
        <ele>1334</ele>
        <time>2010-01-01T04:34:27Z</time>
      </trkpt>
      <trkpt lat="42.82668" lon="0.99422">
        <ele>1336</ele>
        <time>2010-01-01T04:34:40Z</time>
      </trkpt>
      <trkpt lat="42.82653" lon="0.99452">
        <ele>1336</ele>
        <time>2010-01-01T04:34:50Z</time>
      </trkpt>
      <trkpt lat="42.82658" lon="0.99429">
        <ele>1332</ele>
        <time>2010-01-01T04:34:57Z</time>
      </trkpt>
      <trkpt lat="42.82659" lon="0.99408">
        <ele>1323</ele>
        <time>2010-01-01T04:35:03Z</time>
      </trkpt>
      <trkpt lat="42.82659" lon="0.99407">
        <ele>1323</ele>
        <time>2010-01-01T04:35:04Z</time>
      </trkpt>
      <trkpt lat="42.82654" lon="0.99423">
        <ele>1326</ele>
        <time>2010-01-01T04:35:09Z</time>
      </trkpt>
      <trkpt lat="42.82646" lon="0.9943">
        <ele>1323</ele>
        <time>2010-01-01T04:35:12Z</time>
      </trkpt>
      <trkpt lat="42.82642" lon="0.99423">
        <ele>1318</ele>
        <time>2010-01-01T04:35:15Z</time>
      </trkpt>
      <trkpt lat="42.82642" lon="0.99409">
        <ele>1312</ele>
        <time>2010-01-01T04:35:19Z</time>
      </trkpt>
      <trkpt lat="42.8264" lon="0.99406">
        <ele>1310</ele>
        <time>2010-01-01T04:35:20Z</time>
      </trkpt>
      <trkpt lat="42.82637" lon="0.99412">
        <ele>1310</ele>
        <time>2010-01-01T04:35:22Z</time>
      </trkpt>
      <trkpt lat="42.8262" lon="0.99443">
        <ele>1307</ele>
        <time>2010-01-01T04:35:34Z</time>
      </trkpt>
      <trkpt lat="42.82617" lon="0.99433">
        <ele>1301</ele>
        <time>2010-01-01T04:35:37Z</time>
      </trkpt>
      <trkpt lat="42.82617" lon="0.99412">
        <ele>1292</ele>
        <time>2010-01-01T04:35:43Z</time>
      </trkpt>
      <trkpt lat="42.82618" lon="0.99394">
        <ele>1287</ele>
        <time>2010-01-01T04:35:48Z</time>
      </trkpt>
      <trkpt lat="42.8262" lon="0.99387">
        <ele>1286</ele>
        <time>2010-01-01T04:35:50Z</time>
      </trkpt>
      <trkpt lat="42.82621" lon="0.99382">
        <ele>1284</ele>
        <time>2010-01-01T04:35:52Z</time>
      </trkpt>
      <trkpt lat="42.82616" lon="0.99382">
        <ele>1281</ele>
        <time>2010-01-01T04:35:54Z</time>
      </trkpt>
      <trkpt lat="42.82605" lon="0.99408">
        <ele>1283</ele>
        <time>2010-01-01T04:36:03Z</time>
      </trkpt>
      <trkpt lat="42.82601" lon="0.99401">
        <ele>1277</ele>
        <time>2010-01-01T04:36:05Z</time>
      </trkpt>
      <trkpt lat="42.82599" lon="0.99379">
        <ele>1268</ele>
        <time>2010-01-01T04:36:12Z</time>
      </trkpt>
      <trkpt lat="42.82602" lon="0.99368">
        <ele>1266</ele>
        <time>2010-01-01T04:36:15Z</time>
      </trkpt>
      <trkpt lat="42.82612" lon="0.9935">
        <ele>1265</ele>
        <time>2010-01-01T04:36:22Z</time>
      </trkpt>
      <trkpt lat="42.82605" lon="0.99355">
        <ele>1263</ele>
        <time>2010-01-01T04:36:25Z</time>
      </trkpt>
      <trkpt lat="42.82594" lon="0.99369">
        <ele>1262</ele>
        <time>2010-01-01T04:36:31Z</time>
      </trkpt>
      <trkpt lat="42.82589" lon="0.99379">
        <ele>1263</ele>
        <time>2010-01-01T04:36:35Z</time>
      </trkpt>
      <trkpt lat="42.82587" lon="0.99381">
        <ele>1262</ele>
        <time>2010-01-01T04:36:36Z</time>
      </trkpt>
      <trkpt lat="42.82585" lon="0.9937">
        <ele>1256</ele>
        <time>2010-01-01T04:36:39Z</time>
      </trkpt>
      <trkpt lat="42.82589" lon="0.99355">
        <ele>1253</ele>
        <time>2010-01-01T04:36:44Z</time>
      </trkpt>
      <trkpt lat="42.82597" lon="0.99341">
        <ele>1253</ele>
        <time>2010-01-01T04:36:49Z</time>
      </trkpt>
      <trkpt lat="42.82586" lon="0.99342">
        <ele>1247</ele>
        <time>2010-01-01T04:36:53Z</time>
      </trkpt>
      <trkpt lat="42.82588" lon="0.99329">
        <ele>1243</ele>
        <time>2010-01-01T04:36:57Z</time>
      </trkpt>
      <trkpt lat="42.82593" lon="0.99321">
        <ele>1243</ele>
        <time>2010-01-01T04:37:00Z</time>
      </trkpt>
      <trkpt lat="42.82587" lon="0.9932">
        <ele>1240</ele>
        <time>2010-01-01T04:37:02Z</time>
      </trkpt>
      <trkpt lat="42.82594" lon="0.99309">
        <ele>1239</ele>
        <time>2010-01-01T04:37:06Z</time>
      </trkpt>
      <trkpt lat="42.82604" lon="0.99289">
        <ele>1238</ele>
        <time>2010-01-01T04:37:14Z</time>
      </trkpt>
      <trkpt lat="42.82595" lon="0.99291">
        <ele>1234</ele>
        <time>2010-01-01T04:37:17Z</time>
      </trkpt>
      <trkpt lat="42.8259" lon="0.99286">
        <ele>1229</ele>
        <time>2010-01-01T04:37:20Z</time>
      </trkpt>
      <trkpt lat="42.82587" lon="0.99283">
        <ele>1226</ele>
        <time>2010-01-01T04:37:21Z</time>
      </trkpt>
      <trkpt lat="42.82591" lon="0.99274">
        <ele>1225</ele>
        <time>2010-01-01T04:37:24Z</time>
      </trkpt>
      <trkpt lat="42.8258" lon="0.99275">
        <ele>1219</ele>
        <time>2010-01-01T04:37:29Z</time>
      </trkpt>
      <trkpt lat="42.82584" lon="0.99263">
        <ele>1217</ele>
        <time>2010-01-01T04:37:33Z</time>
      </trkpt>
      <trkpt lat="42.82576" lon="0.99264">
        <ele>1211</ele>
        <time>2010-01-01T04:37:36Z</time>
      </trkpt>
      <trkpt lat="42.82582" lon="0.9925">
        <ele>1210</ele>
        <time>2010-01-01T04:37:40Z</time>
      </trkpt>
      <trkpt lat="42.82588" lon="0.99239">
        <ele>1210</ele>
        <time>2010-01-01T04:37:44Z</time>
      </trkpt>
      <trkpt lat="42.82594" lon="0.99223">
        <ele>1207</ele>
        <time>2010-01-01T04:37:50Z</time>
      </trkpt>
      <trkpt lat="42.82602" lon="0.99205">
        <ele>1206</ele>
        <time>2010-01-01T04:37:56Z</time>
      </trkpt>
      <trkpt lat="42.82606" lon="0.99193">
        <ele>1203</ele>
        <time>2010-01-01T04:38:00Z</time>
      </trkpt>
      <trkpt lat="42.82596" lon="0.99195">
        <ele>1198</ele>
        <time>2010-01-01T04:38:04Z</time>
      </trkpt>
      <trkpt lat="42.82587" lon="0.99199">
        <ele>1195</ele>
        <time>2010-01-01T04:38:07Z</time>
      </trkpt>
      <trkpt lat="42.82568" lon="0.99211">
        <ele>1184</ele>
        <time>2010-01-01T04:38:16Z</time>
      </trkpt>
      <trkpt lat="42.82547" lon="0.9922">
        <ele>1171</ele>
        <time>2010-01-01T04:38:25Z</time>
      </trkpt>
      <trkpt lat="42.82539" lon="0.9922">
        <ele>1167</ele>
        <time>2010-01-01T04:38:28Z</time>
      </trkpt>
      <trkpt lat="42.8254" lon="0.99218">
        <ele>1167</ele>
        <time>2010-01-01T04:38:28Z</time>
      </trkpt>
      <trkpt lat="42.82548" lon="0.99205">
        <ele>1167</ele>
        <time>2010-01-01T04:38:33Z</time>
      </trkpt>
      <trkpt lat="42.82555" lon="0.99195">
        <ele>1168</ele>
        <time>2010-01-01T04:38:38Z</time>
      </trkpt>
      <trkpt lat="42.82564" lon="0.99188">
        <ele>1174</ele>
        <time>2010-01-01T04:38:42Z</time>
      </trkpt>
      <trkpt lat="42.82545" lon="0.99191">
        <ele>1162</ele>
        <time>2010-01-01T04:38:50Z</time>
      </trkpt>
      <trkpt lat="42.82524" lon="0.99198">
        <ele>1153</ele>
        <time>2010-01-01T04:38:58Z</time>
      </trkpt>
      <trkpt lat="42.82518" lon="0.99188">
        <ele>1149</ele>
        <time>2010-01-01T04:39:02Z</time>
      </trkpt>
      <trkpt lat="42.82525" lon="0.99179">
        <ele>1149</ele>
        <time>2010-01-01T04:39:06Z</time>
      </trkpt>
      <trkpt lat="42.82537" lon="0.99169">
        <ele>1152</ele>
        <time>2010-01-01T04:39:12Z</time>
      </trkpt>
      <trkpt lat="42.82552" lon="0.99159">
        <ele>1156</ele>
        <time>2010-01-01T04:39:18Z</time>
      </trkpt>
      <trkpt lat="42.82547" lon="0.9915">
        <ele>1149</ele>
        <time>2010-01-01T04:39:22Z</time>
      </trkpt>
      <trkpt lat="42.82543" lon="0.99147">
        <ele>1146</ele>
        <time>2010-01-01T04:39:24Z</time>
      </trkpt>
      <trkpt lat="42.82527" lon="0.99151">
        <ele>1138</ele>
        <time>2010-01-01T04:39:30Z</time>
      </trkpt>
      <trkpt lat="42.82516" lon="0.99151">
        <ele>1135</ele>
        <time>2010-01-01T04:39:35Z</time>
      </trkpt>
      <trkpt lat="42.82523" lon="0.99141">
        <ele>1132</ele>
        <time>2010-01-01T04:39:39Z</time>
      </trkpt>
      <trkpt lat="42.8253" lon="0.99137">
        <ele>1133</ele>
        <time>2010-01-01T04:39:42Z</time>
      </trkpt>
      <trkpt lat="42.82538" lon="0.99135">
        <ele>1138</ele>
        <time>2010-01-01T04:39:45Z</time>
      </trkpt>
      <trkpt lat="42.82541" lon="0.99124">
        <ele>1135</ele>
        <time>2010-01-01T04:39:49Z</time>
      </trkpt>
      <trkpt lat="42.82541" lon="0.99124">
        <ele>1134</ele>
        <time>2010-01-01T04:39:49Z</time>
      </trkpt>
      <trkpt lat="42.82549" lon="0.99115">
        <ele>1136</ele>
        <time>2010-01-01T04:39:53Z</time>
      </trkpt>
      <trkpt lat="42.82537" lon="0.99114">
        <ele>1127</ele>
        <time>2010-01-01T04:39:58Z</time>
      </trkpt>
      <trkpt lat="42.82532" lon="0.99115">
        <ele>1124</ele>
        <time>2010-01-01T04:40:00Z</time>
      </trkpt>
      <trkpt lat="42.82518" lon="0.99116">
        <ele>1119</ele>
        <time>2010-01-01T04:40:06Z</time>
      </trkpt>
      <trkpt lat="42.82497" lon="0.99124">
        <ele>1118</ele>
        <time>2010-01-01T04:40:14Z</time>
      </trkpt>
      <trkpt lat="42.82494" lon="0.99117">
        <ele>1115</ele>
        <time>2010-01-01T04:40:17Z</time>
      </trkpt>
      <trkpt lat="42.82505" lon="0.99104">
        <ele>1113</ele>
        <time>2010-01-01T04:40:22Z</time>
      </trkpt>
      <trkpt lat="42.82516" lon="0.99095">
        <ele>1114</ele>
        <time>2010-01-01T04:40:27Z</time>
      </trkpt>
      <trkpt lat="42.82527" lon="0.99089">
        <ele>1117</ele>
        <time>2010-01-01T04:40:32Z</time>
      </trkpt>
      <trkpt lat="42.82546" lon="0.99078">
        <ele>1118</ele>
        <time>2010-01-01T04:40:40Z</time>
      </trkpt>
      <trkpt lat="42.82547" lon="0.99074">
        <ele>1117</ele>
        <time>2010-01-01T04:40:42Z</time>
      </trkpt>
      <trkpt lat="42.82538" lon="0.99068">
        <ele>1114</ele>
        <time>2010-01-01T04:40:46Z</time>
      </trkpt>
      <trkpt lat="42.82524" lon="0.99064">
        <ele>1111</ele>
        <time>2010-01-01T04:40:51Z</time>
      </trkpt>
      <trkpt lat="42.82514" lon="0.99062">
        <ele>1107</ele>
        <time>2010-01-01T04:40:55Z</time>
      </trkpt>
      <trkpt lat="42.82494" lon="0.99062">
        <ele>1099</ele>
        <time>2010-01-01T04:41:04Z</time>
      </trkpt>
      <trkpt lat="42.82484" lon="0.99062">
        <ele>1094</ele>
        <time>2010-01-01T04:41:08Z</time>
      </trkpt>
      <trkpt lat="42.82464" lon="0.99078">
        <ele>1095</ele>
        <time>2010-01-01T04:41:17Z</time>
      </trkpt>
      <trkpt lat="42.82446" lon="0.99099">
        <ele>1098</ele>
        <time>2010-01-01T04:41:26Z</time>
      </trkpt>
      <trkpt lat="42.82444" lon="0.99089">
        <ele>1094</ele>
        <time>2010-01-01T04:41:29Z</time>
      </trkpt>
      <trkpt lat="42.82452" lon="0.99066">
        <ele>1086</ele>
        <time>2010-01-01T04:41:37Z</time>
      </trkpt>
      <trkpt lat="42.82454" lon="0.99058">
        <ele>1082</ele>
        <time>2010-01-01T04:41:39Z</time>
      </trkpt>
      <trkpt lat="42.82459" lon="0.99049">
        <ele>1080</ele>
        <time>2010-01-01T04:41:43Z</time>
      </trkpt>
      <trkpt lat="42.82463" lon="0.99039">
        <ele>1077</ele>
        <time>2010-01-01T04:41:46Z</time>
      </trkpt>
      <trkpt lat="42.82467" lon="0.99031">
        <ele>1075</ele>
        <time>2010-01-01T04:41:49Z</time>
      </trkpt>
      <trkpt lat="42.82475" lon="0.99021">
        <ele>1073</ele>
        <time>2010-01-01T04:41:53Z</time>
      </trkpt>
      <trkpt lat="42.82485" lon="0.9901">
        <ele>1070</ele>
        <time>2010-01-01T04:41:58Z</time>
      </trkpt>
      <trkpt lat="42.82493" lon="0.99002">
        <ele>1067</ele>
        <time>2010-01-01T04:42:02Z</time>
      </trkpt>
      <trkpt lat="42.82483" lon="0.98993">
        <ele>1062</ele>
        <time>2010-01-01T04:42:07Z</time>
      </trkpt>
      <trkpt lat="42.82472" lon="0.98984">
        <ele>1057</ele>
        <time>2010-01-01T04:42:12Z</time>
      </trkpt>
      <trkpt lat="42.82457" lon="0.98983">
        <ele>1053</ele>
        <time>2010-01-01T04:42:18Z</time>
      </trkpt>
      <trkpt lat="42.82446" lon="0.98976">
        <ele>1048</ele>
        <time>2010-01-01T04:42:23Z</time>
      </trkpt>
      <trkpt lat="42.8243" lon="0.98956">
        <ele>1041</ele>
        <time>2010-01-01T04:42:32Z</time>
      </trkpt>
      <trkpt lat="42.82425" lon="0.98965">
        <ele>1043</ele>
        <time>2010-01-01T04:42:35Z</time>
      </trkpt>
      <trkpt lat="42.82419" lon="0.98974">
        <ele>1045</ele>
        <time>2010-01-01T04:42:39Z</time>
      </trkpt>
      <trkpt lat="42.82411" lon="0.99003">
        <ele>1058</ele>
        <time>2010-01-01T04:42:48Z</time>
      </trkpt>
      <trkpt lat="42.82422" lon="0.98998">
        <ele>1053</ele>
        <time>2010-01-01T04:42:53Z</time>
      </trkpt>
      <trkpt lat="42.82421" lon="0.98986">
        <ele>1049</ele>
        <time>2010-01-01T04:42:56Z</time>
      </trkpt>
      <trkpt lat="42.82423" lon="0.98966">
        <ele>1043</ele>
        <time>2010-01-01T04:43:02Z</time>
      </trkpt>
      <trkpt lat="42.82421" lon="0.98962">
        <ele>1042</ele>
        <time>2010-01-01T04:43:04Z</time>
      </trkpt>
      <trkpt lat="42.82419" lon="0.98974">
        <ele>1045</ele>
        <time>2010-01-01T04:43:07Z</time>
      </trkpt>
      <trkpt lat="42.82422" lon="0.98989">
        <ele>1050</ele>
        <time>2010-01-01T04:43:12Z</time>
      </trkpt>
      <trkpt lat="42.82422" lon="0.98992">
        <ele>1051</ele>
        <time>2010-01-01T04:43:13Z</time>
      </trkpt>
      <trkpt lat="42.82424" lon="0.98999">
        <ele>1054</ele>
        <time>2010-01-01T04:43:15Z</time>
      </trkpt>
      <trkpt lat="42.82421" lon="0.99005">
        <ele>1056</ele>
        <time>2010-01-01T04:43:17Z</time>
      </trkpt>
      <trkpt lat="42.82421" lon="0.99005">
        <ele>1056</ele>
        <time>2010-01-01T04:43:17Z</time>
      </trkpt>
      <trkpt lat="42.82423" lon="0.99004">
        <ele>1056</ele>
        <time>2010-01-01T04:43:18Z</time>
      </trkpt>
      <trkpt lat="42.82425" lon="0.99008">
        <ele>1058</ele>
        <time>2010-01-01T04:43:20Z</time>
      </trkpt>
      <trkpt lat="42.82417" lon="0.99025">
        <ele>1063</ele>
        <time>2010-01-01T04:43:26Z</time>
      </trkpt>
      <trkpt lat="42.82415" lon="0.99024">
        <ele>1064</ele>
        <time>2010-01-01T04:43:26Z</time>
      </trkpt>
      <trkpt lat="42.82408" lon="0.99014">
        <ele>1064</ele>
        <time>2010-01-01T04:43:30Z</time>
      </trkpt>
      <trkpt lat="42.82399" lon="0.99007">
        <ele>1067</ele>
        <time>2010-01-01T04:43:35Z</time>
      </trkpt>
      <trkpt lat="42.82396" lon="0.99008">
        <ele>1070</ele>
        <time>2010-01-01T04:43:36Z</time>
      </trkpt>
      <trkpt lat="42.82393" lon="0.99018">
        <ele>1076</ele>
        <time>2010-01-01T04:43:39Z</time>
      </trkpt>
      <trkpt lat="42.82381" lon="0.99011">
        <ele>1078</ele>
        <time>2010-01-01T04:43:44Z</time>
      </trkpt>
      <trkpt lat="42.82377" lon="0.99002">
        <ele>1075</ele>
        <time>2010-01-01T04:43:47Z</time>
      </trkpt>
      <trkpt lat="42.82373" lon="0.98996">
        <ele>1073</ele>
        <time>2010-01-01T04:43:50Z</time>
      </trkpt>
      <trkpt lat="42.82373" lon="0.98996">
        <ele>1073</ele>
        <time>2010-01-01T04:43:50Z</time>
      </trkpt>
      <trkpt lat="42.82368" lon="0.98992">
        <ele>1072</ele>
        <time>2010-01-01T04:43:53Z</time>
      </trkpt>
      <trkpt lat="42.82357" lon="0.99005">
        <ele>1081</ele>
        <time>2010-01-01T04:43:58Z</time>
      </trkpt>
      <trkpt lat="42.82357" lon="0.98999">
        <ele>1078</ele>
        <time>2010-01-01T04:44:00Z</time>
      </trkpt>
      <trkpt lat="42.82361" lon="0.98997">
        <ele>1077</ele>
        <time>2010-01-01T04:44:02Z</time>
      </trkpt>
      <trkpt lat="42.82371" lon="0.98992">
        <ele>1071</ele>
        <time>2010-01-01T04:44:06Z</time>
      </trkpt>
      <trkpt lat="42.82375" lon="0.98995">
        <ele>1071</ele>
        <time>2010-01-01T04:44:08Z</time>
      </trkpt>
      <trkpt lat="42.82377" lon="0.98998">
        <ele>1073</ele>
        <time>2010-01-01T04:44:09Z</time>
      </trkpt>
      <trkpt lat="42.82371" lon="0.98988">
        <ele>1069</ele>
        <time>2010-01-01T04:44:13Z</time>
      </trkpt>
      <trkpt lat="42.82367" lon="0.98985">
        <ele>1068</ele>
        <time>2010-01-01T04:44:15Z</time>
      </trkpt>
      <trkpt lat="42.82354" lon="0.98976">
        <ele>1066</ele>
        <time>2010-01-01T04:44:21Z</time>
      </trkpt>
      <trkpt lat="42.82337" lon="0.98979">
        <ele>1069</ele>
        <time>2010-01-01T04:44:28Z</time>
      </trkpt>
      <trkpt lat="42.82328" lon="0.98973">
        <ele>1068</ele>
        <time>2010-01-01T04:44:31Z</time>
      </trkpt>
      <trkpt lat="42.8231" lon="0.98974">
        <ele>1072</ele>
        <time>2010-01-01T04:44:39Z</time>
      </trkpt>
      <trkpt lat="42.82297" lon="0.98972">
        <ele>1073</ele>
        <time>2010-01-01T04:44:44Z</time>
      </trkpt>
      <trkpt lat="42.82287" lon="0.98972">
        <ele>1075</ele>
        <time>2010-01-01T04:44:48Z</time>
      </trkpt>
      <trkpt lat="42.82276" lon="0.98974">
        <ele>1078</ele>
        <time>2010-01-01T04:44:53Z</time>
      </trkpt>
      <trkpt lat="42.82268" lon="0.98974">
        <ele>1079</ele>
        <time>2010-01-01T04:44:56Z</time>
      </trkpt>
      <trkpt lat="42.82259" lon="0.98973">
        <ele>1081</ele>
        <time>2010-01-01T04:44:59Z</time>
      </trkpt>
      <trkpt lat="42.82249" lon="0.98975">
        <ele>1084</ele>
        <time>2010-01-01T04:45:03Z</time>
      </trkpt>
      <trkpt lat="42.82232" lon="0.98982">
        <ele>1089</ele>
        <time>2010-01-01T04:45:11Z</time>
      </trkpt>
      <trkpt lat="42.82228" lon="0.98987">
        <ele>1092</ele>
        <time>2010-01-01T04:45:13Z</time>
      </trkpt>
      <trkpt lat="42.8222" lon="0.98986">
        <ele>1093</ele>
        <time>2010-01-01T04:45:16Z</time>
      </trkpt>
      <trkpt lat="42.82222" lon="0.98981">
        <ele>1090</ele>
        <time>2010-01-01T04:45:18Z</time>
      </trkpt>
      <trkpt lat="42.8223" lon="0.98985">
        <ele>1091</ele>
        <time>2010-01-01T04:45:21Z</time>
      </trkpt>
      <trkpt lat="42.8223" lon="0.98981">
        <ele>1089</ele>
        <time>2010-01-01T04:45:23Z</time>
      </trkpt>
      <trkpt lat="42.82229" lon="0.98979">
        <ele>1088</ele>
        <time>2010-01-01T04:45:23Z</time>
      </trkpt>
      <trkpt lat="42.82232" lon="0.98973">
        <ele>1085</ele>
        <time>2010-01-01T04:45:25Z</time>
      </trkpt>
      <trkpt lat="42.82224" lon="0.98972">
        <ele>1085</ele>
        <time>2010-01-01T04:45:29Z</time>
      </trkpt>
      <trkpt lat="42.82206" lon="0.9896">
        <ele>1089</ele>
        <time>2010-01-01T04:45:37Z</time>
      </trkpt>
      <trkpt lat="42.82188" lon="0.98949">
        <ele>1091</ele>
        <time>2010-01-01T04:45:44Z</time>
      </trkpt>
      <trkpt lat="42.82173" lon="0.98937">
        <ele>1094</ele>
        <time>2010-01-01T04:45:51Z</time>
      </trkpt>
      <trkpt lat="42.82171" lon="0.98934">
        <ele>1094</ele>
        <time>2010-01-01T04:45:53Z</time>
      </trkpt>
      <trkpt lat="42.82167" lon="0.98929">
        <ele>1095</ele>
        <time>2010-01-01T04:45:55Z</time>
      </trkpt>
      <trkpt lat="42.82146" lon="0.98912">
        <ele>1096</ele>
        <time>2010-01-01T04:46:04Z</time>
      </trkpt>
      <trkpt lat="42.82131" lon="0.98898">
        <ele>1095</ele>
        <time>2010-01-01T04:46:12Z</time>
      </trkpt>
      <trkpt lat="42.82119" lon="0.98885">
        <ele>1092</ele>
        <time>2010-01-01T04:46:18Z</time>
      </trkpt>
      <trkpt lat="42.82119" lon="0.98882">
        <ele>1092</ele>
        <time>2010-01-01T04:46:19Z</time>
      </trkpt>
      <trkpt lat="42.82119" lon="0.9888">
        <ele>1091</ele>
        <time>2010-01-01T04:46:19Z</time>
      </trkpt>
      <trkpt lat="42.82108" lon="0.98857">
        <ele>1088</ele>
        <time>2010-01-01T04:46:27Z</time>
      </trkpt>
      <trkpt lat="42.82097" lon="0.9885">
        <ele>1090</ele>
        <time>2010-01-01T04:46:32Z</time>
      </trkpt>
      <trkpt lat="42.82094" lon="0.98851">
        <ele>1091</ele>
        <time>2010-01-01T04:46:34Z</time>
      </trkpt>
      <trkpt lat="42.82081" lon="0.98849">
        <ele>1093</ele>
        <time>2010-01-01T04:46:39Z</time>
      </trkpt>
      <trkpt lat="42.8208" lon="0.98842">
        <ele>1092</ele>
        <time>2010-01-01T04:46:41Z</time>
      </trkpt>
      <trkpt lat="42.82079" lon="0.98839">
        <ele>1092</ele>
        <time>2010-01-01T04:46:42Z</time>
      </trkpt>
      <trkpt lat="42.82074" lon="0.9883">
        <ele>1090</ele>
        <time>2010-01-01T04:46:45Z</time>
      </trkpt>
      <trkpt lat="42.82058" lon="0.98807">
        <ele>1087</ele>
        <time>2010-01-01T04:46:54Z</time>
      </trkpt>
      <trkpt lat="42.82037" lon="0.98797">
        <ele>1089</ele>
        <time>2010-01-01T04:47:03Z</time>
      </trkpt>
      <trkpt lat="42.82028" lon="0.98797">
        <ele>1091</ele>
        <time>2010-01-01T04:47:07Z</time>
      </trkpt>
      <trkpt lat="42.82024" lon="0.98797">
        <ele>1091</ele>
        <time>2010-01-01T04:47:08Z</time>
      </trkpt>
      <trkpt lat="42.82022" lon="0.98797">
        <ele>1091</ele>
        <time>2010-01-01T04:47:09Z</time>
      </trkpt>
      <trkpt lat="42.82021" lon="0.98794">
        <ele>1090</ele>
        <time>2010-01-01T04:47:10Z</time>
      </trkpt>
      <trkpt lat="42.82022" lon="0.98789">
        <ele>1090</ele>
        <time>2010-01-01T04:47:12Z</time>
      </trkpt>
      <trkpt lat="42.82022" lon="0.98775">
        <ele>1088</ele>
        <time>2010-01-01T04:47:16Z</time>
      </trkpt>
      <trkpt lat="42.82022" lon="0.98773">
        <ele>1088</ele>
        <time>2010-01-01T04:47:17Z</time>
      </trkpt>
      <trkpt lat="42.82016" lon="0.98761">
        <ele>1087</ele>
        <time>2010-01-01T04:47:21Z</time>
      </trkpt>
      <trkpt lat="42.82003" lon="0.98757">
        <ele>1085</ele>
        <time>2010-01-01T04:47:26Z</time>
      </trkpt>
      <trkpt lat="42.81981" lon="0.98748">
        <ele>1088</ele>
        <time>2010-01-01T04:47:36Z</time>
      </trkpt>
      <trkpt lat="42.81962" lon="0.9873">
        <ele>1091</ele>
        <time>2010-01-01T04:47:45Z</time>
      </trkpt>
      <trkpt lat="42.81945" lon="0.98715">
        <ele>1095</ele>
        <time>2010-01-01T04:47:53Z</time>
      </trkpt>
      <trkpt lat="42.81929" lon="0.98702">
        <ele>1099</ele>
        <time>2010-01-01T04:48:00Z</time>
      </trkpt>
      <trkpt lat="42.81918" lon="0.98681">
        <ele>1100</ele>
        <time>2010-01-01T04:48:08Z</time>
      </trkpt>
      <trkpt lat="42.81916" lon="0.98676">
        <ele>1100</ele>
        <time>2010-01-01T04:48:10Z</time>
      </trkpt>
      <trkpt lat="42.81916" lon="0.9866">
        <ele>1100</ele>
        <time>2010-01-01T04:48:14Z</time>
      </trkpt>
      <trkpt lat="42.81911" lon="0.98632">
        <ele>1104</ele>
        <time>2010-01-01T04:48:23Z</time>
      </trkpt>
      <trkpt lat="42.81904" lon="0.98616">
        <ele>1105</ele>
        <time>2010-01-01T04:48:28Z</time>
      </trkpt>
      <trkpt lat="42.81901" lon="0.98601">
        <ele>1105</ele>
        <time>2010-01-01T04:48:33Z</time>
      </trkpt>
      <trkpt lat="42.81907" lon="0.98593">
        <ele>1102</ele>
        <time>2010-01-01T04:48:36Z</time>
      </trkpt>
      <trkpt lat="42.81897" lon="0.98589">
        <ele>1104</ele>
        <time>2010-01-01T04:48:40Z</time>
      </trkpt>
      <trkpt lat="42.81889" lon="0.98595">
        <ele>1107</ele>
        <time>2010-01-01T04:48:44Z</time>
      </trkpt>
      <trkpt lat="42.81888" lon="0.98589">
        <ele>1107</ele>
        <time>2010-01-01T04:48:46Z</time>
      </trkpt>
      <trkpt lat="42.81894" lon="0.98585">
        <ele>1104</ele>
        <time>2010-01-01T04:48:48Z</time>
      </trkpt>
      <trkpt lat="42.81895" lon="0.98581">
        <ele>1104</ele>
        <time>2010-01-01T04:48:50Z</time>
      </trkpt>
      <trkpt lat="42.819" lon="0.98566">
        <ele>1104</ele>
        <time>2010-01-01T04:48:55Z</time>
      </trkpt>
      <trkpt lat="42.81905" lon="0.98557">
        <ele>1104</ele>
        <time>2010-01-01T04:48:58Z</time>
      </trkpt>
      <trkpt lat="42.81913" lon="0.98546">
        <ele>1106</ele>
        <time>2010-01-01T04:49:03Z</time>
      </trkpt>
      <trkpt lat="42.81899" lon="0.98543">
        <ele>1108</ele>
        <time>2010-01-01T04:49:09Z</time>
      </trkpt>
      <trkpt lat="42.81906" lon="0.98534">
        <ele>1111</ele>
        <time>2010-01-01T04:49:13Z</time>
      </trkpt>
      <trkpt lat="42.81921" lon="0.98528">
        <ele>1112</ele>
        <time>2010-01-01T04:49:19Z</time>
      </trkpt>
      <trkpt lat="42.81937" lon="0.98519">
        <ele>1115</ele>
        <time>2010-01-01T04:49:26Z</time>
      </trkpt>
      <trkpt lat="42.81953" lon="0.98513">
        <ele>1117</ele>
        <time>2010-01-01T04:49:33Z</time>
      </trkpt>
      <trkpt lat="42.81966" lon="0.98506">
        <ele>1120</ele>
        <time>2010-01-01T04:49:38Z</time>
      </trkpt>
      <trkpt lat="42.81982" lon="0.98501">
        <ele>1124</ele>
        <time>2010-01-01T04:49:44Z</time>
      </trkpt>
      <trkpt lat="42.81994" lon="0.98496">
        <ele>1129</ele>
        <time>2010-01-01T04:49:50Z</time>
      </trkpt>
      <trkpt lat="42.82002" lon="0.98498">
        <ele>1130</ele>
        <time>2010-01-01T04:49:53Z</time>
      </trkpt>
      <trkpt lat="42.82006" lon="0.98492">
        <ele>1133</ele>
        <time>2010-01-01T04:49:55Z</time>
      </trkpt>
      <trkpt lat="42.82004" lon="0.98491">
        <ele>1133</ele>
        <time>2010-01-01T04:49:56Z</time>
      </trkpt>
      <trkpt lat="42.82013" lon="0.98489">
        <ele>1136</ele>
        <time>2010-01-01T04:50:00Z</time>
      </trkpt>
      <trkpt lat="42.82022" lon="0.98492">
        <ele>1138</ele>
        <time>2010-01-01T04:50:04Z</time>
      </trkpt>
      <trkpt lat="42.82034" lon="0.98493">
        <ele>1142</ele>
        <time>2010-01-01T04:50:08Z</time>
      </trkpt>
      <trkpt lat="42.82048" lon="0.98491">
        <ele>1149</ele>
        <time>2010-01-01T04:50:14Z</time>
      </trkpt>
      <trkpt lat="42.82051" lon="0.98496">
        <ele>1149</ele>
        <time>2010-01-01T04:50:16Z</time>
      </trkpt>
      <trkpt lat="42.82049" lon="0.985">
        <ele>1147</ele>
        <time>2010-01-01T04:50:17Z</time>
      </trkpt>
      <trkpt lat="42.82055" lon="0.98506">
        <ele>1147</ele>
        <time>2010-01-01T04:50:20Z</time>
      </trkpt>
      <trkpt lat="42.82065" lon="0.9851">
        <ele>1149</ele>
        <time>2010-01-01T04:50:24Z</time>
      </trkpt>
      <trkpt lat="42.82074" lon="0.98514">
        <ele>1151</ele>
        <time>2010-01-01T04:50:28Z</time>
      </trkpt>
      <trkpt lat="42.82083" lon="0.98521">
        <ele>1152</ele>
        <time>2010-01-01T04:50:32Z</time>
      </trkpt>
      <trkpt lat="42.82085" lon="0.98525">
        <ele>1151</ele>
        <time>2010-01-01T04:50:33Z</time>
      </trkpt>
      <trkpt lat="42.82097" lon="0.98542">
        <ele>1153</ele>
        <time>2010-01-01T04:50:40Z</time>
      </trkpt>
      <trkpt lat="42.821" lon="0.98544">
        <ele>1154</ele>
        <time>2010-01-01T04:50:42Z</time>
      </trkpt>
      <trkpt lat="42.82106" lon="0.9855">
        <ele>1155</ele>
        <time>2010-01-01T04:50:44Z</time>
      </trkpt>
      <trkpt lat="42.82111" lon="0.98561">
        <ele>1154</ele>
        <time>2010-01-01T04:50:48Z</time>
      </trkpt>
      <trkpt lat="42.82125" lon="0.98569">
        <ele>1158</ele>
        <time>2010-01-01T04:50:55Z</time>
      </trkpt>
      <trkpt lat="42.82136" lon="0.98576">
        <ele>1159</ele>
        <time>2010-01-01T04:50:59Z</time>
      </trkpt>
      <trkpt lat="42.82144" lon="0.98583">
        <ele>1159</ele>
        <time>2010-01-01T04:51:03Z</time>
      </trkpt>
      <trkpt lat="42.8216" lon="0.98574">
        <ele>1168</ele>
        <time>2010-01-01T04:51:10Z</time>
      </trkpt>
      <trkpt lat="42.82171" lon="0.98567">
        <ele>1174</ele>
        <time>2010-01-01T04:51:15Z</time>
      </trkpt>
      <trkpt lat="42.82186" lon="0.98574">
        <ele>1176</ele>
        <time>2010-01-01T04:51:21Z</time>
      </trkpt>
      <trkpt lat="42.82195" lon="0.98583">
        <ele>1176</ele>
        <time>2010-01-01T04:51:26Z</time>
      </trkpt>
      <trkpt lat="42.82207" lon="0.98588">
        <ele>1176</ele>
        <time>2010-01-01T04:51:31Z</time>
      </trkpt>
      <trkpt lat="42.82217" lon="0.98591">
        <ele>1176</ele>
        <time>2010-01-01T04:51:35Z</time>
      </trkpt>
      <trkpt lat="42.82229" lon="0.98598">
        <ele>1174</ele>
        <time>2010-01-01T04:51:40Z</time>
      </trkpt>
      <trkpt lat="42.82235" lon="0.98587">
        <ele>1178</ele>
        <time>2010-01-01T04:51:44Z</time>
      </trkpt>
      <trkpt lat="42.82228" lon="0.98568">
        <ele>1184</ele>
        <time>2010-01-01T04:51:51Z</time>
      </trkpt>
      <trkpt lat="42.82219" lon="0.98555">
        <ele>1188</ele>
        <time>2010-01-01T04:51:56Z</time>
      </trkpt>
      <trkpt lat="42.82215" lon="0.98552">
        <ele>1189</ele>
        <time>2010-01-01T04:51:58Z</time>
      </trkpt>
      <trkpt lat="42.82212" lon="0.98547">
        <ele>1190</ele>
        <time>2010-01-01T04:51:59Z</time>
      </trkpt>
      <trkpt lat="42.8222" lon="0.98546">
        <ele>1191</ele>
        <time>2010-01-01T04:52:02Z</time>
      </trkpt>
      <trkpt lat="42.82216" lon="0.98548">
        <ele>1190</ele>
        <time>2010-01-01T04:52:04Z</time>
      </trkpt>
      <trkpt lat="42.82216" lon="0.98548">
        <ele>1190</ele>
        <time>2010-01-01T04:52:04Z</time>
      </trkpt>
      <trkpt lat="42.82216" lon="0.98548">
        <ele>1190</ele>
        <time>2010-01-01T04:52:04Z</time>
      </trkpt>
      <trkpt lat="42.82217" lon="0.98549">
        <ele>1190</ele>
        <time>2010-01-01T04:52:05Z</time>
      </trkpt>
      <trkpt lat="42.82217" lon="0.9855">
        <ele>1189</ele>
        <time>2010-01-01T04:52:05Z</time>
      </trkpt>
      <trkpt lat="42.82217" lon="0.98551">
        <ele>1189</ele>
        <time>2010-01-01T04:52:05Z</time>
      </trkpt>
      <trkpt lat="42.82216" lon="0.98552">
        <ele>1189</ele>
        <time>2010-01-01T04:52:06Z</time>
      </trkpt>
      <trkpt lat="42.82218" lon="0.98551">
        <ele>1189</ele>
        <time>2010-01-01T04:52:07Z</time>
      </trkpt>
      <trkpt lat="42.82214" lon="0.98552">
        <ele>1188</ele>
        <time>2010-01-01T04:52:08Z</time>
      </trkpt>
      <trkpt lat="42.82219" lon="0.98558">
        <ele>1187</ele>
        <time>2010-01-01T04:52:11Z</time>
      </trkpt>
      <trkpt lat="42.82221" lon="0.98556">
        <ele>1188</ele>
        <time>2010-01-01T04:52:12Z</time>
      </trkpt>
      <trkpt lat="42.82215" lon="0.98554">
        <ele>1188</ele>
        <time>2010-01-01T04:52:14Z</time>
      </trkpt>
      <trkpt lat="42.82215" lon="0.98562">
        <ele>1185</ele>
        <time>2010-01-01T04:52:17Z</time>
      </trkpt>
      <trkpt lat="42.82215" lon="0.98562">
        <ele>1185</ele>
        <time>2010-01-01T04:52:17Z</time>
      </trkpt>
      <trkpt lat="42.82217" lon="0.98564">
        <ele>1185</ele>
        <time>2010-01-01T04:52:17Z</time>
      </trkpt>
      <trkpt lat="42.82218" lon="0.98566">
        <ele>1184</ele>
        <time>2010-01-01T04:52:18Z</time>
      </trkpt>
      <trkpt lat="42.82218" lon="0.9857">
        <ele>1183</ele>
        <time>2010-01-01T04:52:19Z</time>
      </trkpt>
      <trkpt lat="42.82218" lon="0.98565">
        <ele>1185</ele>
        <time>2010-01-01T04:52:21Z</time>
      </trkpt>
      <trkpt lat="42.82215" lon="0.98564">
        <ele>1185</ele>
        <time>2010-01-01T04:52:22Z</time>
      </trkpt>
      <trkpt lat="42.82216" lon="0.98567">
        <ele>1184</ele>
        <time>2010-01-01T04:52:23Z</time>
      </trkpt>
      <trkpt lat="42.82218" lon="0.9857">
        <ele>1183</ele>
        <time>2010-01-01T04:52:24Z</time>
      </trkpt>
      <trkpt lat="42.82212" lon="0.98575">
        <ele>1181</ele>
        <time>2010-01-01T04:52:27Z</time>
      </trkpt>
      <trkpt lat="42.82197" lon="0.98552">
        <ele>1186</ele>
        <time>2010-01-01T04:52:36Z</time>
      </trkpt>
      <trkpt lat="42.82187" lon="0.9854">
        <ele>1190</ele>
        <time>2010-01-01T04:52:42Z</time>
      </trkpt>
      <trkpt lat="42.82176" lon="0.98529">
        <ele>1193</ele>
        <time>2010-01-01T04:52:47Z</time>
      </trkpt>
      <trkpt lat="42.82176" lon="0.98524">
        <ele>1195</ele>
        <time>2010-01-01T04:52:48Z</time>
      </trkpt>
      <trkpt lat="42.82193" lon="0.98522">
        <ele>1202</ele>
        <time>2010-01-01T04:52:55Z</time>
      </trkpt>
      <trkpt lat="42.82195" lon="0.98514">
        <ele>1207</ele>
        <time>2010-01-01T04:52:58Z</time>
      </trkpt>
      <trkpt lat="42.82181" lon="0.98508">
        <ele>1207</ele>
        <time>2010-01-01T04:53:03Z</time>
      </trkpt>
      <trkpt lat="42.82172" lon="0.98502">
        <ele>1208</ele>
        <time>2010-01-01T04:53:07Z</time>
      </trkpt>
      <trkpt lat="42.82177" lon="0.98497">
        <ele>1212</ele>
        <time>2010-01-01T04:53:10Z</time>
      </trkpt>
      <trkpt lat="42.82181" lon="0.98488">
        <ele>1217</ele>
        <time>2010-01-01T04:53:13Z</time>
      </trkpt>
      <trkpt lat="42.82171" lon="0.98478">
        <ele>1221</ele>
        <time>2010-01-01T04:53:17Z</time>
      </trkpt>
      <trkpt lat="42.82163" lon="0.98479">
        <ele>1219</ele>
        <time>2010-01-01T04:53:21Z</time>
      </trkpt>
      <trkpt lat="42.82158" lon="0.98468">
        <ele>1221</ele>
        <time>2010-01-01T04:53:25Z</time>
      </trkpt>
      <trkpt lat="42.82151" lon="0.9845">
        <ele>1223</ele>
        <time>2010-01-01T04:53:30Z</time>
      </trkpt>
      <trkpt lat="42.82161" lon="0.98461">
        <ele>1224</ele>
        <time>2010-01-01T04:53:35Z</time>
      </trkpt>
      <trkpt lat="42.82167" lon="0.9845">
        <ele>1227</ele>
        <time>2010-01-01T04:53:39Z</time>
      </trkpt>
      <trkpt lat="42.82177" lon="0.98428">
        <ele>1232</ele>
        <time>2010-01-01T04:53:47Z</time>
      </trkpt>
      <trkpt lat="42.82181" lon="0.98412">
        <ele>1234</ele>
        <time>2010-01-01T04:53:52Z</time>
      </trkpt>
      <trkpt lat="42.82177" lon="0.98394">
        <ele>1239</ele>
        <time>2010-01-01T04:53:57Z</time>
      </trkpt>
      <trkpt lat="42.82173" lon="0.98372">
        <ele>1244</ele>
        <time>2010-01-01T04:54:04Z</time>
      </trkpt>
      <trkpt lat="42.82171" lon="0.98353">
        <ele>1250</ele>
        <time>2010-01-01T04:54:09Z</time>
      </trkpt>
      <trkpt lat="42.82173" lon="0.98336">
        <ele>1255</ele>
        <time>2010-01-01T04:54:15Z</time>
      </trkpt>
      <trkpt lat="42.82176" lon="0.98325">
        <ele>1258</ele>
        <time>2010-01-01T04:54:18Z</time>
      </trkpt>
      <trkpt lat="42.82174" lon="0.98311">
        <ele>1263</ele>
        <time>2010-01-01T04:54:22Z</time>
      </trkpt>
      <trkpt lat="42.82169" lon="0.98304">
        <ele>1267</ele>
        <time>2010-01-01T04:54:25Z</time>
      </trkpt>
      <trkpt lat="42.82173" lon="0.98296">
        <ele>1269</ele>
        <time>2010-01-01T04:54:28Z</time>
      </trkpt>
      <trkpt lat="42.82181" lon="0.9828">
        <ele>1274</ele>
        <time>2010-01-01T04:54:34Z</time>
      </trkpt>
      <trkpt lat="42.82186" lon="0.98271">
        <ele>1277</ele>
        <time>2010-01-01T04:54:37Z</time>
      </trkpt>
      <trkpt lat="42.82194" lon="0.98259">
        <ele>1280</ele>
        <time>2010-01-01T04:54:42Z</time>
      </trkpt>
      <trkpt lat="42.82204" lon="0.98241">
        <ele>1283</ele>
        <time>2010-01-01T04:54:48Z</time>
      </trkpt>
      <trkpt lat="42.82209" lon="0.9823">
        <ele>1284</ele>
        <time>2010-01-01T04:54:52Z</time>
      </trkpt>
      <trkpt lat="42.82219" lon="0.9821">
        <ele>1285</ele>
        <time>2010-01-01T04:54:59Z</time>
      </trkpt>
      <trkpt lat="42.82228" lon="0.98193">
        <ele>1285</ele>
        <time>2010-01-01T04:55:05Z</time>
      </trkpt>
      <trkpt lat="42.82243" lon="0.98168">
        <ele>1283</ele>
        <time>2010-01-01T04:55:15Z</time>
      </trkpt>
      <trkpt lat="42.82252" lon="0.98159">
        <ele>1281</ele>
        <time>2010-01-01T04:55:19Z</time>
      </trkpt>
      <trkpt lat="42.8226" lon="0.98144">
        <ele>1282</ele>
        <time>2010-01-01T04:55:25Z</time>
      </trkpt>
      <trkpt lat="42.82269" lon="0.98129">
        <ele>1282</ele>
        <time>2010-01-01T04:55:30Z</time>
      </trkpt>
      <trkpt lat="42.82274" lon="0.98106">
        <ele>1286</ele>
        <time>2010-01-01T04:55:38Z</time>
      </trkpt>
      <trkpt lat="42.82272" lon="0.98091">
        <ele>1289</ele>
        <time>2010-01-01T04:55:42Z</time>
      </trkpt>
      <trkpt lat="42.82273" lon="0.98077">
        <ele>1292</ele>
        <time>2010-01-01T04:55:46Z</time>
      </trkpt>
      <trkpt lat="42.82294" lon="0.98061">
        <ele>1294</ele>
        <time>2010-01-01T04:55:56Z</time>
      </trkpt>
      <trkpt lat="42.82306" lon="0.98057">
        <ele>1295</ele>
        <time>2010-01-01T04:56:01Z</time>
      </trkpt>
      <trkpt lat="42.82314" lon="0.98044">
        <ele>1300</ele>
        <time>2010-01-01T04:56:06Z</time>
      </trkpt>
      <trkpt lat="42.82325" lon="0.98032">
        <ele>1304</ele>
        <time>2010-01-01T04:56:11Z</time>
      </trkpt>
      <trkpt lat="42.82339" lon="0.9802">
        <ele>1307</ele>
        <time>2010-01-01T04:56:18Z</time>
      </trkpt>
      <trkpt lat="42.82348" lon="0.98004">
        <ele>1312</ele>
        <time>2010-01-01T04:56:24Z</time>
      </trkpt>
      <trkpt lat="42.82359" lon="0.97994">
        <ele>1314</ele>
        <time>2010-01-01T04:56:29Z</time>
      </trkpt>
      <trkpt lat="42.82364" lon="0.97986">
        <ele>1316</ele>
        <time>2010-01-01T04:56:32Z</time>
      </trkpt>
      <trkpt lat="42.82375" lon="0.97973">
        <ele>1319</ele>
        <time>2010-01-01T04:56:38Z</time>
      </trkpt>
      <trkpt lat="42.82383" lon="0.97967">
        <ele>1319</ele>
        <time>2010-01-01T04:56:42Z</time>
      </trkpt>
      <trkpt lat="42.82391" lon="0.97961">
        <ele>1320</ele>
        <time>2010-01-01T04:56:45Z</time>
      </trkpt>
      <trkpt lat="42.82399" lon="0.9795">
        <ele>1323</ele>
        <time>2010-01-01T04:56:50Z</time>
      </trkpt>
      <trkpt lat="42.82409" lon="0.97938">
        <ele>1327</ele>
        <time>2010-01-01T04:56:55Z</time>
      </trkpt>
      <trkpt lat="42.82419" lon="0.97926">
        <ele>1329</ele>
        <time>2010-01-01T04:57:01Z</time>
      </trkpt>
      <trkpt lat="42.82429" lon="0.97914">
        <ele>1330</ele>
        <time>2010-01-01T04:57:06Z</time>
      </trkpt>
      <trkpt lat="42.82435" lon="0.97903">
        <ele>1333</ele>
        <time>2010-01-01T04:57:10Z</time>
      </trkpt>
      <trkpt lat="42.8244" lon="0.97896">
        <ele>1334</ele>
        <time>2010-01-01T04:57:13Z</time>
      </trkpt>
      <trkpt lat="42.82446" lon="0.97884">
        <ele>1337</ele>
        <time>2010-01-01T04:57:17Z</time>
      </trkpt>
      <trkpt lat="42.82457" lon="0.9787">
        <ele>1341</ele>
        <time>2010-01-01T04:57:23Z</time>
      </trkpt>
      <trkpt lat="42.82474" lon="0.97857">
        <ele>1342</ele>
        <time>2010-01-01T04:57:31Z</time>
      </trkpt>
      <trkpt lat="42.82482" lon="0.97844">
        <ele>1344</ele>
        <time>2010-01-01T04:57:36Z</time>
      </trkpt>
      <trkpt lat="42.82491" lon="0.97826">
        <ele>1349</ele>
        <time>2010-01-01T04:57:42Z</time>
      </trkpt>
      <trkpt lat="42.82498" lon="0.97811">
        <ele>1352</ele>
        <time>2010-01-01T04:57:48Z</time>
      </trkpt>
      <trkpt lat="42.82504" lon="0.97803">
        <ele>1351</ele>
        <time>2010-01-01T04:57:51Z</time>
      </trkpt>
      <trkpt lat="42.82522" lon="0.97786">
        <ele>1344</ele>
        <time>2010-01-01T04:58:00Z</time>
      </trkpt>
      <trkpt lat="42.82526" lon="0.97781">
        <ele>1342</ele>
        <time>2010-01-01T04:58:02Z</time>
      </trkpt>
      <trkpt lat="42.82539" lon="0.9776">
        <ele>1346</ele>
        <time>2010-01-01T04:58:10Z</time>
      </trkpt>
      <trkpt lat="42.82543" lon="0.97742">
        <ele>1350</ele>
        <time>2010-01-01T04:58:15Z</time>
      </trkpt>
      <trkpt lat="42.82543" lon="0.97735">
        <ele>1351</ele>
        <time>2010-01-01T04:58:18Z</time>
      </trkpt>
      <trkpt lat="42.82542" lon="0.97735">
        <ele>1351</ele>
        <time>2010-01-01T04:58:18Z</time>
      </trkpt>
      <trkpt lat="42.82545" lon="0.9774">
        <ele>1350</ele>
        <time>2010-01-01T04:58:20Z</time>
      </trkpt>
      <trkpt lat="42.82537" lon="0.97748">
        <ele>1349</ele>
        <time>2010-01-01T04:58:24Z</time>
      </trkpt>
      <trkpt lat="42.82536" lon="0.97749">
        <ele>1349</ele>
        <time>2010-01-01T04:58:24Z</time>
      </trkpt>
      <trkpt lat="42.82532" lon="0.9776">
        <ele>1347</ele>
        <time>2010-01-01T04:58:28Z</time>
      </trkpt>
      <trkpt lat="42.82524" lon="0.97775">
        <ele>1346</ele>
        <time>2010-01-01T04:58:33Z</time>
      </trkpt>
      <trkpt lat="42.82513" lon="0.97772">
        <ele>1354</ele>
        <time>2010-01-01T04:58:38Z</time>
      </trkpt>
      <trkpt lat="42.8251" lon="0.97777">
        <ele>1354</ele>
        <time>2010-01-01T04:58:40Z</time>
      </trkpt>
      <trkpt lat="42.82509" lon="0.97781">
        <ele>1354</ele>
        <time>2010-01-01T04:58:41Z</time>
      </trkpt>
      <trkpt lat="42.82505" lon="0.97771">
        <ele>1359</ele>
        <time>2010-01-01T04:58:44Z</time>
      </trkpt>
      <trkpt lat="42.82506" lon="0.97775">
        <ele>1357</ele>
        <time>2010-01-01T04:58:45Z</time>
      </trkpt>
      <trkpt lat="42.82507" lon="0.97779">
        <ele>1356</ele>
        <time>2010-01-01T04:58:46Z</time>
      </trkpt>
      <trkpt lat="42.8251" lon="0.97777">
        <ele>1354</ele>
        <time>2010-01-01T04:58:48Z</time>
      </trkpt>
      <trkpt lat="42.82509" lon="0.97775">
        <ele>1356</ele>
        <time>2010-01-01T04:58:49Z</time>
      </trkpt>
      <trkpt lat="42.82512" lon="0.97779">
        <ele>1352</ele>
        <time>2010-01-01T04:58:51Z</time>
      </trkpt>
      <trkpt lat="42.82515" lon="0.97786">
        <ele>1349</ele>
        <time>2010-01-01T04:58:53Z</time>
      </trkpt>
      <trkpt lat="42.82519" lon="0.97785">
        <ele>1346</ele>
        <time>2010-01-01T04:58:55Z</time>
      </trkpt>
      <trkpt lat="42.82529" lon="0.97783">
        <ele>1341</ele>
        <time>2010-01-01T04:58:59Z</time>
      </trkpt>
      <trkpt lat="42.82533" lon="0.97769">
        <ele>1344</ele>
        <time>2010-01-01T04:59:03Z</time>
      </trkpt>
      <trkpt lat="42.82537" lon="0.97752">
        <ele>1348</ele>
        <time>2010-01-01T04:59:08Z</time>
      </trkpt>
      <trkpt lat="42.82535" lon="0.9775">
        <ele>1349</ele>
        <time>2010-01-01T04:59:09Z</time>
      </trkpt>
      <trkpt lat="42.82535" lon="0.9775">
        <ele>1349</ele>
        <time>2010-01-01T04:59:09Z</time>
      </trkpt>
      <trkpt lat="42.82537" lon="0.97751">
        <ele>1348</ele>
        <time>2010-01-01T04:59:10Z</time>
      </trkpt>
      <trkpt lat="42.82541" lon="0.97765">
        <ele>1344</ele>
        <time>2010-01-01T04:59:15Z</time>
      </trkpt>
      <trkpt lat="42.82544" lon="0.97778">
        <ele>1341</ele>
        <time>2010-01-01T04:59:19Z</time>
      </trkpt>
      <trkpt lat="42.8255" lon="0.97801">
        <ele>1335</ele>
        <time>2010-01-01T04:59:26Z</time>
      </trkpt>
      <trkpt lat="42.82556" lon="0.97816">
        <ele>1332</ele>
        <time>2010-01-01T04:59:31Z</time>
      </trkpt>
      <trkpt lat="42.8256" lon="0.97843">
        <ele>1331</ele>
        <time>2010-01-01T04:59:39Z</time>
      </trkpt>
      <trkpt lat="42.8256" lon="0.97855">
        <ele>1331</ele>
        <time>2010-01-01T04:59:43Z</time>
      </trkpt>
      <trkpt lat="42.82562" lon="0.97885">
        <ele>1329</ele>
        <time>2010-01-01T04:59:51Z</time>
      </trkpt>
      <trkpt lat="42.82564" lon="0.97909">
        <ele>1327</ele>
        <time>2010-01-01T04:59:58Z</time>
      </trkpt>
      <trkpt lat="42.82564" lon="0.97916">
        <ele>1326</ele>
        <time>2010-01-01T05:00:00Z</time>
      </trkpt>
      <trkpt lat="42.82565" lon="0.97931">
        <ele>1324</ele>
        <time>2010-01-01T05:00:05Z</time>
      </trkpt>
      <trkpt lat="42.82572" lon="0.97931">
        <ele>1327</ele>
        <time>2010-01-01T05:00:08Z</time>
      </trkpt>
      <trkpt lat="42.82579" lon="0.97922">
        <ele>1331</ele>
        <time>2010-01-01T05:00:12Z</time>
      </trkpt>
      <trkpt lat="42.82585" lon="0.97915">
        <ele>1334</ele>
        <time>2010-01-01T05:00:15Z</time>
      </trkpt>
      <trkpt lat="42.8259" lon="0.97907">
        <ele>1335</ele>
        <time>2010-01-01T05:00:18Z</time>
      </trkpt>
      <trkpt lat="42.82599" lon="0.97896">
        <ele>1338</ele>
        <time>2010-01-01T05:00:23Z</time>
      </trkpt>
      <trkpt lat="42.82603" lon="0.97889">
        <ele>1340</ele>
        <time>2010-01-01T05:00:25Z</time>
      </trkpt>
      <trkpt lat="42.82609" lon="0.97879">
        <ele>1343</ele>
        <time>2010-01-01T05:00:29Z</time>
      </trkpt>
      <trkpt lat="42.82606" lon="0.97869">
        <ele>1344</ele>
        <time>2010-01-01T05:00:32Z</time>
      </trkpt>
      <trkpt lat="42.82602" lon="0.97851">
        <ele>1347</ele>
        <time>2010-01-01T05:00:38Z</time>
      </trkpt>
      <trkpt lat="42.826" lon="0.97833">
        <ele>1349</ele>
        <time>2010-01-01T05:00:43Z</time>
      </trkpt>
      <trkpt lat="42.8261" lon="0.97846">
        <ele>1351</ele>
        <time>2010-01-01T05:00:49Z</time>
      </trkpt>
      <trkpt lat="42.82619" lon="0.97858">
        <ele>1350</ele>
        <time>2010-01-01T05:00:54Z</time>
      </trkpt>
      <trkpt lat="42.82617" lon="0.9785">
        <ele>1352</ele>
        <time>2010-01-01T05:00:56Z</time>
      </trkpt>
      <trkpt lat="42.82615" lon="0.97838">
        <ele>1355</ele>
        <time>2010-01-01T05:01:00Z</time>
      </trkpt>
      <trkpt lat="42.82623" lon="0.97841">
        <ele>1356</ele>
        <time>2010-01-01T05:01:03Z</time>
      </trkpt>
      <trkpt lat="42.82622" lon="0.9784">
        <ele>1356</ele>
        <time>2010-01-01T05:01:03Z</time>
      </trkpt>
      <trkpt lat="42.82621" lon="0.97836">
        <ele>1357</ele>
        <time>2010-01-01T05:01:05Z</time>
      </trkpt>
      <trkpt lat="42.82626" lon="0.97827">
        <ele>1361</ele>
        <time>2010-01-01T05:01:08Z</time>
      </trkpt>
      <trkpt lat="42.82629" lon="0.97821">
        <ele>1363</ele>
        <time>2010-01-01T05:01:10Z</time>
      </trkpt>
      <trkpt lat="42.82631" lon="0.97812">
        <ele>1366</ele>
        <time>2010-01-01T05:01:13Z</time>
      </trkpt>
      <trkpt lat="42.82638" lon="0.9782">
        <ele>1367</ele>
        <time>2010-01-01T05:01:17Z</time>
      </trkpt>
      <trkpt lat="42.82641" lon="0.97825">
        <ele>1366</ele>
        <time>2010-01-01T05:01:19Z</time>
      </trkpt>
      <trkpt lat="42.82642" lon="0.9782">
        <ele>1367</ele>
        <time>2010-01-01T05:01:20Z</time>
      </trkpt>
      <trkpt lat="42.82641" lon="0.97808">
        <ele>1370</ele>
        <time>2010-01-01T05:01:24Z</time>
      </trkpt>
      <trkpt lat="42.82645" lon="0.97808">
        <ele>1371</ele>
        <time>2010-01-01T05:01:25Z</time>
      </trkpt>
      <trkpt lat="42.8264" lon="0.97787">
        <ele>1375</ele>
        <time>2010-01-01T05:01:32Z</time>
      </trkpt>
      <trkpt lat="42.82645" lon="0.97788">
        <ele>1376</ele>
        <time>2010-01-01T05:01:34Z</time>
      </trkpt>
      <trkpt lat="42.82649" lon="0.97786">
        <ele>1377</ele>
        <time>2010-01-01T05:01:36Z</time>
      </trkpt>
      <trkpt lat="42.82647" lon="0.97774">
        <ele>1380</ele>
        <time>2010-01-01T05:01:39Z</time>
      </trkpt>
      <trkpt lat="42.82651" lon="0.97768">
        <ele>1383</ele>
        <time>2010-01-01T05:01:42Z</time>
      </trkpt>
      <trkpt lat="42.82648" lon="0.97754">
        <ele>1387</ele>
        <time>2010-01-01T05:01:46Z</time>
      </trkpt>
      <trkpt lat="42.8265" lon="0.97748">
        <ele>1389</ele>
        <time>2010-01-01T05:01:48Z</time>
      </trkpt>
      <trkpt lat="42.82654" lon="0.97746">
        <ele>1391</ele>
        <time>2010-01-01T05:01:50Z</time>
      </trkpt>
      <trkpt lat="42.82654" lon="0.9774">
        <ele>1393</ele>
        <time>2010-01-01T05:01:52Z</time>
      </trkpt>
      <trkpt lat="42.82655" lon="0.97734">
        <ele>1397</ele>
        <time>2010-01-01T05:01:54Z</time>
      </trkpt>
      <trkpt lat="42.82658" lon="0.97727">
        <ele>1400</ele>
        <time>2010-01-01T05:01:56Z</time>
      </trkpt>
      <trkpt lat="42.8266" lon="0.9772">
        <ele>1403</ele>
        <time>2010-01-01T05:01:58Z</time>
      </trkpt>
      <trkpt lat="42.82658" lon="0.97713">
        <ele>1405</ele>
        <time>2010-01-01T05:02:00Z</time>
      </trkpt>
      <trkpt lat="42.82663" lon="0.97713">
        <ele>1407</ele>
        <time>2010-01-01T05:02:02Z</time>
      </trkpt>
      <trkpt lat="42.82669" lon="0.97713">
        <ele>1409</ele>
        <time>2010-01-01T05:02:04Z</time>
      </trkpt>
      <trkpt lat="42.82657" lon="0.97696">
        <ele>1409</ele>
        <time>2010-01-01T05:02:11Z</time>
      </trkpt>
      <trkpt lat="42.82664" lon="0.97696">
        <ele>1412</ele>
        <time>2010-01-01T05:02:14Z</time>
      </trkpt>
      <trkpt lat="42.82673" lon="0.97697">
        <ele>1415</ele>
        <time>2010-01-01T05:02:18Z</time>
      </trkpt>
      <trkpt lat="42.82659" lon="0.97681">
        <ele>1414</ele>
        <time>2010-01-01T05:02:25Z</time>
      </trkpt>
      <trkpt lat="42.82664" lon="0.97676">
        <ele>1418</ele>
        <time>2010-01-01T05:02:28Z</time>
      </trkpt>
      <trkpt lat="42.82675" lon="0.97678">
        <ele>1421</ele>
        <time>2010-01-01T05:02:32Z</time>
      </trkpt>
      <trkpt lat="42.82668" lon="0.97668">
        <ele>1422</ele>
        <time>2010-01-01T05:02:36Z</time>
      </trkpt>
      <trkpt lat="42.82665" lon="0.97657">
        <ele>1424</ele>
        <time>2010-01-01T05:02:39Z</time>
      </trkpt>
      <trkpt lat="42.82673" lon="0.97653">
        <ele>1428</ele>
        <time>2010-01-01T05:02:43Z</time>
      </trkpt>
      <trkpt lat="42.82682" lon="0.97659">
        <ele>1430</ele>
        <time>2010-01-01T05:02:47Z</time>
      </trkpt>
      <trkpt lat="42.82682" lon="0.97654">
        <ele>1431</ele>
        <time>2010-01-01T05:02:48Z</time>
      </trkpt>
      <trkpt lat="42.82672" lon="0.9764">
        <ele>1432</ele>
        <time>2010-01-01T05:02:54Z</time>
      </trkpt>
      <trkpt lat="42.82677" lon="0.97635">
        <ele>1435</ele>
        <time>2010-01-01T05:02:56Z</time>
      </trkpt>
      <trkpt lat="42.82683" lon="0.97635">
        <ele>1437</ele>
        <time>2010-01-01T05:02:59Z</time>
      </trkpt>
      <trkpt lat="42.82676" lon="0.97622">
        <ele>1438</ele>
        <time>2010-01-01T05:03:04Z</time>
      </trkpt>
      <trkpt lat="42.82683" lon="0.97619">
        <ele>1441</ele>
        <time>2010-01-01T05:03:07Z</time>
      </trkpt>
      <trkpt lat="42.82687" lon="0.97614">
        <ele>1443</ele>
        <time>2010-01-01T05:03:09Z</time>
      </trkpt>
      <trkpt lat="42.82684" lon="0.97606">
        <ele>1445</ele>
        <time>2010-01-01T05:03:11Z</time>
      </trkpt>
      <trkpt lat="42.82679" lon="0.9759">
        <ele>1448</ele>
        <time>2010-01-01T05:03:17Z</time>
      </trkpt>
      <trkpt lat="42.82687" lon="0.97591">
        <ele>1450</ele>
        <time>2010-01-01T05:03:20Z</time>
      </trkpt>
      <trkpt lat="42.82693" lon="0.9759">
        <ele>1453</ele>
        <time>2010-01-01T05:03:22Z</time>
      </trkpt>
      <trkpt lat="42.82692" lon="0.97586">
        <ele>1454</ele>
        <time>2010-01-01T05:03:23Z</time>
      </trkpt>
      <trkpt lat="42.82691" lon="0.97582">
        <ele>1454</ele>
        <time>2010-01-01T05:03:24Z</time>
      </trkpt>
      <trkpt lat="42.82693" lon="0.97576">
        <ele>1457</ele>
        <time>2010-01-01T05:03:26Z</time>
      </trkpt>
      <trkpt lat="42.82693" lon="0.9757">
        <ele>1460</ele>
        <time>2010-01-01T05:03:28Z</time>
      </trkpt>
      <trkpt lat="42.82692" lon="0.97558">
        <ele>1463</ele>
        <time>2010-01-01T05:03:32Z</time>
      </trkpt>
      <trkpt lat="42.82696" lon="0.97556">
        <ele>1466</ele>
        <time>2010-01-01T05:03:34Z</time>
      </trkpt>
      <trkpt lat="42.82694" lon="0.9755">
        <ele>1468</ele>
        <time>2010-01-01T05:03:36Z</time>
      </trkpt>
      <trkpt lat="42.82693" lon="0.9754">
        <ele>1472</ele>
        <time>2010-01-01T05:03:39Z</time>
      </trkpt>
      <trkpt lat="42.82698" lon="0.97537">
        <ele>1475</ele>
        <time>2010-01-01T05:03:41Z</time>
      </trkpt>
      <trkpt lat="42.82707" lon="0.97537">
        <ele>1477</ele>
        <time>2010-01-01T05:03:45Z</time>
      </trkpt>
      <trkpt lat="42.82709" lon="0.9753">
        <ele>1481</ele>
        <time>2010-01-01T05:03:47Z</time>
      </trkpt>
      <trkpt lat="42.82703" lon="0.97518">
        <ele>1484</ele>
        <time>2010-01-01T05:03:51Z</time>
      </trkpt>
      <trkpt lat="42.8271" lon="0.97515">
        <ele>1486</ele>
        <time>2010-01-01T05:03:54Z</time>
      </trkpt>
      <trkpt lat="42.82705" lon="0.97506">
        <ele>1488</ele>
        <time>2010-01-01T05:03:57Z</time>
      </trkpt>
      <trkpt lat="42.82705" lon="0.97499">
        <ele>1491</ele>
        <time>2010-01-01T05:04:00Z</time>
      </trkpt>
      <trkpt lat="42.82715" lon="0.97495">
        <ele>1492</ele>
        <time>2010-01-01T05:04:03Z</time>
      </trkpt>
      <trkpt lat="42.82707" lon="0.97486">
        <ele>1494</ele>
        <time>2010-01-01T05:04:07Z</time>
      </trkpt>
      <trkpt lat="42.82714" lon="0.97484">
        <ele>1495</ele>
        <time>2010-01-01T05:04:10Z</time>
      </trkpt>
      <trkpt lat="42.82707" lon="0.97473">
        <ele>1497</ele>
        <time>2010-01-01T05:04:15Z</time>
      </trkpt>
      <trkpt lat="42.82713" lon="0.97471">
        <ele>1498</ele>
        <time>2010-01-01T05:04:18Z</time>
      </trkpt>
      <trkpt lat="42.8272" lon="0.97465">
        <ele>1501</ele>
        <time>2010-01-01T05:04:21Z</time>
      </trkpt>
      <trkpt lat="42.82714" lon="0.97458">
        <ele>1503</ele>
        <time>2010-01-01T05:04:24Z</time>
      </trkpt>
      <trkpt lat="42.82708" lon="0.97448">
        <ele>1505</ele>
        <time>2010-01-01T05:04:28Z</time>
      </trkpt>
      <trkpt lat="42.82708" lon="0.97441">
        <ele>1508</ele>
        <time>2010-01-01T05:04:30Z</time>
      </trkpt>
      <trkpt lat="42.82717" lon="0.9744">
        <ele>1510</ele>
        <time>2010-01-01T05:04:34Z</time>
      </trkpt>
      <trkpt lat="42.82721" lon="0.97437">
        <ele>1512</ele>
        <time>2010-01-01T05:04:36Z</time>
      </trkpt>
      <trkpt lat="42.82719" lon="0.9743">
        <ele>1515</ele>
        <time>2010-01-01T05:04:38Z</time>
      </trkpt>
      <trkpt lat="42.82714" lon="0.97423">
        <ele>1517</ele>
        <time>2010-01-01T05:04:41Z</time>
      </trkpt>
      <trkpt lat="42.82709" lon="0.97414">
        <ele>1520</ele>
        <time>2010-01-01T05:04:44Z</time>
      </trkpt>
      <trkpt lat="42.82704" lon="0.97401">
        <ele>1523</ele>
        <time>2010-01-01T05:04:48Z</time>
      </trkpt>
      <trkpt lat="42.827" lon="0.97395">
        <ele>1525</ele>
        <time>2010-01-01T05:04:51Z</time>
      </trkpt>
      <trkpt lat="42.82712" lon="0.97401">
        <ele>1525</ele>
        <time>2010-01-01T05:04:56Z</time>
      </trkpt>
      <trkpt lat="42.8272" lon="0.97401">
        <ele>1526</ele>
        <time>2010-01-01T05:04:59Z</time>
      </trkpt>
      <trkpt lat="42.82721" lon="0.97398">
        <ele>1527</ele>
        <time>2010-01-01T05:05:00Z</time>
      </trkpt>
      <trkpt lat="42.82726" lon="0.97393">
        <ele>1529</ele>
        <time>2010-01-01T05:05:03Z</time>
      </trkpt>
      <trkpt lat="42.82716" lon="0.97386">
        <ele>1531</ele>
        <time>2010-01-01T05:05:07Z</time>
      </trkpt>
      <trkpt lat="42.82715" lon="0.97378">
        <ele>1533</ele>
        <time>2010-01-01T05:05:09Z</time>
      </trkpt>
      <trkpt lat="42.82724" lon="0.97378">
        <ele>1535</ele>
        <time>2010-01-01T05:05:13Z</time>
      </trkpt>
      <trkpt lat="42.82726" lon="0.97372">
        <ele>1538</ele>
        <time>2010-01-01T05:05:15Z</time>
      </trkpt>
      <trkpt lat="42.82729" lon="0.97372">
        <ele>1538</ele>
        <time>2010-01-01T05:05:16Z</time>
      </trkpt>
      <trkpt lat="42.82731" lon="0.97372">
        <ele>1538</ele>
        <time>2010-01-01T05:05:16Z</time>
      </trkpt>
      <trkpt lat="42.82727" lon="0.97371">
        <ele>1538</ele>
        <time>2010-01-01T05:05:18Z</time>
      </trkpt>
      <trkpt lat="42.82726" lon="0.9737">
        <ele>1538</ele>
        <time>2010-01-01T05:05:18Z</time>
      </trkpt>
      <trkpt lat="42.82724" lon="0.97371">
        <ele>1538</ele>
        <time>2010-01-01T05:05:19Z</time>
      </trkpt>
      <trkpt lat="42.82724" lon="0.97373">
        <ele>1537</ele>
        <time>2010-01-01T05:05:20Z</time>
      </trkpt>
      <trkpt lat="42.82724" lon="0.97372">
        <ele>1537</ele>
        <time>2010-01-01T05:05:20Z</time>
      </trkpt>
      <trkpt lat="42.82725" lon="0.97372">
        <ele>1538</ele>
        <time>2010-01-01T05:05:21Z</time>
      </trkpt>
      <trkpt lat="42.82724" lon="0.97371">
        <ele>1538</ele>
        <time>2010-01-01T05:05:22Z</time>
      </trkpt>
      <trkpt lat="42.82723" lon="0.97372">
        <ele>1537</ele>
        <time>2010-01-01T05:05:22Z</time>
      </trkpt>
      <trkpt lat="42.82723" lon="0.97377">
        <ele>1535</ele>
        <time>2010-01-01T05:05:23Z</time>
      </trkpt>
      <trkpt lat="42.82729" lon="0.97376">
        <ele>1536</ele>
        <time>2010-01-01T05:05:26Z</time>
      </trkpt>
      <trkpt lat="42.82727" lon="0.97371">
        <ele>1538</ele>
        <time>2010-01-01T05:05:27Z</time>
      </trkpt>
      <trkpt lat="42.82725" lon="0.97369">
        <ele>1539</ele>
        <time>2010-01-01T05:05:28Z</time>
      </trkpt>
      <trkpt lat="42.82721" lon="0.97361">
        <ele>1541</ele>
        <time>2010-01-01T05:05:31Z</time>
      </trkpt>
      <trkpt lat="42.82716" lon="0.97342">
        <ele>1546</ele>
        <time>2010-01-01T05:05:37Z</time>
      </trkpt>
      <trkpt lat="42.82708" lon="0.97323">
        <ele>1549</ele>
        <time>2010-01-01T05:05:44Z</time>
      </trkpt>
      <trkpt lat="42.82701" lon="0.97308">
        <ele>1549</ele>
        <time>2010-01-01T05:05:49Z</time>
      </trkpt>
      <trkpt lat="42.827" lon="0.97303">
        <ele>1551</ele>
        <time>2010-01-01T05:05:50Z</time>
      </trkpt>
      <trkpt lat="42.82695" lon="0.97284">
        <ele>1555</ele>
        <time>2010-01-01T05:05:57Z</time>
      </trkpt>
      <trkpt lat="42.8269" lon="0.97266">
        <ele>1559</ele>
        <time>2010-01-01T05:06:02Z</time>
      </trkpt>
      <trkpt lat="42.82691" lon="0.97265">
        <ele>1559</ele>
        <time>2010-01-01T05:06:02Z</time>
      </trkpt>
      <trkpt lat="42.82689" lon="0.97258">
        <ele>1561</ele>
        <time>2010-01-01T05:06:04Z</time>
      </trkpt>
      <trkpt lat="42.82687" lon="0.9725">
        <ele>1563</ele>
        <time>2010-01-01T05:06:07Z</time>
      </trkpt>
      <trkpt lat="42.82684" lon="0.97236">
        <ele>1566</ele>
        <time>2010-01-01T05:06:11Z</time>
      </trkpt>
      <trkpt lat="42.82683" lon="0.97216">
        <ele>1573</ele>
        <time>2010-01-01T05:06:17Z</time>
      </trkpt>
      <trkpt lat="42.82682" lon="0.97207">
        <ele>1577</ele>
        <time>2010-01-01T05:06:20Z</time>
      </trkpt>
      <trkpt lat="42.82675" lon="0.97189">
        <ele>1579</ele>
        <time>2010-01-01T05:06:26Z</time>
      </trkpt>
      <trkpt lat="42.82676" lon="0.97174">
        <ele>1584</ele>
        <time>2010-01-01T05:06:30Z</time>
      </trkpt>
      <trkpt lat="42.82685" lon="0.97159">
        <ele>1590</ele>
        <time>2010-01-01T05:06:36Z</time>
      </trkpt>
      <trkpt lat="42.82689" lon="0.97152">
        <ele>1594</ele>
        <time>2010-01-01T05:06:39Z</time>
      </trkpt>
      <trkpt lat="42.8269" lon="0.97149">
        <ele>1594</ele>
        <time>2010-01-01T05:06:39Z</time>
      </trkpt>
      <trkpt lat="42.82697" lon="0.97133">
        <ele>1600</ele>
        <time>2010-01-01T05:06:45Z</time>
      </trkpt>
      <trkpt lat="42.82704" lon="0.97122">
        <ele>1604</ele>
        <time>2010-01-01T05:06:49Z</time>
      </trkpt>
      <trkpt lat="42.82707" lon="0.97102">
        <ele>1607</ele>
        <time>2010-01-01T05:06:55Z</time>
      </trkpt>
      <trkpt lat="42.82703" lon="0.97083">
        <ele>1607</ele>
        <time>2010-01-01T05:07:01Z</time>
      </trkpt>
      <trkpt lat="42.82703" lon="0.97083">
        <ele>1607</ele>
        <time>2010-01-01T05:07:01Z</time>
      </trkpt>
      <trkpt lat="42.82702" lon="0.9708">
        <ele>1606</ele>
        <time>2010-01-01T05:07:02Z</time>
      </trkpt>
      <trkpt lat="42.8269" lon="0.97063">
        <ele>1603</ele>
        <time>2010-01-01T05:07:09Z</time>
      </trkpt>
      <trkpt lat="42.82683" lon="0.97054">
        <ele>1601</ele>
        <time>2010-01-01T05:07:13Z</time>
      </trkpt>
      <trkpt lat="42.82672" lon="0.97038">
        <ele>1600</ele>
        <time>2010-01-01T05:07:20Z</time>
      </trkpt>
      <trkpt lat="42.82663" lon="0.97021">
        <ele>1600</ele>
        <time>2010-01-01T05:07:26Z</time>
      </trkpt>
      <trkpt lat="42.82658" lon="0.97009">
        <ele>1601</ele>
        <time>2010-01-01T05:07:30Z</time>
      </trkpt>
      <trkpt lat="42.82654" lon="0.9699">
        <ele>1603</ele>
        <time>2010-01-01T05:07:35Z</time>
      </trkpt>
      <trkpt lat="42.82654" lon="0.9699">
        <ele>1603</ele>
        <time>2010-01-01T05:07:36Z</time>
      </trkpt>
      <trkpt lat="42.82651" lon="0.96983">
        <ele>1603</ele>
        <time>2010-01-01T05:07:38Z</time>
      </trkpt>
      <trkpt lat="42.82648" lon="0.96967">
        <ele>1606</ele>
        <time>2010-01-01T05:07:43Z</time>
      </trkpt>
      <trkpt lat="42.82644" lon="0.9695">
        <ele>1608</ele>
        <time>2010-01-01T05:07:48Z</time>
      </trkpt>
      <trkpt lat="42.82641" lon="0.96932">
        <ele>1613</ele>
        <time>2010-01-01T05:07:53Z</time>
      </trkpt>
      <trkpt lat="42.82637" lon="0.96911">
        <ele>1618</ele>
        <time>2010-01-01T05:08:00Z</time>
      </trkpt>
      <trkpt lat="42.82633" lon="0.96891">
        <ele>1619</ele>
        <time>2010-01-01T05:08:06Z</time>
      </trkpt>
      <trkpt lat="42.8263" lon="0.96877">
        <ele>1621</ele>
        <time>2010-01-01T05:08:10Z</time>
      </trkpt>
      <trkpt lat="42.8263" lon="0.96869">
        <ele>1622</ele>
        <time>2010-01-01T05:08:12Z</time>
      </trkpt>
      <trkpt lat="42.82628" lon="0.96858">
        <ele>1624</ele>
        <time>2010-01-01T05:08:16Z</time>
      </trkpt>
      <trkpt lat="42.82624" lon="0.96839">
        <ele>1627</ele>
        <time>2010-01-01T05:08:22Z</time>
      </trkpt>
      <trkpt lat="42.82624" lon="0.96836">
        <ele>1627</ele>
        <time>2010-01-01T05:08:22Z</time>
      </trkpt>
      <trkpt lat="42.8263" lon="0.96819">
        <ele>1633</ele>
        <time>2010-01-01T05:08:28Z</time>
      </trkpt>
      <trkpt lat="42.82633" lon="0.96819">
        <ele>1633</ele>
        <time>2010-01-01T05:08:29Z</time>
      </trkpt>
      <trkpt lat="42.82643" lon="0.96815">
        <ele>1636</ele>
        <time>2010-01-01T05:08:33Z</time>
      </trkpt>
      <trkpt lat="42.82647" lon="0.96809">
        <ele>1638</ele>
        <time>2010-01-01T05:08:36Z</time>
      </trkpt>
      <trkpt lat="42.82648" lon="0.9681">
        <ele>1638</ele>
        <time>2010-01-01T05:08:36Z</time>
      </trkpt>
      <trkpt lat="42.82646" lon="0.96809">
        <ele>1638</ele>
        <time>2010-01-01T05:08:37Z</time>
      </trkpt>
      <trkpt lat="42.82643" lon="0.96807">
        <ele>1638</ele>
        <time>2010-01-01T05:08:38Z</time>
      </trkpt>
      <trkpt lat="42.82645" lon="0.9681">
        <ele>1638</ele>
        <time>2010-01-01T05:08:39Z</time>
      </trkpt>
      <trkpt lat="42.82647" lon="0.96811">
        <ele>1637</ele>
        <time>2010-01-01T05:08:40Z</time>
      </trkpt>
      <trkpt lat="42.82649" lon="0.96811">
        <ele>1637</ele>
        <time>2010-01-01T05:08:41Z</time>
      </trkpt>
      <trkpt lat="42.82647" lon="0.96811">
        <ele>1637</ele>
        <time>2010-01-01T05:08:42Z</time>
      </trkpt>
      <trkpt lat="42.82646" lon="0.9681">
        <ele>1637</ele>
        <time>2010-01-01T05:08:42Z</time>
      </trkpt>
      <trkpt lat="42.82645" lon="0.96808">
        <ele>1638</ele>
        <time>2010-01-01T05:08:43Z</time>
      </trkpt>
      <trkpt lat="42.82646" lon="0.96807">
        <ele>1638</ele>
        <time>2010-01-01T05:08:43Z</time>
      </trkpt>
      <trkpt lat="42.82645" lon="0.96807">
        <ele>1638</ele>
        <time>2010-01-01T05:08:43Z</time>
      </trkpt>
      <trkpt lat="42.82652" lon="0.96815">
        <ele>1637</ele>
        <time>2010-01-01T05:08:47Z</time>
      </trkpt>
      <trkpt lat="42.82655" lon="0.96813">
        <ele>1637</ele>
        <time>2010-01-01T05:08:48Z</time>
      </trkpt>
      <trkpt lat="42.82656" lon="0.96817">
        <ele>1636</ele>
        <time>2010-01-01T05:08:49Z</time>
      </trkpt>
      <trkpt lat="42.82655" lon="0.96819">
        <ele>1636</ele>
        <time>2010-01-01T05:08:50Z</time>
      </trkpt>
      <trkpt lat="42.82647" lon="0.96812">
        <ele>1637</ele>
        <time>2010-01-01T05:08:54Z</time>
      </trkpt>
      <trkpt lat="42.82648" lon="0.96811">
        <ele>1637</ele>
        <time>2010-01-01T05:08:55Z</time>
      </trkpt>
      <trkpt lat="42.82648" lon="0.96809">
        <ele>1638</ele>
        <time>2010-01-01T05:08:55Z</time>
      </trkpt>
      <trkpt lat="42.82647" lon="0.96808">
        <ele>1638</ele>
        <time>2010-01-01T05:08:55Z</time>
      </trkpt>
      <trkpt lat="42.82647" lon="0.96814">
        <ele>1637</ele>
        <time>2010-01-01T05:08:57Z</time>
      </trkpt>
      <trkpt lat="42.82648" lon="0.96816">
        <ele>1636</ele>
        <time>2010-01-01T05:08:58Z</time>
      </trkpt>
      <trkpt lat="42.82657" lon="0.96834">
        <ele>1633</ele>
        <time>2010-01-01T05:09:04Z</time>
      </trkpt>
      <trkpt lat="42.82666" lon="0.96847">
        <ele>1632</ele>
        <time>2010-01-01T05:09:09Z</time>
      </trkpt>
      <trkpt lat="42.8267" lon="0.9684">
        <ele>1634</ele>
        <time>2010-01-01T05:09:12Z</time>
      </trkpt>
      <trkpt lat="42.82672" lon="0.96834">
        <ele>1635</ele>
        <time>2010-01-01T05:09:14Z</time>
      </trkpt>
      <trkpt lat="42.82671" lon="0.96831">
        <ele>1636</ele>
        <time>2010-01-01T05:09:15Z</time>
      </trkpt>
      <trkpt lat="42.82668" lon="0.96813">
        <ele>1638</ele>
        <time>2010-01-01T05:09:20Z</time>
      </trkpt>
      <trkpt lat="42.82667" lon="0.96815">
        <ele>1637</ele>
        <time>2010-01-01T05:09:21Z</time>
      </trkpt>
      <trkpt lat="42.82667" lon="0.96814">
        <ele>1637</ele>
        <time>2010-01-01T05:09:21Z</time>
      </trkpt>
      <trkpt lat="42.82667" lon="0.96815">
        <ele>1637</ele>
        <time>2010-01-01T05:09:22Z</time>
      </trkpt>
      <trkpt lat="42.82664" lon="0.9681">
        <ele>1638</ele>
        <time>2010-01-01T05:09:23Z</time>
      </trkpt>
      <trkpt lat="42.82659" lon="0.96798">
        <ele>1641</ele>
        <time>2010-01-01T05:09:27Z</time>
      </trkpt>
      <trkpt lat="42.82648" lon="0.96781">
        <ele>1646</ele>
        <time>2010-01-01T05:09:34Z</time>
      </trkpt>
      <trkpt lat="42.82648" lon="0.96781">
        <ele>1646</ele>
        <time>2010-01-01T05:09:34Z</time>
      </trkpt>
      <trkpt lat="42.82637" lon="0.9677">
        <ele>1648</ele>
        <time>2010-01-01T05:09:40Z</time>
      </trkpt>
      <trkpt lat="42.82631" lon="0.96764">
        <ele>1649</ele>
        <time>2010-01-01T05:09:42Z</time>
      </trkpt>
      <trkpt lat="42.82623" lon="0.96752">
        <ele>1652</ele>
        <time>2010-01-01T05:09:47Z</time>
      </trkpt>
      <trkpt lat="42.82621" lon="0.96752">
        <ele>1651</ele>
        <time>2010-01-01T05:09:48Z</time>
      </trkpt>
      <trkpt lat="42.82606" lon="0.96749">
        <ele>1650</ele>
        <time>2010-01-01T05:09:54Z</time>
      </trkpt>
      <trkpt lat="42.82596" lon="0.96744">
        <ele>1651</ele>
        <time>2010-01-01T05:09:58Z</time>
      </trkpt>
      <trkpt lat="42.82587" lon="0.96739">
        <ele>1651</ele>
        <time>2010-01-01T05:10:02Z</time>
      </trkpt>
      <trkpt lat="42.82581" lon="0.96736">
        <ele>1652</ele>
        <time>2010-01-01T05:10:05Z</time>
      </trkpt>
      <trkpt lat="42.82574" lon="0.96731">
        <ele>1655</ele>
        <time>2010-01-01T05:10:08Z</time>
      </trkpt>
      <trkpt lat="42.82568" lon="0.96722">
        <ele>1659</ele>
        <time>2010-01-01T05:10:12Z</time>
      </trkpt>
      <trkpt lat="42.82561" lon="0.9671">
        <ele>1663</ele>
        <time>2010-01-01T05:10:16Z</time>
      </trkpt>
      <trkpt lat="42.82552" lon="0.96698">
        <ele>1668</ele>
        <time>2010-01-01T05:10:21Z</time>
      </trkpt>
      <trkpt lat="42.8254" lon="0.9669">
        <ele>1673</ele>
        <time>2010-01-01T05:10:26Z</time>
      </trkpt>
      <trkpt lat="42.82532" lon="0.96684">
        <ele>1677</ele>
        <time>2010-01-01T05:10:30Z</time>
      </trkpt>
      <trkpt lat="42.82526" lon="0.9668">
        <ele>1679</ele>
        <time>2010-01-01T05:10:33Z</time>
      </trkpt>
      <trkpt lat="42.82521" lon="0.96672">
        <ele>1683</ele>
        <time>2010-01-01T05:10:36Z</time>
      </trkpt>
      <trkpt lat="42.82516" lon="0.96663">
        <ele>1687</ele>
        <time>2010-01-01T05:10:39Z</time>
      </trkpt>
      <trkpt lat="42.8251" lon="0.96654">
        <ele>1692</ele>
        <time>2010-01-01T05:10:43Z</time>
      </trkpt>
      <trkpt lat="42.82508" lon="0.96652">
        <ele>1693</ele>
        <time>2010-01-01T05:10:44Z</time>
      </trkpt>
      <trkpt lat="42.82501" lon="0.96648">
        <ele>1696</ele>
        <time>2010-01-01T05:10:47Z</time>
      </trkpt>
      <trkpt lat="42.82492" lon="0.96647">
        <ele>1696</ele>
        <time>2010-01-01T05:10:50Z</time>
      </trkpt>
      <trkpt lat="42.82488" lon="0.96641">
        <ele>1697</ele>
        <time>2010-01-01T05:10:53Z</time>
      </trkpt>
      <trkpt lat="42.82482" lon="0.96636">
        <ele>1699</ele>
        <time>2010-01-01T05:10:55Z</time>
      </trkpt>
      <trkpt lat="42.82477" lon="0.96633">
        <ele>1700</ele>
        <time>2010-01-01T05:10:58Z</time>
      </trkpt>
      <trkpt lat="42.8247" lon="0.96626">
        <ele>1704</ele>
        <time>2010-01-01T05:11:01Z</time>
      </trkpt>
      <trkpt lat="42.82473" lon="0.96622">
        <ele>1707</ele>
        <time>2010-01-01T05:11:03Z</time>
      </trkpt>
      <trkpt lat="42.82477" lon="0.96615">
        <ele>1711</ele>
        <time>2010-01-01T05:11:06Z</time>
      </trkpt>
      <trkpt lat="42.82492" lon="0.96611">
        <ele>1711</ele>
        <time>2010-01-01T05:11:11Z</time>
      </trkpt>
      <trkpt lat="42.82506" lon="0.96611">
        <ele>1709</ele>
        <time>2010-01-01T05:11:17Z</time>
      </trkpt>
      <trkpt lat="42.82516" lon="0.96612">
        <ele>1709</ele>
        <time>2010-01-01T05:11:21Z</time>
      </trkpt>
      <trkpt lat="42.82531" lon="0.9661">
        <ele>1711</ele>
        <time>2010-01-01T05:11:27Z</time>
      </trkpt>
      <trkpt lat="42.82542" lon="0.9661">
        <ele>1712</ele>
        <time>2010-01-01T05:11:31Z</time>
      </trkpt>
      <trkpt lat="42.82552" lon="0.9661">
        <ele>1714</ele>
        <time>2010-01-01T05:11:35Z</time>
      </trkpt>
      <trkpt lat="42.82567" lon="0.96612">
        <ele>1715</ele>
        <time>2010-01-01T05:11:42Z</time>
      </trkpt>
      <trkpt lat="42.82583" lon="0.96616">
        <ele>1716</ele>
        <time>2010-01-01T05:11:48Z</time>
      </trkpt>
      <trkpt lat="42.82584" lon="0.96616">
        <ele>1716</ele>
        <time>2010-01-01T05:11:48Z</time>
      </trkpt>
      <trkpt lat="42.82596" lon="0.96613">
        <ele>1720</ele>
        <time>2010-01-01T05:11:53Z</time>
      </trkpt>
      <trkpt lat="42.8261" lon="0.96614">
        <ele>1722</ele>
        <time>2010-01-01T05:11:59Z</time>
      </trkpt>
      <trkpt lat="42.8262" lon="0.96614">
        <ele>1725</ele>
        <time>2010-01-01T05:12:03Z</time>
      </trkpt>
      <trkpt lat="42.82632" lon="0.96612">
        <ele>1729</ele>
        <time>2010-01-01T05:12:08Z</time>
      </trkpt>
      <trkpt lat="42.82638" lon="0.9661">
        <ele>1732</ele>
        <time>2010-01-01T05:12:10Z</time>
      </trkpt>
      <trkpt lat="42.82639" lon="0.96611">
        <ele>1732</ele>
        <time>2010-01-01T05:12:11Z</time>
      </trkpt>
      <trkpt lat="42.82651" lon="0.96613">
        <ele>1732</ele>
        <time>2010-01-01T05:12:15Z</time>
      </trkpt>
      <trkpt lat="42.82654" lon="0.96613">
        <ele>1732</ele>
        <time>2010-01-01T05:12:17Z</time>
      </trkpt>
      <trkpt lat="42.82669" lon="0.96619">
        <ele>1732</ele>
        <time>2010-01-01T05:12:23Z</time>
      </trkpt>
      <trkpt lat="42.82682" lon="0.96626">
        <ele>1733</ele>
        <time>2010-01-01T05:12:29Z</time>
      </trkpt>
      <trkpt lat="42.82695" lon="0.96631">
        <ele>1736</ele>
        <time>2010-01-01T05:12:34Z</time>
      </trkpt>
      <trkpt lat="42.82709" lon="0.96638">
        <ele>1736</ele>
        <time>2010-01-01T05:12:40Z</time>
      </trkpt>
      <trkpt lat="42.82722" lon="0.96646">
        <ele>1735</ele>
        <time>2010-01-01T05:12:45Z</time>
      </trkpt>
      <trkpt lat="42.82727" lon="0.9665">
        <ele>1734</ele>
        <time>2010-01-01T05:12:48Z</time>
      </trkpt>
      <trkpt lat="42.82725" lon="0.9665">
        <ele>1734</ele>
        <time>2010-01-01T05:12:49Z</time>
      </trkpt>
      <trkpt lat="42.82725" lon="0.96651">
        <ele>1733</ele>
        <time>2010-01-01T05:12:49Z</time>
      </trkpt>
      <trkpt lat="42.82736" lon="0.96656">
        <ele>1734</ele>
        <time>2010-01-01T05:12:54Z</time>
      </trkpt>
      <trkpt lat="42.82742" lon="0.96659">
        <ele>1734</ele>
        <time>2010-01-01T05:12:56Z</time>
      </trkpt>
      <trkpt lat="42.82744" lon="0.9666">
        <ele>1735</ele>
        <time>2010-01-01T05:12:57Z</time>
      </trkpt>
      <trkpt lat="42.82759" lon="0.96665">
        <ele>1739</ele>
        <time>2010-01-01T05:13:03Z</time>
      </trkpt>
      <trkpt lat="42.82766" lon="0.96668">
        <ele>1742</ele>
        <time>2010-01-01T05:13:06Z</time>
      </trkpt>
      <trkpt lat="42.82784" lon="0.96679">
        <ele>1743</ele>
        <time>2010-01-01T05:13:14Z</time>
      </trkpt>
      <trkpt lat="42.82794" lon="0.9668">
        <ele>1746</ele>
        <time>2010-01-01T05:13:18Z</time>
      </trkpt>
      <trkpt lat="42.82809" lon="0.96692">
        <ele>1745</ele>
        <time>2010-01-01T05:13:25Z</time>
      </trkpt>
      <trkpt lat="42.82818" lon="0.96697">
        <ele>1747</ele>
        <time>2010-01-01T05:13:29Z</time>
      </trkpt>
      <trkpt lat="42.82829" lon="0.96705">
        <ele>1749</ele>
        <time>2010-01-01T05:13:34Z</time>
      </trkpt>
      <trkpt lat="42.82839" lon="0.96714">
        <ele>1752</ele>
        <time>2010-01-01T05:13:39Z</time>
      </trkpt>
      <trkpt lat="42.82848" lon="0.96722">
        <ele>1754</ele>
        <time>2010-01-01T05:13:43Z</time>
      </trkpt>
      <trkpt lat="42.82857" lon="0.96737">
        <ele>1755</ele>
        <time>2010-01-01T05:13:49Z</time>
      </trkpt>
      <trkpt lat="42.82863" lon="0.9675">
        <ele>1755</ele>
        <time>2010-01-01T05:13:53Z</time>
      </trkpt>
      <trkpt lat="42.82866" lon="0.96753">
        <ele>1755</ele>
        <time>2010-01-01T05:13:54Z</time>
      </trkpt>
      <trkpt lat="42.82872" lon="0.96762">
        <ele>1756</ele>
        <time>2010-01-01T05:13:58Z</time>
      </trkpt>
      <trkpt lat="42.82875" lon="0.96771">
        <ele>1755</ele>
        <time>2010-01-01T05:14:01Z</time>
      </trkpt>
      <trkpt lat="42.82884" lon="0.96789">
        <ele>1755</ele>
        <time>2010-01-01T05:14:07Z</time>
      </trkpt>
      <trkpt lat="42.82893" lon="0.9681">
        <ele>1756</ele>
        <time>2010-01-01T05:14:15Z</time>
      </trkpt>
      <trkpt lat="42.82899" lon="0.96818">
        <ele>1758</ele>
        <time>2010-01-01T05:14:18Z</time>
      </trkpt>
      <trkpt lat="42.82912" lon="0.96834">
        <ele>1759</ele>
        <time>2010-01-01T05:14:25Z</time>
      </trkpt>
      <trkpt lat="42.82914" lon="0.96837">
        <ele>1759</ele>
        <time>2010-01-01T05:14:26Z</time>
      </trkpt>
      <trkpt lat="42.82919" lon="0.96839">
        <ele>1761</ele>
        <time>2010-01-01T05:14:28Z</time>
      </trkpt>
      <trkpt lat="42.82925" lon="0.96831">
        <ele>1765</ele>
        <time>2010-01-01T05:14:32Z</time>
      </trkpt>
      <trkpt lat="42.82931" lon="0.96818">
        <ele>1773</ele>
        <time>2010-01-01T05:14:36Z</time>
      </trkpt>
      <trkpt lat="42.82929" lon="0.96804">
        <ele>1776</ele>
        <time>2010-01-01T05:14:40Z</time>
      </trkpt>
      <trkpt lat="42.82928" lon="0.96796">
        <ele>1778</ele>
        <time>2010-01-01T05:14:43Z</time>
      </trkpt>
      <trkpt lat="42.82928" lon="0.96784">
        <ele>1781</ele>
        <time>2010-01-01T05:14:46Z</time>
      </trkpt>
      <trkpt lat="42.82926" lon="0.96774">
        <ele>1782</ele>
        <time>2010-01-01T05:14:49Z</time>
      </trkpt>
      <trkpt lat="42.82924" lon="0.96763">
        <ele>1784</ele>
        <time>2010-01-01T05:14:52Z</time>
      </trkpt>
      <trkpt lat="42.82924" lon="0.96752">
        <ele>1786</ele>
        <time>2010-01-01T05:14:56Z</time>
      </trkpt>
      <trkpt lat="42.82922" lon="0.9674">
        <ele>1789</ele>
        <time>2010-01-01T05:14:59Z</time>
      </trkpt>
      <trkpt lat="42.8292" lon="0.96728">
        <ele>1791</ele>
        <time>2010-01-01T05:15:03Z</time>
      </trkpt>
      <trkpt lat="42.82917" lon="0.96714">
        <ele>1794</ele>
        <time>2010-01-01T05:15:07Z</time>
      </trkpt>
      <trkpt lat="42.82915" lon="0.96699">
        <ele>1797</ele>
        <time>2010-01-01T05:15:12Z</time>
      </trkpt>
      <trkpt lat="42.82915" lon="0.96683">
        <ele>1801</ele>
        <time>2010-01-01T05:15:16Z</time>
      </trkpt>
      <trkpt lat="42.82913" lon="0.96671">
        <ele>1804</ele>
        <time>2010-01-01T05:15:20Z</time>
      </trkpt>
      <trkpt lat="42.82912" lon="0.96656">
        <ele>1806</ele>
        <time>2010-01-01T05:15:24Z</time>
      </trkpt>
      <trkpt lat="42.82911" lon="0.96644">
        <ele>1808</ele>
        <time>2010-01-01T05:15:28Z</time>
      </trkpt>
      <trkpt lat="42.82908" lon="0.96629">
        <ele>1808</ele>
        <time>2010-01-01T05:15:32Z</time>
      </trkpt>
      <trkpt lat="42.82906" lon="0.96627">
        <ele>1807</ele>
        <time>2010-01-01T05:15:33Z</time>
      </trkpt>
      <trkpt lat="42.82898" lon="0.96611">
        <ele>1806</ele>
        <time>2010-01-01T05:15:39Z</time>
      </trkpt>
      <trkpt lat="42.82895" lon="0.96599">
        <ele>1810</ele>
        <time>2010-01-01T05:15:43Z</time>
      </trkpt>
      <trkpt lat="42.82886" lon="0.96586">
        <ele>1815</ele>
        <time>2010-01-01T05:15:48Z</time>
      </trkpt>
      <trkpt lat="42.82878" lon="0.96576">
        <ele>1815</ele>
        <time>2010-01-01T05:15:52Z</time>
      </trkpt>
      <trkpt lat="42.82867" lon="0.96559">
        <ele>1818</ele>
        <time>2010-01-01T05:15:59Z</time>
      </trkpt>
      <trkpt lat="42.8285" lon="0.96542">
        <ele>1820</ele>
        <time>2010-01-01T05:16:07Z</time>
      </trkpt>
      <trkpt lat="42.82844" lon="0.9654">
        <ele>1818</ele>
        <time>2010-01-01T05:16:10Z</time>
      </trkpt>
      <trkpt lat="42.82831" lon="0.96534">
        <ele>1814</ele>
        <time>2010-01-01T05:16:16Z</time>
      </trkpt>
      <trkpt lat="42.82823" lon="0.96531">
        <ele>1810</ele>
        <time>2010-01-01T05:16:19Z</time>
      </trkpt>
      <trkpt lat="42.828" lon="0.96514">
        <ele>1798</ele>
        <time>2010-01-01T05:16:29Z</time>
      </trkpt>
      <trkpt lat="42.82788" lon="0.9651">
        <ele>1794</ele>
        <time>2010-01-01T05:16:34Z</time>
      </trkpt>
      <trkpt lat="42.82786" lon="0.96507">
        <ele>1794</ele>
        <time>2010-01-01T05:16:35Z</time>
      </trkpt>
      <trkpt lat="42.82774" lon="0.96498">
        <ele>1791</ele>
        <time>2010-01-01T05:16:41Z</time>
      </trkpt>
      <trkpt lat="42.8276" lon="0.96499">
        <ele>1792</ele>
        <time>2010-01-01T05:16:46Z</time>
      </trkpt>
      <trkpt lat="42.82751" lon="0.96502">
        <ele>1792</ele>
        <time>2010-01-01T05:16:50Z</time>
      </trkpt>
      <trkpt lat="42.82754" lon="0.965">
        <ele>1792</ele>
        <time>2010-01-01T05:16:51Z</time>
      </trkpt>
      <trkpt lat="42.82758" lon="0.96501">
        <ele>1792</ele>
        <time>2010-01-01T05:16:53Z</time>
      </trkpt>
      <trkpt lat="42.82757" lon="0.96501">
        <ele>1792</ele>
        <time>2010-01-01T05:16:53Z</time>
      </trkpt>
      <trkpt lat="42.82757" lon="0.96501">
        <ele>1792</ele>
        <time>2010-01-01T05:16:53Z</time>
      </trkpt>
      <trkpt lat="42.82757" lon="0.96501">
        <ele>1792</ele>
        <time>2010-01-01T05:16:53Z</time>
      </trkpt>
      <trkpt lat="42.82757" lon="0.96501">
        <ele>1792</ele>
        <time>2010-01-01T05:16:53Z</time>
      </trkpt>
      <trkpt lat="42.82758" lon="0.96501">
        <ele>1792</ele>
        <time>2010-01-01T05:16:53Z</time>
      </trkpt>
      <trkpt lat="42.82758" lon="0.96501">
        <ele>1792</ele>
        <time>2010-01-01T05:16:54Z</time>
      </trkpt>
      <trkpt lat="42.82757" lon="0.96501">
        <ele>1792</ele>
        <time>2010-01-01T05:16:54Z</time>
      </trkpt>
      <trkpt lat="42.82757" lon="0.965">
        <ele>1792</ele>
        <time>2010-01-01T05:16:54Z</time>
      </trkpt>
      <trkpt lat="42.82757" lon="0.96501">
        <ele>1792</ele>
        <time>2010-01-01T05:16:54Z</time>
      </trkpt>
      <trkpt lat="42.82756" lon="0.96501">
        <ele>1792</ele>
        <time>2010-01-01T05:16:55Z</time>
      </trkpt>
      <trkpt lat="42.82757" lon="0.96501">
        <ele>1792</ele>
        <time>2010-01-01T05:16:55Z</time>
      </trkpt>
      <trkpt lat="42.82757" lon="0.96501">
        <ele>1792</ele>
        <time>2010-01-01T05:16:55Z</time>
      </trkpt>
      <trkpt lat="42.82756" lon="0.96501">
        <ele>1792</ele>
        <time>2010-01-01T05:16:55Z</time>
      </trkpt>
      <trkpt lat="42.82757" lon="0.96501">
        <ele>1792</ele>
        <time>2010-01-01T05:16:56Z</time>
      </trkpt>
      <trkpt lat="42.82758" lon="0.965">
        <ele>1792</ele>
        <time>2010-01-01T05:16:56Z</time>
      </trkpt>
      <trkpt lat="42.82758" lon="0.96501">
        <ele>1792</ele>
        <time>2010-01-01T05:16:56Z</time>
      </trkpt>
      <trkpt lat="42.82757" lon="0.96501">
        <ele>1792</ele>
        <time>2010-01-01T05:16:56Z</time>
      </trkpt>
      <trkpt lat="42.82758" lon="0.965">
        <ele>1792</ele>
        <time>2010-01-01T05:16:57Z</time>
      </trkpt>
      <trkpt lat="42.82757" lon="0.965">
        <ele>1792</ele>
        <time>2010-01-01T05:16:57Z</time>
      </trkpt>
      <trkpt lat="42.82755" lon="0.965">
        <ele>1792</ele>
        <time>2010-01-01T05:16:58Z</time>
      </trkpt>
      <trkpt lat="42.82754" lon="0.965">
        <ele>1792</ele>
        <time>2010-01-01T05:16:59Z</time>
      </trkpt>
      <trkpt lat="42.82755" lon="0.96501">
        <ele>1792</ele>
        <time>2010-01-01T05:16:59Z</time>
      </trkpt>
      <trkpt lat="42.82754" lon="0.965">
        <ele>1792</ele>
        <time>2010-01-01T05:17:00Z</time>
      </trkpt>
      <trkpt lat="42.82755" lon="0.96501">
        <ele>1792</ele>
        <time>2010-01-01T05:17:00Z</time>
      </trkpt>
      <trkpt lat="42.82754" lon="0.96502">
        <ele>1792</ele>
        <time>2010-01-01T05:17:00Z</time>
      </trkpt>
      <trkpt lat="42.82754" lon="0.96502">
        <ele>1792</ele>
        <time>2010-01-01T05:17:00Z</time>
      </trkpt>
      <trkpt lat="42.82752" lon="0.96499">
        <ele>1793</ele>
        <time>2010-01-01T05:17:01Z</time>
      </trkpt>
      <trkpt lat="42.82752" lon="0.96499">
        <ele>1793</ele>
        <time>2010-01-01T05:17:02Z</time>
      </trkpt>
      <trkpt lat="42.82754" lon="0.9648">
        <ele>1798</ele>
        <time>2010-01-01T05:17:07Z</time>
      </trkpt>
      <trkpt lat="42.82743" lon="0.96455">
        <ele>1801</ele>
        <time>2010-01-01T05:17:16Z</time>
      </trkpt>
      <trkpt lat="42.8274" lon="0.96438">
        <ele>1799</ele>
        <time>2010-01-01T05:17:21Z</time>
      </trkpt>
      <trkpt lat="42.82732" lon="0.96436">
        <ele>1801</ele>
        <time>2010-01-01T05:17:24Z</time>
      </trkpt>
      <trkpt lat="42.82727" lon="0.96441">
        <ele>1803</ele>
        <time>2010-01-01T05:17:26Z</time>
      </trkpt>
      <trkpt lat="42.82722" lon="0.96447">
        <ele>1806</ele>
        <time>2010-01-01T05:17:29Z</time>
      </trkpt>
      <trkpt lat="42.82715" lon="0.96448">
        <ele>1808</ele>
        <time>2010-01-01T05:17:32Z</time>
      </trkpt>
      <trkpt lat="42.82713" lon="0.96447">
        <ele>1808</ele>
        <time>2010-01-01T05:17:33Z</time>
      </trkpt>
      <trkpt lat="42.82703" lon="0.96445">
        <ele>1811</ele>
        <time>2010-01-01T05:17:37Z</time>
      </trkpt>
      <trkpt lat="42.82701" lon="0.96445">
        <ele>1812</ele>
        <time>2010-01-01T05:17:38Z</time>
      </trkpt>
      <trkpt lat="42.82676" lon="0.96437">
        <ele>1812</ele>
        <time>2010-01-01T05:17:48Z</time>
      </trkpt>
      <trkpt lat="42.8267" lon="0.96434">
        <ele>1812</ele>
        <time>2010-01-01T05:17:51Z</time>
      </trkpt>
      <trkpt lat="42.82648" lon="0.96422">
        <ele>1810</ele>
        <time>2010-01-01T05:18:00Z</time>
      </trkpt>
      <trkpt lat="42.82626" lon="0.9641">
        <ele>1811</ele>
        <time>2010-01-01T05:18:10Z</time>
      </trkpt>
      <trkpt lat="42.82605" lon="0.96399">
        <ele>1813</ele>
        <time>2010-01-01T05:18:19Z</time>
      </trkpt>
      <trkpt lat="42.82586" lon="0.96386">
        <ele>1817</ele>
        <time>2010-01-01T05:18:27Z</time>
      </trkpt>
      <trkpt lat="42.82564" lon="0.9638">
        <ele>1820</ele>
        <time>2010-01-01T05:18:36Z</time>
      </trkpt>
      <trkpt lat="42.82541" lon="0.96375">
        <ele>1824</ele>
        <time>2010-01-01T05:18:45Z</time>
      </trkpt>
      <trkpt lat="42.82531" lon="0.96371">
        <ele>1826</ele>
        <time>2010-01-01T05:18:50Z</time>
      </trkpt>
      <trkpt lat="42.82516" lon="0.96368">
        <ele>1826</ele>
        <time>2010-01-01T05:18:55Z</time>
      </trkpt>
      <trkpt lat="42.82493" lon="0.96363">
        <ele>1826</ele>
        <time>2010-01-01T05:19:05Z</time>
      </trkpt>
      <trkpt lat="42.82483" lon="0.96357">
        <ele>1826</ele>
        <time>2010-01-01T05:19:09Z</time>
      </trkpt>
      <trkpt lat="42.82477" lon="0.96352">
        <ele>1826</ele>
        <time>2010-01-01T05:19:12Z</time>
      </trkpt>
      <trkpt lat="42.82478" lon="0.96351">
        <ele>1826</ele>
        <time>2010-01-01T05:19:12Z</time>
      </trkpt>
      <trkpt lat="42.82478" lon="0.96351">
        <ele>1826</ele>
        <time>2010-01-01T05:19:13Z</time>
      </trkpt>
      <trkpt lat="42.82478" lon="0.96351">
        <ele>1826</ele>
        <time>2010-01-01T05:19:13Z</time>
      </trkpt>
      <trkpt lat="42.82478" lon="0.96353">
        <ele>1826</ele>
        <time>2010-01-01T05:19:13Z</time>
      </trkpt>
      <trkpt lat="42.8248" lon="0.96352">
        <ele>1826</ele>
        <time>2010-01-01T05:19:14Z</time>
      </trkpt>
      <trkpt lat="42.82481" lon="0.96351">
        <ele>1826</ele>
        <time>2010-01-01T05:19:15Z</time>
      </trkpt>
      <trkpt lat="42.82482" lon="0.96352">
        <ele>1826</ele>
        <time>2010-01-01T05:19:15Z</time>
      </trkpt>
      <trkpt lat="42.82481" lon="0.96352">
        <ele>1826</ele>
        <time>2010-01-01T05:19:15Z</time>
      </trkpt>
      <trkpt lat="42.82481" lon="0.96352">
        <ele>1826</ele>
        <time>2010-01-01T05:19:15Z</time>
      </trkpt>
      <trkpt lat="42.82481" lon="0.96352">
        <ele>1826</ele>
        <time>2010-01-01T05:19:16Z</time>
      </trkpt>
      <trkpt lat="42.82481" lon="0.96351">
        <ele>1826</ele>
        <time>2010-01-01T05:19:16Z</time>
      </trkpt>
      <trkpt lat="42.8248" lon="0.96352">
        <ele>1826</ele>
        <time>2010-01-01T05:19:16Z</time>
      </trkpt>
      <trkpt lat="42.8248" lon="0.96352">
        <ele>1826</ele>
        <time>2010-01-01T05:19:16Z</time>
      </trkpt>
      <trkpt lat="42.82479" lon="0.96352">
        <ele>1826</ele>
        <time>2010-01-01T05:19:17Z</time>
      </trkpt>
      <trkpt lat="42.82479" lon="0.96352">
        <ele>1826</ele>
        <time>2010-01-01T05:19:17Z</time>
      </trkpt>
      <trkpt lat="42.82479" lon="0.96352">
        <ele>1826</ele>
        <time>2010-01-01T05:19:17Z</time>
      </trkpt>
      <trkpt lat="42.82479" lon="0.96352">
        <ele>1826</ele>
        <time>2010-01-01T05:19:17Z</time>
      </trkpt>
      <trkpt lat="42.82479" lon="0.96352">
        <ele>1826</ele>
        <time>2010-01-01T05:19:17Z</time>
      </trkpt>
      <trkpt lat="42.82479" lon="0.96352">
        <ele>1826</ele>
        <time>2010-01-01T05:19:17Z</time>
      </trkpt>
      <trkpt lat="42.82479" lon="0.96353">
        <ele>1826</ele>
        <time>2010-01-01T05:19:17Z</time>
      </trkpt>
      <trkpt lat="42.82479" lon="0.96353">
        <ele>1826</ele>
        <time>2010-01-01T05:19:17Z</time>
      </trkpt>
      <trkpt lat="42.8248" lon="0.96353">
        <ele>1826</ele>
        <time>2010-01-01T05:19:17Z</time>
      </trkpt>
      <trkpt lat="42.8248" lon="0.96353">
        <ele>1826</ele>
        <time>2010-01-01T05:19:17Z</time>
      </trkpt>
      <trkpt lat="42.82479" lon="0.96353">
        <ele>1826</ele>
        <time>2010-01-01T05:19:18Z</time>
      </trkpt>
      <trkpt lat="42.82476" lon="0.96352">
        <ele>1826</ele>
        <time>2010-01-01T05:19:19Z</time>
      </trkpt>
      <trkpt lat="42.82478" lon="0.96353">
        <ele>1826</ele>
        <time>2010-01-01T05:19:20Z</time>
      </trkpt>
      <trkpt lat="42.82479" lon="0.96353">
        <ele>1826</ele>
        <time>2010-01-01T05:19:21Z</time>
      </trkpt>
      <trkpt lat="42.82479" lon="0.96353">
        <ele>1826</ele>
        <time>2010-01-01T05:19:21Z</time>
      </trkpt>
      <trkpt lat="42.82479" lon="0.96353">
        <ele>1826</ele>
        <time>2010-01-01T05:19:21Z</time>
      </trkpt>
      <trkpt lat="42.82479" lon="0.96353">
        <ele>1826</ele>
        <time>2010-01-01T05:19:21Z</time>
      </trkpt>
      <trkpt lat="42.82478" lon="0.96352">
        <ele>1826</ele>
        <time>2010-01-01T05:19:21Z</time>
      </trkpt>
      <trkpt lat="42.82478" lon="0.96352">
        <ele>1826</ele>
        <time>2010-01-01T05:19:21Z</time>
      </trkpt>
      <trkpt lat="42.82479" lon="0.96353">
        <ele>1826</ele>
        <time>2010-01-01T05:19:22Z</time>
      </trkpt>
      <trkpt lat="42.82481" lon="0.96353">
        <ele>1826</ele>
        <time>2010-01-01T05:19:23Z</time>
      </trkpt>
      <trkpt lat="42.82481" lon="0.96353">
        <ele>1826</ele>
        <time>2010-01-01T05:19:23Z</time>
      </trkpt>
      <trkpt lat="42.82482" lon="0.96353">
        <ele>1826</ele>
        <time>2010-01-01T05:19:23Z</time>
      </trkpt>
      <trkpt lat="42.82487" lon="0.96356">
        <ele>1826</ele>
        <time>2010-01-01T05:19:25Z</time>
      </trkpt>
      <trkpt lat="42.82489" lon="0.96357">
        <ele>1826</ele>
        <time>2010-01-01T05:19:26Z</time>
      </trkpt>
      <trkpt lat="42.82502" lon="0.96346">
        <ele>1825</ele>
        <time>2010-01-01T05:19:32Z</time>
      </trkpt>
      <trkpt lat="42.8251" lon="0.96335">
        <ele>1822</ele>
        <time>2010-01-01T05:19:37Z</time>
      </trkpt>
      <trkpt lat="42.82519" lon="0.96327">
        <ele>1818</ele>
        <time>2010-01-01T05:19:41Z</time>
      </trkpt>
      <trkpt lat="42.82519" lon="0.96327">
        <ele>1818</ele>
        <time>2010-01-01T05:19:41Z</time>
      </trkpt>
      <trkpt lat="42.82521" lon="0.96329">
        <ele>1818</ele>
        <time>2010-01-01T05:19:42Z</time>
      </trkpt>
      <trkpt lat="42.82525" lon="0.96325">
        <ele>1816</ele>
        <time>2010-01-01T05:19:44Z</time>
      </trkpt>
      <trkpt lat="42.82518" lon="0.96307">
        <ele>1814</ele>
        <time>2010-01-01T05:19:50Z</time>
      </trkpt>
      <trkpt lat="42.82511" lon="0.96289">
        <ele>1811</ele>
        <time>2010-01-01T05:19:56Z</time>
      </trkpt>
      <trkpt lat="42.82508" lon="0.96269">
        <ele>1807</ele>
        <time>2010-01-01T05:20:02Z</time>
      </trkpt>
      <trkpt lat="42.82507" lon="0.96263">
        <ele>1806</ele>
        <time>2010-01-01T05:20:04Z</time>
      </trkpt>
      <trkpt lat="42.82506" lon="0.96261">
        <ele>1806</ele>
        <time>2010-01-01T05:20:05Z</time>
      </trkpt>
      <trkpt lat="42.82502" lon="0.9624">
        <ele>1802</ele>
        <time>2010-01-01T05:20:11Z</time>
      </trkpt>
      <trkpt lat="42.82502" lon="0.96237">
        <ele>1801</ele>
        <time>2010-01-01T05:20:12Z</time>
      </trkpt>
      <trkpt lat="42.82501" lon="0.96231">
        <ele>1800</ele>
        <time>2010-01-01T05:20:14Z</time>
      </trkpt>
      <trkpt lat="42.82499" lon="0.96214">
        <ele>1798</ele>
        <time>2010-01-01T05:20:19Z</time>
      </trkpt>
      <trkpt lat="42.82505" lon="0.96215">
        <ele>1797</ele>
        <time>2010-01-01T05:20:21Z</time>
      </trkpt>
      <trkpt lat="42.82503" lon="0.962">
        <ele>1796</ele>
        <time>2010-01-01T05:20:25Z</time>
      </trkpt>
      <trkpt lat="42.82499" lon="0.96173">
        <ele>1796</ele>
        <time>2010-01-01T05:20:33Z</time>
      </trkpt>
      <trkpt lat="42.82498" lon="0.96145">
        <ele>1804</ele>
        <time>2010-01-01T05:20:42Z</time>
      </trkpt>
      <trkpt lat="42.82496" lon="0.96116">
        <ele>1790</ele>
        <time>2010-01-01T05:20:50Z</time>
      </trkpt>
      <trkpt lat="42.82496" lon="0.96088">
        <ele>1780</ele>
        <time>2010-01-01T05:20:58Z</time>
      </trkpt>
      <trkpt lat="42.82499" lon="0.96057">
        <ele>1776</ele>
        <time>2010-01-01T05:21:08Z</time>
      </trkpt>
      <trkpt lat="42.82499" lon="0.96037">
        <ele>1773</ele>
        <time>2010-01-01T05:21:13Z</time>
      </trkpt>
      <trkpt lat="42.82499" lon="0.96014">
        <ele>1771</ele>
        <time>2010-01-01T05:21:20Z</time>
      </trkpt>
      <trkpt lat="42.82497" lon="0.95994">
        <ele>1769</ele>
        <time>2010-01-01T05:21:26Z</time>
      </trkpt>
      <trkpt lat="42.82492" lon="0.95972">
        <ele>1766</ele>
        <time>2010-01-01T05:21:33Z</time>
      </trkpt>
      <trkpt lat="42.82488" lon="0.95949">
        <ele>1763</ele>
        <time>2010-01-01T05:21:40Z</time>
      </trkpt>
      <trkpt lat="42.82483" lon="0.95927">
        <ele>1760</ele>
        <time>2010-01-01T05:21:47Z</time>
      </trkpt>
      <trkpt lat="42.82477" lon="0.95902">
        <ele>1756</ele>
        <time>2010-01-01T05:21:54Z</time>
      </trkpt>
      <trkpt lat="42.82477" lon="0.95893">
        <ele>1754</ele>
        <time>2010-01-01T05:21:57Z</time>
      </trkpt>
      <trkpt lat="42.82476" lon="0.95889">
        <ele>1753</ele>
        <time>2010-01-01T05:21:58Z</time>
      </trkpt>
      <trkpt lat="42.82474" lon="0.95885">
        <ele>1752</ele>
        <time>2010-01-01T05:21:59Z</time>
      </trkpt>
      <trkpt lat="42.82469" lon="0.95878">
        <ele>1751</ele>
        <time>2010-01-01T05:22:02Z</time>
      </trkpt>
      <trkpt lat="42.82467" lon="0.95874">
        <ele>1750</ele>
        <time>2010-01-01T05:22:04Z</time>
      </trkpt>
      <trkpt lat="42.82461" lon="0.95864">
        <ele>1749</ele>
        <time>2010-01-01T05:22:08Z</time>
      </trkpt>
      <trkpt lat="42.82461" lon="0.9586">
        <ele>1748</ele>
        <time>2010-01-01T05:22:09Z</time>
      </trkpt>
      <trkpt lat="42.82455" lon="0.95846">
        <ele>1744</ele>
        <time>2010-01-01T05:22:13Z</time>
      </trkpt>
      <trkpt lat="42.82449" lon="0.95829">
        <ele>1739</ele>
        <time>2010-01-01T05:22:19Z</time>
      </trkpt>
      <trkpt lat="42.82448" lon="0.95825">
        <ele>1737</ele>
        <time>2010-01-01T05:22:20Z</time>
      </trkpt>
      <trkpt lat="42.82447" lon="0.95801">
        <ele>1730</ele>
        <time>2010-01-01T05:22:27Z</time>
      </trkpt>
      <trkpt lat="42.82444" lon="0.95787">
        <ele>1727</ele>
        <time>2010-01-01T05:22:31Z</time>
      </trkpt>
      <trkpt lat="42.8244" lon="0.95776">
        <ele>1726</ele>
        <time>2010-01-01T05:22:35Z</time>
      </trkpt>
      <trkpt lat="42.82435" lon="0.95765">
        <ele>1726</ele>
        <time>2010-01-01T05:22:39Z</time>
      </trkpt>
      <trkpt lat="42.82437" lon="0.95755">
        <ele>1724</ele>
        <time>2010-01-01T05:22:42Z</time>
      </trkpt>
      <trkpt lat="42.82439" lon="0.95749">
        <ele>1722</ele>
        <time>2010-01-01T05:22:44Z</time>
      </trkpt>
      <trkpt lat="42.82435" lon="0.95748">
        <ele>1724</ele>
        <time>2010-01-01T05:22:46Z</time>
      </trkpt>
      <trkpt lat="42.82437" lon="0.9575">
        <ele>1723</ele>
        <time>2010-01-01T05:22:46Z</time>
      </trkpt>
      <trkpt lat="42.82437" lon="0.95749">
        <ele>1723</ele>
        <time>2010-01-01T05:22:47Z</time>
      </trkpt>
      <trkpt lat="42.82438" lon="0.9575">
        <ele>1723</ele>
        <time>2010-01-01T05:22:47Z</time>
      </trkpt>
      <trkpt lat="42.82437" lon="0.95751">
        <ele>1723</ele>
        <time>2010-01-01T05:22:47Z</time>
      </trkpt>
      <trkpt lat="42.82436" lon="0.9575">
        <ele>1723</ele>
        <time>2010-01-01T05:22:48Z</time>
      </trkpt>
      <trkpt lat="42.82435" lon="0.95751">
        <ele>1724</ele>
        <time>2010-01-01T05:22:48Z</time>
      </trkpt>
      <trkpt lat="42.82435" lon="0.95748">
        <ele>1724</ele>
        <time>2010-01-01T05:22:49Z</time>
      </trkpt>
      <trkpt lat="42.82443" lon="0.95741">
        <ele>1721</ele>
        <time>2010-01-01T05:22:53Z</time>
      </trkpt>
      <trkpt lat="42.82448" lon="0.95733">
        <ele>1719</ele>
        <time>2010-01-01T05:22:56Z</time>
      </trkpt>
      <trkpt lat="42.82453" lon="0.95725">
        <ele>1716</ele>
        <time>2010-01-01T05:22:59Z</time>
      </trkpt>
      <trkpt lat="42.8246" lon="0.95714">
        <ele>1711</ele>
        <time>2010-01-01T05:23:03Z</time>
      </trkpt>
      <trkpt lat="42.82464" lon="0.95714">
        <ele>1709</ele>
        <time>2010-01-01T05:23:05Z</time>
      </trkpt>
      <trkpt lat="42.82471" lon="0.95711">
        <ele>1704</ele>
        <time>2010-01-01T05:23:08Z</time>
      </trkpt>
      <trkpt lat="42.82477" lon="0.95706">
        <ele>1701</ele>
        <time>2010-01-01T05:23:11Z</time>
      </trkpt>
      <trkpt lat="42.82484" lon="0.95704">
        <ele>1697</ele>
        <time>2010-01-01T05:23:14Z</time>
      </trkpt>
      <trkpt lat="42.82491" lon="0.95699">
        <ele>1693</ele>
        <time>2010-01-01T05:23:17Z</time>
      </trkpt>
      <trkpt lat="42.82498" lon="0.95695">
        <ele>1688</ele>
        <time>2010-01-01T05:23:20Z</time>
      </trkpt>
      <trkpt lat="42.82505" lon="0.95689">
        <ele>1686</ele>
        <time>2010-01-01T05:23:23Z</time>
      </trkpt>
      <trkpt lat="42.82506" lon="0.95686">
        <ele>1686</ele>
        <time>2010-01-01T05:23:24Z</time>
      </trkpt>
      <trkpt lat="42.82511" lon="0.9568">
        <ele>1685</ele>
        <time>2010-01-01T05:23:27Z</time>
      </trkpt>
      <trkpt lat="42.82513" lon="0.95677">
        <ele>1685</ele>
        <time>2010-01-01T05:23:28Z</time>
      </trkpt>
      <trkpt lat="42.82517" lon="0.9567">
        <ele>1684</ele>
        <time>2010-01-01T05:23:30Z</time>
      </trkpt>
      <trkpt lat="42.82526" lon="0.95662">
        <ele>1683</ele>
        <time>2010-01-01T05:23:35Z</time>
      </trkpt>
      <trkpt lat="42.82542" lon="0.9565">
        <ele>1677</ele>
        <time>2010-01-01T05:23:42Z</time>
      </trkpt>
      <trkpt lat="42.82546" lon="0.95643">
        <ele>1677</ele>
        <time>2010-01-01T05:23:44Z</time>
      </trkpt>
      <trkpt lat="42.82554" lon="0.95634">
        <ele>1674</ele>
        <time>2010-01-01T05:23:49Z</time>
      </trkpt>
      <trkpt lat="42.82556" lon="0.95629">
        <ele>1673</ele>
        <time>2010-01-01T05:23:51Z</time>
      </trkpt>
      <trkpt lat="42.82567" lon="0.9561">
        <ele>1669</ele>
        <time>2010-01-01T05:23:57Z</time>
      </trkpt>
      <trkpt lat="42.82581" lon="0.95595">
        <ele>1662</ele>
        <time>2010-01-01T05:24:05Z</time>
      </trkpt>
      <trkpt lat="42.82584" lon="0.9559">
        <ele>1660</ele>
        <time>2010-01-01T05:24:07Z</time>
      </trkpt>
      <trkpt lat="42.82587" lon="0.95571">
        <ele>1658</ele>
        <time>2010-01-01T05:24:12Z</time>
      </trkpt>
      <trkpt lat="42.82589" lon="0.95558">
        <ele>1658</ele>
        <time>2010-01-01T05:24:16Z</time>
      </trkpt>
      <trkpt lat="42.82593" lon="0.95556">
        <ele>1655</ele>
        <time>2010-01-01T05:24:18Z</time>
      </trkpt>
      <trkpt lat="42.82598" lon="0.95559">
        <ele>1651</ele>
        <time>2010-01-01T05:24:20Z</time>
      </trkpt>
      <trkpt lat="42.826" lon="0.95546">
        <ele>1648</ele>
        <time>2010-01-01T05:24:24Z</time>
      </trkpt>
      <trkpt lat="42.826" lon="0.95541">
        <ele>1647</ele>
        <time>2010-01-01T05:24:26Z</time>
      </trkpt>
      <trkpt lat="42.82601" lon="0.95531">
        <ele>1644</ele>
        <time>2010-01-01T05:24:29Z</time>
      </trkpt>
      <trkpt lat="42.82606" lon="0.95513">
        <ele>1642</ele>
        <time>2010-01-01T05:24:34Z</time>
      </trkpt>
      <trkpt lat="42.82607" lon="0.95511">
        <ele>1642</ele>
        <time>2010-01-01T05:24:35Z</time>
      </trkpt>
      <trkpt lat="42.82608" lon="0.95503">
        <ele>1643</ele>
        <time>2010-01-01T05:24:37Z</time>
      </trkpt>
      <trkpt lat="42.82611" lon="0.95498">
        <ele>1643</ele>
        <time>2010-01-01T05:24:39Z</time>
      </trkpt>
      <trkpt lat="42.82613" lon="0.9548">
        <ele>1641</ele>
        <time>2010-01-01T05:24:44Z</time>
      </trkpt>
      <trkpt lat="42.82613" lon="0.95479">
        <ele>1640</ele>
        <time>2010-01-01T05:24:45Z</time>
      </trkpt>
      <trkpt lat="42.82614" lon="0.95476">
        <ele>1640</ele>
        <time>2010-01-01T05:24:46Z</time>
      </trkpt>
      <trkpt lat="42.82611" lon="0.9546">
        <ele>1639</ele>
        <time>2010-01-01T05:24:50Z</time>
      </trkpt>
      <trkpt lat="42.82618" lon="0.95475">
        <ele>1639</ele>
        <time>2010-01-01T05:24:56Z</time>
      </trkpt>
      <trkpt lat="42.82622" lon="0.95479">
        <ele>1638</ele>
        <time>2010-01-01T05:24:57Z</time>
      </trkpt>
      <trkpt lat="42.82627" lon="0.95485">
        <ele>1636</ele>
        <time>2010-01-01T05:25:00Z</time>
      </trkpt>
      <trkpt lat="42.82632" lon="0.95489">
        <ele>1635</ele>
        <time>2010-01-01T05:25:03Z</time>
      </trkpt>
      <trkpt lat="42.82634" lon="0.95483">
        <ele>1634</ele>
        <time>2010-01-01T05:25:05Z</time>
      </trkpt>
      <trkpt lat="42.82632" lon="0.9547">
        <ele>1635</ele>
        <time>2010-01-01T05:25:09Z</time>
      </trkpt>
      <trkpt lat="42.82632" lon="0.95463">
        <ele>1633</ele>
        <time>2010-01-01T05:25:11Z</time>
      </trkpt>
      <trkpt lat="42.82633" lon="0.95454">
        <ele>1630</ele>
        <time>2010-01-01T05:25:13Z</time>
      </trkpt>
      <trkpt lat="42.82633" lon="0.95445">
        <ele>1628</ele>
        <time>2010-01-01T05:25:16Z</time>
      </trkpt>
      <trkpt lat="42.82649" lon="0.95455">
        <ele>1623</ele>
        <time>2010-01-01T05:25:23Z</time>
      </trkpt>
      <trkpt lat="42.82651" lon="0.95455">
        <ele>1621</ele>
        <time>2010-01-01T05:25:24Z</time>
      </trkpt>
      <trkpt lat="42.82658" lon="0.9545">
        <ele>1617</ele>
        <time>2010-01-01T05:25:27Z</time>
      </trkpt>
      <trkpt lat="42.82659" lon="0.95443">
        <ele>1615</ele>
        <time>2010-01-01T05:25:29Z</time>
      </trkpt>
      <trkpt lat="42.8265" lon="0.95421">
        <ele>1616</ele>
        <time>2010-01-01T05:25:36Z</time>
      </trkpt>
      <trkpt lat="42.82649" lon="0.95414">
        <ele>1615</ele>
        <time>2010-01-01T05:25:38Z</time>
      </trkpt>
      <trkpt lat="42.82651" lon="0.95413">
        <ele>1615</ele>
        <time>2010-01-01T05:25:39Z</time>
      </trkpt>
      <trkpt lat="42.82653" lon="0.95413">
        <ele>1613</ele>
        <time>2010-01-01T05:25:40Z</time>
      </trkpt>
      <trkpt lat="42.82657" lon="0.95413">
        <ele>1612</ele>
        <time>2010-01-01T05:25:42Z</time>
      </trkpt>
      <trkpt lat="42.82662" lon="0.95415">
        <ele>1610</ele>
        <time>2010-01-01T05:25:44Z</time>
      </trkpt>
      <trkpt lat="42.82672" lon="0.95422">
        <ele>1606</ele>
        <time>2010-01-01T05:25:48Z</time>
      </trkpt>
      <trkpt lat="42.82678" lon="0.9543">
        <ele>1604</ele>
        <time>2010-01-01T05:25:52Z</time>
      </trkpt>
      <trkpt lat="42.8268" lon="0.9543">
        <ele>1602</ele>
        <time>2010-01-01T05:25:52Z</time>
      </trkpt>
      <trkpt lat="42.82683" lon="0.95424">
        <ele>1601</ele>
        <time>2010-01-01T05:25:54Z</time>
      </trkpt>
      <trkpt lat="42.82681" lon="0.95416">
        <ele>1602</ele>
        <time>2010-01-01T05:25:57Z</time>
      </trkpt>
      <trkpt lat="42.82676" lon="0.954">
        <ele>1601</ele>
        <time>2010-01-01T05:26:02Z</time>
      </trkpt>
      <trkpt lat="42.82669" lon="0.95387">
        <ele>1601</ele>
        <time>2010-01-01T05:26:07Z</time>
      </trkpt>
      <trkpt lat="42.82686" lon="0.95392">
        <ele>1595</ele>
        <time>2010-01-01T05:26:13Z</time>
      </trkpt>
      <trkpt lat="42.82691" lon="0.95396">
        <ele>1593</ele>
        <time>2010-01-01T05:26:16Z</time>
      </trkpt>
      <trkpt lat="42.82696" lon="0.95404">
        <ele>1592</ele>
        <time>2010-01-01T05:26:19Z</time>
      </trkpt>
      <trkpt lat="42.82701" lon="0.95399">
        <ele>1588</ele>
        <time>2010-01-01T05:26:21Z</time>
      </trkpt>
      <trkpt lat="42.82698" lon="0.95378">
        <ele>1585</ele>
        <time>2010-01-01T05:26:27Z</time>
      </trkpt>
      <trkpt lat="42.82697" lon="0.95377">
        <ele>1585</ele>
        <time>2010-01-01T05:26:28Z</time>
      </trkpt>
      <trkpt lat="42.82691" lon="0.95368">
        <ele>1585</ele>
        <time>2010-01-01T05:26:31Z</time>
      </trkpt>
      <trkpt lat="42.82687" lon="0.95364">
        <ele>1585</ele>
        <time>2010-01-01T05:26:33Z</time>
      </trkpt>
      <trkpt lat="42.82688" lon="0.95357">
        <ele>1583</ele>
        <time>2010-01-01T05:26:35Z</time>
      </trkpt>
      <trkpt lat="42.82697" lon="0.95358">
        <ele>1580</ele>
        <time>2010-01-01T05:26:39Z</time>
      </trkpt>
      <trkpt lat="42.82702" lon="0.95358">
        <ele>1578</ele>
        <time>2010-01-01T05:26:41Z</time>
      </trkpt>
      <trkpt lat="42.82707" lon="0.95357">
        <ele>1576</ele>
        <time>2010-01-01T05:26:43Z</time>
      </trkpt>
      <trkpt lat="42.82722" lon="0.95373">
        <ele>1571</ele>
        <time>2010-01-01T05:26:51Z</time>
      </trkpt>
      <trkpt lat="42.82731" lon="0.95367">
        <ele>1567</ele>
        <time>2010-01-01T05:26:54Z</time>
      </trkpt>
      <trkpt lat="42.82731" lon="0.95361">
        <ele>1567</ele>
        <time>2010-01-01T05:26:56Z</time>
      </trkpt>
      <trkpt lat="42.82728" lon="0.9535">
        <ele>1565</ele>
        <time>2010-01-01T05:27:00Z</time>
      </trkpt>
      <trkpt lat="42.82726" lon="0.95337">
        <ele>1563</ele>
        <time>2010-01-01T05:27:03Z</time>
      </trkpt>
      <trkpt lat="42.82728" lon="0.95338">
        <ele>1563</ele>
        <time>2010-01-01T05:27:04Z</time>
      </trkpt>
      <trkpt lat="42.82736" lon="0.95349">
        <ele>1562</ele>
        <time>2010-01-01T05:27:09Z</time>
      </trkpt>
      <trkpt lat="42.82743" lon="0.95358">
        <ele>1561</ele>
        <time>2010-01-01T05:27:13Z</time>
      </trkpt>
      <trkpt lat="42.82742" lon="0.95358">
        <ele>1561</ele>
        <time>2010-01-01T05:27:13Z</time>
      </trkpt>
      <trkpt lat="42.82744" lon="0.95357">
        <ele>1561</ele>
        <time>2010-01-01T05:27:13Z</time>
      </trkpt>
      <trkpt lat="42.82745" lon="0.95346">
        <ele>1559</ele>
        <time>2010-01-01T05:27:17Z</time>
      </trkpt>
      <trkpt lat="42.82744" lon="0.95333">
        <ele>1557</ele>
        <time>2010-01-01T05:27:21Z</time>
      </trkpt>
      <trkpt lat="42.82739" lon="0.95322">
        <ele>1555</ele>
        <time>2010-01-01T05:27:24Z</time>
      </trkpt>
      <trkpt lat="42.82731" lon="0.95311">
        <ele>1553</ele>
        <time>2010-01-01T05:27:29Z</time>
      </trkpt>
      <trkpt lat="42.82729" lon="0.9531">
        <ele>1552</ele>
        <time>2010-01-01T05:27:30Z</time>
      </trkpt>
      <trkpt lat="42.82728" lon="0.95308">
        <ele>1552</ele>
        <time>2010-01-01T05:27:31Z</time>
      </trkpt>
      <trkpt lat="42.82725" lon="0.95301">
        <ele>1550</ele>
        <time>2010-01-01T05:27:33Z</time>
      </trkpt>
      <trkpt lat="42.82729" lon="0.95299">
        <ele>1549</ele>
        <time>2010-01-01T05:27:34Z</time>
      </trkpt>
      <trkpt lat="42.82746" lon="0.95297">
        <ele>1546</ele>
        <time>2010-01-01T05:27:41Z</time>
      </trkpt>
      <trkpt lat="42.82746" lon="0.95297">
        <ele>1546</ele>
        <time>2010-01-01T05:27:42Z</time>
      </trkpt>
      <trkpt lat="42.82755" lon="0.95297">
        <ele>1542</ele>
        <time>2010-01-01T05:27:45Z</time>
      </trkpt>
      <trkpt lat="42.82766" lon="0.95297">
        <ele>1537</ele>
        <time>2010-01-01T05:27:50Z</time>
      </trkpt>
      <trkpt lat="42.82765" lon="0.95292">
        <ele>1536</ele>
        <time>2010-01-01T05:27:51Z</time>
      </trkpt>
      <trkpt lat="42.82758" lon="0.95286">
        <ele>1537</ele>
        <time>2010-01-01T05:27:54Z</time>
      </trkpt>
      <trkpt lat="42.82746" lon="0.95273">
        <ele>1537</ele>
        <time>2010-01-01T05:28:00Z</time>
      </trkpt>
      <trkpt lat="42.82733" lon="0.95268">
        <ele>1538</ele>
        <time>2010-01-01T05:28:06Z</time>
      </trkpt>
      <trkpt lat="42.82732" lon="0.95267">
        <ele>1538</ele>
        <time>2010-01-01T05:28:06Z</time>
      </trkpt>
      <trkpt lat="42.82722" lon="0.95264">
        <ele>1539</ele>
        <time>2010-01-01T05:28:10Z</time>
      </trkpt>
      <trkpt lat="42.8271" lon="0.95259">
        <ele>1539</ele>
        <time>2010-01-01T05:28:15Z</time>
      </trkpt>
      <trkpt lat="42.82715" lon="0.95253">
        <ele>1536</ele>
        <time>2010-01-01T05:28:18Z</time>
      </trkpt>
      <trkpt lat="42.82723" lon="0.95248">
        <ele>1533</ele>
        <time>2010-01-01T05:28:21Z</time>
      </trkpt>
      <trkpt lat="42.82724" lon="0.95248">
        <ele>1532</ele>
        <time>2010-01-01T05:28:22Z</time>
      </trkpt>
      <trkpt lat="42.82741" lon="0.95241">
        <ele>1526</ele>
        <time>2010-01-01T05:28:29Z</time>
      </trkpt>
      <trkpt lat="42.82751" lon="0.95236">
        <ele>1522</ele>
        <time>2010-01-01T05:28:33Z</time>
      </trkpt>
      <trkpt lat="42.82754" lon="0.95231">
        <ele>1519</ele>
        <time>2010-01-01T05:28:35Z</time>
      </trkpt>
      <trkpt lat="42.82752" lon="0.9523">
        <ele>1519</ele>
        <time>2010-01-01T05:28:36Z</time>
      </trkpt>
      <trkpt lat="42.82761" lon="0.95221">
        <ele>1512</ele>
        <time>2010-01-01T05:28:40Z</time>
      </trkpt>
      <trkpt lat="42.82769" lon="0.95221">
        <ele>1510</ele>
        <time>2010-01-01T05:28:43Z</time>
      </trkpt>
      <trkpt lat="42.82777" lon="0.95226">
        <ele>1509</ele>
        <time>2010-01-01T05:28:47Z</time>
      </trkpt>
      <trkpt lat="42.82785" lon="0.95234">
        <ele>1509</ele>
        <time>2010-01-01T05:28:51Z</time>
      </trkpt>
      <trkpt lat="42.82791" lon="0.95243">
        <ele>1510</ele>
        <time>2010-01-01T05:28:54Z</time>
      </trkpt>
      <trkpt lat="42.82795" lon="0.95239">
        <ele>1507</ele>
        <time>2010-01-01T05:28:56Z</time>
      </trkpt>
      <trkpt lat="42.82796" lon="0.95227">
        <ele>1502</ele>
        <time>2010-01-01T05:29:00Z</time>
      </trkpt>
      <trkpt lat="42.82795" lon="0.95219">
        <ele>1501</ele>
        <time>2010-01-01T05:29:02Z</time>
      </trkpt>
      <trkpt lat="42.82793" lon="0.95208">
        <ele>1498</ele>
        <time>2010-01-01T05:29:05Z</time>
      </trkpt>
      <trkpt lat="42.82796" lon="0.95201">
        <ele>1495</ele>
        <time>2010-01-01T05:29:08Z</time>
      </trkpt>
      <trkpt lat="42.82796" lon="0.9519">
        <ele>1492</ele>
        <time>2010-01-01T05:29:11Z</time>
      </trkpt>
      <trkpt lat="42.82803" lon="0.95188">
        <ele>1489</ele>
        <time>2010-01-01T05:29:14Z</time>
      </trkpt>
      <trkpt lat="42.82812" lon="0.95184">
        <ele>1486</ele>
        <time>2010-01-01T05:29:18Z</time>
      </trkpt>
      <trkpt lat="42.82808" lon="0.95175">
        <ele>1484</ele>
        <time>2010-01-01T05:29:21Z</time>
      </trkpt>
      <trkpt lat="42.82799" lon="0.95169">
        <ele>1485</ele>
        <time>2010-01-01T05:29:25Z</time>
      </trkpt>
      <trkpt lat="42.82792" lon="0.95156">
        <ele>1483</ele>
        <time>2010-01-01T05:29:29Z</time>
      </trkpt>
      <trkpt lat="42.82804" lon="0.95156">
        <ele>1480</ele>
        <time>2010-01-01T05:29:34Z</time>
      </trkpt>
      <trkpt lat="42.82814" lon="0.95156">
        <ele>1478</ele>
        <time>2010-01-01T05:29:38Z</time>
      </trkpt>
      <trkpt lat="42.82827" lon="0.95163">
        <ele>1477</ele>
        <time>2010-01-01T05:29:43Z</time>
      </trkpt>
      <trkpt lat="42.82833" lon="0.95185">
        <ele>1480</ele>
        <time>2010-01-01T05:29:51Z</time>
      </trkpt>
      <trkpt lat="42.8284" lon="0.95201">
        <ele>1480</ele>
        <time>2010-01-01T05:29:56Z</time>
      </trkpt>
      <trkpt lat="42.82844" lon="0.95212">
        <ele>1479</ele>
        <time>2010-01-01T05:29:59Z</time>
      </trkpt>
      <trkpt lat="42.8285" lon="0.95218">
        <ele>1476</ele>
        <time>2010-01-01T05:30:02Z</time>
      </trkpt>
      <trkpt lat="42.8285" lon="0.9522">
        <ele>1476</ele>
        <time>2010-01-01T05:30:03Z</time>
      </trkpt>
      <trkpt lat="42.82849" lon="0.95217">
        <ele>1477</ele>
        <time>2010-01-01T05:30:04Z</time>
      </trkpt>
      <trkpt lat="42.82849" lon="0.95205">
        <ele>1475</ele>
        <time>2010-01-01T05:30:08Z</time>
      </trkpt>
      <trkpt lat="42.82851" lon="0.95188">
        <ele>1471</ele>
        <time>2010-01-01T05:30:13Z</time>
      </trkpt>
      <trkpt lat="42.82863" lon="0.95194">
        <ele>1466</ele>
        <time>2010-01-01T05:30:18Z</time>
      </trkpt>
      <trkpt lat="42.82871" lon="0.95213">
        <ele>1461</ele>
        <time>2010-01-01T05:30:24Z</time>
      </trkpt>
      <trkpt lat="42.82876" lon="0.95227">
        <ele>1458</ele>
        <time>2010-01-01T05:30:29Z</time>
      </trkpt>
      <trkpt lat="42.82883" lon="0.9524">
        <ele>1456</ele>
        <time>2010-01-01T05:30:33Z</time>
      </trkpt>
      <trkpt lat="42.82884" lon="0.95251">
        <ele>1456</ele>
        <time>2010-01-01T05:30:37Z</time>
      </trkpt>
      <trkpt lat="42.82886" lon="0.95246">
        <ele>1455</ele>
        <time>2010-01-01T05:30:38Z</time>
      </trkpt>
      <trkpt lat="42.82891" lon="0.95232">
        <ele>1448</ele>
        <time>2010-01-01T05:30:43Z</time>
      </trkpt>
      <trkpt lat="42.82893" lon="0.9522">
        <ele>1444</ele>
        <time>2010-01-01T05:30:47Z</time>
      </trkpt>
      <trkpt lat="42.82898" lon="0.95221">
        <ele>1441</ele>
        <time>2010-01-01T05:30:48Z</time>
      </trkpt>
      <trkpt lat="42.82896" lon="0.95222">
        <ele>1442</ele>
        <time>2010-01-01T05:30:49Z</time>
      </trkpt>
      <trkpt lat="42.82891" lon="0.95211">
        <ele>1444</ele>
        <time>2010-01-01T05:30:53Z</time>
      </trkpt>
      <trkpt lat="42.82898" lon="0.95216">
        <ele>1439</ele>
        <time>2010-01-01T05:30:56Z</time>
      </trkpt>
      <trkpt lat="42.829" lon="0.95218">
        <ele>1438</ele>
        <time>2010-01-01T05:30:57Z</time>
      </trkpt>
      <trkpt lat="42.82902" lon="0.9522">
        <ele>1437</ele>
        <time>2010-01-01T05:30:58Z</time>
      </trkpt>
      <trkpt lat="42.82909" lon="0.95219">
        <ele>1431</ele>
        <time>2010-01-01T05:31:01Z</time>
      </trkpt>
      <trkpt lat="42.82907" lon="0.9523">
        <ele>1434</ele>
        <time>2010-01-01T05:31:04Z</time>
      </trkpt>
      <trkpt lat="42.82913" lon="0.95241">
        <ele>1432</ele>
        <time>2010-01-01T05:31:08Z</time>
      </trkpt>
      <trkpt lat="42.82916" lon="0.95237">
        <ele>1428</ele>
        <time>2010-01-01T05:31:10Z</time>
      </trkpt>
      <trkpt lat="42.82922" lon="0.95243">
        <ele>1424</ele>
        <time>2010-01-01T05:31:13Z</time>
      </trkpt>
      <trkpt lat="42.82934" lon="0.95257">
        <ele>1417</ele>
        <time>2010-01-01T05:31:19Z</time>
      </trkpt>
      <trkpt lat="42.82934" lon="0.9527">
        <ele>1418</ele>
        <time>2010-01-01T05:31:23Z</time>
      </trkpt>
      <trkpt lat="42.82939" lon="0.95287">
        <ele>1416</ele>
        <time>2010-01-01T05:31:28Z</time>
      </trkpt>
      <trkpt lat="42.82943" lon="0.95303">
        <ele>1414</ele>
        <time>2010-01-01T05:31:33Z</time>
      </trkpt>
      <trkpt lat="42.82947" lon="0.9532">
        <ele>1410</ele>
        <time>2010-01-01T05:31:39Z</time>
      </trkpt>
      <trkpt lat="42.82948" lon="0.95338">
        <ele>1409</ele>
        <time>2010-01-01T05:31:44Z</time>
      </trkpt>
      <trkpt lat="42.82953" lon="0.95326">
        <ele>1406</ele>
        <time>2010-01-01T05:31:48Z</time>
      </trkpt>
      <trkpt lat="42.82954" lon="0.95322">
        <ele>1405</ele>
        <time>2010-01-01T05:31:49Z</time>
      </trkpt>
      <trkpt lat="42.82959" lon="0.95323">
        <ele>1402</ele>
        <time>2010-01-01T05:31:51Z</time>
      </trkpt>
      <trkpt lat="42.82966" lon="0.95338">
        <ele>1397</ele>
        <time>2010-01-01T05:31:56Z</time>
      </trkpt>
      <trkpt lat="42.82966" lon="0.95349">
        <ele>1396</ele>
        <time>2010-01-01T05:32:00Z</time>
      </trkpt>
      <trkpt lat="42.82964" lon="0.95349">
        <ele>1397</ele>
        <time>2010-01-01T05:32:00Z</time>
      </trkpt>
      <trkpt lat="42.82966" lon="0.95348">
        <ele>1396</ele>
        <time>2010-01-01T05:32:01Z</time>
      </trkpt>
      <trkpt lat="42.82963" lon="0.95348">
        <ele>1398</ele>
        <time>2010-01-01T05:32:02Z</time>
      </trkpt>
      <trkpt lat="42.8297" lon="0.95361">
        <ele>1392</ele>
        <time>2010-01-01T05:32:07Z</time>
      </trkpt>
      <trkpt lat="42.82975" lon="0.9536">
        <ele>1388</ele>
        <time>2010-01-01T05:32:09Z</time>
      </trkpt>
      <trkpt lat="42.82977" lon="0.9537">
        <ele>1387</ele>
        <time>2010-01-01T05:32:12Z</time>
      </trkpt>
      <trkpt lat="42.82977" lon="0.95389">
        <ele>1386</ele>
        <time>2010-01-01T05:32:18Z</time>
      </trkpt>
      <trkpt lat="42.82977" lon="0.95397">
        <ele>1386</ele>
        <time>2010-01-01T05:32:20Z</time>
      </trkpt>
      <trkpt lat="42.82978" lon="0.95411">
        <ele>1385</ele>
        <time>2010-01-01T05:32:24Z</time>
      </trkpt>
      <trkpt lat="42.82979" lon="0.95413">
        <ele>1385</ele>
        <time>2010-01-01T05:32:25Z</time>
      </trkpt>
      <trkpt lat="42.82988" lon="0.95425">
        <ele>1379</ele>
        <time>2010-01-01T05:32:30Z</time>
      </trkpt>
      <trkpt lat="42.82996" lon="0.95428">
        <ele>1373</ele>
        <time>2010-01-01T05:32:33Z</time>
      </trkpt>
      <trkpt lat="42.83" lon="0.95431">
        <ele>1371</ele>
        <time>2010-01-01T05:32:35Z</time>
      </trkpt>
      <trkpt lat="42.83005" lon="0.95441">
        <ele>1369</ele>
        <time>2010-01-01T05:32:39Z</time>
      </trkpt>
      <trkpt lat="42.83014" lon="0.95446">
        <ele>1364</ele>
        <time>2010-01-01T05:32:43Z</time>
      </trkpt>
      <trkpt lat="42.83022" lon="0.9545">
        <ele>1360</ele>
        <time>2010-01-01T05:32:46Z</time>
      </trkpt>
      <trkpt lat="42.83031" lon="0.95455">
        <ele>1356</ele>
        <time>2010-01-01T05:32:50Z</time>
      </trkpt>
      <trkpt lat="42.83028" lon="0.95452">
        <ele>1357</ele>
        <time>2010-01-01T05:32:51Z</time>
      </trkpt>
      <trkpt lat="42.8303" lon="0.95448">
        <ele>1356</ele>
        <time>2010-01-01T05:32:53Z</time>
      </trkpt>
      <trkpt lat="42.83029" lon="0.95433">
        <ele>1355</ele>
        <time>2010-01-01T05:32:57Z</time>
      </trkpt>
      <trkpt lat="42.83034" lon="0.95417">
        <ele>1350</ele>
        <time>2010-01-01T05:33:02Z</time>
      </trkpt>
      <trkpt lat="42.83041" lon="0.95427">
        <ele>1348</ele>
        <time>2010-01-01T05:33:06Z</time>
      </trkpt>
      <trkpt lat="42.83051" lon="0.95431">
        <ele>1343</ele>
        <time>2010-01-01T05:33:11Z</time>
      </trkpt>
      <trkpt lat="42.83049" lon="0.95415">
        <ele>1342</ele>
        <time>2010-01-01T05:33:15Z</time>
      </trkpt>
      <trkpt lat="42.83054" lon="0.95408">
        <ele>1338</ele>
        <time>2010-01-01T05:33:18Z</time>
      </trkpt>
      <trkpt lat="42.83061" lon="0.95414">
        <ele>1336</ele>
        <time>2010-01-01T05:33:21Z</time>
      </trkpt>
      <trkpt lat="42.83078" lon="0.95422">
        <ele>1329</ele>
        <time>2010-01-01T05:33:29Z</time>
      </trkpt>
      <trkpt lat="42.83089" lon="0.9542">
        <ele>1323</ele>
        <time>2010-01-01T05:33:33Z</time>
      </trkpt>
      <trkpt lat="42.83083" lon="0.95405">
        <ele>1323</ele>
        <time>2010-01-01T05:33:38Z</time>
      </trkpt>
      <trkpt lat="42.83081" lon="0.95393">
        <ele>1321</ele>
        <time>2010-01-01T05:33:42Z</time>
      </trkpt>
      <trkpt lat="42.83094" lon="0.95396">
        <ele>1316</ele>
        <time>2010-01-01T05:33:47Z</time>
      </trkpt>
      <trkpt lat="42.83099" lon="0.95398">
        <ele>1313</ele>
        <time>2010-01-01T05:33:49Z</time>
      </trkpt>
      <trkpt lat="42.83104" lon="0.95401">
        <ele>1312</ele>
        <time>2010-01-01T05:33:51Z</time>
      </trkpt>
      <trkpt lat="42.83111" lon="0.95398">
        <ele>1307</ele>
        <time>2010-01-01T05:33:54Z</time>
      </trkpt>
      <trkpt lat="42.83106" lon="0.95381">
        <ele>1306</ele>
        <time>2010-01-01T05:34:00Z</time>
      </trkpt>
      <trkpt lat="42.83101" lon="0.95364">
        <ele>1304</ele>
        <time>2010-01-01T05:34:05Z</time>
      </trkpt>
      <trkpt lat="42.8311" lon="0.95364">
        <ele>1299</ele>
        <time>2010-01-01T05:34:08Z</time>
      </trkpt>
      <trkpt lat="42.83116" lon="0.95365">
        <ele>1297</ele>
        <time>2010-01-01T05:34:11Z</time>
      </trkpt>
      <trkpt lat="42.83119" lon="0.95364">
        <ele>1295</ele>
        <time>2010-01-01T05:34:12Z</time>
      </trkpt>
      <trkpt lat="42.83123" lon="0.95359">
        <ele>1292</ele>
        <time>2010-01-01T05:34:14Z</time>
      </trkpt>
      <trkpt lat="42.8312" lon="0.95346">
        <ele>1290</ele>
        <time>2010-01-01T05:34:18Z</time>
      </trkpt>
      <trkpt lat="42.83113" lon="0.9533">
        <ele>1289</ele>
        <time>2010-01-01T05:34:24Z</time>
      </trkpt>
      <trkpt lat="42.83115" lon="0.95329">
        <ele>1288</ele>
        <time>2010-01-01T05:34:25Z</time>
      </trkpt>
      <trkpt lat="42.83123" lon="0.95329">
        <ele>1284</ele>
        <time>2010-01-01T05:34:28Z</time>
      </trkpt>
      <trkpt lat="42.83131" lon="0.95333">
        <ele>1281</ele>
        <time>2010-01-01T05:34:31Z</time>
      </trkpt>
      <trkpt lat="42.83134" lon="0.95332">
        <ele>1280</ele>
        <time>2010-01-01T05:34:33Z</time>
      </trkpt>
      <trkpt lat="42.83137" lon="0.95333">
        <ele>1279</ele>
        <time>2010-01-01T05:34:34Z</time>
      </trkpt>
      <trkpt lat="42.83132" lon="0.95322">
        <ele>1278</ele>
        <time>2010-01-01T05:34:38Z</time>
      </trkpt>
      <trkpt lat="42.83124" lon="0.95309">
        <ele>1278</ele>
        <time>2010-01-01T05:34:43Z</time>
      </trkpt>
      <trkpt lat="42.83123" lon="0.953">
        <ele>1277</ele>
        <time>2010-01-01T05:34:46Z</time>
      </trkpt>
      <trkpt lat="42.83133" lon="0.95301">
        <ele>1271</ele>
        <time>2010-01-01T05:34:49Z</time>
      </trkpt>
      <trkpt lat="42.83154" lon="0.95298">
        <ele>1264</ele>
        <time>2010-01-01T05:34:58Z</time>
      </trkpt>
      <trkpt lat="42.83159" lon="0.95298">
        <ele>1263</ele>
        <time>2010-01-01T05:35:00Z</time>
      </trkpt>
      <trkpt lat="42.83159" lon="0.9529">
        <ele>1261</ele>
        <time>2010-01-01T05:35:02Z</time>
      </trkpt>
      <trkpt lat="42.83151" lon="0.95275">
        <ele>1261</ele>
        <time>2010-01-01T05:35:08Z</time>
      </trkpt>
      <trkpt lat="42.83144" lon="0.95262">
        <ele>1261</ele>
        <time>2010-01-01T05:35:12Z</time>
      </trkpt>
      <trkpt lat="42.83138" lon="0.95248">
        <ele>1262</ele>
        <time>2010-01-01T05:35:17Z</time>
      </trkpt>
      <trkpt lat="42.83137" lon="0.95235">
        <ele>1260</ele>
        <time>2010-01-01T05:35:21Z</time>
      </trkpt>
      <trkpt lat="42.83146" lon="0.95235">
        <ele>1256</ele>
        <time>2010-01-01T05:35:24Z</time>
      </trkpt>
      <trkpt lat="42.83154" lon="0.95237">
        <ele>1253</ele>
        <time>2010-01-01T05:35:28Z</time>
      </trkpt>
      <trkpt lat="42.83166" lon="0.95239">
        <ele>1248</ele>
        <time>2010-01-01T05:35:33Z</time>
      </trkpt>
      <trkpt lat="42.83167" lon="0.95224">
        <ele>1244</ele>
        <time>2010-01-01T05:35:37Z</time>
      </trkpt>
      <trkpt lat="42.83159" lon="0.95211">
        <ele>1244</ele>
        <time>2010-01-01T05:35:42Z</time>
      </trkpt>
      <trkpt lat="42.83151" lon="0.95199">
        <ele>1244</ele>
        <time>2010-01-01T05:35:47Z</time>
      </trkpt>
      <trkpt lat="42.83151" lon="0.95197">
        <ele>1243</ele>
        <time>2010-01-01T05:35:47Z</time>
      </trkpt>
      <trkpt lat="42.83145" lon="0.95182">
        <ele>1242</ele>
        <time>2010-01-01T05:35:52Z</time>
      </trkpt>
      <trkpt lat="42.83136" lon="0.95155">
        <ele>1241</ele>
        <time>2010-01-01T05:36:01Z</time>
      </trkpt>
      <trkpt lat="42.83134" lon="0.95141">
        <ele>1237</ele>
        <time>2010-01-01T05:36:05Z</time>
      </trkpt>
      <trkpt lat="42.8313" lon="0.95123">
        <ele>1235</ele>
        <time>2010-01-01T05:36:10Z</time>
      </trkpt>
      <trkpt lat="42.8313" lon="0.95121">
        <ele>1235</ele>
        <time>2010-01-01T05:36:11Z</time>
      </trkpt>
      <trkpt lat="42.8313" lon="0.95114">
        <ele>1233</ele>
        <time>2010-01-01T05:36:13Z</time>
      </trkpt>
      <trkpt lat="42.83126" lon="0.95094">
        <ele>1230</ele>
        <time>2010-01-01T05:36:19Z</time>
      </trkpt>
      <trkpt lat="42.83121" lon="0.95076">
        <ele>1228</ele>
        <time>2010-01-01T05:36:25Z</time>
      </trkpt>
      <trkpt lat="42.83122" lon="0.9506">
        <ele>1223</ele>
        <time>2010-01-01T05:36:30Z</time>
      </trkpt>
      <trkpt lat="42.83123" lon="0.95036">
        <ele>1217</ele>
        <time>2010-01-01T05:36:37Z</time>
      </trkpt>
      <trkpt lat="42.83121" lon="0.95019">
        <ele>1217</ele>
        <time>2010-01-01T05:36:42Z</time>
      </trkpt>
      <trkpt lat="42.83121" lon="0.94996">
        <ele>1216</ele>
        <time>2010-01-01T05:36:48Z</time>
      </trkpt>
      <trkpt lat="42.83119" lon="0.94977">
        <ele>1217</ele>
        <time>2010-01-01T05:36:54Z</time>
      </trkpt>
      <trkpt lat="42.83122" lon="0.9496">
        <ele>1215</ele>
        <time>2010-01-01T05:36:59Z</time>
      </trkpt>
      <trkpt lat="42.83121" lon="0.94943">
        <ele>1215</ele>
        <time>2010-01-01T05:37:04Z</time>
      </trkpt>
      <trkpt lat="42.83124" lon="0.94926">
        <ele>1213</ele>
        <time>2010-01-01T05:37:09Z</time>
      </trkpt>
      <trkpt lat="42.83126" lon="0.94914">
        <ele>1212</ele>
        <time>2010-01-01T05:37:13Z</time>
      </trkpt>
      <trkpt lat="42.83128" lon="0.94893">
        <ele>1210</ele>
        <time>2010-01-01T05:37:19Z</time>
      </trkpt>
      <trkpt lat="42.83132" lon="0.94868">
        <ele>1207</ele>
        <time>2010-01-01T05:37:26Z</time>
      </trkpt>
      <trkpt lat="42.83137" lon="0.94852">
        <ele>1203</ele>
        <time>2010-01-01T05:37:32Z</time>
      </trkpt>
      <trkpt lat="42.83139" lon="0.94848">
        <ele>1201</ele>
        <time>2010-01-01T05:37:33Z</time>
      </trkpt>
      <trkpt lat="42.83142" lon="0.94834">
        <ele>1198</ele>
        <time>2010-01-01T05:37:37Z</time>
      </trkpt>
      <trkpt lat="42.83146" lon="0.94819">
        <ele>1196</ele>
        <time>2010-01-01T05:37:42Z</time>
      </trkpt>
      <trkpt lat="42.83149" lon="0.94792">
        <ele>1195</ele>
        <time>2010-01-01T05:37:50Z</time>
      </trkpt>
      <trkpt lat="42.83149" lon="0.94786">
        <ele>1194</ele>
        <time>2010-01-01T05:37:52Z</time>
      </trkpt>
      <trkpt lat="42.83153" lon="0.94752">
        <ele>1191</ele>
        <time>2010-01-01T05:38:02Z</time>
      </trkpt>
      <trkpt lat="42.83152" lon="0.94719">
        <ele>1192</ele>
        <time>2010-01-01T05:38:12Z</time>
      </trkpt>
      <trkpt lat="42.83151" lon="0.94702">
        <ele>1193</ele>
        <time>2010-01-01T05:38:17Z</time>
      </trkpt>
      <trkpt lat="42.83152" lon="0.94672">
        <ele>1190</ele>
        <time>2010-01-01T05:38:25Z</time>
      </trkpt>
      <trkpt lat="42.83154" lon="0.94642">
        <ele>1186</ele>
        <time>2010-01-01T05:38:34Z</time>
      </trkpt>
      <trkpt lat="42.83154" lon="0.94614">
        <ele>1182</ele>
        <time>2010-01-01T05:38:42Z</time>
      </trkpt>
      <trkpt lat="42.83148" lon="0.94596">
        <ele>1184</ele>
        <time>2010-01-01T05:38:48Z</time>
      </trkpt>
      <trkpt lat="42.83143" lon="0.94594">
        <ele>1186</ele>
        <time>2010-01-01T05:38:50Z</time>
      </trkpt>
      <trkpt lat="42.83133" lon="0.94586">
        <ele>1190</ele>
        <time>2010-01-01T05:38:55Z</time>
      </trkpt>
      <trkpt lat="42.83133" lon="0.94586">
        <ele>1190</ele>
        <time>2010-01-01T05:38:56Z</time>
      </trkpt>
      <trkpt lat="42.83132" lon="0.94582">
        <ele>1190</ele>
        <time>2010-01-01T05:38:57Z</time>
      </trkpt>
      <trkpt lat="42.83134" lon="0.94581">
        <ele>1189</ele>
        <time>2010-01-01T05:38:58Z</time>
      </trkpt>
      <trkpt lat="42.83135" lon="0.94585">
        <ele>1189</ele>
        <time>2010-01-01T05:38:59Z</time>
      </trkpt>
      <trkpt lat="42.83134" lon="0.94587">
        <ele>1189</ele>
        <time>2010-01-01T05:39:00Z</time>
      </trkpt>
      <trkpt lat="42.83134" lon="0.94584">
        <ele>1189</ele>
        <time>2010-01-01T05:39:01Z</time>
      </trkpt>
      <trkpt lat="42.83135" lon="0.94585">
        <ele>1189</ele>
        <time>2010-01-01T05:39:01Z</time>
      </trkpt>
      <trkpt lat="42.83135" lon="0.94583">
        <ele>1189</ele>
        <time>2010-01-01T05:39:02Z</time>
      </trkpt>
      <trkpt lat="42.83138" lon="0.94581">
        <ele>1188</ele>
        <time>2010-01-01T05:39:03Z</time>
      </trkpt>
      <trkpt lat="42.83141" lon="0.9458">
        <ele>1187</ele>
        <time>2010-01-01T05:39:04Z</time>
      </trkpt>
      <trkpt lat="42.83149" lon="0.94575">
        <ele>1184</ele>
        <time>2010-01-01T05:39:08Z</time>
      </trkpt>
      <trkpt lat="42.83156" lon="0.94572">
        <ele>1180</ele>
        <time>2010-01-01T05:39:11Z</time>
      </trkpt>
      <trkpt lat="42.83164" lon="0.94567">
        <ele>1178</ele>
        <time>2010-01-01T05:39:14Z</time>
      </trkpt>
      <trkpt lat="42.83171" lon="0.94556">
        <ele>1175</ele>
        <time>2010-01-01T05:39:18Z</time>
      </trkpt>
      <trkpt lat="42.83174" lon="0.94551">
        <ele>1174</ele>
        <time>2010-01-01T05:39:20Z</time>
      </trkpt>
      <trkpt lat="42.83183" lon="0.94537">
        <ele>1169</ele>
        <time>2010-01-01T05:39:26Z</time>
      </trkpt>
      <trkpt lat="42.83187" lon="0.94519">
        <ele>1168</ele>
        <time>2010-01-01T05:39:31Z</time>
      </trkpt>
      <trkpt lat="42.83186" lon="0.94515">
        <ele>1168</ele>
        <time>2010-01-01T05:39:33Z</time>
      </trkpt>
      <trkpt lat="42.83189" lon="0.94488">
        <ele>1169</ele>
        <time>2010-01-01T05:39:41Z</time>
      </trkpt>
      <trkpt lat="42.83201" lon="0.94461">
        <ele>1166</ele>
        <time>2010-01-01T05:39:50Z</time>
      </trkpt>
      <trkpt lat="42.83219" lon="0.94433">
        <ele>1162</ele>
        <time>2010-01-01T05:40:01Z</time>
      </trkpt>
      <trkpt lat="42.83238" lon="0.94412">
        <ele>1157</ele>
        <time>2010-01-01T05:40:11Z</time>
      </trkpt>
      <trkpt lat="42.83256" lon="0.94386">
        <ele>1150</ele>
        <time>2010-01-01T05:40:21Z</time>
      </trkpt>
      <trkpt lat="42.83269" lon="0.94357">
        <ele>1147</ele>
        <time>2010-01-01T05:40:31Z</time>
      </trkpt>
      <trkpt lat="42.83275" lon="0.9433">
        <ele>1147</ele>
        <time>2010-01-01T05:40:39Z</time>
      </trkpt>
      <trkpt lat="42.8328" lon="0.94301">
        <ele>1145</ele>
        <time>2010-01-01T05:40:48Z</time>
      </trkpt>
      <trkpt lat="42.83281" lon="0.94294">
        <ele>1144</ele>
        <time>2010-01-01T05:40:50Z</time>
      </trkpt>
      <trkpt lat="42.83284" lon="0.9427">
        <ele>1140</ele>
        <time>2010-01-01T05:40:57Z</time>
      </trkpt>
      <trkpt lat="42.8328" lon="0.94236">
        <ele>1136</ele>
        <time>2010-01-01T05:41:07Z</time>
      </trkpt>
      <trkpt lat="42.83281" lon="0.94235">
        <ele>1136</ele>
        <time>2010-01-01T05:41:08Z</time>
      </trkpt>
      <trkpt lat="42.83284" lon="0.9423">
        <ele>1134</ele>
        <time>2010-01-01T05:41:10Z</time>
      </trkpt>
      <trkpt lat="42.83286" lon="0.94221">
        <ele>1131</ele>
        <time>2010-01-01T05:41:13Z</time>
      </trkpt>
      <trkpt lat="42.83289" lon="0.94216">
        <ele>1128</ele>
        <time>2010-01-01T05:41:15Z</time>
      </trkpt>
      <trkpt lat="42.83285" lon="0.94195">
        <ele>1124</ele>
        <time>2010-01-01T05:41:21Z</time>
      </trkpt>
      <trkpt lat="42.83287" lon="0.94186">
        <ele>1120</ele>
        <time>2010-01-01T05:41:24Z</time>
      </trkpt>
      <trkpt lat="42.83283" lon="0.94182">
        <ele>1120</ele>
        <time>2010-01-01T05:41:26Z</time>
      </trkpt>
      <trkpt lat="42.83283" lon="0.94182">
        <ele>1120</ele>
        <time>2010-01-01T05:41:26Z</time>
      </trkpt>
      <trkpt lat="42.83282" lon="0.94173">
        <ele>1118</ele>
        <time>2010-01-01T05:41:28Z</time>
      </trkpt>
      <trkpt lat="42.83278" lon="0.94166">
        <ele>1116</ele>
        <time>2010-01-01T05:41:31Z</time>
      </trkpt>
      <trkpt lat="42.83276" lon="0.94155">
        <ele>1112</ele>
        <time>2010-01-01T05:41:34Z</time>
      </trkpt>
      <trkpt lat="42.83278" lon="0.94157">
        <ele>1112</ele>
        <time>2010-01-01T05:41:35Z</time>
      </trkpt>
      <trkpt lat="42.83277" lon="0.94148">
        <ele>1109</ele>
        <time>2010-01-01T05:41:37Z</time>
      </trkpt>
      <trkpt lat="42.83275" lon="0.94137">
        <ele>1105</ele>
        <time>2010-01-01T05:41:41Z</time>
      </trkpt>
      <trkpt lat="42.83268" lon="0.94129">
        <ele>1104</ele>
        <time>2010-01-01T05:41:44Z</time>
      </trkpt>
      <trkpt lat="42.83275" lon="0.94126">
        <ele>1101</ele>
        <time>2010-01-01T05:41:47Z</time>
      </trkpt>
      <trkpt lat="42.8327" lon="0.94117">
        <ele>1099</ele>
        <time>2010-01-01T05:41:50Z</time>
      </trkpt>
      <trkpt lat="42.83261" lon="0.94109">
        <ele>1097</ele>
        <time>2010-01-01T05:41:55Z</time>
      </trkpt>
      <trkpt lat="42.83249" lon="0.94098">
        <ele>1094</ele>
        <time>2010-01-01T05:42:01Z</time>
      </trkpt>
      <trkpt lat="42.83239" lon="0.9409">
        <ele>1092</ele>
        <time>2010-01-01T05:42:05Z</time>
      </trkpt>
      <trkpt lat="42.83231" lon="0.94082">
        <ele>1089</ele>
        <time>2010-01-01T05:42:09Z</time>
      </trkpt>
      <trkpt lat="42.83219" lon="0.94063">
        <ele>1083</ele>
        <time>2010-01-01T05:42:17Z</time>
      </trkpt>
      <trkpt lat="42.83217" lon="0.94064">
        <ele>1084</ele>
        <time>2010-01-01T05:42:17Z</time>
      </trkpt>
      <trkpt lat="42.83216" lon="0.94061">
        <ele>1083</ele>
        <time>2010-01-01T05:42:18Z</time>
      </trkpt>
      <trkpt lat="42.83235" lon="0.94071">
        <ele>1082</ele>
        <time>2010-01-01T05:42:26Z</time>
      </trkpt>
      <trkpt lat="42.83248" lon="0.94072">
        <ele>1080</ele>
        <time>2010-01-01T05:42:32Z</time>
      </trkpt>
      <trkpt lat="42.8326" lon="0.94073">
        <ele>1077</ele>
        <time>2010-01-01T05:42:36Z</time>
      </trkpt>
      <trkpt lat="42.83266" lon="0.94065">
        <ele>1071</ele>
        <time>2010-01-01T05:42:40Z</time>
      </trkpt>
      <trkpt lat="42.8326" lon="0.94061">
        <ele>1070</ele>
        <time>2010-01-01T05:42:42Z</time>
      </trkpt>
      <trkpt lat="42.83253" lon="0.94051">
        <ele>1066</ele>
        <time>2010-01-01T05:42:46Z</time>
      </trkpt>
      <trkpt lat="42.83243" lon="0.94039">
        <ele>1062</ele>
        <time>2010-01-01T05:42:52Z</time>
      </trkpt>
      <trkpt lat="42.83239" lon="0.94034">
        <ele>1060</ele>
        <time>2010-01-01T05:42:54Z</time>
      </trkpt>
      <trkpt lat="42.83235" lon="0.94027">
        <ele>1058</ele>
        <time>2010-01-01T05:42:56Z</time>
      </trkpt>
      <trkpt lat="42.83225" lon="0.9401">
        <ele>1053</ele>
        <time>2010-01-01T05:43:03Z</time>
      </trkpt>
      <trkpt lat="42.83226" lon="0.94006">
        <ele>1051</ele>
        <time>2010-01-01T05:43:04Z</time>
      </trkpt>
      <trkpt lat="42.83239" lon="0.94013">
        <ele>1051</ele>
        <time>2010-01-01T05:43:10Z</time>
      </trkpt>
      <trkpt lat="42.83245" lon="0.94006">
        <ele>1047</ele>
        <time>2010-01-01T05:43:13Z</time>
      </trkpt>
      <trkpt lat="42.83239" lon="0.93994">
        <ele>1043</ele>
        <time>2010-01-01T05:43:17Z</time>
      </trkpt>
      <trkpt lat="42.83237" lon="0.93989">
        <ele>1041</ele>
        <time>2010-01-01T05:43:19Z</time>
      </trkpt>
      <trkpt lat="42.83243" lon="0.93985">
        <ele>1038</ele>
        <time>2010-01-01T05:43:21Z</time>
      </trkpt>
      <trkpt lat="42.83246" lon="0.9398">
        <ele>1035</ele>
        <time>2010-01-01T05:43:23Z</time>
      </trkpt>
      <trkpt lat="42.83243" lon="0.93973">
        <ele>1033</ele>
        <time>2010-01-01T05:43:26Z</time>
      </trkpt>
      <trkpt lat="42.83237" lon="0.93961">
        <ele>1030</ele>
        <time>2010-01-01T05:43:30Z</time>
      </trkpt>
      <trkpt lat="42.83232" lon="0.93952">
        <ele>1028</ele>
        <time>2010-01-01T05:43:33Z</time>
      </trkpt>
      <trkpt lat="42.83224" lon="0.93941">
        <ele>1027</ele>
        <time>2010-01-01T05:43:38Z</time>
      </trkpt>
      <trkpt lat="42.83218" lon="0.93932">
        <ele>1025</ele>
        <time>2010-01-01T05:43:41Z</time>
      </trkpt>
      <trkpt lat="42.83221" lon="0.93928">
        <ele>1023</ele>
        <time>2010-01-01T05:43:43Z</time>
      </trkpt>
      <trkpt lat="42.83219" lon="0.93922">
        <ele>1021</ele>
        <time>2010-01-01T05:43:45Z</time>
      </trkpt>
      <trkpt lat="42.83216" lon="0.93909">
        <ele>1017</ele>
        <time>2010-01-01T05:43:49Z</time>
      </trkpt>
      <trkpt lat="42.83216" lon="0.93903">
        <ele>1015</ele>
        <time>2010-01-01T05:43:51Z</time>
      </trkpt>
      <trkpt lat="42.83212" lon="0.93893">
        <ele>1013</ele>
        <time>2010-01-01T05:43:54Z</time>
      </trkpt>
      <trkpt lat="42.83207" lon="0.93881">
        <ele>1008</ele>
        <time>2010-01-01T05:43:58Z</time>
      </trkpt>
      <trkpt lat="42.83204" lon="0.93874">
        <ele>1006</ele>
        <time>2010-01-01T05:44:00Z</time>
      </trkpt>
      <trkpt lat="42.83191" lon="0.93858">
        <ele>1003</ele>
        <time>2010-01-01T05:44:07Z</time>
      </trkpt>
      <trkpt lat="42.83174" lon="0.93844">
        <ele>1005</ele>
        <time>2010-01-01T05:44:15Z</time>
      </trkpt>
      <trkpt lat="42.83171" lon="0.93828">
        <ele>998</ele>
        <time>2010-01-01T05:44:20Z</time>
      </trkpt>
      <trkpt lat="42.83173" lon="0.93815">
        <ele>990</ele>
        <time>2010-01-01T05:44:24Z</time>
      </trkpt>
      <trkpt lat="42.83167" lon="0.93818">
        <ele>994</ele>
        <time>2010-01-01T05:44:27Z</time>
      </trkpt>
      <trkpt lat="42.83169" lon="0.93813">
        <ele>990</ele>
        <time>2010-01-01T05:44:28Z</time>
      </trkpt>
      <trkpt lat="42.83171" lon="0.93817">
        <ele>992</ele>
        <time>2010-01-01T05:44:30Z</time>
      </trkpt>
      <trkpt lat="42.83171" lon="0.93817">
        <ele>992</ele>
        <time>2010-01-01T05:44:30Z</time>
      </trkpt>
      <trkpt lat="42.83171" lon="0.93817">
        <ele>992</ele>
        <time>2010-01-01T05:44:30Z</time>
      </trkpt>
      <trkpt lat="42.8317" lon="0.93816">
        <ele>992</ele>
        <time>2010-01-01T05:44:30Z</time>
      </trkpt>
      <trkpt lat="42.83169" lon="0.93801">
        <ele>983</ele>
        <time>2010-01-01T05:44:35Z</time>
      </trkpt>
      <trkpt lat="42.83167" lon="0.93785">
        <ele>975</ele>
        <time>2010-01-01T05:44:39Z</time>
      </trkpt>
      <trkpt lat="42.83155" lon="0.93778">
        <ele>975</ele>
        <time>2010-01-01T05:44:44Z</time>
      </trkpt>
      <trkpt lat="42.83139" lon="0.93773">
        <ele>979</ele>
        <time>2010-01-01T05:44:51Z</time>
      </trkpt>
      <trkpt lat="42.83122" lon="0.93761">
        <ele>983</ele>
        <time>2010-01-01T05:44:59Z</time>
      </trkpt>
      <trkpt lat="42.83111" lon="0.93754">
        <ele>982</ele>
        <time>2010-01-01T05:45:03Z</time>
      </trkpt>
      <trkpt lat="42.83102" lon="0.9374">
        <ele>982</ele>
        <time>2010-01-01T05:45:09Z</time>
      </trkpt>
      <trkpt lat="42.83099" lon="0.93731">
        <ele>979</ele>
        <time>2010-01-01T05:45:12Z</time>
      </trkpt>
      <trkpt lat="42.83108" lon="0.93735">
        <ele>975</ele>
        <time>2010-01-01T05:45:16Z</time>
      </trkpt>
      <trkpt lat="42.83124" lon="0.93729">
        <ele>967</ele>
        <time>2010-01-01T05:45:23Z</time>
      </trkpt>
      <trkpt lat="42.83146" lon="0.93733">
        <ele>962</ele>
        <time>2010-01-01T05:45:31Z</time>
      </trkpt>
      <trkpt lat="42.83154" lon="0.93735">
        <ele>961</ele>
        <time>2010-01-01T05:45:35Z</time>
      </trkpt>
      <trkpt lat="42.83164" lon="0.93738">
        <ele>959</ele>
        <time>2010-01-01T05:45:39Z</time>
      </trkpt>
      <trkpt lat="42.83172" lon="0.93746">
        <ele>959</ele>
        <time>2010-01-01T05:45:43Z</time>
      </trkpt>
      <trkpt lat="42.83177" lon="0.93754">
        <ele>960</ele>
        <time>2010-01-01T05:45:46Z</time>
      </trkpt>
      <trkpt lat="42.83182" lon="0.93761">
        <ele>961</ele>
        <time>2010-01-01T05:45:49Z</time>
      </trkpt>
      <trkpt lat="42.83205" lon="0.93784">
        <ele>965</ele>
        <time>2010-01-01T05:46:00Z</time>
      </trkpt>
      <trkpt lat="42.83225" lon="0.93789">
        <ele>962</ele>
        <time>2010-01-01T05:46:08Z</time>
      </trkpt>
      <trkpt lat="42.83234" lon="0.93793">
        <ele>959</ele>
        <time>2010-01-01T05:46:12Z</time>
      </trkpt>
      <trkpt lat="42.83239" lon="0.93796">
        <ele>959</ele>
        <time>2010-01-01T05:46:14Z</time>
      </trkpt>
      <trkpt lat="42.83246" lon="0.93799">
        <ele>957</ele>
        <time>2010-01-01T05:46:17Z</time>
      </trkpt>
      <trkpt lat="42.83263" lon="0.93804">
        <ele>953</ele>
        <time>2010-01-01T05:46:24Z</time>
      </trkpt>
      <trkpt lat="42.83275" lon="0.93805">
        <ele>950</ele>
        <time>2010-01-01T05:46:29Z</time>
      </trkpt>
      <trkpt lat="42.83277" lon="0.93805">
        <ele>950</ele>
        <time>2010-01-01T05:46:30Z</time>
      </trkpt>
      <trkpt lat="42.83285" lon="0.93796">
        <ele>946</ele>
        <time>2010-01-01T05:46:34Z</time>
      </trkpt>
      <trkpt lat="42.83289" lon="0.93787">
        <ele>943</ele>
        <time>2010-01-01T05:46:37Z</time>
      </trkpt>
      <trkpt lat="42.8329" lon="0.93784">
        <ele>942</ele>
        <time>2010-01-01T05:46:38Z</time>
      </trkpt>
      <trkpt lat="42.83291" lon="0.93772">
        <ele>941</ele>
        <time>2010-01-01T05:46:42Z</time>
      </trkpt>
      <trkpt lat="42.83297" lon="0.93764">
        <ele>940</ele>
        <time>2010-01-01T05:46:45Z</time>
      </trkpt>
      <trkpt lat="42.83297" lon="0.93763">
        <ele>940</ele>
        <time>2010-01-01T05:46:45Z</time>
      </trkpt>
      <trkpt lat="42.83292" lon="0.93753">
        <ele>940</ele>
        <time>2010-01-01T05:46:49Z</time>
      </trkpt>
      <trkpt lat="42.83287" lon="0.93746">
        <ele>940</ele>
        <time>2010-01-01T05:46:52Z</time>
      </trkpt>
      <trkpt lat="42.8329" lon="0.93745">
        <ele>940</ele>
        <time>2010-01-01T05:46:53Z</time>
      </trkpt>
      <trkpt lat="42.83285" lon="0.93737">
        <ele>941</ele>
        <time>2010-01-01T05:46:56Z</time>
      </trkpt>
      <trkpt lat="42.83279" lon="0.93732">
        <ele>942</ele>
        <time>2010-01-01T05:46:59Z</time>
      </trkpt>
      <trkpt lat="42.83283" lon="0.93718">
        <ele>945</ele>
        <time>2010-01-01T05:47:03Z</time>
      </trkpt>
      <trkpt lat="42.83274" lon="0.93717">
        <ele>946</ele>
        <time>2010-01-01T05:47:07Z</time>
      </trkpt>
      <trkpt lat="42.83269" lon="0.93714">
        <ele>948</ele>
        <time>2010-01-01T05:47:09Z</time>
      </trkpt>
      <trkpt lat="42.8327" lon="0.93704">
        <ele>951</ele>
        <time>2010-01-01T05:47:12Z</time>
      </trkpt>
      <trkpt lat="42.83277" lon="0.93698">
        <ele>953</ele>
        <time>2010-01-01T05:47:16Z</time>
      </trkpt>
      <trkpt lat="42.83274" lon="0.93693">
        <ele>955</ele>
        <time>2010-01-01T05:47:18Z</time>
      </trkpt>
      <trkpt lat="42.83272" lon="0.93684">
        <ele>960</ele>
        <time>2010-01-01T05:47:20Z</time>
      </trkpt>
      <trkpt lat="42.83277" lon="0.9368">
        <ele>962</ele>
        <time>2010-01-01T05:47:23Z</time>
      </trkpt>
      <trkpt lat="42.83281" lon="0.93677">
        <ele>963</ele>
        <time>2010-01-01T05:47:24Z</time>
      </trkpt>
      <trkpt lat="42.8329" lon="0.9367">
        <ele>965</ele>
        <time>2010-01-01T05:47:29Z</time>
      </trkpt>
      <trkpt lat="42.83291" lon="0.93662">
        <ele>969</ele>
        <time>2010-01-01T05:47:31Z</time>
      </trkpt>
      <trkpt lat="42.83298" lon="0.93662">
        <ele>968</ele>
        <time>2010-01-01T05:47:34Z</time>
      </trkpt>
      <trkpt lat="42.83299" lon="0.93658">
        <ele>970</ele>
        <time>2010-01-01T05:47:35Z</time>
      </trkpt>
      <trkpt lat="42.83311" lon="0.93645">
        <ele>975</ele>
        <time>2010-01-01T05:47:41Z</time>
      </trkpt>
      <trkpt lat="42.83327" lon="0.93635">
        <ele>978</ele>
        <time>2010-01-01T05:47:48Z</time>
      </trkpt>
      <trkpt lat="42.83327" lon="0.93636">
        <ele>978</ele>
        <time>2010-01-01T05:47:48Z</time>
      </trkpt>
      <trkpt lat="42.8333" lon="0.93629">
        <ele>981</ele>
        <time>2010-01-01T05:47:51Z</time>
      </trkpt>
      <trkpt lat="42.83334" lon="0.93623">
        <ele>983</ele>
        <time>2010-01-01T05:47:53Z</time>
      </trkpt>
      <trkpt lat="42.8334" lon="0.93616">
        <ele>985</ele>
        <time>2010-01-01T05:47:56Z</time>
      </trkpt>
      <trkpt lat="42.83343" lon="0.93612">
        <ele>986</ele>
        <time>2010-01-01T05:47:58Z</time>
      </trkpt>
      <trkpt lat="42.83345" lon="0.93607">
        <ele>987</ele>
        <time>2010-01-01T05:48:00Z</time>
      </trkpt>
      <trkpt lat="42.83352" lon="0.93602">
        <ele>988</ele>
        <time>2010-01-01T05:48:03Z</time>
      </trkpt>
      <trkpt lat="42.83363" lon="0.93617">
        <ele>982</ele>
        <time>2010-01-01T05:48:09Z</time>
      </trkpt>
      <trkpt lat="42.83382" lon="0.93612">
        <ele>981</ele>
        <time>2010-01-01T05:48:17Z</time>
      </trkpt>
      <trkpt lat="42.83379" lon="0.93612">
        <ele>982</ele>
        <time>2010-01-01T05:48:18Z</time>
      </trkpt>
      <trkpt lat="42.83383" lon="0.93592">
        <ele>986</ele>
        <time>2010-01-01T05:48:24Z</time>
      </trkpt>
      <trkpt lat="42.83384" lon="0.93569">
        <ele>989</ele>
        <time>2010-01-01T05:48:31Z</time>
      </trkpt>
      <trkpt lat="42.8339" lon="0.93555">
        <ele>990</ele>
        <time>2010-01-01T05:48:36Z</time>
      </trkpt>
      <trkpt lat="42.83395" lon="0.93545">
        <ele>989</ele>
        <time>2010-01-01T05:48:39Z</time>
      </trkpt>
      <trkpt lat="42.83399" lon="0.93534">
        <ele>989</ele>
        <time>2010-01-01T05:48:43Z</time>
      </trkpt>
      <trkpt lat="42.83402" lon="0.93534">
        <ele>988</ele>
        <time>2010-01-01T05:48:44Z</time>
      </trkpt>
      <trkpt lat="42.83415" lon="0.93506">
        <ele>988</ele>
        <time>2010-01-01T05:48:54Z</time>
      </trkpt>
      <trkpt lat="42.83421" lon="0.9349">
        <ele>990</ele>
        <time>2010-01-01T05:48:59Z</time>
      </trkpt>
      <trkpt lat="42.83423" lon="0.93484">
        <ele>992</ele>
        <time>2010-01-01T05:49:01Z</time>
      </trkpt>
      <trkpt lat="42.83431" lon="0.93471">
        <ele>994</ele>
        <time>2010-01-01T05:49:06Z</time>
      </trkpt>
      <trkpt lat="42.8344" lon="0.93456">
        <ele>996</ele>
        <time>2010-01-01T05:49:12Z</time>
      </trkpt>
      <trkpt lat="42.8344" lon="0.93452">
        <ele>997</ele>
        <time>2010-01-01T05:49:13Z</time>
      </trkpt>
      <trkpt lat="42.83442" lon="0.93455">
        <ele>997</ele>
        <time>2010-01-01T05:49:14Z</time>
      </trkpt>
      <trkpt lat="42.83447" lon="0.93454">
        <ele>997</ele>
        <time>2010-01-01T05:49:16Z</time>
      </trkpt>
      <trkpt lat="42.83443" lon="0.93456">
        <ele>996</ele>
        <time>2010-01-01T05:49:18Z</time>
      </trkpt>
      <trkpt lat="42.83444" lon="0.93454">
        <ele>996</ele>
        <time>2010-01-01T05:49:19Z</time>
      </trkpt>
      <trkpt lat="42.83517" lon="0.93492">
        <ele>1004</ele>
        <time>2010-01-01T05:49:50Z</time>
      </trkpt>
      <trkpt lat="42.83505" lon="0.9349">
        <ele>1002</ele>
        <time>2010-01-01T05:49:55Z</time>
      </trkpt>
      <trkpt lat="42.83498" lon="0.93494">
        <ele>1000</ele>
        <time>2010-01-01T05:49:58Z</time>
      </trkpt>
      <trkpt lat="42.83491" lon="0.93493">
        <ele>999</ele>
        <time>2010-01-01T05:50:01Z</time>
      </trkpt>
      <trkpt lat="42.83483" lon="0.93482">
        <ele>999</ele>
        <time>2010-01-01T05:50:05Z</time>
      </trkpt>
      <trkpt lat="42.83473" lon="0.93464">
        <ele>1001</ele>
        <time>2010-01-01T05:50:12Z</time>
      </trkpt>
      <trkpt lat="42.83471" lon="0.93457">
        <ele>1001</ele>
        <time>2010-01-01T05:50:14Z</time>
      </trkpt>
      <trkpt lat="42.83463" lon="0.93433">
        <ele>1003</ele>
        <time>2010-01-01T05:50:22Z</time>
      </trkpt>
      <trkpt lat="42.83457" lon="0.93423">
        <ele>1003</ele>
        <time>2010-01-01T05:50:25Z</time>
      </trkpt>
      <trkpt lat="42.83452" lon="0.93408">
        <ele>1004</ele>
        <time>2010-01-01T05:50:30Z</time>
      </trkpt>
      <trkpt lat="42.83452" lon="0.93406">
        <ele>1005</ele>
        <time>2010-01-01T05:50:31Z</time>
      </trkpt>
      <trkpt lat="42.83446" lon="0.93397">
        <ele>1006</ele>
        <time>2010-01-01T05:50:35Z</time>
      </trkpt>
      <trkpt lat="42.83444" lon="0.93377">
        <ele>1009</ele>
        <time>2010-01-01T05:50:40Z</time>
      </trkpt>
      <trkpt lat="42.83446" lon="0.93364">
        <ele>1011</ele>
        <time>2010-01-01T05:50:44Z</time>
      </trkpt>
      <trkpt lat="42.83447" lon="0.93354">
        <ele>1013</ele>
        <time>2010-01-01T05:50:47Z</time>
      </trkpt>
      <trkpt lat="42.83446" lon="0.93339">
        <ele>1016</ele>
        <time>2010-01-01T05:50:52Z</time>
      </trkpt>
      <trkpt lat="42.83442" lon="0.9333">
        <ele>1019</ele>
        <time>2010-01-01T05:50:55Z</time>
      </trkpt>
      <trkpt lat="42.83437" lon="0.93321">
        <ele>1023</ele>
        <time>2010-01-01T05:50:58Z</time>
      </trkpt>
      <trkpt lat="42.83437" lon="0.93322">
        <ele>1023</ele>
        <time>2010-01-01T05:50:58Z</time>
      </trkpt>
      <trkpt lat="42.83429" lon="0.93325">
        <ele>1026</ele>
        <time>2010-01-01T05:51:02Z</time>
      </trkpt>
      <trkpt lat="42.83421" lon="0.9333">
        <ele>1027</ele>
        <time>2010-01-01T05:51:05Z</time>
      </trkpt>
      <trkpt lat="42.83416" lon="0.93331">
        <ele>1029</ele>
        <time>2010-01-01T05:51:07Z</time>
      </trkpt>
      <trkpt lat="42.83412" lon="0.93333">
        <ele>1031</ele>
        <time>2010-01-01T05:51:09Z</time>
      </trkpt>
      <trkpt lat="42.83409" lon="0.93326">
        <ele>1033</ele>
        <time>2010-01-01T05:51:11Z</time>
      </trkpt>
      <trkpt lat="42.83407" lon="0.93322">
        <ele>1035</ele>
        <time>2010-01-01T05:51:13Z</time>
      </trkpt>
      <trkpt lat="42.83413" lon="0.93315">
        <ele>1034</ele>
        <time>2010-01-01T05:51:16Z</time>
      </trkpt>
      <trkpt lat="42.8341" lon="0.93305">
        <ele>1037</ele>
        <time>2010-01-01T05:51:19Z</time>
      </trkpt>
      <trkpt lat="42.8341" lon="0.93296">
        <ele>1039</ele>
        <time>2010-01-01T05:51:21Z</time>
      </trkpt>
      <trkpt lat="42.83411" lon="0.93281">
        <ele>1041</ele>
        <time>2010-01-01T05:51:25Z</time>
      </trkpt>
      <trkpt lat="42.83416" lon="0.93264">
        <ele>1043</ele>
        <time>2010-01-01T05:51:31Z</time>
      </trkpt>
      <trkpt lat="42.83417" lon="0.93253">
        <ele>1047</ele>
        <time>2010-01-01T05:51:34Z</time>
      </trkpt>
      <trkpt lat="42.83414" lon="0.93241">
        <ele>1050</ele>
        <time>2010-01-01T05:51:38Z</time>
      </trkpt>
      <trkpt lat="42.83412" lon="0.93225">
        <ele>1053</ele>
        <time>2010-01-01T05:51:43Z</time>
      </trkpt>
      <trkpt lat="42.83405" lon="0.93214">
        <ele>1057</ele>
        <time>2010-01-01T05:51:47Z</time>
      </trkpt>
      <trkpt lat="42.83397" lon="0.932">
        <ele>1060</ele>
        <time>2010-01-01T05:51:52Z</time>
      </trkpt>
      <trkpt lat="42.83391" lon="0.93188">
        <ele>1063</ele>
        <time>2010-01-01T05:51:56Z</time>
      </trkpt>
      <trkpt lat="42.83385" lon="0.93186">
        <ele>1065</ele>
        <time>2010-01-01T05:51:59Z</time>
      </trkpt>
      <trkpt lat="42.83374" lon="0.93187">
        <ele>1067</ele>
        <time>2010-01-01T05:52:03Z</time>
      </trkpt>
      <trkpt lat="42.83365" lon="0.93191">
        <ele>1067</ele>
        <time>2010-01-01T05:52:07Z</time>
      </trkpt>
      <trkpt lat="42.83353" lon="0.93199">
        <ele>1071</ele>
        <time>2010-01-01T05:52:13Z</time>
      </trkpt>
      <trkpt lat="42.83344" lon="0.93199">
        <ele>1075</ele>
        <time>2010-01-01T05:52:16Z</time>
      </trkpt>
      <trkpt lat="42.83335" lon="0.93196">
        <ele>1079</ele>
        <time>2010-01-01T05:52:20Z</time>
      </trkpt>
      <trkpt lat="42.83329" lon="0.9319">
        <ele>1082</ele>
        <time>2010-01-01T05:52:23Z</time>
      </trkpt>
      <trkpt lat="42.83323" lon="0.9318">
        <ele>1086</ele>
        <time>2010-01-01T05:52:27Z</time>
      </trkpt>
      <trkpt lat="42.83321" lon="0.93168">
        <ele>1088</ele>
        <time>2010-01-01T05:52:30Z</time>
      </trkpt>
      <trkpt lat="42.83315" lon="0.93159">
        <ele>1091</ele>
        <time>2010-01-01T05:52:34Z</time>
      </trkpt>
      <trkpt lat="42.83311" lon="0.93151">
        <ele>1093</ele>
        <time>2010-01-01T05:52:37Z</time>
      </trkpt>
      <trkpt lat="42.83306" lon="0.93141">
        <ele>1096</ele>
        <time>2010-01-01T05:52:40Z</time>
      </trkpt>
      <trkpt lat="42.83305" lon="0.93132">
        <ele>1098</ele>
        <time>2010-01-01T05:52:43Z</time>
      </trkpt>
      <trkpt lat="42.833" lon="0.93127">
        <ele>1101</ele>
        <time>2010-01-01T05:52:46Z</time>
      </trkpt>
      <trkpt lat="42.83297" lon="0.93132">
        <ele>1103</ele>
        <time>2010-01-01T05:52:48Z</time>
      </trkpt>
      <trkpt lat="42.83289" lon="0.93132">
        <ele>1107</ele>
        <time>2010-01-01T05:52:51Z</time>
      </trkpt>
      <trkpt lat="42.83285" lon="0.93126">
        <ele>1111</ele>
        <time>2010-01-01T05:52:53Z</time>
      </trkpt>
      <trkpt lat="42.83275" lon="0.93123">
        <ele>1117</ele>
        <time>2010-01-01T05:52:57Z</time>
      </trkpt>
      <trkpt lat="42.8327" lon="0.9313">
        <ele>1119</ele>
        <time>2010-01-01T05:53:00Z</time>
      </trkpt>
      <trkpt lat="42.83264" lon="0.93126">
        <ele>1123</ele>
        <time>2010-01-01T05:53:03Z</time>
      </trkpt>
      <trkpt lat="42.83262" lon="0.93112">
        <ele>1126</ele>
        <time>2010-01-01T05:53:07Z</time>
      </trkpt>
      <trkpt lat="42.83255" lon="0.93103">
        <ele>1131</ele>
        <time>2010-01-01T05:53:11Z</time>
      </trkpt>
      <trkpt lat="42.83246" lon="0.93094">
        <ele>1137</ele>
        <time>2010-01-01T05:53:15Z</time>
      </trkpt>
      <trkpt lat="42.8324" lon="0.93086">
        <ele>1142</ele>
        <time>2010-01-01T05:53:19Z</time>
      </trkpt>
      <trkpt lat="42.83231" lon="0.93077">
        <ele>1148</ele>
        <time>2010-01-01T05:53:23Z</time>
      </trkpt>
      <trkpt lat="42.83228" lon="0.93063">
        <ele>1152</ele>
        <time>2010-01-01T05:53:27Z</time>
      </trkpt>
      <trkpt lat="42.83219" lon="0.93044">
        <ele>1159</ele>
        <time>2010-01-01T05:53:34Z</time>
      </trkpt>
      <trkpt lat="42.83218" lon="0.93031">
        <ele>1160</ele>
        <time>2010-01-01T05:53:38Z</time>
      </trkpt>
      <trkpt lat="42.83217" lon="0.93016">
        <ele>1162</ele>
        <time>2010-01-01T05:53:42Z</time>
      </trkpt>
      <trkpt lat="42.83216" lon="0.93002">
        <ele>1162</ele>
        <time>2010-01-01T05:53:47Z</time>
      </trkpt>
      <trkpt lat="42.8321" lon="0.9299">
        <ele>1168</ele>
        <time>2010-01-01T05:53:51Z</time>
      </trkpt>
      <trkpt lat="42.83202" lon="0.9298">
        <ele>1175</ele>
        <time>2010-01-01T05:53:55Z</time>
      </trkpt>
      <trkpt lat="42.83194" lon="0.9296">
        <ele>1181</ele>
        <time>2010-01-01T05:54:02Z</time>
      </trkpt>
      <trkpt lat="42.83192" lon="0.92954">
        <ele>1183</ele>
        <time>2010-01-01T05:54:04Z</time>
      </trkpt>
      <trkpt lat="42.83186" lon="0.92931">
        <ele>1189</ele>
        <time>2010-01-01T05:54:11Z</time>
      </trkpt>
      <trkpt lat="42.8318" lon="0.92921">
        <ele>1194</ele>
        <time>2010-01-01T05:54:15Z</time>
      </trkpt>
      <trkpt lat="42.83185" lon="0.9291">
        <ele>1193</ele>
        <time>2010-01-01T05:54:19Z</time>
      </trkpt>
      <trkpt lat="42.83182" lon="0.92906">
        <ele>1196</ele>
        <time>2010-01-01T05:54:20Z</time>
      </trkpt>
      <trkpt lat="42.83182" lon="0.92896">
        <ele>1198</ele>
        <time>2010-01-01T05:54:23Z</time>
      </trkpt>
      <trkpt lat="42.83178" lon="0.92902">
        <ele>1199</ele>
        <time>2010-01-01T05:54:25Z</time>
      </trkpt>
      <trkpt lat="42.83177" lon="0.92911">
        <ele>1198</ele>
        <time>2010-01-01T05:54:28Z</time>
      </trkpt>
      <trkpt lat="42.83174" lon="0.92922">
        <ele>1198</ele>
        <time>2010-01-01T05:54:31Z</time>
      </trkpt>
      <trkpt lat="42.83172" lon="0.92931">
        <ele>1198</ele>
        <time>2010-01-01T05:54:34Z</time>
      </trkpt>
      <trkpt lat="42.83166" lon="0.92926">
        <ele>1203</ele>
        <time>2010-01-01T05:54:37Z</time>
      </trkpt>
      <trkpt lat="42.83157" lon="0.92909">
        <ele>1214</ele>
        <time>2010-01-01T05:54:43Z</time>
      </trkpt>
      <trkpt lat="42.83154" lon="0.92902">
        <ele>1218</ele>
        <time>2010-01-01T05:54:45Z</time>
      </trkpt>
      <trkpt lat="42.83147" lon="0.92894">
        <ele>1225</ele>
        <time>2010-01-01T05:54:49Z</time>
      </trkpt>
      <trkpt lat="42.8314" lon="0.92886">
        <ele>1232</ele>
        <time>2010-01-01T05:54:52Z</time>
      </trkpt>
      <trkpt lat="42.83131" lon="0.92874">
        <ele>1239</ele>
        <time>2010-01-01T05:54:57Z</time>
      </trkpt>
      <trkpt lat="42.83137" lon="0.92885">
        <ele>1234</ele>
        <time>2010-01-01T05:55:01Z</time>
      </trkpt>
      <trkpt lat="42.83131" lon="0.92896">
        <ele>1239</ele>
        <time>2010-01-01T05:55:05Z</time>
      </trkpt>
      <trkpt lat="42.83124" lon="0.92905">
        <ele>1244</ele>
        <time>2010-01-01T05:55:09Z</time>
      </trkpt>
      <trkpt lat="42.8312" lon="0.92914">
        <ele>1247</ele>
        <time>2010-01-01T05:55:12Z</time>
      </trkpt>
      <trkpt lat="42.83111" lon="0.92899">
        <ele>1257</ele>
        <time>2010-01-01T05:55:18Z</time>
      </trkpt>
      <trkpt lat="42.83097" lon="0.92881">
        <ele>1268</ele>
        <time>2010-01-01T05:55:25Z</time>
      </trkpt>
      <trkpt lat="42.83109" lon="0.92884">
        <ele>1259</ele>
        <time>2010-01-01T05:55:30Z</time>
      </trkpt>
      <trkpt lat="42.8311" lon="0.9286">
        <ele>1258</ele>
        <time>2010-01-01T05:55:37Z</time>
      </trkpt>
      <trkpt lat="42.8311" lon="0.92854">
        <ele>1257</ele>
        <time>2010-01-01T05:55:39Z</time>
      </trkpt>
      <trkpt lat="42.83104" lon="0.92834">
        <ele>1263</ele>
        <time>2010-01-01T05:55:45Z</time>
      </trkpt>
      <trkpt lat="42.83106" lon="0.92826">
        <ele>1261</ele>
        <time>2010-01-01T05:55:48Z</time>
      </trkpt>
      <trkpt lat="42.83114" lon="0.92814">
        <ele>1257</ele>
        <time>2010-01-01T05:55:52Z</time>
      </trkpt>
      <trkpt lat="42.83115" lon="0.92805">
        <ele>1258</ele>
        <time>2010-01-01T05:55:55Z</time>
      </trkpt>
      <trkpt lat="42.83123" lon="0.92791">
        <ele>1258</ele>
        <time>2010-01-01T05:56:00Z</time>
      </trkpt>
      <trkpt lat="42.83119" lon="0.92783">
        <ele>1262</ele>
        <time>2010-01-01T05:56:03Z</time>
      </trkpt>
      <trkpt lat="42.83104" lon="0.92781">
        <ele>1272</ele>
        <time>2010-01-01T05:56:09Z</time>
      </trkpt>
      <trkpt lat="42.83117" lon="0.92792">
        <ele>1260</ele>
        <time>2010-01-01T05:56:15Z</time>
      </trkpt>
      <trkpt lat="42.83111" lon="0.92777">
        <ele>1267</ele>
        <time>2010-01-01T05:56:20Z</time>
      </trkpt>
      <trkpt lat="42.83112" lon="0.92768">
        <ele>1271</ele>
        <time>2010-01-01T05:56:23Z</time>
      </trkpt>
      <trkpt lat="42.8311" lon="0.92758">
        <ele>1277</ele>
        <time>2010-01-01T05:56:26Z</time>
      </trkpt>
      <trkpt lat="42.83106" lon="0.92756">
        <ele>1281</ele>
        <time>2010-01-01T05:56:28Z</time>
      </trkpt>
      <trkpt lat="42.83101" lon="0.92746">
        <ele>1288</ele>
        <time>2010-01-01T05:56:31Z</time>
      </trkpt>
      <trkpt lat="42.83104" lon="0.92737">
        <ele>1289</ele>
        <time>2010-01-01T05:56:34Z</time>
      </trkpt>
      <trkpt lat="42.83102" lon="0.92723">
        <ele>1294</ele>
        <time>2010-01-01T05:56:38Z</time>
      </trkpt>
      <trkpt lat="42.83099" lon="0.92719">
        <ele>1297</ele>
        <time>2010-01-01T05:56:40Z</time>
      </trkpt>
      <trkpt lat="42.83096" lon="0.92724">
        <ele>1297</ele>
        <time>2010-01-01T05:56:42Z</time>
      </trkpt>
      <trkpt lat="42.83096" lon="0.92719">
        <ele>1299</ele>
        <time>2010-01-01T05:56:43Z</time>
      </trkpt>
      <trkpt lat="42.83099" lon="0.92707">
        <ele>1300</ele>
        <time>2010-01-01T05:56:47Z</time>
      </trkpt>
      <trkpt lat="42.83104" lon="0.92704">
        <ele>1297</ele>
        <time>2010-01-01T05:56:49Z</time>
      </trkpt>
      <trkpt lat="42.831" lon="0.92697">
        <ele>1301</ele>
        <time>2010-01-01T05:56:52Z</time>
      </trkpt>
      <trkpt lat="42.83105" lon="0.92703">
        <ele>1297</ele>
        <time>2010-01-01T05:56:54Z</time>
      </trkpt>
      <trkpt lat="42.83105" lon="0.92704">
        <ele>1297</ele>
        <time>2010-01-01T05:56:54Z</time>
      </trkpt>
      <trkpt lat="42.83104" lon="0.92706">
        <ele>1297</ele>
        <time>2010-01-01T05:56:55Z</time>
      </trkpt>
      <trkpt lat="42.83104" lon="0.92706">
        <ele>1297</ele>
        <time>2010-01-01T05:56:55Z</time>
      </trkpt>
      <trkpt lat="42.83108" lon="0.92706">
        <ele>1294</ele>
        <time>2010-01-01T05:56:57Z</time>
      </trkpt>
      <trkpt lat="42.83104" lon="0.92707">
        <ele>1297</ele>
        <time>2010-01-01T05:56:58Z</time>
      </trkpt>
      <trkpt lat="42.83107" lon="0.92538">
        <ele>1362</ele>
        <time>2010-01-01T05:57:48Z</time>
      </trkpt>
      <trkpt lat="42.83108" lon="0.92702">
        <ele>1295</ele>
        <time>2010-01-01T05:58:36Z</time>
      </trkpt>
      <trkpt lat="42.83104" lon="0.92712">
        <ele>1296</ele>
        <time>2010-01-01T05:58:40Z</time>
      </trkpt>
      <trkpt lat="42.83105" lon="0.92704">
        <ele>1297</ele>
        <time>2010-01-01T05:58:42Z</time>
      </trkpt>
      <trkpt lat="42.83106" lon="0.92695">
        <ele>1298</ele>
        <time>2010-01-01T05:58:45Z</time>
      </trkpt>
      <trkpt lat="42.83096" lon="0.92687">
        <ele>1307</ele>
        <time>2010-01-01T05:58:50Z</time>
      </trkpt>
      <trkpt lat="42.83101" lon="0.92683">
        <ele>1305</ele>
        <time>2010-01-01T05:58:52Z</time>
      </trkpt>
      <trkpt lat="42.83102" lon="0.92672">
        <ele>1309</ele>
        <time>2010-01-01T05:58:55Z</time>
      </trkpt>
      <trkpt lat="42.831" lon="0.92665">
        <ele>1313</ele>
        <time>2010-01-01T05:58:57Z</time>
      </trkpt>
      <trkpt lat="42.83094" lon="0.92666">
        <ele>1316</ele>
        <time>2010-01-01T05:59:00Z</time>
      </trkpt>
      <trkpt lat="42.83089" lon="0.92658">
        <ele>1321</ele>
        <time>2010-01-01T05:59:03Z</time>
      </trkpt>
      <trkpt lat="42.83088" lon="0.92654">
        <ele>1323</ele>
        <time>2010-01-01T05:59:04Z</time>
      </trkpt>
      <trkpt lat="42.83092" lon="0.92649">
        <ele>1323</ele>
        <time>2010-01-01T05:59:06Z</time>
      </trkpt>
      <trkpt lat="42.83101" lon="0.92645">
        <ele>1322</ele>
        <time>2010-01-01T05:59:10Z</time>
      </trkpt>
      <trkpt lat="42.8311" lon="0.92642">
        <ele>1319</ele>
        <time>2010-01-01T05:59:14Z</time>
      </trkpt>
      <trkpt lat="42.83113" lon="0.92635">
        <ele>1322</ele>
        <time>2010-01-01T05:59:16Z</time>
      </trkpt>
      <trkpt lat="42.83115" lon="0.92622">
        <ele>1329</ele>
        <time>2010-01-01T05:59:20Z</time>
      </trkpt>
      <trkpt lat="42.83116" lon="0.92617">
        <ele>1331</ele>
        <time>2010-01-01T05:59:22Z</time>
      </trkpt>
      <trkpt lat="42.83124" lon="0.92626">
        <ele>1326</ele>
        <time>2010-01-01T05:59:26Z</time>
      </trkpt>
      <trkpt lat="42.83128" lon="0.92629">
        <ele>1323</ele>
        <time>2010-01-01T05:59:28Z</time>
      </trkpt>
      <trkpt lat="42.83129" lon="0.92634">
        <ele>1320</ele>
        <time>2010-01-01T05:59:29Z</time>
      </trkpt>
      <trkpt lat="42.83125" lon="0.92634">
        <ele>1321</ele>
        <time>2010-01-01T05:59:31Z</time>
      </trkpt>
      <trkpt lat="42.83114" lon="0.92623">
        <ele>1328</ele>
        <time>2010-01-01T05:59:36Z</time>
      </trkpt>
      <trkpt lat="42.83103" lon="0.92619">
        <ele>1334</ele>
        <time>2010-01-01T05:59:41Z</time>
      </trkpt>
      <trkpt lat="42.8309" lon="0.92603">
        <ele>1346</ele>
        <time>2010-01-01T05:59:48Z</time>
      </trkpt>
      <trkpt lat="42.83082" lon="0.92592">
        <ele>1352</ele>
        <time>2010-01-01T05:59:53Z</time>
      </trkpt>
      <trkpt lat="42.83078" lon="0.92582">
        <ele>1357</ele>
        <time>2010-01-01T05:59:56Z</time>
      </trkpt>
      <trkpt lat="42.83084" lon="0.92577">
        <ele>1355</ele>
        <time>2010-01-01T05:59:59Z</time>
      </trkpt>
      <trkpt lat="42.83083" lon="0.92571">
        <ele>1357</ele>
        <time>2010-01-01T06:00:01Z</time>
      </trkpt>
      <trkpt lat="42.8308" lon="0.92563">
        <ele>1361</ele>
        <time>2010-01-01T06:00:04Z</time>
      </trkpt>
      <trkpt lat="42.83082" lon="0.92564">
        <ele>1360</ele>
        <time>2010-01-01T06:00:04Z</time>
      </trkpt>
      <trkpt lat="42.83077" lon="0.92553">
        <ele>1365</ele>
        <time>2010-01-01T06:00:08Z</time>
      </trkpt>
      <trkpt lat="42.8308" lon="0.92546">
        <ele>1366</ele>
        <time>2010-01-01T06:00:10Z</time>
      </trkpt>
      <trkpt lat="42.83081" lon="0.92537">
        <ele>1367</ele>
        <time>2010-01-01T06:00:13Z</time>
      </trkpt>
      <trkpt lat="42.83074" lon="0.9253">
        <ele>1373</ele>
        <time>2010-01-01T06:00:17Z</time>
      </trkpt>
      <trkpt lat="42.83067" lon="0.92511">
        <ele>1382</ele>
        <time>2010-01-01T06:00:23Z</time>
      </trkpt>
      <trkpt lat="42.83067" lon="0.92511">
        <ele>1382</ele>
        <time>2010-01-01T06:00:23Z</time>
      </trkpt>
      <trkpt lat="42.8307" lon="0.92508">
        <ele>1382</ele>
        <time>2010-01-01T06:00:24Z</time>
      </trkpt>
      <trkpt lat="42.83068" lon="0.92512">
        <ele>1381</ele>
        <time>2010-01-01T06:00:26Z</time>
      </trkpt>
      <trkpt lat="42.83067" lon="0.92508">
        <ele>1383</ele>
        <time>2010-01-01T06:00:27Z</time>
      </trkpt>
      <trkpt lat="42.83066" lon="0.925">
        <ele>1386</ele>
        <time>2010-01-01T06:00:29Z</time>
      </trkpt>
      <trkpt lat="42.83069" lon="0.92493">
        <ele>1387</ele>
        <time>2010-01-01T06:00:32Z</time>
      </trkpt>
      <trkpt lat="42.83063" lon="0.9249">
        <ele>1391</ele>
        <time>2010-01-01T06:00:34Z</time>
      </trkpt>
      <trkpt lat="42.83054" lon="0.92481">
        <ele>1397</ele>
        <time>2010-01-01T06:00:39Z</time>
      </trkpt>
      <trkpt lat="42.83048" lon="0.92475">
        <ele>1402</ele>
        <time>2010-01-01T06:00:42Z</time>
      </trkpt>
      <trkpt lat="42.8305" lon="0.92466">
        <ele>1403</ele>
        <time>2010-01-01T06:00:45Z</time>
      </trkpt>
      <trkpt lat="42.83055" lon="0.92463">
        <ele>1402</ele>
        <time>2010-01-01T06:00:47Z</time>
      </trkpt>
      <trkpt lat="42.83059" lon="0.9246">
        <ele>1401</ele>
        <time>2010-01-01T06:00:49Z</time>
      </trkpt>
      <trkpt lat="42.83059" lon="0.92454">
        <ele>1403</ele>
        <time>2010-01-01T06:00:51Z</time>
      </trkpt>
      <trkpt lat="42.83065" lon="0.92457">
        <ele>1401</ele>
        <time>2010-01-01T06:00:53Z</time>
      </trkpt>
      <trkpt lat="42.83063" lon="0.92448">
        <ele>1405</ele>
        <time>2010-01-01T06:00:56Z</time>
      </trkpt>
      <trkpt lat="42.83058" lon="0.92444">
        <ele>1406</ele>
        <time>2010-01-01T06:00:59Z</time>
      </trkpt>
      <trkpt lat="42.83053" lon="0.92441">
        <ele>1409</ele>
        <time>2010-01-01T06:01:01Z</time>
      </trkpt>
      <trkpt lat="42.83063" lon="0.92439">
        <ele>1409</ele>
        <time>2010-01-01T06:01:05Z</time>
      </trkpt>
      <trkpt lat="42.83067" lon="0.9244">
        <ele>1408</ele>
        <time>2010-01-01T06:01:06Z</time>
      </trkpt>
      <trkpt lat="42.8307" lon="0.92433">
        <ele>1412</ele>
        <time>2010-01-01T06:01:09Z</time>
      </trkpt>
      <trkpt lat="42.83062" lon="0.92423">
        <ele>1416</ele>
        <time>2010-01-01T06:01:13Z</time>
      </trkpt>
      <trkpt lat="42.83067" lon="0.92421">
        <ele>1417</ele>
        <time>2010-01-01T06:01:15Z</time>
      </trkpt>
      <trkpt lat="42.83074" lon="0.9242">
        <ele>1417</ele>
        <time>2010-01-01T06:01:18Z</time>
      </trkpt>
      <trkpt lat="42.83068" lon="0.92409">
        <ele>1422</ele>
        <time>2010-01-01T06:01:22Z</time>
      </trkpt>
      <trkpt lat="42.83068" lon="0.92403">
        <ele>1425</ele>
        <time>2010-01-01T06:01:24Z</time>
      </trkpt>
      <trkpt lat="42.83065" lon="0.92403">
        <ele>1425</ele>
        <time>2010-01-01T06:01:25Z</time>
      </trkpt>
      <trkpt lat="42.83064" lon="0.92407">
        <ele>1423</ele>
        <time>2010-01-01T06:01:26Z</time>
      </trkpt>
      <trkpt lat="42.83067" lon="0.92406">
        <ele>1423</ele>
        <time>2010-01-01T06:01:27Z</time>
      </trkpt>
      <trkpt lat="42.83071" lon="0.92415">
        <ele>1420</ele>
        <time>2010-01-01T06:01:30Z</time>
      </trkpt>
      <trkpt lat="42.8307" lon="0.92418">
        <ele>1418</ele>
        <time>2010-01-01T06:01:31Z</time>
      </trkpt>
      <trkpt lat="42.83071" lon="0.92421">
        <ele>1417</ele>
        <time>2010-01-01T06:01:32Z</time>
      </trkpt>
      <trkpt lat="42.8307" lon="0.9242">
        <ele>1417</ele>
        <time>2010-01-01T06:01:33Z</time>
      </trkpt>
      <trkpt lat="42.83071" lon="0.92436">
        <ele>1410</ele>
        <time>2010-01-01T06:01:37Z</time>
      </trkpt>
      <trkpt lat="42.83073" lon="0.92425">
        <ele>1415</ele>
        <time>2010-01-01T06:01:41Z</time>
      </trkpt>
      <trkpt lat="42.83074" lon="0.92414">
        <ele>1420</ele>
        <time>2010-01-01T06:01:44Z</time>
      </trkpt>
      <trkpt lat="42.83073" lon="0.92404">
        <ele>1425</ele>
        <time>2010-01-01T06:01:47Z</time>
      </trkpt>
      <trkpt lat="42.83075" lon="0.92398">
        <ele>1427</ele>
        <time>2010-01-01T06:01:49Z</time>
      </trkpt>
      <trkpt lat="42.83084" lon="0.92397">
        <ele>1427</ele>
        <time>2010-01-01T06:01:53Z</time>
      </trkpt>
      <trkpt lat="42.83089" lon="0.92396">
        <ele>1428</ele>
        <time>2010-01-01T06:01:55Z</time>
      </trkpt>
      <trkpt lat="42.83101" lon="0.924">
        <ele>1427</ele>
        <time>2010-01-01T06:02:00Z</time>
      </trkpt>
      <trkpt lat="42.83108" lon="0.92403">
        <ele>1426</ele>
        <time>2010-01-01T06:02:03Z</time>
      </trkpt>
      <trkpt lat="42.83116" lon="0.92404">
        <ele>1425</ele>
        <time>2010-01-01T06:02:06Z</time>
      </trkpt>
      <trkpt lat="42.83116" lon="0.92408">
        <ele>1423</ele>
        <time>2010-01-01T06:02:07Z</time>
      </trkpt>
      <trkpt lat="42.83114" lon="0.92411">
        <ele>1423</ele>
        <time>2010-01-01T06:02:08Z</time>
      </trkpt>
      <trkpt lat="42.83112" lon="0.9241">
        <ele>1423</ele>
        <time>2010-01-01T06:02:09Z</time>
      </trkpt>
      <trkpt lat="42.83111" lon="0.92405">
        <ele>1425</ele>
        <time>2010-01-01T06:02:10Z</time>
      </trkpt>
      <trkpt lat="42.83111" lon="0.92406">
        <ele>1425</ele>
        <time>2010-01-01T06:02:11Z</time>
      </trkpt>
      <trkpt lat="42.83112" lon="0.92406">
        <ele>1425</ele>
        <time>2010-01-01T06:02:11Z</time>
      </trkpt>
      <trkpt lat="42.83113" lon="0.92406">
        <ele>1425</ele>
        <time>2010-01-01T06:02:11Z</time>
      </trkpt>
      <trkpt lat="42.83111" lon="0.92405">
        <ele>1426</ele>
        <time>2010-01-01T06:02:12Z</time>
      </trkpt>
      <trkpt lat="42.83114" lon="0.92403">
        <ele>1426</ele>
        <time>2010-01-01T06:02:14Z</time>
      </trkpt>
      <trkpt lat="42.83115" lon="0.92408">
        <ele>1424</ele>
        <time>2010-01-01T06:02:15Z</time>
      </trkpt>
      <trkpt lat="42.83116" lon="0.92408">
        <ele>1423</ele>
        <time>2010-01-01T06:02:16Z</time>
      </trkpt>
      <trkpt lat="42.83118" lon="0.92409">
        <ele>1422</ele>
        <time>2010-01-01T06:02:16Z</time>
      </trkpt>
      <trkpt lat="42.83119" lon="0.92405">
        <ele>1424</ele>
        <time>2010-01-01T06:02:18Z</time>
      </trkpt>
      <trkpt lat="42.83121" lon="0.92392">
        <ele>1429</ele>
        <time>2010-01-01T06:02:22Z</time>
      </trkpt>
      <trkpt lat="42.83122" lon="0.92383">
        <ele>1433</ele>
        <time>2010-01-01T06:02:24Z</time>
      </trkpt>
      <trkpt lat="42.8312" lon="0.92379">
        <ele>1436</ele>
        <time>2010-01-01T06:02:26Z</time>
      </trkpt>
      <trkpt lat="42.83123" lon="0.92372">
        <ele>1439</ele>
        <time>2010-01-01T06:02:28Z</time>
      </trkpt>
      <trkpt lat="42.83128" lon="0.92361">
        <ele>1443</ele>
        <time>2010-01-01T06:02:32Z</time>
      </trkpt>
      <trkpt lat="42.83131" lon="0.9235">
        <ele>1448</ele>
        <time>2010-01-01T06:02:35Z</time>
      </trkpt>
      <trkpt lat="42.83133" lon="0.92341">
        <ele>1453</ele>
        <time>2010-01-01T06:02:38Z</time>
      </trkpt>
      <trkpt lat="42.83132" lon="0.92337">
        <ele>1456</ele>
        <time>2010-01-01T06:02:40Z</time>
      </trkpt>
      <trkpt lat="42.83127" lon="0.92332">
        <ele>1460</ele>
        <time>2010-01-01T06:02:42Z</time>
      </trkpt>
      <trkpt lat="42.8313" lon="0.9232">
        <ele>1465</ele>
        <time>2010-01-01T06:02:46Z</time>
      </trkpt>
      <trkpt lat="42.8313" lon="0.92312">
        <ele>1469</ele>
        <time>2010-01-01T06:02:48Z</time>
      </trkpt>
      <trkpt lat="42.83125" lon="0.92317">
        <ele>1468</ele>
        <time>2010-01-01T06:02:50Z</time>
      </trkpt>
      <trkpt lat="42.83121" lon="0.92311">
        <ele>1471</ele>
        <time>2010-01-01T06:02:53Z</time>
      </trkpt>
      <trkpt lat="42.83122" lon="0.92301">
        <ele>1476</ele>
        <time>2010-01-01T06:02:55Z</time>
      </trkpt>
      <trkpt lat="42.83123" lon="0.92292">
        <ele>1478</ele>
        <time>2010-01-01T06:02:58Z</time>
      </trkpt>
      <trkpt lat="42.83126" lon="0.9228">
        <ele>1482</ele>
        <time>2010-01-01T06:03:02Z</time>
      </trkpt>
      <trkpt lat="42.83124" lon="0.92269">
        <ele>1486</ele>
        <time>2010-01-01T06:03:05Z</time>
      </trkpt>
      <trkpt lat="42.83118" lon="0.92273">
        <ele>1486</ele>
        <time>2010-01-01T06:03:08Z</time>
      </trkpt>
      <trkpt lat="42.83112" lon="0.92278">
        <ele>1485</ele>
        <time>2010-01-01T06:03:11Z</time>
      </trkpt>
      <trkpt lat="42.8311" lon="0.92273">
        <ele>1488</ele>
        <time>2010-01-01T06:03:13Z</time>
      </trkpt>
      <trkpt lat="42.83109" lon="0.92266">
        <ele>1491</ele>
        <time>2010-01-01T06:03:15Z</time>
      </trkpt>
      <trkpt lat="42.83108" lon="0.92262">
        <ele>1493</ele>
        <time>2010-01-01T06:03:16Z</time>
      </trkpt>
      <trkpt lat="42.83107" lon="0.92258">
        <ele>1494</ele>
        <time>2010-01-01T06:03:17Z</time>
      </trkpt>
      <trkpt lat="42.83106" lon="0.92255">
        <ele>1496</ele>
        <time>2010-01-01T06:03:18Z</time>
      </trkpt>
      <trkpt lat="42.83106" lon="0.92248">
        <ele>1499</ele>
        <time>2010-01-01T06:03:20Z</time>
      </trkpt>
      <trkpt lat="42.83109" lon="0.92246">
        <ele>1499</ele>
        <time>2010-01-01T06:03:22Z</time>
      </trkpt>
      <trkpt lat="42.83105" lon="0.92238">
        <ele>1501</ele>
        <time>2010-01-01T06:03:25Z</time>
      </trkpt>
      <trkpt lat="42.83103" lon="0.92236">
        <ele>1503</ele>
        <time>2010-01-01T06:03:26Z</time>
      </trkpt>
      <trkpt lat="42.83101" lon="0.92225">
        <ele>1507</ele>
        <time>2010-01-01T06:03:29Z</time>
      </trkpt>
      <trkpt lat="42.83099" lon="0.92213">
        <ele>1511</ele>
        <time>2010-01-01T06:03:33Z</time>
      </trkpt>
      <trkpt lat="42.83096" lon="0.92206">
        <ele>1513</ele>
        <time>2010-01-01T06:03:35Z</time>
      </trkpt>
      <trkpt lat="42.83096" lon="0.92192">
        <ele>1516</ele>
        <time>2010-01-01T06:03:39Z</time>
      </trkpt>
      <trkpt lat="42.83094" lon="0.92183">
        <ele>1516</ele>
        <time>2010-01-01T06:03:42Z</time>
      </trkpt>
      <trkpt lat="42.83093" lon="0.92181">
        <ele>1517</ele>
        <time>2010-01-01T06:03:43Z</time>
      </trkpt>
      <trkpt lat="42.83089" lon="0.9218">
        <ele>1519</ele>
        <time>2010-01-01T06:03:44Z</time>
      </trkpt>
      <trkpt lat="42.83088" lon="0.92177">
        <ele>1519</ele>
        <time>2010-01-01T06:03:45Z</time>
      </trkpt>
      <trkpt lat="42.8308" lon="0.92171">
        <ele>1524</ele>
        <time>2010-01-01T06:03:49Z</time>
      </trkpt>
      <trkpt lat="42.83073" lon="0.92178">
        <ele>1528</ele>
        <time>2010-01-01T06:03:53Z</time>
      </trkpt>
      <trkpt lat="42.83066" lon="0.92176">
        <ele>1532</ele>
        <time>2010-01-01T06:03:56Z</time>
      </trkpt>
      <trkpt lat="42.83062" lon="0.92169">
        <ele>1537</ele>
        <time>2010-01-01T06:03:58Z</time>
      </trkpt>
      <trkpt lat="42.83058" lon="0.92161">
        <ele>1541</ele>
        <time>2010-01-01T06:04:01Z</time>
      </trkpt>
      <trkpt lat="42.83053" lon="0.92151">
        <ele>1546</ele>
        <time>2010-01-01T06:04:05Z</time>
      </trkpt>
      <trkpt lat="42.8305" lon="0.92143">
        <ele>1549</ele>
        <time>2010-01-01T06:04:07Z</time>
      </trkpt>
      <trkpt lat="42.83044" lon="0.92143">
        <ele>1552</ele>
        <time>2010-01-01T06:04:09Z</time>
      </trkpt>
      <trkpt lat="42.8304" lon="0.92137">
        <ele>1555</ele>
        <time>2010-01-01T06:04:12Z</time>
      </trkpt>
      <trkpt lat="42.83032" lon="0.92136">
        <ele>1559</ele>
        <time>2010-01-01T06:04:15Z</time>
      </trkpt>
      <trkpt lat="42.83028" lon="0.9213">
        <ele>1561</ele>
        <time>2010-01-01T06:04:17Z</time>
      </trkpt>
      <trkpt lat="42.83024" lon="0.92121">
        <ele>1562</ele>
        <time>2010-01-01T06:04:21Z</time>
      </trkpt>
      <trkpt lat="42.83019" lon="0.92112">
        <ele>1563</ele>
        <time>2010-01-01T06:04:24Z</time>
      </trkpt>
      <trkpt lat="42.83016" lon="0.92105">
        <ele>1563</ele>
        <time>2010-01-01T06:04:26Z</time>
      </trkpt>
      <trkpt lat="42.83011" lon="0.92095">
        <ele>1562</ele>
        <time>2010-01-01T06:04:30Z</time>
      </trkpt>
      <trkpt lat="42.83005" lon="0.92093">
        <ele>1563</ele>
        <time>2010-01-01T06:04:32Z</time>
      </trkpt>
      <trkpt lat="42.83" lon="0.92092">
        <ele>1564</ele>
        <time>2010-01-01T06:04:34Z</time>
      </trkpt>
      <trkpt lat="42.83002" lon="0.92094">
        <ele>1564</ele>
        <time>2010-01-01T06:04:35Z</time>
      </trkpt>
      <trkpt lat="42.83001" lon="0.92093">
        <ele>1564</ele>
        <time>2010-01-01T06:04:36Z</time>
      </trkpt>
      <trkpt lat="42.82994" lon="0.92093">
        <ele>1564</ele>
        <time>2010-01-01T06:04:38Z</time>
      </trkpt>
      <trkpt lat="42.82991" lon="0.92088">
        <ele>1564</ele>
        <time>2010-01-01T06:04:40Z</time>
      </trkpt>
      <trkpt lat="42.82983" lon="0.92083">
        <ele>1565</ele>
        <time>2010-01-01T06:04:44Z</time>
      </trkpt>
      <trkpt lat="42.82982" lon="0.92079">
        <ele>1565</ele>
        <time>2010-01-01T06:04:45Z</time>
      </trkpt>
      <trkpt lat="42.82973" lon="0.92078">
        <ele>1565</ele>
        <time>2010-01-01T06:04:48Z</time>
      </trkpt>
      <trkpt lat="42.82968" lon="0.92072">
        <ele>1567</ele>
        <time>2010-01-01T06:04:51Z</time>
      </trkpt>
      <trkpt lat="42.82962" lon="0.92063">
        <ele>1570</ele>
        <time>2010-01-01T06:04:55Z</time>
      </trkpt>
      <trkpt lat="42.82958" lon="0.92056">
        <ele>1573</ele>
        <time>2010-01-01T06:04:57Z</time>
      </trkpt>
      <trkpt lat="42.82953" lon="0.92048">
        <ele>1581</ele>
        <time>2010-01-01T06:05:00Z</time>
      </trkpt>
      <trkpt lat="42.82951" lon="0.92043">
        <ele>1586</ele>
        <time>2010-01-01T06:05:02Z</time>
      </trkpt>
      <trkpt lat="42.82949" lon="0.92033">
        <ele>1598</ele>
        <time>2010-01-01T06:05:05Z</time>
      </trkpt>
      <trkpt lat="42.82949" lon="0.92031">
        <ele>1601</ele>
        <time>2010-01-01T06:05:06Z</time>
      </trkpt>
      <trkpt lat="42.82948" lon="0.9203">
        <ele>1603</ele>
        <time>2010-01-01T06:05:06Z</time>
      </trkpt>
      <trkpt lat="42.82943" lon="0.92022">
        <ele>1609</ele>
        <time>2010-01-01T06:05:09Z</time>
      </trkpt>
      <trkpt lat="42.82941" lon="0.92017">
        <ele>1612</ele>
        <time>2010-01-01T06:05:11Z</time>
      </trkpt>
      <trkpt lat="42.82937" lon="0.9201">
        <ele>1620</ele>
        <time>2010-01-01T06:05:13Z</time>
      </trkpt>
      <trkpt lat="42.82933" lon="0.92">
        <ele>1635</ele>
        <time>2010-01-01T06:05:17Z</time>
      </trkpt>
      <trkpt lat="42.8293" lon="0.91993">
        <ele>1648</ele>
        <time>2010-01-01T06:05:19Z</time>
      </trkpt>
      <trkpt lat="42.82925" lon="0.91987">
        <ele>1658</ele>
        <time>2010-01-01T06:05:22Z</time>
      </trkpt>
      <trkpt lat="42.82925" lon="0.91987">
        <ele>1658</ele>
        <time>2010-01-01T06:05:22Z</time>
      </trkpt>
      <trkpt lat="42.8292" lon="0.91981">
        <ele>1665</ele>
        <time>2010-01-01T06:05:25Z</time>
      </trkpt>
      <trkpt lat="42.82917" lon="0.91976">
        <ele>1667</ele>
        <time>2010-01-01T06:05:27Z</time>
      </trkpt>
      <trkpt lat="42.82914" lon="0.91971">
        <ele>1664</ele>
        <time>2010-01-01T06:05:29Z</time>
      </trkpt>
      <trkpt lat="42.82907" lon="0.91971">
        <ele>1660</ele>
        <time>2010-01-01T06:05:31Z</time>
      </trkpt>
      <trkpt lat="42.82901" lon="0.9197">
        <ele>1657</ele>
        <time>2010-01-01T06:05:34Z</time>
      </trkpt>
      <trkpt lat="42.82895" lon="0.91977">
        <ele>1650</ele>
        <time>2010-01-01T06:05:37Z</time>
      </trkpt>
      <trkpt lat="42.82889" lon="0.91983">
        <ele>1637</ele>
        <time>2010-01-01T06:05:40Z</time>
      </trkpt>
      <trkpt lat="42.8288" lon="0.91993">
        <ele>1623</ele>
        <time>2010-01-01T06:05:45Z</time>
      </trkpt>
      <trkpt lat="42.82873" lon="0.92">
        <ele>1613</ele>
        <time>2010-01-01T06:05:48Z</time>
      </trkpt>
      <trkpt lat="42.82865" lon="0.92008">
        <ele>1611</ele>
        <time>2010-01-01T06:05:52Z</time>
      </trkpt>
      <trkpt lat="42.82858" lon="0.92008">
        <ele>1611</ele>
        <time>2010-01-01T06:05:55Z</time>
      </trkpt>
      <trkpt lat="42.82859" lon="0.91995">
        <ele>1616</ele>
        <time>2010-01-01T06:05:59Z</time>
      </trkpt>
      <trkpt lat="42.8286" lon="0.9198">
        <ele>1636</ele>
        <time>2010-01-01T06:06:03Z</time>
      </trkpt>
      <trkpt lat="42.82861" lon="0.91965">
        <ele>1648</ele>
        <time>2010-01-01T06:06:07Z</time>
      </trkpt>
      <trkpt lat="42.82862" lon="0.9195">
        <ele>1651</ele>
        <time>2010-01-01T06:06:12Z</time>
      </trkpt>
      <trkpt lat="42.82862" lon="0.91935">
        <ele>1650</ele>
        <time>2010-01-01T06:06:16Z</time>
      </trkpt>
      <trkpt lat="42.82863" lon="0.9193">
        <ele>1650</ele>
        <time>2010-01-01T06:06:18Z</time>
      </trkpt>
      <trkpt lat="42.82865" lon="0.91919">
        <ele>1648</ele>
        <time>2010-01-01T06:06:21Z</time>
      </trkpt>
      <trkpt lat="42.82866" lon="0.91906">
        <ele>1647</ele>
        <time>2010-01-01T06:06:25Z</time>
      </trkpt>
      <trkpt lat="42.82866" lon="0.91893">
        <ele>1645</ele>
        <time>2010-01-01T06:06:29Z</time>
      </trkpt>
      <trkpt lat="42.82867" lon="0.91888">
        <ele>1645</ele>
        <time>2010-01-01T06:06:30Z</time>
      </trkpt>
      <trkpt lat="42.82864" lon="0.9189">
        <ele>1645</ele>
        <time>2010-01-01T06:06:32Z</time>
      </trkpt>
      <trkpt lat="42.82863" lon="0.91896">
        <ele>1646</ele>
        <time>2010-01-01T06:06:33Z</time>
      </trkpt>
      <trkpt lat="42.82861" lon="0.91887">
        <ele>1646</ele>
        <time>2010-01-01T06:06:36Z</time>
      </trkpt>
      <trkpt lat="42.8286" lon="0.91879">
        <ele>1646</ele>
        <time>2010-01-01T06:06:38Z</time>
      </trkpt>
      <trkpt lat="42.82859" lon="0.91878">
        <ele>1646</ele>
        <time>2010-01-01T06:06:39Z</time>
      </trkpt>
      <trkpt lat="42.82857" lon="0.91877">
        <ele>1646</ele>
        <time>2010-01-01T06:06:40Z</time>
      </trkpt>
      <trkpt lat="42.82857" lon="0.91876">
        <ele>1646</ele>
        <time>2010-01-01T06:06:40Z</time>
      </trkpt>
      <trkpt lat="42.82858" lon="0.9187">
        <ele>1646</ele>
        <time>2010-01-01T06:06:42Z</time>
      </trkpt>
      <trkpt lat="42.82859" lon="0.91863">
        <ele>1647</ele>
        <time>2010-01-01T06:06:44Z</time>
      </trkpt>
      <trkpt lat="42.8286" lon="0.91859">
        <ele>1647</ele>
        <time>2010-01-01T06:06:45Z</time>
      </trkpt>
      <trkpt lat="42.82859" lon="0.91858">
        <ele>1647</ele>
        <time>2010-01-01T06:06:46Z</time>
      </trkpt>
      <trkpt lat="42.82856" lon="0.91851">
        <ele>1647</ele>
        <time>2010-01-01T06:06:48Z</time>
      </trkpt>
      <trkpt lat="42.82858" lon="0.91844">
        <ele>1647</ele>
        <time>2010-01-01T06:06:50Z</time>
      </trkpt>
      <trkpt lat="42.82862" lon="0.91834">
        <ele>1648</ele>
        <time>2010-01-01T06:06:53Z</time>
      </trkpt>
      <trkpt lat="42.82866" lon="0.91822">
        <ele>1650</ele>
        <time>2010-01-01T06:06:57Z</time>
      </trkpt>
      <trkpt lat="42.82872" lon="0.91805">
        <ele>1652</ele>
        <time>2010-01-01T06:07:03Z</time>
      </trkpt>
      <trkpt lat="42.82873" lon="0.91795">
        <ele>1652</ele>
        <time>2010-01-01T06:07:06Z</time>
      </trkpt>
      <trkpt lat="42.82873" lon="0.91794">
        <ele>1652</ele>
        <time>2010-01-01T06:07:06Z</time>
      </trkpt>
      <trkpt lat="42.82876" lon="0.91784">
        <ele>1651</ele>
        <time>2010-01-01T06:07:09Z</time>
      </trkpt>
      <trkpt lat="42.82878" lon="0.91777">
        <ele>1651</ele>
        <time>2010-01-01T06:07:11Z</time>
      </trkpt>
      <trkpt lat="42.82881" lon="0.91772">
        <ele>1651</ele>
        <time>2010-01-01T06:07:13Z</time>
      </trkpt>
      <trkpt lat="42.82881" lon="0.91763">
        <ele>1652</ele>
        <time>2010-01-01T06:07:16Z</time>
      </trkpt>
      <trkpt lat="42.82884" lon="0.91763">
        <ele>1651</ele>
        <time>2010-01-01T06:07:17Z</time>
      </trkpt>
      <trkpt lat="42.82887" lon="0.91747">
        <ele>1652</ele>
        <time>2010-01-01T06:07:22Z</time>
      </trkpt>
      <trkpt lat="42.82891" lon="0.91739">
        <ele>1653</ele>
        <time>2010-01-01T06:07:25Z</time>
      </trkpt>
      <trkpt lat="42.82894" lon="0.91728">
        <ele>1656</ele>
        <time>2010-01-01T06:07:28Z</time>
      </trkpt>
      <trkpt lat="42.82896" lon="0.91713">
        <ele>1661</ele>
        <time>2010-01-01T06:07:33Z</time>
      </trkpt>
      <trkpt lat="42.82896" lon="0.91701">
        <ele>1665</ele>
        <time>2010-01-01T06:07:36Z</time>
      </trkpt>
      <trkpt lat="42.82899" lon="0.91688">
        <ele>1668</ele>
        <time>2010-01-01T06:07:40Z</time>
      </trkpt>
      <trkpt lat="42.829" lon="0.91682">
        <ele>1668</ele>
        <time>2010-01-01T06:07:42Z</time>
      </trkpt>
      <trkpt lat="42.82901" lon="0.91675">
        <ele>1668</ele>
        <time>2010-01-01T06:07:44Z</time>
      </trkpt>
      <trkpt lat="42.82902" lon="0.91666">
        <ele>1669</ele>
        <time>2010-01-01T06:07:47Z</time>
      </trkpt>
      <trkpt lat="42.82905" lon="0.91651">
        <ele>1667</ele>
        <time>2010-01-01T06:07:51Z</time>
      </trkpt>
      <trkpt lat="42.8291" lon="0.91644">
        <ele>1666</ele>
        <time>2010-01-01T06:07:54Z</time>
      </trkpt>
      <trkpt lat="42.8291" lon="0.91638">
        <ele>1666</ele>
        <time>2010-01-01T06:07:56Z</time>
      </trkpt>
      <trkpt lat="42.8291" lon="0.91638">
        <ele>1666</ele>
        <time>2010-01-01T06:07:56Z</time>
      </trkpt>
      <trkpt lat="42.82911" lon="0.91635">
        <ele>1666</ele>
        <time>2010-01-01T06:07:57Z</time>
      </trkpt>
      <trkpt lat="42.82913" lon="0.91633">
        <ele>1666</ele>
        <time>2010-01-01T06:07:58Z</time>
      </trkpt>
      <trkpt lat="42.82916" lon="0.91631">
        <ele>1665</ele>
        <time>2010-01-01T06:07:59Z</time>
      </trkpt>
      <trkpt lat="42.82917" lon="0.91631">
        <ele>1665</ele>
        <time>2010-01-01T06:07:59Z</time>
      </trkpt>
      <trkpt lat="42.82918" lon="0.91631">
        <ele>1665</ele>
        <time>2010-01-01T06:08:00Z</time>
      </trkpt>
      <trkpt lat="42.82921" lon="0.9163">
        <ele>1664</ele>
        <time>2010-01-01T06:08:01Z</time>
      </trkpt>
      <trkpt lat="42.82922" lon="0.9163">
        <ele>1663</ele>
        <time>2010-01-01T06:08:01Z</time>
      </trkpt>
      <trkpt lat="42.82924" lon="0.91628">
        <ele>1663</ele>
        <time>2010-01-01T06:08:03Z</time>
      </trkpt>
      <trkpt lat="42.82928" lon="0.91624">
        <ele>1663</ele>
        <time>2010-01-01T06:08:05Z</time>
      </trkpt>
      <trkpt lat="42.82931" lon="0.9162">
        <ele>1663</ele>
        <time>2010-01-01T06:08:06Z</time>
      </trkpt>
      <trkpt lat="42.82932" lon="0.91619">
        <ele>1663</ele>
        <time>2010-01-01T06:08:07Z</time>
      </trkpt>
      <trkpt lat="42.82934" lon="0.91616">
        <ele>1664</ele>
        <time>2010-01-01T06:08:08Z</time>
      </trkpt>
      <trkpt lat="42.82936" lon="0.91614">
        <ele>1665</ele>
        <time>2010-01-01T06:08:09Z</time>
      </trkpt>
      <trkpt lat="42.82936" lon="0.91613">
        <ele>1665</ele>
        <time>2010-01-01T06:08:09Z</time>
      </trkpt>
      <trkpt lat="42.82936" lon="0.91613">
        <ele>1665</ele>
        <time>2010-01-01T06:08:09Z</time>
      </trkpt>
      <trkpt lat="42.82935" lon="0.91613">
        <ele>1665</ele>
        <time>2010-01-01T06:08:10Z</time>
      </trkpt>
      <trkpt lat="42.82936" lon="0.91614">
        <ele>1665</ele>
        <time>2010-01-01T06:08:11Z</time>
      </trkpt>
      <trkpt lat="42.82935" lon="0.91614">
        <ele>1665</ele>
        <time>2010-01-01T06:08:11Z</time>
      </trkpt>
      <trkpt lat="42.82937" lon="0.91612">
        <ele>1665</ele>
        <time>2010-01-01T06:08:12Z</time>
      </trkpt>
      <trkpt lat="42.82942" lon="0.91601">
        <ele>1666</ele>
        <time>2010-01-01T06:08:16Z</time>
      </trkpt>
      <trkpt lat="42.82945" lon="0.91579">
        <ele>1667</ele>
        <time>2010-01-01T06:08:22Z</time>
      </trkpt>
      <trkpt lat="42.8295" lon="0.91559">
        <ele>1673</ele>
        <time>2010-01-01T06:08:29Z</time>
      </trkpt>
      <trkpt lat="42.82957" lon="0.91543">
        <ele>1678</ele>
        <time>2010-01-01T06:08:34Z</time>
      </trkpt>
      <trkpt lat="42.82962" lon="0.91525">
        <ele>1682</ele>
        <time>2010-01-01T06:08:40Z</time>
      </trkpt>
      <trkpt lat="42.8297" lon="0.91512">
        <ele>1686</ele>
        <time>2010-01-01T06:08:45Z</time>
      </trkpt>
      <trkpt lat="42.82974" lon="0.91502">
        <ele>1688</ele>
        <time>2010-01-01T06:08:48Z</time>
      </trkpt>
      <trkpt lat="42.82973" lon="0.91497">
        <ele>1689</ele>
        <time>2010-01-01T06:08:49Z</time>
      </trkpt>
      <trkpt lat="42.82971" lon="0.91494">
        <ele>1690</ele>
        <time>2010-01-01T06:08:51Z</time>
      </trkpt>
      <trkpt lat="42.82971" lon="0.91482">
        <ele>1692</ele>
        <time>2010-01-01T06:08:54Z</time>
      </trkpt>
      <trkpt lat="42.8297" lon="0.9147">
        <ele>1695</ele>
        <time>2010-01-01T06:08:58Z</time>
      </trkpt>
      <trkpt lat="42.82968" lon="0.9146">
        <ele>1698</ele>
        <time>2010-01-01T06:09:01Z</time>
      </trkpt>
      <trkpt lat="42.82967" lon="0.9145">
        <ele>1701</ele>
        <time>2010-01-01T06:09:04Z</time>
      </trkpt>
      <trkpt lat="42.82965" lon="0.91444">
        <ele>1703</ele>
        <time>2010-01-01T06:09:06Z</time>
      </trkpt>
      <trkpt lat="42.82963" lon="0.91431">
        <ele>1707</ele>
        <time>2010-01-01T06:09:10Z</time>
      </trkpt>
      <trkpt lat="42.82958" lon="0.91417">
        <ele>1712</ele>
        <time>2010-01-01T06:09:14Z</time>
      </trkpt>
      <trkpt lat="42.82958" lon="0.91413">
        <ele>1714</ele>
        <time>2010-01-01T06:09:15Z</time>
      </trkpt>
      <trkpt lat="42.82957" lon="0.91412">
        <ele>1715</ele>
        <time>2010-01-01T06:09:16Z</time>
      </trkpt>
      <trkpt lat="42.82956" lon="0.91414">
        <ele>1715</ele>
        <time>2010-01-01T06:09:17Z</time>
      </trkpt>
      <trkpt lat="42.82952" lon="0.9141">
        <ele>1717</ele>
        <time>2010-01-01T06:09:19Z</time>
      </trkpt>
      <trkpt lat="42.82948" lon="0.91404">
        <ele>1720</ele>
        <time>2010-01-01T06:09:21Z</time>
      </trkpt>
      <trkpt lat="42.82938" lon="0.91399">
        <ele>1723</ele>
        <time>2010-01-01T06:09:25Z</time>
      </trkpt>
      <trkpt lat="42.82931" lon="0.91397">
        <ele>1725</ele>
        <time>2010-01-01T06:09:28Z</time>
      </trkpt>
      <trkpt lat="42.82927" lon="0.91396">
        <ele>1726</ele>
        <time>2010-01-01T06:09:30Z</time>
      </trkpt>
      <trkpt lat="42.8292" lon="0.91391">
        <ele>1728</ele>
        <time>2010-01-01T06:09:33Z</time>
      </trkpt>
      <trkpt lat="42.82913" lon="0.91387">
        <ele>1726</ele>
        <time>2010-01-01T06:09:36Z</time>
      </trkpt>
      <trkpt lat="42.82914" lon="0.91382">
        <ele>1728</ele>
        <time>2010-01-01T06:09:37Z</time>
      </trkpt>
      <trkpt lat="42.82916" lon="0.91379">
        <ele>1731</ele>
        <time>2010-01-01T06:09:39Z</time>
      </trkpt>
      <trkpt lat="42.82913" lon="0.91379">
        <ele>1727</ele>
        <time>2010-01-01T06:09:40Z</time>
      </trkpt>
      <trkpt lat="42.82913" lon="0.9138">
        <ele>1727</ele>
        <time>2010-01-01T06:09:40Z</time>
      </trkpt>
      <trkpt lat="42.82913" lon="0.9138">
        <ele>1727</ele>
        <time>2010-01-01T06:09:40Z</time>
      </trkpt>
      <trkpt lat="42.82914" lon="0.91373">
        <ele>1729</ele>
        <time>2010-01-01T06:09:43Z</time>
      </trkpt>
      <trkpt lat="42.82911" lon="0.91371">
        <ele>1727</ele>
        <time>2010-01-01T06:09:44Z</time>
      </trkpt>
      <trkpt lat="42.82914" lon="0.91373">
        <ele>1730</ele>
        <time>2010-01-01T06:09:45Z</time>
      </trkpt>
      <trkpt lat="42.82912" lon="0.91369">
        <ele>1728</ele>
        <time>2010-01-01T06:09:47Z</time>
      </trkpt>
      <trkpt lat="42.82915" lon="0.91364">
        <ele>1732</ele>
        <time>2010-01-01T06:09:49Z</time>
      </trkpt>
      <trkpt lat="42.82919" lon="0.91362">
        <ele>1736</ele>
        <time>2010-01-01T06:09:50Z</time>
      </trkpt>
      <trkpt lat="42.82922" lon="0.91357">
        <ele>1739</ele>
        <time>2010-01-01T06:09:52Z</time>
      </trkpt>
      <trkpt lat="42.82919" lon="0.91352">
        <ele>1736</ele>
        <time>2010-01-01T06:09:54Z</time>
      </trkpt>
      <trkpt lat="42.82922" lon="0.9135">
        <ele>1738</ele>
        <time>2010-01-01T06:09:55Z</time>
      </trkpt>
      <trkpt lat="42.82924" lon="0.91345">
        <ele>1739</ele>
        <time>2010-01-01T06:09:57Z</time>
      </trkpt>
      <trkpt lat="42.82926" lon="0.91343">
        <ele>1741</ele>
        <time>2010-01-01T06:09:58Z</time>
      </trkpt>
      <trkpt lat="42.82927" lon="0.91338">
        <ele>1741</ele>
        <time>2010-01-01T06:09:59Z</time>
      </trkpt>
      <trkpt lat="42.8293" lon="0.91332">
        <ele>1745</ele>
        <time>2010-01-01T06:10:02Z</time>
      </trkpt>
      <trkpt lat="42.82933" lon="0.91328">
        <ele>1749</ele>
        <time>2010-01-01T06:10:03Z</time>
      </trkpt>
      <trkpt lat="42.82931" lon="0.91326">
        <ele>1747</ele>
        <time>2010-01-01T06:10:05Z</time>
      </trkpt>
      <trkpt lat="42.82931" lon="0.91329">
        <ele>1746</ele>
        <time>2010-01-01T06:10:06Z</time>
      </trkpt>
      <trkpt lat="42.82929" lon="0.91324">
        <ele>1746</ele>
        <time>2010-01-01T06:10:07Z</time>
      </trkpt>
      <trkpt lat="42.8293" lon="0.91321">
        <ele>1748</ele>
        <time>2010-01-01T06:10:08Z</time>
      </trkpt>
      <trkpt lat="42.82929" lon="0.91319">
        <ele>1748</ele>
        <time>2010-01-01T06:10:09Z</time>
      </trkpt>
      <trkpt lat="42.82929" lon="0.91318">
        <ele>1749</ele>
        <time>2010-01-01T06:10:10Z</time>
      </trkpt>
      <trkpt lat="42.8293" lon="0.91318">
        <ele>1749</ele>
        <time>2010-01-01T06:10:10Z</time>
      </trkpt>
      <trkpt lat="42.82927" lon="0.91314">
        <ele>1749</ele>
        <time>2010-01-01T06:10:12Z</time>
      </trkpt>
      <trkpt lat="42.82924" lon="0.91309">
        <ele>1750</ele>
        <time>2010-01-01T06:10:14Z</time>
      </trkpt>
      <trkpt lat="42.82921" lon="0.91305">
        <ele>1750</ele>
        <time>2010-01-01T06:10:15Z</time>
      </trkpt>
      <trkpt lat="42.82919" lon="0.91303">
        <ele>1750</ele>
        <time>2010-01-01T06:10:16Z</time>
      </trkpt>
      <trkpt lat="42.82917" lon="0.913">
        <ele>1750</ele>
        <time>2010-01-01T06:10:18Z</time>
      </trkpt>
      <trkpt lat="42.82914" lon="0.91295">
        <ele>1751</ele>
        <time>2010-01-01T06:10:20Z</time>
      </trkpt>
      <trkpt lat="42.82917" lon="0.91295">
        <ele>1751</ele>
        <time>2010-01-01T06:10:21Z</time>
      </trkpt>
      <trkpt lat="42.82915" lon="0.91293">
        <ele>1751</ele>
        <time>2010-01-01T06:10:22Z</time>
      </trkpt>
      <trkpt lat="42.82914" lon="0.91283">
        <ele>1753</ele>
        <time>2010-01-01T06:10:25Z</time>
      </trkpt>
      <trkpt lat="42.82912" lon="0.91279">
        <ele>1754</ele>
        <time>2010-01-01T06:10:26Z</time>
      </trkpt>
      <trkpt lat="42.82911" lon="0.91267">
        <ele>1757</ele>
        <time>2010-01-01T06:10:30Z</time>
      </trkpt>
      <trkpt lat="42.82911" lon="0.91262">
        <ele>1758</ele>
        <time>2010-01-01T06:10:31Z</time>
      </trkpt>
      <trkpt lat="42.82911" lon="0.91253">
        <ele>1759</ele>
        <time>2010-01-01T06:10:34Z</time>
      </trkpt>
      <trkpt lat="42.82917" lon="0.91242">
        <ele>1767</ele>
        <time>2010-01-01T06:10:38Z</time>
      </trkpt>
      <trkpt lat="42.8292" lon="0.91246">
        <ele>1768</ele>
        <time>2010-01-01T06:10:40Z</time>
      </trkpt>
      <trkpt lat="42.82925" lon="0.91255">
        <ele>1768</ele>
        <time>2010-01-01T06:10:43Z</time>
      </trkpt>
      <trkpt lat="42.82926" lon="0.91257">
        <ele>1768</ele>
        <time>2010-01-01T06:10:44Z</time>
      </trkpt>
      <trkpt lat="42.82929" lon="0.91263">
        <ele>1769</ele>
        <time>2010-01-01T06:10:46Z</time>
      </trkpt>
      <trkpt lat="42.8294" lon="0.91268">
        <ele>1774</ele>
        <time>2010-01-01T06:10:50Z</time>
      </trkpt>
      <trkpt lat="42.82946" lon="0.91263">
        <ele>1779</ele>
        <time>2010-01-01T06:10:53Z</time>
      </trkpt>
      <trkpt lat="42.82943" lon="0.91256">
        <ele>1781</ele>
        <time>2010-01-01T06:10:55Z</time>
      </trkpt>
      <trkpt lat="42.82943" lon="0.91257">
        <ele>1781</ele>
        <time>2010-01-01T06:10:56Z</time>
      </trkpt>
      <trkpt lat="42.82944" lon="0.91257">
        <ele>1781</ele>
        <time>2010-01-01T06:10:56Z</time>
      </trkpt>
      <trkpt lat="42.82947" lon="0.91254">
        <ele>1783</ele>
        <time>2010-01-01T06:10:57Z</time>
      </trkpt>
      <trkpt lat="42.82951" lon="0.9125">
        <ele>1785</ele>
        <time>2010-01-01T06:10:59Z</time>
      </trkpt>
      <trkpt lat="42.82948" lon="0.9125">
        <ele>1785</ele>
        <time>2010-01-01T06:11:01Z</time>
      </trkpt>
      <trkpt lat="42.82951" lon="0.91247">
        <ele>1786</ele>
        <time>2010-01-01T06:11:02Z</time>
      </trkpt>
      <trkpt lat="42.82955" lon="0.9124">
        <ele>1789</ele>
        <time>2010-01-01T06:11:05Z</time>
      </trkpt>
      <trkpt lat="42.82957" lon="0.91234">
        <ele>1791</ele>
        <time>2010-01-01T06:11:07Z</time>
      </trkpt>
      <trkpt lat="42.82964" lon="0.91223">
        <ele>1795</ele>
        <time>2010-01-01T06:11:11Z</time>
      </trkpt>
      <trkpt lat="42.82966" lon="0.91217">
        <ele>1797</ele>
        <time>2010-01-01T06:11:13Z</time>
      </trkpt>
      <trkpt lat="42.82966" lon="0.91211">
        <ele>1799</ele>
        <time>2010-01-01T06:11:15Z</time>
      </trkpt>
      <trkpt lat="42.8297" lon="0.91206">
        <ele>1800</ele>
        <time>2010-01-01T06:11:17Z</time>
      </trkpt>
      <trkpt lat="42.82975" lon="0.912">
        <ele>1802</ele>
        <time>2010-01-01T06:11:20Z</time>
      </trkpt>
      <trkpt lat="42.82976" lon="0.91191">
        <ele>1806</ele>
        <time>2010-01-01T06:11:22Z</time>
      </trkpt>
      <trkpt lat="42.82971" lon="0.91192">
        <ele>1805</ele>
        <time>2010-01-01T06:11:24Z</time>
      </trkpt>
      <trkpt lat="42.82972" lon="0.91192">
        <ele>1805</ele>
        <time>2010-01-01T06:11:24Z</time>
      </trkpt>
      <trkpt lat="42.82972" lon="0.91192">
        <ele>1805</ele>
        <time>2010-01-01T06:11:25Z</time>
      </trkpt>
      <trkpt lat="42.82972" lon="0.9119">
        <ele>1806</ele>
        <time>2010-01-01T06:11:25Z</time>
      </trkpt>
      <trkpt lat="42.82971" lon="0.91191">
        <ele>1805</ele>
        <time>2010-01-01T06:11:26Z</time>
      </trkpt>
      <trkpt lat="42.82967" lon="0.91187">
        <ele>1807</ele>
        <time>2010-01-01T06:11:28Z</time>
      </trkpt>
      <trkpt lat="42.82966" lon="0.91181">
        <ele>1809</ele>
        <time>2010-01-01T06:11:29Z</time>
      </trkpt>
      <trkpt lat="42.82967" lon="0.91175">
        <ele>1812</ele>
        <time>2010-01-01T06:11:31Z</time>
      </trkpt>
      <trkpt lat="42.82971" lon="0.91169">
        <ele>1815</ele>
        <time>2010-01-01T06:11:34Z</time>
      </trkpt>
      <trkpt lat="42.82973" lon="0.91166">
        <ele>1817</ele>
        <time>2010-01-01T06:11:35Z</time>
      </trkpt>
      <trkpt lat="42.82971" lon="0.91165">
        <ele>1817</ele>
        <time>2010-01-01T06:11:36Z</time>
      </trkpt>
      <trkpt lat="42.82971" lon="0.91164">
        <ele>1817</ele>
        <time>2010-01-01T06:11:36Z</time>
      </trkpt>
      <trkpt lat="42.82977" lon="0.91156">
        <ele>1820</ele>
        <time>2010-01-01T06:11:40Z</time>
      </trkpt>
      <trkpt lat="42.8298" lon="0.91148">
        <ele>1823</ele>
        <time>2010-01-01T06:11:43Z</time>
      </trkpt>
      <trkpt lat="42.82982" lon="0.9114">
        <ele>1825</ele>
        <time>2010-01-01T06:11:45Z</time>
      </trkpt>
      <trkpt lat="42.82985" lon="0.91131">
        <ele>1828</ele>
        <time>2010-01-01T06:11:48Z</time>
      </trkpt>
      <trkpt lat="42.82987" lon="0.91119">
        <ele>1831</ele>
        <time>2010-01-01T06:11:51Z</time>
      </trkpt>
      <trkpt lat="42.8299" lon="0.91108">
        <ele>1834</ele>
        <time>2010-01-01T06:11:55Z</time>
      </trkpt>
      <trkpt lat="42.82995" lon="0.91096">
        <ele>1836</ele>
        <time>2010-01-01T06:11:59Z</time>
      </trkpt>
      <trkpt lat="42.82999" lon="0.91087">
        <ele>1839</ele>
        <time>2010-01-01T06:12:02Z</time>
      </trkpt>
      <trkpt lat="42.83005" lon="0.91074">
        <ele>1842</ele>
        <time>2010-01-01T06:12:07Z</time>
      </trkpt>
      <trkpt lat="42.83008" lon="0.91068">
        <ele>1845</ele>
        <time>2010-01-01T06:12:09Z</time>
      </trkpt>
      <trkpt lat="42.83008" lon="0.91066">
        <ele>1845</ele>
        <time>2010-01-01T06:12:09Z</time>
      </trkpt>
      <trkpt lat="42.83008" lon="0.91065">
        <ele>1845</ele>
        <time>2010-01-01T06:12:10Z</time>
      </trkpt>
      <trkpt lat="42.83017" lon="0.91057">
        <ele>1851</ele>
        <time>2010-01-01T06:12:14Z</time>
      </trkpt>
      <trkpt lat="42.83016" lon="0.91054">
        <ele>1851</ele>
        <time>2010-01-01T06:12:15Z</time>
      </trkpt>
      <trkpt lat="42.83016" lon="0.91036">
        <ele>1857</ele>
        <time>2010-01-01T06:12:20Z</time>
      </trkpt>
      <trkpt lat="42.83015" lon="0.91019">
        <ele>1861</ele>
        <time>2010-01-01T06:12:25Z</time>
      </trkpt>
      <trkpt lat="42.83015" lon="0.9101">
        <ele>1863</ele>
        <time>2010-01-01T06:12:28Z</time>
      </trkpt>
      <trkpt lat="42.83014" lon="0.91001">
        <ele>1866</ele>
        <time>2010-01-01T06:12:31Z</time>
      </trkpt>
      <trkpt lat="42.83012" lon="0.90987">
        <ele>1868</ele>
        <time>2010-01-01T06:12:35Z</time>
      </trkpt>
      <trkpt lat="42.83007" lon="0.90975">
        <ele>1866</ele>
        <time>2010-01-01T06:12:39Z</time>
      </trkpt>
      <trkpt lat="42.83007" lon="0.90977">
        <ele>1865</ele>
        <time>2010-01-01T06:12:40Z</time>
      </trkpt>
      <trkpt lat="42.83006" lon="0.90979">
        <ele>1863</ele>
        <time>2010-01-01T06:12:40Z</time>
      </trkpt>
      <trkpt lat="42.83007" lon="0.90977">
        <ele>1865</ele>
        <time>2010-01-01T06:12:41Z</time>
      </trkpt>
      <trkpt lat="42.83008" lon="0.90975">
        <ele>1866</ele>
        <time>2010-01-01T06:12:41Z</time>
      </trkpt>
      <trkpt lat="42.83008" lon="0.90977">
        <ele>1865</ele>
        <time>2010-01-01T06:12:42Z</time>
      </trkpt>
      <trkpt lat="42.83008" lon="0.90975">
        <ele>1866</ele>
        <time>2010-01-01T06:12:43Z</time>
      </trkpt>
      <trkpt lat="42.83008" lon="0.90977">
        <ele>1866</ele>
        <time>2010-01-01T06:12:43Z</time>
      </trkpt>
      <trkpt lat="42.83008" lon="0.90975">
        <ele>1866</ele>
        <time>2010-01-01T06:12:44Z</time>
      </trkpt>
      <trkpt lat="42.83007" lon="0.90976">
        <ele>1865</ele>
        <time>2010-01-01T06:12:44Z</time>
      </trkpt>
      <trkpt lat="42.83006" lon="0.90978">
        <ele>1864</ele>
        <time>2010-01-01T06:12:45Z</time>
      </trkpt>
      <trkpt lat="42.83005" lon="0.9097">
        <ele>1864</ele>
        <time>2010-01-01T06:12:47Z</time>
      </trkpt>
      <trkpt lat="42.83003" lon="0.90954">
        <ele>1865</ele>
        <time>2010-01-01T06:12:52Z</time>
      </trkpt>
      <trkpt lat="42.82998" lon="0.90927">
        <ele>1862</ele>
        <time>2010-01-01T06:13:00Z</time>
      </trkpt>
      <trkpt lat="42.82997" lon="0.90919">
        <ele>1862</ele>
        <time>2010-01-01T06:13:02Z</time>
      </trkpt>
      <trkpt lat="42.82993" lon="0.90912">
        <ele>1860</ele>
        <time>2010-01-01T06:13:05Z</time>
      </trkpt>
      <trkpt lat="42.8299" lon="0.90885">
        <ele>1857</ele>
        <time>2010-01-01T06:13:13Z</time>
      </trkpt>
      <trkpt lat="42.82989" lon="0.90863">
        <ele>1854</ele>
        <time>2010-01-01T06:13:19Z</time>
      </trkpt>
      <trkpt lat="42.8299" lon="0.9084">
        <ele>1857</ele>
        <time>2010-01-01T06:13:26Z</time>
      </trkpt>
      <trkpt lat="42.82991" lon="0.90828">
        <ele>1859</ele>
        <time>2010-01-01T06:13:30Z</time>
      </trkpt>
      <trkpt lat="42.82994" lon="0.90803">
        <ele>1865</ele>
        <time>2010-01-01T06:13:37Z</time>
      </trkpt>
      <trkpt lat="42.82995" lon="0.90793">
        <ele>1866</ele>
        <time>2010-01-01T06:13:40Z</time>
      </trkpt>
      <trkpt lat="42.82996" lon="0.90782">
        <ele>1867</ele>
        <time>2010-01-01T06:13:43Z</time>
      </trkpt>
      <trkpt lat="42.82995" lon="0.90769">
        <ele>1865</ele>
        <time>2010-01-01T06:13:47Z</time>
      </trkpt>
      <trkpt lat="42.82992" lon="0.90756">
        <ele>1862</ele>
        <time>2010-01-01T06:13:51Z</time>
      </trkpt>
      <trkpt lat="42.82991" lon="0.90754">
        <ele>1862</ele>
        <time>2010-01-01T06:13:52Z</time>
      </trkpt>
      <trkpt lat="42.8299" lon="0.90749">
        <ele>1861</ele>
        <time>2010-01-01T06:13:54Z</time>
      </trkpt>
      <trkpt lat="42.82986" lon="0.90737">
        <ele>1858</ele>
        <time>2010-01-01T06:13:57Z</time>
      </trkpt>
      <trkpt lat="42.82984" lon="0.90715">
        <ele>1860</ele>
        <time>2010-01-01T06:14:04Z</time>
      </trkpt>
      <trkpt lat="42.82983" lon="0.9071">
        <ele>1861</ele>
        <time>2010-01-01T06:14:05Z</time>
      </trkpt>
      <trkpt lat="42.82971" lon="0.90697">
        <ele>1855</ele>
        <time>2010-01-01T06:14:12Z</time>
      </trkpt>
      <trkpt lat="42.82955" lon="0.90677">
        <ele>1853</ele>
        <time>2010-01-01T06:14:20Z</time>
      </trkpt>
      <trkpt lat="42.8295" lon="0.90664">
        <ele>1855</ele>
        <time>2010-01-01T06:14:25Z</time>
      </trkpt>
      <trkpt lat="42.8295" lon="0.90659">
        <ele>1856</ele>
        <time>2010-01-01T06:14:26Z</time>
      </trkpt>
      <trkpt lat="42.8295" lon="0.90655">
        <ele>1857</ele>
        <time>2010-01-01T06:14:27Z</time>
      </trkpt>
      <trkpt lat="42.82951" lon="0.90651">
        <ele>1859</ele>
        <time>2010-01-01T06:14:28Z</time>
      </trkpt>
      <trkpt lat="42.82954" lon="0.90623">
        <ele>1868</ele>
        <time>2010-01-01T06:14:37Z</time>
      </trkpt>
      <trkpt lat="42.82953" lon="0.90616">
        <ele>1871</ele>
        <time>2010-01-01T06:14:39Z</time>
      </trkpt>
      <trkpt lat="42.82951" lon="0.90596">
        <ele>1878</ele>
        <time>2010-01-01T06:14:45Z</time>
      </trkpt>
      <trkpt lat="42.82952" lon="0.90595">
        <ele>1879</ele>
        <time>2010-01-01T06:14:45Z</time>
      </trkpt>
      <trkpt lat="42.82952" lon="0.90589">
        <ele>1881</ele>
        <time>2010-01-01T06:14:47Z</time>
      </trkpt>
      <trkpt lat="42.8295" lon="0.90581">
        <ele>1884</ele>
        <time>2010-01-01T06:14:49Z</time>
      </trkpt>
      <trkpt lat="42.82946" lon="0.90561">
        <ele>1889</ele>
        <time>2010-01-01T06:14:55Z</time>
      </trkpt>
      <trkpt lat="42.82946" lon="0.90559">
        <ele>1889</ele>
        <time>2010-01-01T06:14:56Z</time>
      </trkpt>
      <trkpt lat="42.8294" lon="0.90545">
        <ele>1890</ele>
        <time>2010-01-01T06:15:01Z</time>
      </trkpt>
      <trkpt lat="42.82938" lon="0.90532">
        <ele>1892</ele>
        <time>2010-01-01T06:15:04Z</time>
      </trkpt>
      <trkpt lat="42.82936" lon="0.90526">
        <ele>1892</ele>
        <time>2010-01-01T06:15:06Z</time>
      </trkpt>
      <trkpt lat="42.8293" lon="0.90513">
        <ele>1888</ele>
        <time>2010-01-01T06:15:11Z</time>
      </trkpt>
      <trkpt lat="42.82924" lon="0.90493">
        <ele>1890</ele>
        <time>2010-01-01T06:15:17Z</time>
      </trkpt>
      <trkpt lat="42.82922" lon="0.90476">
        <ele>1893</ele>
        <time>2010-01-01T06:15:22Z</time>
      </trkpt>
      <trkpt lat="42.82913" lon="0.90466">
        <ele>1891</ele>
        <time>2010-01-01T06:15:27Z</time>
      </trkpt>
      <trkpt lat="42.82909" lon="0.90464">
        <ele>1888</ele>
        <time>2010-01-01T06:15:29Z</time>
      </trkpt>
      <trkpt lat="42.82902" lon="0.90456">
        <ele>1884</ele>
        <time>2010-01-01T06:15:33Z</time>
      </trkpt>
      <trkpt lat="42.82893" lon="0.90449">
        <ele>1881</ele>
        <time>2010-01-01T06:15:37Z</time>
      </trkpt>
      <trkpt lat="42.82888" lon="0.90447">
        <ele>1879</ele>
        <time>2010-01-01T06:15:39Z</time>
      </trkpt>
      <trkpt lat="42.82866" lon="0.90438">
        <ele>1875</ele>
        <time>2010-01-01T06:15:48Z</time>
      </trkpt>
      <trkpt lat="42.82861" lon="0.90432">
        <ele>1877</ele>
        <time>2010-01-01T06:15:51Z</time>
      </trkpt>
      <trkpt lat="42.82857" lon="0.90427">
        <ele>1878</ele>
        <time>2010-01-01T06:15:53Z</time>
      </trkpt>
      <trkpt lat="42.82842" lon="0.90409">
        <ele>1883</ele>
        <time>2010-01-01T06:16:01Z</time>
      </trkpt>
      <trkpt lat="42.82839" lon="0.90405">
        <ele>1885</ele>
        <time>2010-01-01T06:16:03Z</time>
      </trkpt>
      <trkpt lat="42.8283" lon="0.90386">
        <ele>1891</ele>
        <time>2010-01-01T06:16:09Z</time>
      </trkpt>
      <trkpt lat="42.82829" lon="0.90375">
        <ele>1896</ele>
        <time>2010-01-01T06:16:12Z</time>
      </trkpt>
      <trkpt lat="42.8282" lon="0.90369">
        <ele>1891</ele>
        <time>2010-01-01T06:16:16Z</time>
      </trkpt>
      <trkpt lat="42.8281" lon="0.90355">
        <ele>1886</ele>
        <time>2010-01-01T06:16:22Z</time>
      </trkpt>
      <trkpt lat="42.82806" lon="0.90354">
        <ele>1883</ele>
        <time>2010-01-01T06:16:24Z</time>
      </trkpt>
      <trkpt lat="42.82794" lon="0.90347">
        <ele>1880</ele>
        <time>2010-01-01T06:16:29Z</time>
      </trkpt>
      <trkpt lat="42.82785" lon="0.90343">
        <ele>1876</ele>
        <time>2010-01-01T06:16:33Z</time>
      </trkpt>
      <trkpt lat="42.82783" lon="0.90344">
        <ele>1875</ele>
        <time>2010-01-01T06:16:34Z</time>
      </trkpt>
      <trkpt lat="42.8278" lon="0.90347">
        <ele>1873</ele>
        <time>2010-01-01T06:16:35Z</time>
      </trkpt>
      <trkpt lat="42.8278" lon="0.90347">
        <ele>1872</ele>
        <time>2010-01-01T06:16:35Z</time>
      </trkpt>
      <trkpt lat="42.82783" lon="0.90346">
        <ele>1875</ele>
        <time>2010-01-01T06:16:37Z</time>
      </trkpt>
      <trkpt lat="42.82783" lon="0.90356">
        <ele>1873</ele>
        <time>2010-01-01T06:16:40Z</time>
      </trkpt>
      <trkpt lat="42.82768" lon="0.9038">
        <ele>1866</ele>
        <time>2010-01-01T06:16:49Z</time>
      </trkpt>
      <trkpt lat="42.82764" lon="0.90385">
        <ele>1865</ele>
        <time>2010-01-01T06:16:51Z</time>
      </trkpt>
      <trkpt lat="42.82755" lon="0.90385">
        <ele>1867</ele>
        <time>2010-01-01T06:16:55Z</time>
      </trkpt>
      <trkpt lat="42.82734" lon="0.90375">
        <ele>1872</ele>
        <time>2010-01-01T06:17:04Z</time>
      </trkpt>
      <trkpt lat="42.82715" lon="0.90371">
        <ele>1872</ele>
        <time>2010-01-01T06:17:11Z</time>
      </trkpt>
      <trkpt lat="42.82703" lon="0.90368">
        <ele>1870</ele>
        <time>2010-01-01T06:17:16Z</time>
      </trkpt>
      <trkpt lat="42.82693" lon="0.90359">
        <ele>1869</ele>
        <time>2010-01-01T06:17:21Z</time>
      </trkpt>
      <trkpt lat="42.82688" lon="0.9035">
        <ele>1871</ele>
        <time>2010-01-01T06:17:24Z</time>
      </trkpt>
      <trkpt lat="42.82681" lon="0.90342">
        <ele>1873</ele>
        <time>2010-01-01T06:17:28Z</time>
      </trkpt>
      <trkpt lat="42.82674" lon="0.90328">
        <ele>1876</ele>
        <time>2010-01-01T06:17:33Z</time>
      </trkpt>
      <trkpt lat="42.82673" lon="0.90317">
        <ele>1878</ele>
        <time>2010-01-01T06:17:36Z</time>
      </trkpt>
      <trkpt lat="42.82672" lon="0.90315">
        <ele>1878</ele>
        <time>2010-01-01T06:17:37Z</time>
      </trkpt>
      <trkpt lat="42.82668" lon="0.90307">
        <ele>1880</ele>
        <time>2010-01-01T06:17:40Z</time>
      </trkpt>
      <trkpt lat="42.82664" lon="0.903">
        <ele>1880</ele>
        <time>2010-01-01T06:17:42Z</time>
      </trkpt>
      <trkpt lat="42.82663" lon="0.90294">
        <ele>1880</ele>
        <time>2010-01-01T06:17:44Z</time>
      </trkpt>
      <trkpt lat="42.8266" lon="0.90284">
        <ele>1879</ele>
        <time>2010-01-01T06:17:47Z</time>
      </trkpt>
      <trkpt lat="42.82662" lon="0.90278">
        <ele>1879</ele>
        <time>2010-01-01T06:17:49Z</time>
      </trkpt>
      <trkpt lat="42.82666" lon="0.90268">
        <ele>1880</ele>
        <time>2010-01-01T06:17:52Z</time>
      </trkpt>
      <trkpt lat="42.82667" lon="0.90256">
        <ele>1880</ele>
        <time>2010-01-01T06:17:56Z</time>
      </trkpt>
      <trkpt lat="42.82668" lon="0.90252">
        <ele>1880</ele>
        <time>2010-01-01T06:17:57Z</time>
      </trkpt>
      <trkpt lat="42.82668" lon="0.90245">
        <ele>1880</ele>
        <time>2010-01-01T06:17:59Z</time>
      </trkpt>
      <trkpt lat="42.8267" lon="0.90234">
        <ele>1881</ele>
        <time>2010-01-01T06:18:03Z</time>
      </trkpt>
      <trkpt lat="42.82669" lon="0.90221">
        <ele>1881</ele>
        <time>2010-01-01T06:18:07Z</time>
      </trkpt>
      <trkpt lat="42.82669" lon="0.90225">
        <ele>1881</ele>
        <time>2010-01-01T06:18:08Z</time>
      </trkpt>
      <trkpt lat="42.8267" lon="0.90213">
        <ele>1882</ele>
        <time>2010-01-01T06:18:11Z</time>
      </trkpt>
      <trkpt lat="42.8267" lon="0.90205">
        <ele>1883</ele>
        <time>2010-01-01T06:18:14Z</time>
      </trkpt>
      <trkpt lat="42.82672" lon="0.90186">
        <ele>1886</ele>
        <time>2010-01-01T06:18:19Z</time>
      </trkpt>
      <trkpt lat="42.82672" lon="0.90184">
        <ele>1886</ele>
        <time>2010-01-01T06:18:20Z</time>
      </trkpt>
      <trkpt lat="42.82671" lon="0.9017">
        <ele>1887</ele>
        <time>2010-01-01T06:18:24Z</time>
      </trkpt>
      <trkpt lat="42.8267" lon="0.90159">
        <ele>1888</ele>
        <time>2010-01-01T06:18:27Z</time>
      </trkpt>
      <trkpt lat="42.82669" lon="0.90151">
        <ele>1888</ele>
        <time>2010-01-01T06:18:30Z</time>
      </trkpt>
      <trkpt lat="42.82671" lon="0.90133">
        <ele>1894</ele>
        <time>2010-01-01T06:18:35Z</time>
      </trkpt>
      <trkpt lat="42.82673" lon="0.90118">
        <ele>1900</ele>
        <time>2010-01-01T06:18:39Z</time>
      </trkpt>
      <trkpt lat="42.82674" lon="0.90112">
        <ele>1902</ele>
        <time>2010-01-01T06:18:41Z</time>
      </trkpt>
      <trkpt lat="42.82674" lon="0.90107">
        <ele>1903</ele>
        <time>2010-01-01T06:18:43Z</time>
      </trkpt>
      <trkpt lat="42.82675" lon="0.90103">
        <ele>1905</ele>
        <time>2010-01-01T06:18:44Z</time>
      </trkpt>
      <trkpt lat="42.82676" lon="0.9009">
        <ele>1909</ele>
        <time>2010-01-01T06:18:48Z</time>
      </trkpt>
      <trkpt lat="42.82674" lon="0.90083">
        <ele>1910</ele>
        <time>2010-01-01T06:18:50Z</time>
      </trkpt>
      <trkpt lat="42.82673" lon="0.9008">
        <ele>1910</ele>
        <time>2010-01-01T06:18:51Z</time>
      </trkpt>
      <trkpt lat="42.82673" lon="0.9007">
        <ele>1912</ele>
        <time>2010-01-01T06:18:54Z</time>
      </trkpt>
      <trkpt lat="42.82672" lon="0.90065">
        <ele>1912</ele>
        <time>2010-01-01T06:18:56Z</time>
      </trkpt>
      <trkpt lat="42.82677" lon="0.90058">
        <ele>1915</ele>
        <time>2010-01-01T06:18:59Z</time>
      </trkpt>
      <trkpt lat="42.82678" lon="0.90048">
        <ele>1917</ele>
        <time>2010-01-01T06:19:02Z</time>
      </trkpt>
      <trkpt lat="42.82671" lon="0.9004">
        <ele>1917</ele>
        <time>2010-01-01T06:19:05Z</time>
      </trkpt>
      <trkpt lat="42.82664" lon="0.90029">
        <ele>1918</ele>
        <time>2010-01-01T06:19:10Z</time>
      </trkpt>
      <trkpt lat="42.82661" lon="0.90031">
        <ele>1918</ele>
        <time>2010-01-01T06:19:11Z</time>
      </trkpt>
      <trkpt lat="42.8266" lon="0.90033">
        <ele>1918</ele>
        <time>2010-01-01T06:19:12Z</time>
      </trkpt>
      <trkpt lat="42.82661" lon="0.9003">
        <ele>1918</ele>
        <time>2010-01-01T06:19:12Z</time>
      </trkpt>
      <trkpt lat="42.82656" lon="0.9002">
        <ele>1922</ele>
        <time>2010-01-01T06:19:16Z</time>
      </trkpt>
      <trkpt lat="42.82647" lon="0.9002">
        <ele>1922</ele>
        <time>2010-01-01T06:19:20Z</time>
      </trkpt>
      <trkpt lat="42.82639" lon="0.90022">
        <ele>1922</ele>
        <time>2010-01-01T06:19:23Z</time>
      </trkpt>
      <trkpt lat="42.82634" lon="0.90019">
        <ele>1923</ele>
        <time>2010-01-01T06:19:25Z</time>
      </trkpt>
      <trkpt lat="42.82632" lon="0.90019">
        <ele>1923</ele>
        <time>2010-01-01T06:19:26Z</time>
      </trkpt>
      <trkpt lat="42.82635" lon="0.90014">
        <ele>1925</ele>
        <time>2010-01-01T06:19:28Z</time>
      </trkpt>
      <trkpt lat="42.82639" lon="0.90009">
        <ele>1927</ele>
        <time>2010-01-01T06:19:30Z</time>
      </trkpt>
      <trkpt lat="42.82632" lon="0.90009">
        <ele>1926</ele>
        <time>2010-01-01T06:19:33Z</time>
      </trkpt>
      <trkpt lat="42.82631" lon="0.90011">
        <ele>1925</ele>
        <time>2010-01-01T06:19:33Z</time>
      </trkpt>
      <trkpt lat="42.82626" lon="0.90006">
        <ele>1926</ele>
        <time>2010-01-01T06:19:36Z</time>
      </trkpt>
      <trkpt lat="42.82631" lon="0.90003">
        <ele>1928</ele>
        <time>2010-01-01T06:19:38Z</time>
      </trkpt>
      <trkpt lat="42.8263" lon="0.90003">
        <ele>1928</ele>
        <time>2010-01-01T06:19:39Z</time>
      </trkpt>
      <trkpt lat="42.82624" lon="0.89999">
        <ele>1928</ele>
        <time>2010-01-01T06:19:41Z</time>
      </trkpt>
      <trkpt lat="42.82624" lon="0.89995">
        <ele>1929</ele>
        <time>2010-01-01T06:19:43Z</time>
      </trkpt>
      <trkpt lat="42.82627" lon="0.89995">
        <ele>1929</ele>
        <time>2010-01-01T06:19:44Z</time>
      </trkpt>
      <trkpt lat="42.82629" lon="0.89995">
        <ele>1929</ele>
        <time>2010-01-01T06:19:45Z</time>
      </trkpt>
      <trkpt lat="42.82619" lon="0.89986">
        <ele>1930</ele>
        <time>2010-01-01T06:19:49Z</time>
      </trkpt>
      <trkpt lat="42.82618" lon="0.89986">
        <ele>1930</ele>
        <time>2010-01-01T06:19:50Z</time>
      </trkpt>
      <trkpt lat="42.8262" lon="0.89986">
        <ele>1930</ele>
        <time>2010-01-01T06:19:50Z</time>
      </trkpt>
      <trkpt lat="42.82627" lon="0.89989">
        <ele>1930</ele>
        <time>2010-01-01T06:19:53Z</time>
      </trkpt>
      <trkpt lat="42.82627" lon="0.89989">
        <ele>1930</ele>
        <time>2010-01-01T06:19:53Z</time>
      </trkpt>
      <trkpt lat="42.82628" lon="0.8998">
        <ele>1931</ele>
        <time>2010-01-01T06:19:56Z</time>
      </trkpt>
      <trkpt lat="42.82632" lon="0.89977">
        <ele>1931</ele>
        <time>2010-01-01T06:19:58Z</time>
      </trkpt>
      <trkpt lat="42.82633" lon="0.89965">
        <ele>1935</ele>
        <time>2010-01-01T06:20:01Z</time>
      </trkpt>
      <trkpt lat="42.82631" lon="0.89958">
        <ele>1937</ele>
        <time>2010-01-01T06:20:04Z</time>
      </trkpt>
      <trkpt lat="42.82634" lon="0.8995">
        <ele>1940</ele>
        <time>2010-01-01T06:20:06Z</time>
      </trkpt>
      <trkpt lat="42.82636" lon="0.89942">
        <ele>1943</ele>
        <time>2010-01-01T06:20:09Z</time>
      </trkpt>
      <trkpt lat="42.8264" lon="0.89926">
        <ele>1948</ele>
        <time>2010-01-01T06:20:14Z</time>
      </trkpt>
      <trkpt lat="42.82642" lon="0.89915">
        <ele>1951</ele>
        <time>2010-01-01T06:20:17Z</time>
      </trkpt>
      <trkpt lat="42.82639" lon="0.89901">
        <ele>1955</ele>
        <time>2010-01-01T06:20:21Z</time>
      </trkpt>
      <trkpt lat="42.82644" lon="0.8989">
        <ele>1957</ele>
        <time>2010-01-01T06:20:25Z</time>
      </trkpt>
      <trkpt lat="42.82649" lon="0.89886">
        <ele>1957</ele>
        <time>2010-01-01T06:20:27Z</time>
      </trkpt>
      <trkpt lat="42.82646" lon="0.89885">
        <ele>1958</ele>
        <time>2010-01-01T06:20:29Z</time>
      </trkpt>
      <trkpt lat="42.82646" lon="0.89882">
        <ele>1959</ele>
        <time>2010-01-01T06:20:30Z</time>
      </trkpt>
      <trkpt lat="42.8265" lon="0.89884">
        <ele>1957</ele>
        <time>2010-01-01T06:20:31Z</time>
      </trkpt>
      <trkpt lat="42.82654" lon="0.89882">
        <ele>1958</ele>
        <time>2010-01-01T06:20:33Z</time>
      </trkpt>
      <trkpt lat="42.82645" lon="0.89884">
        <ele>1958</ele>
        <time>2010-01-01T06:20:37Z</time>
      </trkpt>
      <trkpt lat="42.82645" lon="0.89885">
        <ele>1958</ele>
        <time>2010-01-01T06:20:37Z</time>
      </trkpt>
      <trkpt lat="42.82651" lon="0.89878">
        <ele>1959</ele>
        <time>2010-01-01T06:20:40Z</time>
      </trkpt>
      <trkpt lat="42.82652" lon="0.89874">
        <ele>1960</ele>
        <time>2010-01-01T06:20:41Z</time>
      </trkpt>
      <trkpt lat="42.8265" lon="0.8987">
        <ele>1962</ele>
        <time>2010-01-01T06:20:43Z</time>
      </trkpt>
      <trkpt lat="42.82649" lon="0.89869">
        <ele>1962</ele>
        <time>2010-01-01T06:20:43Z</time>
      </trkpt>
      <trkpt lat="42.8265" lon="0.8987">
        <ele>1962</ele>
        <time>2010-01-01T06:20:43Z</time>
      </trkpt>
      <trkpt lat="42.82651" lon="0.89872">
        <ele>1961</ele>
        <time>2010-01-01T06:20:44Z</time>
      </trkpt>
      <trkpt lat="42.82652" lon="0.89872">
        <ele>1961</ele>
        <time>2010-01-01T06:20:45Z</time>
      </trkpt>
      <trkpt lat="42.82651" lon="0.89871">
        <ele>1962</ele>
        <time>2010-01-01T06:20:45Z</time>
      </trkpt>
      <trkpt lat="42.82652" lon="0.8987">
        <ele>1962</ele>
        <time>2010-01-01T06:20:45Z</time>
      </trkpt>
      <trkpt lat="42.82652" lon="0.89871">
        <ele>1961</ele>
        <time>2010-01-01T06:20:46Z</time>
      </trkpt>
      <trkpt lat="42.82652" lon="0.8987">
        <ele>1962</ele>
        <time>2010-01-01T06:20:46Z</time>
      </trkpt>
      <trkpt lat="42.82652" lon="0.8987">
        <ele>1962</ele>
        <time>2010-01-01T06:20:46Z</time>
      </trkpt>
      <trkpt lat="42.82652" lon="0.89871">
        <ele>1962</ele>
        <time>2010-01-01T06:20:46Z</time>
      </trkpt>
      <trkpt lat="42.82651" lon="0.89871">
        <ele>1961</ele>
        <time>2010-01-01T06:20:46Z</time>
      </trkpt>
      <trkpt lat="42.82651" lon="0.89871">
        <ele>1961</ele>
        <time>2010-01-01T06:20:46Z</time>
      </trkpt>
      <trkpt lat="42.82652" lon="0.89872">
        <ele>1961</ele>
        <time>2010-01-01T06:20:47Z</time>
      </trkpt>
      <trkpt lat="42.82652" lon="0.89871">
        <ele>1961</ele>
        <time>2010-01-01T06:20:47Z</time>
      </trkpt>
      <trkpt lat="42.82651" lon="0.89871">
        <ele>1961</ele>
        <time>2010-01-01T06:20:47Z</time>
      </trkpt>
      <trkpt lat="42.82651" lon="0.89872">
        <ele>1961</ele>
        <time>2010-01-01T06:20:47Z</time>
      </trkpt>
      <trkpt lat="42.82652" lon="0.89871">
        <ele>1961</ele>
        <time>2010-01-01T06:20:48Z</time>
      </trkpt>
      <trkpt lat="42.82652" lon="0.89872">
        <ele>1961</ele>
        <time>2010-01-01T06:20:48Z</time>
      </trkpt>
      <trkpt lat="42.82651" lon="0.89872">
        <ele>1961</ele>
        <time>2010-01-01T06:20:48Z</time>
      </trkpt>
      <trkpt lat="42.82651" lon="0.89872">
        <ele>1961</ele>
        <time>2010-01-01T06:20:48Z</time>
      </trkpt>
      <trkpt lat="42.82651" lon="0.89872">
        <ele>1961</ele>
        <time>2010-01-01T06:20:48Z</time>
      </trkpt>
      <trkpt lat="42.82651" lon="0.89872">
        <ele>1961</ele>
        <time>2010-01-01T06:20:48Z</time>
      </trkpt>
      <trkpt lat="42.82652" lon="0.89871">
        <ele>1961</ele>
        <time>2010-01-01T06:20:49Z</time>
      </trkpt>
      <trkpt lat="42.82652" lon="0.89873">
        <ele>1961</ele>
        <time>2010-01-01T06:20:49Z</time>
      </trkpt>
      <trkpt lat="42.82653" lon="0.89871">
        <ele>1961</ele>
        <time>2010-01-01T06:20:50Z</time>
      </trkpt>
      <trkpt lat="42.82652" lon="0.89872">
        <ele>1961</ele>
        <time>2010-01-01T06:20:50Z</time>
      </trkpt>
      <trkpt lat="42.82652" lon="0.89871">
        <ele>1961</ele>
        <time>2010-01-01T06:20:50Z</time>
      </trkpt>
      <trkpt lat="42.82652" lon="0.89871">
        <ele>1961</ele>
        <time>2010-01-01T06:20:50Z</time>
      </trkpt>
      <trkpt lat="42.82652" lon="0.89871">
        <ele>1961</ele>
        <time>2010-01-01T06:20:51Z</time>
      </trkpt>
      <trkpt lat="42.82653" lon="0.89872">
        <ele>1961</ele>
        <time>2010-01-01T06:20:51Z</time>
      </trkpt>
      <trkpt lat="42.82652" lon="0.89873">
        <ele>1961</ele>
        <time>2010-01-01T06:20:51Z</time>
      </trkpt>
      <trkpt lat="42.82652" lon="0.89872">
        <ele>1961</ele>
        <time>2010-01-01T06:20:52Z</time>
      </trkpt>
      <trkpt lat="42.82651" lon="0.89871">
        <ele>1961</ele>
        <time>2010-01-01T06:20:52Z</time>
      </trkpt>
      <trkpt lat="42.82651" lon="0.8987">
        <ele>1962</ele>
        <time>2010-01-01T06:20:52Z</time>
      </trkpt>
      <trkpt lat="42.82651" lon="0.89871">
        <ele>1962</ele>
        <time>2010-01-01T06:20:53Z</time>
      </trkpt>
      <trkpt lat="42.82651" lon="0.89871">
        <ele>1961</ele>
        <time>2010-01-01T06:20:53Z</time>
      </trkpt>
      <trkpt lat="42.82651" lon="0.89871">
        <ele>1962</ele>
        <time>2010-01-01T06:20:53Z</time>
      </trkpt>
      <trkpt lat="42.82651" lon="0.89871">
        <ele>1961</ele>
        <time>2010-01-01T06:20:53Z</time>
      </trkpt>
      <trkpt lat="42.82651" lon="0.89871">
        <ele>1961</ele>
        <time>2010-01-01T06:20:54Z</time>
      </trkpt>
      <trkpt lat="42.82651" lon="0.89871">
        <ele>1961</ele>
        <time>2010-01-01T06:20:54Z</time>
      </trkpt>
      <trkpt lat="42.82651" lon="0.8987">
        <ele>1962</ele>
        <time>2010-01-01T06:20:54Z</time>
      </trkpt>
      <trkpt lat="42.82651" lon="0.8987">
        <ele>1962</ele>
        <time>2010-01-01T06:20:54Z</time>
      </trkpt>
      <trkpt lat="42.82651" lon="0.8987">
        <ele>1962</ele>
        <time>2010-01-01T06:20:55Z</time>
      </trkpt>
      <trkpt lat="42.82652" lon="0.89872">
        <ele>1961</ele>
        <time>2010-01-01T06:20:55Z</time>
      </trkpt>
      <trkpt lat="42.82651" lon="0.89872">
        <ele>1961</ele>
        <time>2010-01-01T06:20:55Z</time>
      </trkpt>
      <trkpt lat="42.82651" lon="0.89872">
        <ele>1961</ele>
        <time>2010-01-01T06:20:56Z</time>
      </trkpt>
      <trkpt lat="42.82651" lon="0.89871">
        <ele>1961</ele>
        <time>2010-01-01T06:20:56Z</time>
      </trkpt>
      <trkpt lat="42.82651" lon="0.89871">
        <ele>1962</ele>
        <time>2010-01-01T06:20:56Z</time>
      </trkpt>
      <trkpt lat="42.82652" lon="0.89871">
        <ele>1961</ele>
        <time>2010-01-01T06:20:57Z</time>
      </trkpt>
      <trkpt lat="42.82652" lon="0.89871">
        <ele>1961</ele>
        <time>2010-01-01T06:20:57Z</time>
      </trkpt>
      <trkpt lat="42.82651" lon="0.89871">
        <ele>1961</ele>
        <time>2010-01-01T06:20:57Z</time>
      </trkpt>
      <trkpt lat="42.82652" lon="0.89869">
        <ele>1962</ele>
        <time>2010-01-01T06:20:58Z</time>
      </trkpt>
      <trkpt lat="42.82651" lon="0.8987">
        <ele>1962</ele>
        <time>2010-01-01T06:20:58Z</time>
      </trkpt>
      <trkpt lat="42.82652" lon="0.8987">
        <ele>1962</ele>
        <time>2010-01-01T06:20:59Z</time>
      </trkpt>
      <trkpt lat="42.82651" lon="0.89871">
        <ele>1961</ele>
        <time>2010-01-01T06:20:59Z</time>
      </trkpt>
      <trkpt lat="42.82651" lon="0.8987">
        <ele>1962</ele>
        <time>2010-01-01T06:21:00Z</time>
      </trkpt>
      <trkpt lat="42.8265" lon="0.8987">
        <ele>1962</ele>
        <time>2010-01-01T06:21:00Z</time>
      </trkpt>
      <trkpt lat="42.82651" lon="0.89871">
        <ele>1961</ele>
        <time>2010-01-01T06:21:00Z</time>
      </trkpt>
      <trkpt lat="42.82651" lon="0.8987">
        <ele>1962</ele>
        <time>2010-01-01T06:21:01Z</time>
      </trkpt>
      <trkpt lat="42.82647" lon="0.89866">
        <ele>1963</ele>
        <time>2010-01-01T06:21:03Z</time>
      </trkpt>
      <trkpt lat="42.82645" lon="0.8986">
        <ele>1965</ele>
        <time>2010-01-01T06:21:05Z</time>
      </trkpt>
      <trkpt lat="42.82643" lon="0.8986">
        <ele>1965</ele>
        <time>2010-01-01T06:21:05Z</time>
      </trkpt>
      <trkpt lat="42.82642" lon="0.89857">
        <ele>1965</ele>
        <time>2010-01-01T06:21:06Z</time>
      </trkpt>
      <trkpt lat="42.82642" lon="0.89846">
        <ele>1968</ele>
        <time>2010-01-01T06:21:09Z</time>
      </trkpt>
      <trkpt lat="42.82641" lon="0.89833">
        <ele>1972</ele>
        <time>2010-01-01T06:21:13Z</time>
      </trkpt>
      <trkpt lat="42.82639" lon="0.89823">
        <ele>1972</ele>
        <time>2010-01-01T06:21:16Z</time>
      </trkpt>
      <trkpt lat="42.82635" lon="0.8981">
        <ele>1973</ele>
        <time>2010-01-01T06:21:20Z</time>
      </trkpt>
      <trkpt lat="42.82636" lon="0.89803">
        <ele>1974</ele>
        <time>2010-01-01T06:21:23Z</time>
      </trkpt>
      <trkpt lat="42.82636" lon="0.89792">
        <ele>1974</ele>
        <time>2010-01-01T06:21:26Z</time>
      </trkpt>
      <trkpt lat="42.82632" lon="0.89778">
        <ele>1974</ele>
        <time>2010-01-01T06:21:30Z</time>
      </trkpt>
      <trkpt lat="42.82631" lon="0.89767">
        <ele>1973</ele>
        <time>2010-01-01T06:21:33Z</time>
      </trkpt>
      <trkpt lat="42.8263" lon="0.89752">
        <ele>1973</ele>
        <time>2010-01-01T06:21:38Z</time>
      </trkpt>
      <trkpt lat="42.82628" lon="0.89736">
        <ele>1974</ele>
        <time>2010-01-01T06:21:43Z</time>
      </trkpt>
      <trkpt lat="42.82625" lon="0.89718">
        <ele>1976</ele>
        <time>2010-01-01T06:21:48Z</time>
      </trkpt>
      <trkpt lat="42.82625" lon="0.89713">
        <ele>1977</ele>
        <time>2010-01-01T06:21:49Z</time>
      </trkpt>
      <trkpt lat="42.82626" lon="0.89701">
        <ele>1978</ele>
        <time>2010-01-01T06:21:53Z</time>
      </trkpt>
      <trkpt lat="42.82632" lon="0.89688">
        <ele>1980</ele>
        <time>2010-01-01T06:21:58Z</time>
      </trkpt>
      <trkpt lat="42.82637" lon="0.89674">
        <ele>1983</ele>
        <time>2010-01-01T06:22:02Z</time>
      </trkpt>
      <trkpt lat="42.8264" lon="0.89668">
        <ele>1985</ele>
        <time>2010-01-01T06:22:04Z</time>
      </trkpt>
      <trkpt lat="42.8265" lon="0.8965">
        <ele>1990</ele>
        <time>2010-01-01T06:22:11Z</time>
      </trkpt>
      <trkpt lat="42.8266" lon="0.89639">
        <ele>1995</ele>
        <time>2010-01-01T06:22:16Z</time>
      </trkpt>
      <trkpt lat="42.82667" lon="0.89622">
        <ele>1999</ele>
        <time>2010-01-01T06:22:22Z</time>
      </trkpt>
      <trkpt lat="42.82676" lon="0.8961">
        <ele>2000</ele>
        <time>2010-01-01T06:22:27Z</time>
      </trkpt>
      <trkpt lat="42.8268" lon="0.8961">
        <ele>2000</ele>
        <time>2010-01-01T06:22:28Z</time>
      </trkpt>
      <trkpt lat="42.82686" lon="0.89595">
        <ele>2000</ele>
        <time>2010-01-01T06:22:33Z</time>
      </trkpt>
      <trkpt lat="42.82685" lon="0.89585">
        <ele>2000</ele>
        <time>2010-01-01T06:22:36Z</time>
      </trkpt>
      <trkpt lat="42.82689" lon="0.89579">
        <ele>2000</ele>
        <time>2010-01-01T06:22:39Z</time>
      </trkpt>
      <trkpt lat="42.82691" lon="0.89577">
        <ele>2000</ele>
        <time>2010-01-01T06:22:39Z</time>
      </trkpt>
      <trkpt lat="42.82704" lon="0.89561">
        <ele>2003</ele>
        <time>2010-01-01T06:22:47Z</time>
      </trkpt>
      <trkpt lat="42.82706" lon="0.89559">
        <ele>2003</ele>
        <time>2010-01-01T06:22:47Z</time>
      </trkpt>
      <trkpt lat="42.82714" lon="0.89549">
        <ele>2006</ele>
        <time>2010-01-01T06:22:52Z</time>
      </trkpt>
      <trkpt lat="42.8272" lon="0.89534">
        <ele>2010</ele>
        <time>2010-01-01T06:22:57Z</time>
      </trkpt>
      <trkpt lat="42.82724" lon="0.89518">
        <ele>2014</ele>
        <time>2010-01-01T06:23:02Z</time>
      </trkpt>
      <trkpt lat="42.82731" lon="0.89508">
        <ele>2017</ele>
        <time>2010-01-01T06:23:06Z</time>
      </trkpt>
      <trkpt lat="42.82737" lon="0.89499">
        <ele>2019</ele>
        <time>2010-01-01T06:23:09Z</time>
      </trkpt>
      <trkpt lat="42.82745" lon="0.89491">
        <ele>2022</ele>
        <time>2010-01-01T06:23:13Z</time>
      </trkpt>
      <trkpt lat="42.82753" lon="0.8948">
        <ele>2024</ele>
        <time>2010-01-01T06:23:18Z</time>
      </trkpt>
      <trkpt lat="42.82762" lon="0.89468">
        <ele>2026</ele>
        <time>2010-01-01T06:23:23Z</time>
      </trkpt>
      <trkpt lat="42.82763" lon="0.89459">
        <ele>2029</ele>
        <time>2010-01-01T06:23:26Z</time>
      </trkpt>
      <trkpt lat="42.82773" lon="0.89452">
        <ele>2031</ele>
        <time>2010-01-01T06:23:30Z</time>
      </trkpt>
      <trkpt lat="42.82766" lon="0.89439">
        <ele>2035</ele>
        <time>2010-01-01T06:23:35Z</time>
      </trkpt>
      <trkpt lat="42.82766" lon="0.89438">
        <ele>2036</ele>
        <time>2010-01-01T06:23:35Z</time>
      </trkpt>
      <trkpt lat="42.8276" lon="0.89418">
        <ele>2043</ele>
        <time>2010-01-01T06:23:41Z</time>
      </trkpt>
      <trkpt lat="42.82758" lon="0.89406">
        <ele>2049</ele>
        <time>2010-01-01T06:23:45Z</time>
      </trkpt>
      <trkpt lat="42.82758" lon="0.89395">
        <ele>2054</ele>
        <time>2010-01-01T06:23:48Z</time>
      </trkpt>
      <trkpt lat="42.8276" lon="0.89392">
        <ele>2055</ele>
        <time>2010-01-01T06:23:50Z</time>
      </trkpt>
      <trkpt lat="42.82762" lon="0.89385">
        <ele>2059</ele>
        <time>2010-01-01T06:23:52Z</time>
      </trkpt>
      <trkpt lat="42.8276" lon="0.89383">
        <ele>2060</ele>
        <time>2010-01-01T06:23:53Z</time>
      </trkpt>
      <trkpt lat="42.8275" lon="0.89386">
        <ele>2059</ele>
        <time>2010-01-01T06:23:57Z</time>
      </trkpt>
      <trkpt lat="42.82741" lon="0.89385">
        <ele>2063</ele>
        <time>2010-01-01T06:24:00Z</time>
      </trkpt>
      <trkpt lat="42.82747" lon="0.89369">
        <ele>2071</ele>
        <time>2010-01-01T06:24:06Z</time>
      </trkpt>
      <trkpt lat="42.82749" lon="0.89359">
        <ele>2076</ele>
        <time>2010-01-01T06:24:09Z</time>
      </trkpt>
      <trkpt lat="42.82748" lon="0.89359">
        <ele>2076</ele>
        <time>2010-01-01T06:24:09Z</time>
      </trkpt>
      <trkpt lat="42.82746" lon="0.89351">
        <ele>2078</ele>
        <time>2010-01-01T06:24:11Z</time>
      </trkpt>
      <trkpt lat="42.82744" lon="0.89344">
        <ele>2079</ele>
        <time>2010-01-01T06:24:14Z</time>
      </trkpt>
      <trkpt lat="42.82742" lon="0.89337">
        <ele>2081</ele>
        <time>2010-01-01T06:24:16Z</time>
      </trkpt>
      <trkpt lat="42.82742" lon="0.89335">
        <ele>2082</ele>
        <time>2010-01-01T06:24:17Z</time>
      </trkpt>
      <trkpt lat="42.82739" lon="0.89327">
        <ele>2083</ele>
        <time>2010-01-01T06:24:19Z</time>
      </trkpt>
      <trkpt lat="42.82738" lon="0.89326">
        <ele>2083</ele>
        <time>2010-01-01T06:24:19Z</time>
      </trkpt>
      <trkpt lat="42.8274" lon="0.89323">
        <ele>2083</ele>
        <time>2010-01-01T06:24:21Z</time>
      </trkpt>
      <trkpt lat="42.8274" lon="0.89318">
        <ele>2083</ele>
        <time>2010-01-01T06:24:22Z</time>
      </trkpt>
      <trkpt lat="42.82736" lon="0.89318">
        <ele>2085</ele>
        <time>2010-01-01T06:24:24Z</time>
      </trkpt>
      <trkpt lat="42.82727" lon="0.89312">
        <ele>2089</ele>
        <time>2010-01-01T06:24:28Z</time>
      </trkpt>
      <trkpt lat="42.82724" lon="0.89297">
        <ele>2091</ele>
        <time>2010-01-01T06:24:32Z</time>
      </trkpt>
      <trkpt lat="42.8272" lon="0.89287">
        <ele>2093</ele>
        <time>2010-01-01T06:24:36Z</time>
      </trkpt>
      <trkpt lat="42.82712" lon="0.89279">
        <ele>2096</ele>
        <time>2010-01-01T06:24:40Z</time>
      </trkpt>
      <trkpt lat="42.82705" lon="0.89287">
        <ele>2098</ele>
        <time>2010-01-01T06:24:44Z</time>
      </trkpt>
      <trkpt lat="42.82694" lon="0.89295">
        <ele>2099</ele>
        <time>2010-01-01T06:24:48Z</time>
      </trkpt>
      <trkpt lat="42.82684" lon="0.89306">
        <ele>2095</ele>
        <time>2010-01-01T06:24:53Z</time>
      </trkpt>
      <trkpt lat="42.82683" lon="0.89306">
        <ele>2095</ele>
        <time>2010-01-01T06:24:54Z</time>
      </trkpt>
      <trkpt lat="42.82668" lon="0.8931">
        <ele>2092</ele>
        <time>2010-01-01T06:25:00Z</time>
      </trkpt>
      <trkpt lat="42.82658" lon="0.89319">
        <ele>2090</ele>
        <time>2010-01-01T06:25:05Z</time>
      </trkpt>
      <trkpt lat="42.82652" lon="0.89325">
        <ele>2088</ele>
        <time>2010-01-01T06:25:08Z</time>
      </trkpt>
      <trkpt lat="42.82645" lon="0.8933">
        <ele>2086</ele>
        <time>2010-01-01T06:25:11Z</time>
      </trkpt>
      <trkpt lat="42.82642" lon="0.89331">
        <ele>2085</ele>
        <time>2010-01-01T06:25:12Z</time>
      </trkpt>
      <trkpt lat="42.82639" lon="0.89325">
        <ele>2088</ele>
        <time>2010-01-01T06:25:15Z</time>
      </trkpt>
      <trkpt lat="42.8264" lon="0.89316">
        <ele>2091</ele>
        <time>2010-01-01T06:25:17Z</time>
      </trkpt>
      <trkpt lat="42.82644" lon="0.89301">
        <ele>2096</ele>
        <time>2010-01-01T06:25:22Z</time>
      </trkpt>
      <trkpt lat="42.82645" lon="0.89298">
        <ele>2097</ele>
        <time>2010-01-01T06:25:23Z</time>
      </trkpt>
      <trkpt lat="42.82646" lon="0.8929">
        <ele>2099</ele>
        <time>2010-01-01T06:25:25Z</time>
      </trkpt>
      <trkpt lat="42.82646" lon="0.89289">
        <ele>2099</ele>
        <time>2010-01-01T06:25:26Z</time>
      </trkpt>
      <trkpt lat="42.82643" lon="0.89279">
        <ele>2101</ele>
        <time>2010-01-01T06:25:29Z</time>
      </trkpt>
      <trkpt lat="42.82643" lon="0.89278">
        <ele>2101</ele>
        <time>2010-01-01T06:25:29Z</time>
      </trkpt>
      <trkpt lat="42.82641" lon="0.89276">
        <ele>2102</ele>
        <time>2010-01-01T06:25:30Z</time>
      </trkpt>
      <trkpt lat="42.82633" lon="0.89273">
        <ele>2103</ele>
        <time>2010-01-01T06:25:34Z</time>
      </trkpt>
      <trkpt lat="42.82629" lon="0.8927">
        <ele>2103</ele>
        <time>2010-01-01T06:25:35Z</time>
      </trkpt>
      <trkpt lat="42.82627" lon="0.89267">
        <ele>2104</ele>
        <time>2010-01-01T06:25:36Z</time>
      </trkpt>
      <trkpt lat="42.82617" lon="0.8926">
        <ele>2105</ele>
        <time>2010-01-01T06:25:41Z</time>
      </trkpt>
      <trkpt lat="42.82613" lon="0.89256">
        <ele>2106</ele>
        <time>2010-01-01T06:25:43Z</time>
      </trkpt>
      <trkpt lat="42.82605" lon="0.89249">
        <ele>2105</ele>
        <time>2010-01-01T06:25:47Z</time>
      </trkpt>
      <trkpt lat="42.82602" lon="0.89247">
        <ele>2105</ele>
        <time>2010-01-01T06:25:48Z</time>
      </trkpt>
      <trkpt lat="42.826" lon="0.89242">
        <ele>2106</ele>
        <time>2010-01-01T06:25:50Z</time>
      </trkpt>
      <trkpt lat="42.826" lon="0.89234">
        <ele>2107</ele>
        <time>2010-01-01T06:25:52Z</time>
      </trkpt>
      <trkpt lat="42.82599" lon="0.8922">
        <ele>2110</ele>
        <time>2010-01-01T06:25:56Z</time>
      </trkpt>
      <trkpt lat="42.82599" lon="0.89219">
        <ele>2110</ele>
        <time>2010-01-01T06:25:56Z</time>
      </trkpt>
      <trkpt lat="42.82608" lon="0.89209">
        <ele>2115</ele>
        <time>2010-01-01T06:26:01Z</time>
      </trkpt>
      <trkpt lat="42.82617" lon="0.89197">
        <ele>2119</ele>
        <time>2010-01-01T06:26:06Z</time>
      </trkpt>
      <trkpt lat="42.82618" lon="0.8919">
        <ele>2121</ele>
        <time>2010-01-01T06:26:08Z</time>
      </trkpt>
      <trkpt lat="42.82618" lon="0.89187">
        <ele>2122</ele>
        <time>2010-01-01T06:26:09Z</time>
      </trkpt>
      <trkpt lat="42.82617" lon="0.89182">
        <ele>2123</ele>
        <time>2010-01-01T06:26:11Z</time>
      </trkpt>
      <trkpt lat="42.82616" lon="0.89169">
        <ele>2127</ele>
        <time>2010-01-01T06:26:14Z</time>
      </trkpt>
      <trkpt lat="42.82619" lon="0.89152">
        <ele>2131</ele>
        <time>2010-01-01T06:26:19Z</time>
      </trkpt>
      <trkpt lat="42.8262" lon="0.89141">
        <ele>2133</ele>
        <time>2010-01-01T06:26:23Z</time>
      </trkpt>
      <trkpt lat="42.82619" lon="0.89137">
        <ele>2134</ele>
        <time>2010-01-01T06:26:24Z</time>
      </trkpt>
      <trkpt lat="42.82615" lon="0.89129">
        <ele>2136</ele>
        <time>2010-01-01T06:26:27Z</time>
      </trkpt>
      <trkpt lat="42.82614" lon="0.89119">
        <ele>2138</ele>
        <time>2010-01-01T06:26:30Z</time>
      </trkpt>
      <trkpt lat="42.8261" lon="0.89109">
        <ele>2141</ele>
        <time>2010-01-01T06:26:33Z</time>
      </trkpt>
      <trkpt lat="42.82605" lon="0.89102">
        <ele>2145</ele>
        <time>2010-01-01T06:26:36Z</time>
      </trkpt>
      <trkpt lat="42.82604" lon="0.89099">
        <ele>2145</ele>
        <time>2010-01-01T06:26:37Z</time>
      </trkpt>
      <trkpt lat="42.82597" lon="0.89088">
        <ele>2150</ele>
        <time>2010-01-01T06:26:41Z</time>
      </trkpt>
      <trkpt lat="42.82593" lon="0.89086">
        <ele>2150</ele>
        <time>2010-01-01T06:26:43Z</time>
      </trkpt>
      <trkpt lat="42.82597" lon="0.89087">
        <ele>2150</ele>
        <time>2010-01-01T06:26:44Z</time>
      </trkpt>
      <trkpt lat="42.82592" lon="0.89079">
        <ele>2153</ele>
        <time>2010-01-01T06:26:47Z</time>
      </trkpt>
      <trkpt lat="42.82587" lon="0.89072">
        <ele>2155</ele>
        <time>2010-01-01T06:26:50Z</time>
      </trkpt>
      <trkpt lat="42.82591" lon="0.89063">
        <ele>2158</ele>
        <time>2010-01-01T06:26:53Z</time>
      </trkpt>
      <trkpt lat="42.82596" lon="0.89053">
        <ele>2161</ele>
        <time>2010-01-01T06:26:57Z</time>
      </trkpt>
      <trkpt lat="42.82597" lon="0.89049">
        <ele>2161</ele>
        <time>2010-01-01T06:26:58Z</time>
      </trkpt>
      <trkpt lat="42.82595" lon="0.89043">
        <ele>2163</ele>
        <time>2010-01-01T06:27:00Z</time>
      </trkpt>
      <trkpt lat="42.82598" lon="0.89031">
        <ele>2165</ele>
        <time>2010-01-01T06:27:04Z</time>
      </trkpt>
      <trkpt lat="42.82607" lon="0.8902">
        <ele>2166</ele>
        <time>2010-01-01T06:27:09Z</time>
      </trkpt>
      <trkpt lat="42.82616" lon="0.89009">
        <ele>2167</ele>
        <time>2010-01-01T06:27:13Z</time>
      </trkpt>
      <trkpt lat="42.82609" lon="0.89003">
        <ele>2168</ele>
        <time>2010-01-01T06:27:17Z</time>
      </trkpt>
      <trkpt lat="42.82608" lon="0.88999">
        <ele>2169</ele>
        <time>2010-01-01T06:27:18Z</time>
      </trkpt>
      <trkpt lat="42.82607" lon="0.88996">
        <ele>2169</ele>
        <time>2010-01-01T06:27:19Z</time>
      </trkpt>
      <trkpt lat="42.82608" lon="0.88991">
        <ele>2170</ele>
        <time>2010-01-01T06:27:20Z</time>
      </trkpt>
      <trkpt lat="42.82611" lon="0.88983">
        <ele>2172</ele>
        <time>2010-01-01T06:27:23Z</time>
      </trkpt>
      <trkpt lat="42.82613" lon="0.88973">
        <ele>2173</ele>
        <time>2010-01-01T06:27:26Z</time>
      </trkpt>
      <trkpt lat="42.82613" lon="0.88961">
        <ele>2179</ele>
        <time>2010-01-01T06:27:30Z</time>
      </trkpt>
      <trkpt lat="42.82615" lon="0.88955">
        <ele>2181</ele>
        <time>2010-01-01T06:27:31Z</time>
      </trkpt>
      <trkpt lat="42.82619" lon="0.88947">
        <ele>2186</ele>
        <time>2010-01-01T06:27:34Z</time>
      </trkpt>
      <trkpt lat="42.82618" lon="0.88938">
        <ele>2190</ele>
        <time>2010-01-01T06:27:37Z</time>
      </trkpt>
      <trkpt lat="42.8262" lon="0.88932">
        <ele>2194</ele>
        <time>2010-01-01T06:27:39Z</time>
      </trkpt>
      <trkpt lat="42.82621" lon="0.88931">
        <ele>2195</ele>
        <time>2010-01-01T06:27:39Z</time>
      </trkpt>
      <trkpt lat="42.82619" lon="0.8893">
        <ele>2195</ele>
        <time>2010-01-01T06:27:40Z</time>
      </trkpt>
      <trkpt lat="42.82625" lon="0.88931">
        <ele>2195</ele>
        <time>2010-01-01T06:27:42Z</time>
      </trkpt>
      <trkpt lat="42.82621" lon="0.88925">
        <ele>2198</ele>
        <time>2010-01-01T06:27:45Z</time>
      </trkpt>
      <trkpt lat="42.82621" lon="0.88917">
        <ele>2202</ele>
        <time>2010-01-01T06:27:47Z</time>
      </trkpt>
      <trkpt lat="42.82621" lon="0.88918">
        <ele>2202</ele>
        <time>2010-01-01T06:27:47Z</time>
      </trkpt>
      <trkpt lat="42.82623" lon="0.88916">
        <ele>2203</ele>
        <time>2010-01-01T06:27:48Z</time>
      </trkpt>
      <trkpt lat="42.82627" lon="0.88911">
        <ele>2203</ele>
        <time>2010-01-01T06:27:50Z</time>
      </trkpt>
      <trkpt lat="42.82626" lon="0.88908">
        <ele>2204</ele>
        <time>2010-01-01T06:27:51Z</time>
      </trkpt>
      <trkpt lat="42.82625" lon="0.88907">
        <ele>2204</ele>
        <time>2010-01-01T06:27:52Z</time>
      </trkpt>
      <trkpt lat="42.82626" lon="0.88904">
        <ele>2205</ele>
        <time>2010-01-01T06:27:53Z</time>
      </trkpt>
      <trkpt lat="42.82628" lon="0.88902">
        <ele>2205</ele>
        <time>2010-01-01T06:27:54Z</time>
      </trkpt>
      <trkpt lat="42.82637" lon="0.88896">
        <ele>2206</ele>
        <time>2010-01-01T06:27:58Z</time>
      </trkpt>
      <trkpt lat="42.82644" lon="0.88888">
        <ele>2208</ele>
        <time>2010-01-01T06:28:02Z</time>
      </trkpt>
      <trkpt lat="42.82653" lon="0.88884">
        <ele>2210</ele>
        <time>2010-01-01T06:28:05Z</time>
      </trkpt>
      <trkpt lat="42.8266" lon="0.88877">
        <ele>2213</ele>
        <time>2010-01-01T06:28:08Z</time>
      </trkpt>
      <trkpt lat="42.82662" lon="0.88876">
        <ele>2213</ele>
        <time>2010-01-01T06:28:10Z</time>
      </trkpt>
      <trkpt lat="42.82659" lon="0.88874">
        <ele>2213</ele>
        <time>2010-01-01T06:28:11Z</time>
      </trkpt>
      <trkpt lat="42.82661" lon="0.88875">
        <ele>2213</ele>
        <time>2010-01-01T06:28:12Z</time>
      </trkpt>
      <trkpt lat="42.82677" lon="0.88873">
        <ele>2218</ele>
        <time>2010-01-01T06:28:18Z</time>
      </trkpt>
      <trkpt lat="42.82693" lon="0.88875">
        <ele>2224</ele>
        <time>2010-01-01T06:28:25Z</time>
      </trkpt>
      <trkpt lat="42.82704" lon="0.8888">
        <ele>2226</ele>
        <time>2010-01-01T06:28:30Z</time>
      </trkpt>
      <trkpt lat="42.82708" lon="0.8888">
        <ele>2227</ele>
        <time>2010-01-01T06:28:31Z</time>
      </trkpt>
      <trkpt lat="42.82694" lon="0.88858">
        <ele>2227</ele>
        <time>2010-01-01T06:28:40Z</time>
      </trkpt>
      <trkpt lat="42.82688" lon="0.88849">
        <ele>2227</ele>
        <time>2010-01-01T06:28:43Z</time>
      </trkpt>
      <trkpt lat="42.82683" lon="0.88836">
        <ele>2227</ele>
        <time>2010-01-01T06:28:47Z</time>
      </trkpt>
      <trkpt lat="42.8268" lon="0.88825">
        <ele>2228</ele>
        <time>2010-01-01T06:28:51Z</time>
      </trkpt>
      <trkpt lat="42.82679" lon="0.88823">
        <ele>2228</ele>
        <time>2010-01-01T06:28:51Z</time>
      </trkpt>
      <trkpt lat="42.82671" lon="0.88803">
        <ele>2230</ele>
        <time>2010-01-01T06:28:58Z</time>
      </trkpt>
      <trkpt lat="42.82666" lon="0.88781">
        <ele>2234</ele>
        <time>2010-01-01T06:29:05Z</time>
      </trkpt>
      <trkpt lat="42.82663" lon="0.88772">
        <ele>2234</ele>
        <time>2010-01-01T06:29:08Z</time>
      </trkpt>
      <trkpt lat="42.8266" lon="0.88761">
        <ele>2235</ele>
        <time>2010-01-01T06:29:11Z</time>
      </trkpt>
      <trkpt lat="42.82663" lon="0.88759">
        <ele>2236</ele>
        <time>2010-01-01T06:29:13Z</time>
      </trkpt>
      <trkpt lat="42.82673" lon="0.88761">
        <ele>2237</ele>
        <time>2010-01-01T06:29:16Z</time>
      </trkpt>
      <trkpt lat="42.82682" lon="0.88763">
        <ele>2237</ele>
        <time>2010-01-01T06:29:20Z</time>
      </trkpt>
      <trkpt lat="42.82696" lon="0.88776">
        <ele>2238</ele>
        <time>2010-01-01T06:29:27Z</time>
      </trkpt>
      <trkpt lat="42.827" lon="0.88778">
        <ele>2237</ele>
        <time>2010-01-01T06:29:29Z</time>
      </trkpt>
      <trkpt lat="42.82703" lon="0.88787">
        <ele>2236</ele>
        <time>2010-01-01T06:29:31Z</time>
      </trkpt>
      <trkpt lat="42.82703" lon="0.88787">
        <ele>2236</ele>
        <time>2010-01-01T06:29:32Z</time>
      </trkpt>
      <trkpt lat="42.82704" lon="0.88787">
        <ele>2236</ele>
        <time>2010-01-01T06:29:32Z</time>
      </trkpt>
      <trkpt lat="42.82704" lon="0.88787">
        <ele>2236</ele>
        <time>2010-01-01T06:29:32Z</time>
      </trkpt>
      <trkpt lat="42.82705" lon="0.88787">
        <ele>2236</ele>
        <time>2010-01-01T06:29:32Z</time>
      </trkpt>
      <trkpt lat="42.82705" lon="0.88789">
        <ele>2236</ele>
        <time>2010-01-01T06:29:33Z</time>
      </trkpt>
      <trkpt lat="42.82702" lon="0.88788">
        <ele>2236</ele>
        <time>2010-01-01T06:29:34Z</time>
      </trkpt>
      <trkpt lat="42.827" lon="0.88785">
        <ele>2237</ele>
        <time>2010-01-01T06:29:35Z</time>
      </trkpt>
      <trkpt lat="42.82699" lon="0.88784">
        <ele>2237</ele>
        <time>2010-01-01T06:29:36Z</time>
      </trkpt>
      <trkpt lat="42.82699" lon="0.88783">
        <ele>2237</ele>
        <time>2010-01-01T06:29:36Z</time>
      </trkpt>
      <trkpt lat="42.82698" lon="0.88782">
        <ele>2237</ele>
        <time>2010-01-01T06:29:37Z</time>
      </trkpt>
      <trkpt lat="42.82699" lon="0.88782">
        <ele>2237</ele>
        <time>2010-01-01T06:29:37Z</time>
      </trkpt>
      <trkpt lat="42.827" lon="0.88782">
        <ele>2237</ele>
        <time>2010-01-01T06:29:37Z</time>
      </trkpt>
      <trkpt lat="42.82701" lon="0.88784">
        <ele>2237</ele>
        <time>2010-01-01T06:29:38Z</time>
      </trkpt>
      <trkpt lat="42.827" lon="0.88781">
        <ele>2237</ele>
        <time>2010-01-01T06:29:39Z</time>
      </trkpt>
      <trkpt lat="42.827" lon="0.88783">
        <ele>2237</ele>
        <time>2010-01-01T06:29:40Z</time>
      </trkpt>
      <trkpt lat="42.82702" lon="0.88785">
        <ele>2237</ele>
        <time>2010-01-01T06:29:41Z</time>
      </trkpt>
      <trkpt lat="42.82703" lon="0.88785">
        <ele>2236</ele>
        <time>2010-01-01T06:29:41Z</time>
      </trkpt>
      <trkpt lat="42.82702" lon="0.88782">
        <ele>2237</ele>
        <time>2010-01-01T06:29:42Z</time>
      </trkpt>
      <trkpt lat="42.82699" lon="0.88782">
        <ele>2237</ele>
        <time>2010-01-01T06:29:43Z</time>
      </trkpt>
      <trkpt lat="42.82699" lon="0.88782">
        <ele>2237</ele>
        <time>2010-01-01T06:29:43Z</time>
      </trkpt>
      <trkpt lat="42.82699" lon="0.88781">
        <ele>2237</ele>
        <time>2010-01-01T06:29:43Z</time>
      </trkpt>
      <trkpt lat="42.82699" lon="0.88781">
        <ele>2237</ele>
        <time>2010-01-01T06:29:44Z</time>
      </trkpt>
      <trkpt lat="42.827" lon="0.88781">
        <ele>2237</ele>
        <time>2010-01-01T06:29:44Z</time>
      </trkpt>
      <trkpt lat="42.827" lon="0.88782">
        <ele>2237</ele>
        <time>2010-01-01T06:29:44Z</time>
      </trkpt>
      <trkpt lat="42.82701" lon="0.88783">
        <ele>2237</ele>
        <time>2010-01-01T06:29:44Z</time>
      </trkpt>
      <trkpt lat="42.82702" lon="0.88783">
        <ele>2237</ele>
        <time>2010-01-01T06:29:45Z</time>
      </trkpt>
      <trkpt lat="42.82704" lon="0.88784">
        <ele>2236</ele>
        <time>2010-01-01T06:29:46Z</time>
      </trkpt>
      <trkpt lat="42.82704" lon="0.88784">
        <ele>2236</ele>
        <time>2010-01-01T06:29:46Z</time>
      </trkpt>
      <trkpt lat="42.82704" lon="0.88784">
        <ele>2236</ele>
        <time>2010-01-01T06:29:46Z</time>
      </trkpt>
      <trkpt lat="42.82705" lon="0.88784">
        <ele>2236</ele>
        <time>2010-01-01T06:29:46Z</time>
      </trkpt>
      <trkpt lat="42.82705" lon="0.88785">
        <ele>2236</ele>
        <time>2010-01-01T06:29:47Z</time>
      </trkpt>
      <trkpt lat="42.82706" lon="0.88785">
        <ele>2236</ele>
        <time>2010-01-01T06:29:47Z</time>
      </trkpt>
      <trkpt lat="42.82705" lon="0.88785">
        <ele>2236</ele>
        <time>2010-01-01T06:29:47Z</time>
      </trkpt>
      <trkpt lat="42.82705" lon="0.88784">
        <ele>2236</ele>
        <time>2010-01-01T06:29:47Z</time>
      </trkpt>
      <trkpt lat="42.82706" lon="0.88784">
        <ele>2236</ele>
        <time>2010-01-01T06:29:48Z</time>
      </trkpt>
      <trkpt lat="42.82704" lon="0.88784">
        <ele>2236</ele>
        <time>2010-01-01T06:29:48Z</time>
      </trkpt>
      <trkpt lat="42.82704" lon="0.88784">
        <ele>2236</ele>
        <time>2010-01-01T06:29:48Z</time>
      </trkpt>
      <trkpt lat="42.82703" lon="0.88783">
        <ele>2236</ele>
        <time>2010-01-01T06:29:49Z</time>
      </trkpt>
      <trkpt lat="42.82704" lon="0.88783">
        <ele>2236</ele>
        <time>2010-01-01T06:29:49Z</time>
      </trkpt>
      <trkpt lat="42.82704" lon="0.88783">
        <ele>2236</ele>
        <time>2010-01-01T06:29:49Z</time>
      </trkpt>
      <trkpt lat="42.82702" lon="0.88779">
        <ele>2237</ele>
        <time>2010-01-01T06:29:50Z</time>
      </trkpt>
      <trkpt lat="42.82702" lon="0.88775">
        <ele>2237</ele>
        <time>2010-01-01T06:29:52Z</time>
      </trkpt>
      <trkpt lat="42.82702" lon="0.88761">
        <ele>2236</ele>
        <time>2010-01-01T06:29:56Z</time>
      </trkpt>
      <trkpt lat="42.82697" lon="0.8875">
        <ele>2237</ele>
        <time>2010-01-01T06:30:00Z</time>
      </trkpt>
      <trkpt lat="42.82694" lon="0.88747">
        <ele>2237</ele>
        <time>2010-01-01T06:30:01Z</time>
      </trkpt>
      <trkpt lat="42.82687" lon="0.88731">
        <ele>2238</ele>
        <time>2010-01-01T06:30:07Z</time>
      </trkpt>
      <trkpt lat="42.82679" lon="0.88721">
        <ele>2240</ele>
        <time>2010-01-01T06:30:11Z</time>
      </trkpt>
      <trkpt lat="42.82675" lon="0.88717">
        <ele>2241</ele>
        <time>2010-01-01T06:30:13Z</time>
      </trkpt>
      <trkpt lat="42.82656" lon="0.88695">
        <ele>2243</ele>
        <time>2010-01-01T06:30:23Z</time>
      </trkpt>
      <trkpt lat="42.82654" lon="0.88692">
        <ele>2243</ele>
        <time>2010-01-01T06:30:24Z</time>
      </trkpt>
      <trkpt lat="42.82653" lon="0.88688">
        <ele>2243</ele>
        <time>2010-01-01T06:30:25Z</time>
      </trkpt>
      <trkpt lat="42.8265" lon="0.88684">
        <ele>2243</ele>
        <time>2010-01-01T06:30:27Z</time>
      </trkpt>
      <trkpt lat="42.82648" lon="0.88683">
        <ele>2244</ele>
        <time>2010-01-01T06:30:28Z</time>
      </trkpt>
      <trkpt lat="42.82635" lon="0.88672">
        <ele>2244</ele>
        <time>2010-01-01T06:30:34Z</time>
      </trkpt>
      <trkpt lat="42.82624" lon="0.8865">
        <ele>2244</ele>
        <time>2010-01-01T06:30:42Z</time>
      </trkpt>
      <trkpt lat="42.82616" lon="0.8862">
        <ele>2246</ele>
        <time>2010-01-01T06:30:51Z</time>
      </trkpt>
      <trkpt lat="42.82613" lon="0.88613">
        <ele>2246</ele>
        <time>2010-01-01T06:30:53Z</time>
      </trkpt>
      <trkpt lat="42.82604" lon="0.88586">
        <ele>2248</ele>
        <time>2010-01-01T06:31:02Z</time>
      </trkpt>
      <trkpt lat="42.82598" lon="0.88571">
        <ele>2250</ele>
        <time>2010-01-01T06:31:07Z</time>
      </trkpt>
      <trkpt lat="42.826" lon="0.88571">
        <ele>2250</ele>
        <time>2010-01-01T06:31:08Z</time>
      </trkpt>
      <trkpt lat="42.82598" lon="0.88569">
        <ele>2250</ele>
        <time>2010-01-01T06:31:08Z</time>
      </trkpt>
      <trkpt lat="42.82593" lon="0.88557">
        <ele>2251</ele>
        <time>2010-01-01T06:31:13Z</time>
      </trkpt>
      <trkpt lat="42.82589" lon="0.88543">
        <ele>2252</ele>
        <time>2010-01-01T06:31:17Z</time>
      </trkpt>
      <trkpt lat="42.82586" lon="0.88535">
        <ele>2252</ele>
        <time>2010-01-01T06:31:20Z</time>
      </trkpt>
      <trkpt lat="42.82578" lon="0.88514">
        <ele>2249</ele>
        <time>2010-01-01T06:31:27Z</time>
      </trkpt>
      <trkpt lat="42.82565" lon="0.88487">
        <ele>2246</ele>
        <time>2010-01-01T06:31:36Z</time>
      </trkpt>
      <trkpt lat="42.82557" lon="0.8846">
        <ele>2247</ele>
        <time>2010-01-01T06:31:45Z</time>
      </trkpt>
      <trkpt lat="42.82556" lon="0.88456">
        <ele>2248</ele>
        <time>2010-01-01T06:31:46Z</time>
      </trkpt>
      <trkpt lat="42.82553" lon="0.88445">
        <ele>2248</ele>
        <time>2010-01-01T06:31:49Z</time>
      </trkpt>
      <trkpt lat="42.82552" lon="0.88439">
        <ele>2249</ele>
        <time>2010-01-01T06:31:51Z</time>
      </trkpt>
      <trkpt lat="42.82548" lon="0.88412">
        <ele>2252</ele>
        <time>2010-01-01T06:31:59Z</time>
      </trkpt>
      <trkpt lat="42.82547" lon="0.88407">
        <ele>2252</ele>
        <time>2010-01-01T06:32:01Z</time>
      </trkpt>
      <trkpt lat="42.82542" lon="0.88381">
        <ele>2254</ele>
        <time>2010-01-01T06:32:09Z</time>
      </trkpt>
      <trkpt lat="42.82539" lon="0.88369">
        <ele>2255</ele>
        <time>2010-01-01T06:32:12Z</time>
      </trkpt>
      <trkpt lat="42.82536" lon="0.88362">
        <ele>2255</ele>
        <time>2010-01-01T06:32:15Z</time>
      </trkpt>
      <trkpt lat="42.82532" lon="0.88346">
        <ele>2259</ele>
        <time>2010-01-01T06:32:20Z</time>
      </trkpt>
      <trkpt lat="42.82531" lon="0.88343">
        <ele>2260</ele>
        <time>2010-01-01T06:32:20Z</time>
      </trkpt>
      <trkpt lat="42.82527" lon="0.88325">
        <ele>2263</ele>
        <time>2010-01-01T06:32:26Z</time>
      </trkpt>
      <trkpt lat="42.82518" lon="0.88308">
        <ele>2263</ele>
        <time>2010-01-01T06:32:32Z</time>
      </trkpt>
      <trkpt lat="42.82511" lon="0.8829">
        <ele>2262</ele>
        <time>2010-01-01T06:32:38Z</time>
      </trkpt>
      <trkpt lat="42.82508" lon="0.88281">
        <ele>2262</ele>
        <time>2010-01-01T06:32:41Z</time>
      </trkpt>
      <trkpt lat="42.82501" lon="0.88253">
        <ele>2265</ele>
        <time>2010-01-01T06:32:50Z</time>
      </trkpt>
      <trkpt lat="42.82498" lon="0.88238">
        <ele>2268</ele>
        <time>2010-01-01T06:32:54Z</time>
      </trkpt>
      <trkpt lat="42.82492" lon="0.88229">
        <ele>2268</ele>
        <time>2010-01-01T06:32:58Z</time>
      </trkpt>
      <trkpt lat="42.82487" lon="0.88216">
        <ele>2271</ele>
        <time>2010-01-01T06:33:02Z</time>
      </trkpt>
      <trkpt lat="42.82486" lon="0.88213">
        <ele>2272</ele>
        <time>2010-01-01T06:33:03Z</time>
      </trkpt>
      <trkpt lat="42.82478" lon="0.88197">
        <ele>2275</ele>
        <time>2010-01-01T06:33:09Z</time>
      </trkpt>
      <trkpt lat="42.82468" lon="0.88183">
        <ele>2277</ele>
        <time>2010-01-01T06:33:15Z</time>
      </trkpt>
      <trkpt lat="42.82457" lon="0.88169">
        <ele>2278</ele>
        <time>2010-01-01T06:33:21Z</time>
      </trkpt>
      <trkpt lat="42.82451" lon="0.88168">
        <ele>2277</ele>
        <time>2010-01-01T06:33:23Z</time>
      </trkpt>
      <trkpt lat="42.82438" lon="0.88166">
        <ele>2276</ele>
        <time>2010-01-01T06:33:28Z</time>
      </trkpt>
      <trkpt lat="42.82433" lon="0.88164">
        <ele>2276</ele>
        <time>2010-01-01T06:33:30Z</time>
      </trkpt>
      <trkpt lat="42.82435" lon="0.88165">
        <ele>2276</ele>
        <time>2010-01-01T06:33:31Z</time>
      </trkpt>
      <trkpt lat="42.82432" lon="0.88161">
        <ele>2277</ele>
        <time>2010-01-01T06:33:33Z</time>
      </trkpt>
      <trkpt lat="42.82424" lon="0.8816">
        <ele>2276</ele>
        <time>2010-01-01T06:33:36Z</time>
      </trkpt>
      <trkpt lat="42.82407" lon="0.88152">
        <ele>2278</ele>
        <time>2010-01-01T06:33:43Z</time>
      </trkpt>
      <trkpt lat="42.82395" lon="0.88143">
        <ele>2280</ele>
        <time>2010-01-01T06:33:48Z</time>
      </trkpt>
      <trkpt lat="42.82381" lon="0.88136">
        <ele>2281</ele>
        <time>2010-01-01T06:33:54Z</time>
      </trkpt>
      <trkpt lat="42.82376" lon="0.88132">
        <ele>2282</ele>
        <time>2010-01-01T06:33:57Z</time>
      </trkpt>
      <trkpt lat="42.82358" lon="0.88126">
        <ele>2283</ele>
        <time>2010-01-01T06:34:04Z</time>
      </trkpt>
      <trkpt lat="42.82344" lon="0.88123">
        <ele>2284</ele>
        <time>2010-01-01T06:34:10Z</time>
      </trkpt>
      <trkpt lat="42.82338" lon="0.8812">
        <ele>2285</ele>
        <time>2010-01-01T06:34:12Z</time>
      </trkpt>
      <trkpt lat="42.8233" lon="0.88113">
        <ele>2287</ele>
        <time>2010-01-01T06:34:16Z</time>
      </trkpt>
      <trkpt lat="42.82321" lon="0.88107">
        <ele>2288</ele>
        <time>2010-01-01T06:34:20Z</time>
      </trkpt>
      <trkpt lat="42.82309" lon="0.88098">
        <ele>2289</ele>
        <time>2010-01-01T06:34:26Z</time>
      </trkpt>
      <trkpt lat="42.82305" lon="0.88096">
        <ele>2289</ele>
        <time>2010-01-01T06:34:27Z</time>
      </trkpt>
      <trkpt lat="42.82296" lon="0.8809">
        <ele>2290</ele>
        <time>2010-01-01T06:34:31Z</time>
      </trkpt>
      <trkpt lat="42.82292" lon="0.88077">
        <ele>2292</ele>
        <time>2010-01-01T06:34:36Z</time>
      </trkpt>
      <trkpt lat="42.82287" lon="0.88057">
        <ele>2294</ele>
        <time>2010-01-01T06:34:42Z</time>
      </trkpt>
      <trkpt lat="42.82287" lon="0.88054">
        <ele>2295</ele>
        <time>2010-01-01T06:34:43Z</time>
      </trkpt>
      <trkpt lat="42.8228" lon="0.88039">
        <ele>2297</ele>
        <time>2010-01-01T06:34:48Z</time>
      </trkpt>
      <trkpt lat="42.82268" lon="0.88028">
        <ele>2300</ele>
        <time>2010-01-01T06:34:53Z</time>
      </trkpt>
      <trkpt lat="42.82256" lon="0.88023">
        <ele>2301</ele>
        <time>2010-01-01T06:34:58Z</time>
      </trkpt>
      <trkpt lat="42.82255" lon="0.88023">
        <ele>2301</ele>
        <time>2010-01-01T06:34:59Z</time>
      </trkpt>
      <trkpt lat="42.8225" lon="0.88027">
        <ele>2300</ele>
        <time>2010-01-01T06:35:01Z</time>
      </trkpt>
      <trkpt lat="42.82248" lon="0.8803">
        <ele>2300</ele>
        <time>2010-01-01T06:35:02Z</time>
      </trkpt>
      <trkpt lat="42.82243" lon="0.88033">
        <ele>2301</ele>
        <time>2010-01-01T06:35:05Z</time>
      </trkpt>
      <trkpt lat="42.82232" lon="0.88026">
        <ele>2305</ele>
        <time>2010-01-01T06:35:10Z</time>
      </trkpt>
      <trkpt lat="42.8222" lon="0.88023">
        <ele>2309</ele>
        <time>2010-01-01T06:35:14Z</time>
      </trkpt>
      <trkpt lat="42.82214" lon="0.88027">
        <ele>2311</ele>
        <time>2010-01-01T06:35:17Z</time>
      </trkpt>
      <trkpt lat="42.82213" lon="0.88029">
        <ele>2310</ele>
        <time>2010-01-01T06:35:18Z</time>
      </trkpt>
      <trkpt lat="42.82206" lon="0.88032">
        <ele>2312</ele>
        <time>2010-01-01T06:35:21Z</time>
      </trkpt>
      <trkpt lat="42.82201" lon="0.88026">
        <ele>2315</ele>
        <time>2010-01-01T06:35:23Z</time>
      </trkpt>
      <trkpt lat="42.82202" lon="0.88029">
        <ele>2315</ele>
        <time>2010-01-01T06:35:24Z</time>
      </trkpt>
      <trkpt lat="42.822" lon="0.88019">
        <ele>2317</ele>
        <time>2010-01-01T06:35:27Z</time>
      </trkpt>
      <trkpt lat="42.82194" lon="0.88023">
        <ele>2318</ele>
        <time>2010-01-01T06:35:30Z</time>
      </trkpt>
      <trkpt lat="42.82188" lon="0.88028">
        <ele>2319</ele>
        <time>2010-01-01T06:35:33Z</time>
      </trkpt>
      <trkpt lat="42.82189" lon="0.88032">
        <ele>2318</ele>
        <time>2010-01-01T06:35:34Z</time>
      </trkpt>
      <trkpt lat="42.82188" lon="0.88034">
        <ele>2318</ele>
        <time>2010-01-01T06:35:35Z</time>
      </trkpt>
      <trkpt lat="42.82184" lon="0.88035">
        <ele>2319</ele>
        <time>2010-01-01T06:35:37Z</time>
      </trkpt>
      <trkpt lat="42.82173" lon="0.88044">
        <ele>2321</ele>
        <time>2010-01-01T06:35:42Z</time>
      </trkpt>
      <trkpt lat="42.82165" lon="0.88048">
        <ele>2322</ele>
        <time>2010-01-01T06:35:45Z</time>
      </trkpt>
      <trkpt lat="42.82154" lon="0.88046">
        <ele>2325</ele>
        <time>2010-01-01T06:35:50Z</time>
      </trkpt>
      <trkpt lat="42.82142" lon="0.88049">
        <ele>2327</ele>
        <time>2010-01-01T06:35:54Z</time>
      </trkpt>
      <trkpt lat="42.82137" lon="0.88051">
        <ele>2327</ele>
        <time>2010-01-01T06:35:57Z</time>
      </trkpt>
      <trkpt lat="42.82133" lon="0.8805">
        <ele>2328</ele>
        <time>2010-01-01T06:35:58Z</time>
      </trkpt>
      <trkpt lat="42.82133" lon="0.88052">
        <ele>2327</ele>
        <time>2010-01-01T06:35:59Z</time>
      </trkpt>
      <trkpt lat="42.82131" lon="0.88054">
        <ele>2327</ele>
        <time>2010-01-01T06:36:00Z</time>
      </trkpt>
      <trkpt lat="42.82131" lon="0.88054">
        <ele>2327</ele>
        <time>2010-01-01T06:36:00Z</time>
      </trkpt>
      <trkpt lat="42.8213" lon="0.88054">
        <ele>2327</ele>
        <time>2010-01-01T06:36:00Z</time>
      </trkpt>
      <trkpt lat="42.82124" lon="0.88052">
        <ele>2328</ele>
        <time>2010-01-01T06:36:03Z</time>
      </trkpt>
      <trkpt lat="42.82123" lon="0.88051">
        <ele>2328</ele>
        <time>2010-01-01T06:36:03Z</time>
      </trkpt>
      <trkpt lat="42.82118" lon="0.88046">
        <ele>2330</ele>
        <time>2010-01-01T06:36:06Z</time>
      </trkpt>
      <trkpt lat="42.82111" lon="0.88041">
        <ele>2332</ele>
        <time>2010-01-01T06:36:09Z</time>
      </trkpt>
      <trkpt lat="42.82102" lon="0.88043">
        <ele>2332</ele>
        <time>2010-01-01T06:36:12Z</time>
      </trkpt>
      <trkpt lat="42.821" lon="0.88043">
        <ele>2333</ele>
        <time>2010-01-01T06:36:13Z</time>
      </trkpt>
      <trkpt lat="42.82101" lon="0.88046">
        <ele>2332</ele>
        <time>2010-01-01T06:36:14Z</time>
      </trkpt>
      <trkpt lat="42.82103" lon="0.88044">
        <ele>2332</ele>
        <time>2010-01-01T06:36:15Z</time>
      </trkpt>
      <trkpt lat="42.82101" lon="0.8804">
        <ele>2334</ele>
        <time>2010-01-01T06:36:16Z</time>
      </trkpt>
      <trkpt lat="42.82094" lon="0.88035">
        <ele>2336</ele>
        <time>2010-01-01T06:36:19Z</time>
      </trkpt>
      <trkpt lat="42.82091" lon="0.88025">
        <ele>2340</ele>
        <time>2010-01-01T06:36:23Z</time>
      </trkpt>
      <trkpt lat="42.82091" lon="0.88024">
        <ele>2340</ele>
        <time>2010-01-01T06:36:23Z</time>
      </trkpt>
      <trkpt lat="42.8209" lon="0.88024">
        <ele>2341</ele>
        <time>2010-01-01T06:36:23Z</time>
      </trkpt>
      <trkpt lat="42.82087" lon="0.8802">
        <ele>2343</ele>
        <time>2010-01-01T06:36:25Z</time>
      </trkpt>
      <trkpt lat="42.82083" lon="0.88015">
        <ele>2345</ele>
        <time>2010-01-01T06:36:27Z</time>
      </trkpt>
      <trkpt lat="42.82084" lon="0.88008">
        <ele>2347</ele>
        <time>2010-01-01T06:36:29Z</time>
      </trkpt>
      <trkpt lat="42.82083" lon="0.88001">
        <ele>2350</ele>
        <time>2010-01-01T06:36:32Z</time>
      </trkpt>
      <trkpt lat="42.82081" lon="0.87995">
        <ele>2354</ele>
        <time>2010-01-01T06:36:33Z</time>
      </trkpt>
      <trkpt lat="42.8208" lon="0.87988">
        <ele>2359</ele>
        <time>2010-01-01T06:36:35Z</time>
      </trkpt>
      <trkpt lat="42.82079" lon="0.87979">
        <ele>2364</ele>
        <time>2010-01-01T06:36:38Z</time>
      </trkpt>
      <trkpt lat="42.82076" lon="0.87973">
        <ele>2369</ele>
        <time>2010-01-01T06:36:40Z</time>
      </trkpt>
      <trkpt lat="42.82074" lon="0.87965">
        <ele>2373</ele>
        <time>2010-01-01T06:36:43Z</time>
      </trkpt>
      <trkpt lat="42.82068" lon="0.87965">
        <ele>2375</ele>
        <time>2010-01-01T06:36:46Z</time>
      </trkpt>
      <trkpt lat="42.82062" lon="0.87973">
        <ele>2374</ele>
        <time>2010-01-01T06:36:49Z</time>
      </trkpt>
      <trkpt lat="42.82061" lon="0.87974">
        <ele>2374</ele>
        <time>2010-01-01T06:36:49Z</time>
      </trkpt>
      <trkpt lat="42.8206" lon="0.87973">
        <ele>2375</ele>
        <time>2010-01-01T06:36:50Z</time>
      </trkpt>
      <trkpt lat="42.82055" lon="0.87978">
        <ele>2374</ele>
        <time>2010-01-01T06:36:52Z</time>
      </trkpt>
      <trkpt lat="42.82057" lon="0.87979">
        <ele>2373</ele>
        <time>2010-01-01T06:36:53Z</time>
      </trkpt>
      <trkpt lat="42.82058" lon="0.87981">
        <ele>2372</ele>
        <time>2010-01-01T06:36:54Z</time>
      </trkpt>
      <trkpt lat="42.82056" lon="0.87978">
        <ele>2374</ele>
        <time>2010-01-01T06:36:55Z</time>
      </trkpt>
      <trkpt lat="42.82054" lon="0.87977">
        <ele>2375</ele>
        <time>2010-01-01T06:36:56Z</time>
      </trkpt>
      <trkpt lat="42.82049" lon="0.87964">
        <ele>2380</ele>
        <time>2010-01-01T06:37:00Z</time>
      </trkpt>
      <trkpt lat="42.82043" lon="0.87958">
        <ele>2382</ele>
        <time>2010-01-01T06:37:03Z</time>
      </trkpt>
      <trkpt lat="42.82038" lon="0.87957">
        <ele>2383</ele>
        <time>2010-01-01T06:37:05Z</time>
      </trkpt>
      <trkpt lat="42.82039" lon="0.87958">
        <ele>2383</ele>
        <time>2010-01-01T06:37:06Z</time>
      </trkpt>
      <trkpt lat="42.82033" lon="0.87965">
        <ele>2382</ele>
        <time>2010-01-01T06:37:09Z</time>
      </trkpt>
      <trkpt lat="42.8203" lon="0.87966">
        <ele>2383</ele>
        <time>2010-01-01T06:37:10Z</time>
      </trkpt>
      <trkpt lat="42.82025" lon="0.87965">
        <ele>2383</ele>
        <time>2010-01-01T06:37:12Z</time>
      </trkpt>
      <trkpt lat="42.82019" lon="0.87968">
        <ele>2384</ele>
        <time>2010-01-01T06:37:15Z</time>
      </trkpt>
      <trkpt lat="42.82016" lon="0.87971">
        <ele>2383</ele>
        <time>2010-01-01T06:37:17Z</time>
      </trkpt>
      <trkpt lat="42.82009" lon="0.8797">
        <ele>2384</ele>
        <time>2010-01-01T06:37:19Z</time>
      </trkpt>
      <trkpt lat="42.82013" lon="0.87966">
        <ele>2384</ele>
        <time>2010-01-01T06:37:21Z</time>
      </trkpt>
      <trkpt lat="42.8201" lon="0.87975">
        <ele>2383</ele>
        <time>2010-01-01T06:37:24Z</time>
      </trkpt>
      <trkpt lat="42.82011" lon="0.87982">
        <ele>2382</ele>
        <time>2010-01-01T06:37:26Z</time>
      </trkpt>
      <trkpt lat="42.8201" lon="0.87981">
        <ele>2383</ele>
        <time>2010-01-01T06:37:26Z</time>
      </trkpt>
      <trkpt lat="42.82012" lon="0.87977">
        <ele>2383</ele>
        <time>2010-01-01T06:37:27Z</time>
      </trkpt>
      <trkpt lat="42.82013" lon="0.8798">
        <ele>2383</ele>
        <time>2010-01-01T06:37:28Z</time>
      </trkpt>
      <trkpt lat="42.82013" lon="0.87979">
        <ele>2383</ele>
        <time>2010-01-01T06:37:29Z</time>
      </trkpt>
      <trkpt lat="42.82015" lon="0.87979">
        <ele>2382</ele>
        <time>2010-01-01T06:37:29Z</time>
      </trkpt>
      <trkpt lat="42.82013" lon="0.87975">
        <ele>2383</ele>
        <time>2010-01-01T06:37:31Z</time>
      </trkpt>
      <trkpt lat="42.8201" lon="0.8797">
        <ele>2384</ele>
        <time>2010-01-01T06:37:33Z</time>
      </trkpt>
      <trkpt lat="42.82013" lon="0.87962">
        <ele>2384</ele>
        <time>2010-01-01T06:37:35Z</time>
      </trkpt>
      <trkpt lat="42.82013" lon="0.87957">
        <ele>2385</ele>
        <time>2010-01-01T06:37:37Z</time>
      </trkpt>
      <trkpt lat="42.82014" lon="0.87952">
        <ele>2385</ele>
        <time>2010-01-01T06:37:38Z</time>
      </trkpt>
      <trkpt lat="42.82013" lon="0.87947">
        <ele>2385</ele>
        <time>2010-01-01T06:37:40Z</time>
      </trkpt>
      <trkpt lat="42.82014" lon="0.87947">
        <ele>2385</ele>
        <time>2010-01-01T06:37:40Z</time>
      </trkpt>
      <trkpt lat="42.82013" lon="0.87948">
        <ele>2385</ele>
        <time>2010-01-01T06:37:41Z</time>
      </trkpt>
      <trkpt lat="42.82014" lon="0.87943">
        <ele>2386</ele>
        <time>2010-01-01T06:37:42Z</time>
      </trkpt>
      <trkpt lat="42.82011" lon="0.87945">
        <ele>2385</ele>
        <time>2010-01-01T06:37:43Z</time>
      </trkpt>
      <trkpt lat="42.82014" lon="0.87945">
        <ele>2385</ele>
        <time>2010-01-01T06:37:44Z</time>
      </trkpt>
      <trkpt lat="42.82013" lon="0.87945">
        <ele>2385</ele>
        <time>2010-01-01T06:37:44Z</time>
      </trkpt>
      <trkpt lat="42.8201" lon="0.87948">
        <ele>2385</ele>
        <time>2010-01-01T06:37:46Z</time>
      </trkpt>
      <trkpt lat="42.8201" lon="0.87948">
        <ele>2385</ele>
        <time>2010-01-01T06:37:46Z</time>
      </trkpt>
      <trkpt lat="42.82008" lon="0.87948">
        <ele>2385</ele>
        <time>2010-01-01T06:37:47Z</time>
      </trkpt>
      <trkpt lat="42.82007" lon="0.87946">
        <ele>2385</ele>
        <time>2010-01-01T06:37:47Z</time>
      </trkpt>
      <trkpt lat="42.82008" lon="0.87945">
        <ele>2385</ele>
        <time>2010-01-01T06:37:48Z</time>
      </trkpt>
      <trkpt lat="42.82016" lon="0.87937">
        <ele>2386</ele>
        <time>2010-01-01T06:37:52Z</time>
      </trkpt>
      <trkpt lat="42.82018" lon="0.87927">
        <ele>2387</ele>
        <time>2010-01-01T06:37:55Z</time>
      </trkpt>
      <trkpt lat="42.82019" lon="0.87926">
        <ele>2388</ele>
        <time>2010-01-01T06:37:55Z</time>
      </trkpt>
      <trkpt lat="42.82019" lon="0.87925">
        <ele>2388</ele>
        <time>2010-01-01T06:37:56Z</time>
      </trkpt>
      <trkpt lat="42.82018" lon="0.87926">
        <ele>2387</ele>
        <time>2010-01-01T06:37:56Z</time>
      </trkpt>
      <trkpt lat="42.82019" lon="0.87927">
        <ele>2387</ele>
        <time>2010-01-01T06:37:56Z</time>
      </trkpt>
      <trkpt lat="42.82018" lon="0.87927">
        <ele>2387</ele>
        <time>2010-01-01T06:37:56Z</time>
      </trkpt>
      <trkpt lat="42.82016" lon="0.87927">
        <ele>2387</ele>
        <time>2010-01-01T06:37:57Z</time>
      </trkpt>
      <trkpt lat="42.82017" lon="0.87926">
        <ele>2387</ele>
        <time>2010-01-01T06:37:58Z</time>
      </trkpt>
      <trkpt lat="42.82017" lon="0.87926">
        <ele>2387</ele>
        <time>2010-01-01T06:37:58Z</time>
      </trkpt>
      <trkpt lat="42.82016" lon="0.87924">
        <ele>2387</ele>
        <time>2010-01-01T06:37:58Z</time>
      </trkpt>
      <trkpt lat="42.82016" lon="0.87916">
        <ele>2388</ele>
        <time>2010-01-01T06:38:01Z</time>
      </trkpt>
      <trkpt lat="42.82016" lon="0.87912">
        <ele>2388</ele>
        <time>2010-01-01T06:38:02Z</time>
      </trkpt>
      <trkpt lat="42.82017" lon="0.87904">
        <ele>2390</ele>
        <time>2010-01-01T06:38:04Z</time>
      </trkpt>
      <trkpt lat="42.82012" lon="0.87886">
        <ele>2391</ele>
        <time>2010-01-01T06:38:10Z</time>
      </trkpt>
      <trkpt lat="42.82002" lon="0.87863">
        <ele>2390</ele>
        <time>2010-01-01T06:38:18Z</time>
      </trkpt>
      <trkpt lat="42.82001" lon="0.87859">
        <ele>2390</ele>
        <time>2010-01-01T06:38:19Z</time>
      </trkpt>
      <trkpt lat="42.81996" lon="0.87841">
        <ele>2389</ele>
        <time>2010-01-01T06:38:25Z</time>
      </trkpt>
      <trkpt lat="42.81995" lon="0.87822">
        <ele>2390</ele>
        <time>2010-01-01T06:38:31Z</time>
      </trkpt>
      <trkpt lat="42.81997" lon="0.87793">
        <ele>2392</ele>
        <time>2010-01-01T06:38:39Z</time>
      </trkpt>
      <trkpt lat="42.81994" lon="0.87781">
        <ele>2392</ele>
        <time>2010-01-01T06:38:43Z</time>
      </trkpt>
      <trkpt lat="42.81992" lon="0.87779">
        <ele>2391</ele>
        <time>2010-01-01T06:38:44Z</time>
      </trkpt>
      <trkpt lat="42.81989" lon="0.87776">
        <ele>2390</ele>
        <time>2010-01-01T06:38:45Z</time>
      </trkpt>
      <trkpt lat="42.81986" lon="0.87767">
        <ele>2389</ele>
        <time>2010-01-01T06:38:48Z</time>
      </trkpt>
      <trkpt lat="42.81986" lon="0.87764">
        <ele>2389</ele>
        <time>2010-01-01T06:38:49Z</time>
      </trkpt>
      <trkpt lat="42.81985" lon="0.87755">
        <ele>2389</ele>
        <time>2010-01-01T06:38:52Z</time>
      </trkpt>
      <trkpt lat="42.81983" lon="0.87742">
        <ele>2388</ele>
        <time>2010-01-01T06:38:56Z</time>
      </trkpt>
      <trkpt lat="42.81983" lon="0.87737">
        <ele>2388</ele>
        <time>2010-01-01T06:38:57Z</time>
      </trkpt>
      <trkpt lat="42.81984" lon="0.87731">
        <ele>2388</ele>
        <time>2010-01-01T06:38:59Z</time>
      </trkpt>
      <trkpt lat="42.81982" lon="0.87714">
        <ele>2388</ele>
        <time>2010-01-01T06:39:04Z</time>
      </trkpt>
      <trkpt lat="42.81981" lon="0.87703">
        <ele>2387</ele>
        <time>2010-01-01T06:39:07Z</time>
      </trkpt>
      <trkpt lat="42.81979" lon="0.87693">
        <ele>2386</ele>
        <time>2010-01-01T06:39:10Z</time>
      </trkpt>
      <trkpt lat="42.81978" lon="0.87689">
        <ele>2386</ele>
        <time>2010-01-01T06:39:12Z</time>
      </trkpt>
      <trkpt lat="42.81979" lon="0.87665">
        <ele>2387</ele>
        <time>2010-01-01T06:39:19Z</time>
      </trkpt>
      <trkpt lat="42.81978" lon="0.87659">
        <ele>2387</ele>
        <time>2010-01-01T06:39:20Z</time>
      </trkpt>
      <trkpt lat="42.81979" lon="0.87656">
        <ele>2387</ele>
        <time>2010-01-01T06:39:21Z</time>
      </trkpt>
      <trkpt lat="42.81978" lon="0.8765">
        <ele>2387</ele>
        <time>2010-01-01T06:39:23Z</time>
      </trkpt>
      <trkpt lat="42.81978" lon="0.87646">
        <ele>2386</ele>
        <time>2010-01-01T06:39:24Z</time>
      </trkpt>
      <trkpt lat="42.81974" lon="0.87634">
        <ele>2385</ele>
        <time>2010-01-01T06:39:28Z</time>
      </trkpt>
      <trkpt lat="42.81968" lon="0.87622">
        <ele>2382</ele>
        <time>2010-01-01T06:39:32Z</time>
      </trkpt>
      <trkpt lat="42.81967" lon="0.8762">
        <ele>2382</ele>
        <time>2010-01-01T06:39:33Z</time>
      </trkpt>
      <trkpt lat="42.81964" lon="0.87613">
        <ele>2381</ele>
        <time>2010-01-01T06:39:36Z</time>
      </trkpt>
      <trkpt lat="42.81957" lon="0.87591">
        <ele>2380</ele>
        <time>2010-01-01T06:39:43Z</time>
      </trkpt>
      <trkpt lat="42.81957" lon="0.87565">
        <ele>2380</ele>
        <time>2010-01-01T06:39:50Z</time>
      </trkpt>
      <trkpt lat="42.81956" lon="0.87562">
        <ele>2380</ele>
        <time>2010-01-01T06:39:51Z</time>
      </trkpt>
      <trkpt lat="42.81954" lon="0.87557">
        <ele>2379</ele>
        <time>2010-01-01T06:39:53Z</time>
      </trkpt>
      <trkpt lat="42.81948" lon="0.87556">
        <ele>2377</ele>
        <time>2010-01-01T06:39:55Z</time>
      </trkpt>
      <trkpt lat="42.8193" lon="0.87548">
        <ele>2376</ele>
        <time>2010-01-01T06:40:03Z</time>
      </trkpt>
      <trkpt lat="42.81923" lon="0.87548">
        <ele>2376</ele>
        <time>2010-01-01T06:40:06Z</time>
      </trkpt>
      <trkpt lat="42.81913" lon="0.87547">
        <ele>2375</ele>
        <time>2010-01-01T06:40:10Z</time>
      </trkpt>
      <trkpt lat="42.81915" lon="0.87553">
        <ele>2375</ele>
        <time>2010-01-01T06:40:12Z</time>
      </trkpt>
      <trkpt lat="42.81916" lon="0.87552">
        <ele>2375</ele>
        <time>2010-01-01T06:40:12Z</time>
      </trkpt>
      <trkpt lat="42.81907" lon="0.87542">
        <ele>2376</ele>
        <time>2010-01-01T06:40:17Z</time>
      </trkpt>
      <trkpt lat="42.81896" lon="0.87532">
        <ele>2378</ele>
        <time>2010-01-01T06:40:22Z</time>
      </trkpt>
      <trkpt lat="42.81889" lon="0.87525">
        <ele>2379</ele>
        <time>2010-01-01T06:40:26Z</time>
      </trkpt>
      <trkpt lat="42.81879" lon="0.87514">
        <ele>2385</ele>
        <time>2010-01-01T06:40:31Z</time>
      </trkpt>
      <trkpt lat="42.81873" lon="0.87506">
        <ele>2389</ele>
        <time>2010-01-01T06:40:34Z</time>
      </trkpt>
      <trkpt lat="42.81867" lon="0.87511">
        <ele>2389</ele>
        <time>2010-01-01T06:40:37Z</time>
      </trkpt>
      <trkpt lat="42.81863" lon="0.87517">
        <ele>2389</ele>
        <time>2010-01-01T06:40:39Z</time>
      </trkpt>
      <trkpt lat="42.81862" lon="0.87526">
        <ele>2387</ele>
        <time>2010-01-01T06:40:42Z</time>
      </trkpt>
      <trkpt lat="42.81863" lon="0.87526">
        <ele>2386</ele>
        <time>2010-01-01T06:40:42Z</time>
      </trkpt>
      <trkpt lat="42.81854" lon="0.87533">
        <ele>2387</ele>
        <time>2010-01-01T06:40:46Z</time>
      </trkpt>
      <trkpt lat="42.81839" lon="0.87546">
        <ele>2387</ele>
        <time>2010-01-01T06:40:53Z</time>
      </trkpt>
      <trkpt lat="42.81834" lon="0.87558">
        <ele>2386</ele>
        <time>2010-01-01T06:40:58Z</time>
      </trkpt>
      <trkpt lat="42.8183" lon="0.8758">
        <ele>2385</ele>
        <time>2010-01-01T06:41:04Z</time>
      </trkpt>
      <trkpt lat="42.81828" lon="0.87585">
        <ele>2385</ele>
        <time>2010-01-01T06:41:06Z</time>
      </trkpt>
      <trkpt lat="42.81825" lon="0.8759">
        <ele>2386</ele>
        <time>2010-01-01T06:41:08Z</time>
      </trkpt>
      <trkpt lat="42.8181" lon="0.87598">
        <ele>2392</ele>
        <time>2010-01-01T06:41:14Z</time>
      </trkpt>
      <trkpt lat="42.81799" lon="0.87605">
        <ele>2394</ele>
        <time>2010-01-01T06:41:19Z</time>
      </trkpt>
      <trkpt lat="42.81797" lon="0.87605">
        <ele>2394</ele>
        <time>2010-01-01T06:41:20Z</time>
      </trkpt>
      <trkpt lat="42.81783" lon="0.87601">
        <ele>2395</ele>
        <time>2010-01-01T06:41:26Z</time>
      </trkpt>
      <trkpt lat="42.81782" lon="0.87598">
        <ele>2395</ele>
        <time>2010-01-01T06:41:27Z</time>
      </trkpt>
      <trkpt lat="42.81783" lon="0.87594">
        <ele>2396</ele>
        <time>2010-01-01T06:41:28Z</time>
      </trkpt>
      <trkpt lat="42.81789" lon="0.87586">
        <ele>2397</ele>
        <time>2010-01-01T06:41:31Z</time>
      </trkpt>
      <trkpt lat="42.81788" lon="0.87584">
        <ele>2397</ele>
        <time>2010-01-01T06:41:32Z</time>
      </trkpt>
      <trkpt lat="42.81787" lon="0.87581">
        <ele>2398</ele>
        <time>2010-01-01T06:41:33Z</time>
      </trkpt>
      <trkpt lat="42.81785" lon="0.87578">
        <ele>2398</ele>
        <time>2010-01-01T06:41:34Z</time>
      </trkpt>
      <trkpt lat="42.81783" lon="0.87562">
        <ele>2401</ele>
        <time>2010-01-01T06:41:39Z</time>
      </trkpt>
      <trkpt lat="42.81783" lon="0.87561">
        <ele>2401</ele>
        <time>2010-01-01T06:41:39Z</time>
      </trkpt>
      <trkpt lat="42.81777" lon="0.87554">
        <ele>2402</ele>
        <time>2010-01-01T06:41:42Z</time>
      </trkpt>
      <trkpt lat="42.81776" lon="0.87553">
        <ele>2402</ele>
        <time>2010-01-01T06:41:42Z</time>
      </trkpt>
      <trkpt lat="42.81753" lon="0.87545">
        <ele>2398</ele>
        <time>2010-01-01T06:41:52Z</time>
      </trkpt>
      <trkpt lat="42.81736" lon="0.87544">
        <ele>2393</ele>
        <time>2010-01-01T06:41:59Z</time>
      </trkpt>
      <trkpt lat="42.81728" lon="0.87543">
        <ele>2390</ele>
        <time>2010-01-01T06:42:02Z</time>
      </trkpt>
      <trkpt lat="42.81723" lon="0.87544">
        <ele>2389</ele>
        <time>2010-01-01T06:42:04Z</time>
      </trkpt>
      <trkpt lat="42.81716" lon="0.87535">
        <ele>2390</ele>
        <time>2010-01-01T06:42:08Z</time>
      </trkpt>
      <trkpt lat="42.81711" lon="0.87524">
        <ele>2392</ele>
        <time>2010-01-01T06:42:12Z</time>
      </trkpt>
      <trkpt lat="42.8171" lon="0.87521">
        <ele>2392</ele>
        <time>2010-01-01T06:42:13Z</time>
      </trkpt>
      <trkpt lat="42.81699" lon="0.87511">
        <ele>2393</ele>
        <time>2010-01-01T06:42:18Z</time>
      </trkpt>
      <trkpt lat="42.81695" lon="0.87513">
        <ele>2392</ele>
        <time>2010-01-01T06:42:19Z</time>
      </trkpt>
      <trkpt lat="42.81693" lon="0.87513">
        <ele>2392</ele>
        <time>2010-01-01T06:42:20Z</time>
      </trkpt>
      <trkpt lat="42.81687" lon="0.87519">
        <ele>2392</ele>
        <time>2010-01-01T06:42:23Z</time>
      </trkpt>
      <trkpt lat="42.81682" lon="0.87532">
        <ele>2390</ele>
        <time>2010-01-01T06:42:27Z</time>
      </trkpt>
      <trkpt lat="42.81677" lon="0.8754">
        <ele>2388</ele>
        <time>2010-01-01T06:42:30Z</time>
      </trkpt>
      <trkpt lat="42.81666" lon="0.87543">
        <ele>2388</ele>
        <time>2010-01-01T06:42:35Z</time>
      </trkpt>
      <trkpt lat="42.81655" lon="0.87545">
        <ele>2392</ele>
        <time>2010-01-01T06:42:39Z</time>
      </trkpt>
      <trkpt lat="42.81645" lon="0.87547">
        <ele>2395</ele>
        <time>2010-01-01T06:42:43Z</time>
      </trkpt>
      <trkpt lat="42.8164" lon="0.8755">
        <ele>2395</ele>
        <time>2010-01-01T06:42:45Z</time>
      </trkpt>
      <trkpt lat="42.81634" lon="0.87554">
        <ele>2397</ele>
        <time>2010-01-01T06:42:48Z</time>
      </trkpt>
      <trkpt lat="42.8163" lon="0.87557">
        <ele>2400</ele>
        <time>2010-01-01T06:42:50Z</time>
      </trkpt>
      <trkpt lat="42.81623" lon="0.87558">
        <ele>2404</ele>
        <time>2010-01-01T06:42:53Z</time>
      </trkpt>
      <trkpt lat="42.81608" lon="0.87563">
        <ele>2413</ele>
        <time>2010-01-01T06:42:59Z</time>
      </trkpt>
      <trkpt lat="42.81597" lon="0.87568">
        <ele>2422</ele>
        <time>2010-01-01T06:43:04Z</time>
      </trkpt>
      <trkpt lat="42.81587" lon="0.87573">
        <ele>2430</ele>
        <time>2010-01-01T06:43:08Z</time>
      </trkpt>
      <trkpt lat="42.81585" lon="0.87582">
        <ele>2427</ele>
        <time>2010-01-01T06:43:11Z</time>
      </trkpt>
      <trkpt lat="42.8158" lon="0.87589">
        <ele>2427</ele>
        <time>2010-01-01T06:43:13Z</time>
      </trkpt>
      <trkpt lat="42.81578" lon="0.87594">
        <ele>2426</ele>
        <time>2010-01-01T06:43:15Z</time>
      </trkpt>
      <trkpt lat="42.8157" lon="0.87609">
        <ele>2424</ele>
        <time>2010-01-01T06:43:20Z</time>
      </trkpt>
      <trkpt lat="42.81569" lon="0.8761">
        <ele>2424</ele>
        <time>2010-01-01T06:43:21Z</time>
      </trkpt>
      <trkpt lat="42.81567" lon="0.87625">
        <ele>2418</ele>
        <time>2010-01-01T06:43:25Z</time>
      </trkpt>
      <trkpt lat="42.81567" lon="0.87627">
        <ele>2417</ele>
        <time>2010-01-01T06:43:26Z</time>
      </trkpt>
      <trkpt lat="42.8157" lon="0.87632">
        <ele>2411</ele>
        <time>2010-01-01T06:43:28Z</time>
      </trkpt>
      <trkpt lat="42.8157" lon="0.87633">
        <ele>2411</ele>
        <time>2010-01-01T06:43:28Z</time>
      </trkpt>
      <trkpt lat="42.81567" lon="0.87636">
        <ele>2412</ele>
        <time>2010-01-01T06:43:30Z</time>
      </trkpt>
      <trkpt lat="42.81575" lon="0.8764">
        <ele>2402</ele>
        <time>2010-01-01T06:43:33Z</time>
      </trkpt>
      <trkpt lat="42.81568" lon="0.87645">
        <ele>2407</ele>
        <time>2010-01-01T06:43:36Z</time>
      </trkpt>
      <trkpt lat="42.81566" lon="0.87646">
        <ele>2409</ele>
        <time>2010-01-01T06:43:37Z</time>
      </trkpt>
      <trkpt lat="42.81564" lon="0.87646">
        <ele>2410</ele>
        <time>2010-01-01T06:43:38Z</time>
      </trkpt>
      <trkpt lat="42.81559" lon="0.87645">
        <ele>2415</ele>
        <time>2010-01-01T06:43:40Z</time>
      </trkpt>
      <trkpt lat="42.81551" lon="0.87646">
        <ele>2420</ele>
        <time>2010-01-01T06:43:43Z</time>
      </trkpt>
      <trkpt lat="42.81547" lon="0.8765">
        <ele>2419</ele>
        <time>2010-01-01T06:43:45Z</time>
      </trkpt>
      <trkpt lat="42.81539" lon="0.87659">
        <ele>2418</ele>
        <time>2010-01-01T06:43:49Z</time>
      </trkpt>
      <trkpt lat="42.81535" lon="0.87661">
        <ele>2418</ele>
        <time>2010-01-01T06:43:51Z</time>
      </trkpt>
      <trkpt lat="42.81532" lon="0.8767">
        <ele>2417</ele>
        <time>2010-01-01T06:43:54Z</time>
      </trkpt>
      <trkpt lat="42.81528" lon="0.87672">
        <ele>2418</ele>
        <time>2010-01-01T06:43:56Z</time>
      </trkpt>
      <trkpt lat="42.81524" lon="0.87677">
        <ele>2421</ele>
        <time>2010-01-01T06:43:58Z</time>
      </trkpt>
      <trkpt lat="42.8152" lon="0.87683">
        <ele>2425</ele>
        <time>2010-01-01T06:44:00Z</time>
      </trkpt>
      <trkpt lat="42.81518" lon="0.87677">
        <ele>2426</ele>
        <time>2010-01-01T06:44:02Z</time>
      </trkpt>
      <trkpt lat="42.81511" lon="0.8768">
        <ele>2431</ele>
        <time>2010-01-01T06:44:05Z</time>
      </trkpt>
      <trkpt lat="42.81511" lon="0.87682">
        <ele>2431</ele>
        <time>2010-01-01T06:44:05Z</time>
      </trkpt>
      <trkpt lat="42.81511" lon="0.87679">
        <ele>2431</ele>
        <time>2010-01-01T06:44:06Z</time>
      </trkpt>
      <trkpt lat="42.81511" lon="0.87671">
        <ele>2431</ele>
        <time>2010-01-01T06:44:09Z</time>
      </trkpt>
      <trkpt lat="42.81503" lon="0.87667">
        <ele>2437</ele>
        <time>2010-01-01T06:44:12Z</time>
      </trkpt>
      <trkpt lat="42.81496" lon="0.87666">
        <ele>2441</ele>
        <time>2010-01-01T06:44:14Z</time>
      </trkpt>
      <trkpt lat="42.81494" lon="0.87668">
        <ele>2443</ele>
        <time>2010-01-01T06:44:15Z</time>
      </trkpt>
      <trkpt lat="42.81494" lon="0.87669">
        <ele>2443</ele>
        <time>2010-01-01T06:44:16Z</time>
      </trkpt>
      <trkpt lat="42.81491" lon="0.87671">
        <ele>2445</ele>
        <time>2010-01-01T06:44:17Z</time>
      </trkpt>
      <trkpt lat="42.81492" lon="0.87676">
        <ele>2445</ele>
        <time>2010-01-01T06:44:19Z</time>
      </trkpt>
      <trkpt lat="42.81493" lon="0.87678">
        <ele>2445</ele>
        <time>2010-01-01T06:44:19Z</time>
      </trkpt>
      <trkpt lat="42.81493" lon="0.87688">
        <ele>2445</ele>
        <time>2010-01-01T06:44:22Z</time>
      </trkpt>
      <trkpt lat="42.81493" lon="0.87689">
        <ele>2445</ele>
        <time>2010-01-01T06:44:23Z</time>
      </trkpt>
      <trkpt lat="42.8149" lon="0.87688">
        <ele>2447</ele>
        <time>2010-01-01T06:44:24Z</time>
      </trkpt>
      <trkpt lat="42.81487" lon="0.87693">
        <ele>2449</ele>
        <time>2010-01-01T06:44:26Z</time>
      </trkpt>
      <trkpt lat="42.8149" lon="0.87702">
        <ele>2448</ele>
        <time>2010-01-01T06:44:29Z</time>
      </trkpt>
      <trkpt lat="42.8149" lon="0.8771">
        <ele>2449</ele>
        <time>2010-01-01T06:44:31Z</time>
      </trkpt>
      <trkpt lat="42.81495" lon="0.87719">
        <ele>2448</ele>
        <time>2010-01-01T06:44:34Z</time>
      </trkpt>
      <trkpt lat="42.81496" lon="0.87736">
        <ele>2449</ele>
        <time>2010-01-01T06:44:39Z</time>
      </trkpt>
      <trkpt lat="42.81496" lon="0.87737">
        <ele>2449</ele>
        <time>2010-01-01T06:44:39Z</time>
      </trkpt>
      <trkpt lat="42.81496" lon="0.87737">
        <ele>2449</ele>
        <time>2010-01-01T06:44:40Z</time>
      </trkpt>
      <trkpt lat="42.81496" lon="0.87737">
        <ele>2449</ele>
        <time>2010-01-01T06:44:40Z</time>
      </trkpt>
      <trkpt lat="42.81496" lon="0.87738">
        <ele>2449</ele>
        <time>2010-01-01T06:44:40Z</time>
      </trkpt>
      <trkpt lat="42.81496" lon="0.87737">
        <ele>2449</ele>
        <time>2010-01-01T06:44:40Z</time>
      </trkpt>
      <trkpt lat="42.81496" lon="0.87737">
        <ele>2449</ele>
        <time>2010-01-01T06:44:40Z</time>
      </trkpt>
      <trkpt lat="42.81498" lon="0.87737">
        <ele>2448</ele>
        <time>2010-01-01T06:44:41Z</time>
      </trkpt>
      <trkpt lat="42.81498" lon="0.87733">
        <ele>2447</ele>
        <time>2010-01-01T06:44:42Z</time>
      </trkpt>
      <trkpt lat="42.81499" lon="0.87733">
        <ele>2447</ele>
        <time>2010-01-01T06:44:42Z</time>
      </trkpt>
      <trkpt lat="42.81499" lon="0.87733">
        <ele>2447</ele>
        <time>2010-01-01T06:44:42Z</time>
      </trkpt>
      <trkpt lat="42.81498" lon="0.87733">
        <ele>2447</ele>
        <time>2010-01-01T06:44:43Z</time>
      </trkpt>
      <trkpt lat="42.81497" lon="0.87734">
        <ele>2448</ele>
        <time>2010-01-01T06:44:43Z</time>
      </trkpt>
      <trkpt lat="42.81496" lon="0.87734">
        <ele>2449</ele>
        <time>2010-01-01T06:44:44Z</time>
      </trkpt>
      <trkpt lat="42.81497" lon="0.87737">
        <ele>2448</ele>
        <time>2010-01-01T06:44:45Z</time>
      </trkpt>
      <trkpt lat="42.81497" lon="0.87736">
        <ele>2448</ele>
        <time>2010-01-01T06:44:45Z</time>
      </trkpt>
      <trkpt lat="42.81497" lon="0.87734">
        <ele>2448</ele>
        <time>2010-01-01T06:44:45Z</time>
      </trkpt>
      <trkpt lat="42.81496" lon="0.87736">
        <ele>2448</ele>
        <time>2010-01-01T06:44:46Z</time>
      </trkpt>
      <trkpt lat="42.81496" lon="0.87735">
        <ele>2448</ele>
        <time>2010-01-01T06:44:46Z</time>
      </trkpt>
      <trkpt lat="42.81496" lon="0.87735">
        <ele>2448</ele>
        <time>2010-01-01T06:44:46Z</time>
      </trkpt>
      <trkpt lat="42.81496" lon="0.87735">
        <ele>2448</ele>
        <time>2010-01-01T06:44:46Z</time>
      </trkpt>
      <trkpt lat="42.81496" lon="0.87735">
        <ele>2448</ele>
        <time>2010-01-01T06:44:46Z</time>
      </trkpt>
      <trkpt lat="42.81496" lon="0.87735">
        <ele>2449</ele>
        <time>2010-01-01T06:44:46Z</time>
      </trkpt>
      <trkpt lat="42.81496" lon="0.87735">
        <ele>2449</ele>
        <time>2010-01-01T06:44:46Z</time>
      </trkpt>
      <trkpt lat="42.81496" lon="0.87736">
        <ele>2448</ele>
        <time>2010-01-01T06:44:47Z</time>
      </trkpt>
      <trkpt lat="42.81497" lon="0.87735">
        <ele>2448</ele>
        <time>2010-01-01T06:44:47Z</time>
      </trkpt>
      <trkpt lat="42.81497" lon="0.87736">
        <ele>2448</ele>
        <time>2010-01-01T06:44:47Z</time>
      </trkpt>
      <trkpt lat="42.81498" lon="0.87736">
        <ele>2448</ele>
        <time>2010-01-01T06:44:47Z</time>
      </trkpt>
      <trkpt lat="42.81497" lon="0.87734">
        <ele>2448</ele>
        <time>2010-01-01T06:44:48Z</time>
      </trkpt>
      <trkpt lat="42.81497" lon="0.87735">
        <ele>2448</ele>
        <time>2010-01-01T06:44:48Z</time>
      </trkpt>
      <trkpt lat="42.81497" lon="0.87734">
        <ele>2448</ele>
        <time>2010-01-01T06:44:48Z</time>
      </trkpt>
      <trkpt lat="42.81495" lon="0.87733">
        <ele>2449</ele>
        <time>2010-01-01T06:44:49Z</time>
      </trkpt>
      <trkpt lat="42.81492" lon="0.8773">
        <ele>2450</ele>
        <time>2010-01-01T06:44:51Z</time>
      </trkpt>
      <trkpt lat="42.8149" lon="0.87726">
        <ele>2451</ele>
        <time>2010-01-01T06:44:52Z</time>
      </trkpt>
      <trkpt lat="42.81487" lon="0.87724">
        <ele>2452</ele>
        <time>2010-01-01T06:44:53Z</time>
      </trkpt>
      <trkpt lat="42.81484" lon="0.87725">
        <ele>2454</ele>
        <time>2010-01-01T06:44:55Z</time>
      </trkpt>
      <trkpt lat="42.81475" lon="0.87717">
        <ele>2457</ele>
        <time>2010-01-01T06:44:59Z</time>
      </trkpt>
      <trkpt lat="42.81471" lon="0.87707">
        <ele>2459</ele>
        <time>2010-01-01T06:45:02Z</time>
      </trkpt>
      <trkpt lat="42.81469" lon="0.87701">
        <ele>2460</ele>
        <time>2010-01-01T06:45:04Z</time>
      </trkpt>
      <trkpt lat="42.81469" lon="0.87697">
        <ele>2460</ele>
        <time>2010-01-01T06:45:05Z</time>
      </trkpt>
      <trkpt lat="42.81468" lon="0.87693">
        <ele>2460</ele>
        <time>2010-01-01T06:45:07Z</time>
      </trkpt>
      <trkpt lat="42.81466" lon="0.87692">
        <ele>2460</ele>
        <time>2010-01-01T06:45:07Z</time>
      </trkpt>
      <trkpt lat="42.81463" lon="0.87694">
        <ele>2460</ele>
        <time>2010-01-01T06:45:09Z</time>
      </trkpt>
      <trkpt lat="42.81462" lon="0.87703">
        <ele>2460</ele>
        <time>2010-01-01T06:45:11Z</time>
      </trkpt>
      <trkpt lat="42.81455" lon="0.87706">
        <ele>2461</ele>
        <time>2010-01-01T06:45:14Z</time>
      </trkpt>
      <trkpt lat="42.81453" lon="0.87706">
        <ele>2461</ele>
        <time>2010-01-01T06:45:15Z</time>
      </trkpt>
      <trkpt lat="42.81447" lon="0.87709">
        <ele>2461</ele>
        <time>2010-01-01T06:45:17Z</time>
      </trkpt>
      <trkpt lat="42.81443" lon="0.87711">
        <ele>2461</ele>
        <time>2010-01-01T06:45:19Z</time>
      </trkpt>
      <trkpt lat="42.81441" lon="0.8771">
        <ele>2461</ele>
        <time>2010-01-01T06:45:20Z</time>
      </trkpt>
      <trkpt lat="42.81439" lon="0.87711">
        <ele>2461</ele>
        <time>2010-01-01T06:45:21Z</time>
      </trkpt>
      <trkpt lat="42.81439" lon="0.87712">
        <ele>2461</ele>
        <time>2010-01-01T06:45:21Z</time>
      </trkpt>
      <trkpt lat="42.81438" lon="0.87712">
        <ele>2461</ele>
        <time>2010-01-01T06:45:21Z</time>
      </trkpt>
      <trkpt lat="42.81439" lon="0.87711">
        <ele>2461</ele>
        <time>2010-01-01T06:45:22Z</time>
      </trkpt>
      <trkpt lat="42.81439" lon="0.87711">
        <ele>2461</ele>
        <time>2010-01-01T06:45:22Z</time>
      </trkpt>
      <trkpt lat="42.81437" lon="0.8771">
        <ele>2461</ele>
        <time>2010-01-01T06:45:23Z</time>
      </trkpt>
      <trkpt lat="42.81436" lon="0.87709">
        <ele>2461</ele>
        <time>2010-01-01T06:45:23Z</time>
      </trkpt>
      <trkpt lat="42.81435" lon="0.87707">
        <ele>2461</ele>
        <time>2010-01-01T06:45:24Z</time>
      </trkpt>
      <trkpt lat="42.81435" lon="0.87706">
        <ele>2461</ele>
        <time>2010-01-01T06:45:24Z</time>
      </trkpt>
      <trkpt lat="42.81434" lon="0.87705">
        <ele>2461</ele>
        <time>2010-01-01T06:45:25Z</time>
      </trkpt>
      <trkpt lat="42.81433" lon="0.87706">
        <ele>2461</ele>
        <time>2010-01-01T06:45:25Z</time>
      </trkpt>
      <trkpt lat="42.81432" lon="0.87706">
        <ele>2461</ele>
        <time>2010-01-01T06:45:26Z</time>
      </trkpt>
      <trkpt lat="42.81432" lon="0.87706">
        <ele>2461</ele>
        <time>2010-01-01T06:45:26Z</time>
      </trkpt>
      <trkpt lat="42.81429" lon="0.87703">
        <ele>2461</ele>
        <time>2010-01-01T06:45:27Z</time>
      </trkpt>
      <trkpt lat="42.81426" lon="0.87701">
        <ele>2461</ele>
        <time>2010-01-01T06:45:29Z</time>
      </trkpt>
      <trkpt lat="42.81419" lon="0.87697">
        <ele>2461</ele>
        <time>2010-01-01T06:45:32Z</time>
      </trkpt>
      <trkpt lat="42.81416" lon="0.87694">
        <ele>2460</ele>
        <time>2010-01-01T06:45:33Z</time>
      </trkpt>
      <trkpt lat="42.81416" lon="0.87695">
        <ele>2460</ele>
        <time>2010-01-01T06:45:34Z</time>
      </trkpt>
      <trkpt lat="42.81416" lon="0.87695">
        <ele>2460</ele>
        <time>2010-01-01T06:45:34Z</time>
      </trkpt>
      <trkpt lat="42.81412" lon="0.87693">
        <ele>2460</ele>
        <time>2010-01-01T06:45:35Z</time>
      </trkpt>
      <trkpt lat="42.8141" lon="0.87691">
        <ele>2460</ele>
        <time>2010-01-01T06:45:37Z</time>
      </trkpt>
      <trkpt lat="42.81409" lon="0.87689">
        <ele>2460</ele>
        <time>2010-01-01T06:45:37Z</time>
      </trkpt>
      <trkpt lat="42.81405" lon="0.87685">
        <ele>2459</ele>
        <time>2010-01-01T06:45:39Z</time>
      </trkpt>
      <trkpt lat="42.81404" lon="0.87684">
        <ele>2459</ele>
        <time>2010-01-01T06:45:40Z</time>
      </trkpt>
      <trkpt lat="42.81403" lon="0.87681">
        <ele>2460</ele>
        <time>2010-01-01T06:45:41Z</time>
      </trkpt>
      <trkpt lat="42.81396" lon="0.87674">
        <ele>2459</ele>
        <time>2010-01-01T06:45:44Z</time>
      </trkpt>
      <trkpt lat="42.81385" lon="0.87676">
        <ele>2458</ele>
        <time>2010-01-01T06:45:48Z</time>
      </trkpt>
      <trkpt lat="42.81384" lon="0.87677">
        <ele>2457</ele>
        <time>2010-01-01T06:45:49Z</time>
      </trkpt>
      <trkpt lat="42.81383" lon="0.87677">
        <ele>2457</ele>
        <time>2010-01-01T06:45:50Z</time>
      </trkpt>
      <trkpt lat="42.8138" lon="0.87675">
        <ele>2457</ele>
        <time>2010-01-01T06:45:51Z</time>
      </trkpt>
      <trkpt lat="42.81371" lon="0.87677">
        <ele>2456</ele>
        <time>2010-01-01T06:45:54Z</time>
      </trkpt>
      <trkpt lat="42.81372" lon="0.87679">
        <ele>2456</ele>
        <time>2010-01-01T06:45:55Z</time>
      </trkpt>
      <trkpt lat="42.81374" lon="0.87683">
        <ele>2456</ele>
        <time>2010-01-01T06:45:57Z</time>
      </trkpt>
      <trkpt lat="42.81373" lon="0.87685">
        <ele>2455</ele>
        <time>2010-01-01T06:45:57Z</time>
      </trkpt>
      <trkpt lat="42.81363" lon="0.87692">
        <ele>2453</ele>
        <time>2010-01-01T06:46:02Z</time>
      </trkpt>
      <trkpt lat="42.8136" lon="0.8769">
        <ele>2453</ele>
        <time>2010-01-01T06:46:03Z</time>
      </trkpt>
      <trkpt lat="42.81352" lon="0.87691">
        <ele>2453</ele>
        <time>2010-01-01T06:46:06Z</time>
      </trkpt>
      <trkpt lat="42.81339" lon="0.877">
        <ele>2451</ele>
        <time>2010-01-01T06:46:12Z</time>
      </trkpt>
      <trkpt lat="42.81338" lon="0.877">
        <ele>2451</ele>
        <time>2010-01-01T06:46:13Z</time>
      </trkpt>
      <trkpt lat="42.81336" lon="0.877">
        <ele>2451</ele>
        <time>2010-01-01T06:46:13Z</time>
      </trkpt>
      <trkpt lat="42.81333" lon="0.87702">
        <ele>2451</ele>
        <time>2010-01-01T06:46:15Z</time>
      </trkpt>
      <trkpt lat="42.81328" lon="0.87705">
        <ele>2451</ele>
        <time>2010-01-01T06:46:17Z</time>
      </trkpt>
      <trkpt lat="42.81322" lon="0.87709">
        <ele>2451</ele>
        <time>2010-01-01T06:46:20Z</time>
      </trkpt>
      <trkpt lat="42.81312" lon="0.87709">
        <ele>2453</ele>
        <time>2010-01-01T06:46:23Z</time>
      </trkpt>
      <trkpt lat="42.81296" lon="0.87712">
        <ele>2454</ele>
        <time>2010-01-01T06:46:30Z</time>
      </trkpt>
      <trkpt lat="42.81276" lon="0.8771">
        <ele>2457</ele>
        <time>2010-01-01T06:46:38Z</time>
      </trkpt>
      <trkpt lat="42.81265" lon="0.87711">
        <ele>2455</ele>
        <time>2010-01-01T06:46:43Z</time>
      </trkpt>
      <trkpt lat="42.81259" lon="0.87713">
        <ele>2454</ele>
        <time>2010-01-01T06:46:45Z</time>
      </trkpt>
      <trkpt lat="42.81253" lon="0.8771">
        <ele>2454</ele>
        <time>2010-01-01T06:46:48Z</time>
      </trkpt>
      <trkpt lat="42.81245" lon="0.87708">
        <ele>2452</ele>
        <time>2010-01-01T06:46:51Z</time>
      </trkpt>
      <trkpt lat="42.81241" lon="0.87708">
        <ele>2451</ele>
        <time>2010-01-01T06:46:52Z</time>
      </trkpt>
      <trkpt lat="42.81232" lon="0.87714">
        <ele>2448</ele>
        <time>2010-01-01T06:46:56Z</time>
      </trkpt>
      <trkpt lat="42.81231" lon="0.87715">
        <ele>2448</ele>
        <time>2010-01-01T06:46:57Z</time>
      </trkpt>
      <trkpt lat="42.81225" lon="0.87722">
        <ele>2446</ele>
        <time>2010-01-01T06:47:00Z</time>
      </trkpt>
      <trkpt lat="42.81224" lon="0.87727">
        <ele>2446</ele>
        <time>2010-01-01T06:47:01Z</time>
      </trkpt>
      <trkpt lat="42.81223" lon="0.87729">
        <ele>2445</ele>
        <time>2010-01-01T06:47:02Z</time>
      </trkpt>
      <trkpt lat="42.81223" lon="0.87728">
        <ele>2445</ele>
        <time>2010-01-01T06:47:02Z</time>
      </trkpt>
      <trkpt lat="42.81222" lon="0.87725">
        <ele>2445</ele>
        <time>2010-01-01T06:47:03Z</time>
      </trkpt>
      <trkpt lat="42.81222" lon="0.87719">
        <ele>2445</ele>
        <time>2010-01-01T06:47:05Z</time>
      </trkpt>
      <trkpt lat="42.81221" lon="0.87719">
        <ele>2445</ele>
        <time>2010-01-01T06:47:05Z</time>
      </trkpt>
      <trkpt lat="42.81219" lon="0.87718">
        <ele>2444</ele>
        <time>2010-01-01T06:47:06Z</time>
      </trkpt>
      <trkpt lat="42.8122" lon="0.87718">
        <ele>2445</ele>
        <time>2010-01-01T06:47:07Z</time>
      </trkpt>
      <trkpt lat="42.81221" lon="0.87719">
        <ele>2445</ele>
        <time>2010-01-01T06:47:07Z</time>
      </trkpt>
      <trkpt lat="42.81224" lon="0.87727">
        <ele>2446</ele>
        <time>2010-01-01T06:47:10Z</time>
      </trkpt>
      <trkpt lat="42.81225" lon="0.87727">
        <ele>2446</ele>
        <time>2010-01-01T06:47:10Z</time>
      </trkpt>
      <trkpt lat="42.81226" lon="0.87739">
        <ele>2445</ele>
        <time>2010-01-01T06:47:13Z</time>
      </trkpt>
      <trkpt lat="42.81218" lon="0.87735">
        <ele>2443</ele>
        <time>2010-01-01T06:47:17Z</time>
      </trkpt>
      <trkpt lat="42.81218" lon="0.87735">
        <ele>2443</ele>
        <time>2010-01-01T06:47:17Z</time>
      </trkpt>
      <trkpt lat="42.81215" lon="0.87734">
        <ele>2442</ele>
        <time>2010-01-01T06:47:18Z</time>
      </trkpt>
      <trkpt lat="42.81206" lon="0.87728">
        <ele>2438</ele>
        <time>2010-01-01T06:47:22Z</time>
      </trkpt>
      <trkpt lat="42.81205" lon="0.87728">
        <ele>2437</ele>
        <time>2010-01-01T06:47:22Z</time>
      </trkpt>
      <trkpt lat="42.81199" lon="0.87729">
        <ele>2435</ele>
        <time>2010-01-01T06:47:25Z</time>
      </trkpt>
      <trkpt lat="42.81197" lon="0.8773">
        <ele>2433</ele>
        <time>2010-01-01T06:47:26Z</time>
      </trkpt>
      <trkpt lat="42.81194" lon="0.8773">
        <ele>2432</ele>
        <time>2010-01-01T06:47:27Z</time>
      </trkpt>
      <trkpt lat="42.81193" lon="0.87731">
        <ele>2431</ele>
        <time>2010-01-01T06:47:27Z</time>
      </trkpt>
      <trkpt lat="42.81187" lon="0.87734">
        <ele>2427</ele>
        <time>2010-01-01T06:47:30Z</time>
      </trkpt>
      <trkpt lat="42.81187" lon="0.87733">
        <ele>2427</ele>
        <time>2010-01-01T06:47:30Z</time>
      </trkpt>
      <trkpt lat="42.81186" lon="0.87736">
        <ele>2427</ele>
        <time>2010-01-01T06:47:31Z</time>
      </trkpt>
      <trkpt lat="42.81186" lon="0.87735">
        <ele>2427</ele>
        <time>2010-01-01T06:47:31Z</time>
      </trkpt>
      <trkpt lat="42.8119" lon="0.87736">
        <ele>2429</ele>
        <time>2010-01-01T06:47:33Z</time>
      </trkpt>
      <trkpt lat="42.8119" lon="0.87736">
        <ele>2429</ele>
        <time>2010-01-01T06:47:33Z</time>
      </trkpt>
      <trkpt lat="42.8119" lon="0.87737">
        <ele>2429</ele>
        <time>2010-01-01T06:47:33Z</time>
      </trkpt>
      <trkpt lat="42.81191" lon="0.87737">
        <ele>2430</ele>
        <time>2010-01-01T06:47:34Z</time>
      </trkpt>
      <trkpt lat="42.8119" lon="0.87737">
        <ele>2429</ele>
        <time>2010-01-01T06:47:34Z</time>
      </trkpt>
      <trkpt lat="42.81191" lon="0.87736">
        <ele>2430</ele>
        <time>2010-01-01T06:47:34Z</time>
      </trkpt>
      <trkpt lat="42.81191" lon="0.87736">
        <ele>2430</ele>
        <time>2010-01-01T06:47:35Z</time>
      </trkpt>
      <trkpt lat="42.81188" lon="0.87737">
        <ele>2428</ele>
        <time>2010-01-01T06:47:36Z</time>
      </trkpt>
      <trkpt lat="42.81189" lon="0.87738">
        <ele>2428</ele>
        <time>2010-01-01T06:47:36Z</time>
      </trkpt>
      <trkpt lat="42.81187" lon="0.87738">
        <ele>2427</ele>
        <time>2010-01-01T06:47:37Z</time>
      </trkpt>
      <trkpt lat="42.81187" lon="0.87738">
        <ele>2427</ele>
        <time>2010-01-01T06:47:37Z</time>
      </trkpt>
      <trkpt lat="42.81187" lon="0.87737">
        <ele>2427</ele>
        <time>2010-01-01T06:47:38Z</time>
      </trkpt>
      <trkpt lat="42.81187" lon="0.87737">
        <ele>2427</ele>
        <time>2010-01-01T06:47:38Z</time>
      </trkpt>
      <trkpt lat="42.81185" lon="0.87737">
        <ele>2426</ele>
        <time>2010-01-01T06:47:38Z</time>
      </trkpt>
      <trkpt lat="42.81188" lon="0.87736">
        <ele>2428</ele>
        <time>2010-01-01T06:47:40Z</time>
      </trkpt>
      <trkpt lat="42.81188" lon="0.87736">
        <ele>2428</ele>
        <time>2010-01-01T06:47:40Z</time>
      </trkpt>
      <trkpt lat="42.81188" lon="0.87735">
        <ele>2428</ele>
        <time>2010-01-01T06:47:40Z</time>
      </trkpt>
      <trkpt lat="42.81186" lon="0.87737">
        <ele>2427</ele>
        <time>2010-01-01T06:47:41Z</time>
      </trkpt>
      <trkpt lat="42.81187" lon="0.87736">
        <ele>2427</ele>
        <time>2010-01-01T06:47:41Z</time>
      </trkpt>
      <trkpt lat="42.81187" lon="0.87736">
        <ele>2427</ele>
        <time>2010-01-01T06:47:41Z</time>
      </trkpt>
      <trkpt lat="42.81188" lon="0.87737">
        <ele>2428</ele>
        <time>2010-01-01T06:47:42Z</time>
      </trkpt>
      <trkpt lat="42.81189" lon="0.87737">
        <ele>2428</ele>
        <time>2010-01-01T06:47:42Z</time>
      </trkpt>
      <trkpt lat="42.81187" lon="0.87738">
        <ele>2427</ele>
        <time>2010-01-01T06:47:43Z</time>
      </trkpt>
      <trkpt lat="42.81189" lon="0.87737">
        <ele>2429</ele>
        <time>2010-01-01T06:47:43Z</time>
      </trkpt>
      <trkpt lat="42.8119" lon="0.87736">
        <ele>2429</ele>
        <time>2010-01-01T06:47:44Z</time>
      </trkpt>
      <trkpt lat="42.81191" lon="0.87736">
        <ele>2430</ele>
        <time>2010-01-01T06:47:45Z</time>
      </trkpt>
      <trkpt lat="42.81189" lon="0.87737">
        <ele>2429</ele>
        <time>2010-01-01T06:47:45Z</time>
      </trkpt>
      <trkpt lat="42.81189" lon="0.87736">
        <ele>2428</ele>
        <time>2010-01-01T06:47:46Z</time>
      </trkpt>
      <trkpt lat="42.81188" lon="0.87735">
        <ele>2428</ele>
        <time>2010-01-01T06:47:46Z</time>
      </trkpt>
      <trkpt lat="42.81186" lon="0.87735">
        <ele>2427</ele>
        <time>2010-01-01T06:47:47Z</time>
      </trkpt>
      <trkpt lat="42.81188" lon="0.87734">
        <ele>2428</ele>
        <time>2010-01-01T06:47:48Z</time>
      </trkpt>
      <trkpt lat="42.81188" lon="0.87734">
        <ele>2428</ele>
        <time>2010-01-01T06:47:48Z</time>
      </trkpt>
      <trkpt lat="42.81188" lon="0.87734">
        <ele>2428</ele>
        <time>2010-01-01T06:47:48Z</time>
      </trkpt>
      <trkpt lat="42.81189" lon="0.87735">
        <ele>2428</ele>
        <time>2010-01-01T06:47:49Z</time>
      </trkpt>
      <trkpt lat="42.81189" lon="0.87737">
        <ele>2429</ele>
        <time>2010-01-01T06:47:49Z</time>
      </trkpt>
      <trkpt lat="42.81188" lon="0.87735">
        <ele>2428</ele>
        <time>2010-01-01T06:47:50Z</time>
      </trkpt>
      <trkpt lat="42.81187" lon="0.87734">
        <ele>2428</ele>
        <time>2010-01-01T06:47:50Z</time>
      </trkpt>
      <trkpt lat="42.81188" lon="0.87736">
        <ele>2428</ele>
        <time>2010-01-01T06:47:51Z</time>
      </trkpt>
      <trkpt lat="42.81189" lon="0.87736">
        <ele>2429</ele>
        <time>2010-01-01T06:47:51Z</time>
      </trkpt>
      <trkpt lat="42.8119" lon="0.87736">
        <ele>2429</ele>
        <time>2010-01-01T06:47:51Z</time>
      </trkpt>
      <trkpt lat="42.81192" lon="0.87737">
        <ele>2430</ele>
        <time>2010-01-01T06:47:52Z</time>
      </trkpt>
      <trkpt lat="42.81192" lon="0.87738">
        <ele>2430</ele>
        <time>2010-01-01T06:47:53Z</time>
      </trkpt>
      <trkpt lat="42.81192" lon="0.87737">
        <ele>2430</ele>
        <time>2010-01-01T06:47:53Z</time>
      </trkpt>
      <trkpt lat="42.81192" lon="0.87736">
        <ele>2430</ele>
        <time>2010-01-01T06:47:53Z</time>
      </trkpt>
      <trkpt lat="42.81192" lon="0.87737">
        <ele>2430</ele>
        <time>2010-01-01T06:47:53Z</time>
      </trkpt>
      <trkpt lat="42.81192" lon="0.87736">
        <ele>2430</ele>
        <time>2010-01-01T06:47:53Z</time>
      </trkpt>
      <trkpt lat="42.81193" lon="0.87737">
        <ele>2431</ele>
        <time>2010-01-01T06:47:54Z</time>
      </trkpt>
      <trkpt lat="42.81192" lon="0.87738">
        <ele>2430</ele>
        <time>2010-01-01T06:47:54Z</time>
      </trkpt>
      <trkpt lat="42.81192" lon="0.87737">
        <ele>2430</ele>
        <time>2010-01-01T06:47:54Z</time>
      </trkpt>
      <trkpt lat="42.81193" lon="0.87736">
        <ele>2431</ele>
        <time>2010-01-01T06:47:55Z</time>
      </trkpt>
      <trkpt lat="42.81193" lon="0.87734">
        <ele>2431</ele>
        <time>2010-01-01T06:47:55Z</time>
      </trkpt>
      <trkpt lat="42.81193" lon="0.87735">
        <ele>2431</ele>
        <time>2010-01-01T06:47:55Z</time>
      </trkpt>
      <trkpt lat="42.81191" lon="0.87737">
        <ele>2430</ele>
        <time>2010-01-01T06:47:56Z</time>
      </trkpt>
      <trkpt lat="42.8119" lon="0.87738">
        <ele>2429</ele>
        <time>2010-01-01T06:47:57Z</time>
      </trkpt>
      <trkpt lat="42.81189" lon="0.87738">
        <ele>2429</ele>
        <time>2010-01-01T06:47:57Z</time>
      </trkpt>
      <trkpt lat="42.81191" lon="0.87741">
        <ele>2429</ele>
        <time>2010-01-01T06:47:58Z</time>
      </trkpt>
      <trkpt lat="42.81186" lon="0.87743">
        <ele>2427</ele>
        <time>2010-01-01T06:48:00Z</time>
      </trkpt>
      <trkpt lat="42.81186" lon="0.87744">
        <ele>2426</ele>
        <time>2010-01-01T06:48:01Z</time>
      </trkpt>
      <trkpt lat="42.81181" lon="0.87746">
        <ele>2423</ele>
        <time>2010-01-01T06:48:03Z</time>
      </trkpt>
      <trkpt lat="42.81176" lon="0.8774">
        <ele>2421</ele>
        <time>2010-01-01T06:48:05Z</time>
      </trkpt>
      <trkpt lat="42.81175" lon="0.87743">
        <ele>2420</ele>
        <time>2010-01-01T06:48:06Z</time>
      </trkpt>
      <trkpt lat="42.81176" lon="0.87744">
        <ele>2420</ele>
        <time>2010-01-01T06:48:06Z</time>
      </trkpt>
      <trkpt lat="42.81175" lon="0.87745">
        <ele>2420</ele>
        <time>2010-01-01T06:48:07Z</time>
      </trkpt>
      <trkpt lat="42.81174" lon="0.87745">
        <ele>2419</ele>
        <time>2010-01-01T06:48:08Z</time>
      </trkpt>
      <trkpt lat="42.81169" lon="0.87747">
        <ele>2416</ele>
        <time>2010-01-01T06:48:10Z</time>
      </trkpt>
      <trkpt lat="42.81164" lon="0.87749">
        <ele>2414</ele>
        <time>2010-01-01T06:48:12Z</time>
      </trkpt>
      <trkpt lat="42.81158" lon="0.87759">
        <ele>2410</ele>
        <time>2010-01-01T06:48:15Z</time>
      </trkpt>
      <trkpt lat="42.81155" lon="0.87767">
        <ele>2409</ele>
        <time>2010-01-01T06:48:18Z</time>
      </trkpt>
      <trkpt lat="42.81147" lon="0.87777">
        <ele>2404</ele>
        <time>2010-01-01T06:48:22Z</time>
      </trkpt>
      <trkpt lat="42.8114" lon="0.87788">
        <ele>2400</ele>
        <time>2010-01-01T06:48:26Z</time>
      </trkpt>
      <trkpt lat="42.81135" lon="0.87794">
        <ele>2398</ele>
        <time>2010-01-01T06:48:29Z</time>
      </trkpt>
      <trkpt lat="42.81129" lon="0.87809">
        <ele>2396</ele>
        <time>2010-01-01T06:48:34Z</time>
      </trkpt>
      <trkpt lat="42.81127" lon="0.8782">
        <ele>2398</ele>
        <time>2010-01-01T06:48:37Z</time>
      </trkpt>
      <trkpt lat="42.81126" lon="0.87832">
        <ele>2400</ele>
        <time>2010-01-01T06:48:41Z</time>
      </trkpt>
      <trkpt lat="42.81124" lon="0.8783">
        <ele>2398</ele>
        <time>2010-01-01T06:48:42Z</time>
      </trkpt>
      <trkpt lat="42.81121" lon="0.87833">
        <ele>2396</ele>
        <time>2010-01-01T06:48:44Z</time>
      </trkpt>
      <trkpt lat="42.81118" lon="0.87842">
        <ele>2394</ele>
        <time>2010-01-01T06:48:46Z</time>
      </trkpt>
      <trkpt lat="42.81111" lon="0.87848">
        <ele>2389</ele>
        <time>2010-01-01T06:48:50Z</time>
      </trkpt>
      <trkpt lat="42.81105" lon="0.87852">
        <ele>2385</ele>
        <time>2010-01-01T06:48:52Z</time>
      </trkpt>
      <trkpt lat="42.81102" lon="0.87863">
        <ele>2383</ele>
        <time>2010-01-01T06:48:56Z</time>
      </trkpt>
      <trkpt lat="42.81098" lon="0.87879">
        <ele>2382</ele>
        <time>2010-01-01T06:49:01Z</time>
      </trkpt>
      <trkpt lat="42.81093" lon="0.87886">
        <ele>2380</ele>
        <time>2010-01-01T06:49:03Z</time>
      </trkpt>
      <trkpt lat="42.81089" lon="0.87894">
        <ele>2379</ele>
        <time>2010-01-01T06:49:06Z</time>
      </trkpt>
      <trkpt lat="42.81089" lon="0.87903">
        <ele>2381</ele>
        <time>2010-01-01T06:49:09Z</time>
      </trkpt>
      <trkpt lat="42.81082" lon="0.87917">
        <ele>2379</ele>
        <time>2010-01-01T06:49:14Z</time>
      </trkpt>
      <trkpt lat="42.81077" lon="0.87923">
        <ele>2378</ele>
        <time>2010-01-01T06:49:17Z</time>
      </trkpt>
      <trkpt lat="42.81075" lon="0.87923">
        <ele>2378</ele>
        <time>2010-01-01T06:49:17Z</time>
      </trkpt>
      <trkpt lat="42.81074" lon="0.87924">
        <ele>2377</ele>
        <time>2010-01-01T06:49:18Z</time>
      </trkpt>
      <trkpt lat="42.81072" lon="0.87926">
        <ele>2377</ele>
        <time>2010-01-01T06:49:19Z</time>
      </trkpt>
      <trkpt lat="42.81057" lon="0.87937">
        <ele>2373</ele>
        <time>2010-01-01T06:49:26Z</time>
      </trkpt>
      <trkpt lat="42.81054" lon="0.87943">
        <ele>2374</ele>
        <time>2010-01-01T06:49:28Z</time>
      </trkpt>
      <trkpt lat="42.81046" lon="0.87961">
        <ele>2373</ele>
        <time>2010-01-01T06:49:34Z</time>
      </trkpt>
      <trkpt lat="42.81044" lon="0.8797">
        <ele>2376</ele>
        <time>2010-01-01T06:49:37Z</time>
      </trkpt>
      <trkpt lat="42.81041" lon="0.87983">
        <ele>2376</ele>
        <time>2010-01-01T06:49:41Z</time>
      </trkpt>
      <trkpt lat="42.81035" lon="0.87989">
        <ele>2374</ele>
        <time>2010-01-01T06:49:43Z</time>
      </trkpt>
      <trkpt lat="42.81031" lon="0.87997">
        <ele>2372</ele>
        <time>2010-01-01T06:49:47Z</time>
      </trkpt>
      <trkpt lat="42.81023" lon="0.88007">
        <ele>2370</ele>
        <time>2010-01-01T06:49:51Z</time>
      </trkpt>
      <trkpt lat="42.81008" lon="0.88032">
        <ele>2368</ele>
        <time>2010-01-01T06:50:00Z</time>
      </trkpt>
      <trkpt lat="42.81005" lon="0.88037">
        <ele>2368</ele>
        <time>2010-01-01T06:50:02Z</time>
      </trkpt>
      <trkpt lat="42.81003" lon="0.88038">
        <ele>2367</ele>
        <time>2010-01-01T06:50:03Z</time>
      </trkpt>
      <trkpt lat="42.80994" lon="0.88054">
        <ele>2366</ele>
        <time>2010-01-01T06:50:09Z</time>
      </trkpt>
      <trkpt lat="42.80989" lon="0.88062">
        <ele>2365</ele>
        <time>2010-01-01T06:50:12Z</time>
      </trkpt>
      <trkpt lat="42.80979" lon="0.88068">
        <ele>2361</ele>
        <time>2010-01-01T06:50:16Z</time>
      </trkpt>
      <trkpt lat="42.80974" lon="0.88071">
        <ele>2359</ele>
        <time>2010-01-01T06:50:18Z</time>
      </trkpt>
      <trkpt lat="42.80968" lon="0.8807">
        <ele>2355</ele>
        <time>2010-01-01T06:50:21Z</time>
      </trkpt>
      <trkpt lat="42.80951" lon="0.88084">
        <ele>2353</ele>
        <time>2010-01-01T06:50:29Z</time>
      </trkpt>
      <trkpt lat="42.80945" lon="0.88092">
        <ele>2353</ele>
        <time>2010-01-01T06:50:32Z</time>
      </trkpt>
      <trkpt lat="42.80942" lon="0.88102">
        <ele>2354</ele>
        <time>2010-01-01T06:50:35Z</time>
      </trkpt>
      <trkpt lat="42.80937" lon="0.88102">
        <ele>2352</ele>
        <time>2010-01-01T06:50:37Z</time>
      </trkpt>
      <trkpt lat="42.8093" lon="0.881">
        <ele>2349</ele>
        <time>2010-01-01T06:50:40Z</time>
      </trkpt>
      <trkpt lat="42.80926" lon="0.88105">
        <ele>2349</ele>
        <time>2010-01-01T06:50:42Z</time>
      </trkpt>
      <trkpt lat="42.8092" lon="0.88115">
        <ele>2347</ele>
        <time>2010-01-01T06:50:46Z</time>
      </trkpt>
      <trkpt lat="42.80916" lon="0.88121">
        <ele>2346</ele>
        <time>2010-01-01T06:50:48Z</time>
      </trkpt>
      <trkpt lat="42.80916" lon="0.88121">
        <ele>2346</ele>
        <time>2010-01-01T06:50:48Z</time>
      </trkpt>
      <trkpt lat="42.80911" lon="0.88124">
        <ele>2343</ele>
        <time>2010-01-01T06:50:51Z</time>
      </trkpt>
      <trkpt lat="42.80906" lon="0.88139">
        <ele>2341</ele>
        <time>2010-01-01T06:50:55Z</time>
      </trkpt>
      <trkpt lat="42.80902" lon="0.88153">
        <ele>2340</ele>
        <time>2010-01-01T06:51:00Z</time>
      </trkpt>
      <trkpt lat="42.80898" lon="0.88161">
        <ele>2339</ele>
        <time>2010-01-01T06:51:03Z</time>
      </trkpt>
      <trkpt lat="42.80897" lon="0.88165">
        <ele>2339</ele>
        <time>2010-01-01T06:51:04Z</time>
      </trkpt>
      <trkpt lat="42.80888" lon="0.88192">
        <ele>2341</ele>
        <time>2010-01-01T06:51:13Z</time>
      </trkpt>
      <trkpt lat="42.80882" lon="0.88218">
        <ele>2346</ele>
        <time>2010-01-01T06:51:21Z</time>
      </trkpt>
      <trkpt lat="42.80881" lon="0.88219">
        <ele>2346</ele>
        <time>2010-01-01T06:51:21Z</time>
      </trkpt>
      <trkpt lat="42.80871" lon="0.88234">
        <ele>2345</ele>
        <time>2010-01-01T06:51:27Z</time>
      </trkpt>
      <trkpt lat="42.80864" lon="0.88238">
        <ele>2342</ele>
        <time>2010-01-01T06:51:30Z</time>
      </trkpt>
      <trkpt lat="42.80861" lon="0.88251">
        <ele>2344</ele>
        <time>2010-01-01T06:51:34Z</time>
      </trkpt>
      <trkpt lat="42.80861" lon="0.88253">
        <ele>2344</ele>
        <time>2010-01-01T06:51:35Z</time>
      </trkpt>
      <trkpt lat="42.80855" lon="0.88273">
        <ele>2346</ele>
        <time>2010-01-01T06:51:41Z</time>
      </trkpt>
      <trkpt lat="42.80851" lon="0.88288">
        <ele>2347</ele>
        <time>2010-01-01T06:51:46Z</time>
      </trkpt>
      <trkpt lat="42.80844" lon="0.88302">
        <ele>2345</ele>
        <time>2010-01-01T06:51:51Z</time>
      </trkpt>
      <trkpt lat="42.80841" lon="0.88326">
        <ele>2349</ele>
        <time>2010-01-01T06:51:58Z</time>
      </trkpt>
      <trkpt lat="42.80838" lon="0.88332">
        <ele>2349</ele>
        <time>2010-01-01T06:52:00Z</time>
      </trkpt>
      <trkpt lat="42.80829" lon="0.88349">
        <ele>2349</ele>
        <time>2010-01-01T06:52:06Z</time>
      </trkpt>
      <trkpt lat="42.8082" lon="0.88361">
        <ele>2349</ele>
        <time>2010-01-01T06:52:11Z</time>
      </trkpt>
      <trkpt lat="42.80815" lon="0.88374">
        <ele>2351</ele>
        <time>2010-01-01T06:52:15Z</time>
      </trkpt>
      <trkpt lat="42.80808" lon="0.88388">
        <ele>2353</ele>
        <time>2010-01-01T06:52:21Z</time>
      </trkpt>
      <trkpt lat="42.80805" lon="0.88395">
        <ele>2353</ele>
        <time>2010-01-01T06:52:23Z</time>
      </trkpt>
      <trkpt lat="42.80802" lon="0.88405">
        <ele>2354</ele>
        <time>2010-01-01T06:52:26Z</time>
      </trkpt>
      <trkpt lat="42.80801" lon="0.88414">
        <ele>2356</ele>
        <time>2010-01-01T06:52:29Z</time>
      </trkpt>
      <trkpt lat="42.808" lon="0.88417">
        <ele>2356</ele>
        <time>2010-01-01T06:52:30Z</time>
      </trkpt>
      <trkpt lat="42.80795" lon="0.88434">
        <ele>2358</ele>
        <time>2010-01-01T06:52:35Z</time>
      </trkpt>
      <trkpt lat="42.80795" lon="0.88446">
        <ele>2361</ele>
        <time>2010-01-01T06:52:39Z</time>
      </trkpt>
      <trkpt lat="42.80795" lon="0.88456">
        <ele>2364</ele>
        <time>2010-01-01T06:52:42Z</time>
      </trkpt>
      <trkpt lat="42.80792" lon="0.88463">
        <ele>2365</ele>
        <time>2010-01-01T06:52:44Z</time>
      </trkpt>
      <trkpt lat="42.8079" lon="0.88474">
        <ele>2366</ele>
        <time>2010-01-01T06:52:47Z</time>
      </trkpt>
      <trkpt lat="42.80786" lon="0.88482">
        <ele>2366</ele>
        <time>2010-01-01T06:52:50Z</time>
      </trkpt>
      <trkpt lat="42.80785" lon="0.88492">
        <ele>2368</ele>
        <time>2010-01-01T06:52:53Z</time>
      </trkpt>
      <trkpt lat="42.80775" lon="0.88504">
        <ele>2366</ele>
        <time>2010-01-01T06:52:58Z</time>
      </trkpt>
      <trkpt lat="42.80768" lon="0.88517">
        <ele>2366</ele>
        <time>2010-01-01T06:53:03Z</time>
      </trkpt>
      <trkpt lat="42.80767" lon="0.88524">
        <ele>2367</ele>
        <time>2010-01-01T06:53:05Z</time>
      </trkpt>
      <trkpt lat="42.80765" lon="0.88531">
        <ele>2367</ele>
        <time>2010-01-01T06:53:07Z</time>
      </trkpt>
      <trkpt lat="42.8076" lon="0.88541">
        <ele>2367</ele>
        <time>2010-01-01T06:53:11Z</time>
      </trkpt>
      <trkpt lat="42.80753" lon="0.88567">
        <ele>2369</ele>
        <time>2010-01-01T06:53:19Z</time>
      </trkpt>
      <trkpt lat="42.80752" lon="0.8857">
        <ele>2369</ele>
        <time>2010-01-01T06:53:20Z</time>
      </trkpt>
      <trkpt lat="42.80745" lon="0.88575">
        <ele>2367</ele>
        <time>2010-01-01T06:53:23Z</time>
      </trkpt>
      <trkpt lat="42.80745" lon="0.88579">
        <ele>2368</ele>
        <time>2010-01-01T06:53:24Z</time>
      </trkpt>
      <trkpt lat="42.80737" lon="0.88608">
        <ele>2372</ele>
        <time>2010-01-01T06:53:33Z</time>
      </trkpt>
      <trkpt lat="42.80736" lon="0.88611">
        <ele>2372</ele>
        <time>2010-01-01T06:53:34Z</time>
      </trkpt>
      <trkpt lat="42.80731" lon="0.88647">
        <ele>2373</ele>
        <time>2010-01-01T06:53:45Z</time>
      </trkpt>
      <trkpt lat="42.8073" lon="0.88651">
        <ele>2372</ele>
        <time>2010-01-01T06:53:46Z</time>
      </trkpt>
      <trkpt lat="42.80728" lon="0.88656">
        <ele>2371</ele>
        <time>2010-01-01T06:53:48Z</time>
      </trkpt>
      <trkpt lat="42.80724" lon="0.88684">
        <ele>2370</ele>
        <time>2010-01-01T06:53:56Z</time>
      </trkpt>
      <trkpt lat="42.80721" lon="0.88707">
        <ele>2370</ele>
        <time>2010-01-01T06:54:03Z</time>
      </trkpt>
      <trkpt lat="42.8072" lon="0.88712">
        <ele>2370</ele>
        <time>2010-01-01T06:54:05Z</time>
      </trkpt>
      <trkpt lat="42.80716" lon="0.88725">
        <ele>2371</ele>
        <time>2010-01-01T06:54:09Z</time>
      </trkpt>
      <trkpt lat="42.807" lon="0.88732">
        <ele>2368</ele>
        <time>2010-01-01T06:54:16Z</time>
      </trkpt>
      <trkpt lat="42.80694" lon="0.88729">
        <ele>2367</ele>
        <time>2010-01-01T06:54:18Z</time>
      </trkpt>
      <trkpt lat="42.80693" lon="0.8873">
        <ele>2366</ele>
        <time>2010-01-01T06:54:19Z</time>
      </trkpt>
      <trkpt lat="42.80686" lon="0.88733">
        <ele>2366</ele>
        <time>2010-01-01T06:54:21Z</time>
      </trkpt>
      <trkpt lat="42.80682" lon="0.88733">
        <ele>2365</ele>
        <time>2010-01-01T06:54:23Z</time>
      </trkpt>
      <trkpt lat="42.8068" lon="0.88737">
        <ele>2365</ele>
        <time>2010-01-01T06:54:24Z</time>
      </trkpt>
      <trkpt lat="42.80678" lon="0.8874">
        <ele>2365</ele>
        <time>2010-01-01T06:54:26Z</time>
      </trkpt>
      <trkpt lat="42.80666" lon="0.88751">
        <ele>2363</ele>
        <time>2010-01-01T06:54:31Z</time>
      </trkpt>
      <trkpt lat="42.80662" lon="0.88752">
        <ele>2362</ele>
        <time>2010-01-01T06:54:33Z</time>
      </trkpt>
      <trkpt lat="42.80659" lon="0.88752">
        <ele>2361</ele>
        <time>2010-01-01T06:54:34Z</time>
      </trkpt>
      <trkpt lat="42.80647" lon="0.88749">
        <ele>2357</ele>
        <time>2010-01-01T06:54:39Z</time>
      </trkpt>
      <trkpt lat="42.80638" lon="0.88795">
        <ele>2356</ele>
        <time>2010-01-01T06:54:53Z</time>
      </trkpt>
      <trkpt lat="42.80627" lon="0.88828">
        <ele>2357</ele>
        <time>2010-01-01T06:55:04Z</time>
      </trkpt>
      <trkpt lat="42.80622" lon="0.88871">
        <ele>2359</ele>
        <time>2010-01-01T06:55:17Z</time>
      </trkpt>
      <trkpt lat="42.80617" lon="0.88885">
        <ele>2358</ele>
        <time>2010-01-01T06:55:21Z</time>
      </trkpt>
      <trkpt lat="42.80614" lon="0.88887">
        <ele>2357</ele>
        <time>2010-01-01T06:55:23Z</time>
      </trkpt>
      <trkpt lat="42.80611" lon="0.88893">
        <ele>2356</ele>
        <time>2010-01-01T06:55:25Z</time>
      </trkpt>
      <trkpt lat="42.80589" lon="0.88926">
        <ele>2354</ele>
        <time>2010-01-01T06:55:38Z</time>
      </trkpt>
      <trkpt lat="42.80566" lon="0.88948">
        <ele>2352</ele>
        <time>2010-01-01T06:55:49Z</time>
      </trkpt>
      <trkpt lat="42.80553" lon="0.88965">
        <ele>2352</ele>
        <time>2010-01-01T06:55:57Z</time>
      </trkpt>
      <trkpt lat="42.80525" lon="0.88994">
        <ele>2348</ele>
        <time>2010-01-01T06:56:10Z</time>
      </trkpt>
      <trkpt lat="42.80504" lon="0.89027">
        <ele>2347</ele>
        <time>2010-01-01T06:56:23Z</time>
      </trkpt>
      <trkpt lat="42.80494" lon="0.89039">
        <ele>2345</ele>
        <time>2010-01-01T06:56:29Z</time>
      </trkpt>
      <trkpt lat="42.80472" lon="0.89056">
        <ele>2341</ele>
        <time>2010-01-01T06:56:39Z</time>
      </trkpt>
      <trkpt lat="42.80451" lon="0.8908">
        <ele>2340</ele>
        <time>2010-01-01T06:56:50Z</time>
      </trkpt>
      <trkpt lat="42.80432" lon="0.89109">
        <ele>2343</ele>
        <time>2010-01-01T06:57:01Z</time>
      </trkpt>
      <trkpt lat="42.80412" lon="0.89132">
        <ele>2342</ele>
        <time>2010-01-01T06:57:12Z</time>
      </trkpt>
      <trkpt lat="42.80392" lon="0.89166">
        <ele>2342</ele>
        <time>2010-01-01T06:57:24Z</time>
      </trkpt>
      <trkpt lat="42.80385" lon="0.89199">
        <ele>2343</ele>
        <time>2010-01-01T06:57:35Z</time>
      </trkpt>
      <trkpt lat="42.80384" lon="0.89203">
        <ele>2343</ele>
        <time>2010-01-01T06:57:36Z</time>
      </trkpt>
      <trkpt lat="42.80373" lon="0.89229">
        <ele>2342</ele>
        <time>2010-01-01T06:57:45Z</time>
      </trkpt>
      <trkpt lat="42.80368" lon="0.89237">
        <ele>2341</ele>
        <time>2010-01-01T06:57:48Z</time>
      </trkpt>
      <trkpt lat="42.80363" lon="0.89253">
        <ele>2341</ele>
        <time>2010-01-01T06:57:53Z</time>
      </trkpt>
      <trkpt lat="42.80353" lon="0.89282">
        <ele>2340</ele>
        <time>2010-01-01T06:58:02Z</time>
      </trkpt>
      <trkpt lat="42.8035" lon="0.8929">
        <ele>2340</ele>
        <time>2010-01-01T06:58:05Z</time>
      </trkpt>
      <trkpt lat="42.80347" lon="0.89303">
        <ele>2340</ele>
        <time>2010-01-01T06:58:09Z</time>
      </trkpt>
      <trkpt lat="42.80339" lon="0.89314">
        <ele>2339</ele>
        <time>2010-01-01T06:58:13Z</time>
      </trkpt>
      <trkpt lat="42.80332" lon="0.89354">
        <ele>2339</ele>
        <time>2010-01-01T06:58:25Z</time>
      </trkpt>
      <trkpt lat="42.80331" lon="0.8936">
        <ele>2339</ele>
        <time>2010-01-01T06:58:27Z</time>
      </trkpt>
      <trkpt lat="42.80326" lon="0.89381">
        <ele>2340</ele>
        <time>2010-01-01T06:58:34Z</time>
      </trkpt>
      <trkpt lat="42.80306" lon="0.8941">
        <ele>2337</ele>
        <time>2010-01-01T06:58:45Z</time>
      </trkpt>
      <trkpt lat="42.80288" lon="0.8943">
        <ele>2333</ele>
        <time>2010-01-01T06:58:55Z</time>
      </trkpt>
      <trkpt lat="42.80282" lon="0.8944">
        <ele>2332</ele>
        <time>2010-01-01T06:58:59Z</time>
      </trkpt>
      <trkpt lat="42.80274" lon="0.89452">
        <ele>2331</ele>
        <time>2010-01-01T06:59:03Z</time>
      </trkpt>
      <trkpt lat="42.80267" lon="0.89465">
        <ele>2331</ele>
        <time>2010-01-01T06:59:08Z</time>
      </trkpt>
      <trkpt lat="42.80259" lon="0.8948">
        <ele>2330</ele>
        <time>2010-01-01T06:59:13Z</time>
      </trkpt>
      <trkpt lat="42.80251" lon="0.89489">
        <ele>2329</ele>
        <time>2010-01-01T06:59:17Z</time>
      </trkpt>
      <trkpt lat="42.80234" lon="0.89508">
        <ele>2326</ele>
        <time>2010-01-01T06:59:26Z</time>
      </trkpt>
      <trkpt lat="42.80229" lon="0.89514">
        <ele>2325</ele>
        <time>2010-01-01T06:59:29Z</time>
      </trkpt>
      <trkpt lat="42.80205" lon="0.89536">
        <ele>2323</ele>
        <time>2010-01-01T06:59:40Z</time>
      </trkpt>
      <trkpt lat="42.80185" lon="0.89564">
        <ele>2325</ele>
        <time>2010-01-01T06:59:52Z</time>
      </trkpt>
      <trkpt lat="42.80179" lon="0.89565">
        <ele>2324</ele>
        <time>2010-01-01T06:59:54Z</time>
      </trkpt>
      <trkpt lat="42.80173" lon="0.89569">
        <ele>2324</ele>
        <time>2010-01-01T06:59:57Z</time>
      </trkpt>
      <trkpt lat="42.80148" lon="0.89594">
        <ele>2325</ele>
        <time>2010-01-01T07:00:10Z</time>
      </trkpt>
      <trkpt lat="42.80144" lon="0.89602">
        <ele>2325</ele>
        <time>2010-01-01T07:00:12Z</time>
      </trkpt>
      <trkpt lat="42.8014" lon="0.89612">
        <ele>2327</ele>
        <time>2010-01-01T07:00:16Z</time>
      </trkpt>
      <trkpt lat="42.80122" lon="0.89638">
        <ele>2328</ele>
        <time>2010-01-01T07:00:26Z</time>
      </trkpt>
      <trkpt lat="42.80118" lon="0.89648">
        <ele>2329</ele>
        <time>2010-01-01T07:00:29Z</time>
      </trkpt>
      <trkpt lat="42.80116" lon="0.8965">
        <ele>2329</ele>
        <time>2010-01-01T07:00:30Z</time>
      </trkpt>
      <trkpt lat="42.80111" lon="0.89654">
        <ele>2328</ele>
        <time>2010-01-01T07:00:33Z</time>
      </trkpt>
      <trkpt lat="42.80087" lon="0.89677">
        <ele>2328</ele>
        <time>2010-01-01T07:00:44Z</time>
      </trkpt>
      <trkpt lat="42.80066" lon="0.89706">
        <ele>2327</ele>
        <time>2010-01-01T07:00:57Z</time>
      </trkpt>
      <trkpt lat="42.80041" lon="0.89731">
        <ele>2330</ele>
        <time>2010-01-01T07:01:09Z</time>
      </trkpt>
      <trkpt lat="42.80025" lon="0.89764">
        <ele>2333</ele>
        <time>2010-01-01T07:01:21Z</time>
      </trkpt>
      <trkpt lat="42.80017" lon="0.89772">
        <ele>2332</ele>
        <time>2010-01-01T07:01:25Z</time>
      </trkpt>
      <trkpt lat="42.80014" lon="0.89774">
        <ele>2332</ele>
        <time>2010-01-01T07:01:26Z</time>
      </trkpt>
      <trkpt lat="42.7999" lon="0.89788">
        <ele>2331</ele>
        <time>2010-01-01T07:01:37Z</time>
      </trkpt>
      <trkpt lat="42.79963" lon="0.89817">
        <ele>2329</ele>
        <time>2010-01-01T07:01:50Z</time>
      </trkpt>
      <trkpt lat="42.79957" lon="0.8983">
        <ele>2330</ele>
        <time>2010-01-01T07:01:55Z</time>
      </trkpt>
      <trkpt lat="42.79955" lon="0.89833">
        <ele>2330</ele>
        <time>2010-01-01T07:01:56Z</time>
      </trkpt>
      <trkpt lat="42.79947" lon="0.8984">
        <ele>2328</ele>
        <time>2010-01-01T07:02:00Z</time>
      </trkpt>
      <trkpt lat="42.79942" lon="0.89846">
        <ele>2327</ele>
        <time>2010-01-01T07:02:02Z</time>
      </trkpt>
      <trkpt lat="42.79918" lon="0.8988">
        <ele>2324</ele>
        <time>2010-01-01T07:02:16Z</time>
      </trkpt>
      <trkpt lat="42.79896" lon="0.89907">
        <ele>2322</ele>
        <time>2010-01-01T07:02:28Z</time>
      </trkpt>
      <trkpt lat="42.79873" lon="0.8993">
        <ele>2324</ele>
        <time>2010-01-01T07:02:39Z</time>
      </trkpt>
      <trkpt lat="42.79856" lon="0.89943">
        <ele>2324</ele>
        <time>2010-01-01T07:02:47Z</time>
      </trkpt>
      <trkpt lat="42.79848" lon="0.89945">
        <ele>2324</ele>
        <time>2010-01-01T07:02:51Z</time>
      </trkpt>
      <trkpt lat="42.7984" lon="0.8995">
        <ele>2324</ele>
        <time>2010-01-01T07:02:54Z</time>
      </trkpt>
      <trkpt lat="42.79839" lon="0.89951">
        <ele>2324</ele>
        <time>2010-01-01T07:02:54Z</time>
      </trkpt>
      <trkpt lat="42.79835" lon="0.89955">
        <ele>2324</ele>
        <time>2010-01-01T07:02:56Z</time>
      </trkpt>
      <trkpt lat="42.79832" lon="0.89954">
        <ele>2324</ele>
        <time>2010-01-01T07:02:58Z</time>
      </trkpt>
      <trkpt lat="42.7983" lon="0.89948">
        <ele>2322</ele>
        <time>2010-01-01T07:03:00Z</time>
      </trkpt>
      <trkpt lat="42.79826" lon="0.8994">
        <ele>2320</ele>
        <time>2010-01-01T07:03:03Z</time>
      </trkpt>
      <trkpt lat="42.7982" lon="0.89939">
        <ele>2319</ele>
        <time>2010-01-01T07:03:05Z</time>
      </trkpt>
      <trkpt lat="42.79815" lon="0.89941">
        <ele>2319</ele>
        <time>2010-01-01T07:03:07Z</time>
      </trkpt>
      <trkpt lat="42.79812" lon="0.89943">
        <ele>2319</ele>
        <time>2010-01-01T07:03:08Z</time>
      </trkpt>
      <trkpt lat="42.79809" lon="0.89944">
        <ele>2319</ele>
        <time>2010-01-01T07:03:10Z</time>
      </trkpt>
      <trkpt lat="42.79784" lon="0.89943">
        <ele>2320</ele>
        <time>2010-01-01T07:03:19Z</time>
      </trkpt>
      <trkpt lat="42.79759" lon="0.89926">
        <ele>2318</ele>
        <time>2010-01-01T07:03:31Z</time>
      </trkpt>
      <trkpt lat="42.79756" lon="0.89927">
        <ele>2318</ele>
        <time>2010-01-01T07:03:32Z</time>
      </trkpt>
      <trkpt lat="42.79754" lon="0.89931">
        <ele>2319</ele>
        <time>2010-01-01T07:03:34Z</time>
      </trkpt>
      <trkpt lat="42.79755" lon="0.8993">
        <ele>2319</ele>
        <time>2010-01-01T07:03:34Z</time>
      </trkpt>
      <trkpt lat="42.79756" lon="0.89931">
        <ele>2319</ele>
        <time>2010-01-01T07:03:35Z</time>
      </trkpt>
      <trkpt lat="42.79758" lon="0.89931">
        <ele>2319</ele>
        <time>2010-01-01T07:03:36Z</time>
      </trkpt>
      <trkpt lat="42.79755" lon="0.89931">
        <ele>2319</ele>
        <time>2010-01-01T07:03:37Z</time>
      </trkpt>
      <trkpt lat="42.79755" lon="0.89931">
        <ele>2319</ele>
        <time>2010-01-01T07:03:37Z</time>
      </trkpt>
      <trkpt lat="42.79756" lon="0.89931">
        <ele>2319</ele>
        <time>2010-01-01T07:03:38Z</time>
      </trkpt>
      <trkpt lat="42.79753" lon="0.89933">
        <ele>2319</ele>
        <time>2010-01-01T07:03:39Z</time>
      </trkpt>
      <trkpt lat="42.7975" lon="0.89937">
        <ele>2321</ele>
        <time>2010-01-01T07:03:41Z</time>
      </trkpt>
      <trkpt lat="42.79747" lon="0.89933">
        <ele>2319</ele>
        <time>2010-01-01T07:03:42Z</time>
      </trkpt>
      <trkpt lat="42.7973" lon="0.89929">
        <ele>2314</ele>
        <time>2010-01-01T07:03:49Z</time>
      </trkpt>
      <trkpt lat="42.79741" lon="0.89897">
        <ele>2306</ele>
        <time>2010-01-01T07:04:00Z</time>
      </trkpt>
      <trkpt lat="42.79753" lon="0.8989">
        <ele>2306</ele>
        <time>2010-01-01T07:04:05Z</time>
      </trkpt>
      <trkpt lat="42.79763" lon="0.8989">
        <ele>2308</ele>
        <time>2010-01-01T07:04:09Z</time>
      </trkpt>
      <trkpt lat="42.79772" lon="0.89895">
        <ele>2311</ele>
        <time>2010-01-01T07:04:13Z</time>
      </trkpt>
      <trkpt lat="42.79782" lon="0.899">
        <ele>2313</ele>
        <time>2010-01-01T07:04:17Z</time>
      </trkpt>
      <trkpt lat="42.79787" lon="0.89909">
        <ele>2314</ele>
        <time>2010-01-01T07:04:21Z</time>
      </trkpt>
      <trkpt lat="42.79799" lon="0.89906">
        <ele>2314</ele>
        <time>2010-01-01T07:04:25Z</time>
      </trkpt>
      <trkpt lat="42.79799" lon="0.89895">
        <ele>2313</ele>
        <time>2010-01-01T07:04:29Z</time>
      </trkpt>
      <trkpt lat="42.79802" lon="0.89882">
        <ele>2312</ele>
        <time>2010-01-01T07:04:32Z</time>
      </trkpt>
      <trkpt lat="42.79802" lon="0.8987">
        <ele>2310</ele>
        <time>2010-01-01T07:04:36Z</time>
      </trkpt>
      <trkpt lat="42.79795" lon="0.89864">
        <ele>2308</ele>
        <time>2010-01-01T07:04:39Z</time>
      </trkpt>
      <trkpt lat="42.7979" lon="0.89853">
        <ele>2305</ele>
        <time>2010-01-01T07:04:43Z</time>
      </trkpt>
      <trkpt lat="42.79788" lon="0.89843">
        <ele>2303</ele>
        <time>2010-01-01T07:04:46Z</time>
      </trkpt>
      <trkpt lat="42.79784" lon="0.89831">
        <ele>2299</ele>
        <time>2010-01-01T07:04:50Z</time>
      </trkpt>
      <trkpt lat="42.7978" lon="0.89821">
        <ele>2296</ele>
        <time>2010-01-01T07:04:53Z</time>
      </trkpt>
      <trkpt lat="42.79772" lon="0.89811">
        <ele>2290</ele>
        <time>2010-01-01T07:04:57Z</time>
      </trkpt>
      <trkpt lat="42.79764" lon="0.89807">
        <ele>2287</ele>
        <time>2010-01-01T07:05:01Z</time>
      </trkpt>
      <trkpt lat="42.79756" lon="0.89804">
        <ele>2284</ele>
        <time>2010-01-01T07:05:04Z</time>
      </trkpt>
      <trkpt lat="42.79748" lon="0.898">
        <ele>2280</ele>
        <time>2010-01-01T07:05:08Z</time>
      </trkpt>
      <trkpt lat="42.79738" lon="0.898">
        <ele>2278</ele>
        <time>2010-01-01T07:05:12Z</time>
      </trkpt>
      <trkpt lat="42.79729" lon="0.89798">
        <ele>2276</ele>
        <time>2010-01-01T07:05:15Z</time>
      </trkpt>
      <trkpt lat="42.79721" lon="0.89792">
        <ele>2272</ele>
        <time>2010-01-01T07:05:19Z</time>
      </trkpt>
      <trkpt lat="42.79713" lon="0.89785">
        <ele>2269</ele>
        <time>2010-01-01T07:05:23Z</time>
      </trkpt>
      <trkpt lat="42.79708" lon="0.89774">
        <ele>2265</ele>
        <time>2010-01-01T07:05:27Z</time>
      </trkpt>
      <trkpt lat="42.79701" lon="0.89765">
        <ele>2261</ele>
        <time>2010-01-01T07:05:31Z</time>
      </trkpt>
      <trkpt lat="42.797" lon="0.89751">
        <ele>2256</ele>
        <time>2010-01-01T07:05:35Z</time>
      </trkpt>
      <trkpt lat="42.79701" lon="0.89739">
        <ele>2253</ele>
        <time>2010-01-01T07:05:38Z</time>
      </trkpt>
      <trkpt lat="42.797" lon="0.89727">
        <ele>2249</ele>
        <time>2010-01-01T07:05:42Z</time>
      </trkpt>
      <trkpt lat="42.7969" lon="0.89726">
        <ele>2247</ele>
        <time>2010-01-01T07:05:46Z</time>
      </trkpt>
      <trkpt lat="42.79682" lon="0.89729">
        <ele>2245</ele>
        <time>2010-01-01T07:05:49Z</time>
      </trkpt>
      <trkpt lat="42.79683" lon="0.89718">
        <ele>2242</ele>
        <time>2010-01-01T07:05:52Z</time>
      </trkpt>
      <trkpt lat="42.7969" lon="0.89705">
        <ele>2241</ele>
        <time>2010-01-01T07:05:57Z</time>
      </trkpt>
      <trkpt lat="42.79697" lon="0.89696">
        <ele>2241</ele>
        <time>2010-01-01T07:06:01Z</time>
      </trkpt>
      <trkpt lat="42.79704" lon="0.89684">
        <ele>2240</ele>
        <time>2010-01-01T07:06:05Z</time>
      </trkpt>
      <trkpt lat="42.79711" lon="0.89676">
        <ele>2239</ele>
        <time>2010-01-01T07:06:09Z</time>
      </trkpt>
      <trkpt lat="42.79717" lon="0.89664">
        <ele>2238</ele>
        <time>2010-01-01T07:06:13Z</time>
      </trkpt>
      <trkpt lat="42.7972" lon="0.89652">
        <ele>2234</ele>
        <time>2010-01-01T07:06:17Z</time>
      </trkpt>
      <trkpt lat="42.79724" lon="0.8964">
        <ele>2230</ele>
        <time>2010-01-01T07:06:21Z</time>
      </trkpt>
      <trkpt lat="42.79728" lon="0.89628">
        <ele>2226</ele>
        <time>2010-01-01T07:06:25Z</time>
      </trkpt>
      <trkpt lat="42.79735" lon="0.89618">
        <ele>2223</ele>
        <time>2010-01-01T07:06:29Z</time>
      </trkpt>
      <trkpt lat="42.79744" lon="0.89611">
        <ele>2223</ele>
        <time>2010-01-01T07:06:33Z</time>
      </trkpt>
      <trkpt lat="42.79753" lon="0.89605">
        <ele>2224</ele>
        <time>2010-01-01T07:06:37Z</time>
      </trkpt>
      <trkpt lat="42.79765" lon="0.89604">
        <ele>2227</ele>
        <time>2010-01-01T07:06:42Z</time>
      </trkpt>
      <trkpt lat="42.79774" lon="0.89601">
        <ele>2228</ele>
        <time>2010-01-01T07:06:45Z</time>
      </trkpt>
      <trkpt lat="42.79773" lon="0.89588">
        <ele>2224</ele>
        <time>2010-01-01T07:06:50Z</time>
      </trkpt>
      <trkpt lat="42.79774" lon="0.89574">
        <ele>2221</ele>
        <time>2010-01-01T07:06:54Z</time>
      </trkpt>
      <trkpt lat="42.7977" lon="0.89561">
        <ele>2217</ele>
        <time>2010-01-01T07:06:58Z</time>
      </trkpt>
      <trkpt lat="42.79766" lon="0.89549">
        <ele>2213</ele>
        <time>2010-01-01T07:07:02Z</time>
      </trkpt>
      <trkpt lat="42.79762" lon="0.89537">
        <ele>2209</ele>
        <time>2010-01-01T07:07:05Z</time>
      </trkpt>
      <trkpt lat="42.79757" lon="0.89526">
        <ele>2204</ele>
        <time>2010-01-01T07:07:09Z</time>
      </trkpt>
      <trkpt lat="42.79752" lon="0.89516">
        <ele>2199</ele>
        <time>2010-01-01T07:07:13Z</time>
      </trkpt>
      <trkpt lat="42.79747" lon="0.89505">
        <ele>2193</ele>
        <time>2010-01-01T07:07:17Z</time>
      </trkpt>
      <trkpt lat="42.7974" lon="0.89496">
        <ele>2189</ele>
        <time>2010-01-01T07:07:21Z</time>
      </trkpt>
      <trkpt lat="42.79734" lon="0.89485">
        <ele>2184</ele>
        <time>2010-01-01T07:07:24Z</time>
      </trkpt>
      <trkpt lat="42.79727" lon="0.8948">
        <ele>2182</ele>
        <time>2010-01-01T07:07:28Z</time>
      </trkpt>
      <trkpt lat="42.79717" lon="0.89481">
        <ele>2179</ele>
        <time>2010-01-01T07:07:31Z</time>
      </trkpt>
      <trkpt lat="42.79708" lon="0.89474">
        <ele>2174</ele>
        <time>2010-01-01T07:07:36Z</time>
      </trkpt>
      <trkpt lat="42.79698" lon="0.8947">
        <ele>2168</ele>
        <time>2010-01-01T07:07:40Z</time>
      </trkpt>
      <trkpt lat="42.79688" lon="0.89474">
        <ele>2165</ele>
        <time>2010-01-01T07:07:44Z</time>
      </trkpt>
      <trkpt lat="42.7968" lon="0.89482">
        <ele>2164</ele>
        <time>2010-01-01T07:07:48Z</time>
      </trkpt>
      <trkpt lat="42.79671" lon="0.89489">
        <ele>2162</ele>
        <time>2010-01-01T07:07:52Z</time>
      </trkpt>
      <trkpt lat="42.7966" lon="0.89487">
        <ele>2160</ele>
        <time>2010-01-01T07:07:56Z</time>
      </trkpt>
      <trkpt lat="42.79649" lon="0.89481">
        <ele>2159</ele>
        <time>2010-01-01T07:08:01Z</time>
      </trkpt>
      <trkpt lat="42.79638" lon="0.89473">
        <ele>2158</ele>
        <time>2010-01-01T07:08:06Z</time>
      </trkpt>
      <trkpt lat="42.7963" lon="0.89464">
        <ele>2156</ele>
        <time>2010-01-01T07:08:11Z</time>
      </trkpt>
      <trkpt lat="42.7962" lon="0.89458">
        <ele>2156</ele>
        <time>2010-01-01T07:08:15Z</time>
      </trkpt>
      <trkpt lat="42.7961" lon="0.89454">
        <ele>2156</ele>
        <time>2010-01-01T07:08:19Z</time>
      </trkpt>
      <trkpt lat="42.79602" lon="0.89447">
        <ele>2153</ele>
        <time>2010-01-01T07:08:23Z</time>
      </trkpt>
      <trkpt lat="42.79593" lon="0.89438">
        <ele>2151</ele>
        <time>2010-01-01T07:08:27Z</time>
      </trkpt>
      <trkpt lat="42.79587" lon="0.89428">
        <ele>2150</ele>
        <time>2010-01-01T07:08:31Z</time>
      </trkpt>
      <trkpt lat="42.79578" lon="0.89419">
        <ele>2149</ele>
        <time>2010-01-01T07:08:36Z</time>
      </trkpt>
      <trkpt lat="42.79571" lon="0.89409">
        <ele>2150</ele>
        <time>2010-01-01T07:08:40Z</time>
      </trkpt>
      <trkpt lat="42.79562" lon="0.894">
        <ele>2151</ele>
        <time>2010-01-01T07:08:44Z</time>
      </trkpt>
      <trkpt lat="42.79553" lon="0.89394">
        <ele>2152</ele>
        <time>2010-01-01T07:08:48Z</time>
      </trkpt>
      <trkpt lat="42.79543" lon="0.89395">
        <ele>2150</ele>
        <time>2010-01-01T07:08:52Z</time>
      </trkpt>
      <trkpt lat="42.79533" lon="0.89394">
        <ele>2148</ele>
        <time>2010-01-01T07:08:56Z</time>
      </trkpt>
      <trkpt lat="42.79524" lon="0.89396">
        <ele>2146</ele>
        <time>2010-01-01T07:09:00Z</time>
      </trkpt>
      <trkpt lat="42.79513" lon="0.89403">
        <ele>2145</ele>
        <time>2010-01-01T07:09:05Z</time>
      </trkpt>
      <trkpt lat="42.79506" lon="0.89416">
        <ele>2146</ele>
        <time>2010-01-01T07:09:09Z</time>
      </trkpt>
      <trkpt lat="42.79496" lon="0.89421">
        <ele>2147</ele>
        <time>2010-01-01T07:09:13Z</time>
      </trkpt>
      <trkpt lat="42.79487" lon="0.89422">
        <ele>2146</ele>
        <time>2010-01-01T07:09:17Z</time>
      </trkpt>
      <trkpt lat="42.79489" lon="0.89408">
        <ele>2143</ele>
        <time>2010-01-01T07:09:21Z</time>
      </trkpt>
      <trkpt lat="42.79484" lon="0.89395">
        <ele>2140</ele>
        <time>2010-01-01T07:09:26Z</time>
      </trkpt>
      <trkpt lat="42.79474" lon="0.89388">
        <ele>2138</ele>
        <time>2010-01-01T07:09:30Z</time>
      </trkpt>
      <trkpt lat="42.79464" lon="0.89389">
        <ele>2132</ele>
        <time>2010-01-01T07:09:34Z</time>
      </trkpt>
      <trkpt lat="42.79454" lon="0.89387">
        <ele>2127</ele>
        <time>2010-01-01T07:09:39Z</time>
      </trkpt>
      <trkpt lat="42.79444" lon="0.89383">
        <ele>2122</ele>
        <time>2010-01-01T07:09:42Z</time>
      </trkpt>
      <trkpt lat="42.79435" lon="0.89376">
        <ele>2115</ele>
        <time>2010-01-01T07:09:47Z</time>
      </trkpt>
      <trkpt lat="42.79426" lon="0.89369">
        <ele>2111</ele>
        <time>2010-01-01T07:09:51Z</time>
      </trkpt>
      <trkpt lat="42.79416" lon="0.89361">
        <ele>2107</ele>
        <time>2010-01-01T07:09:55Z</time>
      </trkpt>
      <trkpt lat="42.79406" lon="0.89353">
        <ele>2101</ele>
        <time>2010-01-01T07:10:00Z</time>
      </trkpt>
      <trkpt lat="42.79397" lon="0.89357">
        <ele>2092</ele>
        <time>2010-01-01T07:10:04Z</time>
      </trkpt>
      <trkpt lat="42.79389" lon="0.8935">
        <ele>2088</ele>
        <time>2010-01-01T07:10:07Z</time>
      </trkpt>
      <trkpt lat="42.79384" lon="0.8934">
        <ele>2091</ele>
        <time>2010-01-01T07:10:11Z</time>
      </trkpt>
      <trkpt lat="42.79376" lon="0.89329">
        <ele>2090</ele>
        <time>2010-01-01T07:10:16Z</time>
      </trkpt>
      <trkpt lat="42.79368" lon="0.89321">
        <ele>2086</ele>
        <time>2010-01-01T07:10:19Z</time>
      </trkpt>
      <trkpt lat="42.79361" lon="0.8931">
        <ele>2081</ele>
        <time>2010-01-01T07:10:24Z</time>
      </trkpt>
      <trkpt lat="42.79354" lon="0.89299">
        <ele>2079</ele>
        <time>2010-01-01T07:10:28Z</time>
      </trkpt>
      <trkpt lat="42.79347" lon="0.89288">
        <ele>2076</ele>
        <time>2010-01-01T07:10:32Z</time>
      </trkpt>
      <trkpt lat="42.7934" lon="0.89278">
        <ele>2072</ele>
        <time>2010-01-01T07:10:36Z</time>
      </trkpt>
      <trkpt lat="42.79334" lon="0.89266">
        <ele>2068</ele>
        <time>2010-01-01T07:10:41Z</time>
      </trkpt>
      <trkpt lat="42.79327" lon="0.89256">
        <ele>2065</ele>
        <time>2010-01-01T07:10:45Z</time>
      </trkpt>
      <trkpt lat="42.7932" lon="0.89247">
        <ele>2063</ele>
        <time>2010-01-01T07:10:49Z</time>
      </trkpt>
      <trkpt lat="42.79314" lon="0.89236">
        <ele>2060</ele>
        <time>2010-01-01T07:10:53Z</time>
      </trkpt>
      <trkpt lat="42.79307" lon="0.89225">
        <ele>2057</ele>
        <time>2010-01-01T07:10:57Z</time>
      </trkpt>
      <trkpt lat="42.793" lon="0.89215">
        <ele>2056</ele>
        <time>2010-01-01T07:11:01Z</time>
      </trkpt>
      <trkpt lat="42.79295" lon="0.89204">
        <ele>2056</ele>
        <time>2010-01-01T07:11:05Z</time>
      </trkpt>
      <trkpt lat="42.79288" lon="0.89193">
        <ele>2057</ele>
        <time>2010-01-01T07:11:09Z</time>
      </trkpt>
      <trkpt lat="42.7928" lon="0.89183">
        <ele>2059</ele>
        <time>2010-01-01T07:11:13Z</time>
      </trkpt>
      <trkpt lat="42.79272" lon="0.89174">
        <ele>2058</ele>
        <time>2010-01-01T07:11:18Z</time>
      </trkpt>
      <trkpt lat="42.79265" lon="0.89164">
        <ele>2058</ele>
        <time>2010-01-01T07:11:21Z</time>
      </trkpt>
      <trkpt lat="42.7926" lon="0.89153">
        <ele>2058</ele>
        <time>2010-01-01T07:11:25Z</time>
      </trkpt>
      <trkpt lat="42.79254" lon="0.89143">
        <ele>2058</ele>
        <time>2010-01-01T07:11:29Z</time>
      </trkpt>
      <trkpt lat="42.79247" lon="0.89133">
        <ele>2058</ele>
        <time>2010-01-01T07:11:33Z</time>
      </trkpt>
      <trkpt lat="42.7924" lon="0.89121">
        <ele>2058</ele>
        <time>2010-01-01T07:11:38Z</time>
      </trkpt>
      <trkpt lat="42.79234" lon="0.89109">
        <ele>2058</ele>
        <time>2010-01-01T07:11:42Z</time>
      </trkpt>
      <trkpt lat="42.79227" lon="0.89099">
        <ele>2058</ele>
        <time>2010-01-01T07:11:46Z</time>
      </trkpt>
      <trkpt lat="42.79221" lon="0.8909">
        <ele>2058</ele>
        <time>2010-01-01T07:11:49Z</time>
      </trkpt>
      <trkpt lat="42.79215" lon="0.89079">
        <ele>2059</ele>
        <time>2010-01-01T07:11:54Z</time>
      </trkpt>
      <trkpt lat="42.7921" lon="0.89067">
        <ele>2059</ele>
        <time>2010-01-01T07:11:58Z</time>
      </trkpt>
      <trkpt lat="42.79203" lon="0.89056">
        <ele>2058</ele>
        <time>2010-01-01T07:12:02Z</time>
      </trkpt>
      <trkpt lat="42.79197" lon="0.89045">
        <ele>2058</ele>
        <time>2010-01-01T07:12:06Z</time>
      </trkpt>
      <trkpt lat="42.79191" lon="0.89033">
        <ele>2059</ele>
        <time>2010-01-01T07:12:10Z</time>
      </trkpt>
      <trkpt lat="42.79183" lon="0.89028">
        <ele>2059</ele>
        <time>2010-01-01T07:12:14Z</time>
      </trkpt>
      <trkpt lat="42.79176" lon="0.89037">
        <ele>2059</ele>
        <time>2010-01-01T07:12:18Z</time>
      </trkpt>
      <trkpt lat="42.79168" lon="0.89045">
        <ele>2058</ele>
        <time>2010-01-01T07:12:22Z</time>
      </trkpt>
      <trkpt lat="42.7916" lon="0.89054">
        <ele>2057</ele>
        <time>2010-01-01T07:12:26Z</time>
      </trkpt>
      <trkpt lat="42.79153" lon="0.89062">
        <ele>2056</ele>
        <time>2010-01-01T07:12:29Z</time>
      </trkpt>
      <trkpt lat="42.79145" lon="0.8907">
        <ele>2055</ele>
        <time>2010-01-01T07:12:33Z</time>
      </trkpt>
      <trkpt lat="42.79138" lon="0.89077">
        <ele>2055</ele>
        <time>2010-01-01T07:12:37Z</time>
      </trkpt>
      <trkpt lat="42.79132" lon="0.89087">
        <ele>2055</ele>
        <time>2010-01-01T07:12:41Z</time>
      </trkpt>
      <trkpt lat="42.79126" lon="0.89097">
        <ele>2055</ele>
        <time>2010-01-01T07:12:44Z</time>
      </trkpt>
      <trkpt lat="42.7912" lon="0.89107">
        <ele>2056</ele>
        <time>2010-01-01T07:12:48Z</time>
      </trkpt>
      <trkpt lat="42.79112" lon="0.89117">
        <ele>2056</ele>
        <time>2010-01-01T07:12:52Z</time>
      </trkpt>
      <trkpt lat="42.79107" lon="0.89127">
        <ele>2056</ele>
        <time>2010-01-01T07:12:56Z</time>
      </trkpt>
      <trkpt lat="42.79103" lon="0.89141">
        <ele>2056</ele>
        <time>2010-01-01T07:13:00Z</time>
      </trkpt>
      <trkpt lat="42.79097" lon="0.89152">
        <ele>2056</ele>
        <time>2010-01-01T07:13:04Z</time>
      </trkpt>
      <trkpt lat="42.79091" lon="0.89165">
        <ele>2056</ele>
        <time>2010-01-01T07:13:09Z</time>
      </trkpt>
      <trkpt lat="42.79085" lon="0.89176">
        <ele>2056</ele>
        <time>2010-01-01T07:13:13Z</time>
      </trkpt>
      <trkpt lat="42.79078" lon="0.89185">
        <ele>2056</ele>
        <time>2010-01-01T07:13:17Z</time>
      </trkpt>
      <trkpt lat="42.7907" lon="0.89194">
        <ele>2056</ele>
        <time>2010-01-01T07:13:21Z</time>
      </trkpt>
      <trkpt lat="42.79063" lon="0.89202">
        <ele>2056</ele>
        <time>2010-01-01T07:13:24Z</time>
      </trkpt>
      <trkpt lat="42.79058" lon="0.89211">
        <ele>2056</ele>
        <time>2010-01-01T07:13:28Z</time>
      </trkpt>
      <trkpt lat="42.79052" lon="0.89221">
        <ele>2056</ele>
        <time>2010-01-01T07:13:32Z</time>
      </trkpt>
      <trkpt lat="42.79043" lon="0.89227">
        <ele>2056</ele>
        <time>2010-01-01T07:13:36Z</time>
      </trkpt>
      <trkpt lat="42.79033" lon="0.89232">
        <ele>2055</ele>
        <time>2010-01-01T07:13:40Z</time>
      </trkpt>
      <trkpt lat="42.79024" lon="0.89238">
        <ele>2055</ele>
        <time>2010-01-01T07:13:44Z</time>
      </trkpt>
      <trkpt lat="42.79016" lon="0.89246">
        <ele>2055</ele>
        <time>2010-01-01T07:13:48Z</time>
      </trkpt>
      <trkpt lat="42.79008" lon="0.89254">
        <ele>2056</ele>
        <time>2010-01-01T07:13:52Z</time>
      </trkpt>
      <trkpt lat="42.78999" lon="0.89261">
        <ele>2057</ele>
        <time>2010-01-01T07:13:56Z</time>
      </trkpt>
      <trkpt lat="42.78991" lon="0.89269">
        <ele>2057</ele>
        <time>2010-01-01T07:14:00Z</time>
      </trkpt>
      <trkpt lat="42.78982" lon="0.89276">
        <ele>2056</ele>
        <time>2010-01-01T07:14:04Z</time>
      </trkpt>
      <trkpt lat="42.78975" lon="0.89284">
        <ele>2056</ele>
        <time>2010-01-01T07:14:08Z</time>
      </trkpt>
      <trkpt lat="42.78967" lon="0.89294">
        <ele>2056</ele>
        <time>2010-01-01T07:14:12Z</time>
      </trkpt>
      <trkpt lat="42.78959" lon="0.89302">
        <ele>2055</ele>
        <time>2010-01-01T07:14:16Z</time>
      </trkpt>
      <trkpt lat="42.78949" lon="0.89306">
        <ele>2054</ele>
        <time>2010-01-01T07:14:20Z</time>
      </trkpt>
      <trkpt lat="42.7894" lon="0.89312">
        <ele>2054</ele>
        <time>2010-01-01T07:14:24Z</time>
      </trkpt>
      <trkpt lat="42.78931" lon="0.89319">
        <ele>2054</ele>
        <time>2010-01-01T07:14:28Z</time>
      </trkpt>
      <trkpt lat="42.78923" lon="0.89328">
        <ele>2054</ele>
        <time>2010-01-01T07:14:33Z</time>
      </trkpt>
      <trkpt lat="42.78916" lon="0.89338">
        <ele>2054</ele>
        <time>2010-01-01T07:14:37Z</time>
      </trkpt>
      <trkpt lat="42.78912" lon="0.89351">
        <ele>2054</ele>
        <time>2010-01-01T07:14:41Z</time>
      </trkpt>
      <trkpt lat="42.78905" lon="0.89361">
        <ele>2054</ele>
        <time>2010-01-01T07:14:45Z</time>
      </trkpt>
      <trkpt lat="42.78898" lon="0.89372">
        <ele>2055</ele>
        <time>2010-01-01T07:14:49Z</time>
      </trkpt>
      <trkpt lat="42.78891" lon="0.89384">
        <ele>2057</ele>
        <time>2010-01-01T07:14:54Z</time>
      </trkpt>
      <trkpt lat="42.78883" lon="0.89392">
        <ele>2059</ele>
        <time>2010-01-01T07:14:58Z</time>
      </trkpt>
      <trkpt lat="42.78873" lon="0.89398">
        <ele>2061</ele>
        <time>2010-01-01T07:15:02Z</time>
      </trkpt>
      <trkpt lat="42.78864" lon="0.89402">
        <ele>2062</ele>
        <time>2010-01-01T07:15:06Z</time>
      </trkpt>
      <trkpt lat="42.78856" lon="0.89409">
        <ele>2062</ele>
        <time>2010-01-01T07:15:10Z</time>
      </trkpt>
      <trkpt lat="42.7885" lon="0.89419">
        <ele>2062</ele>
        <time>2010-01-01T07:15:13Z</time>
      </trkpt>
      <trkpt lat="42.78843" lon="0.89428">
        <ele>2062</ele>
        <time>2010-01-01T07:15:17Z</time>
      </trkpt>
      <trkpt lat="42.78834" lon="0.89432">
        <ele>2061</ele>
        <time>2010-01-01T07:15:21Z</time>
      </trkpt>
      <trkpt lat="42.78824" lon="0.89427">
        <ele>2061</ele>
        <time>2010-01-01T07:15:25Z</time>
      </trkpt>
      <trkpt lat="42.78814" lon="0.89424">
        <ele>2060</ele>
        <time>2010-01-01T07:15:29Z</time>
      </trkpt>
      <trkpt lat="42.78803" lon="0.89422">
        <ele>2060</ele>
        <time>2010-01-01T07:15:34Z</time>
      </trkpt>
      <trkpt lat="42.78793" lon="0.89424">
        <ele>2061</ele>
        <time>2010-01-01T07:15:38Z</time>
      </trkpt>
      <trkpt lat="42.78784" lon="0.89427">
        <ele>2062</ele>
        <time>2010-01-01T07:15:42Z</time>
      </trkpt>
      <trkpt lat="42.78774" lon="0.89432">
        <ele>2064</ele>
        <time>2010-01-01T07:15:46Z</time>
      </trkpt>
      <trkpt lat="42.78763" lon="0.89432">
        <ele>2065</ele>
        <time>2010-01-01T07:15:50Z</time>
      </trkpt>
      <trkpt lat="42.78753" lon="0.89425">
        <ele>2064</ele>
        <time>2010-01-01T07:15:55Z</time>
      </trkpt>
      <trkpt lat="42.78744" lon="0.89423">
        <ele>2065</ele>
        <time>2010-01-01T07:15:59Z</time>
      </trkpt>
      <trkpt lat="42.78734" lon="0.89429">
        <ele>2065</ele>
        <time>2010-01-01T07:16:03Z</time>
      </trkpt>
      <trkpt lat="42.78724" lon="0.89436">
        <ele>2066</ele>
        <time>2010-01-01T07:16:07Z</time>
      </trkpt>
      <trkpt lat="42.78718" lon="0.89444">
        <ele>2066</ele>
        <time>2010-01-01T07:16:11Z</time>
      </trkpt>
      <trkpt lat="42.78713" lon="0.89456">
        <ele>2066</ele>
        <time>2010-01-01T07:16:15Z</time>
      </trkpt>
      <trkpt lat="42.78708" lon="0.89468">
        <ele>2067</ele>
        <time>2010-01-01T07:16:19Z</time>
      </trkpt>
      <trkpt lat="42.78702" lon="0.89478">
        <ele>2068</ele>
        <time>2010-01-01T07:16:22Z</time>
      </trkpt>
      <trkpt lat="42.78696" lon="0.89489">
        <ele>2069</ele>
        <time>2010-01-01T07:16:27Z</time>
      </trkpt>
      <trkpt lat="42.7869" lon="0.89498">
        <ele>2070</ele>
        <time>2010-01-01T07:16:30Z</time>
      </trkpt>
      <trkpt lat="42.78682" lon="0.89505">
        <ele>2071</ele>
        <time>2010-01-01T07:16:34Z</time>
      </trkpt>
      <trkpt lat="42.78678" lon="0.89516">
        <ele>2072</ele>
        <time>2010-01-01T07:16:38Z</time>
      </trkpt>
      <trkpt lat="42.78676" lon="0.8953">
        <ele>2072</ele>
        <time>2010-01-01T07:16:42Z</time>
      </trkpt>
      <trkpt lat="42.78674" lon="0.89543">
        <ele>2072</ele>
        <time>2010-01-01T07:16:46Z</time>
      </trkpt>
      <trkpt lat="42.78667" lon="0.89552">
        <ele>2072</ele>
        <time>2010-01-01T07:16:49Z</time>
      </trkpt>
      <trkpt lat="42.78659" lon="0.89557">
        <ele>2070</ele>
        <time>2010-01-01T07:16:53Z</time>
      </trkpt>
      <trkpt lat="42.78652" lon="0.89565">
        <ele>2069</ele>
        <time>2010-01-01T07:16:57Z</time>
      </trkpt>
      <trkpt lat="42.78649" lon="0.89576">
        <ele>2068</ele>
        <time>2010-01-01T07:17:00Z</time>
      </trkpt>
      <trkpt lat="42.78646" lon="0.89588">
        <ele>2068</ele>
        <time>2010-01-01T07:17:04Z</time>
      </trkpt>
      <trkpt lat="42.78644" lon="0.89601">
        <ele>2068</ele>
        <time>2010-01-01T07:17:08Z</time>
      </trkpt>
      <trkpt lat="42.78643" lon="0.89614">
        <ele>2068</ele>
        <time>2010-01-01T07:17:12Z</time>
      </trkpt>
      <trkpt lat="42.7864" lon="0.89627">
        <ele>2068</ele>
        <time>2010-01-01T07:17:15Z</time>
      </trkpt>
      <trkpt lat="42.78638" lon="0.89639">
        <ele>2068</ele>
        <time>2010-01-01T07:17:19Z</time>
      </trkpt>
      <trkpt lat="42.78634" lon="0.89652">
        <ele>2068</ele>
        <time>2010-01-01T07:17:23Z</time>
      </trkpt>
      <trkpt lat="42.78629" lon="0.89665">
        <ele>2067</ele>
        <time>2010-01-01T07:17:28Z</time>
      </trkpt>
      <trkpt lat="42.78623" lon="0.89678">
        <ele>2066</ele>
        <time>2010-01-01T07:17:32Z</time>
      </trkpt>
      <trkpt lat="42.7862" lon="0.89692">
        <ele>2065</ele>
        <time>2010-01-01T07:17:36Z</time>
      </trkpt>
      <trkpt lat="42.78621" lon="0.89706">
        <ele>2067</ele>
        <time>2010-01-01T07:17:41Z</time>
      </trkpt>
      <trkpt lat="42.78621" lon="0.89721">
        <ele>2068</ele>
        <time>2010-01-01T07:17:45Z</time>
      </trkpt>
      <trkpt lat="42.7862" lon="0.89736">
        <ele>2069</ele>
        <time>2010-01-01T07:17:49Z</time>
      </trkpt>
      <trkpt lat="42.7862" lon="0.8975">
        <ele>2071</ele>
        <time>2010-01-01T07:17:54Z</time>
      </trkpt>
      <trkpt lat="42.78617" lon="0.89765">
        <ele>2075</ele>
        <time>2010-01-01T07:17:58Z</time>
      </trkpt>
      <trkpt lat="42.78613" lon="0.89778">
        <ele>2078</ele>
        <time>2010-01-01T07:18:02Z</time>
      </trkpt>
      <trkpt lat="42.78604" lon="0.89791">
        <ele>2079</ele>
        <time>2010-01-01T07:18:07Z</time>
      </trkpt>
      <trkpt lat="42.78595" lon="0.89799">
        <ele>2078</ele>
        <time>2010-01-01T07:18:12Z</time>
      </trkpt>
      <trkpt lat="42.78586" lon="0.89809">
        <ele>2077</ele>
        <time>2010-01-01T07:18:16Z</time>
      </trkpt>
      <trkpt lat="42.78576" lon="0.89817">
        <ele>2075</ele>
        <time>2010-01-01T07:18:21Z</time>
      </trkpt>
      <trkpt lat="42.78568" lon="0.89823">
        <ele>2073</ele>
        <time>2010-01-01T07:18:25Z</time>
      </trkpt>
      <trkpt lat="42.78558" lon="0.89828">
        <ele>2070</ele>
        <time>2010-01-01T07:18:29Z</time>
      </trkpt>
      <trkpt lat="42.7855" lon="0.89835">
        <ele>2071</ele>
        <time>2010-01-01T07:18:33Z</time>
      </trkpt>
      <trkpt lat="42.78545" lon="0.89847">
        <ele>2072</ele>
        <time>2010-01-01T07:18:37Z</time>
      </trkpt>
      <trkpt lat="42.7854" lon="0.8986">
        <ele>2074</ele>
        <time>2010-01-01T07:18:41Z</time>
      </trkpt>
      <trkpt lat="42.78535" lon="0.8988">
        <ele>2076</ele>
        <time>2010-01-01T07:18:47Z</time>
      </trkpt>
      <trkpt lat="42.78526" lon="0.89892">
        <ele>2076</ele>
        <time>2010-01-01T07:18:52Z</time>
      </trkpt>
      <trkpt lat="42.78517" lon="0.89904">
        <ele>2074</ele>
        <time>2010-01-01T07:18:57Z</time>
      </trkpt>
      <trkpt lat="42.78508" lon="0.89916">
        <ele>2072</ele>
        <time>2010-01-01T07:19:02Z</time>
      </trkpt>
      <trkpt lat="42.785" lon="0.89929">
        <ele>2072</ele>
        <time>2010-01-01T07:19:07Z</time>
      </trkpt>
      <trkpt lat="42.78491" lon="0.89949">
        <ele>2075</ele>
        <time>2010-01-01T07:19:14Z</time>
      </trkpt>
      <trkpt lat="42.78485" lon="0.89964">
        <ele>2080</ele>
        <time>2010-01-01T07:19:19Z</time>
      </trkpt>
      <trkpt lat="42.7848" lon="0.89981">
        <ele>2084</ele>
        <time>2010-01-01T07:19:25Z</time>
      </trkpt>
      <trkpt lat="42.7847" lon="0.9">
        <ele>2086</ele>
        <time>2010-01-01T07:19:32Z</time>
      </trkpt>
      <trkpt lat="42.78462" lon="0.90012">
        <ele>2088</ele>
        <time>2010-01-01T07:19:36Z</time>
      </trkpt>
      <trkpt lat="42.78454" lon="0.90021">
        <ele>2088</ele>
        <time>2010-01-01T07:19:41Z</time>
      </trkpt>
      <trkpt lat="42.78444" lon="0.90033">
        <ele>2088</ele>
        <time>2010-01-01T07:19:46Z</time>
      </trkpt>
      <trkpt lat="42.78434" lon="0.90042">
        <ele>2086</ele>
        <time>2010-01-01T07:19:50Z</time>
      </trkpt>
      <trkpt lat="42.78425" lon="0.90055">
        <ele>2086</ele>
        <time>2010-01-01T07:19:56Z</time>
      </trkpt>
      <trkpt lat="42.78416" lon="0.90065">
        <ele>2085</ele>
        <time>2010-01-01T07:20:00Z</time>
      </trkpt>
      <trkpt lat="42.78407" lon="0.90075">
        <ele>2086</ele>
        <time>2010-01-01T07:20:05Z</time>
      </trkpt>
      <trkpt lat="42.78398" lon="0.90086">
        <ele>2087</ele>
        <time>2010-01-01T07:20:10Z</time>
      </trkpt>
      <trkpt lat="42.78389" lon="0.90095">
        <ele>2087</ele>
        <time>2010-01-01T07:20:14Z</time>
      </trkpt>
      <trkpt lat="42.7838" lon="0.90101">
        <ele>2088</ele>
        <time>2010-01-01T07:20:18Z</time>
      </trkpt>
      <trkpt lat="42.78371" lon="0.90106">
        <ele>2087</ele>
        <time>2010-01-01T07:20:22Z</time>
      </trkpt>
      <trkpt lat="42.78362" lon="0.90112">
        <ele>2085</ele>
        <time>2010-01-01T07:20:26Z</time>
      </trkpt>
      <trkpt lat="42.78353" lon="0.90117">
        <ele>2085</ele>
        <time>2010-01-01T07:20:30Z</time>
      </trkpt>
      <trkpt lat="42.78344" lon="0.90125">
        <ele>2086</ele>
        <time>2010-01-01T07:20:35Z</time>
      </trkpt>
      <trkpt lat="42.78335" lon="0.90134">
        <ele>2089</ele>
        <time>2010-01-01T07:20:39Z</time>
      </trkpt>
      <trkpt lat="42.78327" lon="0.90144">
        <ele>2091</ele>
        <time>2010-01-01T07:20:43Z</time>
      </trkpt>
      <trkpt lat="42.78319" lon="0.9016">
        <ele>2094</ele>
        <time>2010-01-01T07:20:49Z</time>
      </trkpt>
      <trkpt lat="42.78309" lon="0.90169">
        <ele>2093</ele>
        <time>2010-01-01T07:20:54Z</time>
      </trkpt>
      <trkpt lat="42.783" lon="0.90176">
        <ele>2092</ele>
        <time>2010-01-01T07:20:58Z</time>
      </trkpt>
      <trkpt lat="42.78291" lon="0.90186">
        <ele>2094</ele>
        <time>2010-01-01T07:21:03Z</time>
      </trkpt>
      <trkpt lat="42.78282" lon="0.90194">
        <ele>2094</ele>
        <time>2010-01-01T07:21:07Z</time>
      </trkpt>
      <trkpt lat="42.78272" lon="0.902">
        <ele>2093</ele>
        <time>2010-01-01T07:21:11Z</time>
      </trkpt>
      <trkpt lat="42.78263" lon="0.90205">
        <ele>2092</ele>
        <time>2010-01-01T07:21:15Z</time>
      </trkpt>
      <trkpt lat="42.78254" lon="0.9021">
        <ele>2092</ele>
        <time>2010-01-01T07:21:19Z</time>
      </trkpt>
      <trkpt lat="42.78244" lon="0.90214">
        <ele>2095</ele>
        <time>2010-01-01T07:21:23Z</time>
      </trkpt>
      <trkpt lat="42.78236" lon="0.90223">
        <ele>2100</ele>
        <time>2010-01-01T07:21:27Z</time>
      </trkpt>
      <trkpt lat="42.78228" lon="0.90232">
        <ele>2104</ele>
        <time>2010-01-01T07:21:31Z</time>
      </trkpt>
      <trkpt lat="42.7822" lon="0.9024">
        <ele>2107</ele>
        <time>2010-01-01T07:21:36Z</time>
      </trkpt>
      <trkpt lat="42.78211" lon="0.90248">
        <ele>2109</ele>
        <time>2010-01-01T07:21:40Z</time>
      </trkpt>
      <trkpt lat="42.78208" lon="0.90261">
        <ele>2109</ele>
        <time>2010-01-01T07:21:44Z</time>
      </trkpt>
      <trkpt lat="42.78211" lon="0.90277">
        <ele>2110</ele>
        <time>2010-01-01T07:21:48Z</time>
      </trkpt>
      <trkpt lat="42.78214" lon="0.90291">
        <ele>2112</ele>
        <time>2010-01-01T07:21:53Z</time>
      </trkpt>
      <trkpt lat="42.78212" lon="0.90303">
        <ele>2112</ele>
        <time>2010-01-01T07:21:57Z</time>
      </trkpt>
      <trkpt lat="42.78204" lon="0.90313">
        <ele>2111</ele>
        <time>2010-01-01T07:22:01Z</time>
      </trkpt>
      <trkpt lat="42.78195" lon="0.90319">
        <ele>2109</ele>
        <time>2010-01-01T07:22:05Z</time>
      </trkpt>
      <trkpt lat="42.78186" lon="0.90326">
        <ele>2107</ele>
        <time>2010-01-01T07:22:09Z</time>
      </trkpt>
      <trkpt lat="42.78181" lon="0.90337">
        <ele>2105</ele>
        <time>2010-01-01T07:22:13Z</time>
      </trkpt>
      <trkpt lat="42.78178" lon="0.90349">
        <ele>2104</ele>
        <time>2010-01-01T07:22:17Z</time>
      </trkpt>
      <trkpt lat="42.78172" lon="0.90359">
        <ele>2102</ele>
        <time>2010-01-01T07:22:20Z</time>
      </trkpt>
      <trkpt lat="42.78163" lon="0.90372">
        <ele>2099</ele>
        <time>2010-01-01T07:22:26Z</time>
      </trkpt>
      <trkpt lat="42.78154" lon="0.90386">
        <ele>2093</ele>
        <time>2010-01-01T07:22:31Z</time>
      </trkpt>
      <trkpt lat="42.78149" lon="0.90378">
        <ele>2090</ele>
        <time>2010-01-01T07:22:34Z</time>
      </trkpt>
      <trkpt lat="42.78151" lon="0.90365">
        <ele>2091</ele>
        <time>2010-01-01T07:22:38Z</time>
      </trkpt>
      <trkpt lat="42.78153" lon="0.90352">
        <ele>2093</ele>
        <time>2010-01-01T07:22:42Z</time>
      </trkpt>
      <trkpt lat="42.78146" lon="0.90346">
        <ele>2090</ele>
        <time>2010-01-01T07:22:45Z</time>
      </trkpt>
      <trkpt lat="42.78143" lon="0.90357">
        <ele>2086</ele>
        <time>2010-01-01T07:22:48Z</time>
      </trkpt>
      <trkpt lat="42.78138" lon="0.90369">
        <ele>2083</ele>
        <time>2010-01-01T07:22:52Z</time>
      </trkpt>
      <trkpt lat="42.78133" lon="0.9038">
        <ele>2081</ele>
        <time>2010-01-01T07:22:56Z</time>
      </trkpt>
      <trkpt lat="42.78128" lon="0.90393">
        <ele>2080</ele>
        <time>2010-01-01T07:23:01Z</time>
      </trkpt>
      <trkpt lat="42.78128" lon="0.9041">
        <ele>2081</ele>
        <time>2010-01-01T07:23:06Z</time>
      </trkpt>
      <trkpt lat="42.78128" lon="0.90426">
        <ele>2084</ele>
        <time>2010-01-01T07:23:10Z</time>
      </trkpt>
      <trkpt lat="42.78123" lon="0.90442">
        <ele>2084</ele>
        <time>2010-01-01T07:23:15Z</time>
      </trkpt>
      <trkpt lat="42.78118" lon="0.90456">
        <ele>2082</ele>
        <time>2010-01-01T07:23:20Z</time>
      </trkpt>
      <trkpt lat="42.7811" lon="0.90468">
        <ele>2077</ele>
        <time>2010-01-01T07:23:25Z</time>
      </trkpt>
      <trkpt lat="42.78102" lon="0.90482">
        <ele>2074</ele>
        <time>2010-01-01T07:23:30Z</time>
      </trkpt>
      <trkpt lat="42.78093" lon="0.90495">
        <ele>2072</ele>
        <time>2010-01-01T07:23:35Z</time>
      </trkpt>
      <trkpt lat="42.78083" lon="0.90507">
        <ele>2070</ele>
        <time>2010-01-01T07:23:40Z</time>
      </trkpt>
      <trkpt lat="42.78076" lon="0.90519">
        <ele>2073</ele>
        <time>2010-01-01T07:23:45Z</time>
      </trkpt>
      <trkpt lat="42.78069" lon="0.90531">
        <ele>2076</ele>
        <time>2010-01-01T07:23:49Z</time>
      </trkpt>
      <trkpt lat="42.78062" lon="0.90536">
        <ele>2076</ele>
        <time>2010-01-01T07:23:53Z</time>
      </trkpt>
      <trkpt lat="42.7805" lon="0.90533">
        <ele>2071</ele>
        <time>2010-01-01T07:23:57Z</time>
      </trkpt>
      <trkpt lat="42.7804" lon="0.90529">
        <ele>2067</ele>
        <time>2010-01-01T07:24:01Z</time>
      </trkpt>
      <trkpt lat="42.7803" lon="0.90526">
        <ele>2063</ele>
        <time>2010-01-01T07:24:06Z</time>
      </trkpt>
      <trkpt lat="42.78018" lon="0.90525">
        <ele>2059</ele>
        <time>2010-01-01T07:24:11Z</time>
      </trkpt>
      <trkpt lat="42.78007" lon="0.90525">
        <ele>2056</ele>
        <time>2010-01-01T07:24:15Z</time>
      </trkpt>
      <trkpt lat="42.77996" lon="0.90529">
        <ele>2055</ele>
        <time>2010-01-01T07:24:19Z</time>
      </trkpt>
      <trkpt lat="42.77986" lon="0.90526">
        <ele>2052</ele>
        <time>2010-01-01T07:24:24Z</time>
      </trkpt>
      <trkpt lat="42.77979" lon="0.90516">
        <ele>2049</ele>
        <time>2010-01-01T07:24:27Z</time>
      </trkpt>
      <trkpt lat="42.77974" lon="0.90506">
        <ele>2046</ele>
        <time>2010-01-01T07:24:31Z</time>
      </trkpt>
      <trkpt lat="42.77967" lon="0.90495">
        <ele>2043</ele>
        <time>2010-01-01T07:24:36Z</time>
      </trkpt>
      <trkpt lat="42.77965" lon="0.90483">
        <ele>2041</ele>
        <time>2010-01-01T07:24:39Z</time>
      </trkpt>
      <trkpt lat="42.77955" lon="0.90479">
        <ele>2039</ele>
        <time>2010-01-01T07:24:43Z</time>
      </trkpt>
      <trkpt lat="42.77945" lon="0.90477">
        <ele>2037</ele>
        <time>2010-01-01T07:24:47Z</time>
      </trkpt>
      <trkpt lat="42.77935" lon="0.90477">
        <ele>2034</ele>
        <time>2010-01-01T07:24:51Z</time>
      </trkpt>
      <trkpt lat="42.77925" lon="0.90474">
        <ele>2030</ele>
        <time>2010-01-01T07:24:55Z</time>
      </trkpt>
      <trkpt lat="42.77916" lon="0.90474">
        <ele>2026</ele>
        <time>2010-01-01T07:24:59Z</time>
      </trkpt>
      <trkpt lat="42.77905" lon="0.90473">
        <ele>2025</ele>
        <time>2010-01-01T07:25:03Z</time>
      </trkpt>
      <trkpt lat="42.77895" lon="0.90475">
        <ele>2025</ele>
        <time>2010-01-01T07:25:07Z</time>
      </trkpt>
      <trkpt lat="42.77885" lon="0.90478">
        <ele>2026</ele>
        <time>2010-01-01T07:25:12Z</time>
      </trkpt>
      <trkpt lat="42.77875" lon="0.9048">
        <ele>2026</ele>
        <time>2010-01-01T07:25:16Z</time>
      </trkpt>
      <trkpt lat="42.77864" lon="0.90482">
        <ele>2026</ele>
        <time>2010-01-01T07:25:20Z</time>
      </trkpt>
      <trkpt lat="42.77854" lon="0.90482">
        <ele>2026</ele>
        <time>2010-01-01T07:25:24Z</time>
      </trkpt>
      <trkpt lat="42.77846" lon="0.90475">
        <ele>2025</ele>
        <time>2010-01-01T07:25:28Z</time>
      </trkpt>
      <trkpt lat="42.77837" lon="0.9047">
        <ele>2025</ele>
        <time>2010-01-01T07:25:32Z</time>
      </trkpt>
      <trkpt lat="42.77827" lon="0.90472">
        <ele>2025</ele>
        <time>2010-01-01T07:25:36Z</time>
      </trkpt>
      <trkpt lat="42.77818" lon="0.9048">
        <ele>2026</ele>
        <time>2010-01-01T07:25:40Z</time>
      </trkpt>
      <trkpt lat="42.77809" lon="0.90487">
        <ele>2026</ele>
        <time>2010-01-01T07:25:44Z</time>
      </trkpt>
      <trkpt lat="42.77799" lon="0.90492">
        <ele>2026</ele>
        <time>2010-01-01T07:25:48Z</time>
      </trkpt>
      <trkpt lat="42.77789" lon="0.90493">
        <ele>2025</ele>
        <time>2010-01-01T07:25:52Z</time>
      </trkpt>
      <trkpt lat="42.77779" lon="0.90488">
        <ele>2023</ele>
        <time>2010-01-01T07:25:57Z</time>
      </trkpt>
      <trkpt lat="42.77771" lon="0.9048">
        <ele>2020</ele>
        <time>2010-01-01T07:26:01Z</time>
      </trkpt>
      <trkpt lat="42.77764" lon="0.90471">
        <ele>2017</ele>
        <time>2010-01-01T07:26:05Z</time>
      </trkpt>
      <trkpt lat="42.77755" lon="0.90464">
        <ele>2014</ele>
        <time>2010-01-01T07:26:09Z</time>
      </trkpt>
      <trkpt lat="42.77746" lon="0.90459">
        <ele>2011</ele>
        <time>2010-01-01T07:26:13Z</time>
      </trkpt>
      <trkpt lat="42.77737" lon="0.90455">
        <ele>2010</ele>
        <time>2010-01-01T07:26:16Z</time>
      </trkpt>
      <trkpt lat="42.77727" lon="0.90453">
        <ele>2008</ele>
        <time>2010-01-01T07:26:20Z</time>
      </trkpt>
      <trkpt lat="42.77718" lon="0.90455">
        <ele>2008</ele>
        <time>2010-01-01T07:26:24Z</time>
      </trkpt>
      <trkpt lat="42.77709" lon="0.90456">
        <ele>2007</ele>
        <time>2010-01-01T07:26:28Z</time>
      </trkpt>
      <trkpt lat="42.77699" lon="0.90457">
        <ele>2005</ele>
        <time>2010-01-01T07:26:32Z</time>
      </trkpt>
      <trkpt lat="42.7769" lon="0.9046">
        <ele>2004</ele>
        <time>2010-01-01T07:26:35Z</time>
      </trkpt>
      <trkpt lat="42.77682" lon="0.90468">
        <ele>2004</ele>
        <time>2010-01-01T07:26:39Z</time>
      </trkpt>
      <trkpt lat="42.77673" lon="0.90473">
        <ele>2003</ele>
        <time>2010-01-01T07:26:43Z</time>
      </trkpt>
      <trkpt lat="42.77663" lon="0.90474">
        <ele>2001</ele>
        <time>2010-01-01T07:26:47Z</time>
      </trkpt>
      <trkpt lat="42.77654" lon="0.90468">
        <ele>1999</ele>
        <time>2010-01-01T07:26:51Z</time>
      </trkpt>
      <trkpt lat="42.77645" lon="0.90462">
        <ele>1997</ele>
        <time>2010-01-01T07:26:55Z</time>
      </trkpt>
      <trkpt lat="42.77634" lon="0.90458">
        <ele>1997</ele>
        <time>2010-01-01T07:27:00Z</time>
      </trkpt>
      <trkpt lat="42.77623" lon="0.90457">
        <ele>1998</ele>
        <time>2010-01-01T07:27:04Z</time>
      </trkpt>
      <trkpt lat="42.77614" lon="0.90461">
        <ele>2000</ele>
        <time>2010-01-01T07:27:08Z</time>
      </trkpt>
      <trkpt lat="42.77606" lon="0.90469">
        <ele>2001</ele>
        <time>2010-01-01T07:27:12Z</time>
      </trkpt>
      <trkpt lat="42.77597" lon="0.90476">
        <ele>2001</ele>
        <time>2010-01-01T07:27:16Z</time>
      </trkpt>
      <trkpt lat="42.77588" lon="0.90471">
        <ele>2000</ele>
        <time>2010-01-01T07:27:20Z</time>
      </trkpt>
      <trkpt lat="42.77578" lon="0.90465">
        <ele>1997</ele>
        <time>2010-01-01T07:27:24Z</time>
      </trkpt>
      <trkpt lat="42.77568" lon="0.90459">
        <ele>1994</ele>
        <time>2010-01-01T07:27:29Z</time>
      </trkpt>
      <trkpt lat="42.7756" lon="0.90454">
        <ele>1992</ele>
        <time>2010-01-01T07:27:32Z</time>
      </trkpt>
      <trkpt lat="42.7755" lon="0.90451">
        <ele>1987</ele>
        <time>2010-01-01T07:27:36Z</time>
      </trkpt>
      <trkpt lat="42.77541" lon="0.90456">
        <ele>1984</ele>
        <time>2010-01-01T07:27:40Z</time>
      </trkpt>
      <trkpt lat="42.77533" lon="0.90463">
        <ele>1982</ele>
        <time>2010-01-01T07:27:44Z</time>
      </trkpt>
      <trkpt lat="42.77525" lon="0.90471">
        <ele>1980</ele>
        <time>2010-01-01T07:27:48Z</time>
      </trkpt>
      <trkpt lat="42.77519" lon="0.9048">
        <ele>1979</ele>
        <time>2010-01-01T07:27:52Z</time>
      </trkpt>
      <trkpt lat="42.77512" lon="0.9049">
        <ele>1977</ele>
        <time>2010-01-01T07:27:56Z</time>
      </trkpt>
      <trkpt lat="42.77507" lon="0.90489">
        <ele>1973</ele>
        <time>2010-01-01T07:27:58Z</time>
      </trkpt>
      <trkpt lat="42.77503" lon="0.90482">
        <ele>1967</ele>
        <time>2010-01-01T07:28:00Z</time>
      </trkpt>
      <trkpt lat="42.77507" lon="0.90471">
        <ele>1967</ele>
        <time>2010-01-01T07:28:04Z</time>
      </trkpt>
      <trkpt lat="42.77508" lon="0.90458">
        <ele>1964</ele>
        <time>2010-01-01T07:28:08Z</time>
      </trkpt>
      <trkpt lat="42.77512" lon="0.90443">
        <ele>1963</ele>
        <time>2010-01-01T07:28:12Z</time>
      </trkpt>
      <trkpt lat="42.77517" lon="0.9043">
        <ele>1964</ele>
        <time>2010-01-01T07:28:17Z</time>
      </trkpt>
      <trkpt lat="42.77524" lon="0.90419">
        <ele>1966</ele>
        <time>2010-01-01T07:28:21Z</time>
      </trkpt>
      <trkpt lat="42.77532" lon="0.90409">
        <ele>1969</ele>
        <time>2010-01-01T07:28:25Z</time>
      </trkpt>
      <trkpt lat="42.77537" lon="0.90398">
        <ele>1970</ele>
        <time>2010-01-01T07:28:29Z</time>
      </trkpt>
      <trkpt lat="42.77539" lon="0.90385">
        <ele>1969</ele>
        <time>2010-01-01T07:28:33Z</time>
      </trkpt>
      <trkpt lat="42.77544" lon="0.90372">
        <ele>1970</ele>
        <time>2010-01-01T07:28:37Z</time>
      </trkpt>
      <trkpt lat="42.77547" lon="0.9036">
        <ele>1970</ele>
        <time>2010-01-01T07:28:41Z</time>
      </trkpt>
      <trkpt lat="42.77551" lon="0.90347">
        <ele>1971</ele>
        <time>2010-01-01T07:28:45Z</time>
      </trkpt>
      <trkpt lat="42.77556" lon="0.90336">
        <ele>1972</ele>
        <time>2010-01-01T07:28:49Z</time>
      </trkpt>
      <trkpt lat="42.7756" lon="0.90324">
        <ele>1970</ele>
        <time>2010-01-01T07:28:53Z</time>
      </trkpt>
      <trkpt lat="42.77558" lon="0.9031">
        <ele>1969</ele>
        <time>2010-01-01T07:28:57Z</time>
      </trkpt>
      <trkpt lat="42.77558" lon="0.90297">
        <ele>1967</ele>
        <time>2010-01-01T07:29:01Z</time>
      </trkpt>
      <trkpt lat="42.77557" lon="0.90284">
        <ele>1965</ele>
        <time>2010-01-01T07:29:05Z</time>
      </trkpt>
      <trkpt lat="42.77558" lon="0.9027">
        <ele>1964</ele>
        <time>2010-01-01T07:29:09Z</time>
      </trkpt>
      <trkpt lat="42.7756" lon="0.90257">
        <ele>1963</ele>
        <time>2010-01-01T07:29:13Z</time>
      </trkpt>
      <trkpt lat="42.77562" lon="0.90245">
        <ele>1962</ele>
        <time>2010-01-01T07:29:16Z</time>
      </trkpt>
      <trkpt lat="42.77561" lon="0.90232">
        <ele>1962</ele>
        <time>2010-01-01T07:29:20Z</time>
      </trkpt>
      <trkpt lat="42.77562" lon="0.90218">
        <ele>1962</ele>
        <time>2010-01-01T07:29:24Z</time>
      </trkpt>
      <trkpt lat="42.77564" lon="0.90204">
        <ele>1961</ele>
        <time>2010-01-01T07:29:28Z</time>
      </trkpt>
      <trkpt lat="42.77559" lon="0.90194">
        <ele>1961</ele>
        <time>2010-01-01T07:29:32Z</time>
      </trkpt>
      <trkpt lat="42.77554" lon="0.90182">
        <ele>1966</ele>
        <time>2010-01-01T07:29:36Z</time>
      </trkpt>
      <trkpt lat="42.77545" lon="0.9018">
        <ele>1970</ele>
        <time>2010-01-01T07:29:40Z</time>
      </trkpt>
      <trkpt lat="42.77536" lon="0.90179">
        <ele>1974</ele>
        <time>2010-01-01T07:29:43Z</time>
      </trkpt>
      <trkpt lat="42.77523" lon="0.9018">
        <ele>1978</ele>
        <time>2010-01-01T07:29:48Z</time>
      </trkpt>
      <trkpt lat="42.77514" lon="0.90186">
        <ele>1979</ele>
        <time>2010-01-01T07:29:53Z</time>
      </trkpt>
      <trkpt lat="42.77505" lon="0.90184">
        <ele>1982</ele>
        <time>2010-01-01T07:29:56Z</time>
      </trkpt>
      <trkpt lat="42.77506" lon="0.90171">
        <ele>1987</ele>
        <time>2010-01-01T07:30:00Z</time>
      </trkpt>
      <trkpt lat="42.77495" lon="0.90174">
        <ele>1988</ele>
        <time>2010-01-01T07:30:04Z</time>
      </trkpt>
      <trkpt lat="42.77485" lon="0.90176">
        <ele>1989</ele>
        <time>2010-01-01T07:30:09Z</time>
      </trkpt>
      <trkpt lat="42.77474" lon="0.90175">
        <ele>1991</ele>
        <time>2010-01-01T07:30:13Z</time>
      </trkpt>
      <trkpt lat="42.77463" lon="0.90171">
        <ele>1994</ele>
        <time>2010-01-01T07:30:18Z</time>
      </trkpt>
      <trkpt lat="42.77456" lon="0.90163">
        <ele>1997</ele>
        <time>2010-01-01T07:30:21Z</time>
      </trkpt>
      <trkpt lat="42.77456" lon="0.90151">
        <ele>2000</ele>
        <time>2010-01-01T07:30:25Z</time>
      </trkpt>
      <trkpt lat="42.7745" lon="0.90141">
        <ele>2004</ele>
        <time>2010-01-01T07:30:28Z</time>
      </trkpt>
      <trkpt lat="42.77443" lon="0.90149">
        <ele>2004</ele>
        <time>2010-01-01T07:30:32Z</time>
      </trkpt>
      <trkpt lat="42.77436" lon="0.90158">
        <ele>2004</ele>
        <time>2010-01-01T07:30:36Z</time>
      </trkpt>
      <trkpt lat="42.77429" lon="0.90169">
        <ele>2004</ele>
        <time>2010-01-01T07:30:40Z</time>
      </trkpt>
      <trkpt lat="42.77422" lon="0.90179">
        <ele>2003</ele>
        <time>2010-01-01T07:30:44Z</time>
      </trkpt>
      <trkpt lat="42.77416" lon="0.90191">
        <ele>2001</ele>
        <time>2010-01-01T07:30:49Z</time>
      </trkpt>
      <trkpt lat="42.77407" lon="0.90199">
        <ele>2003</ele>
        <time>2010-01-01T07:30:53Z</time>
      </trkpt>
      <trkpt lat="42.77398" lon="0.90208">
        <ele>2005</ele>
        <time>2010-01-01T07:30:57Z</time>
      </trkpt>
      <trkpt lat="42.7739" lon="0.90219">
        <ele>2006</ele>
        <time>2010-01-01T07:31:02Z</time>
      </trkpt>
      <trkpt lat="42.77383" lon="0.90231">
        <ele>2006</ele>
        <time>2010-01-01T07:31:06Z</time>
      </trkpt>
      <trkpt lat="42.77376" lon="0.90242">
        <ele>2006</ele>
        <time>2010-01-01T07:31:11Z</time>
      </trkpt>
      <trkpt lat="42.77366" lon="0.90248">
        <ele>2008</ele>
        <time>2010-01-01T07:31:15Z</time>
      </trkpt>
      <trkpt lat="42.77356" lon="0.90249">
        <ele>2009</ele>
        <time>2010-01-01T07:31:19Z</time>
      </trkpt>
      <trkpt lat="42.77347" lon="0.90254">
        <ele>2008</ele>
        <time>2010-01-01T07:31:23Z</time>
      </trkpt>
      <trkpt lat="42.77337" lon="0.9026">
        <ele>2006</ele>
        <time>2010-01-01T07:31:27Z</time>
      </trkpt>
      <trkpt lat="42.77328" lon="0.90263">
        <ele>2005</ele>
        <time>2010-01-01T07:31:31Z</time>
      </trkpt>
      <trkpt lat="42.77318" lon="0.90262">
        <ele>2005</ele>
        <time>2010-01-01T07:31:35Z</time>
      </trkpt>
      <trkpt lat="42.7731" lon="0.90255">
        <ele>2006</ele>
        <time>2010-01-01T07:31:39Z</time>
      </trkpt>
      <trkpt lat="42.77304" lon="0.90245">
        <ele>2006</ele>
        <time>2010-01-01T07:31:43Z</time>
      </trkpt>
      <trkpt lat="42.77298" lon="0.90232">
        <ele>2006</ele>
        <time>2010-01-01T07:31:47Z</time>
      </trkpt>
      <trkpt lat="42.77293" lon="0.90217">
        <ele>2006</ele>
        <time>2010-01-01T07:31:52Z</time>
      </trkpt>
      <trkpt lat="42.77289" lon="0.90202">
        <ele>2008</ele>
        <time>2010-01-01T07:31:57Z</time>
      </trkpt>
      <trkpt lat="42.7729" lon="0.90187">
        <ele>2011</ele>
        <time>2010-01-01T07:32:01Z</time>
      </trkpt>
      <trkpt lat="42.77283" lon="0.90174">
        <ele>2010</ele>
        <time>2010-01-01T07:32:06Z</time>
      </trkpt>
      <trkpt lat="42.77276" lon="0.90163">
        <ele>2010</ele>
        <time>2010-01-01T07:32:10Z</time>
      </trkpt>
      <trkpt lat="42.77268" lon="0.90157">
        <ele>2011</ele>
        <time>2010-01-01T07:32:14Z</time>
      </trkpt>
      <trkpt lat="42.77263" lon="0.90168">
        <ele>2008</ele>
        <time>2010-01-01T07:32:18Z</time>
      </trkpt>
      <trkpt lat="42.77255" lon="0.90176">
        <ele>2006</ele>
        <time>2010-01-01T07:32:21Z</time>
      </trkpt>
      <trkpt lat="42.77245" lon="0.90177">
        <ele>2006</ele>
        <time>2010-01-01T07:32:25Z</time>
      </trkpt>
      <trkpt lat="42.77236" lon="0.90169">
        <ele>2008</ele>
        <time>2010-01-01T07:32:30Z</time>
      </trkpt>
      <trkpt lat="42.77226" lon="0.90173">
        <ele>2008</ele>
        <time>2010-01-01T07:32:34Z</time>
      </trkpt>
      <trkpt lat="42.77217" lon="0.90174">
        <ele>2009</ele>
        <time>2010-01-01T07:32:38Z</time>
      </trkpt>
      <trkpt lat="42.77205" lon="0.90173">
        <ele>2010</ele>
        <time>2010-01-01T07:32:42Z</time>
      </trkpt>
      <trkpt lat="42.77192" lon="0.90177">
        <ele>2010</ele>
        <time>2010-01-01T07:32:47Z</time>
      </trkpt>
      <trkpt lat="42.77183" lon="0.90182">
        <ele>2010</ele>
        <time>2010-01-01T07:32:52Z</time>
      </trkpt>
      <trkpt lat="42.77174" lon="0.90189">
        <ele>2010</ele>
        <time>2010-01-01T07:32:56Z</time>
      </trkpt>
      <trkpt lat="42.77166" lon="0.90196">
        <ele>2011</ele>
        <time>2010-01-01T07:33:00Z</time>
      </trkpt>
      <trkpt lat="42.77159" lon="0.90206">
        <ele>2012</ele>
        <time>2010-01-01T07:33:04Z</time>
      </trkpt>
      <trkpt lat="42.77151" lon="0.90217">
        <ele>2012</ele>
        <time>2010-01-01T07:33:08Z</time>
      </trkpt>
      <trkpt lat="42.77143" lon="0.90224">
        <ele>2014</ele>
        <time>2010-01-01T07:33:12Z</time>
      </trkpt>
      <trkpt lat="42.77132" lon="0.90226">
        <ele>2017</ele>
        <time>2010-01-01T07:33:16Z</time>
      </trkpt>
      <trkpt lat="42.77121" lon="0.90226">
        <ele>2020</ele>
        <time>2010-01-01T07:33:21Z</time>
      </trkpt>
      <trkpt lat="42.77112" lon="0.90233">
        <ele>2022</ele>
        <time>2010-01-01T07:33:25Z</time>
      </trkpt>
      <trkpt lat="42.77104" lon="0.90242">
        <ele>2023</ele>
        <time>2010-01-01T07:33:29Z</time>
      </trkpt>
      <trkpt lat="42.77094" lon="0.90248">
        <ele>2026</ele>
        <time>2010-01-01T07:33:33Z</time>
      </trkpt>
      <trkpt lat="42.77086" lon="0.90261">
        <ele>2025</ele>
        <time>2010-01-01T07:33:38Z</time>
      </trkpt>
      <trkpt lat="42.77078" lon="0.90268">
        <ele>2028</ele>
        <time>2010-01-01T07:33:42Z</time>
      </trkpt>
      <trkpt lat="42.7707" lon="0.90276">
        <ele>2032</ele>
        <time>2010-01-01T07:33:46Z</time>
      </trkpt>
      <trkpt lat="42.7706" lon="0.90282">
        <ele>2039</ele>
        <time>2010-01-01T07:33:51Z</time>
      </trkpt>
      <trkpt lat="42.77052" lon="0.90289">
        <ele>2042</ele>
        <time>2010-01-01T07:33:54Z</time>
      </trkpt>
      <trkpt lat="42.77045" lon="0.90299">
        <ele>2042</ele>
        <time>2010-01-01T07:33:58Z</time>
      </trkpt>
      <trkpt lat="42.77037" lon="0.90309">
        <ele>2043</ele>
        <time>2010-01-01T07:34:03Z</time>
      </trkpt>
      <trkpt lat="42.77029" lon="0.90318">
        <ele>2044</ele>
        <time>2010-01-01T07:34:07Z</time>
      </trkpt>
      <trkpt lat="42.77021" lon="0.90328">
        <ele>2044</ele>
        <time>2010-01-01T07:34:11Z</time>
      </trkpt>
      <trkpt lat="42.77013" lon="0.90339">
        <ele>2042</ele>
        <time>2010-01-01T07:34:16Z</time>
      </trkpt>
      <trkpt lat="42.77004" lon="0.90347">
        <ele>2042</ele>
        <time>2010-01-01T07:34:20Z</time>
      </trkpt>
      <trkpt lat="42.76995" lon="0.90356">
        <ele>2041</ele>
        <time>2010-01-01T07:34:25Z</time>
      </trkpt>
      <trkpt lat="42.7698" lon="0.90368">
        <ele>2039</ele>
        <time>2010-01-01T07:34:31Z</time>
      </trkpt>
      <trkpt lat="42.76969" lon="0.90371">
        <ele>2040</ele>
        <time>2010-01-01T07:34:36Z</time>
      </trkpt>
      <trkpt lat="42.76958" lon="0.90373">
        <ele>2042</ele>
        <time>2010-01-01T07:34:40Z</time>
      </trkpt>
      <trkpt lat="42.76949" lon="0.90378">
        <ele>2042</ele>
        <time>2010-01-01T07:34:44Z</time>
      </trkpt>
      <trkpt lat="42.76941" lon="0.90388">
        <ele>2040</ele>
        <time>2010-01-01T07:34:49Z</time>
      </trkpt>
      <trkpt lat="42.76931" lon="0.90397">
        <ele>2038</ele>
        <time>2010-01-01T07:34:53Z</time>
      </trkpt>
      <trkpt lat="42.76921" lon="0.904">
        <ele>2039</ele>
        <time>2010-01-01T07:34:58Z</time>
      </trkpt>
      <trkpt lat="42.76911" lon="0.90393">
        <ele>2045</ele>
        <time>2010-01-01T07:35:02Z</time>
      </trkpt>
      <trkpt lat="42.76903" lon="0.90386">
        <ele>2049</ele>
        <time>2010-01-01T07:35:06Z</time>
      </trkpt>
      <trkpt lat="42.76894" lon="0.90382">
        <ele>2052</ele>
        <time>2010-01-01T07:35:10Z</time>
      </trkpt>
      <trkpt lat="42.76884" lon="0.90381">
        <ele>2053</ele>
        <time>2010-01-01T07:35:13Z</time>
      </trkpt>
      <trkpt lat="42.76874" lon="0.90381">
        <ele>2052</ele>
        <time>2010-01-01T07:35:18Z</time>
      </trkpt>
      <trkpt lat="42.76863" lon="0.90377">
        <ele>2052</ele>
        <time>2010-01-01T07:35:22Z</time>
      </trkpt>
      <trkpt lat="42.76854" lon="0.90373">
        <ele>2052</ele>
        <time>2010-01-01T07:35:26Z</time>
      </trkpt>
      <trkpt lat="42.76844" lon="0.90366">
        <ele>2053</ele>
        <time>2010-01-01T07:35:30Z</time>
      </trkpt>
      <trkpt lat="42.76836" lon="0.90358">
        <ele>2053</ele>
        <time>2010-01-01T07:35:34Z</time>
      </trkpt>
      <trkpt lat="42.76831" lon="0.90346">
        <ele>2054</ele>
        <time>2010-01-01T07:35:38Z</time>
      </trkpt>
      <trkpt lat="42.76824" lon="0.90337">
        <ele>2053</ele>
        <time>2010-01-01T07:35:42Z</time>
      </trkpt>
      <trkpt lat="42.76819" lon="0.90325">
        <ele>2052</ele>
        <time>2010-01-01T07:35:46Z</time>
      </trkpt>
      <trkpt lat="42.76813" lon="0.90316">
        <ele>2050</ele>
        <time>2010-01-01T07:35:50Z</time>
      </trkpt>
      <trkpt lat="42.76805" lon="0.90309">
        <ele>2048</ele>
        <time>2010-01-01T07:35:54Z</time>
      </trkpt>
      <trkpt lat="42.76795" lon="0.90304">
        <ele>2046</ele>
        <time>2010-01-01T07:35:58Z</time>
      </trkpt>
      <trkpt lat="42.76793" lon="0.9029">
        <ele>2044</ele>
        <time>2010-01-01T07:36:02Z</time>
      </trkpt>
      <trkpt lat="42.76794" lon="0.90275">
        <ele>2043</ele>
        <time>2010-01-01T07:36:06Z</time>
      </trkpt>
      <trkpt lat="42.76793" lon="0.90263">
        <ele>2042</ele>
        <time>2010-01-01T07:36:10Z</time>
      </trkpt>
      <trkpt lat="42.76791" lon="0.90251">
        <ele>2041</ele>
        <time>2010-01-01T07:36:14Z</time>
      </trkpt>
      <trkpt lat="42.76793" lon="0.90237">
        <ele>2041</ele>
        <time>2010-01-01T07:36:18Z</time>
      </trkpt>
      <trkpt lat="42.76792" lon="0.90224">
        <ele>2040</ele>
        <time>2010-01-01T07:36:22Z</time>
      </trkpt>
      <trkpt lat="42.76789" lon="0.9021">
        <ele>2039</ele>
        <time>2010-01-01T07:36:26Z</time>
      </trkpt>
      <trkpt lat="42.76782" lon="0.902">
        <ele>2036</ele>
        <time>2010-01-01T07:36:30Z</time>
      </trkpt>
      <trkpt lat="42.76772" lon="0.90195">
        <ele>2034</ele>
        <time>2010-01-01T07:36:34Z</time>
      </trkpt>
      <trkpt lat="42.7676" lon="0.90195">
        <ele>2033</ele>
        <time>2010-01-01T07:36:39Z</time>
      </trkpt>
      <trkpt lat="42.76749" lon="0.90195">
        <ele>2032</ele>
        <time>2010-01-01T07:36:44Z</time>
      </trkpt>
      <trkpt lat="42.76739" lon="0.90195">
        <ele>2031</ele>
        <time>2010-01-01T07:36:48Z</time>
      </trkpt>
      <trkpt lat="42.76729" lon="0.9019">
        <ele>2030</ele>
        <time>2010-01-01T07:36:52Z</time>
      </trkpt>
      <trkpt lat="42.7672" lon="0.90185">
        <ele>2030</ele>
        <time>2010-01-01T07:36:56Z</time>
      </trkpt>
      <trkpt lat="42.76711" lon="0.90179">
        <ele>2030</ele>
        <time>2010-01-01T07:37:00Z</time>
      </trkpt>
      <trkpt lat="42.76701" lon="0.90172">
        <ele>2030</ele>
        <time>2010-01-01T07:37:04Z</time>
      </trkpt>
      <trkpt lat="42.76693" lon="0.90165">
        <ele>2031</ele>
        <time>2010-01-01T07:37:08Z</time>
      </trkpt>
      <trkpt lat="42.76687" lon="0.90158">
        <ele>2031</ele>
        <time>2010-01-01T07:37:11Z</time>
      </trkpt>
      <trkpt lat="42.76687" lon="0.90143">
        <ele>2031</ele>
        <time>2010-01-01T07:37:16Z</time>
      </trkpt>
      <trkpt lat="42.76689" lon="0.90129">
        <ele>2031</ele>
        <time>2010-01-01T07:37:20Z</time>
      </trkpt>
      <trkpt lat="42.76685" lon="0.90117">
        <ele>2030</ele>
        <time>2010-01-01T07:37:24Z</time>
      </trkpt>
      <trkpt lat="42.7668" lon="0.90105">
        <ele>2030</ele>
        <time>2010-01-01T07:37:28Z</time>
      </trkpt>
      <trkpt lat="42.76673" lon="0.90096">
        <ele>2030</ele>
        <time>2010-01-01T07:37:32Z</time>
      </trkpt>
      <trkpt lat="42.76663" lon="0.90091">
        <ele>2031</ele>
        <time>2010-01-01T07:37:36Z</time>
      </trkpt>
      <trkpt lat="42.76653" lon="0.90088">
        <ele>2032</ele>
        <time>2010-01-01T07:37:40Z</time>
      </trkpt>
      <trkpt lat="42.76643" lon="0.90083">
        <ele>2034</ele>
        <time>2010-01-01T07:37:44Z</time>
      </trkpt>
      <trkpt lat="42.76635" lon="0.90077">
        <ele>2035</ele>
        <time>2010-01-01T07:37:48Z</time>
      </trkpt>
      <trkpt lat="42.7663" lon="0.90065">
        <ele>2036</ele>
        <time>2010-01-01T07:37:52Z</time>
      </trkpt>
      <trkpt lat="42.76625" lon="0.90053">
        <ele>2037</ele>
        <time>2010-01-01T07:37:56Z</time>
      </trkpt>
      <trkpt lat="42.76617" lon="0.90045">
        <ele>2040</ele>
        <time>2010-01-01T07:38:00Z</time>
      </trkpt>
      <trkpt lat="42.76615" lon="0.90031">
        <ele>2042</ele>
        <time>2010-01-01T07:38:04Z</time>
      </trkpt>
      <trkpt lat="42.7661" lon="0.90019">
        <ele>2044</ele>
        <time>2010-01-01T07:38:08Z</time>
      </trkpt>
      <trkpt lat="42.76604" lon="0.90007">
        <ele>2045</ele>
        <time>2010-01-01T07:38:13Z</time>
      </trkpt>
      <trkpt lat="42.76601" lon="0.89994">
        <ele>2046</ele>
        <time>2010-01-01T07:38:17Z</time>
      </trkpt>
      <trkpt lat="42.766" lon="0.8998">
        <ele>2047</ele>
        <time>2010-01-01T07:38:21Z</time>
      </trkpt>
      <trkpt lat="42.766" lon="0.89967">
        <ele>2049</ele>
        <time>2010-01-01T07:38:25Z</time>
      </trkpt>
      <trkpt lat="42.76594" lon="0.89957">
        <ele>2049</ele>
        <time>2010-01-01T07:38:29Z</time>
      </trkpt>
      <trkpt lat="42.76583" lon="0.89956">
        <ele>2047</ele>
        <time>2010-01-01T07:38:33Z</time>
      </trkpt>
      <trkpt lat="42.76573" lon="0.89954">
        <ele>2046</ele>
        <time>2010-01-01T07:38:37Z</time>
      </trkpt>
      <trkpt lat="42.76564" lon="0.89948">
        <ele>2045</ele>
        <time>2010-01-01T07:38:41Z</time>
      </trkpt>
      <trkpt lat="42.7656" lon="0.89937">
        <ele>2045</ele>
        <time>2010-01-01T07:38:45Z</time>
      </trkpt>
      <trkpt lat="42.76557" lon="0.89925">
        <ele>2046</ele>
        <time>2010-01-01T07:38:48Z</time>
      </trkpt>
      <trkpt lat="42.76557" lon="0.89913">
        <ele>2047</ele>
        <time>2010-01-01T07:38:52Z</time>
      </trkpt>
      <trkpt lat="42.76556" lon="0.89898">
        <ele>2049</ele>
        <time>2010-01-01T07:38:56Z</time>
      </trkpt>
      <trkpt lat="42.76556" lon="0.89884">
        <ele>2050</ele>
        <time>2010-01-01T07:39:00Z</time>
      </trkpt>
      <trkpt lat="42.76554" lon="0.89871">
        <ele>2052</ele>
        <time>2010-01-01T07:39:04Z</time>
      </trkpt>
      <trkpt lat="42.7655" lon="0.89859">
        <ele>2052</ele>
        <time>2010-01-01T07:39:08Z</time>
      </trkpt>
      <trkpt lat="42.76548" lon="0.89846">
        <ele>2055</ele>
        <time>2010-01-01T07:39:12Z</time>
      </trkpt>
      <trkpt lat="42.76549" lon="0.89831">
        <ele>2057</ele>
        <time>2010-01-01T07:39:16Z</time>
      </trkpt>
      <trkpt lat="42.7655" lon="0.89818">
        <ele>2060</ele>
        <time>2010-01-01T07:39:20Z</time>
      </trkpt>
      <trkpt lat="42.76551" lon="0.89805">
        <ele>2062</ele>
        <time>2010-01-01T07:39:24Z</time>
      </trkpt>
      <trkpt lat="42.76545" lon="0.89793">
        <ele>2061</ele>
        <time>2010-01-01T07:39:29Z</time>
      </trkpt>
      <trkpt lat="42.76539" lon="0.89779">
        <ele>2059</ele>
        <time>2010-01-01T07:39:33Z</time>
      </trkpt>
      <trkpt lat="42.76532" lon="0.8977">
        <ele>2058</ele>
        <time>2010-01-01T07:39:37Z</time>
      </trkpt>
      <trkpt lat="42.7653" lon="0.89755">
        <ele>2060</ele>
        <time>2010-01-01T07:39:41Z</time>
      </trkpt>
      <trkpt lat="42.76524" lon="0.89744">
        <ele>2060</ele>
        <time>2010-01-01T07:39:45Z</time>
      </trkpt>
      <trkpt lat="42.76517" lon="0.89736">
        <ele>2060</ele>
        <time>2010-01-01T07:39:49Z</time>
      </trkpt>
      <trkpt lat="42.76511" lon="0.89726">
        <ele>2060</ele>
        <time>2010-01-01T07:39:53Z</time>
      </trkpt>
      <trkpt lat="42.76505" lon="0.89715">
        <ele>2062</ele>
        <time>2010-01-01T07:39:57Z</time>
      </trkpt>
      <trkpt lat="42.76498" lon="0.89704">
        <ele>2063</ele>
        <time>2010-01-01T07:40:01Z</time>
      </trkpt>
      <trkpt lat="42.76493" lon="0.89693">
        <ele>2063</ele>
        <time>2010-01-01T07:40:05Z</time>
      </trkpt>
      <trkpt lat="42.76488" lon="0.89679">
        <ele>2065</ele>
        <time>2010-01-01T07:40:10Z</time>
      </trkpt>
      <trkpt lat="42.7648" lon="0.89667">
        <ele>2066</ele>
        <time>2010-01-01T07:40:14Z</time>
      </trkpt>
      <trkpt lat="42.76474" lon="0.89655">
        <ele>2067</ele>
        <time>2010-01-01T07:40:19Z</time>
      </trkpt>
      <trkpt lat="42.76466" lon="0.89645">
        <ele>2067</ele>
        <time>2010-01-01T07:40:23Z</time>
      </trkpt>
      <trkpt lat="42.7646" lon="0.89633">
        <ele>2069</ele>
        <time>2010-01-01T07:40:27Z</time>
      </trkpt>
      <trkpt lat="42.76454" lon="0.89622">
        <ele>2070</ele>
        <time>2010-01-01T07:40:31Z</time>
      </trkpt>
      <trkpt lat="42.76447" lon="0.89611">
        <ele>2071</ele>
        <time>2010-01-01T07:40:36Z</time>
      </trkpt>
      <trkpt lat="42.76441" lon="0.89599">
        <ele>2072</ele>
        <time>2010-01-01T07:40:40Z</time>
      </trkpt>
      <trkpt lat="42.76431" lon="0.89595">
        <ele>2071</ele>
        <time>2010-01-01T07:40:44Z</time>
      </trkpt>
      <trkpt lat="42.7642" lon="0.89588">
        <ele>2070</ele>
        <time>2010-01-01T07:40:49Z</time>
      </trkpt>
      <trkpt lat="42.76412" lon="0.89582">
        <ele>2068</ele>
        <time>2010-01-01T07:40:53Z</time>
      </trkpt>
      <trkpt lat="42.76406" lon="0.89572">
        <ele>2068</ele>
        <time>2010-01-01T07:40:56Z</time>
      </trkpt>
      <trkpt lat="42.76399" lon="0.89562">
        <ele>2068</ele>
        <time>2010-01-01T07:41:00Z</time>
      </trkpt>
      <trkpt lat="42.76392" lon="0.89553">
        <ele>2067</ele>
        <time>2010-01-01T07:41:04Z</time>
      </trkpt>
      <trkpt lat="42.76385" lon="0.89541">
        <ele>2067</ele>
        <time>2010-01-01T07:41:09Z</time>
      </trkpt>
      <trkpt lat="42.76376" lon="0.89535">
        <ele>2065</ele>
        <time>2010-01-01T07:41:13Z</time>
      </trkpt>
      <trkpt lat="42.76367" lon="0.89528">
        <ele>2064</ele>
        <time>2010-01-01T07:41:17Z</time>
      </trkpt>
      <trkpt lat="42.76358" lon="0.89519">
        <ele>2064</ele>
        <time>2010-01-01T07:41:21Z</time>
      </trkpt>
      <trkpt lat="42.76352" lon="0.89509">
        <ele>2066</ele>
        <time>2010-01-01T07:41:25Z</time>
      </trkpt>
      <trkpt lat="42.76346" lon="0.89498">
        <ele>2068</ele>
        <time>2010-01-01T07:41:29Z</time>
      </trkpt>
      <trkpt lat="42.76338" lon="0.8949">
        <ele>2068</ele>
        <time>2010-01-01T07:41:33Z</time>
      </trkpt>
      <trkpt lat="42.76332" lon="0.89478">
        <ele>2071</ele>
        <time>2010-01-01T07:41:38Z</time>
      </trkpt>
      <trkpt lat="42.76328" lon="0.89465">
        <ele>2075</ele>
        <time>2010-01-01T07:41:42Z</time>
      </trkpt>
      <trkpt lat="42.7632" lon="0.89458">
        <ele>2075</ele>
        <time>2010-01-01T07:41:45Z</time>
      </trkpt>
      <trkpt lat="42.7631" lon="0.89455">
        <ele>2075</ele>
        <time>2010-01-01T07:41:50Z</time>
      </trkpt>
      <trkpt lat="42.763" lon="0.89449">
        <ele>2076</ele>
        <time>2010-01-01T07:41:54Z</time>
      </trkpt>
      <trkpt lat="42.7629" lon="0.89445">
        <ele>2076</ele>
        <time>2010-01-01T07:41:58Z</time>
      </trkpt>
      <trkpt lat="42.7628" lon="0.89442">
        <ele>2076</ele>
        <time>2010-01-01T07:42:02Z</time>
      </trkpt>
      <trkpt lat="42.76271" lon="0.89438">
        <ele>2074</ele>
        <time>2010-01-01T07:42:06Z</time>
      </trkpt>
      <trkpt lat="42.76262" lon="0.89433">
        <ele>2072</ele>
        <time>2010-01-01T07:42:10Z</time>
      </trkpt>
      <trkpt lat="42.76253" lon="0.89429">
        <ele>2069</ele>
        <time>2010-01-01T07:42:14Z</time>
      </trkpt>
      <trkpt lat="42.76244" lon="0.89424">
        <ele>2067</ele>
        <time>2010-01-01T07:42:18Z</time>
      </trkpt>
      <trkpt lat="42.76237" lon="0.89415">
        <ele>2066</ele>
        <time>2010-01-01T07:42:21Z</time>
      </trkpt>
      <trkpt lat="42.76229" lon="0.89406">
        <ele>2065</ele>
        <time>2010-01-01T07:42:26Z</time>
      </trkpt>
      <trkpt lat="42.76226" lon="0.89393">
        <ele>2066</ele>
        <time>2010-01-01T07:42:30Z</time>
      </trkpt>
      <trkpt lat="42.76223" lon="0.89381">
        <ele>2067</ele>
        <time>2010-01-01T07:42:33Z</time>
      </trkpt>
      <trkpt lat="42.76218" lon="0.89369">
        <ele>2068</ele>
        <time>2010-01-01T07:42:37Z</time>
      </trkpt>
      <trkpt lat="42.76212" lon="0.89358">
        <ele>2069</ele>
        <time>2010-01-01T07:42:42Z</time>
      </trkpt>
      <trkpt lat="42.76207" lon="0.89346">
        <ele>2069</ele>
        <time>2010-01-01T07:42:45Z</time>
      </trkpt>
      <trkpt lat="42.76205" lon="0.89332">
        <ele>2069</ele>
        <time>2010-01-01T07:42:50Z</time>
      </trkpt>
      <trkpt lat="42.76205" lon="0.89319">
        <ele>2071</ele>
        <time>2010-01-01T07:42:54Z</time>
      </trkpt>
      <trkpt lat="42.762" lon="0.89308">
        <ele>2071</ele>
        <time>2010-01-01T07:42:57Z</time>
      </trkpt>
      <trkpt lat="42.76191" lon="0.89306">
        <ele>2070</ele>
        <time>2010-01-01T07:43:01Z</time>
      </trkpt>
      <trkpt lat="42.76183" lon="0.893">
        <ele>2070</ele>
        <time>2010-01-01T07:43:04Z</time>
      </trkpt>
      <trkpt lat="42.76179" lon="0.89289">
        <ele>2071</ele>
        <time>2010-01-01T07:43:08Z</time>
      </trkpt>
      <trkpt lat="42.76174" lon="0.89278">
        <ele>2072</ele>
        <time>2010-01-01T07:43:12Z</time>
      </trkpt>
      <trkpt lat="42.76171" lon="0.89265">
        <ele>2074</ele>
        <time>2010-01-01T07:43:16Z</time>
      </trkpt>
      <trkpt lat="42.76168" lon="0.89249">
        <ele>2077</ele>
        <time>2010-01-01T07:43:21Z</time>
      </trkpt>
      <trkpt lat="42.76164" lon="0.89236">
        <ele>2078</ele>
        <time>2010-01-01T07:43:25Z</time>
      </trkpt>
      <trkpt lat="42.76154" lon="0.89232">
        <ele>2077</ele>
        <time>2010-01-01T07:43:29Z</time>
      </trkpt>
      <trkpt lat="42.76144" lon="0.89226">
        <ele>2076</ele>
        <time>2010-01-01T07:43:34Z</time>
      </trkpt>
      <trkpt lat="42.76135" lon="0.89218">
        <ele>2076</ele>
        <time>2010-01-01T07:43:38Z</time>
      </trkpt>
      <trkpt lat="42.76128" lon="0.89209">
        <ele>2076</ele>
        <time>2010-01-01T07:43:42Z</time>
      </trkpt>
      <trkpt lat="42.76123" lon="0.89197">
        <ele>2077</ele>
        <time>2010-01-01T07:43:46Z</time>
      </trkpt>
      <trkpt lat="42.76116" lon="0.89187">
        <ele>2077</ele>
        <time>2010-01-01T07:43:50Z</time>
      </trkpt>
      <trkpt lat="42.76114" lon="0.89175">
        <ele>2078</ele>
        <time>2010-01-01T07:43:53Z</time>
      </trkpt>
      <trkpt lat="42.76112" lon="0.8916">
        <ele>2079</ele>
        <time>2010-01-01T07:43:58Z</time>
      </trkpt>
      <trkpt lat="42.76109" lon="0.89146">
        <ele>2079</ele>
        <time>2010-01-01T07:44:02Z</time>
      </trkpt>
      <trkpt lat="42.76106" lon="0.89131">
        <ele>2078</ele>
        <time>2010-01-01T07:44:07Z</time>
      </trkpt>
      <trkpt lat="42.76103" lon="0.89117">
        <ele>2078</ele>
        <time>2010-01-01T07:44:11Z</time>
      </trkpt>
      <trkpt lat="42.761" lon="0.89103">
        <ele>2077</ele>
        <time>2010-01-01T07:44:15Z</time>
      </trkpt>
      <trkpt lat="42.76101" lon="0.89089">
        <ele>2079</ele>
        <time>2010-01-01T07:44:20Z</time>
      </trkpt>
      <trkpt lat="42.76095" lon="0.89076">
        <ele>2077</ele>
        <time>2010-01-01T07:44:24Z</time>
      </trkpt>
      <trkpt lat="42.76086" lon="0.89071">
        <ele>2073</ele>
        <time>2010-01-01T07:44:28Z</time>
      </trkpt>
      <trkpt lat="42.7608" lon="0.89061">
        <ele>2072</ele>
        <time>2010-01-01T07:44:32Z</time>
      </trkpt>
      <trkpt lat="42.76074" lon="0.8905">
        <ele>2072</ele>
        <time>2010-01-01T07:44:36Z</time>
      </trkpt>
      <trkpt lat="42.76068" lon="0.89039">
        <ele>2072</ele>
        <time>2010-01-01T07:44:40Z</time>
      </trkpt>
      <trkpt lat="42.7606" lon="0.89033">
        <ele>2070</ele>
        <time>2010-01-01T07:44:44Z</time>
      </trkpt>
      <trkpt lat="42.76052" lon="0.89024">
        <ele>2069</ele>
        <time>2010-01-01T07:44:48Z</time>
      </trkpt>
      <trkpt lat="42.76044" lon="0.89017">
        <ele>2069</ele>
        <time>2010-01-01T07:44:51Z</time>
      </trkpt>
      <trkpt lat="42.76039" lon="0.89006">
        <ele>2068</ele>
        <time>2010-01-01T07:44:55Z</time>
      </trkpt>
      <trkpt lat="42.76038" lon="0.88992">
        <ele>2068</ele>
        <time>2010-01-01T07:44:59Z</time>
      </trkpt>
      <trkpt lat="42.76034" lon="0.8898">
        <ele>2067</ele>
        <time>2010-01-01T07:45:03Z</time>
      </trkpt>
      <trkpt lat="42.7603" lon="0.88965">
        <ele>2066</ele>
        <time>2010-01-01T07:45:08Z</time>
      </trkpt>
      <trkpt lat="42.76027" lon="0.88952">
        <ele>2066</ele>
        <time>2010-01-01T07:45:12Z</time>
      </trkpt>
      <trkpt lat="42.76026" lon="0.88939">
        <ele>2066</ele>
        <time>2010-01-01T07:45:16Z</time>
      </trkpt>
      <trkpt lat="42.76025" lon="0.88924">
        <ele>2066</ele>
        <time>2010-01-01T07:45:20Z</time>
      </trkpt>
      <trkpt lat="42.76025" lon="0.88908">
        <ele>2066</ele>
        <time>2010-01-01T07:45:25Z</time>
      </trkpt>
      <trkpt lat="42.76026" lon="0.88894">
        <ele>2065</ele>
        <time>2010-01-01T07:45:29Z</time>
      </trkpt>
      <trkpt lat="42.76025" lon="0.8888">
        <ele>2065</ele>
        <time>2010-01-01T07:45:33Z</time>
      </trkpt>
      <trkpt lat="42.76023" lon="0.88867">
        <ele>2064</ele>
        <time>2010-01-01T07:45:37Z</time>
      </trkpt>
      <trkpt lat="42.76021" lon="0.88854">
        <ele>2062</ele>
        <time>2010-01-01T07:45:41Z</time>
      </trkpt>
      <trkpt lat="42.76018" lon="0.88842">
        <ele>2061</ele>
        <time>2010-01-01T07:45:45Z</time>
      </trkpt>
      <trkpt lat="42.76014" lon="0.88829">
        <ele>2060</ele>
        <time>2010-01-01T07:45:49Z</time>
      </trkpt>
      <trkpt lat="42.7601" lon="0.88817">
        <ele>2059</ele>
        <time>2010-01-01T07:45:53Z</time>
      </trkpt>
      <trkpt lat="42.76004" lon="0.88804">
        <ele>2058</ele>
        <time>2010-01-01T07:45:57Z</time>
      </trkpt>
      <trkpt lat="42.76" lon="0.88794">
        <ele>2057</ele>
        <time>2010-01-01T07:46:01Z</time>
      </trkpt>
      <trkpt lat="42.75995" lon="0.88782">
        <ele>2057</ele>
        <time>2010-01-01T07:46:05Z</time>
      </trkpt>
      <trkpt lat="42.75992" lon="0.8877">
        <ele>2056</ele>
        <time>2010-01-01T07:46:08Z</time>
      </trkpt>
      <trkpt lat="42.75984" lon="0.8876">
        <ele>2054</ele>
        <time>2010-01-01T07:46:13Z</time>
      </trkpt>
      <trkpt lat="42.75977" lon="0.88753">
        <ele>2053</ele>
        <time>2010-01-01T07:46:16Z</time>
      </trkpt>
      <trkpt lat="42.75971" lon="0.88745">
        <ele>2053</ele>
        <time>2010-01-01T07:46:20Z</time>
      </trkpt>
      <trkpt lat="42.75964" lon="0.88735">
        <ele>2052</ele>
        <time>2010-01-01T07:46:24Z</time>
      </trkpt>
      <trkpt lat="42.75956" lon="0.88724">
        <ele>2051</ele>
        <time>2010-01-01T07:46:28Z</time>
      </trkpt>
      <trkpt lat="42.75948" lon="0.88717">
        <ele>2050</ele>
        <time>2010-01-01T07:46:32Z</time>
      </trkpt>
      <trkpt lat="42.7594" lon="0.88712">
        <ele>2050</ele>
        <time>2010-01-01T07:46:35Z</time>
      </trkpt>
      <trkpt lat="42.75935" lon="0.88698">
        <ele>2050</ele>
        <time>2010-01-01T07:46:40Z</time>
      </trkpt>
      <trkpt lat="42.75933" lon="0.88685">
        <ele>2050</ele>
        <time>2010-01-01T07:46:44Z</time>
      </trkpt>
      <trkpt lat="42.75934" lon="0.88671">
        <ele>2050</ele>
        <time>2010-01-01T07:46:48Z</time>
      </trkpt>
      <trkpt lat="42.75931" lon="0.88657">
        <ele>2050</ele>
        <time>2010-01-01T07:46:52Z</time>
      </trkpt>
      <trkpt lat="42.75928" lon="0.88644">
        <ele>2050</ele>
        <time>2010-01-01T07:46:56Z</time>
      </trkpt>
      <trkpt lat="42.75928" lon="0.88631">
        <ele>2050</ele>
        <time>2010-01-01T07:47:00Z</time>
      </trkpt>
      <trkpt lat="42.75926" lon="0.88615">
        <ele>2050</ele>
        <time>2010-01-01T07:47:05Z</time>
      </trkpt>
      <trkpt lat="42.75922" lon="0.88605">
        <ele>2049</ele>
        <time>2010-01-01T07:47:08Z</time>
      </trkpt>
      <trkpt lat="42.75915" lon="0.88594">
        <ele>2049</ele>
        <time>2010-01-01T07:47:13Z</time>
      </trkpt>
      <trkpt lat="42.7591" lon="0.88581">
        <ele>2049</ele>
        <time>2010-01-01T07:47:17Z</time>
      </trkpt>
      <trkpt lat="42.75904" lon="0.88568">
        <ele>2049</ele>
        <time>2010-01-01T07:47:21Z</time>
      </trkpt>
      <trkpt lat="42.75902" lon="0.88556">
        <ele>2049</ele>
        <time>2010-01-01T07:47:25Z</time>
      </trkpt>
      <trkpt lat="42.759" lon="0.88551">
        <ele>2049</ele>
        <time>2010-01-01T07:47:27Z</time>
      </trkpt>
      <trkpt lat="42.75901" lon="0.88553">
        <ele>2049</ele>
        <time>2010-01-01T07:47:27Z</time>
      </trkpt>
      <trkpt lat="42.759" lon="0.88548">
        <ele>2049</ele>
        <time>2010-01-01T07:47:28Z</time>
      </trkpt>
      <trkpt lat="42.75899" lon="0.88547">
        <ele>2049</ele>
        <time>2010-01-01T07:47:29Z</time>
      </trkpt>
      <trkpt lat="42.75892" lon="0.88537">
        <ele>2049</ele>
        <time>2010-01-01T07:47:33Z</time>
      </trkpt>
      <trkpt lat="42.75889" lon="0.88525">
        <ele>2049</ele>
        <time>2010-01-01T07:47:37Z</time>
      </trkpt>
      <trkpt lat="42.75889" lon="0.88514">
        <ele>2049</ele>
        <time>2010-01-01T07:47:40Z</time>
      </trkpt>
      <trkpt lat="42.7588" lon="0.88508">
        <ele>2050</ele>
        <time>2010-01-01T07:47:44Z</time>
      </trkpt>
      <trkpt lat="42.75872" lon="0.88502">
        <ele>2051</ele>
        <time>2010-01-01T07:47:48Z</time>
      </trkpt>
      <trkpt lat="42.75864" lon="0.88495">
        <ele>2053</ele>
        <time>2010-01-01T07:47:51Z</time>
      </trkpt>
      <trkpt lat="42.75855" lon="0.8849">
        <ele>2055</ele>
        <time>2010-01-01T07:47:55Z</time>
      </trkpt>
      <trkpt lat="42.75846" lon="0.88487">
        <ele>2058</ele>
        <time>2010-01-01T07:47:59Z</time>
      </trkpt>
      <trkpt lat="42.75837" lon="0.88484">
        <ele>2060</ele>
        <time>2010-01-01T07:48:03Z</time>
      </trkpt>
      <trkpt lat="42.75829" lon="0.88479">
        <ele>2063</ele>
        <time>2010-01-01T07:48:06Z</time>
      </trkpt>
      <trkpt lat="42.75821" lon="0.88472">
        <ele>2065</ele>
        <time>2010-01-01T07:48:10Z</time>
      </trkpt>
      <trkpt lat="42.75813" lon="0.88465">
        <ele>2068</ele>
        <time>2010-01-01T07:48:14Z</time>
      </trkpt>
      <trkpt lat="42.75806" lon="0.88458">
        <ele>2071</ele>
        <time>2010-01-01T07:48:17Z</time>
      </trkpt>
      <trkpt lat="42.75798" lon="0.8845">
        <ele>2073</ele>
        <time>2010-01-01T07:48:21Z</time>
      </trkpt>
      <trkpt lat="42.7579" lon="0.88442">
        <ele>2076</ele>
        <time>2010-01-01T07:48:25Z</time>
      </trkpt>
      <trkpt lat="42.75784" lon="0.88433">
        <ele>2078</ele>
        <time>2010-01-01T07:48:29Z</time>
      </trkpt>
      <trkpt lat="42.75777" lon="0.88425">
        <ele>2081</ele>
        <time>2010-01-01T07:48:33Z</time>
      </trkpt>
      <trkpt lat="42.7577" lon="0.88415">
        <ele>2084</ele>
        <time>2010-01-01T07:48:37Z</time>
      </trkpt>
      <trkpt lat="42.75765" lon="0.88404">
        <ele>2086</ele>
        <time>2010-01-01T07:48:40Z</time>
      </trkpt>
      <trkpt lat="42.75762" lon="0.88392">
        <ele>2087</ele>
        <time>2010-01-01T07:48:44Z</time>
      </trkpt>
      <trkpt lat="42.75757" lon="0.88383">
        <ele>2089</ele>
        <time>2010-01-01T07:48:48Z</time>
      </trkpt>
      <trkpt lat="42.75751" lon="0.88375">
        <ele>2091</ele>
        <time>2010-01-01T07:48:51Z</time>
      </trkpt>
      <trkpt lat="42.75746" lon="0.88365">
        <ele>2093</ele>
        <time>2010-01-01T07:48:54Z</time>
      </trkpt>
      <trkpt lat="42.75739" lon="0.88357">
        <ele>2095</ele>
        <time>2010-01-01T07:48:58Z</time>
      </trkpt>
      <trkpt lat="42.75733" lon="0.88346">
        <ele>2099</ele>
        <time>2010-01-01T07:49:02Z</time>
      </trkpt>
      <trkpt lat="42.75727" lon="0.88335">
        <ele>2102</ele>
        <time>2010-01-01T07:49:06Z</time>
      </trkpt>
      <trkpt lat="42.75722" lon="0.88324">
        <ele>2105</ele>
        <time>2010-01-01T07:49:10Z</time>
      </trkpt>
      <trkpt lat="42.75717" lon="0.88313">
        <ele>2109</ele>
        <time>2010-01-01T07:49:14Z</time>
      </trkpt>
      <trkpt lat="42.75713" lon="0.88302">
        <ele>2113</ele>
        <time>2010-01-01T07:49:17Z</time>
      </trkpt>
      <trkpt lat="42.75709" lon="0.88291">
        <ele>2116</ele>
        <time>2010-01-01T07:49:21Z</time>
      </trkpt>
      <trkpt lat="42.75704" lon="0.8828">
        <ele>2119</ele>
        <time>2010-01-01T07:49:25Z</time>
      </trkpt>
      <trkpt lat="42.75699" lon="0.8827">
        <ele>2122</ele>
        <time>2010-01-01T07:49:28Z</time>
      </trkpt>
      <trkpt lat="42.75694" lon="0.88259">
        <ele>2124</ele>
        <time>2010-01-01T07:49:32Z</time>
      </trkpt>
      <trkpt lat="42.75695" lon="0.88246">
        <ele>2123</ele>
        <time>2010-01-01T07:49:36Z</time>
      </trkpt>
      <trkpt lat="42.75693" lon="0.88232">
        <ele>2123</ele>
        <time>2010-01-01T07:49:40Z</time>
      </trkpt>
      <trkpt lat="42.75691" lon="0.8822">
        <ele>2124</ele>
        <time>2010-01-01T07:49:44Z</time>
      </trkpt>
      <trkpt lat="42.75689" lon="0.88208">
        <ele>2125</ele>
        <time>2010-01-01T07:49:47Z</time>
      </trkpt>
      <trkpt lat="42.75689" lon="0.88194">
        <ele>2125</ele>
        <time>2010-01-01T07:49:51Z</time>
      </trkpt>
      <trkpt lat="42.75686" lon="0.88183">
        <ele>2127</ele>
        <time>2010-01-01T07:49:55Z</time>
      </trkpt>
      <trkpt lat="42.75684" lon="0.8817">
        <ele>2128</ele>
        <time>2010-01-01T07:49:59Z</time>
      </trkpt>
      <trkpt lat="42.75684" lon="0.88157">
        <ele>2128</ele>
        <time>2010-01-01T07:50:03Z</time>
      </trkpt>
      <trkpt lat="42.75686" lon="0.88145">
        <ele>2128</ele>
        <time>2010-01-01T07:50:06Z</time>
      </trkpt>
      <trkpt lat="42.75687" lon="0.88131">
        <ele>2128</ele>
        <time>2010-01-01T07:50:10Z</time>
      </trkpt>
      <trkpt lat="42.75686" lon="0.88117">
        <ele>2128</ele>
        <time>2010-01-01T07:50:15Z</time>
      </trkpt>
      <trkpt lat="42.75684" lon="0.88104">
        <ele>2129</ele>
        <time>2010-01-01T07:50:19Z</time>
      </trkpt>
      <trkpt lat="42.75683" lon="0.8809">
        <ele>2130</ele>
        <time>2010-01-01T07:50:23Z</time>
      </trkpt>
      <trkpt lat="42.75681" lon="0.88075">
        <ele>2130</ele>
        <time>2010-01-01T07:50:27Z</time>
      </trkpt>
      <trkpt lat="42.75678" lon="0.88062">
        <ele>2131</ele>
        <time>2010-01-01T07:50:31Z</time>
      </trkpt>
      <trkpt lat="42.75674" lon="0.8805">
        <ele>2132</ele>
        <time>2010-01-01T07:50:35Z</time>
      </trkpt>
      <trkpt lat="42.75671" lon="0.88038">
        <ele>2131</ele>
        <time>2010-01-01T07:50:39Z</time>
      </trkpt>
      <trkpt lat="42.75664" lon="0.88029">
        <ele>2133</ele>
        <time>2010-01-01T07:50:42Z</time>
      </trkpt>
      <trkpt lat="42.75659" lon="0.88018">
        <ele>2135</ele>
        <time>2010-01-01T07:50:46Z</time>
      </trkpt>
      <trkpt lat="42.75652" lon="0.88008">
        <ele>2137</ele>
        <time>2010-01-01T07:50:50Z</time>
      </trkpt>
      <trkpt lat="42.75644" lon="0.88">
        <ele>2139</ele>
        <time>2010-01-01T07:50:54Z</time>
      </trkpt>
      <trkpt lat="42.75634" lon="0.87996">
        <ele>2142</ele>
        <time>2010-01-01T07:50:58Z</time>
      </trkpt>
      <trkpt lat="42.75626" lon="0.87989">
        <ele>2143</ele>
        <time>2010-01-01T07:51:02Z</time>
      </trkpt>
      <trkpt lat="42.75622" lon="0.87978">
        <ele>2143</ele>
        <time>2010-01-01T07:51:06Z</time>
      </trkpt>
      <trkpt lat="42.75619" lon="0.87966">
        <ele>2143</ele>
        <time>2010-01-01T07:51:09Z</time>
      </trkpt>
      <trkpt lat="42.75613" lon="0.87956">
        <ele>2144</ele>
        <time>2010-01-01T07:51:13Z</time>
      </trkpt>
      <trkpt lat="42.75606" lon="0.87948">
        <ele>2146</ele>
        <time>2010-01-01T07:51:17Z</time>
      </trkpt>
      <trkpt lat="42.75599" lon="0.87938">
        <ele>2147</ele>
        <time>2010-01-01T07:51:21Z</time>
      </trkpt>
      <trkpt lat="42.75593" lon="0.87928">
        <ele>2148</ele>
        <time>2010-01-01T07:51:25Z</time>
      </trkpt>
      <trkpt lat="42.75585" lon="0.87922">
        <ele>2149</ele>
        <time>2010-01-01T07:51:29Z</time>
      </trkpt>
      <trkpt lat="42.75576" lon="0.87916">
        <ele>2151</ele>
        <time>2010-01-01T07:51:32Z</time>
      </trkpt>
      <trkpt lat="42.75568" lon="0.87909">
        <ele>2152</ele>
        <time>2010-01-01T07:51:36Z</time>
      </trkpt>
      <trkpt lat="42.75561" lon="0.879">
        <ele>2154</ele>
        <time>2010-01-01T07:51:40Z</time>
      </trkpt>
      <trkpt lat="42.75554" lon="0.87892">
        <ele>2155</ele>
        <time>2010-01-01T07:51:44Z</time>
      </trkpt>
      <trkpt lat="42.75546" lon="0.87886">
        <ele>2157</ele>
        <time>2010-01-01T07:51:47Z</time>
      </trkpt>
      <trkpt lat="42.75537" lon="0.87882">
        <ele>2160</ele>
        <time>2010-01-01T07:51:51Z</time>
      </trkpt>
      <trkpt lat="42.75531" lon="0.87877">
        <ele>2161</ele>
        <time>2010-01-01T07:51:54Z</time>
      </trkpt>
      <trkpt lat="42.75523" lon="0.8787">
        <ele>2164</ele>
        <time>2010-01-01T07:51:58Z</time>
      </trkpt>
      <trkpt lat="42.75515" lon="0.87862">
        <ele>2166</ele>
        <time>2010-01-01T07:52:02Z</time>
      </trkpt>
      <trkpt lat="42.75507" lon="0.87852">
        <ele>2168</ele>
        <time>2010-01-01T07:52:06Z</time>
      </trkpt>
      <trkpt lat="42.75504" lon="0.87839">
        <ele>2167</ele>
        <time>2010-01-01T07:52:10Z</time>
      </trkpt>
      <trkpt lat="42.75498" lon="0.87843">
        <ele>2171</ele>
        <time>2010-01-01T07:52:13Z</time>
      </trkpt>
      <trkpt lat="42.75489" lon="0.87845">
        <ele>2176</ele>
        <time>2010-01-01T07:52:16Z</time>
      </trkpt>
      <trkpt lat="42.75485" lon="0.87855">
        <ele>2179</ele>
        <time>2010-01-01T07:52:20Z</time>
      </trkpt>
      <trkpt lat="42.7548" lon="0.87862">
        <ele>2182</ele>
        <time>2010-01-01T07:52:23Z</time>
      </trkpt>
      <trkpt lat="42.75473" lon="0.87869">
        <ele>2186</ele>
        <time>2010-01-01T07:52:26Z</time>
      </trkpt>
      <trkpt lat="42.75466" lon="0.8787">
        <ele>2188</ele>
        <time>2010-01-01T07:52:29Z</time>
      </trkpt>
      <trkpt lat="42.75458" lon="0.87871">
        <ele>2191</ele>
        <time>2010-01-01T07:52:32Z</time>
      </trkpt>
      <trkpt lat="42.75449" lon="0.8787">
        <ele>2194</ele>
        <time>2010-01-01T07:52:36Z</time>
      </trkpt>
      <trkpt lat="42.75441" lon="0.87868">
        <ele>2196</ele>
        <time>2010-01-01T07:52:39Z</time>
      </trkpt>
      <trkpt lat="42.7543" lon="0.87867">
        <ele>2197</ele>
        <time>2010-01-01T07:52:43Z</time>
      </trkpt>
      <trkpt lat="42.75424" lon="0.87858">
        <ele>2195</ele>
        <time>2010-01-01T07:52:47Z</time>
      </trkpt>
      <trkpt lat="42.75417" lon="0.87858">
        <ele>2196</ele>
        <time>2010-01-01T07:52:50Z</time>
      </trkpt>
      <trkpt lat="42.75408" lon="0.87851">
        <ele>2197</ele>
        <time>2010-01-01T07:52:54Z</time>
      </trkpt>
      <trkpt lat="42.75403" lon="0.8784">
        <ele>2196</ele>
        <time>2010-01-01T07:52:58Z</time>
      </trkpt>
      <trkpt lat="42.75395" lon="0.87833">
        <ele>2197</ele>
        <time>2010-01-01T07:53:01Z</time>
      </trkpt>
      <trkpt lat="42.75388" lon="0.87823">
        <ele>2198</ele>
        <time>2010-01-01T07:53:05Z</time>
      </trkpt>
      <trkpt lat="42.7538" lon="0.87817">
        <ele>2199</ele>
        <time>2010-01-01T07:53:09Z</time>
      </trkpt>
      <trkpt lat="42.75371" lon="0.87811">
        <ele>2200</ele>
        <time>2010-01-01T07:53:13Z</time>
      </trkpt>
      <trkpt lat="42.75362" lon="0.8781">
        <ele>2202</ele>
        <time>2010-01-01T07:53:17Z</time>
      </trkpt>
      <trkpt lat="42.75353" lon="0.87807">
        <ele>2202</ele>
        <time>2010-01-01T07:53:20Z</time>
      </trkpt>
      <trkpt lat="42.75344" lon="0.878">
        <ele>2202</ele>
        <time>2010-01-01T07:53:25Z</time>
      </trkpt>
      <trkpt lat="42.75339" lon="0.87787">
        <ele>2199</ele>
        <time>2010-01-01T07:53:29Z</time>
      </trkpt>
      <trkpt lat="42.75334" lon="0.87776">
        <ele>2197</ele>
        <time>2010-01-01T07:53:33Z</time>
      </trkpt>
      <trkpt lat="42.7533" lon="0.87764">
        <ele>2196</ele>
        <time>2010-01-01T07:53:36Z</time>
      </trkpt>
      <trkpt lat="42.75325" lon="0.87752">
        <ele>2195</ele>
        <time>2010-01-01T07:53:41Z</time>
      </trkpt>
      <trkpt lat="42.75319" lon="0.87742">
        <ele>2194</ele>
        <time>2010-01-01T07:53:45Z</time>
      </trkpt>
      <trkpt lat="42.7531" lon="0.87736">
        <ele>2194</ele>
        <time>2010-01-01T07:53:48Z</time>
      </trkpt>
      <trkpt lat="42.75301" lon="0.87733">
        <ele>2194</ele>
        <time>2010-01-01T07:53:52Z</time>
      </trkpt>
      <trkpt lat="42.75293" lon="0.87726">
        <ele>2194</ele>
        <time>2010-01-01T07:53:56Z</time>
      </trkpt>
      <trkpt lat="42.75285" lon="0.87721">
        <ele>2193</ele>
        <time>2010-01-01T07:54:00Z</time>
      </trkpt>
      <trkpt lat="42.75276" lon="0.87716">
        <ele>2193</ele>
        <time>2010-01-01T07:54:03Z</time>
      </trkpt>
      <trkpt lat="42.75266" lon="0.87711">
        <ele>2192</ele>
        <time>2010-01-01T07:54:08Z</time>
      </trkpt>
      <trkpt lat="42.75258" lon="0.87706">
        <ele>2191</ele>
        <time>2010-01-01T07:54:11Z</time>
      </trkpt>
      <trkpt lat="42.75249" lon="0.877">
        <ele>2190</ele>
        <time>2010-01-01T07:54:15Z</time>
      </trkpt>
      <trkpt lat="42.75239" lon="0.87695">
        <ele>2189</ele>
        <time>2010-01-01T07:54:19Z</time>
      </trkpt>
      <trkpt lat="42.75231" lon="0.8769">
        <ele>2188</ele>
        <time>2010-01-01T07:54:23Z</time>
      </trkpt>
      <trkpt lat="42.75223" lon="0.87683">
        <ele>2187</ele>
        <time>2010-01-01T07:54:27Z</time>
      </trkpt>
      <trkpt lat="42.75215" lon="0.87676">
        <ele>2187</ele>
        <time>2010-01-01T07:54:31Z</time>
      </trkpt>
      <trkpt lat="42.75206" lon="0.87673">
        <ele>2188</ele>
        <time>2010-01-01T07:54:34Z</time>
      </trkpt>
      <trkpt lat="42.75198" lon="0.87667">
        <ele>2187</ele>
        <time>2010-01-01T07:54:38Z</time>
      </trkpt>
      <trkpt lat="42.7519" lon="0.87661">
        <ele>2188</ele>
        <time>2010-01-01T07:54:42Z</time>
      </trkpt>
      <trkpt lat="42.75181" lon="0.87655">
        <ele>2188</ele>
        <time>2010-01-01T07:54:46Z</time>
      </trkpt>
      <trkpt lat="42.75173" lon="0.87647">
        <ele>2188</ele>
        <time>2010-01-01T07:54:49Z</time>
      </trkpt>
      <trkpt lat="42.75165" lon="0.87639">
        <ele>2188</ele>
        <time>2010-01-01T07:54:54Z</time>
      </trkpt>
      <trkpt lat="42.75158" lon="0.87632">
        <ele>2189</ele>
        <time>2010-01-01T07:54:57Z</time>
      </trkpt>
      <trkpt lat="42.75149" lon="0.87626">
        <ele>2189</ele>
        <time>2010-01-01T07:55:01Z</time>
      </trkpt>
      <trkpt lat="42.75145" lon="0.87612">
        <ele>2188</ele>
        <time>2010-01-01T07:55:05Z</time>
      </trkpt>
      <trkpt lat="42.75142" lon="0.87601">
        <ele>2187</ele>
        <time>2010-01-01T07:55:09Z</time>
      </trkpt>
      <trkpt lat="42.75137" lon="0.8759">
        <ele>2187</ele>
        <time>2010-01-01T07:55:12Z</time>
      </trkpt>
      <trkpt lat="42.75133" lon="0.87578">
        <ele>2187</ele>
        <time>2010-01-01T07:55:16Z</time>
      </trkpt>
      <trkpt lat="42.7513" lon="0.87565">
        <ele>2187</ele>
        <time>2010-01-01T07:55:20Z</time>
      </trkpt>
      <trkpt lat="42.75128" lon="0.8755">
        <ele>2187</ele>
        <time>2010-01-01T07:55:25Z</time>
      </trkpt>
      <trkpt lat="42.75126" lon="0.87538">
        <ele>2187</ele>
        <time>2010-01-01T07:55:29Z</time>
      </trkpt>
      <trkpt lat="42.75124" lon="0.87526">
        <ele>2187</ele>
        <time>2010-01-01T07:55:32Z</time>
      </trkpt>
      <trkpt lat="42.75116" lon="0.87517">
        <ele>2187</ele>
        <time>2010-01-01T07:55:36Z</time>
      </trkpt>
      <trkpt lat="42.75109" lon="0.87509">
        <ele>2186</ele>
        <time>2010-01-01T07:55:40Z</time>
      </trkpt>
      <trkpt lat="42.75102" lon="0.875">
        <ele>2185</ele>
        <time>2010-01-01T07:55:44Z</time>
      </trkpt>
      <trkpt lat="42.75094" lon="0.87492">
        <ele>2184</ele>
        <time>2010-01-01T07:55:48Z</time>
      </trkpt>
      <trkpt lat="42.75086" lon="0.87484">
        <ele>2184</ele>
        <time>2010-01-01T07:55:52Z</time>
      </trkpt>
      <trkpt lat="42.7508" lon="0.87474">
        <ele>2183</ele>
        <time>2010-01-01T07:55:55Z</time>
      </trkpt>
      <trkpt lat="42.75075" lon="0.87463">
        <ele>2183</ele>
        <time>2010-01-01T07:55:59Z</time>
      </trkpt>
      <trkpt lat="42.75069" lon="0.87451">
        <ele>2182</ele>
        <time>2010-01-01T07:56:03Z</time>
      </trkpt>
      <trkpt lat="42.75063" lon="0.87442">
        <ele>2181</ele>
        <time>2010-01-01T07:56:07Z</time>
      </trkpt>
      <trkpt lat="42.75056" lon="0.87434">
        <ele>2180</ele>
        <time>2010-01-01T07:56:11Z</time>
      </trkpt>
      <trkpt lat="42.75048" lon="0.87424">
        <ele>2180</ele>
        <time>2010-01-01T07:56:15Z</time>
      </trkpt>
      <trkpt lat="42.75041" lon="0.87414">
        <ele>2179</ele>
        <time>2010-01-01T07:56:19Z</time>
      </trkpt>
      <trkpt lat="42.75034" lon="0.87403">
        <ele>2179</ele>
        <time>2010-01-01T07:56:23Z</time>
      </trkpt>
      <trkpt lat="42.75026" lon="0.87394">
        <ele>2179</ele>
        <time>2010-01-01T07:56:28Z</time>
      </trkpt>
      <trkpt lat="42.75018" lon="0.87388">
        <ele>2180</ele>
        <time>2010-01-01T07:56:31Z</time>
      </trkpt>
      <trkpt lat="42.7501" lon="0.8738">
        <ele>2180</ele>
        <time>2010-01-01T07:56:35Z</time>
      </trkpt>
      <trkpt lat="42.75002" lon="0.87374">
        <ele>2181</ele>
        <time>2010-01-01T07:56:39Z</time>
      </trkpt>
      <trkpt lat="42.74992" lon="0.87374">
        <ele>2183</ele>
        <time>2010-01-01T07:56:43Z</time>
      </trkpt>
      <trkpt lat="42.74982" lon="0.8737">
        <ele>2185</ele>
        <time>2010-01-01T07:56:47Z</time>
      </trkpt>
      <trkpt lat="42.74974" lon="0.87364">
        <ele>2186</ele>
        <time>2010-01-01T07:56:51Z</time>
      </trkpt>
      <trkpt lat="42.74967" lon="0.87354">
        <ele>2187</ele>
        <time>2010-01-01T07:56:55Z</time>
      </trkpt>
      <trkpt lat="42.74961" lon="0.87344">
        <ele>2188</ele>
        <time>2010-01-01T07:56:59Z</time>
      </trkpt>
      <trkpt lat="42.74955" lon="0.87332">
        <ele>2188</ele>
        <time>2010-01-01T07:57:03Z</time>
      </trkpt>
      <trkpt lat="42.74953" lon="0.87319">
        <ele>2188</ele>
        <time>2010-01-01T07:57:07Z</time>
      </trkpt>
      <trkpt lat="42.74952" lon="0.87307">
        <ele>2187</ele>
        <time>2010-01-01T07:57:10Z</time>
      </trkpt>
      <trkpt lat="42.74952" lon="0.87293">
        <ele>2188</ele>
        <time>2010-01-01T07:57:15Z</time>
      </trkpt>
      <trkpt lat="42.74948" lon="0.8728">
        <ele>2189</ele>
        <time>2010-01-01T07:57:18Z</time>
      </trkpt>
      <trkpt lat="42.74944" lon="0.87267">
        <ele>2190</ele>
        <time>2010-01-01T07:57:23Z</time>
      </trkpt>
      <trkpt lat="42.74939" lon="0.87256">
        <ele>2192</ele>
        <time>2010-01-01T07:57:27Z</time>
      </trkpt>
      <trkpt lat="42.74937" lon="0.87242">
        <ele>2192</ele>
        <time>2010-01-01T07:57:31Z</time>
      </trkpt>
      <trkpt lat="42.74934" lon="0.87229">
        <ele>2192</ele>
        <time>2010-01-01T07:57:35Z</time>
      </trkpt>
      <trkpt lat="42.7493" lon="0.87217">
        <ele>2193</ele>
        <time>2010-01-01T07:57:39Z</time>
      </trkpt>
      <trkpt lat="42.74924" lon="0.87207">
        <ele>2197</ele>
        <time>2010-01-01T07:57:42Z</time>
      </trkpt>
      <trkpt lat="42.74919" lon="0.87217">
        <ele>2200</ele>
        <time>2010-01-01T07:57:46Z</time>
      </trkpt>
      <trkpt lat="42.74912" lon="0.87211">
        <ele>2204</ele>
        <time>2010-01-01T07:57:49Z</time>
      </trkpt>
      <trkpt lat="42.74907" lon="0.87201">
        <ele>2207</ele>
        <time>2010-01-01T07:57:53Z</time>
      </trkpt>
      <trkpt lat="42.74904" lon="0.87188">
        <ele>2209</ele>
        <time>2010-01-01T07:57:57Z</time>
      </trkpt>
      <trkpt lat="42.74901" lon="0.87177">
        <ele>2211</ele>
        <time>2010-01-01T07:58:00Z</time>
      </trkpt>
      <trkpt lat="42.74893" lon="0.87167">
        <ele>2215</ele>
        <time>2010-01-01T07:58:04Z</time>
      </trkpt>
      <trkpt lat="42.74887" lon="0.87157">
        <ele>2218</ele>
        <time>2010-01-01T07:58:08Z</time>
      </trkpt>
      <trkpt lat="42.74885" lon="0.87144">
        <ele>2218</ele>
        <time>2010-01-01T07:58:12Z</time>
      </trkpt>
      <trkpt lat="42.74885" lon="0.87143">
        <ele>2218</ele>
        <time>2010-01-01T07:58:12Z</time>
      </trkpt>
      <trkpt lat="42.74882" lon="0.87133">
        <ele>2219</ele>
        <time>2010-01-01T07:58:16Z</time>
      </trkpt>
      <trkpt lat="42.74877" lon="0.87124">
        <ele>2221</ele>
        <time>2010-01-01T07:58:19Z</time>
      </trkpt>
      <trkpt lat="42.74875" lon="0.87112">
        <ele>2222</ele>
        <time>2010-01-01T07:58:23Z</time>
      </trkpt>
      <trkpt lat="42.74868" lon="0.87104">
        <ele>2227</ele>
        <time>2010-01-01T07:58:26Z</time>
      </trkpt>
      <trkpt lat="42.74867" lon="0.87093">
        <ele>2228</ele>
        <time>2010-01-01T07:58:29Z</time>
      </trkpt>
      <trkpt lat="42.7486" lon="0.87084">
        <ele>2233</ele>
        <time>2010-01-01T07:58:33Z</time>
      </trkpt>
      <trkpt lat="42.74854" lon="0.87089">
        <ele>2236</ele>
        <time>2010-01-01T07:58:36Z</time>
      </trkpt>
      <trkpt lat="42.74851" lon="0.87095">
        <ele>2238</ele>
        <time>2010-01-01T07:58:38Z</time>
      </trkpt>
      <trkpt lat="42.74849" lon="0.87106">
        <ele>2238</ele>
        <time>2010-01-01T07:58:42Z</time>
      </trkpt>
      <trkpt lat="42.74839" lon="0.87111">
        <ele>2244</ele>
        <time>2010-01-01T07:58:46Z</time>
      </trkpt>
      <trkpt lat="42.7483" lon="0.87108">
        <ele>2249</ele>
        <time>2010-01-01T07:58:50Z</time>
      </trkpt>
      <trkpt lat="42.74822" lon="0.87101">
        <ele>2252</ele>
        <time>2010-01-01T07:58:53Z</time>
      </trkpt>
      <trkpt lat="42.74812" lon="0.87101">
        <ele>2256</ele>
        <time>2010-01-01T07:58:57Z</time>
      </trkpt>
      <trkpt lat="42.74805" lon="0.87097">
        <ele>2259</ele>
        <time>2010-01-01T07:59:01Z</time>
      </trkpt>
      <trkpt lat="42.74797" lon="0.87099">
        <ele>2262</ele>
        <time>2010-01-01T07:59:04Z</time>
      </trkpt>
      <trkpt lat="42.74786" lon="0.87099">
        <ele>2265</ele>
        <time>2010-01-01T07:59:08Z</time>
      </trkpt>
      <trkpt lat="42.74779" lon="0.87094">
        <ele>2269</ele>
        <time>2010-01-01T07:59:11Z</time>
      </trkpt>
      <trkpt lat="42.7477" lon="0.87094">
        <ele>2271</ele>
        <time>2010-01-01T07:59:15Z</time>
      </trkpt>
      <trkpt lat="42.74761" lon="0.87099">
        <ele>2274</ele>
        <time>2010-01-01T07:59:19Z</time>
      </trkpt>
      <trkpt lat="42.74752" lon="0.87103">
        <ele>2276</ele>
        <time>2010-01-01T07:59:23Z</time>
      </trkpt>
      <trkpt lat="42.74747" lon="0.87097">
        <ele>2278</ele>
        <time>2010-01-01T07:59:25Z</time>
      </trkpt>
      <trkpt lat="42.74747" lon="0.87083">
        <ele>2278</ele>
        <time>2010-01-01T07:59:29Z</time>
      </trkpt>
      <trkpt lat="42.7474" lon="0.87072">
        <ele>2281</ele>
        <time>2010-01-01T07:59:34Z</time>
      </trkpt>
      <trkpt lat="42.74737" lon="0.8706">
        <ele>2283</ele>
        <time>2010-01-01T07:59:37Z</time>
      </trkpt>
      <trkpt lat="42.74733" lon="0.8705">
        <ele>2285</ele>
        <time>2010-01-01T07:59:41Z</time>
      </trkpt>
      <trkpt lat="42.74726" lon="0.87043">
        <ele>2288</ele>
        <time>2010-01-01T07:59:44Z</time>
      </trkpt>
      <trkpt lat="42.74717" lon="0.87037">
        <ele>2292</ele>
        <time>2010-01-01T07:59:48Z</time>
      </trkpt>
      <trkpt lat="42.74707" lon="0.87036">
        <ele>2295</ele>
        <time>2010-01-01T07:59:52Z</time>
      </trkpt>
      <trkpt lat="42.747" lon="0.87037">
        <ele>2297</ele>
        <time>2010-01-01T07:59:55Z</time>
      </trkpt>
      <trkpt lat="42.7469" lon="0.87037">
        <ele>2300</ele>
        <time>2010-01-01T07:59:59Z</time>
      </trkpt>
      <trkpt lat="42.74683" lon="0.87027">
        <ele>2303</ele>
        <time>2010-01-01T08:00:03Z</time>
      </trkpt>
      <trkpt lat="42.7468" lon="0.87012">
        <ele>2306</ele>
        <time>2010-01-01T08:00:08Z</time>
      </trkpt>
      <trkpt lat="42.74677" lon="0.87001">
        <ele>2308</ele>
        <time>2010-01-01T08:00:11Z</time>
      </trkpt>
      <trkpt lat="42.74673" lon="0.86992">
        <ele>2309</ele>
        <time>2010-01-01T08:00:14Z</time>
      </trkpt>
      <trkpt lat="42.74664" lon="0.86986">
        <ele>2311</ele>
        <time>2010-01-01T08:00:18Z</time>
      </trkpt>
      <trkpt lat="42.74658" lon="0.86979">
        <ele>2312</ele>
        <time>2010-01-01T08:00:21Z</time>
      </trkpt>
      <trkpt lat="42.74654" lon="0.8697">
        <ele>2312</ele>
        <time>2010-01-01T08:00:24Z</time>
      </trkpt>
      <trkpt lat="42.74648" lon="0.86959">
        <ele>2313</ele>
        <time>2010-01-01T08:00:29Z</time>
      </trkpt>
      <trkpt lat="42.74644" lon="0.86946">
        <ele>2314</ele>
        <time>2010-01-01T08:00:33Z</time>
      </trkpt>
      <trkpt lat="42.74638" lon="0.86936">
        <ele>2314</ele>
        <time>2010-01-01T08:00:37Z</time>
      </trkpt>
      <trkpt lat="42.74632" lon="0.86927">
        <ele>2314</ele>
        <time>2010-01-01T08:00:40Z</time>
      </trkpt>
      <trkpt lat="42.7463" lon="0.86914">
        <ele>2315</ele>
        <time>2010-01-01T08:00:44Z</time>
      </trkpt>
      <trkpt lat="42.74631" lon="0.869">
        <ele>2315</ele>
        <time>2010-01-01T08:00:48Z</time>
      </trkpt>
      <trkpt lat="42.74631" lon="0.86887">
        <ele>2316</ele>
        <time>2010-01-01T08:00:52Z</time>
      </trkpt>
      <trkpt lat="42.74629" lon="0.86873">
        <ele>2316</ele>
        <time>2010-01-01T08:00:56Z</time>
      </trkpt>
      <trkpt lat="42.74621" lon="0.86865">
        <ele>2316</ele>
        <time>2010-01-01T08:01:00Z</time>
      </trkpt>
      <trkpt lat="42.7461" lon="0.86861">
        <ele>2316</ele>
        <time>2010-01-01T08:01:05Z</time>
      </trkpt>
      <trkpt lat="42.746" lon="0.86858">
        <ele>2316</ele>
        <time>2010-01-01T08:01:09Z</time>
      </trkpt>
      <trkpt lat="42.7459" lon="0.86856">
        <ele>2317</ele>
        <time>2010-01-01T08:01:13Z</time>
      </trkpt>
      <trkpt lat="42.74581" lon="0.86853">
        <ele>2318</ele>
        <time>2010-01-01T08:01:17Z</time>
      </trkpt>
      <trkpt lat="42.74572" lon="0.86852">
        <ele>2319</ele>
        <time>2010-01-01T08:01:20Z</time>
      </trkpt>
      <trkpt lat="42.74562" lon="0.86854">
        <ele>2319</ele>
        <time>2010-01-01T08:01:24Z</time>
      </trkpt>
      <trkpt lat="42.74553" lon="0.86856">
        <ele>2320</ele>
        <time>2010-01-01T08:01:28Z</time>
      </trkpt>
      <trkpt lat="42.74544" lon="0.8686">
        <ele>2320</ele>
        <time>2010-01-01T08:01:32Z</time>
      </trkpt>
      <trkpt lat="42.74537" lon="0.8687">
        <ele>2319</ele>
        <time>2010-01-01T08:01:36Z</time>
      </trkpt>
      <trkpt lat="42.74528" lon="0.8687">
        <ele>2320</ele>
        <time>2010-01-01T08:01:40Z</time>
      </trkpt>
      <trkpt lat="42.74519" lon="0.86875">
        <ele>2320</ele>
        <time>2010-01-01T08:01:43Z</time>
      </trkpt>
      <trkpt lat="42.7451" lon="0.86876">
        <ele>2320</ele>
        <time>2010-01-01T08:01:47Z</time>
      </trkpt>
      <trkpt lat="42.74501" lon="0.86875">
        <ele>2320</ele>
        <time>2010-01-01T08:01:51Z</time>
      </trkpt>
      <trkpt lat="42.7449" lon="0.86875">
        <ele>2322</ele>
        <time>2010-01-01T08:01:55Z</time>
      </trkpt>
      <trkpt lat="42.74481" lon="0.86876">
        <ele>2323</ele>
        <time>2010-01-01T08:01:59Z</time>
      </trkpt>
      <trkpt lat="42.74472" lon="0.86877">
        <ele>2325</ele>
        <time>2010-01-01T08:02:02Z</time>
      </trkpt>
      <trkpt lat="42.74463" lon="0.86877">
        <ele>2327</ele>
        <time>2010-01-01T08:02:06Z</time>
      </trkpt>
      <trkpt lat="42.74454" lon="0.86875">
        <ele>2328</ele>
        <time>2010-01-01T08:02:09Z</time>
      </trkpt>
      <trkpt lat="42.74444" lon="0.86875">
        <ele>2330</ele>
        <time>2010-01-01T08:02:13Z</time>
      </trkpt>
      <trkpt lat="42.74434" lon="0.86872">
        <ele>2334</ele>
        <time>2010-01-01T08:02:18Z</time>
      </trkpt>
      <trkpt lat="42.74427" lon="0.86872">
        <ele>2337</ele>
        <time>2010-01-01T08:02:20Z</time>
      </trkpt>
      <trkpt lat="42.7442" lon="0.86878">
        <ele>2340</ele>
        <time>2010-01-01T08:02:24Z</time>
      </trkpt>
      <trkpt lat="42.7441" lon="0.86878">
        <ele>2343</ele>
        <time>2010-01-01T08:02:28Z</time>
      </trkpt>
      <trkpt lat="42.74402" lon="0.86877">
        <ele>2347</ele>
        <time>2010-01-01T08:02:31Z</time>
      </trkpt>
      <trkpt lat="42.74394" lon="0.86882">
        <ele>2350</ele>
        <time>2010-01-01T08:02:35Z</time>
      </trkpt>
      <trkpt lat="42.74387" lon="0.86885">
        <ele>2352</ele>
        <time>2010-01-01T08:02:37Z</time>
      </trkpt>
      <trkpt lat="42.74378" lon="0.86885">
        <ele>2355</ele>
        <time>2010-01-01T08:02:41Z</time>
      </trkpt>
      <trkpt lat="42.74369" lon="0.86889">
        <ele>2358</ele>
        <time>2010-01-01T08:02:45Z</time>
      </trkpt>
      <trkpt lat="42.74359" lon="0.86892">
        <ele>2361</ele>
        <time>2010-01-01T08:02:49Z</time>
      </trkpt>
      <trkpt lat="42.74351" lon="0.86896">
        <ele>2363</ele>
        <time>2010-01-01T08:02:53Z</time>
      </trkpt>
      <trkpt lat="42.74345" lon="0.86902">
        <ele>2365</ele>
        <time>2010-01-01T08:02:56Z</time>
      </trkpt>
      <trkpt lat="42.74335" lon="0.86904">
        <ele>2368</ele>
        <time>2010-01-01T08:02:59Z</time>
      </trkpt>
      <trkpt lat="42.74328" lon="0.8691">
        <ele>2371</ele>
        <time>2010-01-01T08:03:03Z</time>
      </trkpt>
      <trkpt lat="42.74321" lon="0.86917">
        <ele>2374</ele>
        <time>2010-01-01T08:03:06Z</time>
      </trkpt>
      <trkpt lat="42.74314" lon="0.86924">
        <ele>2378</ele>
        <time>2010-01-01T08:03:10Z</time>
      </trkpt>
      <trkpt lat="42.74308" lon="0.86927">
        <ele>2380</ele>
        <time>2010-01-01T08:03:12Z</time>
      </trkpt>
      <trkpt lat="42.74304" lon="0.86935">
        <ele>2383</ele>
        <time>2010-01-01T08:03:15Z</time>
      </trkpt>
      <trkpt lat="42.74296" lon="0.86939">
        <ele>2386</ele>
        <time>2010-01-01T08:03:19Z</time>
      </trkpt>
      <trkpt lat="42.74289" lon="0.86946">
        <ele>2388</ele>
        <time>2010-01-01T08:03:22Z</time>
      </trkpt>
      <trkpt lat="42.74282" lon="0.86953">
        <ele>2391</ele>
        <time>2010-01-01T08:03:26Z</time>
      </trkpt>
      <trkpt lat="42.74273" lon="0.86953">
        <ele>2394</ele>
        <time>2010-01-01T08:03:29Z</time>
      </trkpt>
      <trkpt lat="42.74271" lon="0.8696">
        <ele>2395</ele>
        <time>2010-01-01T08:03:31Z</time>
      </trkpt>
      <trkpt lat="42.74268" lon="0.86972">
        <ele>2398</ele>
        <time>2010-01-01T08:03:35Z</time>
      </trkpt>
      <trkpt lat="42.74263" lon="0.86986">
        <ele>2406</ele>
        <time>2010-01-01T08:03:40Z</time>
      </trkpt>
      <trkpt lat="42.74255" lon="0.86986">
        <ele>2410</ele>
        <time>2010-01-01T08:03:43Z</time>
      </trkpt>
      <trkpt lat="42.74253" lon="0.86996">
        <ele>2415</ele>
        <time>2010-01-01T08:03:46Z</time>
      </trkpt>
      <trkpt lat="42.74246" lon="0.87006">
        <ele>2421</ele>
        <time>2010-01-01T08:03:50Z</time>
      </trkpt>
      <trkpt lat="42.74241" lon="0.87015">
        <ele>2426</ele>
        <time>2010-01-01T08:03:53Z</time>
      </trkpt>
      <trkpt lat="42.74236" lon="0.87022">
        <ele>2430</ele>
        <time>2010-01-01T08:03:56Z</time>
      </trkpt>
      <trkpt lat="42.74228" lon="0.87029">
        <ele>2435</ele>
        <time>2010-01-01T08:04:00Z</time>
      </trkpt>
      <trkpt lat="42.74222" lon="0.8704">
        <ele>2439</ele>
        <time>2010-01-01T08:04:04Z</time>
      </trkpt>
      <trkpt lat="42.7422" lon="0.8705">
        <ele>2442</ele>
        <time>2010-01-01T08:04:07Z</time>
      </trkpt>
      <trkpt lat="42.74216" lon="0.8706">
        <ele>2445</ele>
        <time>2010-01-01T08:04:10Z</time>
      </trkpt>
      <trkpt lat="42.74211" lon="0.87071">
        <ele>2450</ele>
        <time>2010-01-01T08:04:14Z</time>
      </trkpt>
      <trkpt lat="42.74208" lon="0.87084">
        <ele>2456</ele>
        <time>2010-01-01T08:04:18Z</time>
      </trkpt>
      <trkpt lat="42.74205" lon="0.87097">
        <ele>2460</ele>
        <time>2010-01-01T08:04:22Z</time>
      </trkpt>
      <trkpt lat="42.74203" lon="0.87109">
        <ele>2464</ele>
        <time>2010-01-01T08:04:26Z</time>
      </trkpt>
      <trkpt lat="42.742" lon="0.87123">
        <ele>2469</ele>
        <time>2010-01-01T08:04:30Z</time>
      </trkpt>
      <trkpt lat="42.74198" lon="0.87137">
        <ele>2474</ele>
        <time>2010-01-01T08:04:34Z</time>
      </trkpt>
      <trkpt lat="42.74197" lon="0.87148">
        <ele>2478</ele>
        <time>2010-01-01T08:04:38Z</time>
      </trkpt>
      <trkpt lat="42.74197" lon="0.87162">
        <ele>2482</ele>
        <time>2010-01-01T08:04:42Z</time>
      </trkpt>
      <trkpt lat="42.74198" lon="0.87174">
        <ele>2485</ele>
        <time>2010-01-01T08:04:45Z</time>
      </trkpt>
      <trkpt lat="42.742" lon="0.87187">
        <ele>2488</ele>
        <time>2010-01-01T08:04:49Z</time>
      </trkpt>
      <trkpt lat="42.74198" lon="0.87199">
        <ele>2491</ele>
        <time>2010-01-01T08:04:53Z</time>
      </trkpt>
      <trkpt lat="42.74198" lon="0.87212">
        <ele>2493</ele>
        <time>2010-01-01T08:04:57Z</time>
      </trkpt>
      <trkpt lat="42.74199" lon="0.87224">
        <ele>2494</ele>
        <time>2010-01-01T08:05:00Z</time>
      </trkpt>
      <trkpt lat="42.74201" lon="0.87237">
        <ele>2496</ele>
        <time>2010-01-01T08:05:04Z</time>
      </trkpt>
      <trkpt lat="42.74202" lon="0.8725">
        <ele>2497</ele>
        <time>2010-01-01T08:05:08Z</time>
      </trkpt>
      <trkpt lat="42.74203" lon="0.87263">
        <ele>2499</ele>
        <time>2010-01-01T08:05:12Z</time>
      </trkpt>
      <trkpt lat="42.74205" lon="0.87276">
        <ele>2502</ele>
        <time>2010-01-01T08:05:15Z</time>
      </trkpt>
      <trkpt lat="42.74205" lon="0.87289">
        <ele>2505</ele>
        <time>2010-01-01T08:05:19Z</time>
      </trkpt>
      <trkpt lat="42.74207" lon="0.87303">
        <ele>2508</ele>
        <time>2010-01-01T08:05:24Z</time>
      </trkpt>
      <trkpt lat="42.74209" lon="0.87316">
        <ele>2510</ele>
        <time>2010-01-01T08:05:27Z</time>
      </trkpt>
      <trkpt lat="42.7421" lon="0.8733">
        <ele>2512</ele>
        <time>2010-01-01T08:05:32Z</time>
      </trkpt>
      <trkpt lat="42.74212" lon="0.87342">
        <ele>2513</ele>
        <time>2010-01-01T08:05:35Z</time>
      </trkpt>
      <trkpt lat="42.74213" lon="0.87355">
        <ele>2515</ele>
        <time>2010-01-01T08:05:39Z</time>
      </trkpt>
      <trkpt lat="42.74215" lon="0.87368">
        <ele>2517</ele>
        <time>2010-01-01T08:05:43Z</time>
      </trkpt>
      <trkpt lat="42.74215" lon="0.87381">
        <ele>2518</ele>
        <time>2010-01-01T08:05:47Z</time>
      </trkpt>
      <trkpt lat="42.74222" lon="0.87389">
        <ele>2521</ele>
        <time>2010-01-01T08:05:51Z</time>
      </trkpt>
      <trkpt lat="42.7423" lon="0.87397">
        <ele>2520</ele>
        <time>2010-01-01T08:05:54Z</time>
      </trkpt>
      <trkpt lat="42.74235" lon="0.87407">
        <ele>2519</ele>
        <time>2010-01-01T08:05:58Z</time>
      </trkpt>
      <trkpt lat="42.74242" lon="0.87416">
        <ele>2520</ele>
        <time>2010-01-01T08:06:02Z</time>
      </trkpt>
      <trkpt lat="42.74245" lon="0.87427">
        <ele>2519</ele>
        <time>2010-01-01T08:06:05Z</time>
      </trkpt>
      <trkpt lat="42.74251" lon="0.87436">
        <ele>2519</ele>
        <time>2010-01-01T08:06:09Z</time>
      </trkpt>
      <trkpt lat="42.74257" lon="0.87446">
        <ele>2516</ele>
        <time>2010-01-01T08:06:13Z</time>
      </trkpt>
      <trkpt lat="42.74263" lon="0.87456">
        <ele>2515</ele>
        <time>2010-01-01T08:06:16Z</time>
      </trkpt>
      <trkpt lat="42.74267" lon="0.87468">
        <ele>2514</ele>
        <time>2010-01-01T08:06:20Z</time>
      </trkpt>
      <trkpt lat="42.74271" lon="0.87479">
        <ele>2515</ele>
        <time>2010-01-01T08:06:24Z</time>
      </trkpt>
      <trkpt lat="42.74272" lon="0.87491">
        <ele>2519</ele>
        <time>2010-01-01T08:06:28Z</time>
      </trkpt>
      <trkpt lat="42.74276" lon="0.87502">
        <ele>2523</ele>
        <time>2010-01-01T08:06:31Z</time>
      </trkpt>
      <trkpt lat="42.74281" lon="0.87514">
        <ele>2522</ele>
        <time>2010-01-01T08:06:35Z</time>
      </trkpt>
      <trkpt lat="42.74286" lon="0.87525">
        <ele>2522</ele>
        <time>2010-01-01T08:06:39Z</time>
      </trkpt>
      <trkpt lat="42.74288" lon="0.87537">
        <ele>2522</ele>
        <time>2010-01-01T08:06:43Z</time>
      </trkpt>
      <trkpt lat="42.74289" lon="0.8755">
        <ele>2523</ele>
        <time>2010-01-01T08:06:46Z</time>
      </trkpt>
      <trkpt lat="42.74288" lon="0.87563">
        <ele>2521</ele>
        <time>2010-01-01T08:06:50Z</time>
      </trkpt>
      <trkpt lat="42.74288" lon="0.87557">
        <ele>2523</ele>
        <time>2010-01-01T08:06:52Z</time>
      </trkpt>
      <trkpt lat="42.74289" lon="0.87543">
        <ele>2522</ele>
        <time>2010-01-01T08:06:56Z</time>
      </trkpt>
      <trkpt lat="42.74287" lon="0.8753">
        <ele>2522</ele>
        <time>2010-01-01T08:07:00Z</time>
      </trkpt>
      <trkpt lat="42.74282" lon="0.87517">
        <ele>2522</ele>
        <time>2010-01-01T08:07:04Z</time>
      </trkpt>
      <trkpt lat="42.74277" lon="0.87508">
        <ele>2523</ele>
        <time>2010-01-01T08:07:08Z</time>
      </trkpt>
      <trkpt lat="42.74273" lon="0.87497">
        <ele>2520</ele>
        <time>2010-01-01T08:07:11Z</time>
      </trkpt>
      <trkpt lat="42.74272" lon="0.87484">
        <ele>2517</ele>
        <time>2010-01-01T08:07:15Z</time>
      </trkpt>
      <trkpt lat="42.74269" lon="0.87472">
        <ele>2514</ele>
        <time>2010-01-01T08:07:19Z</time>
      </trkpt>
      <trkpt lat="42.74263" lon="0.87461">
        <ele>2514</ele>
        <time>2010-01-01T08:07:23Z</time>
      </trkpt>
      <trkpt lat="42.74258" lon="0.8745">
        <ele>2516</ele>
        <time>2010-01-01T08:07:27Z</time>
      </trkpt>
      <trkpt lat="42.74252" lon="0.87439">
        <ele>2518</ele>
        <time>2010-01-01T08:07:31Z</time>
      </trkpt>
      <trkpt lat="42.74246" lon="0.8743">
        <ele>2518</ele>
        <time>2010-01-01T08:07:34Z</time>
      </trkpt>
      <trkpt lat="42.74242" lon="0.87418">
        <ele>2520</ele>
        <time>2010-01-01T08:07:38Z</time>
      </trkpt>
      <trkpt lat="42.74235" lon="0.87408">
        <ele>2519</ele>
        <time>2010-01-01T08:07:42Z</time>
      </trkpt>
      <trkpt lat="42.74229" lon="0.87397">
        <ele>2520</ele>
        <time>2010-01-01T08:07:46Z</time>
      </trkpt>
      <trkpt lat="42.74221" lon="0.87387">
        <ele>2521</ele>
        <time>2010-01-01T08:07:50Z</time>
      </trkpt>
      <trkpt lat="42.74212" lon="0.87381">
        <ele>2517</ele>
        <time>2010-01-01T08:07:55Z</time>
      </trkpt>
      <trkpt lat="42.74204" lon="0.87375">
        <ele>2515</ele>
        <time>2010-01-01T08:07:58Z</time>
      </trkpt>
      <trkpt lat="42.74196" lon="0.87369">
        <ele>2514</ele>
        <time>2010-01-01T08:08:02Z</time>
      </trkpt>
      <trkpt lat="42.74188" lon="0.87361">
        <ele>2515</ele>
        <time>2010-01-01T08:08:06Z</time>
      </trkpt>
      <trkpt lat="42.74181" lon="0.87351">
        <ele>2514</ele>
        <time>2010-01-01T08:08:10Z</time>
      </trkpt>
      <trkpt lat="42.74173" lon="0.87343">
        <ele>2513</ele>
        <time>2010-01-01T08:08:14Z</time>
      </trkpt>
      <trkpt lat="42.74165" lon="0.87337">
        <ele>2513</ele>
        <time>2010-01-01T08:08:17Z</time>
      </trkpt>
      <trkpt lat="42.74158" lon="0.87329">
        <ele>2511</ele>
        <time>2010-01-01T08:08:21Z</time>
      </trkpt>
      <trkpt lat="42.74149" lon="0.87323">
        <ele>2508</ele>
        <time>2010-01-01T08:08:25Z</time>
      </trkpt>
      <trkpt lat="42.7414" lon="0.87316">
        <ele>2506</ele>
        <time>2010-01-01T08:08:29Z</time>
      </trkpt>
      <trkpt lat="42.74132" lon="0.87311">
        <ele>2504</ele>
        <time>2010-01-01T08:08:33Z</time>
      </trkpt>
      <trkpt lat="42.74123" lon="0.87306">
        <ele>2501</ele>
        <time>2010-01-01T08:08:37Z</time>
      </trkpt>
      <trkpt lat="42.74116" lon="0.873">
        <ele>2498</ele>
        <time>2010-01-01T08:08:40Z</time>
      </trkpt>
      <trkpt lat="42.74107" lon="0.87295">
        <ele>2495</ele>
        <time>2010-01-01T08:08:44Z</time>
      </trkpt>
      <trkpt lat="42.74099" lon="0.8729">
        <ele>2492</ele>
        <time>2010-01-01T08:08:48Z</time>
      </trkpt>
      <trkpt lat="42.74091" lon="0.87286">
        <ele>2490</ele>
        <time>2010-01-01T08:08:51Z</time>
      </trkpt>
      <trkpt lat="42.74082" lon="0.8728">
        <ele>2487</ele>
        <time>2010-01-01T08:08:55Z</time>
      </trkpt>
      <trkpt lat="42.74074" lon="0.87274">
        <ele>2485</ele>
        <time>2010-01-01T08:08:58Z</time>
      </trkpt>
      <trkpt lat="42.74065" lon="0.87268">
        <ele>2482</ele>
        <time>2010-01-01T08:09:03Z</time>
      </trkpt>
      <trkpt lat="42.74057" lon="0.87262">
        <ele>2480</ele>
        <time>2010-01-01T08:09:06Z</time>
      </trkpt>
      <trkpt lat="42.74048" lon="0.87258">
        <ele>2478</ele>
        <time>2010-01-01T08:09:10Z</time>
      </trkpt>
      <trkpt lat="42.7404" lon="0.87254">
        <ele>2476</ele>
        <time>2010-01-01T08:09:13Z</time>
      </trkpt>
      <trkpt lat="42.74032" lon="0.87248">
        <ele>2474</ele>
        <time>2010-01-01T08:09:17Z</time>
      </trkpt>
      <trkpt lat="42.74024" lon="0.87243">
        <ele>2472</ele>
        <time>2010-01-01T08:09:21Z</time>
      </trkpt>
      <trkpt lat="42.74016" lon="0.87237">
        <ele>2470</ele>
        <time>2010-01-01T08:09:24Z</time>
      </trkpt>
      <trkpt lat="42.74007" lon="0.87231">
        <ele>2469</ele>
        <time>2010-01-01T08:09:28Z</time>
      </trkpt>
      <trkpt lat="42.73999" lon="0.87225">
        <ele>2468</ele>
        <time>2010-01-01T08:09:32Z</time>
      </trkpt>
      <trkpt lat="42.73991" lon="0.87219">
        <ele>2469</ele>
        <time>2010-01-01T08:09:36Z</time>
      </trkpt>
      <trkpt lat="42.73982" lon="0.87213">
        <ele>2469</ele>
        <time>2010-01-01T08:09:39Z</time>
      </trkpt>
      <trkpt lat="42.73973" lon="0.87209">
        <ele>2469</ele>
        <time>2010-01-01T08:09:43Z</time>
      </trkpt>
      <trkpt lat="42.73965" lon="0.87204">
        <ele>2470</ele>
        <time>2010-01-01T08:09:47Z</time>
      </trkpt>
      <trkpt lat="42.73956" lon="0.87198">
        <ele>2471</ele>
        <time>2010-01-01T08:09:51Z</time>
      </trkpt>
      <trkpt lat="42.73948" lon="0.87192">
        <ele>2472</ele>
        <time>2010-01-01T08:09:55Z</time>
      </trkpt>
      <trkpt lat="42.7394" lon="0.87187">
        <ele>2471</ele>
        <time>2010-01-01T08:09:58Z</time>
      </trkpt>
      <trkpt lat="42.73932" lon="0.87179">
        <ele>2469</ele>
        <time>2010-01-01T08:10:02Z</time>
      </trkpt>
      <trkpt lat="42.73924" lon="0.87171">
        <ele>2468</ele>
        <time>2010-01-01T08:10:06Z</time>
      </trkpt>
      <trkpt lat="42.73917" lon="0.87164">
        <ele>2467</ele>
        <time>2010-01-01T08:10:10Z</time>
      </trkpt>
      <trkpt lat="42.73909" lon="0.87156">
        <ele>2465</ele>
        <time>2010-01-01T08:10:13Z</time>
      </trkpt>
      <trkpt lat="42.73902" lon="0.87148">
        <ele>2463</ele>
        <time>2010-01-01T08:10:17Z</time>
      </trkpt>
      <trkpt lat="42.73894" lon="0.87142">
        <ele>2461</ele>
        <time>2010-01-01T08:10:21Z</time>
      </trkpt>
      <trkpt lat="42.73886" lon="0.87136">
        <ele>2459</ele>
        <time>2010-01-01T08:10:24Z</time>
      </trkpt>
      <trkpt lat="42.7388" lon="0.87128">
        <ele>2457</ele>
        <time>2010-01-01T08:10:28Z</time>
      </trkpt>
      <trkpt lat="42.73875" lon="0.87124">
        <ele>2455</ele>
        <time>2010-01-01T08:10:30Z</time>
      </trkpt>
      <trkpt lat="42.73866" lon="0.87118">
        <ele>2452</ele>
        <time>2010-01-01T08:10:34Z</time>
      </trkpt>
      <trkpt lat="42.73857" lon="0.87111">
        <ele>2450</ele>
        <time>2010-01-01T08:10:38Z</time>
      </trkpt>
      <trkpt lat="42.73849" lon="0.87104">
        <ele>2450</ele>
        <time>2010-01-01T08:10:42Z</time>
      </trkpt>
      <trkpt lat="42.73842" lon="0.87097">
        <ele>2449</ele>
        <time>2010-01-01T08:10:45Z</time>
      </trkpt>
      <trkpt lat="42.73834" lon="0.8709">
        <ele>2449</ele>
        <time>2010-01-01T08:10:49Z</time>
      </trkpt>
      <trkpt lat="42.73827" lon="0.87082">
        <ele>2451</ele>
        <time>2010-01-01T08:10:53Z</time>
      </trkpt>
      <trkpt lat="42.73819" lon="0.87076">
        <ele>2453</ele>
        <time>2010-01-01T08:10:57Z</time>
      </trkpt>
      <trkpt lat="42.73811" lon="0.87069">
        <ele>2455</ele>
        <time>2010-01-01T08:11:00Z</time>
      </trkpt>
      <trkpt lat="42.73803" lon="0.87062">
        <ele>2457</ele>
        <time>2010-01-01T08:11:04Z</time>
      </trkpt>
      <trkpt lat="42.73794" lon="0.87059">
        <ele>2460</ele>
        <time>2010-01-01T08:11:08Z</time>
      </trkpt>
      <trkpt lat="42.73786" lon="0.87052">
        <ele>2462</ele>
        <time>2010-01-01T08:11:12Z</time>
      </trkpt>
      <trkpt lat="42.73776" lon="0.87047">
        <ele>2464</ele>
        <time>2010-01-01T08:11:16Z</time>
      </trkpt>
      <trkpt lat="42.73769" lon="0.87039">
        <ele>2469</ele>
        <time>2010-01-01T08:11:20Z</time>
      </trkpt>
      <trkpt lat="42.7376" lon="0.87036">
        <ele>2474</ele>
        <time>2010-01-01T08:11:23Z</time>
      </trkpt>
      <trkpt lat="42.73753" lon="0.87031">
        <ele>2479</ele>
        <time>2010-01-01T08:11:26Z</time>
      </trkpt>
      <trkpt lat="42.73744" lon="0.87026">
        <ele>2484</ele>
        <time>2010-01-01T08:11:30Z</time>
      </trkpt>
      <trkpt lat="42.73735" lon="0.87021">
        <ele>2489</ele>
        <time>2010-01-01T08:11:34Z</time>
      </trkpt>
      <trkpt lat="42.73727" lon="0.87015">
        <ele>2494</ele>
        <time>2010-01-01T08:11:38Z</time>
      </trkpt>
      <trkpt lat="42.73718" lon="0.87011">
        <ele>2497</ele>
        <time>2010-01-01T08:11:42Z</time>
      </trkpt>
      <trkpt lat="42.7371" lon="0.87006">
        <ele>2498</ele>
        <time>2010-01-01T08:11:45Z</time>
      </trkpt>
      <trkpt lat="42.73699" lon="0.87004">
        <ele>2499</ele>
        <time>2010-01-01T08:11:49Z</time>
      </trkpt>
      <trkpt lat="42.73689" lon="0.87002">
        <ele>2501</ele>
        <time>2010-01-01T08:11:53Z</time>
      </trkpt>
      <trkpt lat="42.73681" lon="0.86998">
        <ele>2503</ele>
        <time>2010-01-01T08:11:57Z</time>
      </trkpt>
      <trkpt lat="42.73673" lon="0.86995">
        <ele>2506</ele>
        <time>2010-01-01T08:12:00Z</time>
      </trkpt>
      <trkpt lat="42.73664" lon="0.86993">
        <ele>2508</ele>
        <time>2010-01-01T08:12:04Z</time>
      </trkpt>
      <trkpt lat="42.73657" lon="0.86988">
        <ele>2509</ele>
        <time>2010-01-01T08:12:07Z</time>
      </trkpt>
      <trkpt lat="42.73649" lon="0.86984">
        <ele>2509</ele>
        <time>2010-01-01T08:12:11Z</time>
      </trkpt>
      <trkpt lat="42.73641" lon="0.86977">
        <ele>2510</ele>
        <time>2010-01-01T08:12:14Z</time>
      </trkpt>
      <trkpt lat="42.73638" lon="0.86967">
        <ele>2509</ele>
        <time>2010-01-01T08:12:18Z</time>
      </trkpt>
      <trkpt lat="42.7364" lon="0.86954">
        <ele>2508</ele>
        <time>2010-01-01T08:12:21Z</time>
      </trkpt>
      <trkpt lat="42.73642" lon="0.8694">
        <ele>2508</ele>
        <time>2010-01-01T08:12:26Z</time>
      </trkpt>
      <trkpt lat="42.73643" lon="0.86928">
        <ele>2508</ele>
        <time>2010-01-01T08:12:29Z</time>
      </trkpt>
      <trkpt lat="42.73643" lon="0.86915">
        <ele>2507</ele>
        <time>2010-01-01T08:12:33Z</time>
      </trkpt>
      <trkpt lat="42.73641" lon="0.86903">
        <ele>2507</ele>
        <time>2010-01-01T08:12:37Z</time>
      </trkpt>
      <trkpt lat="42.73642" lon="0.86889">
        <ele>2507</ele>
        <time>2010-01-01T08:12:41Z</time>
      </trkpt>
      <trkpt lat="42.73642" lon="0.86876">
        <ele>2507</ele>
        <time>2010-01-01T08:12:45Z</time>
      </trkpt>
      <trkpt lat="42.7364" lon="0.86861">
        <ele>2507</ele>
        <time>2010-01-01T08:12:49Z</time>
      </trkpt>
      <trkpt lat="42.73636" lon="0.86849">
        <ele>2506</ele>
        <time>2010-01-01T08:12:53Z</time>
      </trkpt>
      <trkpt lat="42.73634" lon="0.86836">
        <ele>2507</ele>
        <time>2010-01-01T08:12:57Z</time>
      </trkpt>
      <trkpt lat="42.73631" lon="0.86823">
        <ele>2507</ele>
        <time>2010-01-01T08:13:01Z</time>
      </trkpt>
      <trkpt lat="42.73629" lon="0.8681">
        <ele>2508</ele>
        <time>2010-01-01T08:13:05Z</time>
      </trkpt>
      <trkpt lat="42.73626" lon="0.86798">
        <ele>2508</ele>
        <time>2010-01-01T08:13:09Z</time>
      </trkpt>
      <trkpt lat="42.7362" lon="0.86785">
        <ele>2508</ele>
        <time>2010-01-01T08:13:13Z</time>
      </trkpt>
      <trkpt lat="42.73615" lon="0.86774">
        <ele>2508</ele>
        <time>2010-01-01T08:13:17Z</time>
      </trkpt>
      <trkpt lat="42.73605" lon="0.86771">
        <ele>2505</ele>
        <time>2010-01-01T08:13:21Z</time>
      </trkpt>
      <trkpt lat="42.73596" lon="0.86768">
        <ele>2499</ele>
        <time>2010-01-01T08:13:25Z</time>
      </trkpt>
      <trkpt lat="42.73587" lon="0.86762">
        <ele>2496</ele>
        <time>2010-01-01T08:13:28Z</time>
      </trkpt>
      <trkpt lat="42.73581" lon="0.86754">
        <ele>2496</ele>
        <time>2010-01-01T08:13:32Z</time>
      </trkpt>
      <trkpt lat="42.73577" lon="0.86743">
        <ele>2495</ele>
        <time>2010-01-01T08:13:35Z</time>
      </trkpt>
      <trkpt lat="42.73574" lon="0.86732">
        <ele>2494</ele>
        <time>2010-01-01T08:13:39Z</time>
      </trkpt>
      <trkpt lat="42.73566" lon="0.86724">
        <ele>2493</ele>
        <time>2010-01-01T08:13:43Z</time>
      </trkpt>
      <trkpt lat="42.73559" lon="0.86719">
        <ele>2490</ele>
        <time>2010-01-01T08:13:46Z</time>
      </trkpt>
      <trkpt lat="42.73558" lon="0.86704">
        <ele>2488</ele>
        <time>2010-01-01T08:13:51Z</time>
      </trkpt>
      <trkpt lat="42.73559" lon="0.86691">
        <ele>2487</ele>
        <time>2010-01-01T08:13:55Z</time>
      </trkpt>
      <trkpt lat="42.73553" lon="0.86684">
        <ele>2484</ele>
        <time>2010-01-01T08:13:58Z</time>
      </trkpt>
      <trkpt lat="42.73548" lon="0.86674">
        <ele>2482</ele>
        <time>2010-01-01T08:14:01Z</time>
      </trkpt>
      <trkpt lat="42.7354" lon="0.86666">
        <ele>2479</ele>
        <time>2010-01-01T08:14:05Z</time>
      </trkpt>
      <trkpt lat="42.73531" lon="0.8666">
        <ele>2477</ele>
        <time>2010-01-01T08:14:09Z</time>
      </trkpt>
      <trkpt lat="42.73522" lon="0.86655">
        <ele>2474</ele>
        <time>2010-01-01T08:14:13Z</time>
      </trkpt>
      <trkpt lat="42.73514" lon="0.86647">
        <ele>2472</ele>
        <time>2010-01-01T08:14:17Z</time>
      </trkpt>
      <trkpt lat="42.73504" lon="0.86642">
        <ele>2470</ele>
        <time>2010-01-01T08:14:21Z</time>
      </trkpt>
      <trkpt lat="42.73495" lon="0.86637">
        <ele>2469</ele>
        <time>2010-01-01T08:14:25Z</time>
      </trkpt>
      <trkpt lat="42.73486" lon="0.86628">
        <ele>2468</ele>
        <time>2010-01-01T08:14:30Z</time>
      </trkpt>
      <trkpt lat="42.73479" lon="0.86618">
        <ele>2469</ele>
        <time>2010-01-01T08:14:34Z</time>
      </trkpt>
      <trkpt lat="42.73471" lon="0.86611">
        <ele>2470</ele>
        <time>2010-01-01T08:14:38Z</time>
      </trkpt>
      <trkpt lat="42.73464" lon="0.86602">
        <ele>2469</ele>
        <time>2010-01-01T08:14:41Z</time>
      </trkpt>
      <trkpt lat="42.73457" lon="0.86592">
        <ele>2469</ele>
        <time>2010-01-01T08:14:45Z</time>
      </trkpt>
      <trkpt lat="42.73449" lon="0.86587">
        <ele>2470</ele>
        <time>2010-01-01T08:14:49Z</time>
      </trkpt>
      <trkpt lat="42.7344" lon="0.86586">
        <ele>2470</ele>
        <time>2010-01-01T08:14:53Z</time>
      </trkpt>
      <trkpt lat="42.7343" lon="0.86584">
        <ele>2469</ele>
        <time>2010-01-01T08:14:57Z</time>
      </trkpt>
      <trkpt lat="42.73421" lon="0.86579">
        <ele>2468</ele>
        <time>2010-01-01T08:15:01Z</time>
      </trkpt>
      <trkpt lat="42.73411" lon="0.86575">
        <ele>2466</ele>
        <time>2010-01-01T08:15:05Z</time>
      </trkpt>
      <trkpt lat="42.73402" lon="0.8657">
        <ele>2464</ele>
        <time>2010-01-01T08:15:09Z</time>
      </trkpt>
      <trkpt lat="42.73393" lon="0.8657">
        <ele>2463</ele>
        <time>2010-01-01T08:15:12Z</time>
      </trkpt>
      <trkpt lat="42.73384" lon="0.86562">
        <ele>2463</ele>
        <time>2010-01-01T08:15:17Z</time>
      </trkpt>
      <trkpt lat="42.73376" lon="0.86556">
        <ele>2462</ele>
        <time>2010-01-01T08:15:20Z</time>
      </trkpt>
      <trkpt lat="42.73367" lon="0.86551">
        <ele>2462</ele>
        <time>2010-01-01T08:15:24Z</time>
      </trkpt>
      <trkpt lat="42.73358" lon="0.86547">
        <ele>2461</ele>
        <time>2010-01-01T08:15:28Z</time>
      </trkpt>
      <trkpt lat="42.7335" lon="0.86543">
        <ele>2459</ele>
        <time>2010-01-01T08:15:32Z</time>
      </trkpt>
      <trkpt lat="42.73342" lon="0.86537">
        <ele>2458</ele>
        <time>2010-01-01T08:15:35Z</time>
      </trkpt>
      <trkpt lat="42.73333" lon="0.86529">
        <ele>2458</ele>
        <time>2010-01-01T08:15:39Z</time>
      </trkpt>
      <trkpt lat="42.73326" lon="0.8652">
        <ele>2456</ele>
        <time>2010-01-01T08:15:43Z</time>
      </trkpt>
      <trkpt lat="42.7332" lon="0.8651">
        <ele>2454</ele>
        <time>2010-01-01T08:15:47Z</time>
      </trkpt>
      <trkpt lat="42.73314" lon="0.86501">
        <ele>2454</ele>
        <time>2010-01-01T08:15:51Z</time>
      </trkpt>
      <trkpt lat="42.73307" lon="0.86491">
        <ele>2453</ele>
        <time>2010-01-01T08:15:55Z</time>
      </trkpt>
      <trkpt lat="42.73299" lon="0.86483">
        <ele>2452</ele>
        <time>2010-01-01T08:15:59Z</time>
      </trkpt>
      <trkpt lat="42.73295" lon="0.86472">
        <ele>2453</ele>
        <time>2010-01-01T08:16:02Z</time>
      </trkpt>
      <trkpt lat="42.73288" lon="0.86466">
        <ele>2452</ele>
        <time>2010-01-01T08:16:05Z</time>
      </trkpt>
      <trkpt lat="42.7328" lon="0.86458">
        <ele>2452</ele>
        <time>2010-01-01T08:16:09Z</time>
      </trkpt>
      <trkpt lat="42.73274" lon="0.86449">
        <ele>2452</ele>
        <time>2010-01-01T08:16:13Z</time>
      </trkpt>
      <trkpt lat="42.73268" lon="0.86438">
        <ele>2450</ele>
        <time>2010-01-01T08:16:17Z</time>
      </trkpt>
      <trkpt lat="42.73259" lon="0.86432">
        <ele>2447</ele>
        <time>2010-01-01T08:16:21Z</time>
      </trkpt>
      <trkpt lat="42.73252" lon="0.86423">
        <ele>2445</ele>
        <time>2010-01-01T08:16:25Z</time>
      </trkpt>
      <trkpt lat="42.73245" lon="0.86413">
        <ele>2441</ele>
        <time>2010-01-01T08:16:29Z</time>
      </trkpt>
      <trkpt lat="42.73239" lon="0.86403">
        <ele>2437</ele>
        <time>2010-01-01T08:16:33Z</time>
      </trkpt>
      <trkpt lat="42.73235" lon="0.86391">
        <ele>2433</ele>
        <time>2010-01-01T08:16:37Z</time>
      </trkpt>
      <trkpt lat="42.7323" lon="0.86379">
        <ele>2430</ele>
        <time>2010-01-01T08:16:40Z</time>
      </trkpt>
      <trkpt lat="42.73229" lon="0.86367">
        <ele>2427</ele>
        <time>2010-01-01T08:16:44Z</time>
      </trkpt>
      <trkpt lat="42.73228" lon="0.86354">
        <ele>2425</ele>
        <time>2010-01-01T08:16:48Z</time>
      </trkpt>
      <trkpt lat="42.73227" lon="0.86342">
        <ele>2422</ele>
        <time>2010-01-01T08:16:52Z</time>
      </trkpt>
      <trkpt lat="42.73222" lon="0.8633">
        <ele>2420</ele>
        <time>2010-01-01T08:16:55Z</time>
      </trkpt>
      <trkpt lat="42.73218" lon="0.86318">
        <ele>2418</ele>
        <time>2010-01-01T08:16:59Z</time>
      </trkpt>
      <trkpt lat="42.73215" lon="0.86306">
        <ele>2416</ele>
        <time>2010-01-01T08:17:03Z</time>
      </trkpt>
      <trkpt lat="42.73213" lon="0.86293">
        <ele>2412</ele>
        <time>2010-01-01T08:17:07Z</time>
      </trkpt>
      <trkpt lat="42.73208" lon="0.86282">
        <ele>2408</ele>
        <time>2010-01-01T08:17:11Z</time>
      </trkpt>
      <trkpt lat="42.73201" lon="0.86272">
        <ele>2405</ele>
        <time>2010-01-01T08:17:15Z</time>
      </trkpt>
      <trkpt lat="42.73195" lon="0.86261">
        <ele>2401</ele>
        <time>2010-01-01T08:17:19Z</time>
      </trkpt>
      <trkpt lat="42.73191" lon="0.86249">
        <ele>2396</ele>
        <time>2010-01-01T08:17:23Z</time>
      </trkpt>
      <trkpt lat="42.73186" lon="0.86237">
        <ele>2390</ele>
        <time>2010-01-01T08:17:27Z</time>
      </trkpt>
      <trkpt lat="42.73181" lon="0.86226">
        <ele>2384</ele>
        <time>2010-01-01T08:17:31Z</time>
      </trkpt>
      <trkpt lat="42.73174" lon="0.86217">
        <ele>2381</ele>
        <time>2010-01-01T08:17:35Z</time>
      </trkpt>
      <trkpt lat="42.73169" lon="0.86206">
        <ele>2380</ele>
        <time>2010-01-01T08:17:38Z</time>
      </trkpt>
      <trkpt lat="42.73166" lon="0.86194">
        <ele>2379</ele>
        <time>2010-01-01T08:17:42Z</time>
      </trkpt>
      <trkpt lat="42.73163" lon="0.86182">
        <ele>2380</ele>
        <time>2010-01-01T08:17:46Z</time>
      </trkpt>
      <trkpt lat="42.73158" lon="0.86171">
        <ele>2379</ele>
        <time>2010-01-01T08:17:50Z</time>
      </trkpt>
      <trkpt lat="42.73155" lon="0.86161">
        <ele>2378</ele>
        <time>2010-01-01T08:17:53Z</time>
      </trkpt>
      <trkpt lat="42.73148" lon="0.86152">
        <ele>2374</ele>
        <time>2010-01-01T08:17:57Z</time>
      </trkpt>
      <trkpt lat="42.73145" lon="0.86139">
        <ele>2373</ele>
        <time>2010-01-01T08:18:00Z</time>
      </trkpt>
      <trkpt lat="42.73139" lon="0.86128">
        <ele>2371</ele>
        <time>2010-01-01T08:18:05Z</time>
      </trkpt>
      <trkpt lat="42.73131" lon="0.86119">
        <ele>2367</ele>
        <time>2010-01-01T08:18:09Z</time>
      </trkpt>
      <trkpt lat="42.73126" lon="0.86109">
        <ele>2365</ele>
        <time>2010-01-01T08:18:12Z</time>
      </trkpt>
      <trkpt lat="42.73119" lon="0.86099">
        <ele>2363</ele>
        <time>2010-01-01T08:18:16Z</time>
      </trkpt>
      <trkpt lat="42.73113" lon="0.86091">
        <ele>2361</ele>
        <time>2010-01-01T08:18:20Z</time>
      </trkpt>
      <trkpt lat="42.73105" lon="0.86083">
        <ele>2360</ele>
        <time>2010-01-01T08:18:24Z</time>
      </trkpt>
      <trkpt lat="42.73099" lon="0.86074">
        <ele>2356</ele>
        <time>2010-01-01T08:18:27Z</time>
      </trkpt>
      <trkpt lat="42.73093" lon="0.86064">
        <ele>2353</ele>
        <time>2010-01-01T08:18:31Z</time>
      </trkpt>
      <trkpt lat="42.73086" lon="0.86054">
        <ele>2352</ele>
        <time>2010-01-01T08:18:35Z</time>
      </trkpt>
      <trkpt lat="42.7308" lon="0.86045">
        <ele>2349</ele>
        <time>2010-01-01T08:18:39Z</time>
      </trkpt>
      <trkpt lat="42.73075" lon="0.86033">
        <ele>2345</ele>
        <time>2010-01-01T08:18:43Z</time>
      </trkpt>
      <trkpt lat="42.73071" lon="0.86022">
        <ele>2342</ele>
        <time>2010-01-01T08:18:46Z</time>
      </trkpt>
      <trkpt lat="42.73065" lon="0.86011">
        <ele>2340</ele>
        <time>2010-01-01T08:18:50Z</time>
      </trkpt>
      <trkpt lat="42.7306" lon="0.85999">
        <ele>2339</ele>
        <time>2010-01-01T08:18:54Z</time>
      </trkpt>
      <trkpt lat="42.73055" lon="0.85987">
        <ele>2337</ele>
        <time>2010-01-01T08:18:58Z</time>
      </trkpt>
      <trkpt lat="42.73051" lon="0.85976">
        <ele>2334</ele>
        <time>2010-01-01T08:19:02Z</time>
      </trkpt>
      <trkpt lat="42.73047" lon="0.85963">
        <ele>2332</ele>
        <time>2010-01-01T08:19:06Z</time>
      </trkpt>
      <trkpt lat="42.73042" lon="0.85954">
        <ele>2330</ele>
        <time>2010-01-01T08:19:10Z</time>
      </trkpt>
      <trkpt lat="42.73036" lon="0.85945">
        <ele>2329</ele>
        <time>2010-01-01T08:19:13Z</time>
      </trkpt>
      <trkpt lat="42.73028" lon="0.85938">
        <ele>2328</ele>
        <time>2010-01-01T08:19:17Z</time>
      </trkpt>
      <trkpt lat="42.7302" lon="0.85928">
        <ele>2328</ele>
        <time>2010-01-01T08:19:21Z</time>
      </trkpt>
      <trkpt lat="42.73014" lon="0.8592">
        <ele>2328</ele>
        <time>2010-01-01T08:19:25Z</time>
      </trkpt>
      <trkpt lat="42.73006" lon="0.85913">
        <ele>2327</ele>
        <time>2010-01-01T08:19:28Z</time>
      </trkpt>
      <trkpt lat="42.72998" lon="0.85904">
        <ele>2325</ele>
        <time>2010-01-01T08:19:32Z</time>
      </trkpt>
      <trkpt lat="42.72991" lon="0.85895">
        <ele>2323</ele>
        <time>2010-01-01T08:19:36Z</time>
      </trkpt>
      <trkpt lat="42.72984" lon="0.85887">
        <ele>2321</ele>
        <time>2010-01-01T08:19:40Z</time>
      </trkpt>
      <trkpt lat="42.72975" lon="0.85883">
        <ele>2319</ele>
        <time>2010-01-01T08:19:44Z</time>
      </trkpt>
      <trkpt lat="42.72968" lon="0.85876">
        <ele>2317</ele>
        <time>2010-01-01T08:19:47Z</time>
      </trkpt>
      <trkpt lat="42.72961" lon="0.85868">
        <ele>2315</ele>
        <time>2010-01-01T08:19:51Z</time>
      </trkpt>
      <trkpt lat="42.72952" lon="0.85865">
        <ele>2313</ele>
        <time>2010-01-01T08:19:55Z</time>
      </trkpt>
      <trkpt lat="42.72946" lon="0.85873">
        <ele>2312</ele>
        <time>2010-01-01T08:19:58Z</time>
      </trkpt>
      <trkpt lat="42.72945" lon="0.85885">
        <ele>2311</ele>
        <time>2010-01-01T08:20:02Z</time>
      </trkpt>
      <trkpt lat="42.72941" lon="0.85896">
        <ele>2307</ele>
        <time>2010-01-01T08:20:05Z</time>
      </trkpt>
      <trkpt lat="42.72937" lon="0.85907">
        <ele>2302</ele>
        <time>2010-01-01T08:20:09Z</time>
      </trkpt>
      <trkpt lat="42.72929" lon="0.85917">
        <ele>2296</ele>
        <time>2010-01-01T08:20:13Z</time>
      </trkpt>
      <trkpt lat="42.72922" lon="0.85922">
        <ele>2291</ele>
        <time>2010-01-01T08:20:16Z</time>
      </trkpt>
      <trkpt lat="42.72914" lon="0.85931">
        <ele>2285</ele>
        <time>2010-01-01T08:20:20Z</time>
      </trkpt>
      <trkpt lat="42.72906" lon="0.85935">
        <ele>2279</ele>
        <time>2010-01-01T08:20:24Z</time>
      </trkpt>
      <trkpt lat="42.729" lon="0.85941">
        <ele>2274</ele>
        <time>2010-01-01T08:20:27Z</time>
      </trkpt>
      <trkpt lat="42.72892" lon="0.85949">
        <ele>2268</ele>
        <time>2010-01-01T08:20:31Z</time>
      </trkpt>
      <trkpt lat="42.72884" lon="0.85955">
        <ele>2263</ele>
        <time>2010-01-01T08:20:34Z</time>
      </trkpt>
      <trkpt lat="42.72877" lon="0.85963">
        <ele>2259</ele>
        <time>2010-01-01T08:20:38Z</time>
      </trkpt>
      <trkpt lat="42.7287" lon="0.85974">
        <ele>2256</ele>
        <time>2010-01-01T08:20:42Z</time>
      </trkpt>
      <trkpt lat="42.72863" lon="0.85984">
        <ele>2252</ele>
        <time>2010-01-01T08:20:46Z</time>
      </trkpt>
      <trkpt lat="42.72859" lon="0.85996">
        <ele>2250</ele>
        <time>2010-01-01T08:20:50Z</time>
      </trkpt>
      <trkpt lat="42.72857" lon="0.8601">
        <ele>2247</ele>
        <time>2010-01-01T08:20:54Z</time>
      </trkpt>
      <trkpt lat="42.72855" lon="0.86024">
        <ele>2245</ele>
        <time>2010-01-01T08:20:59Z</time>
      </trkpt>
      <trkpt lat="42.72854" lon="0.86039">
        <ele>2243</ele>
        <time>2010-01-01T08:21:03Z</time>
      </trkpt>
      <trkpt lat="42.72852" lon="0.86051">
        <ele>2240</ele>
        <time>2010-01-01T08:21:07Z</time>
      </trkpt>
      <trkpt lat="42.72849" lon="0.86065">
        <ele>2238</ele>
        <time>2010-01-01T08:21:11Z</time>
      </trkpt>
      <trkpt lat="42.72848" lon="0.86078">
        <ele>2237</ele>
        <time>2010-01-01T08:21:15Z</time>
      </trkpt>
      <trkpt lat="42.72847" lon="0.86092">
        <ele>2236</ele>
        <time>2010-01-01T08:21:19Z</time>
      </trkpt>
      <trkpt lat="42.72847" lon="0.86107">
        <ele>2235</ele>
        <time>2010-01-01T08:21:23Z</time>
      </trkpt>
      <trkpt lat="42.72848" lon="0.86121">
        <ele>2235</ele>
        <time>2010-01-01T08:21:27Z</time>
      </trkpt>
      <trkpt lat="42.72845" lon="0.86133">
        <ele>2235</ele>
        <time>2010-01-01T08:21:31Z</time>
      </trkpt>
      <trkpt lat="42.72844" lon="0.86146">
        <ele>2236</ele>
        <time>2010-01-01T08:21:35Z</time>
      </trkpt>
      <trkpt lat="42.72842" lon="0.86158">
        <ele>2236</ele>
        <time>2010-01-01T08:21:39Z</time>
      </trkpt>
      <trkpt lat="42.72841" lon="0.86172">
        <ele>2236</ele>
        <time>2010-01-01T08:21:43Z</time>
      </trkpt>
      <trkpt lat="42.7284" lon="0.86184">
        <ele>2236</ele>
        <time>2010-01-01T08:21:46Z</time>
      </trkpt>
      <trkpt lat="42.72841" lon="0.86197">
        <ele>2235</ele>
        <time>2010-01-01T08:21:50Z</time>
      </trkpt>
      <trkpt lat="42.72845" lon="0.8621">
        <ele>2235</ele>
        <time>2010-01-01T08:21:54Z</time>
      </trkpt>
      <trkpt lat="42.72846" lon="0.86223">
        <ele>2234</ele>
        <time>2010-01-01T08:21:58Z</time>
      </trkpt>
      <trkpt lat="42.72847" lon="0.86235">
        <ele>2234</ele>
        <time>2010-01-01T08:22:02Z</time>
      </trkpt>
      <trkpt lat="42.72848" lon="0.86249">
        <ele>2234</ele>
        <time>2010-01-01T08:22:06Z</time>
      </trkpt>
      <trkpt lat="42.72848" lon="0.86262">
        <ele>2235</ele>
        <time>2010-01-01T08:22:10Z</time>
      </trkpt>
      <trkpt lat="42.7285" lon="0.86276">
        <ele>2236</ele>
        <time>2010-01-01T08:22:14Z</time>
      </trkpt>
      <trkpt lat="42.72854" lon="0.86291">
        <ele>2237</ele>
        <time>2010-01-01T08:22:19Z</time>
      </trkpt>
      <trkpt lat="42.72859" lon="0.86305">
        <ele>2238</ele>
        <time>2010-01-01T08:22:23Z</time>
      </trkpt>
      <trkpt lat="42.72854" lon="0.86318">
        <ele>2236</ele>
        <time>2010-01-01T08:22:27Z</time>
      </trkpt>
      <trkpt lat="42.72854" lon="0.86331">
        <ele>2235</ele>
        <time>2010-01-01T08:22:31Z</time>
      </trkpt>
      <trkpt lat="42.72852" lon="0.86345">
        <ele>2236</ele>
        <time>2010-01-01T08:22:35Z</time>
      </trkpt>
      <trkpt lat="42.72847" lon="0.86358">
        <ele>2235</ele>
        <time>2010-01-01T08:22:39Z</time>
      </trkpt>
      <trkpt lat="42.72842" lon="0.8637">
        <ele>2234</ele>
        <time>2010-01-01T08:22:44Z</time>
      </trkpt>
      <trkpt lat="42.72839" lon="0.86383">
        <ele>2235</ele>
        <time>2010-01-01T08:22:48Z</time>
      </trkpt>
      <trkpt lat="42.72834" lon="0.86395">
        <ele>2235</ele>
        <time>2010-01-01T08:22:52Z</time>
      </trkpt>
      <trkpt lat="42.72827" lon="0.86406">
        <ele>2235</ele>
        <time>2010-01-01T08:22:56Z</time>
      </trkpt>
      <trkpt lat="42.72821" lon="0.86417">
        <ele>2234</ele>
        <time>2010-01-01T08:23:00Z</time>
      </trkpt>
      <trkpt lat="42.72816" lon="0.86429">
        <ele>2234</ele>
        <time>2010-01-01T08:23:04Z</time>
      </trkpt>
      <trkpt lat="42.72812" lon="0.8644">
        <ele>2233</ele>
        <time>2010-01-01T08:23:08Z</time>
      </trkpt>
      <trkpt lat="42.72808" lon="0.86454">
        <ele>2234</ele>
        <time>2010-01-01T08:23:12Z</time>
      </trkpt>
      <trkpt lat="42.72806" lon="0.86468">
        <ele>2235</ele>
        <time>2010-01-01T08:23:16Z</time>
      </trkpt>
      <trkpt lat="42.72801" lon="0.86481">
        <ele>2236</ele>
        <time>2010-01-01T08:23:20Z</time>
      </trkpt>
      <trkpt lat="42.72796" lon="0.86491">
        <ele>2237</ele>
        <time>2010-01-01T08:23:24Z</time>
      </trkpt>
      <trkpt lat="42.72789" lon="0.865">
        <ele>2237</ele>
        <time>2010-01-01T08:23:28Z</time>
      </trkpt>
      <trkpt lat="42.72782" lon="0.86511">
        <ele>2237</ele>
        <time>2010-01-01T08:23:32Z</time>
      </trkpt>
      <trkpt lat="42.72776" lon="0.86522">
        <ele>2238</ele>
        <time>2010-01-01T08:23:36Z</time>
      </trkpt>
      <trkpt lat="42.7277" lon="0.86531">
        <ele>2237</ele>
        <time>2010-01-01T08:23:40Z</time>
      </trkpt>
      <trkpt lat="42.72763" lon="0.86541">
        <ele>2236</ele>
        <time>2010-01-01T08:23:44Z</time>
      </trkpt>
      <trkpt lat="42.72757" lon="0.86553">
        <ele>2236</ele>
        <time>2010-01-01T08:23:48Z</time>
      </trkpt>
      <trkpt lat="42.72753" lon="0.86565">
        <ele>2237</ele>
        <time>2010-01-01T08:23:52Z</time>
      </trkpt>
      <trkpt lat="42.72746" lon="0.86576">
        <ele>2237</ele>
        <time>2010-01-01T08:23:56Z</time>
      </trkpt>
      <trkpt lat="42.72742" lon="0.86587">
        <ele>2238</ele>
        <time>2010-01-01T08:24:00Z</time>
      </trkpt>
      <trkpt lat="42.72736" lon="0.86598">
        <ele>2239</ele>
        <time>2010-01-01T08:24:04Z</time>
      </trkpt>
      <trkpt lat="42.72731" lon="0.86608">
        <ele>2239</ele>
        <time>2010-01-01T08:24:08Z</time>
      </trkpt>
      <trkpt lat="42.72726" lon="0.86621">
        <ele>2240</ele>
        <time>2010-01-01T08:24:11Z</time>
      </trkpt>
      <trkpt lat="42.7272" lon="0.86631">
        <ele>2240</ele>
        <time>2010-01-01T08:24:15Z</time>
      </trkpt>
      <trkpt lat="42.72714" lon="0.86642">
        <ele>2240</ele>
        <time>2010-01-01T08:24:19Z</time>
      </trkpt>
      <trkpt lat="42.72707" lon="0.86651">
        <ele>2240</ele>
        <time>2010-01-01T08:24:23Z</time>
      </trkpt>
      <trkpt lat="42.72702" lon="0.86664">
        <ele>2242</ele>
        <time>2010-01-01T08:24:28Z</time>
      </trkpt>
      <trkpt lat="42.72697" lon="0.86675">
        <ele>2242</ele>
        <time>2010-01-01T08:24:31Z</time>
      </trkpt>
      <trkpt lat="42.72692" lon="0.86687">
        <ele>2244</ele>
        <time>2010-01-01T08:24:36Z</time>
      </trkpt>
      <trkpt lat="42.72686" lon="0.86697">
        <ele>2244</ele>
        <time>2010-01-01T08:24:39Z</time>
      </trkpt>
      <trkpt lat="42.72679" lon="0.86705">
        <ele>2243</ele>
        <time>2010-01-01T08:24:43Z</time>
      </trkpt>
      <trkpt lat="42.72673" lon="0.86715">
        <ele>2243</ele>
        <time>2010-01-01T08:24:47Z</time>
      </trkpt>
      <trkpt lat="42.72668" lon="0.86726">
        <ele>2244</ele>
        <time>2010-01-01T08:24:51Z</time>
      </trkpt>
      <trkpt lat="42.72663" lon="0.86737">
        <ele>2242</ele>
        <time>2010-01-01T08:24:54Z</time>
      </trkpt>
      <trkpt lat="42.72659" lon="0.86747">
        <ele>2241</ele>
        <time>2010-01-01T08:24:58Z</time>
      </trkpt>
      <trkpt lat="42.72655" lon="0.86759">
        <ele>2240</ele>
        <time>2010-01-01T08:25:02Z</time>
      </trkpt>
      <trkpt lat="42.72651" lon="0.86772">
        <ele>2239</ele>
        <time>2010-01-01T08:25:06Z</time>
      </trkpt>
      <trkpt lat="42.72647" lon="0.86784">
        <ele>2239</ele>
        <time>2010-01-01T08:25:10Z</time>
      </trkpt>
      <trkpt lat="42.72645" lon="0.86797">
        <ele>2238</ele>
        <time>2010-01-01T08:25:14Z</time>
      </trkpt>
      <trkpt lat="42.72644" lon="0.8681">
        <ele>2239</ele>
        <time>2010-01-01T08:25:18Z</time>
      </trkpt>
      <trkpt lat="42.72644" lon="0.86823">
        <ele>2240</ele>
        <time>2010-01-01T08:25:21Z</time>
      </trkpt>
      <trkpt lat="42.72643" lon="0.86836">
        <ele>2241</ele>
        <time>2010-01-01T08:25:25Z</time>
      </trkpt>
      <trkpt lat="42.72644" lon="0.86848">
        <ele>2241</ele>
        <time>2010-01-01T08:25:29Z</time>
      </trkpt>
      <trkpt lat="42.72643" lon="0.8686">
        <ele>2241</ele>
        <time>2010-01-01T08:25:32Z</time>
      </trkpt>
      <trkpt lat="42.72638" lon="0.86871">
        <ele>2240</ele>
        <time>2010-01-01T08:25:36Z</time>
      </trkpt>
      <trkpt lat="42.72633" lon="0.86882">
        <ele>2239</ele>
        <time>2010-01-01T08:25:40Z</time>
      </trkpt>
      <trkpt lat="42.72625" lon="0.86889">
        <ele>2238</ele>
        <time>2010-01-01T08:25:44Z</time>
      </trkpt>
      <trkpt lat="42.72617" lon="0.86897">
        <ele>2237</ele>
        <time>2010-01-01T08:25:48Z</time>
      </trkpt>
      <trkpt lat="42.7261" lon="0.86907">
        <ele>2236</ele>
        <time>2010-01-01T08:25:51Z</time>
      </trkpt>
      <trkpt lat="42.72603" lon="0.86917">
        <ele>2234</ele>
        <time>2010-01-01T08:25:56Z</time>
      </trkpt>
      <trkpt lat="42.72596" lon="0.86926">
        <ele>2232</ele>
        <time>2010-01-01T08:26:00Z</time>
      </trkpt>
      <trkpt lat="42.7259" lon="0.86936">
        <ele>2230</ele>
        <time>2010-01-01T08:26:03Z</time>
      </trkpt>
      <trkpt lat="42.72582" lon="0.86945">
        <ele>2228</ele>
        <time>2010-01-01T08:26:07Z</time>
      </trkpt>
      <trkpt lat="42.72576" lon="0.86956">
        <ele>2226</ele>
        <time>2010-01-01T08:26:12Z</time>
      </trkpt>
      <trkpt lat="42.72569" lon="0.86966">
        <ele>2223</ele>
        <time>2010-01-01T08:26:16Z</time>
      </trkpt>
      <trkpt lat="42.72563" lon="0.86978">
        <ele>2221</ele>
        <time>2010-01-01T08:26:20Z</time>
      </trkpt>
      <trkpt lat="42.72557" lon="0.86986">
        <ele>2219</ele>
        <time>2010-01-01T08:26:23Z</time>
      </trkpt>
      <trkpt lat="42.72549" lon="0.86995">
        <ele>2217</ele>
        <time>2010-01-01T08:26:27Z</time>
      </trkpt>
      <trkpt lat="42.72542" lon="0.87004">
        <ele>2216</ele>
        <time>2010-01-01T08:26:31Z</time>
      </trkpt>
      <trkpt lat="42.72534" lon="0.8701">
        <ele>2215</ele>
        <time>2010-01-01T08:26:35Z</time>
      </trkpt>
      <trkpt lat="42.72526" lon="0.87018">
        <ele>2214</ele>
        <time>2010-01-01T08:26:39Z</time>
      </trkpt>
      <trkpt lat="42.72521" lon="0.87028">
        <ele>2212</ele>
        <time>2010-01-01T08:26:42Z</time>
      </trkpt>
      <trkpt lat="42.72517" lon="0.8704">
        <ele>2209</ele>
        <time>2010-01-01T08:26:46Z</time>
      </trkpt>
      <trkpt lat="42.72512" lon="0.87052">
        <ele>2206</ele>
        <time>2010-01-01T08:26:50Z</time>
      </trkpt>
      <trkpt lat="42.72508" lon="0.87063">
        <ele>2205</ele>
        <time>2010-01-01T08:26:54Z</time>
      </trkpt>
      <trkpt lat="42.72506" lon="0.87075">
        <ele>2203</ele>
        <time>2010-01-01T08:26:58Z</time>
      </trkpt>
      <trkpt lat="42.72506" lon="0.8709">
        <ele>2201</ele>
        <time>2010-01-01T08:27:02Z</time>
      </trkpt>
      <trkpt lat="42.72504" lon="0.87101">
        <ele>2200</ele>
        <time>2010-01-01T08:27:05Z</time>
      </trkpt>
      <trkpt lat="42.72501" lon="0.87114">
        <ele>2198</ele>
        <time>2010-01-01T08:27:09Z</time>
      </trkpt>
      <trkpt lat="42.72498" lon="0.87125">
        <ele>2195</ele>
        <time>2010-01-01T08:27:13Z</time>
      </trkpt>
      <trkpt lat="42.72495" lon="0.87138">
        <ele>2191</ele>
        <time>2010-01-01T08:27:17Z</time>
      </trkpt>
      <trkpt lat="42.72493" lon="0.8715">
        <ele>2188</ele>
        <time>2010-01-01T08:27:20Z</time>
      </trkpt>
      <trkpt lat="42.72489" lon="0.87162">
        <ele>2185</ele>
        <time>2010-01-01T08:27:24Z</time>
      </trkpt>
      <trkpt lat="42.72486" lon="0.87175">
        <ele>2183</ele>
        <time>2010-01-01T08:27:28Z</time>
      </trkpt>
      <trkpt lat="42.72482" lon="0.87188">
        <ele>2181</ele>
        <time>2010-01-01T08:27:32Z</time>
      </trkpt>
      <trkpt lat="42.72475" lon="0.87198">
        <ele>2178</ele>
        <time>2010-01-01T08:27:36Z</time>
      </trkpt>
      <trkpt lat="42.72469" lon="0.8721">
        <ele>2176</ele>
        <time>2010-01-01T08:27:41Z</time>
      </trkpt>
      <trkpt lat="42.72463" lon="0.8722">
        <ele>2174</ele>
        <time>2010-01-01T08:27:45Z</time>
      </trkpt>
      <trkpt lat="42.72455" lon="0.87228">
        <ele>2172</ele>
        <time>2010-01-01T08:27:49Z</time>
      </trkpt>
      <trkpt lat="42.72446" lon="0.87235">
        <ele>2170</ele>
        <time>2010-01-01T08:27:53Z</time>
      </trkpt>
      <trkpt lat="42.72441" lon="0.87247">
        <ele>2167</ele>
        <time>2010-01-01T08:27:57Z</time>
      </trkpt>
      <trkpt lat="42.72433" lon="0.87253">
        <ele>2167</ele>
        <time>2010-01-01T08:28:00Z</time>
      </trkpt>
      <trkpt lat="42.72426" lon="0.87262">
        <ele>2165</ele>
        <time>2010-01-01T08:28:04Z</time>
      </trkpt>
      <trkpt lat="42.72422" lon="0.87275">
        <ele>2162</ele>
        <time>2010-01-01T08:28:08Z</time>
      </trkpt>
      <trkpt lat="42.72417" lon="0.87286">
        <ele>2159</ele>
        <time>2010-01-01T08:28:12Z</time>
      </trkpt>
      <trkpt lat="42.72413" lon="0.87298">
        <ele>2157</ele>
        <time>2010-01-01T08:28:16Z</time>
      </trkpt>
      <trkpt lat="42.72409" lon="0.87311">
        <ele>2154</ele>
        <time>2010-01-01T08:28:20Z</time>
      </trkpt>
      <trkpt lat="42.72406" lon="0.87324">
        <ele>2152</ele>
        <time>2010-01-01T08:28:24Z</time>
      </trkpt>
      <trkpt lat="42.72405" lon="0.87337">
        <ele>2149</ele>
        <time>2010-01-01T08:28:28Z</time>
      </trkpt>
      <trkpt lat="42.72403" lon="0.87349">
        <ele>2147</ele>
        <time>2010-01-01T08:28:32Z</time>
      </trkpt>
      <trkpt lat="42.72398" lon="0.87361">
        <ele>2145</ele>
        <time>2010-01-01T08:28:36Z</time>
      </trkpt>
      <trkpt lat="42.72393" lon="0.87373">
        <ele>2142</ele>
        <time>2010-01-01T08:28:40Z</time>
      </trkpt>
      <trkpt lat="42.72391" lon="0.87387">
        <ele>2139</ele>
        <time>2010-01-01T08:28:44Z</time>
      </trkpt>
      <trkpt lat="42.72389" lon="0.87399">
        <ele>2137</ele>
        <time>2010-01-01T08:28:48Z</time>
      </trkpt>
      <trkpt lat="42.72386" lon="0.87412">
        <ele>2135</ele>
        <time>2010-01-01T08:28:51Z</time>
      </trkpt>
      <trkpt lat="42.72383" lon="0.87425">
        <ele>2133</ele>
        <time>2010-01-01T08:28:55Z</time>
      </trkpt>
      <trkpt lat="42.7238" lon="0.87436">
        <ele>2131</ele>
        <time>2010-01-01T08:28:59Z</time>
      </trkpt>
      <trkpt lat="42.72382" lon="0.87448">
        <ele>2128</ele>
        <time>2010-01-01T08:29:03Z</time>
      </trkpt>
      <trkpt lat="42.72383" lon="0.87461">
        <ele>2124</ele>
        <time>2010-01-01T08:29:06Z</time>
      </trkpt>
      <trkpt lat="42.72386" lon="0.87473">
        <ele>2119</ele>
        <time>2010-01-01T08:29:10Z</time>
      </trkpt>
      <trkpt lat="42.72386" lon="0.87486">
        <ele>2115</ele>
        <time>2010-01-01T08:29:14Z</time>
      </trkpt>
      <trkpt lat="42.72386" lon="0.875">
        <ele>2110</ele>
        <time>2010-01-01T08:29:18Z</time>
      </trkpt>
      <trkpt lat="42.72388" lon="0.87514">
        <ele>2105</ele>
        <time>2010-01-01T08:29:22Z</time>
      </trkpt>
      <trkpt lat="42.72389" lon="0.87529">
        <ele>2099</ele>
        <time>2010-01-01T08:29:27Z</time>
      </trkpt>
      <trkpt lat="42.72389" lon="0.87543">
        <ele>2095</ele>
        <time>2010-01-01T08:29:31Z</time>
      </trkpt>
      <trkpt lat="42.72391" lon="0.87556">
        <ele>2092</ele>
        <time>2010-01-01T08:29:35Z</time>
      </trkpt>
      <trkpt lat="42.72395" lon="0.87569">
        <ele>2089</ele>
        <time>2010-01-01T08:29:39Z</time>
      </trkpt>
      <trkpt lat="42.72397" lon="0.87582">
        <ele>2087</ele>
        <time>2010-01-01T08:29:43Z</time>
      </trkpt>
      <trkpt lat="42.72396" lon="0.87595">
        <ele>2085</ele>
        <time>2010-01-01T08:29:47Z</time>
      </trkpt>
      <trkpt lat="42.72396" lon="0.87609">
        <ele>2082</ele>
        <time>2010-01-01T08:29:51Z</time>
      </trkpt>
      <trkpt lat="42.72395" lon="0.87623">
        <ele>2080</ele>
        <time>2010-01-01T08:29:55Z</time>
      </trkpt>
      <trkpt lat="42.7239" lon="0.87636">
        <ele>2078</ele>
        <time>2010-01-01T08:29:59Z</time>
      </trkpt>
      <trkpt lat="42.72385" lon="0.87648">
        <ele>2076</ele>
        <time>2010-01-01T08:30:03Z</time>
      </trkpt>
      <trkpt lat="42.72382" lon="0.87662">
        <ele>2073</ele>
        <time>2010-01-01T08:30:08Z</time>
      </trkpt>
      <trkpt lat="42.72379" lon="0.87675">
        <ele>2071</ele>
        <time>2010-01-01T08:30:12Z</time>
      </trkpt>
      <trkpt lat="42.72374" lon="0.87687">
        <ele>2069</ele>
        <time>2010-01-01T08:30:16Z</time>
      </trkpt>
      <trkpt lat="42.72369" lon="0.87699">
        <ele>2067</ele>
        <time>2010-01-01T08:30:20Z</time>
      </trkpt>
      <trkpt lat="42.72368" lon="0.87711">
        <ele>2064</ele>
        <time>2010-01-01T08:30:23Z</time>
      </trkpt>
      <trkpt lat="42.72366" lon="0.87726">
        <ele>2062</ele>
        <time>2010-01-01T08:30:28Z</time>
      </trkpt>
      <trkpt lat="42.72366" lon="0.87739">
        <ele>2059</ele>
        <time>2010-01-01T08:30:32Z</time>
      </trkpt>
      <trkpt lat="42.72365" lon="0.87753">
        <ele>2057</ele>
        <time>2010-01-01T08:30:36Z</time>
      </trkpt>
      <trkpt lat="42.72364" lon="0.87767">
        <ele>2052</ele>
        <time>2010-01-01T08:30:40Z</time>
      </trkpt>
      <trkpt lat="42.72362" lon="0.87781">
        <ele>2048</ele>
        <time>2010-01-01T08:30:44Z</time>
      </trkpt>
      <trkpt lat="42.7236" lon="0.87795">
        <ele>2045</ele>
        <time>2010-01-01T08:30:48Z</time>
      </trkpt>
      <trkpt lat="42.72358" lon="0.87808">
        <ele>2042</ele>
        <time>2010-01-01T08:30:52Z</time>
      </trkpt>
      <trkpt lat="42.72359" lon="0.87821">
        <ele>2038</ele>
        <time>2010-01-01T08:30:56Z</time>
      </trkpt>
      <trkpt lat="42.72356" lon="0.87835">
        <ele>2037</ele>
        <time>2010-01-01T08:31:00Z</time>
      </trkpt>
      <trkpt lat="42.72356" lon="0.87848">
        <ele>2034</ele>
        <time>2010-01-01T08:31:04Z</time>
      </trkpt>
      <trkpt lat="42.72361" lon="0.87858">
        <ele>2030</ele>
        <time>2010-01-01T08:31:08Z</time>
      </trkpt>
      <trkpt lat="42.72365" lon="0.8787">
        <ele>2026</ele>
        <time>2010-01-01T08:31:11Z</time>
      </trkpt>
      <trkpt lat="42.72366" lon="0.87883">
        <ele>2023</ele>
        <time>2010-01-01T08:31:15Z</time>
      </trkpt>
      <trkpt lat="42.7237" lon="0.87895">
        <ele>2019</ele>
        <time>2010-01-01T08:31:19Z</time>
      </trkpt>
      <trkpt lat="42.72373" lon="0.87907">
        <ele>2014</ele>
        <time>2010-01-01T08:31:23Z</time>
      </trkpt>
      <trkpt lat="42.72377" lon="0.87917">
        <ele>2010</ele>
        <time>2010-01-01T08:31:26Z</time>
      </trkpt>
      <trkpt lat="42.72381" lon="0.87929">
        <ele>2005</ele>
        <time>2010-01-01T08:31:30Z</time>
      </trkpt>
      <trkpt lat="42.72383" lon="0.87942">
        <ele>2000</ele>
        <time>2010-01-01T08:31:34Z</time>
      </trkpt>
      <trkpt lat="42.72386" lon="0.87955">
        <ele>1995</ele>
        <time>2010-01-01T08:31:38Z</time>
      </trkpt>
      <trkpt lat="42.72384" lon="0.87966">
        <ele>1992</ele>
        <time>2010-01-01T08:31:41Z</time>
      </trkpt>
      <trkpt lat="42.72381" lon="0.87979">
        <ele>1989</ele>
        <time>2010-01-01T08:31:45Z</time>
      </trkpt>
      <trkpt lat="42.72386" lon="0.87991">
        <ele>1985</ele>
        <time>2010-01-01T08:31:49Z</time>
      </trkpt>
      <trkpt lat="42.72379" lon="0.88">
        <ele>1983</ele>
        <time>2010-01-01T08:31:53Z</time>
      </trkpt>
      <trkpt lat="42.72375" lon="0.8801">
        <ele>1980</ele>
        <time>2010-01-01T08:31:56Z</time>
      </trkpt>
      <trkpt lat="42.72381" lon="0.8802">
        <ele>1976</ele>
        <time>2010-01-01T08:32:00Z</time>
      </trkpt>
      <trkpt lat="42.72389" lon="0.88027">
        <ele>1973</ele>
        <time>2010-01-01T08:32:04Z</time>
      </trkpt>
      <trkpt lat="42.72388" lon="0.88038">
        <ele>1969</ele>
        <time>2010-01-01T08:32:07Z</time>
      </trkpt>
      <trkpt lat="42.7238" lon="0.88049">
        <ele>1965</ele>
        <time>2010-01-01T08:32:11Z</time>
      </trkpt>
      <trkpt lat="42.72373" lon="0.88058">
        <ele>1962</ele>
        <time>2010-01-01T08:32:15Z</time>
      </trkpt>
      <trkpt lat="42.72365" lon="0.88065">
        <ele>1959</ele>
        <time>2010-01-01T08:32:19Z</time>
      </trkpt>
      <trkpt lat="42.72356" lon="0.88073">
        <ele>1958</ele>
        <time>2010-01-01T08:32:23Z</time>
      </trkpt>
      <trkpt lat="42.72347" lon="0.88076">
        <ele>1959</ele>
        <time>2010-01-01T08:32:27Z</time>
      </trkpt>
      <trkpt lat="42.72341" lon="0.88086">
        <ele>1958</ele>
        <time>2010-01-01T08:32:31Z</time>
      </trkpt>
      <trkpt lat="42.72339" lon="0.88098">
        <ele>1955</ele>
        <time>2010-01-01T08:32:35Z</time>
      </trkpt>
      <trkpt lat="42.72346" lon="0.88109">
        <ele>1951</ele>
        <time>2010-01-01T08:32:39Z</time>
      </trkpt>
      <trkpt lat="42.72347" lon="0.88124">
        <ele>1947</ele>
        <time>2010-01-01T08:32:43Z</time>
      </trkpt>
      <trkpt lat="42.72346" lon="0.88138">
        <ele>1944</ele>
        <time>2010-01-01T08:32:47Z</time>
      </trkpt>
      <trkpt lat="42.72347" lon="0.8815">
        <ele>1940</ele>
        <time>2010-01-01T08:32:51Z</time>
      </trkpt>
      <trkpt lat="42.72353" lon="0.88162">
        <ele>1936</ele>
        <time>2010-01-01T08:32:55Z</time>
      </trkpt>
      <trkpt lat="42.72358" lon="0.88174">
        <ele>1932</ele>
        <time>2010-01-01T08:32:59Z</time>
      </trkpt>
      <trkpt lat="42.72362" lon="0.88187">
        <ele>1928</ele>
        <time>2010-01-01T08:33:03Z</time>
      </trkpt>
      <trkpt lat="42.72367" lon="0.88199">
        <ele>1924</ele>
        <time>2010-01-01T08:33:07Z</time>
      </trkpt>
      <trkpt lat="42.72367" lon="0.88214">
        <ele>1919</ele>
        <time>2010-01-01T08:33:12Z</time>
      </trkpt>
      <trkpt lat="42.72376" lon="0.88218">
        <ele>1916</ele>
        <time>2010-01-01T08:33:16Z</time>
      </trkpt>
      <trkpt lat="42.72387" lon="0.88217">
        <ele>1914</ele>
        <time>2010-01-01T08:33:20Z</time>
      </trkpt>
      <trkpt lat="42.72397" lon="0.88216">
        <ele>1913</ele>
        <time>2010-01-01T08:33:24Z</time>
      </trkpt>
      <trkpt lat="42.72408" lon="0.88222">
        <ele>1908</ele>
        <time>2010-01-01T08:33:29Z</time>
      </trkpt>
      <trkpt lat="42.72417" lon="0.8823">
        <ele>1904</ele>
        <time>2010-01-01T08:33:33Z</time>
      </trkpt>
      <trkpt lat="42.72426" lon="0.88237">
        <ele>1903</ele>
        <time>2010-01-01T08:33:37Z</time>
      </trkpt>
      <trkpt lat="42.72435" lon="0.88247">
        <ele>1900</ele>
        <time>2010-01-01T08:33:42Z</time>
      </trkpt>
      <trkpt lat="42.72444" lon="0.88253">
        <ele>1899</ele>
        <time>2010-01-01T08:33:46Z</time>
      </trkpt>
      <trkpt lat="42.72447" lon="0.88266">
        <ele>1896</ele>
        <time>2010-01-01T08:33:50Z</time>
      </trkpt>
      <trkpt lat="42.72444" lon="0.8828">
        <ele>1892</ele>
        <time>2010-01-01T08:33:54Z</time>
      </trkpt>
      <trkpt lat="42.72437" lon="0.8829">
        <ele>1889</ele>
        <time>2010-01-01T08:33:58Z</time>
      </trkpt>
      <trkpt lat="42.72429" lon="0.88296">
        <ele>1887</ele>
        <time>2010-01-01T08:34:02Z</time>
      </trkpt>
      <trkpt lat="42.72426" lon="0.88309">
        <ele>1884</ele>
        <time>2010-01-01T08:34:06Z</time>
      </trkpt>
      <trkpt lat="42.72428" lon="0.88323">
        <ele>1881</ele>
        <time>2010-01-01T08:34:10Z</time>
      </trkpt>
      <trkpt lat="42.7244" lon="0.88323">
        <ele>1881</ele>
        <time>2010-01-01T08:34:15Z</time>
      </trkpt>
      <trkpt lat="42.7245" lon="0.8832">
        <ele>1883</ele>
        <time>2010-01-01T08:34:19Z</time>
      </trkpt>
      <trkpt lat="42.72458" lon="0.88326">
        <ele>1884</ele>
        <time>2010-01-01T08:34:23Z</time>
      </trkpt>
      <trkpt lat="42.72452" lon="0.88337">
        <ele>1880</ele>
        <time>2010-01-01T08:34:26Z</time>
      </trkpt>
      <trkpt lat="42.72447" lon="0.88349">
        <ele>1876</ele>
        <time>2010-01-01T08:34:31Z</time>
      </trkpt>
      <trkpt lat="42.72443" lon="0.8836">
        <ele>1872</ele>
        <time>2010-01-01T08:34:34Z</time>
      </trkpt>
      <trkpt lat="42.7244" lon="0.88373">
        <ele>1869</ele>
        <time>2010-01-01T08:34:38Z</time>
      </trkpt>
      <trkpt lat="42.72434" lon="0.88386">
        <ele>1865</ele>
        <time>2010-01-01T08:34:43Z</time>
      </trkpt>
      <trkpt lat="42.72427" lon="0.88397">
        <ele>1862</ele>
        <time>2010-01-01T08:34:47Z</time>
      </trkpt>
      <trkpt lat="42.7242" lon="0.8841">
        <ele>1859</ele>
        <time>2010-01-01T08:34:52Z</time>
      </trkpt>
      <trkpt lat="42.72414" lon="0.88423">
        <ele>1856</ele>
        <time>2010-01-01T08:34:56Z</time>
      </trkpt>
      <trkpt lat="42.72408" lon="0.88437">
        <ele>1853</ele>
        <time>2010-01-01T08:35:01Z</time>
      </trkpt>
      <trkpt lat="42.72404" lon="0.8845">
        <ele>1849</ele>
        <time>2010-01-01T08:35:05Z</time>
      </trkpt>
      <trkpt lat="42.72402" lon="0.88465">
        <ele>1845</ele>
        <time>2010-01-01T08:35:10Z</time>
      </trkpt>
      <trkpt lat="42.72392" lon="0.88475">
        <ele>1838</ele>
        <time>2010-01-01T08:35:15Z</time>
      </trkpt>
      <trkpt lat="42.72387" lon="0.88491">
        <ele>1831</ele>
        <time>2010-01-01T08:35:20Z</time>
      </trkpt>
      <trkpt lat="42.72381" lon="0.88507">
        <ele>1826</ele>
        <time>2010-01-01T08:35:25Z</time>
      </trkpt>
      <trkpt lat="42.72378" lon="0.88518">
        <ele>1823</ele>
        <time>2010-01-01T08:35:29Z</time>
      </trkpt>
      <trkpt lat="42.72374" lon="0.88533">
        <ele>1820</ele>
        <time>2010-01-01T08:35:33Z</time>
      </trkpt>
      <trkpt lat="42.72363" lon="0.88541">
        <ele>1816</ele>
        <time>2010-01-01T08:35:38Z</time>
      </trkpt>
      <trkpt lat="42.72355" lon="0.8855">
        <ele>1812</ele>
        <time>2010-01-01T08:35:42Z</time>
      </trkpt>
      <trkpt lat="42.72349" lon="0.88555">
        <ele>1809</ele>
        <time>2010-01-01T08:35:45Z</time>
      </trkpt>
      <trkpt lat="42.72338" lon="0.88563">
        <ele>1805</ele>
        <time>2010-01-01T08:35:50Z</time>
      </trkpt>
      <trkpt lat="42.72328" lon="0.88567">
        <ele>1800</ele>
        <time>2010-01-01T08:35:55Z</time>
      </trkpt>
      <trkpt lat="42.72317" lon="0.88567">
        <ele>1795</ele>
        <time>2010-01-01T08:35:59Z</time>
      </trkpt>
      <trkpt lat="42.72306" lon="0.8857">
        <ele>1790</ele>
        <time>2010-01-01T08:36:03Z</time>
      </trkpt>
      <trkpt lat="42.72296" lon="0.88577">
        <ele>1787</ele>
        <time>2010-01-01T08:36:08Z</time>
      </trkpt>
      <trkpt lat="42.72287" lon="0.88578">
        <ele>1784</ele>
        <time>2010-01-01T08:36:11Z</time>
      </trkpt>
      <trkpt lat="42.72278" lon="0.88586">
        <ele>1780</ele>
        <time>2010-01-01T08:36:16Z</time>
      </trkpt>
      <trkpt lat="42.72268" lon="0.88594">
        <ele>1778</ele>
        <time>2010-01-01T08:36:21Z</time>
      </trkpt>
      <trkpt lat="42.7226" lon="0.88605">
        <ele>1774</ele>
        <time>2010-01-01T08:36:25Z</time>
      </trkpt>
      <trkpt lat="42.72256" lon="0.88619">
        <ele>1771</ele>
        <time>2010-01-01T08:36:29Z</time>
      </trkpt>
      <trkpt lat="42.72253" lon="0.88631">
        <ele>1769</ele>
        <time>2010-01-01T08:36:33Z</time>
      </trkpt>
      <trkpt lat="42.72249" lon="0.88644">
        <ele>1767</ele>
        <time>2010-01-01T08:36:37Z</time>
      </trkpt>
      <trkpt lat="42.72245" lon="0.88657">
        <ele>1768</ele>
        <time>2010-01-01T08:36:42Z</time>
      </trkpt>
      <trkpt lat="42.72237" lon="0.88668">
        <ele>1766</ele>
        <time>2010-01-01T08:36:46Z</time>
      </trkpt>
      <trkpt lat="42.72229" lon="0.88677">
        <ele>1762</ele>
        <time>2010-01-01T08:36:50Z</time>
      </trkpt>
      <trkpt lat="42.72221" lon="0.88687">
        <ele>1757</ele>
        <time>2010-01-01T08:36:55Z</time>
      </trkpt>
      <trkpt lat="42.72211" lon="0.88694">
        <ele>1751</ele>
        <time>2010-01-01T08:36:59Z</time>
      </trkpt>
      <trkpt lat="42.72204" lon="0.88699">
        <ele>1747</ele>
        <time>2010-01-01T08:37:02Z</time>
      </trkpt>
      <trkpt lat="42.72195" lon="0.88707">
        <ele>1741</ele>
        <time>2010-01-01T08:37:06Z</time>
      </trkpt>
      <trkpt lat="42.72186" lon="0.88717">
        <ele>1738</ele>
        <time>2010-01-01T08:37:11Z</time>
      </trkpt>
      <trkpt lat="42.72176" lon="0.88724">
        <ele>1737</ele>
        <time>2010-01-01T08:37:16Z</time>
      </trkpt>
      <trkpt lat="42.72168" lon="0.88734">
        <ele>1743</ele>
        <time>2010-01-01T08:37:20Z</time>
      </trkpt>
      <trkpt lat="42.72159" lon="0.88747">
        <ele>1747</ele>
        <time>2010-01-01T08:37:25Z</time>
      </trkpt>
      <trkpt lat="42.72151" lon="0.88756">
        <ele>1747</ele>
        <time>2010-01-01T08:37:30Z</time>
      </trkpt>
      <trkpt lat="42.72142" lon="0.88763">
        <ele>1746</ele>
        <time>2010-01-01T08:37:33Z</time>
      </trkpt>
      <trkpt lat="42.72133" lon="0.8877">
        <ele>1746</ele>
        <time>2010-01-01T08:37:38Z</time>
      </trkpt>
      <trkpt lat="42.72125" lon="0.8878">
        <ele>1747</ele>
        <time>2010-01-01T08:37:42Z</time>
      </trkpt>
      <trkpt lat="42.72119" lon="0.88789">
        <ele>1747</ele>
        <time>2010-01-01T08:37:46Z</time>
      </trkpt>
      <trkpt lat="42.72112" lon="0.888">
        <ele>1748</ele>
        <time>2010-01-01T08:37:50Z</time>
      </trkpt>
      <trkpt lat="42.72107" lon="0.88809">
        <ele>1749</ele>
        <time>2010-01-01T08:37:53Z</time>
      </trkpt>
      <trkpt lat="42.72099" lon="0.88818">
        <ele>1749</ele>
        <time>2010-01-01T08:37:57Z</time>
      </trkpt>
      <trkpt lat="42.72091" lon="0.88826">
        <ele>1749</ele>
        <time>2010-01-01T08:38:01Z</time>
      </trkpt>
      <trkpt lat="42.72083" lon="0.88832">
        <ele>1750</ele>
        <time>2010-01-01T08:38:05Z</time>
      </trkpt>
      <trkpt lat="42.72075" lon="0.88838">
        <ele>1748</ele>
        <time>2010-01-01T08:38:09Z</time>
      </trkpt>
      <trkpt lat="42.72068" lon="0.88847">
        <ele>1748</ele>
        <time>2010-01-01T08:38:13Z</time>
      </trkpt>
      <trkpt lat="42.72062" lon="0.88856">
        <ele>1748</ele>
        <time>2010-01-01T08:38:16Z</time>
      </trkpt>
      <trkpt lat="42.72056" lon="0.88866">
        <ele>1748</ele>
        <time>2010-01-01T08:38:20Z</time>
      </trkpt>
      <trkpt lat="42.72051" lon="0.88877">
        <ele>1749</ele>
        <time>2010-01-01T08:38:24Z</time>
      </trkpt>
      <trkpt lat="42.72045" lon="0.88889">
        <ele>1749</ele>
        <time>2010-01-01T08:38:28Z</time>
      </trkpt>
      <trkpt lat="42.72036" lon="0.88899">
        <ele>1747</ele>
        <time>2010-01-01T08:38:32Z</time>
      </trkpt>
      <trkpt lat="42.72029" lon="0.88909">
        <ele>1745</ele>
        <time>2010-01-01T08:38:37Z</time>
      </trkpt>
      <trkpt lat="42.72023" lon="0.8892">
        <ele>1746</ele>
        <time>2010-01-01T08:38:41Z</time>
      </trkpt>
      <trkpt lat="42.72014" lon="0.88927">
        <ele>1744</ele>
        <time>2010-01-01T08:38:45Z</time>
      </trkpt>
      <trkpt lat="42.72006" lon="0.88936">
        <ele>1745</ele>
        <time>2010-01-01T08:38:49Z</time>
      </trkpt>
      <trkpt lat="42.71998" lon="0.88943">
        <ele>1745</ele>
        <time>2010-01-01T08:38:53Z</time>
      </trkpt>
      <trkpt lat="42.71988" lon="0.8895">
        <ele>1743</ele>
        <time>2010-01-01T08:38:57Z</time>
      </trkpt>
      <trkpt lat="42.71979" lon="0.88956">
        <ele>1743</ele>
        <time>2010-01-01T08:39:01Z</time>
      </trkpt>
      <trkpt lat="42.7197" lon="0.88963">
        <ele>1744</ele>
        <time>2010-01-01T08:39:06Z</time>
      </trkpt>
      <trkpt lat="42.71961" lon="0.88972">
        <ele>1746</ele>
        <time>2010-01-01T08:39:10Z</time>
      </trkpt>
      <trkpt lat="42.71953" lon="0.8898">
        <ele>1749</ele>
        <time>2010-01-01T08:39:14Z</time>
      </trkpt>
      <trkpt lat="42.71943" lon="0.88988">
        <ele>1751</ele>
        <time>2010-01-01T08:39:19Z</time>
      </trkpt>
      <trkpt lat="42.71935" lon="0.88998">
        <ele>1752</ele>
        <time>2010-01-01T08:39:23Z</time>
      </trkpt>
      <trkpt lat="42.71926" lon="0.89004">
        <ele>1752</ele>
        <time>2010-01-01T08:39:27Z</time>
      </trkpt>
      <trkpt lat="42.71916" lon="0.89006">
        <ele>1749</ele>
        <time>2010-01-01T08:39:31Z</time>
      </trkpt>
      <trkpt lat="42.71907" lon="0.89015">
        <ele>1746</ele>
        <time>2010-01-01T08:39:36Z</time>
      </trkpt>
      <trkpt lat="42.71898" lon="0.89023">
        <ele>1744</ele>
        <time>2010-01-01T08:39:40Z</time>
      </trkpt>
      <trkpt lat="42.71889" lon="0.89029">
        <ele>1740</ele>
        <time>2010-01-01T08:39:44Z</time>
      </trkpt>
      <trkpt lat="42.71879" lon="0.89035">
        <ele>1737</ele>
        <time>2010-01-01T08:39:48Z</time>
      </trkpt>
      <trkpt lat="42.71868" lon="0.89038">
        <ele>1734</ele>
        <time>2010-01-01T08:39:53Z</time>
      </trkpt>
      <trkpt lat="42.71857" lon="0.89043">
        <ele>1732</ele>
        <time>2010-01-01T08:39:57Z</time>
      </trkpt>
      <trkpt lat="42.71846" lon="0.89046">
        <ele>1729</ele>
        <time>2010-01-01T08:40:02Z</time>
      </trkpt>
      <trkpt lat="42.71834" lon="0.89047">
        <ele>1726</ele>
        <time>2010-01-01T08:40:07Z</time>
      </trkpt>
      <trkpt lat="42.71824" lon="0.89053">
        <ele>1724</ele>
        <time>2010-01-01T08:40:11Z</time>
      </trkpt>
      <trkpt lat="42.71815" lon="0.89059">
        <ele>1723</ele>
        <time>2010-01-01T08:40:15Z</time>
      </trkpt>
      <trkpt lat="42.71804" lon="0.89065">
        <ele>1721</ele>
        <time>2010-01-01T08:40:20Z</time>
      </trkpt>
      <trkpt lat="42.71794" lon="0.89073">
        <ele>1720</ele>
        <time>2010-01-01T08:40:24Z</time>
      </trkpt>
      <trkpt lat="42.71783" lon="0.89076">
        <ele>1716</ele>
        <time>2010-01-01T08:40:29Z</time>
      </trkpt>
      <trkpt lat="42.71772" lon="0.89076">
        <ele>1713</ele>
        <time>2010-01-01T08:40:33Z</time>
      </trkpt>
      <trkpt lat="42.71763" lon="0.89082">
        <ele>1712</ele>
        <time>2010-01-01T08:40:37Z</time>
      </trkpt>
      <trkpt lat="42.71754" lon="0.89092">
        <ele>1714</ele>
        <time>2010-01-01T08:40:42Z</time>
      </trkpt>
      <trkpt lat="42.71749" lon="0.89104">
        <ele>1717</ele>
        <time>2010-01-01T08:40:46Z</time>
      </trkpt>
      <trkpt lat="42.7174" lon="0.89114">
        <ele>1719</ele>
        <time>2010-01-01T08:40:51Z</time>
      </trkpt>
      <trkpt lat="42.71732" lon="0.89123">
        <ele>1720</ele>
        <time>2010-01-01T08:40:55Z</time>
      </trkpt>
      <trkpt lat="42.71724" lon="0.89133">
        <ele>1722</ele>
        <time>2010-01-01T08:40:59Z</time>
      </trkpt>
      <trkpt lat="42.71714" lon="0.89137">
        <ele>1722</ele>
        <time>2010-01-01T08:41:03Z</time>
      </trkpt>
      <trkpt lat="42.71704" lon="0.89139">
        <ele>1721</ele>
        <time>2010-01-01T08:41:07Z</time>
      </trkpt>
      <trkpt lat="42.71694" lon="0.89142">
        <ele>1720</ele>
        <time>2010-01-01T08:41:11Z</time>
      </trkpt>
      <trkpt lat="42.71685" lon="0.89142">
        <ele>1715</ele>
        <time>2010-01-01T08:41:15Z</time>
      </trkpt>
      <trkpt lat="42.71674" lon="0.89142">
        <ele>1710</ele>
        <time>2010-01-01T08:41:19Z</time>
      </trkpt>
      <trkpt lat="42.71663" lon="0.89142">
        <ele>1704</ele>
        <time>2010-01-01T08:41:24Z</time>
      </trkpt>
      <trkpt lat="42.71651" lon="0.89146">
        <ele>1699</ele>
        <time>2010-01-01T08:41:28Z</time>
      </trkpt>
      <trkpt lat="42.71641" lon="0.8915">
        <ele>1694</ele>
        <time>2010-01-01T08:41:33Z</time>
      </trkpt>
      <trkpt lat="42.71633" lon="0.89158">
        <ele>1692</ele>
        <time>2010-01-01T08:41:37Z</time>
      </trkpt>
      <trkpt lat="42.71625" lon="0.89167">
        <ele>1690</ele>
        <time>2010-01-01T08:41:41Z</time>
      </trkpt>
      <trkpt lat="42.71618" lon="0.89178">
        <ele>1690</ele>
        <time>2010-01-01T08:41:45Z</time>
      </trkpt>
      <trkpt lat="42.71609" lon="0.89186">
        <ele>1688</ele>
        <time>2010-01-01T08:41:49Z</time>
      </trkpt>
      <trkpt lat="42.71601" lon="0.89194">
        <ele>1685</ele>
        <time>2010-01-01T08:41:54Z</time>
      </trkpt>
      <trkpt lat="42.71592" lon="0.89203">
        <ele>1682</ele>
        <time>2010-01-01T08:41:58Z</time>
      </trkpt>
      <trkpt lat="42.71586" lon="0.89213">
        <ele>1681</ele>
        <time>2010-01-01T08:42:02Z</time>
      </trkpt>
      <trkpt lat="42.71577" lon="0.8922">
        <ele>1677</ele>
        <time>2010-01-01T08:42:06Z</time>
      </trkpt>
      <trkpt lat="42.71569" lon="0.89229">
        <ele>1672</ele>
        <time>2010-01-01T08:42:10Z</time>
      </trkpt>
      <trkpt lat="42.71561" lon="0.89238">
        <ele>1668</ele>
        <time>2010-01-01T08:42:14Z</time>
      </trkpt>
      <trkpt lat="42.71555" lon="0.89249">
        <ele>1667</ele>
        <time>2010-01-01T08:42:18Z</time>
      </trkpt>
      <trkpt lat="42.71548" lon="0.89257">
        <ele>1665</ele>
        <time>2010-01-01T08:42:22Z</time>
      </trkpt>
      <trkpt lat="42.7154" lon="0.89265">
        <ele>1664</ele>
        <time>2010-01-01T08:42:26Z</time>
      </trkpt>
      <trkpt lat="42.71531" lon="0.89272">
        <ele>1662</ele>
        <time>2010-01-01T08:42:30Z</time>
      </trkpt>
      <trkpt lat="42.71522" lon="0.8928">
        <ele>1657</ele>
        <time>2010-01-01T08:42:34Z</time>
      </trkpt>
      <trkpt lat="42.71511" lon="0.89282">
        <ele>1648</ele>
        <time>2010-01-01T08:42:39Z</time>
      </trkpt>
      <trkpt lat="42.71501" lon="0.89279">
        <ele>1639</ele>
        <time>2010-01-01T08:42:43Z</time>
      </trkpt>
      <trkpt lat="42.71504" lon="0.89268">
        <ele>1640</ele>
        <time>2010-01-01T08:42:46Z</time>
      </trkpt>
      <trkpt lat="42.71504" lon="0.89255">
        <ele>1640</ele>
        <time>2010-01-01T08:42:50Z</time>
      </trkpt>
      <trkpt lat="42.71494" lon="0.89249">
        <ele>1634</ele>
        <time>2010-01-01T08:42:54Z</time>
      </trkpt>
      <trkpt lat="42.71485" lon="0.89256">
        <ele>1630</ele>
        <time>2010-01-01T08:42:59Z</time>
      </trkpt>
      <trkpt lat="42.71476" lon="0.89263">
        <ele>1626</ele>
        <time>2010-01-01T08:43:03Z</time>
      </trkpt>
      <trkpt lat="42.71467" lon="0.89271">
        <ele>1624</ele>
        <time>2010-01-01T08:43:07Z</time>
      </trkpt>
      <trkpt lat="42.71458" lon="0.89276">
        <ele>1622</ele>
        <time>2010-01-01T08:43:11Z</time>
      </trkpt>
      <trkpt lat="42.7145" lon="0.89285">
        <ele>1619</ele>
        <time>2010-01-01T08:43:15Z</time>
      </trkpt>
      <trkpt lat="42.71443" lon="0.89297">
        <ele>1616</ele>
        <time>2010-01-01T08:43:20Z</time>
      </trkpt>
      <trkpt lat="42.71433" lon="0.89312">
        <ele>1611</ele>
        <time>2010-01-01T08:43:25Z</time>
      </trkpt>
      <trkpt lat="42.71424" lon="0.89322">
        <ele>1606</ele>
        <time>2010-01-01T08:43:30Z</time>
      </trkpt>
      <trkpt lat="42.71398" lon="0.8933">
        <ele>1598</ele>
        <time>2010-01-01T08:43:41Z</time>
      </trkpt>
      <trkpt lat="42.71379" lon="0.89336">
        <ele>1594</ele>
        <time>2010-01-01T08:43:49Z</time>
      </trkpt>
      <trkpt lat="42.71362" lon="0.89335">
        <ele>1590</ele>
        <time>2010-01-01T08:43:56Z</time>
      </trkpt>
      <trkpt lat="42.71343" lon="0.89337">
        <ele>1583</ele>
        <time>2010-01-01T08:44:03Z</time>
      </trkpt>
      <trkpt lat="42.71328" lon="0.8934">
        <ele>1578</ele>
        <time>2010-01-01T08:44:09Z</time>
      </trkpt>
      <trkpt lat="42.71315" lon="0.89342">
        <ele>1575</ele>
        <time>2010-01-01T08:44:15Z</time>
      </trkpt>
      <trkpt lat="42.71301" lon="0.89347">
        <ele>1571</ele>
        <time>2010-01-01T08:44:20Z</time>
      </trkpt>
      <trkpt lat="42.71288" lon="0.89351">
        <ele>1568</ele>
        <time>2010-01-01T08:44:26Z</time>
      </trkpt>
      <trkpt lat="42.71278" lon="0.89357">
        <ele>1565</ele>
        <time>2010-01-01T08:44:30Z</time>
      </trkpt>
      <trkpt lat="42.71268" lon="0.89361">
        <ele>1562</ele>
        <time>2010-01-01T08:44:34Z</time>
      </trkpt>
      <trkpt lat="42.71259" lon="0.89364">
        <ele>1559</ele>
        <time>2010-01-01T08:44:38Z</time>
      </trkpt>
      <trkpt lat="42.71249" lon="0.89363">
        <ele>1557</ele>
        <time>2010-01-01T08:44:42Z</time>
      </trkpt>
      <trkpt lat="42.71242" lon="0.89353">
        <ele>1556</ele>
        <time>2010-01-01T08:44:46Z</time>
      </trkpt>
      <trkpt lat="42.71231" lon="0.8935">
        <ele>1552</ele>
        <time>2010-01-01T08:44:50Z</time>
      </trkpt>
      <trkpt lat="42.71223" lon="0.89356">
        <ele>1548</ele>
        <time>2010-01-01T08:44:54Z</time>
      </trkpt>
      <trkpt lat="42.71216" lon="0.89357">
        <ele>1544</ele>
        <time>2010-01-01T08:44:57Z</time>
      </trkpt>
      <trkpt lat="42.71215" lon="0.89369">
        <ele>1543</ele>
        <time>2010-01-01T08:45:00Z</time>
      </trkpt>
      <trkpt lat="42.71207" lon="0.89366">
        <ele>1539</ele>
        <time>2010-01-01T08:45:04Z</time>
      </trkpt>
      <trkpt lat="42.71201" lon="0.89374">
        <ele>1536</ele>
        <time>2010-01-01T08:45:07Z</time>
      </trkpt>
      <trkpt lat="42.71197" lon="0.89387">
        <ele>1533</ele>
        <time>2010-01-01T08:45:11Z</time>
      </trkpt>
      <trkpt lat="42.71191" lon="0.89397">
        <ele>1529</ele>
        <time>2010-01-01T08:45:15Z</time>
      </trkpt>
      <trkpt lat="42.71191" lon="0.8941">
        <ele>1528</ele>
        <time>2010-01-01T08:45:19Z</time>
      </trkpt>
      <trkpt lat="42.71184" lon="0.8941">
        <ele>1524</ele>
        <time>2010-01-01T08:45:22Z</time>
      </trkpt>
      <trkpt lat="42.71177" lon="0.894">
        <ele>1520</ele>
        <time>2010-01-01T08:45:26Z</time>
      </trkpt>
      <trkpt lat="42.71172" lon="0.89388">
        <ele>1518</ele>
        <time>2010-01-01T08:45:30Z</time>
      </trkpt>
      <trkpt lat="42.7117" lon="0.89376">
        <ele>1517</ele>
        <time>2010-01-01T08:45:34Z</time>
      </trkpt>
      <trkpt lat="42.71165" lon="0.89365">
        <ele>1515</ele>
        <time>2010-01-01T08:45:38Z</time>
      </trkpt>
      <trkpt lat="42.71161" lon="0.89354">
        <ele>1512</ele>
        <time>2010-01-01T08:45:41Z</time>
      </trkpt>
      <trkpt lat="42.71157" lon="0.89342">
        <ele>1510</ele>
        <time>2010-01-01T08:45:45Z</time>
      </trkpt>
      <trkpt lat="42.71155" lon="0.89329">
        <ele>1508</ele>
        <time>2010-01-01T08:45:49Z</time>
      </trkpt>
      <trkpt lat="42.71153" lon="0.89315">
        <ele>1504</ele>
        <time>2010-01-01T08:45:53Z</time>
      </trkpt>
      <trkpt lat="42.7115" lon="0.89302">
        <ele>1501</ele>
        <time>2010-01-01T08:45:57Z</time>
      </trkpt>
      <trkpt lat="42.71147" lon="0.89288">
        <ele>1497</ele>
        <time>2010-01-01T08:46:01Z</time>
      </trkpt>
      <trkpt lat="42.71146" lon="0.89275">
        <ele>1495</ele>
        <time>2010-01-01T08:46:05Z</time>
      </trkpt>
      <trkpt lat="42.71143" lon="0.89263">
        <ele>1492</ele>
        <time>2010-01-01T08:46:09Z</time>
      </trkpt>
      <trkpt lat="42.71141" lon="0.89249">
        <ele>1488</ele>
        <time>2010-01-01T08:46:13Z</time>
      </trkpt>
      <trkpt lat="42.7114" lon="0.89235">
        <ele>1486</ele>
        <time>2010-01-01T08:46:17Z</time>
      </trkpt>
      <trkpt lat="42.71139" lon="0.89221">
        <ele>1482</ele>
        <time>2010-01-01T08:46:21Z</time>
      </trkpt>
      <trkpt lat="42.71137" lon="0.89208">
        <ele>1481</ele>
        <time>2010-01-01T08:46:25Z</time>
      </trkpt>
      <trkpt lat="42.71135" lon="0.89196">
        <ele>1480</ele>
        <time>2010-01-01T08:46:29Z</time>
      </trkpt>
      <trkpt lat="42.71133" lon="0.89182">
        <ele>1478</ele>
        <time>2010-01-01T08:46:33Z</time>
      </trkpt>
      <trkpt lat="42.71131" lon="0.89169">
        <ele>1477</ele>
        <time>2010-01-01T08:46:37Z</time>
      </trkpt>
      <trkpt lat="42.7113" lon="0.89156">
        <ele>1476</ele>
        <time>2010-01-01T08:46:41Z</time>
      </trkpt>
      <trkpt lat="42.7113" lon="0.89141">
        <ele>1475</ele>
        <time>2010-01-01T08:46:45Z</time>
      </trkpt>
      <trkpt lat="42.71128" lon="0.89128">
        <ele>1472</ele>
        <time>2010-01-01T08:46:49Z</time>
      </trkpt>
      <trkpt lat="42.71128" lon="0.89115">
        <ele>1470</ele>
        <time>2010-01-01T08:46:53Z</time>
      </trkpt>
      <trkpt lat="42.71128" lon="0.89103">
        <ele>1468</ele>
        <time>2010-01-01T08:46:57Z</time>
      </trkpt>
      <trkpt lat="42.71127" lon="0.89089">
        <ele>1465</ele>
        <time>2010-01-01T08:47:00Z</time>
      </trkpt>
      <trkpt lat="42.71128" lon="0.89077">
        <ele>1462</ele>
        <time>2010-01-01T08:47:04Z</time>
      </trkpt>
      <trkpt lat="42.71128" lon="0.89061">
        <ele>1459</ele>
        <time>2010-01-01T08:47:09Z</time>
      </trkpt>
      <trkpt lat="42.71128" lon="0.89047">
        <ele>1454</ele>
        <time>2010-01-01T08:47:13Z</time>
      </trkpt>
      <trkpt lat="42.71127" lon="0.89034">
        <ele>1450</ele>
        <time>2010-01-01T08:47:17Z</time>
      </trkpt>
      <trkpt lat="42.71129" lon="0.8902">
        <ele>1447</ele>
        <time>2010-01-01T08:47:21Z</time>
      </trkpt>
      <trkpt lat="42.71131" lon="0.89008">
        <ele>1445</ele>
        <time>2010-01-01T08:47:25Z</time>
      </trkpt>
      <trkpt lat="42.71131" lon="0.88994">
        <ele>1441</ele>
        <time>2010-01-01T08:47:29Z</time>
      </trkpt>
      <trkpt lat="42.71133" lon="0.8898">
        <ele>1438</ele>
        <time>2010-01-01T08:47:33Z</time>
      </trkpt>
      <trkpt lat="42.71127" lon="0.88972">
        <ele>1432</ele>
        <time>2010-01-01T08:47:36Z</time>
      </trkpt>
      <trkpt lat="42.71127" lon="0.8896">
        <ele>1428</ele>
        <time>2010-01-01T08:47:40Z</time>
      </trkpt>
      <trkpt lat="42.71119" lon="0.88954">
        <ele>1420</ele>
        <time>2010-01-01T08:47:44Z</time>
      </trkpt>
      <trkpt lat="42.71108" lon="0.88955">
        <ele>1416</ele>
        <time>2010-01-01T08:47:48Z</time>
      </trkpt>
      <trkpt lat="42.71098" lon="0.88956">
        <ele>1413</ele>
        <time>2010-01-01T08:47:52Z</time>
      </trkpt>
      <trkpt lat="42.71095" lon="0.88949">
        <ele>1411</ele>
        <time>2010-01-01T08:47:54Z</time>
      </trkpt>
      <trkpt lat="42.71097" lon="0.88935">
        <ele>1406</ele>
        <time>2010-01-01T08:47:59Z</time>
      </trkpt>
      <trkpt lat="42.71102" lon="0.88922">
        <ele>1401</ele>
        <time>2010-01-01T08:48:03Z</time>
      </trkpt>
      <trkpt lat="42.71108" lon="0.88909">
        <ele>1396</ele>
        <time>2010-01-01T08:48:07Z</time>
      </trkpt>
      <trkpt lat="42.71108" lon="0.88899">
        <ele>1391</ele>
        <time>2010-01-01T08:48:10Z</time>
      </trkpt>
      <trkpt lat="42.71098" lon="0.88899">
        <ele>1391</ele>
        <time>2010-01-01T08:48:14Z</time>
      </trkpt>
      <trkpt lat="42.71088" lon="0.889">
        <ele>1391</ele>
        <time>2010-01-01T08:48:18Z</time>
      </trkpt>
      <trkpt lat="42.71078" lon="0.88904">
        <ele>1390</ele>
        <time>2010-01-01T08:48:23Z</time>
      </trkpt>
      <trkpt lat="42.71068" lon="0.88908">
        <ele>1389</ele>
        <time>2010-01-01T08:48:27Z</time>
      </trkpt>
      <trkpt lat="42.71058" lon="0.88915">
        <ele>1389</ele>
        <time>2010-01-01T08:48:31Z</time>
      </trkpt>
      <trkpt lat="42.7105" lon="0.8892">
        <ele>1387</ele>
        <time>2010-01-01T08:48:35Z</time>
      </trkpt>
      <trkpt lat="42.7104" lon="0.88925">
        <ele>1384</ele>
        <time>2010-01-01T08:48:39Z</time>
      </trkpt>
      <trkpt lat="42.71038" lon="0.8892">
        <ele>1381</ele>
        <time>2010-01-01T08:48:41Z</time>
      </trkpt>
      <trkpt lat="42.71044" lon="0.88907">
        <ele>1379</ele>
        <time>2010-01-01T08:48:45Z</time>
      </trkpt>
      <trkpt lat="42.71049" lon="0.88896">
        <ele>1378</ele>
        <time>2010-01-01T08:48:49Z</time>
      </trkpt>
      <trkpt lat="42.71055" lon="0.88881">
        <ele>1374</ele>
        <time>2010-01-01T08:48:54Z</time>
      </trkpt>
      <trkpt lat="42.71061" lon="0.88868">
        <ele>1369</ele>
        <time>2010-01-01T08:48:59Z</time>
      </trkpt>
      <trkpt lat="42.71067" lon="0.88855">
        <ele>1364</ele>
        <time>2010-01-01T08:49:03Z</time>
      </trkpt>
      <trkpt lat="42.71075" lon="0.8884">
        <ele>1359</ele>
        <time>2010-01-01T08:49:09Z</time>
      </trkpt>
      <trkpt lat="42.71101" lon="0.88832">
        <ele>1363</ele>
        <time>2010-01-01T08:49:19Z</time>
      </trkpt>
      <trkpt lat="42.71093" lon="0.88826">
        <ele>1360</ele>
        <time>2010-01-01T08:49:23Z</time>
      </trkpt>
      <trkpt lat="42.71097" lon="0.88816">
        <ele>1359</ele>
        <time>2010-01-01T08:49:26Z</time>
      </trkpt>
      <trkpt lat="42.71098" lon="0.88804">
        <ele>1356</ele>
        <time>2010-01-01T08:49:30Z</time>
      </trkpt>
      <trkpt lat="42.71087" lon="0.888">
        <ele>1354</ele>
        <time>2010-01-01T08:49:34Z</time>
      </trkpt>
      <trkpt lat="42.71075" lon="0.88793">
        <ele>1350</ele>
        <time>2010-01-01T08:49:39Z</time>
      </trkpt>
      <trkpt lat="42.71063" lon="0.88792">
        <ele>1346</ele>
        <time>2010-01-01T08:49:44Z</time>
      </trkpt>
      <trkpt lat="42.71051" lon="0.88794">
        <ele>1342</ele>
        <time>2010-01-01T08:49:49Z</time>
      </trkpt>
      <trkpt lat="42.71042" lon="0.88802">
        <ele>1340</ele>
        <time>2010-01-01T08:49:53Z</time>
      </trkpt>
      <trkpt lat="42.71031" lon="0.88807">
        <ele>1338</ele>
        <time>2010-01-01T08:49:58Z</time>
      </trkpt>
      <trkpt lat="42.71018" lon="0.88812">
        <ele>1338</ele>
        <time>2010-01-01T08:50:03Z</time>
      </trkpt>
      <trkpt lat="42.71006" lon="0.88816">
        <ele>1337</ele>
        <time>2010-01-01T08:50:08Z</time>
      </trkpt>
      <trkpt lat="42.70996" lon="0.88817">
        <ele>1335</ele>
        <time>2010-01-01T08:50:12Z</time>
      </trkpt>
      <trkpt lat="42.70985" lon="0.88821">
        <ele>1333</ele>
        <time>2010-01-01T08:50:17Z</time>
      </trkpt>
      <trkpt lat="42.70975" lon="0.88819">
        <ele>1330</ele>
        <time>2010-01-01T08:50:21Z</time>
      </trkpt>
      <trkpt lat="42.70962" lon="0.88814">
        <ele>1326</ele>
        <time>2010-01-01T08:50:26Z</time>
      </trkpt>
      <trkpt lat="42.70949" lon="0.8881">
        <ele>1321</ele>
        <time>2010-01-01T08:50:32Z</time>
      </trkpt>
      <trkpt lat="42.70934" lon="0.8881">
        <ele>1319</ele>
        <time>2010-01-01T08:50:38Z</time>
      </trkpt>
      <trkpt lat="42.70921" lon="0.88811">
        <ele>1317</ele>
        <time>2010-01-01T08:50:43Z</time>
      </trkpt>
      <trkpt lat="42.7091" lon="0.8881">
        <ele>1315</ele>
        <time>2010-01-01T08:50:47Z</time>
      </trkpt>
      <trkpt lat="42.70897" lon="0.88812">
        <ele>1313</ele>
        <time>2010-01-01T08:50:52Z</time>
      </trkpt>
      <trkpt lat="42.70883" lon="0.88816">
        <ele>1309</ele>
        <time>2010-01-01T08:50:58Z</time>
      </trkpt>
      <trkpt lat="42.70873" lon="0.88823">
        <ele>1306</ele>
        <time>2010-01-01T08:51:03Z</time>
      </trkpt>
      <trkpt lat="42.70863" lon="0.88832">
        <ele>1304</ele>
        <time>2010-01-01T08:51:08Z</time>
      </trkpt>
      <trkpt lat="42.70853" lon="0.88841">
        <ele>1303</ele>
        <time>2010-01-01T08:51:12Z</time>
      </trkpt>
      <trkpt lat="42.70842" lon="0.88849">
        <ele>1300</ele>
        <time>2010-01-01T08:51:17Z</time>
      </trkpt>
      <trkpt lat="42.7083" lon="0.88857">
        <ele>1298</ele>
        <time>2010-01-01T08:51:23Z</time>
      </trkpt>
      <trkpt lat="42.7082" lon="0.88864">
        <ele>1296</ele>
        <time>2010-01-01T08:51:27Z</time>
      </trkpt>
      <trkpt lat="42.70806" lon="0.88871">
        <ele>1293</ele>
        <time>2010-01-01T08:51:33Z</time>
      </trkpt>
      <trkpt lat="42.70789" lon="0.88878">
        <ele>1289</ele>
        <time>2010-01-01T08:51:40Z</time>
      </trkpt>
      <trkpt lat="42.70771" lon="0.88883">
        <ele>1283</ele>
        <time>2010-01-01T08:51:48Z</time>
      </trkpt>
      <trkpt lat="42.70759" lon="0.88886">
        <ele>1279</ele>
        <time>2010-01-01T08:51:53Z</time>
      </trkpt>
      <trkpt lat="42.70747" lon="0.88892">
        <ele>1275</ele>
        <time>2010-01-01T08:51:57Z</time>
      </trkpt>
      <trkpt lat="42.70734" lon="0.88892">
        <ele>1272</ele>
        <time>2010-01-01T08:52:03Z</time>
      </trkpt>
      <trkpt lat="42.7072" lon="0.88894">
        <ele>1269</ele>
        <time>2010-01-01T08:52:08Z</time>
      </trkpt>
      <trkpt lat="42.70705" lon="0.88898">
        <ele>1267</ele>
        <time>2010-01-01T08:52:15Z</time>
      </trkpt>
      <trkpt lat="42.70697" lon="0.88903">
        <ele>1265</ele>
        <time>2010-01-01T08:52:18Z</time>
      </trkpt>
      <trkpt lat="42.70684" lon="0.88912">
        <ele>1263</ele>
        <time>2010-01-01T08:52:24Z</time>
      </trkpt>
      <trkpt lat="42.70671" lon="0.88915">
        <ele>1260</ele>
        <time>2010-01-01T08:52:29Z</time>
      </trkpt>
      <trkpt lat="42.7066" lon="0.88917">
        <ele>1259</ele>
        <time>2010-01-01T08:52:34Z</time>
      </trkpt>
      <trkpt lat="42.70649" lon="0.88922">
        <ele>1258</ele>
        <time>2010-01-01T08:52:38Z</time>
      </trkpt>
      <trkpt lat="42.70646" lon="0.88909">
        <ele>1257</ele>
        <time>2010-01-01T08:52:42Z</time>
      </trkpt>
      <trkpt lat="42.70648" lon="0.88895">
        <ele>1256</ele>
        <time>2010-01-01T08:52:46Z</time>
      </trkpt>
      <trkpt lat="42.70654" lon="0.88885">
        <ele>1257</ele>
        <time>2010-01-01T08:52:50Z</time>
      </trkpt>
      <trkpt lat="42.70659" lon="0.88874">
        <ele>1257</ele>
        <time>2010-01-01T08:52:54Z</time>
      </trkpt>
      <trkpt lat="42.7065" lon="0.88867">
        <ele>1255</ele>
        <time>2010-01-01T08:52:58Z</time>
      </trkpt>
      <trkpt lat="42.70638" lon="0.88871">
        <ele>1254</ele>
        <time>2010-01-01T08:53:03Z</time>
      </trkpt>
      <trkpt lat="42.70626" lon="0.88873">
        <ele>1252</ele>
        <time>2010-01-01T08:53:08Z</time>
      </trkpt>
      <trkpt lat="42.70612" lon="0.88879">
        <ele>1251</ele>
        <time>2010-01-01T08:53:14Z</time>
      </trkpt>
      <trkpt lat="42.706" lon="0.88881">
        <ele>1249</ele>
        <time>2010-01-01T08:53:19Z</time>
      </trkpt>
      <trkpt lat="42.70586" lon="0.88883">
        <ele>1247</ele>
        <time>2010-01-01T08:53:24Z</time>
      </trkpt>
      <trkpt lat="42.70574" lon="0.88884">
        <ele>1244</ele>
        <time>2010-01-01T08:53:29Z</time>
      </trkpt>
      <trkpt lat="42.70562" lon="0.88886">
        <ele>1241</ele>
        <time>2010-01-01T08:53:34Z</time>
      </trkpt>
      <trkpt lat="42.70551" lon="0.88886">
        <ele>1238</ele>
        <time>2010-01-01T08:53:38Z</time>
      </trkpt>
      <trkpt lat="42.7054" lon="0.88886">
        <ele>1235</ele>
        <time>2010-01-01T08:53:43Z</time>
      </trkpt>
      <trkpt lat="42.7053" lon="0.88886">
        <ele>1232</ele>
        <time>2010-01-01T08:53:47Z</time>
      </trkpt>
      <trkpt lat="42.70524" lon="0.88878">
        <ele>1231</ele>
        <time>2010-01-01T08:53:50Z</time>
      </trkpt>
      <trkpt lat="42.70517" lon="0.88862">
        <ele>1229</ele>
        <time>2010-01-01T08:53:56Z</time>
      </trkpt>
      <trkpt lat="42.70506" lon="0.88857">
        <ele>1226</ele>
        <time>2010-01-01T08:54:00Z</time>
      </trkpt>
      <trkpt lat="42.70494" lon="0.88855">
        <ele>1223</ele>
        <time>2010-01-01T08:54:05Z</time>
      </trkpt>
      <trkpt lat="42.70483" lon="0.88861">
        <ele>1221</ele>
        <time>2010-01-01T08:54:10Z</time>
      </trkpt>
      <trkpt lat="42.70473" lon="0.88866">
        <ele>1220</ele>
        <time>2010-01-01T08:54:14Z</time>
      </trkpt>
      <trkpt lat="42.70463" lon="0.88872">
        <ele>1218</ele>
        <time>2010-01-01T08:54:19Z</time>
      </trkpt>
      <trkpt lat="42.70452" lon="0.88877">
        <ele>1216</ele>
        <time>2010-01-01T08:54:23Z</time>
      </trkpt>
      <trkpt lat="42.70436" lon="0.8889">
        <ele>1211</ele>
        <time>2010-01-01T08:54:31Z</time>
      </trkpt>
      <trkpt lat="42.70423" lon="0.889">
        <ele>1207</ele>
        <time>2010-01-01T08:54:37Z</time>
      </trkpt>
      <trkpt lat="42.70412" lon="0.88908">
        <ele>1204</ele>
        <time>2010-01-01T08:54:42Z</time>
      </trkpt>
      <trkpt lat="42.70404" lon="0.88924">
        <ele>1202</ele>
        <time>2010-01-01T08:54:48Z</time>
      </trkpt>
      <trkpt lat="42.70393" lon="0.88935">
        <ele>1200</ele>
        <time>2010-01-01T08:54:53Z</time>
      </trkpt>
      <trkpt lat="42.70384" lon="0.88944">
        <ele>1201</ele>
        <time>2010-01-01T08:54:57Z</time>
      </trkpt>
      <trkpt lat="42.70378" lon="0.88955">
        <ele>1203</ele>
        <time>2010-01-01T08:55:01Z</time>
      </trkpt>
      <trkpt lat="42.70376" lon="0.88969">
        <ele>1204</ele>
        <time>2010-01-01T08:55:06Z</time>
      </trkpt>
      <trkpt lat="42.70373" lon="0.88985">
        <ele>1206</ele>
        <time>2010-01-01T08:55:10Z</time>
      </trkpt>
      <trkpt lat="42.70371" lon="0.89">
        <ele>1209</ele>
        <time>2010-01-01T08:55:15Z</time>
      </trkpt>
      <trkpt lat="42.70366" lon="0.88999">
        <ele>1210</ele>
        <time>2010-01-01T08:55:17Z</time>
      </trkpt>
      <trkpt lat="42.70361" lon="0.88983">
        <ele>1209</ele>
        <time>2010-01-01T08:55:22Z</time>
      </trkpt>
      <trkpt lat="42.70357" lon="0.88958">
        <ele>1208</ele>
        <time>2010-01-01T08:55:29Z</time>
      </trkpt>
      <trkpt lat="42.70354" lon="0.88943">
        <ele>1208</ele>
        <time>2010-01-01T08:55:34Z</time>
      </trkpt>
      <trkpt lat="42.70346" lon="0.8893">
        <ele>1210</ele>
        <time>2010-01-01T08:55:39Z</time>
      </trkpt>
      <trkpt lat="42.70337" lon="0.88911">
        <ele>1211</ele>
        <time>2010-01-01T08:55:46Z</time>
      </trkpt>
      <trkpt lat="42.70328" lon="0.88894">
        <ele>1212</ele>
        <time>2010-01-01T08:55:52Z</time>
      </trkpt>
      <trkpt lat="42.70322" lon="0.88879">
        <ele>1212</ele>
        <time>2010-01-01T08:55:57Z</time>
      </trkpt>
      <trkpt lat="42.70316" lon="0.88865">
        <ele>1212</ele>
        <time>2010-01-01T08:56:01Z</time>
      </trkpt>
      <trkpt lat="42.70311" lon="0.88853">
        <ele>1212</ele>
        <time>2010-01-01T08:56:06Z</time>
      </trkpt>
      <trkpt lat="42.70307" lon="0.88841">
        <ele>1211</ele>
        <time>2010-01-01T08:56:10Z</time>
      </trkpt>
      <trkpt lat="42.703" lon="0.88825">
        <ele>1210</ele>
        <time>2010-01-01T08:56:15Z</time>
      </trkpt>
      <trkpt lat="42.70297" lon="0.88811">
        <ele>1210</ele>
        <time>2010-01-01T08:56:19Z</time>
      </trkpt>
      <trkpt lat="42.70292" lon="0.88797">
        <ele>1210</ele>
        <time>2010-01-01T08:56:24Z</time>
      </trkpt>
      <trkpt lat="42.70289" lon="0.88776">
        <ele>1209</ele>
        <time>2010-01-01T08:56:30Z</time>
      </trkpt>
      <trkpt lat="42.70283" lon="0.88759">
        <ele>1210</ele>
        <time>2010-01-01T08:56:36Z</time>
      </trkpt>
      <trkpt lat="42.70279" lon="0.88742">
        <ele>1210</ele>
        <time>2010-01-01T08:56:41Z</time>
      </trkpt>
      <trkpt lat="42.70276" lon="0.88724">
        <ele>1210</ele>
        <time>2010-01-01T08:56:46Z</time>
      </trkpt>
      <trkpt lat="42.70268" lon="0.88708">
        <ele>1211</ele>
        <time>2010-01-01T08:56:52Z</time>
      </trkpt>
      <trkpt lat="42.70261" lon="0.88691">
        <ele>1212</ele>
        <time>2010-01-01T08:56:58Z</time>
      </trkpt>
      <trkpt lat="42.70252" lon="0.88661">
        <ele>1210</ele>
        <time>2010-01-01T08:57:07Z</time>
      </trkpt>
      <trkpt lat="42.70248" lon="0.88645">
        <ele>1209</ele>
        <time>2010-01-01T08:57:12Z</time>
      </trkpt>
      <trkpt lat="42.70242" lon="0.88626">
        <ele>1209</ele>
        <time>2010-01-01T08:57:18Z</time>
      </trkpt>
      <trkpt lat="42.70238" lon="0.88608">
        <ele>1209</ele>
        <time>2010-01-01T08:57:24Z</time>
      </trkpt>
      <trkpt lat="42.70235" lon="0.88581">
        <ele>1207</ele>
        <time>2010-01-01T08:57:32Z</time>
      </trkpt>
      <trkpt lat="42.70234" lon="0.88545">
        <ele>1205</ele>
        <time>2010-01-01T08:57:42Z</time>
      </trkpt>
      <trkpt lat="42.70232" lon="0.88512">
        <ele>1205</ele>
        <time>2010-01-01T08:57:52Z</time>
      </trkpt>
      <trkpt lat="42.70235" lon="0.88491">
        <ele>1203</ele>
        <time>2010-01-01T08:57:59Z</time>
      </trkpt>
      <trkpt lat="42.70237" lon="0.88473">
        <ele>1202</ele>
        <time>2010-01-01T08:58:04Z</time>
      </trkpt>
      <trkpt lat="42.70241" lon="0.88457">
        <ele>1202</ele>
        <time>2010-01-01T08:58:09Z</time>
      </trkpt>
      <trkpt lat="42.70245" lon="0.88435">
        <ele>1203</ele>
        <time>2010-01-01T08:58:16Z</time>
      </trkpt>
      <trkpt lat="42.70251" lon="0.88415">
        <ele>1203</ele>
        <time>2010-01-01T08:58:22Z</time>
      </trkpt>
      <trkpt lat="42.70257" lon="0.88398">
        <ele>1202</ele>
        <time>2010-01-01T08:58:27Z</time>
      </trkpt>
      <trkpt lat="42.70261" lon="0.88379">
        <ele>1200</ele>
        <time>2010-01-01T08:58:33Z</time>
      </trkpt>
      <trkpt lat="42.70266" lon="0.88364">
        <ele>1199</ele>
        <time>2010-01-01T08:58:38Z</time>
      </trkpt>
      <trkpt lat="42.70273" lon="0.88349">
        <ele>1197</ele>
        <time>2010-01-01T08:58:43Z</time>
      </trkpt>
      <trkpt lat="42.70275" lon="0.8833">
        <ele>1196</ele>
        <time>2010-01-01T08:58:49Z</time>
      </trkpt>
      <trkpt lat="42.70275" lon="0.88305">
        <ele>1196</ele>
        <time>2010-01-01T08:58:56Z</time>
      </trkpt>
      <trkpt lat="42.70278" lon="0.88285">
        <ele>1196</ele>
        <time>2010-01-01T08:59:02Z</time>
      </trkpt>
      <trkpt lat="42.7028" lon="0.88264">
        <ele>1193</ele>
        <time>2010-01-01T08:59:09Z</time>
      </trkpt>
      <trkpt lat="42.70285" lon="0.88234">
        <ele>1189</ele>
        <time>2010-01-01T08:59:18Z</time>
      </trkpt>
      <trkpt lat="42.70286" lon="0.88211">
        <ele>1189</ele>
        <time>2010-01-01T08:59:24Z</time>
      </trkpt>
      <trkpt lat="42.70281" lon="0.8819">
        <ele>1189</ele>
        <time>2010-01-01T08:59:31Z</time>
      </trkpt>
      <trkpt lat="42.70274" lon="0.88172">
        <ele>1189</ele>
        <time>2010-01-01T08:59:37Z</time>
      </trkpt>
      <trkpt lat="42.70264" lon="0.88151">
        <ele>1187</ele>
        <time>2010-01-01T08:59:44Z</time>
      </trkpt>
      <trkpt lat="42.70258" lon="0.88134">
        <ele>1186</ele>
        <time>2010-01-01T08:59:50Z</time>
      </trkpt>
      <trkpt lat="42.70246" lon="0.88116">
        <ele>1185</ele>
        <time>2010-01-01T08:59:57Z</time>
      </trkpt>
      <trkpt lat="42.70237" lon="0.88101">
        <ele>1184</ele>
        <time>2010-01-01T09:00:03Z</time>
      </trkpt>
      <trkpt lat="42.70229" lon="0.88087">
        <ele>1183</ele>
        <time>2010-01-01T09:00:08Z</time>
      </trkpt>
      <trkpt lat="42.70223" lon="0.88074">
        <ele>1182</ele>
        <time>2010-01-01T09:00:12Z</time>
      </trkpt>
      <trkpt lat="42.70214" lon="0.88059">
        <ele>1181</ele>
        <time>2010-01-01T09:00:18Z</time>
      </trkpt>
      <trkpt lat="42.70203" lon="0.88036">
        <ele>1180</ele>
        <time>2010-01-01T09:00:26Z</time>
      </trkpt>
      <trkpt lat="42.70195" lon="0.8802">
        <ele>1181</ele>
        <time>2010-01-01T09:00:32Z</time>
      </trkpt>
      <trkpt lat="42.70189" lon="0.88003">
        <ele>1183</ele>
        <time>2010-01-01T09:00:37Z</time>
      </trkpt>
      <trkpt lat="42.70181" lon="0.87989">
        <ele>1184</ele>
        <time>2010-01-01T09:00:42Z</time>
      </trkpt>
      <trkpt lat="42.70175" lon="0.87972">
        <ele>1183</ele>
        <time>2010-01-01T09:00:48Z</time>
      </trkpt>
      <trkpt lat="42.70168" lon="0.87955">
        <ele>1181</ele>
        <time>2010-01-01T09:00:54Z</time>
      </trkpt>
      <trkpt lat="42.70166" lon="0.87936">
        <ele>1178</ele>
        <time>2010-01-01T09:00:59Z</time>
      </trkpt>
      <trkpt lat="42.70168" lon="0.87917">
        <ele>1173</ele>
        <time>2010-01-01T09:01:05Z</time>
      </trkpt>
      <trkpt lat="42.70165" lon="0.879">
        <ele>1172</ele>
        <time>2010-01-01T09:01:10Z</time>
      </trkpt>
      <trkpt lat="42.70161" lon="0.87882">
        <ele>1173</ele>
        <time>2010-01-01T09:01:16Z</time>
      </trkpt>
      <trkpt lat="42.70158" lon="0.87864">
        <ele>1175</ele>
        <time>2010-01-01T09:01:21Z</time>
      </trkpt>
      <trkpt lat="42.7016" lon="0.87846">
        <ele>1176</ele>
        <time>2010-01-01T09:01:26Z</time>
      </trkpt>
      <trkpt lat="42.70164" lon="0.87834">
        <ele>1176</ele>
        <time>2010-01-01T09:01:30Z</time>
      </trkpt>
      <trkpt lat="42.70168" lon="0.87818">
        <ele>1173</ele>
        <time>2010-01-01T09:01:35Z</time>
      </trkpt>
      <trkpt lat="42.70174" lon="0.87807">
        <ele>1171</ele>
        <time>2010-01-01T09:01:39Z</time>
      </trkpt>
      <trkpt lat="42.70183" lon="0.87799">
        <ele>1169</ele>
        <time>2010-01-01T09:01:43Z</time>
      </trkpt>
      <trkpt lat="42.70191" lon="0.87791">
        <ele>1166</ele>
        <time>2010-01-01T09:01:47Z</time>
      </trkpt>
      <trkpt lat="42.70198" lon="0.87782">
        <ele>1164</ele>
        <time>2010-01-01T09:01:51Z</time>
      </trkpt>
      <trkpt lat="42.70203" lon="0.87763">
        <ele>1162</ele>
        <time>2010-01-01T09:01:57Z</time>
      </trkpt>
      <trkpt lat="42.702" lon="0.8775">
        <ele>1162</ele>
        <time>2010-01-01T09:02:01Z</time>
      </trkpt>
      <trkpt lat="42.70196" lon="0.87737">
        <ele>1162</ele>
        <time>2010-01-01T09:02:06Z</time>
      </trkpt>
      <trkpt lat="42.70191" lon="0.87722">
        <ele>1162</ele>
        <time>2010-01-01T09:02:10Z</time>
      </trkpt>
      <trkpt lat="42.70183" lon="0.87711">
        <ele>1164</ele>
        <time>2010-01-01T09:02:15Z</time>
      </trkpt>
      <trkpt lat="42.70176" lon="0.87702">
        <ele>1164</ele>
        <time>2010-01-01T09:02:19Z</time>
      </trkpt>
      <trkpt lat="42.70168" lon="0.8769">
        <ele>1164</ele>
        <time>2010-01-01T09:02:23Z</time>
      </trkpt>
      <trkpt lat="42.7016" lon="0.8768">
        <ele>1161</ele>
        <time>2010-01-01T09:02:28Z</time>
      </trkpt>
      <trkpt lat="42.70152" lon="0.87673">
        <ele>1159</ele>
        <time>2010-01-01T09:02:32Z</time>
      </trkpt>
      <trkpt lat="42.70144" lon="0.87662">
        <ele>1156</ele>
        <time>2010-01-01T09:02:36Z</time>
      </trkpt>
      <trkpt lat="42.70137" lon="0.87652">
        <ele>1155</ele>
        <time>2010-01-01T09:02:40Z</time>
      </trkpt>
      <trkpt lat="42.70128" lon="0.87643">
        <ele>1154</ele>
        <time>2010-01-01T09:02:45Z</time>
      </trkpt>
      <trkpt lat="42.7012" lon="0.87633">
        <ele>1154</ele>
        <time>2010-01-01T09:02:49Z</time>
      </trkpt>
      <trkpt lat="42.70112" lon="0.87622">
        <ele>1154</ele>
        <time>2010-01-01T09:02:54Z</time>
      </trkpt>
      <trkpt lat="42.70103" lon="0.87613">
        <ele>1154</ele>
        <time>2010-01-01T09:02:58Z</time>
      </trkpt>
      <trkpt lat="42.70095" lon="0.87604">
        <ele>1154</ele>
        <time>2010-01-01T09:03:02Z</time>
      </trkpt>
      <trkpt lat="42.70087" lon="0.87596">
        <ele>1155</ele>
        <time>2010-01-01T09:03:06Z</time>
      </trkpt>
      <trkpt lat="42.7008" lon="0.87588">
        <ele>1155</ele>
        <time>2010-01-01T09:03:10Z</time>
      </trkpt>
      <trkpt lat="42.70073" lon="0.87578">
        <ele>1155</ele>
        <time>2010-01-01T09:03:14Z</time>
      </trkpt>
      <trkpt lat="42.70067" lon="0.87569">
        <ele>1155</ele>
        <time>2010-01-01T09:03:18Z</time>
      </trkpt>
      <trkpt lat="42.70058" lon="0.87559">
        <ele>1155</ele>
        <time>2010-01-01T09:03:22Z</time>
      </trkpt>
      <trkpt lat="42.70052" lon="0.87547">
        <ele>1154</ele>
        <time>2010-01-01T09:03:26Z</time>
      </trkpt>
      <trkpt lat="42.70045" lon="0.87536">
        <ele>1154</ele>
        <time>2010-01-01T09:03:31Z</time>
      </trkpt>
      <trkpt lat="42.70039" lon="0.87523">
        <ele>1153</ele>
        <time>2010-01-01T09:03:35Z</time>
      </trkpt>
      <trkpt lat="42.70037" lon="0.8751">
        <ele>1151</ele>
        <time>2010-01-01T09:03:39Z</time>
      </trkpt>
      <trkpt lat="42.70035" lon="0.87496">
        <ele>1150</ele>
        <time>2010-01-01T09:03:43Z</time>
      </trkpt>
      <trkpt lat="42.70033" lon="0.87482">
        <ele>1149</ele>
        <time>2010-01-01T09:03:48Z</time>
      </trkpt>
      <trkpt lat="42.70031" lon="0.87469">
        <ele>1148</ele>
        <time>2010-01-01T09:03:51Z</time>
      </trkpt>
      <trkpt lat="42.70032" lon="0.8745">
        <ele>1147</ele>
        <time>2010-01-01T09:03:57Z</time>
      </trkpt>
      <trkpt lat="42.70029" lon="0.87437">
        <ele>1147</ele>
        <time>2010-01-01T09:04:01Z</time>
      </trkpt>
      <trkpt lat="42.7002" lon="0.87443">
        <ele>1148</ele>
        <time>2010-01-01T09:04:05Z</time>
      </trkpt>
      <trkpt lat="42.7001" lon="0.87449">
        <ele>1148</ele>
        <time>2010-01-01T09:04:10Z</time>
      </trkpt>
      <trkpt lat="42.7" lon="0.87452">
        <ele>1149</ele>
        <time>2010-01-01T09:04:14Z</time>
      </trkpt>
      <trkpt lat="42.69989" lon="0.87453">
        <ele>1149</ele>
        <time>2010-01-01T09:04:18Z</time>
      </trkpt>
      <trkpt lat="42.69978" lon="0.87455">
        <ele>1149</ele>
        <time>2010-01-01T09:04:22Z</time>
      </trkpt>
      <trkpt lat="42.69976" lon="0.87464">
        <ele>1149</ele>
        <time>2010-01-01T09:04:25Z</time>
      </trkpt>
      <trkpt lat="42.69973" lon="0.8744">
        <ele>1148</ele>
        <time>2010-01-01T09:04:32Z</time>
      </trkpt>
      <trkpt lat="42.69971" lon="0.87429">
        <ele>1147</ele>
        <time>2010-01-01T09:04:35Z</time>
      </trkpt>
      <trkpt lat="42.69972" lon="0.87461">
        <ele>1149</ele>
        <time>2010-01-01T09:04:45Z</time>
      </trkpt>
      <trkpt lat="42.69971" lon="0.87465">
        <ele>1149</ele>
        <time>2010-01-01T09:04:46Z</time>
      </trkpt>
      <trkpt lat="42.69963" lon="0.87491">
        <ele>1151</ele>
        <time>2010-01-01T09:04:54Z</time>
      </trkpt>
      <trkpt lat="42.69954" lon="0.87501">
        <ele>1152</ele>
        <time>2010-01-01T09:04:59Z</time>
      </trkpt>
      <trkpt lat="42.69941" lon="0.87513">
        <ele>1156</ele>
        <time>2010-01-01T09:05:06Z</time>
      </trkpt>
      <trkpt lat="42.69932" lon="0.87522">
        <ele>1159</ele>
        <time>2010-01-01T09:05:10Z</time>
      </trkpt>
      <trkpt lat="42.69908" lon="0.87547">
        <ele>1167</ele>
        <time>2010-01-01T09:05:22Z</time>
      </trkpt>
      <trkpt lat="42.69908" lon="0.87564">
        <ele>1170</ele>
        <time>2010-01-01T09:05:27Z</time>
      </trkpt>
      <trkpt lat="42.69911" lon="0.87581">
        <ele>1173</ele>
        <time>2010-01-01T09:05:32Z</time>
      </trkpt>
      <trkpt lat="42.69918" lon="0.87595">
        <ele>1174</ele>
        <time>2010-01-01T09:05:37Z</time>
      </trkpt>
      <trkpt lat="42.69922" lon="0.87609">
        <ele>1175</ele>
        <time>2010-01-01T09:05:42Z</time>
      </trkpt>
      <trkpt lat="42.69927" lon="0.87623">
        <ele>1177</ele>
        <time>2010-01-01T09:05:46Z</time>
      </trkpt>
      <trkpt lat="42.69933" lon="0.87638">
        <ele>1177</ele>
        <time>2010-01-01T09:05:51Z</time>
      </trkpt>
      <trkpt lat="42.69936" lon="0.87654">
        <ele>1179</ele>
        <time>2010-01-01T09:05:56Z</time>
      </trkpt>
      <trkpt lat="42.6994" lon="0.8767">
        <ele>1181</ele>
        <time>2010-01-01T09:06:01Z</time>
      </trkpt>
      <trkpt lat="42.6992" lon="0.87711">
        <ele>1197</ele>
        <time>2010-01-01T09:06:16Z</time>
      </trkpt>
      <trkpt lat="42.69857" lon="0.87762">
        <ele>1226</ele>
        <time>2010-01-01T09:06:45Z</time>
      </trkpt>
      <trkpt lat="42.69864" lon="0.87786">
        <ele>1227</ele>
        <time>2010-01-01T09:06:53Z</time>
      </trkpt>
      <trkpt lat="42.69866" lon="0.87879">
        <ele>1244</ele>
        <time>2010-01-01T09:07:20Z</time>
      </trkpt>
      <trkpt lat="42.69875" lon="0.87977">
        <ele>1264</ele>
        <time>2010-01-01T09:07:49Z</time>
      </trkpt>
      <trkpt lat="42.69879" lon="0.88031">
        <ele>1269</ele>
        <time>2010-01-01T09:08:05Z</time>
      </trkpt>
      <trkpt lat="42.69854" lon="0.88017">
        <ele>1283</ele>
        <time>2010-01-01T09:08:16Z</time>
      </trkpt>
      <trkpt lat="42.69835" lon="0.87973">
        <ele>1286</ele>
        <time>2010-01-01T09:08:31Z</time>
      </trkpt>
      <trkpt lat="42.69796" lon="0.88071">
        <ele>1327</ele>
        <time>2010-01-01T09:09:03Z</time>
      </trkpt>
      <trkpt lat="42.69652" lon="0.88358">
        <ele>1434</ele>
        <time>2010-01-01T09:10:46Z</time>
      </trkpt>
      <trkpt lat="42.69603" lon="0.88288">
        <ele>1457</ele>
        <time>2010-01-01T09:11:14Z</time>
      </trkpt>
      <trkpt lat="42.69574" lon="0.88258">
        <ele>1469</ele>
        <time>2010-01-01T09:11:29Z</time>
      </trkpt>
      <trkpt lat="42.69561" lon="0.88225">
        <ele>1473</ele>
        <time>2010-01-01T09:11:40Z</time>
      </trkpt>
      <trkpt lat="42.69554" lon="0.88194">
        <ele>1477</ele>
        <time>2010-01-01T09:11:49Z</time>
      </trkpt>
      <trkpt lat="42.69546" lon="0.88167">
        <ele>1482</ele>
        <time>2010-01-01T09:11:58Z</time>
      </trkpt>
      <trkpt lat="42.69518" lon="0.88099">
        <ele>1500</ele>
        <time>2010-01-01T09:12:21Z</time>
      </trkpt>
      <trkpt lat="42.69508" lon="0.88078">
        <ele>1509</ele>
        <time>2010-01-01T09:12:28Z</time>
      </trkpt>
      <trkpt lat="42.6949" lon="0.88035">
        <ele>1520</ele>
        <time>2010-01-01T09:12:43Z</time>
      </trkpt>
      <trkpt lat="42.6942" lon="0.87973">
        <ele>1548</ele>
        <time>2010-01-01T09:13:16Z</time>
      </trkpt>
      <trkpt lat="42.69287" lon="0.88243">
        <ele>1629</ele>
        <time>2010-01-01T09:14:52Z</time>
      </trkpt>
      <trkpt lat="42.69285" lon="0.88267">
        <ele>1627</ele>
        <time>2010-01-01T09:14:59Z</time>
      </trkpt>
      <trkpt lat="42.69282" lon="0.88283">
        <ele>1627</ele>
        <time>2010-01-01T09:15:04Z</time>
      </trkpt>
      <trkpt lat="42.69272" lon="0.88313">
        <ele>1630</ele>
        <time>2010-01-01T09:15:13Z</time>
      </trkpt>
      <trkpt lat="42.69251" lon="0.88355">
        <ele>1639</ele>
        <time>2010-01-01T09:15:28Z</time>
      </trkpt>
      <trkpt lat="42.69227" lon="0.88385">
        <ele>1645</ele>
        <time>2010-01-01T09:15:41Z</time>
      </trkpt>
      <trkpt lat="42.69219" lon="0.88399">
        <ele>1646</ele>
        <time>2010-01-01T09:15:46Z</time>
      </trkpt>
      <trkpt lat="42.69213" lon="0.88412">
        <ele>1650</ele>
        <time>2010-01-01T09:15:51Z</time>
      </trkpt>
      <trkpt lat="42.69208" lon="0.88425">
        <ele>1651</ele>
        <time>2010-01-01T09:15:55Z</time>
      </trkpt>
      <trkpt lat="42.69202" lon="0.88438">
        <ele>1653</ele>
        <time>2010-01-01T09:16:00Z</time>
      </trkpt>
      <trkpt lat="42.69197" lon="0.8845">
        <ele>1656</ele>
        <time>2010-01-01T09:16:04Z</time>
      </trkpt>
      <trkpt lat="42.69189" lon="0.88464">
        <ele>1659</ele>
        <time>2010-01-01T09:16:09Z</time>
      </trkpt>
      <trkpt lat="42.69175" lon="0.88485">
        <ele>1665</ele>
        <time>2010-01-01T09:16:18Z</time>
      </trkpt>
      <trkpt lat="42.69165" lon="0.8853">
        <ele>1666</ele>
        <time>2010-01-01T09:16:31Z</time>
      </trkpt>
      <trkpt lat="42.69156" lon="0.88553">
        <ele>1670</ele>
        <time>2010-01-01T09:16:39Z</time>
      </trkpt>
      <trkpt lat="42.69133" lon="0.8858">
        <ele>1675</ele>
        <time>2010-01-01T09:16:51Z</time>
      </trkpt>
      <trkpt lat="42.69101" lon="0.88607">
        <ele>1679</ele>
        <time>2010-01-01T09:17:06Z</time>
      </trkpt>
      <trkpt lat="42.69093" lon="0.88617">
        <ele>1680</ele>
        <time>2010-01-01T09:17:11Z</time>
      </trkpt>
      <trkpt lat="42.69083" lon="0.88635">
        <ele>1681</ele>
        <time>2010-01-01T09:17:17Z</time>
      </trkpt>
      <trkpt lat="42.69079" lon="0.8865">
        <ele>1682</ele>
        <time>2010-01-01T09:17:22Z</time>
      </trkpt>
      <trkpt lat="42.69073" lon="0.88662">
        <ele>1684</ele>
        <time>2010-01-01T09:17:26Z</time>
      </trkpt>
      <trkpt lat="42.69037" lon="0.8868">
        <ele>1700</ele>
        <time>2010-01-01T09:17:42Z</time>
      </trkpt>
      <trkpt lat="42.68984" lon="0.88762">
        <ele>1733</ele>
        <time>2010-01-01T09:18:14Z</time>
      </trkpt>
      <trkpt lat="42.68987" lon="0.88851">
        <ele>1743</ele>
        <time>2010-01-01T09:18:40Z</time>
      </trkpt>
      <trkpt lat="42.69001" lon="0.88931">
        <ele>1756</ele>
        <time>2010-01-01T09:19:04Z</time>
      </trkpt>
      <trkpt lat="42.69011" lon="0.88972">
        <ele>1758</ele>
        <time>2010-01-01T09:19:17Z</time>
      </trkpt>
      <trkpt lat="42.69018" lon="0.88991">
        <ele>1758</ele>
        <time>2010-01-01T09:19:23Z</time>
      </trkpt>
      <trkpt lat="42.69025" lon="0.89006">
        <ele>1758</ele>
        <time>2010-01-01T09:19:28Z</time>
      </trkpt>
      <trkpt lat="42.69035" lon="0.89019">
        <ele>1756</ele>
        <time>2010-01-01T09:19:34Z</time>
      </trkpt>
      <trkpt lat="42.69046" lon="0.89035">
        <ele>1754</ele>
        <time>2010-01-01T09:19:40Z</time>
      </trkpt>
      <trkpt lat="42.69056" lon="0.89047">
        <ele>1753</ele>
        <time>2010-01-01T09:19:46Z</time>
      </trkpt>
      <trkpt lat="42.6907" lon="0.89064">
        <ele>1755</ele>
        <time>2010-01-01T09:19:53Z</time>
      </trkpt>
      <trkpt lat="42.69082" lon="0.89075">
        <ele>1756</ele>
        <time>2010-01-01T09:19:59Z</time>
      </trkpt>
      <trkpt lat="42.69132" lon="0.89126">
        <ele>1771</ele>
        <time>2010-01-01T09:20:24Z</time>
      </trkpt>
      <trkpt lat="42.69148" lon="0.89145">
        <ele>1775</ele>
        <time>2010-01-01T09:20:33Z</time>
      </trkpt>
      <trkpt lat="42.69159" lon="0.89149">
        <ele>1774</ele>
        <time>2010-01-01T09:20:37Z</time>
      </trkpt>
      <trkpt lat="42.69174" lon="0.89161">
        <ele>1774</ele>
        <time>2010-01-01T09:20:44Z</time>
      </trkpt>
      <trkpt lat="42.69176" lon="0.89156">
        <ele>1772</ele>
        <time>2010-01-01T09:20:46Z</time>
      </trkpt>
      <trkpt lat="42.692" lon="0.89166">
        <ele>1768</ele>
        <time>2010-01-01T09:20:56Z</time>
      </trkpt>
      <trkpt lat="42.6922" lon="0.89189">
        <ele>1775</ele>
        <time>2010-01-01T09:21:06Z</time>
      </trkpt>
      <trkpt lat="42.69239" lon="0.89199">
        <ele>1776</ele>
        <time>2010-01-01T09:21:14Z</time>
      </trkpt>
      <trkpt lat="42.69252" lon="0.89212">
        <ele>1778</ele>
        <time>2010-01-01T09:21:21Z</time>
      </trkpt>
      <trkpt lat="42.69261" lon="0.89227">
        <ele>1780</ele>
        <time>2010-01-01T09:21:26Z</time>
      </trkpt>
      <trkpt lat="42.69273" lon="0.89248">
        <ele>1780</ele>
        <time>2010-01-01T09:21:34Z</time>
      </trkpt>
      <trkpt lat="42.69285" lon="0.89263">
        <ele>1778</ele>
        <time>2010-01-01T09:21:41Z</time>
      </trkpt>
      <trkpt lat="42.69294" lon="0.89276">
        <ele>1776</ele>
        <time>2010-01-01T09:21:46Z</time>
      </trkpt>
      <trkpt lat="42.69307" lon="0.89289">
        <ele>1770</ele>
        <time>2010-01-01T09:21:53Z</time>
      </trkpt>
      <trkpt lat="42.69316" lon="0.89302">
        <ele>1768</ele>
        <time>2010-01-01T09:21:58Z</time>
      </trkpt>
      <trkpt lat="42.69321" lon="0.89317">
        <ele>1768</ele>
        <time>2010-01-01T09:22:03Z</time>
      </trkpt>
      <trkpt lat="42.69329" lon="0.89331">
        <ele>1766</ele>
        <time>2010-01-01T09:22:08Z</time>
      </trkpt>
      <trkpt lat="42.69334" lon="0.89344">
        <ele>1765</ele>
        <time>2010-01-01T09:22:12Z</time>
      </trkpt>
      <trkpt lat="42.69339" lon="0.89358">
        <ele>1766</ele>
        <time>2010-01-01T09:22:17Z</time>
      </trkpt>
      <trkpt lat="42.69337" lon="0.89368">
        <ele>1768</ele>
        <time>2010-01-01T09:22:20Z</time>
      </trkpt>
      <trkpt lat="42.69329" lon="0.89375">
        <ele>1772</ele>
        <time>2010-01-01T09:22:24Z</time>
      </trkpt>
      <trkpt lat="42.69289" lon="0.89364">
        <ele>1795</ele>
        <time>2010-01-01T09:22:40Z</time>
      </trkpt>
      <trkpt lat="42.69224" lon="0.89319">
        <ele>1817</ele>
        <time>2010-01-01T09:23:09Z</time>
      </trkpt>
      <trkpt lat="42.69145" lon="0.89313">
        <ele>1830</ele>
        <time>2010-01-01T09:23:41Z</time>
      </trkpt>
      <trkpt lat="42.68975" lon="0.89223">
        <ele>1848</ele>
        <time>2010-01-01T09:24:54Z</time>
      </trkpt>
      <trkpt lat="42.6891" lon="0.89215">
        <ele>1864</ele>
        <time>2010-01-01T09:25:20Z</time>
      </trkpt>
      <trkpt lat="42.68895" lon="0.89212">
        <ele>1868</ele>
        <time>2010-01-01T09:25:26Z</time>
      </trkpt>
      <trkpt lat="42.68843" lon="0.89162">
        <ele>1877</ele>
        <time>2010-01-01T09:25:52Z</time>
      </trkpt>
      <trkpt lat="42.68814" lon="0.89113">
        <ele>1871</ele>
        <time>2010-01-01T09:26:11Z</time>
      </trkpt>
      <trkpt lat="42.68802" lon="0.89117">
        <ele>1877</ele>
        <time>2010-01-01T09:26:15Z</time>
      </trkpt>
      <trkpt lat="42.6879" lon="0.89124">
        <ele>1883</ele>
        <time>2010-01-01T09:26:21Z</time>
      </trkpt>
      <trkpt lat="42.68772" lon="0.89124">
        <ele>1889</ele>
        <time>2010-01-01T09:26:28Z</time>
      </trkpt>
      <trkpt lat="42.68725" lon="0.89117">
        <ele>1896</ele>
        <time>2010-01-01T09:26:47Z</time>
      </trkpt>
      <trkpt lat="42.68568" lon="0.89156">
        <ele>1951</ele>
        <time>2010-01-01T09:27:50Z</time>
      </trkpt>
      <trkpt lat="42.6853" lon="0.89169">
        <ele>1964</ele>
        <time>2010-01-01T09:28:06Z</time>
      </trkpt>
      <trkpt lat="42.6849" lon="0.89186">
        <ele>1975</ele>
        <time>2010-01-01T09:28:23Z</time>
      </trkpt>
      <trkpt lat="42.68479" lon="0.89188">
        <ele>1975</ele>
        <time>2010-01-01T09:28:27Z</time>
      </trkpt>
      <trkpt lat="42.68461" lon="0.89185">
        <ele>1978</ele>
        <time>2010-01-01T09:28:35Z</time>
      </trkpt>
      <trkpt lat="42.68453" lon="0.89164">
        <ele>1979</ele>
        <time>2010-01-01T09:28:42Z</time>
      </trkpt>
      <trkpt lat="42.68447" lon="0.89141">
        <ele>1982</ele>
        <time>2010-01-01T09:28:49Z</time>
      </trkpt>
      <trkpt lat="42.68443" lon="0.89123">
        <ele>1986</ele>
        <time>2010-01-01T09:28:55Z</time>
      </trkpt>
      <trkpt lat="42.68451" lon="0.89106">
        <ele>1987</ele>
        <time>2010-01-01T09:29:01Z</time>
      </trkpt>
      <trkpt lat="42.6846" lon="0.89095">
        <ele>1988</ele>
        <time>2010-01-01T09:29:05Z</time>
      </trkpt>
      <trkpt lat="42.68468" lon="0.89084">
        <ele>1988</ele>
        <time>2010-01-01T09:29:10Z</time>
      </trkpt>
      <trkpt lat="42.68477" lon="0.89076">
        <ele>1986</ele>
        <time>2010-01-01T09:29:14Z</time>
      </trkpt>
      <trkpt lat="42.68485" lon="0.89067">
        <ele>1984</ele>
        <time>2010-01-01T09:29:18Z</time>
      </trkpt>
      <trkpt lat="42.68495" lon="0.89054">
        <ele>1980</ele>
        <time>2010-01-01T09:29:24Z</time>
      </trkpt>
      <trkpt lat="42.68502" lon="0.89042">
        <ele>1979</ele>
        <time>2010-01-01T09:29:28Z</time>
      </trkpt>
      <trkpt lat="42.68508" lon="0.8903">
        <ele>1978</ele>
        <time>2010-01-01T09:29:33Z</time>
      </trkpt>
      <trkpt lat="42.68516" lon="0.8902">
        <ele>1977</ele>
        <time>2010-01-01T09:29:37Z</time>
      </trkpt>
      <trkpt lat="42.68524" lon="0.89009">
        <ele>1975</ele>
        <time>2010-01-01T09:29:41Z</time>
      </trkpt>
      <trkpt lat="42.68533" lon="0.88995">
        <ele>1975</ele>
        <time>2010-01-01T09:29:47Z</time>
      </trkpt>
      <trkpt lat="42.6854" lon="0.88959">
        <ele>1982</ele>
        <time>2010-01-01T09:29:58Z</time>
      </trkpt>
      <trkpt lat="42.68545" lon="0.88943">
        <ele>1984</ele>
        <time>2010-01-01T09:30:03Z</time>
      </trkpt>
      <trkpt lat="42.68548" lon="0.8893">
        <ele>1985</ele>
        <time>2010-01-01T09:30:07Z</time>
      </trkpt>
      <trkpt lat="42.68555" lon="0.88918">
        <ele>1984</ele>
        <time>2010-01-01T09:30:11Z</time>
      </trkpt>
      <trkpt lat="42.6856" lon="0.88906">
        <ele>1984</ele>
        <time>2010-01-01T09:30:16Z</time>
      </trkpt>
      <trkpt lat="42.68565" lon="0.88893">
        <ele>1983</ele>
        <time>2010-01-01T09:30:20Z</time>
      </trkpt>
      <trkpt lat="42.68573" lon="0.8888">
        <ele>1979</ele>
        <time>2010-01-01T09:30:25Z</time>
      </trkpt>
      <trkpt lat="42.68577" lon="0.88867">
        <ele>1976</ele>
        <time>2010-01-01T09:30:29Z</time>
      </trkpt>
      <trkpt lat="42.68568" lon="0.88852">
        <ele>1976</ele>
        <time>2010-01-01T09:30:35Z</time>
      </trkpt>
      <trkpt lat="42.68556" lon="0.88844">
        <ele>1977</ele>
        <time>2010-01-01T09:30:40Z</time>
      </trkpt>
      <trkpt lat="42.68531" lon="0.88827">
        <ele>1980</ele>
        <time>2010-01-01T09:30:51Z</time>
      </trkpt>
      <trkpt lat="42.68505" lon="0.88799">
        <ele>1981</ele>
        <time>2010-01-01T09:31:04Z</time>
      </trkpt>
      <trkpt lat="42.68494" lon="0.88782">
        <ele>1980</ele>
        <time>2010-01-01T09:31:11Z</time>
      </trkpt>
      <trkpt lat="42.68474" lon="0.88761">
        <ele>1986</ele>
        <time>2010-01-01T09:31:21Z</time>
      </trkpt>
      <trkpt lat="42.68466" lon="0.88742">
        <ele>1979</ele>
        <time>2010-01-01T09:31:28Z</time>
      </trkpt>
      <trkpt lat="42.68459" lon="0.88729">
        <ele>1974</ele>
        <time>2010-01-01T09:31:32Z</time>
      </trkpt>
      <trkpt lat="42.6845" lon="0.88707">
        <ele>1962</ele>
        <time>2010-01-01T09:31:40Z</time>
      </trkpt>
      <trkpt lat="42.6844" lon="0.88697">
        <ele>1956</ele>
        <time>2010-01-01T09:31:45Z</time>
      </trkpt>
      <trkpt lat="42.6843" lon="0.88699">
        <ele>1957</ele>
        <time>2010-01-01T09:31:49Z</time>
      </trkpt>
      <trkpt lat="42.68419" lon="0.88704">
        <ele>1960</ele>
        <time>2010-01-01T09:31:53Z</time>
      </trkpt>
      <trkpt lat="42.68408" lon="0.88711">
        <ele>1967</ele>
        <time>2010-01-01T09:31:58Z</time>
      </trkpt>
      <trkpt lat="42.68396" lon="0.88723">
        <ele>1978</ele>
        <time>2010-01-01T09:32:04Z</time>
      </trkpt>
      <trkpt lat="42.68382" lon="0.88729">
        <ele>1985</ele>
        <time>2010-01-01T09:32:10Z</time>
      </trkpt>
      <trkpt lat="42.68372" lon="0.88727">
        <ele>1982</ele>
        <time>2010-01-01T09:32:14Z</time>
      </trkpt>
      <trkpt lat="42.6836" lon="0.88727">
        <ele>1981</ele>
        <time>2010-01-01T09:32:19Z</time>
      </trkpt>
      <trkpt lat="42.68344" lon="0.88731">
        <ele>1975</ele>
        <time>2010-01-01T09:32:26Z</time>
      </trkpt>
      <trkpt lat="42.6833" lon="0.88738">
        <ele>1973</ele>
        <time>2010-01-01T09:32:31Z</time>
      </trkpt>
      <trkpt lat="42.68319" lon="0.8874">
        <ele>1972</ele>
        <time>2010-01-01T09:32:36Z</time>
      </trkpt>
      <trkpt lat="42.68308" lon="0.88744">
        <ele>1972</ele>
        <time>2010-01-01T09:32:41Z</time>
      </trkpt>
      <trkpt lat="42.68296" lon="0.88746">
        <ele>1971</ele>
        <time>2010-01-01T09:32:45Z</time>
      </trkpt>
      <trkpt lat="42.68284" lon="0.88749">
        <ele>1970</ele>
        <time>2010-01-01T09:32:50Z</time>
      </trkpt>
      <trkpt lat="42.68272" lon="0.88752">
        <ele>1972</ele>
        <time>2010-01-01T09:32:55Z</time>
      </trkpt>
      <trkpt lat="42.68261" lon="0.88757">
        <ele>1978</ele>
        <time>2010-01-01T09:33:00Z</time>
      </trkpt>
      <trkpt lat="42.68252" lon="0.88764">
        <ele>1984</ele>
        <time>2010-01-01T09:33:04Z</time>
      </trkpt>
      <trkpt lat="42.68241" lon="0.8877">
        <ele>1986</ele>
        <time>2010-01-01T09:33:09Z</time>
      </trkpt>
      <trkpt lat="42.68229" lon="0.88771">
        <ele>1985</ele>
        <time>2010-01-01T09:33:13Z</time>
      </trkpt>
      <trkpt lat="42.68215" lon="0.88772">
        <ele>1986</ele>
        <time>2010-01-01T09:33:19Z</time>
      </trkpt>
      <trkpt lat="42.68199" lon="0.8877">
        <ele>1986</ele>
        <time>2010-01-01T09:33:25Z</time>
      </trkpt>
      <trkpt lat="42.6818" lon="0.88767">
        <ele>1986</ele>
        <time>2010-01-01T09:33:33Z</time>
      </trkpt>
      <trkpt lat="42.68166" lon="0.88763">
        <ele>1985</ele>
        <time>2010-01-01T09:33:39Z</time>
      </trkpt>
      <trkpt lat="42.68149" lon="0.88755">
        <ele>1982</ele>
        <time>2010-01-01T09:33:46Z</time>
      </trkpt>
      <trkpt lat="42.68133" lon="0.88749">
        <ele>1979</ele>
        <time>2010-01-01T09:33:53Z</time>
      </trkpt>
      <trkpt lat="42.68121" lon="0.88744">
        <ele>1974</ele>
        <time>2010-01-01T09:33:58Z</time>
      </trkpt>
      <trkpt lat="42.68085" lon="0.88737">
        <ele>1980</ele>
        <time>2010-01-01T09:34:12Z</time>
      </trkpt>
      <trkpt lat="42.68076" lon="0.88735">
        <ele>1983</ele>
        <time>2010-01-01T09:34:16Z</time>
      </trkpt>
      <trkpt lat="42.68067" lon="0.88732">
        <ele>1986</ele>
        <time>2010-01-01T09:34:19Z</time>
      </trkpt>
      <trkpt lat="42.68045" lon="0.88713">
        <ele>1982</ele>
        <time>2010-01-01T09:34:30Z</time>
      </trkpt>
      <trkpt lat="42.68032" lon="0.887">
        <ele>1974</ele>
        <time>2010-01-01T09:34:36Z</time>
      </trkpt>
      <trkpt lat="42.68021" lon="0.88703">
        <ele>1973</ele>
        <time>2010-01-01T09:34:41Z</time>
      </trkpt>
      <trkpt lat="42.68009" lon="0.88705">
        <ele>1969</ele>
        <time>2010-01-01T09:34:46Z</time>
      </trkpt>
      <trkpt lat="42.67996" lon="0.88708">
        <ele>1966</ele>
        <time>2010-01-01T09:34:51Z</time>
      </trkpt>
      <trkpt lat="42.67906" lon="0.88758">
        <ele>1986</ele>
        <time>2010-01-01T09:35:30Z</time>
      </trkpt>
      <trkpt lat="42.67917" lon="0.88773">
        <ele>1990</ele>
        <time>2010-01-01T09:35:36Z</time>
      </trkpt>
      <trkpt lat="42.67906" lon="0.88763">
        <ele>1988</ele>
        <time>2010-01-01T09:35:42Z</time>
      </trkpt>
      <trkpt lat="42.67893" lon="0.88751">
        <ele>1981</ele>
        <time>2010-01-01T09:35:48Z</time>
      </trkpt>
      <trkpt lat="42.67883" lon="0.8874">
        <ele>1973</ele>
        <time>2010-01-01T09:35:53Z</time>
      </trkpt>
      <trkpt lat="42.67872" lon="0.88747">
        <ele>1977</ele>
        <time>2010-01-01T09:35:58Z</time>
      </trkpt>
      <trkpt lat="42.6786" lon="0.88749">
        <ele>1979</ele>
        <time>2010-01-01T09:36:03Z</time>
      </trkpt>
      <trkpt lat="42.67848" lon="0.88751">
        <ele>1980</ele>
        <time>2010-01-01T09:36:08Z</time>
      </trkpt>
      <trkpt lat="42.67837" lon="0.88752">
        <ele>1979</ele>
        <time>2010-01-01T09:36:12Z</time>
      </trkpt>
      <trkpt lat="42.67825" lon="0.88745">
        <ele>1970</ele>
        <time>2010-01-01T09:36:17Z</time>
      </trkpt>
      <trkpt lat="42.67815" lon="0.88744">
        <ele>1966</ele>
        <time>2010-01-01T09:36:22Z</time>
      </trkpt>
      <trkpt lat="42.67804" lon="0.88747">
        <ele>1964</ele>
        <time>2010-01-01T09:36:26Z</time>
      </trkpt>
      <trkpt lat="42.67792" lon="0.88746">
        <ele>1964</ele>
        <time>2010-01-01T09:36:31Z</time>
      </trkpt>
      <trkpt lat="42.67783" lon="0.88746">
        <ele>1965</ele>
        <time>2010-01-01T09:36:34Z</time>
      </trkpt>
      <trkpt lat="42.67773" lon="0.88747">
        <ele>1965</ele>
        <time>2010-01-01T09:36:38Z</time>
      </trkpt>
      <trkpt lat="42.67763" lon="0.8875">
        <ele>1965</ele>
        <time>2010-01-01T09:36:42Z</time>
      </trkpt>
      <trkpt lat="42.67752" lon="0.8875">
        <ele>1964</ele>
        <time>2010-01-01T09:36:47Z</time>
      </trkpt>
      <trkpt lat="42.67741" lon="0.88755">
        <ele>1968</ele>
        <time>2010-01-01T09:36:51Z</time>
      </trkpt>
      <trkpt lat="42.67731" lon="0.88758">
        <ele>1970</ele>
        <time>2010-01-01T09:36:56Z</time>
      </trkpt>
      <trkpt lat="42.67721" lon="0.88763">
        <ele>1974</ele>
        <time>2010-01-01T09:37:00Z</time>
      </trkpt>
      <trkpt lat="42.67711" lon="0.88767">
        <ele>1978</ele>
        <time>2010-01-01T09:37:04Z</time>
      </trkpt>
      <trkpt lat="42.67701" lon="0.8877">
        <ele>1980</ele>
        <time>2010-01-01T09:37:08Z</time>
      </trkpt>
      <trkpt lat="42.67688" lon="0.88765">
        <ele>1979</ele>
        <time>2010-01-01T09:37:13Z</time>
      </trkpt>
      <trkpt lat="42.67667" lon="0.88749">
        <ele>1973</ele>
        <time>2010-01-01T09:37:23Z</time>
      </trkpt>
      <trkpt lat="42.67652" lon="0.8873">
        <ele>1971</ele>
        <time>2010-01-01T09:37:31Z</time>
      </trkpt>
      <trkpt lat="42.67642" lon="0.88712">
        <ele>1968</ele>
        <time>2010-01-01T09:37:38Z</time>
      </trkpt>
      <trkpt lat="42.67632" lon="0.88699">
        <ele>1966</ele>
        <time>2010-01-01T09:37:44Z</time>
      </trkpt>
      <trkpt lat="42.67623" lon="0.88688">
        <ele>1964</ele>
        <time>2010-01-01T09:37:49Z</time>
      </trkpt>
      <trkpt lat="42.67612" lon="0.88682">
        <ele>1966</ele>
        <time>2010-01-01T09:37:53Z</time>
      </trkpt>
      <trkpt lat="42.67601" lon="0.88683">
        <ele>1969</ele>
        <time>2010-01-01T09:37:58Z</time>
      </trkpt>
      <trkpt lat="42.6759" lon="0.88681">
        <ele>1971</ele>
        <time>2010-01-01T09:38:02Z</time>
      </trkpt>
      <trkpt lat="42.67578" lon="0.88684">
        <ele>1976</ele>
        <time>2010-01-01T09:38:07Z</time>
      </trkpt>
      <trkpt lat="42.67566" lon="0.88684">
        <ele>1979</ele>
        <time>2010-01-01T09:38:12Z</time>
      </trkpt>
      <trkpt lat="42.67546" lon="0.88675">
        <ele>1979</ele>
        <time>2010-01-01T09:38:20Z</time>
      </trkpt>
      <trkpt lat="42.67534" lon="0.88671">
        <ele>1978</ele>
        <time>2010-01-01T09:38:25Z</time>
      </trkpt>
      <trkpt lat="42.67515" lon="0.88665">
        <ele>1979</ele>
        <time>2010-01-01T09:38:33Z</time>
      </trkpt>
      <trkpt lat="42.675" lon="0.88657">
        <ele>1981</ele>
        <time>2010-01-01T09:38:39Z</time>
      </trkpt>
      <trkpt lat="42.67488" lon="0.88645">
        <ele>1980</ele>
        <time>2010-01-01T09:38:45Z</time>
      </trkpt>
      <trkpt lat="42.67477" lon="0.88631">
        <ele>1977</ele>
        <time>2010-01-01T09:38:51Z</time>
      </trkpt>
      <trkpt lat="42.67466" lon="0.88624">
        <ele>1977</ele>
        <time>2010-01-01T09:38:56Z</time>
      </trkpt>
      <trkpt lat="42.67456" lon="0.88621">
        <ele>1978</ele>
        <time>2010-01-01T09:39:00Z</time>
      </trkpt>
      <trkpt lat="42.67445" lon="0.8862">
        <ele>1980</ele>
        <time>2010-01-01T09:39:05Z</time>
      </trkpt>
      <trkpt lat="42.67434" lon="0.88618">
        <ele>1974</ele>
        <time>2010-01-01T09:39:09Z</time>
      </trkpt>
      <trkpt lat="42.67423" lon="0.88621">
        <ele>1974</ele>
        <time>2010-01-01T09:39:14Z</time>
      </trkpt>
      <trkpt lat="42.67412" lon="0.8862">
        <ele>1972</ele>
        <time>2010-01-01T09:39:18Z</time>
      </trkpt>
      <trkpt lat="42.67397" lon="0.88627">
        <ele>1985</ele>
        <time>2010-01-01T09:39:24Z</time>
      </trkpt>
      <trkpt lat="42.6737" lon="0.88622">
        <ele>1978</ele>
        <time>2010-01-01T09:39:35Z</time>
      </trkpt>
      <trkpt lat="42.67356" lon="0.88624">
        <ele>1979</ele>
        <time>2010-01-01T09:39:41Z</time>
      </trkpt>
      <trkpt lat="42.67329" lon="0.88614">
        <ele>1970</ele>
        <time>2010-01-01T09:39:52Z</time>
      </trkpt>
      <trkpt lat="42.67314" lon="0.88609">
        <ele>1972</ele>
        <time>2010-01-01T09:39:59Z</time>
      </trkpt>
      <trkpt lat="42.67291" lon="0.88597">
        <ele>1972</ele>
        <time>2010-01-01T09:40:08Z</time>
      </trkpt>
      <trkpt lat="42.67279" lon="0.88589">
        <ele>1969</ele>
        <time>2010-01-01T09:40:14Z</time>
      </trkpt>
      <trkpt lat="42.67268" lon="0.88586">
        <ele>1972</ele>
        <time>2010-01-01T09:40:18Z</time>
      </trkpt>
      <trkpt lat="42.67248" lon="0.8858">
        <ele>1979</ele>
        <time>2010-01-01T09:40:27Z</time>
      </trkpt>
      <trkpt lat="42.67235" lon="0.88574">
        <ele>1978</ele>
        <time>2010-01-01T09:40:32Z</time>
      </trkpt>
      <trkpt lat="42.67219" lon="0.88568">
        <ele>1978</ele>
        <time>2010-01-01T09:40:38Z</time>
      </trkpt>
      <trkpt lat="42.67208" lon="0.88562">
        <ele>1977</ele>
        <time>2010-01-01T09:40:43Z</time>
      </trkpt>
      <trkpt lat="42.67197" lon="0.88557">
        <ele>1978</ele>
        <time>2010-01-01T09:40:48Z</time>
      </trkpt>
      <trkpt lat="42.67187" lon="0.88555">
        <ele>1979</ele>
        <time>2010-01-01T09:40:52Z</time>
      </trkpt>
      <trkpt lat="42.67176" lon="0.88554">
        <ele>1981</ele>
        <time>2010-01-01T09:40:57Z</time>
      </trkpt>
      <trkpt lat="42.67165" lon="0.88546">
        <ele>1979</ele>
        <time>2010-01-01T09:41:02Z</time>
      </trkpt>
      <trkpt lat="42.67154" lon="0.88533">
        <ele>1972</ele>
        <time>2010-01-01T09:41:07Z</time>
      </trkpt>
      <trkpt lat="42.67139" lon="0.88524">
        <ele>1967</ele>
        <time>2010-01-01T09:41:14Z</time>
      </trkpt>
      <trkpt lat="42.67124" lon="0.88523">
        <ele>1965</ele>
        <time>2010-01-01T09:41:20Z</time>
      </trkpt>
      <trkpt lat="42.67113" lon="0.88525">
        <ele>1966</ele>
        <time>2010-01-01T09:41:24Z</time>
      </trkpt>
      <trkpt lat="42.67103" lon="0.88531">
        <ele>1969</ele>
        <time>2010-01-01T09:41:29Z</time>
      </trkpt>
      <trkpt lat="42.67089" lon="0.88538">
        <ele>1972</ele>
        <time>2010-01-01T09:41:35Z</time>
      </trkpt>
      <trkpt lat="42.67079" lon="0.88544">
        <ele>1976</ele>
        <time>2010-01-01T09:41:39Z</time>
      </trkpt>
      <trkpt lat="42.67068" lon="0.88549">
        <ele>1980</ele>
        <time>2010-01-01T09:41:44Z</time>
      </trkpt>
      <trkpt lat="42.67055" lon="0.88552">
        <ele>1981</ele>
        <time>2010-01-01T09:41:49Z</time>
      </trkpt>
      <trkpt lat="42.67043" lon="0.88553">
        <ele>1982</ele>
        <time>2010-01-01T09:41:54Z</time>
      </trkpt>
      <trkpt lat="42.67031" lon="0.88552">
        <ele>1981</ele>
        <time>2010-01-01T09:41:59Z</time>
      </trkpt>
      <trkpt lat="42.67017" lon="0.8855">
        <ele>1980</ele>
        <time>2010-01-01T09:42:04Z</time>
      </trkpt>
      <trkpt lat="42.67003" lon="0.88547">
        <ele>1978</ele>
        <time>2010-01-01T09:42:10Z</time>
      </trkpt>
      <trkpt lat="42.6699" lon="0.88546">
        <ele>1980</ele>
        <time>2010-01-01T09:42:15Z</time>
      </trkpt>
      <trkpt lat="42.66975" lon="0.88542">
        <ele>1982</ele>
        <time>2010-01-01T09:42:21Z</time>
      </trkpt>
      <trkpt lat="42.66963" lon="0.88534">
        <ele>1979</ele>
        <time>2010-01-01T09:42:27Z</time>
      </trkpt>
      <trkpt lat="42.66948" lon="0.88521">
        <ele>1974</ele>
        <time>2010-01-01T09:42:34Z</time>
      </trkpt>
      <trkpt lat="42.66934" lon="0.88513">
        <ele>1974</ele>
        <time>2010-01-01T09:42:40Z</time>
      </trkpt>
      <trkpt lat="42.66921" lon="0.88506">
        <ele>1976</ele>
        <time>2010-01-01T09:42:45Z</time>
      </trkpt>
      <trkpt lat="42.66911" lon="0.8849">
        <ele>1974</ele>
        <time>2010-01-01T09:42:52Z</time>
      </trkpt>
      <trkpt lat="42.669" lon="0.88485">
        <ele>1974</ele>
        <time>2010-01-01T09:42:56Z</time>
      </trkpt>
      <trkpt lat="42.66888" lon="0.88481">
        <ele>1975</ele>
        <time>2010-01-01T09:43:01Z</time>
      </trkpt>
      <trkpt lat="42.66876" lon="0.88478">
        <ele>1974</ele>
        <time>2010-01-01T09:43:06Z</time>
      </trkpt>
      <trkpt lat="42.66865" lon="0.88473">
        <ele>1973</ele>
        <time>2010-01-01T09:43:11Z</time>
      </trkpt>
      <trkpt lat="42.66854" lon="0.88467">
        <ele>1972</ele>
        <time>2010-01-01T09:43:16Z</time>
      </trkpt>
      <trkpt lat="42.66845" lon="0.88454">
        <ele>1970</ele>
        <time>2010-01-01T09:43:21Z</time>
      </trkpt>
      <trkpt lat="42.66836" lon="0.88446">
        <ele>1968</ele>
        <time>2010-01-01T09:43:25Z</time>
      </trkpt>
      <trkpt lat="42.66824" lon="0.88443">
        <ele>1969</ele>
        <time>2010-01-01T09:43:30Z</time>
      </trkpt>
      <trkpt lat="42.66811" lon="0.8845">
        <ele>1972</ele>
        <time>2010-01-01T09:43:36Z</time>
      </trkpt>
      <trkpt lat="42.66798" lon="0.88446">
        <ele>1971</ele>
        <time>2010-01-01T09:43:41Z</time>
      </trkpt>
      <trkpt lat="42.66786" lon="0.88451">
        <ele>1974</ele>
        <time>2010-01-01T09:43:46Z</time>
      </trkpt>
      <trkpt lat="42.6677" lon="0.88448">
        <ele>1974</ele>
        <time>2010-01-01T09:43:53Z</time>
      </trkpt>
      <trkpt lat="42.66758" lon="0.8844">
        <ele>1971</ele>
        <time>2010-01-01T09:43:58Z</time>
      </trkpt>
      <trkpt lat="42.66748" lon="0.88438">
        <ele>1971</ele>
        <time>2010-01-01T09:44:02Z</time>
      </trkpt>
      <trkpt lat="42.66735" lon="0.88446">
        <ele>1973</ele>
        <time>2010-01-01T09:44:08Z</time>
      </trkpt>
      <trkpt lat="42.66724" lon="0.88453">
        <ele>1974</ele>
        <time>2010-01-01T09:44:12Z</time>
      </trkpt>
      <trkpt lat="42.66712" lon="0.88458">
        <ele>1976</ele>
        <time>2010-01-01T09:44:17Z</time>
      </trkpt>
      <trkpt lat="42.66699" lon="0.88457">
        <ele>1974</ele>
        <time>2010-01-01T09:44:22Z</time>
      </trkpt>
      <trkpt lat="42.66688" lon="0.88465">
        <ele>1976</ele>
        <time>2010-01-01T09:44:28Z</time>
      </trkpt>
      <trkpt lat="42.66675" lon="0.88468">
        <ele>1973</ele>
        <time>2010-01-01T09:44:33Z</time>
      </trkpt>
      <trkpt lat="42.66663" lon="0.8847">
        <ele>1971</ele>
        <time>2010-01-01T09:44:38Z</time>
      </trkpt>
      <trkpt lat="42.66653" lon="0.88483">
        <ele>1974</ele>
        <time>2010-01-01T09:44:43Z</time>
      </trkpt>
      <trkpt lat="42.66638" lon="0.88502">
        <ele>1980</ele>
        <time>2010-01-01T09:44:51Z</time>
      </trkpt>
      <trkpt lat="42.66623" lon="0.88511">
        <ele>1981</ele>
        <time>2010-01-01T09:44:58Z</time>
      </trkpt>
      <trkpt lat="42.66609" lon="0.88514">
        <ele>1980</ele>
        <time>2010-01-01T09:45:04Z</time>
      </trkpt>
      <trkpt lat="42.66594" lon="0.88516">
        <ele>1976</ele>
        <time>2010-01-01T09:45:10Z</time>
      </trkpt>
      <trkpt lat="42.66584" lon="0.88524">
        <ele>1976</ele>
        <time>2010-01-01T09:45:14Z</time>
      </trkpt>
      <trkpt lat="42.66572" lon="0.88537">
        <ele>1974</ele>
        <time>2010-01-01T09:45:20Z</time>
      </trkpt>
      <trkpt lat="42.66564" lon="0.88549">
        <ele>1973</ele>
        <time>2010-01-01T09:45:25Z</time>
      </trkpt>
      <trkpt lat="42.66555" lon="0.88564">
        <ele>1973</ele>
        <time>2010-01-01T09:45:31Z</time>
      </trkpt>
      <trkpt lat="42.66548" lon="0.88579">
        <ele>1974</ele>
        <time>2010-01-01T09:45:36Z</time>
      </trkpt>
      <trkpt lat="42.6654" lon="0.88592">
        <ele>1973</ele>
        <time>2010-01-01T09:45:41Z</time>
      </trkpt>
      <trkpt lat="42.66534" lon="0.88606">
        <ele>1973</ele>
        <time>2010-01-01T09:45:46Z</time>
      </trkpt>
      <trkpt lat="42.66531" lon="0.8863">
        <ele>1975</ele>
        <time>2010-01-01T09:45:53Z</time>
      </trkpt>
      <trkpt lat="42.66529" lon="0.88647">
        <ele>1977</ele>
        <time>2010-01-01T09:45:58Z</time>
      </trkpt>
      <trkpt lat="42.66531" lon="0.88665">
        <ele>1980</ele>
        <time>2010-01-01T09:46:03Z</time>
      </trkpt>
      <trkpt lat="42.66538" lon="0.88678">
        <ele>1984</ele>
        <time>2010-01-01T09:46:08Z</time>
      </trkpt>
      <trkpt lat="42.66537" lon="0.88696">
        <ele>1986</ele>
        <time>2010-01-01T09:46:13Z</time>
      </trkpt>
      <trkpt lat="42.66526" lon="0.887">
        <ele>1984</ele>
        <time>2010-01-01T09:46:18Z</time>
      </trkpt>
      <trkpt lat="42.66512" lon="0.88709">
        <ele>1984</ele>
        <time>2010-01-01T09:46:24Z</time>
      </trkpt>
      <trkpt lat="42.66499" lon="0.88718">
        <ele>1985</ele>
        <time>2010-01-01T09:46:30Z</time>
      </trkpt>
      <trkpt lat="42.66487" lon="0.8872">
        <ele>1984</ele>
        <time>2010-01-01T09:46:34Z</time>
      </trkpt>
      <trkpt lat="42.66475" lon="0.88721">
        <ele>1982</ele>
        <time>2010-01-01T09:46:39Z</time>
      </trkpt>
      <trkpt lat="42.66464" lon="0.88719">
        <ele>1980</ele>
        <time>2010-01-01T09:46:44Z</time>
      </trkpt>
      <trkpt lat="42.66455" lon="0.8872">
        <ele>1978</ele>
        <time>2010-01-01T09:46:48Z</time>
      </trkpt>
      <trkpt lat="42.66441" lon="0.88731">
        <ele>1979</ele>
        <time>2010-01-01T09:46:54Z</time>
      </trkpt>
      <trkpt lat="42.66426" lon="0.88743">
        <ele>1978</ele>
        <time>2010-01-01T09:47:01Z</time>
      </trkpt>
      <trkpt lat="42.66407" lon="0.88763">
        <ele>1980</ele>
        <time>2010-01-01T09:47:11Z</time>
      </trkpt>
      <trkpt lat="42.66397" lon="0.88775">
        <ele>1980</ele>
        <time>2010-01-01T09:47:16Z</time>
      </trkpt>
      <trkpt lat="42.66386" lon="0.88793">
        <ele>1980</ele>
        <time>2010-01-01T09:47:23Z</time>
      </trkpt>
      <trkpt lat="42.66377" lon="0.8882">
        <ele>1980</ele>
        <time>2010-01-01T09:47:32Z</time>
      </trkpt>
      <trkpt lat="42.66374" lon="0.88835">
        <ele>1981</ele>
        <time>2010-01-01T09:47:36Z</time>
      </trkpt>
      <trkpt lat="42.66371" lon="0.88851">
        <ele>1981</ele>
        <time>2010-01-01T09:47:41Z</time>
      </trkpt>
      <trkpt lat="42.66367" lon="0.88868">
        <ele>1982</ele>
        <time>2010-01-01T09:47:46Z</time>
      </trkpt>
      <trkpt lat="42.66362" lon="0.88886">
        <ele>1981</ele>
        <time>2010-01-01T09:47:52Z</time>
      </trkpt>
      <trkpt lat="42.66357" lon="0.88902">
        <ele>1980</ele>
        <time>2010-01-01T09:47:57Z</time>
      </trkpt>
      <trkpt lat="42.66352" lon="0.88916">
        <ele>1979</ele>
        <time>2010-01-01T09:48:02Z</time>
      </trkpt>
      <trkpt lat="42.66349" lon="0.88933">
        <ele>1979</ele>
        <time>2010-01-01T09:48:07Z</time>
      </trkpt>
      <trkpt lat="42.66345" lon="0.88946">
        <ele>1978</ele>
        <time>2010-01-01T09:48:11Z</time>
      </trkpt>
      <trkpt lat="42.66342" lon="0.8896">
        <ele>1979</ele>
        <time>2010-01-01T09:48:15Z</time>
      </trkpt>
      <trkpt lat="42.66339" lon="0.88976">
        <ele>1979</ele>
        <time>2010-01-01T09:48:20Z</time>
      </trkpt>
      <trkpt lat="42.66337" lon="0.88994">
        <ele>1979</ele>
        <time>2010-01-01T09:48:26Z</time>
      </trkpt>
      <trkpt lat="42.66335" lon="0.89008">
        <ele>1979</ele>
        <time>2010-01-01T09:48:30Z</time>
      </trkpt>
      <trkpt lat="42.66334" lon="0.89023">
        <ele>1978</ele>
        <time>2010-01-01T09:48:34Z</time>
      </trkpt>
      <trkpt lat="42.66337" lon="0.8904">
        <ele>1978</ele>
        <time>2010-01-01T09:48:39Z</time>
      </trkpt>
      <trkpt lat="42.6634" lon="0.89057">
        <ele>1978</ele>
        <time>2010-01-01T09:48:44Z</time>
      </trkpt>
      <trkpt lat="42.66345" lon="0.89077">
        <ele>1978</ele>
        <time>2010-01-01T09:48:50Z</time>
      </trkpt>
      <trkpt lat="42.66349" lon="0.89096">
        <ele>1979</ele>
        <time>2010-01-01T09:48:56Z</time>
      </trkpt>
      <trkpt lat="42.66355" lon="0.89125">
        <ele>1981</ele>
        <time>2010-01-01T09:49:05Z</time>
      </trkpt>
      <trkpt lat="42.66357" lon="0.89145">
        <ele>1982</ele>
        <time>2010-01-01T09:49:11Z</time>
      </trkpt>
      <trkpt lat="42.66354" lon="0.8917">
        <ele>1980</ele>
        <time>2010-01-01T09:49:19Z</time>
      </trkpt>
      <trkpt lat="42.66346" lon="0.89197">
        <ele>1979</ele>
        <time>2010-01-01T09:49:27Z</time>
      </trkpt>
      <trkpt lat="42.66339" lon="0.89216">
        <ele>1979</ele>
        <time>2010-01-01T09:49:33Z</time>
      </trkpt>
      <trkpt lat="42.66331" lon="0.8923">
        <ele>1978</ele>
        <time>2010-01-01T09:49:39Z</time>
      </trkpt>
      <trkpt lat="42.66326" lon="0.89245">
        <ele>1978</ele>
        <time>2010-01-01T09:49:43Z</time>
      </trkpt>
      <trkpt lat="42.66322" lon="0.8926">
        <ele>1979</ele>
        <time>2010-01-01T09:49:48Z</time>
      </trkpt>
      <trkpt lat="42.66316" lon="0.89278">
        <ele>1979</ele>
        <time>2010-01-01T09:49:54Z</time>
      </trkpt>
      <trkpt lat="42.66318" lon="0.89296">
        <ele>1980</ele>
        <time>2010-01-01T09:49:59Z</time>
      </trkpt>
      <trkpt lat="42.66321" lon="0.89312">
        <ele>1980</ele>
        <time>2010-01-01T09:50:04Z</time>
      </trkpt>
      <trkpt lat="42.6633" lon="0.89335">
        <ele>1982</ele>
        <time>2010-01-01T09:50:12Z</time>
      </trkpt>
      <trkpt lat="42.66329" lon="0.89366">
        <ele>1982</ele>
        <time>2010-01-01T09:50:21Z</time>
      </trkpt>
      <trkpt lat="42.66322" lon="0.89389">
        <ele>1980</ele>
        <time>2010-01-01T09:50:28Z</time>
      </trkpt>
      <trkpt lat="42.66316" lon="0.89406">
        <ele>1979</ele>
        <time>2010-01-01T09:50:34Z</time>
      </trkpt>
      <trkpt lat="42.66311" lon="0.89422">
        <ele>1978</ele>
        <time>2010-01-01T09:50:39Z</time>
      </trkpt>
      <trkpt lat="42.66306" lon="0.89439">
        <ele>1978</ele>
        <time>2010-01-01T09:50:44Z</time>
      </trkpt>
      <trkpt lat="42.663" lon="0.89457">
        <ele>1979</ele>
        <time>2010-01-01T09:50:50Z</time>
      </trkpt>
      <trkpt lat="42.66297" lon="0.89471">
        <ele>1979</ele>
        <time>2010-01-01T09:50:54Z</time>
      </trkpt>
      <trkpt lat="42.66293" lon="0.89486">
        <ele>1978</ele>
        <time>2010-01-01T09:50:59Z</time>
      </trkpt>
      <trkpt lat="42.6629" lon="0.89508">
        <ele>1977</ele>
        <time>2010-01-01T09:51:06Z</time>
      </trkpt>
      <trkpt lat="42.66289" lon="0.89531">
        <ele>1977</ele>
        <time>2010-01-01T09:51:13Z</time>
      </trkpt>
      <trkpt lat="42.66289" lon="0.89545">
        <ele>1977</ele>
        <time>2010-01-01T09:51:16Z</time>
      </trkpt>
      <trkpt lat="42.66291" lon="0.89559">
        <ele>1977</ele>
        <time>2010-01-01T09:51:21Z</time>
      </trkpt>
      <trkpt lat="42.66293" lon="0.89575">
        <ele>1978</ele>
        <time>2010-01-01T09:51:26Z</time>
      </trkpt>
      <trkpt lat="42.66294" lon="0.89602">
        <ele>1978</ele>
        <time>2010-01-01T09:51:33Z</time>
      </trkpt>
      <trkpt lat="42.66296" lon="0.89628">
        <ele>1977</ele>
        <time>2010-01-01T09:51:41Z</time>
      </trkpt>
      <trkpt lat="42.66294" lon="0.89648">
        <ele>1977</ele>
        <time>2010-01-01T09:51:47Z</time>
      </trkpt>
      <trkpt lat="42.66293" lon="0.89663">
        <ele>1977</ele>
        <time>2010-01-01T09:51:52Z</time>
      </trkpt>
      <trkpt lat="42.66291" lon="0.89679">
        <ele>1977</ele>
        <time>2010-01-01T09:51:56Z</time>
      </trkpt>
      <trkpt lat="42.66287" lon="0.89694">
        <ele>1978</ele>
        <time>2010-01-01T09:52:01Z</time>
      </trkpt>
      <trkpt lat="42.66284" lon="0.89707">
        <ele>1979</ele>
        <time>2010-01-01T09:52:05Z</time>
      </trkpt>
      <trkpt lat="42.6628" lon="0.89723">
        <ele>1980</ele>
        <time>2010-01-01T09:52:10Z</time>
      </trkpt>
      <trkpt lat="42.66276" lon="0.89741">
        <ele>1979</ele>
        <time>2010-01-01T09:52:15Z</time>
      </trkpt>
      <trkpt lat="42.66275" lon="0.8976">
        <ele>1979</ele>
        <time>2010-01-01T09:52:21Z</time>
      </trkpt>
      <trkpt lat="42.66271" lon="0.89776">
        <ele>1978</ele>
        <time>2010-01-01T09:52:26Z</time>
      </trkpt>
      <trkpt lat="42.66268" lon="0.89792">
        <ele>1977</ele>
        <time>2010-01-01T09:52:31Z</time>
      </trkpt>
      <trkpt lat="42.66266" lon="0.89811">
        <ele>1977</ele>
        <time>2010-01-01T09:52:36Z</time>
      </trkpt>
      <trkpt lat="42.66267" lon="0.89825">
        <ele>1977</ele>
        <time>2010-01-01T09:52:41Z</time>
      </trkpt>
      <trkpt lat="42.66267" lon="0.89841">
        <ele>1978</ele>
        <time>2010-01-01T09:52:45Z</time>
      </trkpt>
      <trkpt lat="42.66267" lon="0.89856">
        <ele>1979</ele>
        <time>2010-01-01T09:52:50Z</time>
      </trkpt>
      <trkpt lat="42.66264" lon="0.8987">
        <ele>1978</ele>
        <time>2010-01-01T09:52:54Z</time>
      </trkpt>
      <trkpt lat="42.66258" lon="0.89883">
        <ele>1976</ele>
        <time>2010-01-01T09:52:59Z</time>
      </trkpt>
      <trkpt lat="42.66253" lon="0.89896">
        <ele>1975</ele>
        <time>2010-01-01T09:53:03Z</time>
      </trkpt>
      <trkpt lat="42.66247" lon="0.89908">
        <ele>1974</ele>
        <time>2010-01-01T09:53:07Z</time>
      </trkpt>
      <trkpt lat="42.66237" lon="0.89917">
        <ele>1972</ele>
        <time>2010-01-01T09:53:12Z</time>
      </trkpt>
      <trkpt lat="42.66226" lon="0.89923">
        <ele>1971</ele>
        <time>2010-01-01T09:53:17Z</time>
      </trkpt>
      <trkpt lat="42.66216" lon="0.89929">
        <ele>1970</ele>
        <time>2010-01-01T09:53:21Z</time>
      </trkpt>
      <trkpt lat="42.66208" lon="0.89934">
        <ele>1970</ele>
        <time>2010-01-01T09:53:25Z</time>
      </trkpt>
      <trkpt lat="42.66197" lon="0.89938">
        <ele>1970</ele>
        <time>2010-01-01T09:53:29Z</time>
      </trkpt>
      <trkpt lat="42.66188" lon="0.89946">
        <ele>1970</ele>
        <time>2010-01-01T09:53:34Z</time>
      </trkpt>
      <trkpt lat="42.66178" lon="0.89951">
        <ele>1971</ele>
        <time>2010-01-01T09:53:38Z</time>
      </trkpt>
      <trkpt lat="42.66167" lon="0.89956">
        <ele>1971</ele>
        <time>2010-01-01T09:53:42Z</time>
      </trkpt>
      <trkpt lat="42.66157" lon="0.89961">
        <ele>1971</ele>
        <time>2010-01-01T09:53:47Z</time>
      </trkpt>
      <trkpt lat="42.66147" lon="0.89965">
        <ele>1971</ele>
        <time>2010-01-01T09:53:51Z</time>
      </trkpt>
      <trkpt lat="42.66137" lon="0.89968">
        <ele>1971</ele>
        <time>2010-01-01T09:53:55Z</time>
      </trkpt>
      <trkpt lat="42.66126" lon="0.8997">
        <ele>1971</ele>
        <time>2010-01-01T09:53:59Z</time>
      </trkpt>
      <trkpt lat="42.66115" lon="0.89969">
        <ele>1970</ele>
        <time>2010-01-01T09:54:04Z</time>
      </trkpt>
      <trkpt lat="42.66105" lon="0.89968">
        <ele>1969</ele>
        <time>2010-01-01T09:54:08Z</time>
      </trkpt>
      <trkpt lat="42.66094" lon="0.89964">
        <ele>1968</ele>
        <time>2010-01-01T09:54:12Z</time>
      </trkpt>
      <trkpt lat="42.66083" lon="0.89958">
        <ele>1966</ele>
        <time>2010-01-01T09:54:17Z</time>
      </trkpt>
      <trkpt lat="42.66071" lon="0.89957">
        <ele>1965</ele>
        <time>2010-01-01T09:54:22Z</time>
      </trkpt>
      <trkpt lat="42.66061" lon="0.89958">
        <ele>1965</ele>
        <time>2010-01-01T09:54:26Z</time>
      </trkpt>
      <trkpt lat="42.66052" lon="0.89961">
        <ele>1964</ele>
        <time>2010-01-01T09:54:30Z</time>
      </trkpt>
      <trkpt lat="42.66042" lon="0.89967">
        <ele>1964</ele>
        <time>2010-01-01T09:54:34Z</time>
      </trkpt>
      <trkpt lat="42.66032" lon="0.89969">
        <ele>1964</ele>
        <time>2010-01-01T09:54:38Z</time>
      </trkpt>
      <trkpt lat="42.66021" lon="0.89968">
        <ele>1963</ele>
        <time>2010-01-01T09:54:42Z</time>
      </trkpt>
      <trkpt lat="42.66012" lon="0.89962">
        <ele>1962</ele>
        <time>2010-01-01T09:54:46Z</time>
      </trkpt>
      <trkpt lat="42.66002" lon="0.89962">
        <ele>1961</ele>
        <time>2010-01-01T09:54:50Z</time>
      </trkpt>
      <trkpt lat="42.65993" lon="0.89962">
        <ele>1960</ele>
        <time>2010-01-01T09:54:54Z</time>
      </trkpt>
      <trkpt lat="42.65983" lon="0.89962">
        <ele>1959</ele>
        <time>2010-01-01T09:54:58Z</time>
      </trkpt>
      <trkpt lat="42.65972" lon="0.8996">
        <ele>1958</ele>
        <time>2010-01-01T09:55:02Z</time>
      </trkpt>
      <trkpt lat="42.65964" lon="0.89958">
        <ele>1957</ele>
        <time>2010-01-01T09:55:06Z</time>
      </trkpt>
      <trkpt lat="42.65954" lon="0.89959">
        <ele>1956</ele>
        <time>2010-01-01T09:55:10Z</time>
      </trkpt>
      <trkpt lat="42.65943" lon="0.89959">
        <ele>1955</ele>
        <time>2010-01-01T09:55:14Z</time>
      </trkpt>
      <trkpt lat="42.65933" lon="0.89954">
        <ele>1954</ele>
        <time>2010-01-01T09:55:19Z</time>
      </trkpt>
      <trkpt lat="42.65923" lon="0.89947">
        <ele>1952</ele>
        <time>2010-01-01T09:55:23Z</time>
      </trkpt>
      <trkpt lat="42.65913" lon="0.8994">
        <ele>1951</ele>
        <time>2010-01-01T09:55:27Z</time>
      </trkpt>
      <trkpt lat="42.65905" lon="0.89936">
        <ele>1950</ele>
        <time>2010-01-01T09:55:31Z</time>
      </trkpt>
      <trkpt lat="42.65896" lon="0.89935">
        <ele>1950</ele>
        <time>2010-01-01T09:55:35Z</time>
      </trkpt>
      <trkpt lat="42.65886" lon="0.89938">
        <ele>1951</ele>
        <time>2010-01-01T09:55:39Z</time>
      </trkpt>
      <trkpt lat="42.65878" lon="0.89942">
        <ele>1951</ele>
        <time>2010-01-01T09:55:42Z</time>
      </trkpt>
      <trkpt lat="42.65878" lon="0.89953">
        <ele>1953</ele>
        <time>2010-01-01T09:55:45Z</time>
      </trkpt>
      <trkpt lat="42.65867" lon="0.89961">
        <ele>1955</ele>
        <time>2010-01-01T09:55:50Z</time>
      </trkpt>
      <trkpt lat="42.65868" lon="0.89975">
        <ele>1958</ele>
        <time>2010-01-01T09:55:54Z</time>
      </trkpt>
      <trkpt lat="42.65867" lon="0.89989">
        <ele>1961</ele>
        <time>2010-01-01T09:55:58Z</time>
      </trkpt>
      <trkpt lat="42.65871" lon="0.90001">
        <ele>1963</ele>
        <time>2010-01-01T09:56:02Z</time>
      </trkpt>
      <trkpt lat="42.65877" lon="0.90011">
        <ele>1964</ele>
        <time>2010-01-01T09:56:06Z</time>
      </trkpt>
      <trkpt lat="42.65884" lon="0.90022">
        <ele>1965</ele>
        <time>2010-01-01T09:56:10Z</time>
      </trkpt>
      <trkpt lat="42.65892" lon="0.90031">
        <ele>1966</ele>
        <time>2010-01-01T09:56:14Z</time>
      </trkpt>
      <trkpt lat="42.65896" lon="0.90042">
        <ele>1968</ele>
        <time>2010-01-01T09:56:18Z</time>
      </trkpt>
      <trkpt lat="42.65895" lon="0.90051">
        <ele>1971</ele>
        <time>2010-01-01T09:56:21Z</time>
      </trkpt>
      <trkpt lat="42.65895" lon="0.90063">
        <ele>1973</ele>
        <time>2010-01-01T09:56:24Z</time>
      </trkpt>
      <trkpt lat="42.65896" lon="0.90077">
        <ele>1977</ele>
        <time>2010-01-01T09:56:28Z</time>
      </trkpt>
      <trkpt lat="42.65899" lon="0.9009">
        <ele>1979</ele>
        <time>2010-01-01T09:56:32Z</time>
      </trkpt>
      <trkpt lat="42.65901" lon="0.90104">
        <ele>1981</ele>
        <time>2010-01-01T09:56:37Z</time>
      </trkpt>
      <trkpt lat="42.65904" lon="0.90116">
        <ele>1982</ele>
        <time>2010-01-01T09:56:40Z</time>
      </trkpt>
      <trkpt lat="42.65906" lon="0.90128">
        <ele>1983</ele>
        <time>2010-01-01T09:56:44Z</time>
      </trkpt>
      <trkpt lat="42.65906" lon="0.90142">
        <ele>1984</ele>
        <time>2010-01-01T09:56:48Z</time>
      </trkpt>
      <trkpt lat="42.65905" lon="0.90156">
        <ele>1985</ele>
        <time>2010-01-01T09:56:52Z</time>
      </trkpt>
      <trkpt lat="42.65908" lon="0.9017">
        <ele>1986</ele>
        <time>2010-01-01T09:56:56Z</time>
      </trkpt>
      <trkpt lat="42.65908" lon="0.90181">
        <ele>1986</ele>
        <time>2010-01-01T09:57:00Z</time>
      </trkpt>
      <trkpt lat="42.65909" lon="0.90194">
        <ele>1987</ele>
        <time>2010-01-01T09:57:04Z</time>
      </trkpt>
      <trkpt lat="42.65907" lon="0.90207">
        <ele>1987</ele>
        <time>2010-01-01T09:57:08Z</time>
      </trkpt>
      <trkpt lat="42.65902" lon="0.90218">
        <ele>1989</ele>
        <time>2010-01-01T09:57:11Z</time>
      </trkpt>
      <trkpt lat="42.65904" lon="0.90232">
        <ele>1989</ele>
        <time>2010-01-01T09:57:16Z</time>
      </trkpt>
      <trkpt lat="42.65904" lon="0.90247">
        <ele>1989</ele>
        <time>2010-01-01T09:57:20Z</time>
      </trkpt>
      <trkpt lat="42.65906" lon="0.90258">
        <ele>1989</ele>
        <time>2010-01-01T09:57:23Z</time>
      </trkpt>
      <trkpt lat="42.65902" lon="0.90267">
        <ele>1990</ele>
        <time>2010-01-01T09:57:27Z</time>
      </trkpt>
      <trkpt lat="42.65901" lon="0.90281">
        <ele>1991</ele>
        <time>2010-01-01T09:57:31Z</time>
      </trkpt>
      <trkpt lat="42.659" lon="0.90295">
        <ele>1992</ele>
        <time>2010-01-01T09:57:35Z</time>
      </trkpt>
      <trkpt lat="42.65898" lon="0.90308">
        <ele>1994</ele>
        <time>2010-01-01T09:57:39Z</time>
      </trkpt>
      <trkpt lat="42.65899" lon="0.90322">
        <ele>1995</ele>
        <time>2010-01-01T09:57:43Z</time>
      </trkpt>
      <trkpt lat="42.65902" lon="0.90332">
        <ele>1997</ele>
        <time>2010-01-01T09:57:46Z</time>
      </trkpt>
      <trkpt lat="42.65898" lon="0.90345">
        <ele>1999</ele>
        <time>2010-01-01T09:57:50Z</time>
      </trkpt>
      <trkpt lat="42.659" lon="0.90358">
        <ele>2001</ele>
        <time>2010-01-01T09:57:54Z</time>
      </trkpt>
      <trkpt lat="42.65898" lon="0.90368">
        <ele>2003</ele>
        <time>2010-01-01T09:57:57Z</time>
      </trkpt>
      <trkpt lat="42.65908" lon="0.90367">
        <ele>2003</ele>
        <time>2010-01-01T09:58:01Z</time>
      </trkpt>
      <trkpt lat="42.65918" lon="0.90364">
        <ele>2002</ele>
        <time>2010-01-01T09:58:05Z</time>
      </trkpt>
      <trkpt lat="42.65929" lon="0.90362">
        <ele>2003</ele>
        <time>2010-01-01T09:58:10Z</time>
      </trkpt>
      <trkpt lat="42.6594" lon="0.90362">
        <ele>2004</ele>
        <time>2010-01-01T09:58:14Z</time>
      </trkpt>
      <trkpt lat="42.6595" lon="0.90363">
        <ele>2004</ele>
        <time>2010-01-01T09:58:18Z</time>
      </trkpt>
      <trkpt lat="42.6596" lon="0.90371">
        <ele>2004</ele>
        <time>2010-01-01T09:58:23Z</time>
      </trkpt>
      <trkpt lat="42.65966" lon="0.90383">
        <ele>2005</ele>
        <time>2010-01-01T09:58:27Z</time>
      </trkpt>
      <trkpt lat="42.65965" lon="0.90397">
        <ele>2007</ele>
        <time>2010-01-01T09:58:31Z</time>
      </trkpt>
      <trkpt lat="42.65961" lon="0.90409">
        <ele>2009</ele>
        <time>2010-01-01T09:58:35Z</time>
      </trkpt>
      <trkpt lat="42.65956" lon="0.90421">
        <ele>2010</ele>
        <time>2010-01-01T09:58:39Z</time>
      </trkpt>
      <trkpt lat="42.6595" lon="0.90432">
        <ele>2011</ele>
        <time>2010-01-01T09:58:43Z</time>
      </trkpt>
      <trkpt lat="42.65945" lon="0.90442">
        <ele>2011</ele>
        <time>2010-01-01T09:58:46Z</time>
      </trkpt>
      <trkpt lat="42.65939" lon="0.90451">
        <ele>2012</ele>
        <time>2010-01-01T09:58:50Z</time>
      </trkpt>
      <trkpt lat="42.65932" lon="0.90461">
        <ele>2013</ele>
        <time>2010-01-01T09:58:54Z</time>
      </trkpt>
      <trkpt lat="42.65924" lon="0.90469">
        <ele>2013</ele>
        <time>2010-01-01T09:58:58Z</time>
      </trkpt>
      <trkpt lat="42.65918" lon="0.90478">
        <ele>2014</ele>
        <time>2010-01-01T09:59:02Z</time>
      </trkpt>
      <trkpt lat="42.65909" lon="0.90487">
        <ele>2015</ele>
        <time>2010-01-01T09:59:06Z</time>
      </trkpt>
      <trkpt lat="42.659" lon="0.90494">
        <ele>2016</ele>
        <time>2010-01-01T09:59:10Z</time>
      </trkpt>
      <trkpt lat="42.6589" lon="0.90499">
        <ele>2016</ele>
        <time>2010-01-01T09:59:14Z</time>
      </trkpt>
      <trkpt lat="42.65881" lon="0.90502">
        <ele>2017</ele>
        <time>2010-01-01T09:59:18Z</time>
      </trkpt>
      <trkpt lat="42.65871" lon="0.90506">
        <ele>2018</ele>
        <time>2010-01-01T09:59:23Z</time>
      </trkpt>
      <trkpt lat="42.65861" lon="0.90508">
        <ele>2019</ele>
        <time>2010-01-01T09:59:26Z</time>
      </trkpt>
      <trkpt lat="42.65851" lon="0.9051">
        <ele>2019</ele>
        <time>2010-01-01T09:59:30Z</time>
      </trkpt>
      <trkpt lat="42.65841" lon="0.90514">
        <ele>2020</ele>
        <time>2010-01-01T09:59:35Z</time>
      </trkpt>
      <trkpt lat="42.65831" lon="0.90518">
        <ele>2020</ele>
        <time>2010-01-01T09:59:39Z</time>
      </trkpt>
      <trkpt lat="42.65821" lon="0.9052">
        <ele>2021</ele>
        <time>2010-01-01T09:59:43Z</time>
      </trkpt>
      <trkpt lat="42.65811" lon="0.90522">
        <ele>2022</ele>
        <time>2010-01-01T09:59:47Z</time>
      </trkpt>
      <trkpt lat="42.65801" lon="0.90525">
        <ele>2023</ele>
        <time>2010-01-01T09:59:51Z</time>
      </trkpt>
      <trkpt lat="42.6579" lon="0.90529">
        <ele>2024</ele>
        <time>2010-01-01T09:59:56Z</time>
      </trkpt>
      <trkpt lat="42.65778" lon="0.90532">
        <ele>2025</ele>
        <time>2010-01-01T10:00:00Z</time>
      </trkpt>
      <trkpt lat="42.65768" lon="0.90534">
        <ele>2026</ele>
        <time>2010-01-01T10:00:05Z</time>
      </trkpt>
      <trkpt lat="42.65757" lon="0.90539">
        <ele>2027</ele>
        <time>2010-01-01T10:00:09Z</time>
      </trkpt>
      <trkpt lat="42.65747" lon="0.90545">
        <ele>2028</ele>
        <time>2010-01-01T10:00:14Z</time>
      </trkpt>
      <trkpt lat="42.65734" lon="0.90554">
        <ele>2030</ele>
        <time>2010-01-01T10:00:19Z</time>
      </trkpt>
      <trkpt lat="42.65718" lon="0.90567">
        <ele>2033</ele>
        <time>2010-01-01T10:00:27Z</time>
      </trkpt>
      <trkpt lat="42.65708" lon="0.90574">
        <ele>2035</ele>
        <time>2010-01-01T10:00:31Z</time>
      </trkpt>
      <trkpt lat="42.65697" lon="0.90579">
        <ele>2037</ele>
        <time>2010-01-01T10:00:36Z</time>
      </trkpt>
      <trkpt lat="42.65692" lon="0.90593">
        <ele>2040</ele>
        <time>2010-01-01T10:00:41Z</time>
      </trkpt>
      <trkpt lat="42.65697" lon="0.90606">
        <ele>2041</ele>
        <time>2010-01-01T10:00:45Z</time>
      </trkpt>
      <trkpt lat="42.65706" lon="0.90614">
        <ele>2040</ele>
        <time>2010-01-01T10:00:49Z</time>
      </trkpt>
      <trkpt lat="42.65713" lon="0.90623">
        <ele>2039</ele>
        <time>2010-01-01T10:00:53Z</time>
      </trkpt>
      <trkpt lat="42.65715" lon="0.90639">
        <ele>2040</ele>
        <time>2010-01-01T10:00:58Z</time>
      </trkpt>
      <trkpt lat="42.65709" lon="0.9065">
        <ele>2040</ele>
        <time>2010-01-01T10:01:02Z</time>
      </trkpt>
      <trkpt lat="42.657" lon="0.90657">
        <ele>2042</ele>
        <time>2010-01-01T10:01:06Z</time>
      </trkpt>
      <trkpt lat="42.65691" lon="0.90665">
        <ele>2044</ele>
        <time>2010-01-01T10:01:11Z</time>
      </trkpt>
      <trkpt lat="42.6568" lon="0.90678">
        <ele>2048</ele>
        <time>2010-01-01T10:01:16Z</time>
      </trkpt>
      <trkpt lat="42.65672" lon="0.90692">
        <ele>2051</ele>
        <time>2010-01-01T10:01:22Z</time>
      </trkpt>
      <trkpt lat="42.65667" lon="0.90703">
        <ele>2052</ele>
        <time>2010-01-01T10:01:25Z</time>
      </trkpt>
      <trkpt lat="42.65663" lon="0.90716">
        <ele>2053</ele>
        <time>2010-01-01T10:01:30Z</time>
      </trkpt>
      <trkpt lat="42.65661" lon="0.90731">
        <ele>2053</ele>
        <time>2010-01-01T10:01:34Z</time>
      </trkpt>
      <trkpt lat="42.65658" lon="0.90745">
        <ele>2052</ele>
        <time>2010-01-01T10:01:38Z</time>
      </trkpt>
      <trkpt lat="42.65653" lon="0.90759">
        <ele>2051</ele>
        <time>2010-01-01T10:01:43Z</time>
      </trkpt>
      <trkpt lat="42.65647" lon="0.9077">
        <ele>2050</ele>
        <time>2010-01-01T10:01:47Z</time>
      </trkpt>
      <trkpt lat="42.65637" lon="0.90775">
        <ele>2052</ele>
        <time>2010-01-01T10:01:51Z</time>
      </trkpt>
      <trkpt lat="42.65627" lon="0.90781">
        <ele>2052</ele>
        <time>2010-01-01T10:01:55Z</time>
      </trkpt>
      <trkpt lat="42.65618" lon="0.90788">
        <ele>2051</ele>
        <time>2010-01-01T10:02:00Z</time>
      </trkpt>
      <trkpt lat="42.65609" lon="0.90794">
        <ele>2051</ele>
        <time>2010-01-01T10:02:04Z</time>
      </trkpt>
      <trkpt lat="42.65599" lon="0.90797">
        <ele>2051</ele>
        <time>2010-01-01T10:02:08Z</time>
      </trkpt>
      <trkpt lat="42.65589" lon="0.90794">
        <ele>2055</ele>
        <time>2010-01-01T10:02:12Z</time>
      </trkpt>
      <trkpt lat="42.65577" lon="0.9079">
        <ele>2060</ele>
        <time>2010-01-01T10:02:17Z</time>
      </trkpt>
      <trkpt lat="42.65566" lon="0.9079">
        <ele>2062</ele>
        <time>2010-01-01T10:02:21Z</time>
      </trkpt>
      <trkpt lat="42.65556" lon="0.90796">
        <ele>2062</ele>
        <time>2010-01-01T10:02:26Z</time>
      </trkpt>
      <trkpt lat="42.65547" lon="0.90805">
        <ele>2062</ele>
        <time>2010-01-01T10:02:30Z</time>
      </trkpt>
      <trkpt lat="42.65538" lon="0.90814">
        <ele>2063</ele>
        <time>2010-01-01T10:02:35Z</time>
      </trkpt>
      <trkpt lat="42.65532" lon="0.90825">
        <ele>2064</ele>
        <time>2010-01-01T10:02:39Z</time>
      </trkpt>
      <trkpt lat="42.65528" lon="0.90836">
        <ele>2065</ele>
        <time>2010-01-01T10:02:42Z</time>
      </trkpt>
      <trkpt lat="42.65524" lon="0.90848">
        <ele>2067</ele>
        <time>2010-01-01T10:02:46Z</time>
      </trkpt>
      <trkpt lat="42.65522" lon="0.90861">
        <ele>2067</ele>
        <time>2010-01-01T10:02:50Z</time>
      </trkpt>
      <trkpt lat="42.6552" lon="0.90875">
        <ele>2066</ele>
        <time>2010-01-01T10:02:54Z</time>
      </trkpt>
      <trkpt lat="42.65519" lon="0.90888">
        <ele>2065</ele>
        <time>2010-01-01T10:02:58Z</time>
      </trkpt>
      <trkpt lat="42.65516" lon="0.90901">
        <ele>2065</ele>
        <time>2010-01-01T10:03:02Z</time>
      </trkpt>
      <trkpt lat="42.65514" lon="0.90915">
        <ele>2064</ele>
        <time>2010-01-01T10:03:06Z</time>
      </trkpt>
      <trkpt lat="42.65512" lon="0.90929">
        <ele>2064</ele>
        <time>2010-01-01T10:03:10Z</time>
      </trkpt>
      <trkpt lat="42.65507" lon="0.90942">
        <ele>2064</ele>
        <time>2010-01-01T10:03:15Z</time>
      </trkpt>
      <trkpt lat="42.65501" lon="0.90953">
        <ele>2065</ele>
        <time>2010-01-01T10:03:19Z</time>
      </trkpt>
      <trkpt lat="42.65495" lon="0.90965">
        <ele>2067</ele>
        <time>2010-01-01T10:03:23Z</time>
      </trkpt>
      <trkpt lat="42.65489" lon="0.90974">
        <ele>2071</ele>
        <time>2010-01-01T10:03:27Z</time>
      </trkpt>
      <trkpt lat="42.65483" lon="0.90985">
        <ele>2074</ele>
        <time>2010-01-01T10:03:31Z</time>
      </trkpt>
      <trkpt lat="42.65479" lon="0.90997">
        <ele>2077</ele>
        <time>2010-01-01T10:03:35Z</time>
      </trkpt>
      <trkpt lat="42.65476" lon="0.9101">
        <ele>2078</ele>
        <time>2010-01-01T10:03:39Z</time>
      </trkpt>
      <trkpt lat="42.65472" lon="0.91022">
        <ele>2078</ele>
        <time>2010-01-01T10:03:42Z</time>
      </trkpt>
      <trkpt lat="42.65472" lon="0.91036">
        <ele>2078</ele>
        <time>2010-01-01T10:03:46Z</time>
      </trkpt>
      <trkpt lat="42.65475" lon="0.91049">
        <ele>2075</ele>
        <time>2010-01-01T10:03:51Z</time>
      </trkpt>
      <trkpt lat="42.65476" lon="0.91063">
        <ele>2074</ele>
        <time>2010-01-01T10:03:55Z</time>
      </trkpt>
      <trkpt lat="42.65474" lon="0.91077">
        <ele>2078</ele>
        <time>2010-01-01T10:03:59Z</time>
      </trkpt>
      <trkpt lat="42.65473" lon="0.9109">
        <ele>2079</ele>
        <time>2010-01-01T10:04:03Z</time>
      </trkpt>
      <trkpt lat="42.65477" lon="0.91104">
        <ele>2074</ele>
        <time>2010-01-01T10:04:07Z</time>
      </trkpt>
      <trkpt lat="42.65478" lon="0.91119">
        <ele>2075</ele>
        <time>2010-01-01T10:04:12Z</time>
      </trkpt>
      <trkpt lat="42.65477" lon="0.91134">
        <ele>2078</ele>
        <time>2010-01-01T10:04:16Z</time>
      </trkpt>
      <trkpt lat="42.65476" lon="0.91148">
        <ele>2080</ele>
        <time>2010-01-01T10:04:20Z</time>
      </trkpt>
      <trkpt lat="42.65474" lon="0.91165">
        <ele>2083</ele>
        <time>2010-01-01T10:04:25Z</time>
      </trkpt>
      <trkpt lat="42.65476" lon="0.91178">
        <ele>2082</ele>
        <time>2010-01-01T10:04:29Z</time>
      </trkpt>
      <trkpt lat="42.65479" lon="0.9119">
        <ele>2079</ele>
        <time>2010-01-01T10:04:33Z</time>
      </trkpt>
      <trkpt lat="42.65482" lon="0.91205">
        <ele>2076</ele>
        <time>2010-01-01T10:04:38Z</time>
      </trkpt>
      <trkpt lat="42.65483" lon="0.91219">
        <ele>2075</ele>
        <time>2010-01-01T10:04:42Z</time>
      </trkpt>
      <trkpt lat="42.65481" lon="0.91234">
        <ele>2075</ele>
        <time>2010-01-01T10:04:46Z</time>
      </trkpt>
      <trkpt lat="42.6548" lon="0.9125">
        <ele>2073</ele>
        <time>2010-01-01T10:04:51Z</time>
      </trkpt>
      <trkpt lat="42.65477" lon="0.91264">
        <ele>2073</ele>
        <time>2010-01-01T10:04:55Z</time>
      </trkpt>
      <trkpt lat="42.65471" lon="0.91274">
        <ele>2077</ele>
        <time>2010-01-01T10:04:59Z</time>
      </trkpt>
      <trkpt lat="42.65461" lon="0.91283">
        <ele>2084</ele>
        <time>2010-01-01T10:05:04Z</time>
      </trkpt>
      <trkpt lat="42.65453" lon="0.91292">
        <ele>2089</ele>
        <time>2010-01-01T10:05:08Z</time>
      </trkpt>
      <trkpt lat="42.65445" lon="0.91304">
        <ele>2095</ele>
        <time>2010-01-01T10:05:13Z</time>
      </trkpt>
      <trkpt lat="42.6544" lon="0.91317">
        <ele>2099</ele>
        <time>2010-01-01T10:05:17Z</time>
      </trkpt>
      <trkpt lat="42.65434" lon="0.91329">
        <ele>2103</ele>
        <time>2010-01-01T10:05:21Z</time>
      </trkpt>
      <trkpt lat="42.6543" lon="0.91341">
        <ele>2105</ele>
        <time>2010-01-01T10:05:25Z</time>
      </trkpt>
      <trkpt lat="42.65429" lon="0.91355">
        <ele>2105</ele>
        <time>2010-01-01T10:05:29Z</time>
      </trkpt>
      <trkpt lat="42.6543" lon="0.9137">
        <ele>2103</ele>
        <time>2010-01-01T10:05:34Z</time>
      </trkpt>
      <trkpt lat="42.65434" lon="0.91383">
        <ele>2100</ele>
        <time>2010-01-01T10:05:38Z</time>
      </trkpt>
      <trkpt lat="42.6544" lon="0.91396">
        <ele>2096</ele>
        <time>2010-01-01T10:05:42Z</time>
      </trkpt>
      <trkpt lat="42.65446" lon="0.91411">
        <ele>2094</ele>
        <time>2010-01-01T10:05:48Z</time>
      </trkpt>
      <trkpt lat="42.65453" lon="0.91426">
        <ele>2091</ele>
        <time>2010-01-01T10:05:53Z</time>
      </trkpt>
      <trkpt lat="42.65453" lon="0.9144">
        <ele>2092</ele>
        <time>2010-01-01T10:05:57Z</time>
      </trkpt>
      <trkpt lat="42.65447" lon="0.91454">
        <ele>2096</ele>
        <time>2010-01-01T10:06:02Z</time>
      </trkpt>
      <trkpt lat="42.65441" lon="0.91467">
        <ele>2099</ele>
        <time>2010-01-01T10:06:06Z</time>
      </trkpt>
      <trkpt lat="42.65435" lon="0.91482">
        <ele>2099</ele>
        <time>2010-01-01T10:06:11Z</time>
      </trkpt>
      <trkpt lat="42.65429" lon="0.91499">
        <ele>2097</ele>
        <time>2010-01-01T10:06:17Z</time>
      </trkpt>
      <trkpt lat="42.65425" lon="0.91511">
        <ele>2097</ele>
        <time>2010-01-01T10:06:21Z</time>
      </trkpt>
      <trkpt lat="42.6542" lon="0.91525">
        <ele>2098</ele>
        <time>2010-01-01T10:06:25Z</time>
      </trkpt>
      <trkpt lat="42.65415" lon="0.91542">
        <ele>2098</ele>
        <time>2010-01-01T10:06:31Z</time>
      </trkpt>
      <trkpt lat="42.65411" lon="0.91555">
        <ele>2099</ele>
        <time>2010-01-01T10:06:35Z</time>
      </trkpt>
      <trkpt lat="42.65404" lon="0.91566">
        <ele>2100</ele>
        <time>2010-01-01T10:06:39Z</time>
      </trkpt>
      <trkpt lat="42.65396" lon="0.91575">
        <ele>2103</ele>
        <time>2010-01-01T10:06:43Z</time>
      </trkpt>
      <trkpt lat="42.65388" lon="0.91585">
        <ele>2105</ele>
        <time>2010-01-01T10:06:48Z</time>
      </trkpt>
      <trkpt lat="42.65381" lon="0.91594">
        <ele>2106</ele>
        <time>2010-01-01T10:06:51Z</time>
      </trkpt>
      <trkpt lat="42.65374" lon="0.91604">
        <ele>2106</ele>
        <time>2010-01-01T10:06:56Z</time>
      </trkpt>
      <trkpt lat="42.65365" lon="0.91616">
        <ele>2106</ele>
        <time>2010-01-01T10:07:01Z</time>
      </trkpt>
      <trkpt lat="42.65358" lon="0.91626">
        <ele>2107</ele>
        <time>2010-01-01T10:07:05Z</time>
      </trkpt>
      <trkpt lat="42.65349" lon="0.91637">
        <ele>2107</ele>
        <time>2010-01-01T10:07:09Z</time>
      </trkpt>
      <trkpt lat="42.6534" lon="0.91645">
        <ele>2109</ele>
        <time>2010-01-01T10:07:14Z</time>
      </trkpt>
      <trkpt lat="42.65331" lon="0.91656">
        <ele>2111</ele>
        <time>2010-01-01T10:07:19Z</time>
      </trkpt>
      <trkpt lat="42.65327" lon="0.91671">
        <ele>2110</ele>
        <time>2010-01-01T10:07:23Z</time>
      </trkpt>
      <trkpt lat="42.65321" lon="0.91682">
        <ele>2111</ele>
        <time>2010-01-01T10:07:27Z</time>
      </trkpt>
      <trkpt lat="42.65315" lon="0.91693">
        <ele>2112</ele>
        <time>2010-01-01T10:07:31Z</time>
      </trkpt>
      <trkpt lat="42.65305" lon="0.91701">
        <ele>2114</ele>
        <time>2010-01-01T10:07:36Z</time>
      </trkpt>
      <trkpt lat="42.65294" lon="0.91705">
        <ele>2115</ele>
        <time>2010-01-01T10:07:41Z</time>
      </trkpt>
      <trkpt lat="42.65283" lon="0.91708">
        <ele>2115</ele>
        <time>2010-01-01T10:07:45Z</time>
      </trkpt>
      <trkpt lat="42.65272" lon="0.91715">
        <ele>2115</ele>
        <time>2010-01-01T10:07:50Z</time>
      </trkpt>
      <trkpt lat="42.65261" lon="0.9172">
        <ele>2115</ele>
        <time>2010-01-01T10:07:55Z</time>
      </trkpt>
      <trkpt lat="42.6525" lon="0.91725">
        <ele>2114</ele>
        <time>2010-01-01T10:07:59Z</time>
      </trkpt>
      <trkpt lat="42.6524" lon="0.91728">
        <ele>2115</ele>
        <time>2010-01-01T10:08:03Z</time>
      </trkpt>
      <trkpt lat="42.65229" lon="0.91731">
        <ele>2116</ele>
        <time>2010-01-01T10:08:08Z</time>
      </trkpt>
      <trkpt lat="42.65218" lon="0.91733">
        <ele>2117</ele>
        <time>2010-01-01T10:08:12Z</time>
      </trkpt>
      <trkpt lat="42.65207" lon="0.91735">
        <ele>2118</ele>
        <time>2010-01-01T10:08:17Z</time>
      </trkpt>
      <trkpt lat="42.65197" lon="0.91739">
        <ele>2118</ele>
        <time>2010-01-01T10:08:21Z</time>
      </trkpt>
      <trkpt lat="42.65188" lon="0.91741">
        <ele>2118</ele>
        <time>2010-01-01T10:08:25Z</time>
      </trkpt>
      <trkpt lat="42.65177" lon="0.91744">
        <ele>2119</ele>
        <time>2010-01-01T10:08:29Z</time>
      </trkpt>
      <trkpt lat="42.65168" lon="0.91746">
        <ele>2119</ele>
        <time>2010-01-01T10:08:33Z</time>
      </trkpt>
      <trkpt lat="42.65158" lon="0.91749">
        <ele>2120</ele>
        <time>2010-01-01T10:08:37Z</time>
      </trkpt>
      <trkpt lat="42.65148" lon="0.91753">
        <ele>2121</ele>
        <time>2010-01-01T10:08:41Z</time>
      </trkpt>
      <trkpt lat="42.65139" lon="0.91757">
        <ele>2122</ele>
        <time>2010-01-01T10:08:45Z</time>
      </trkpt>
      <trkpt lat="42.65129" lon="0.91762">
        <ele>2123</ele>
        <time>2010-01-01T10:08:49Z</time>
      </trkpt>
      <trkpt lat="42.65119" lon="0.91768">
        <ele>2124</ele>
        <time>2010-01-01T10:08:53Z</time>
      </trkpt>
      <trkpt lat="42.6511" lon="0.91773">
        <ele>2124</ele>
        <time>2010-01-01T10:08:57Z</time>
      </trkpt>
      <trkpt lat="42.651" lon="0.91774">
        <ele>2125</ele>
        <time>2010-01-01T10:09:01Z</time>
      </trkpt>
      <trkpt lat="42.6509" lon="0.91772">
        <ele>2127</ele>
        <time>2010-01-01T10:09:05Z</time>
      </trkpt>
      <trkpt lat="42.65079" lon="0.9177">
        <ele>2130</ele>
        <time>2010-01-01T10:09:10Z</time>
      </trkpt>
      <trkpt lat="42.65069" lon="0.91768">
        <ele>2132</ele>
        <time>2010-01-01T10:09:14Z</time>
      </trkpt>
      <trkpt lat="42.6506" lon="0.91771">
        <ele>2133</ele>
        <time>2010-01-01T10:09:18Z</time>
      </trkpt>
      <trkpt lat="42.6505" lon="0.91776">
        <ele>2132</ele>
        <time>2010-01-01T10:09:22Z</time>
      </trkpt>
      <trkpt lat="42.65042" lon="0.91782">
        <ele>2132</ele>
        <time>2010-01-01T10:09:26Z</time>
      </trkpt>
      <trkpt lat="42.65032" lon="0.9179">
        <ele>2131</ele>
        <time>2010-01-01T10:09:30Z</time>
      </trkpt>
      <trkpt lat="42.65024" lon="0.91795">
        <ele>2131</ele>
        <time>2010-01-01T10:09:34Z</time>
      </trkpt>
      <trkpt lat="42.65015" lon="0.91798">
        <ele>2134</ele>
        <time>2010-01-01T10:09:37Z</time>
      </trkpt>
      <trkpt lat="42.65005" lon="0.91801">
        <ele>2137</ele>
        <time>2010-01-01T10:09:41Z</time>
      </trkpt>
      <trkpt lat="42.64995" lon="0.91807">
        <ele>2138</ele>
        <time>2010-01-01T10:09:46Z</time>
      </trkpt>
      <trkpt lat="42.64987" lon="0.91814">
        <ele>2138</ele>
        <time>2010-01-01T10:09:49Z</time>
      </trkpt>
      <trkpt lat="42.64978" lon="0.91818">
        <ele>2139</ele>
        <time>2010-01-01T10:09:53Z</time>
      </trkpt>
      <trkpt lat="42.6497" lon="0.91822">
        <ele>2139</ele>
        <time>2010-01-01T10:09:57Z</time>
      </trkpt>
      <trkpt lat="42.6496" lon="0.91824">
        <ele>2138</ele>
        <time>2010-01-01T10:10:01Z</time>
      </trkpt>
      <trkpt lat="42.64951" lon="0.91828">
        <ele>2137</ele>
        <time>2010-01-01T10:10:05Z</time>
      </trkpt>
      <trkpt lat="42.64942" lon="0.91831">
        <ele>2136</ele>
        <time>2010-01-01T10:10:08Z</time>
      </trkpt>
      <trkpt lat="42.64932" lon="0.91834">
        <ele>2137</ele>
        <time>2010-01-01T10:10:12Z</time>
      </trkpt>
      <trkpt lat="42.64923" lon="0.91834">
        <ele>2138</ele>
        <time>2010-01-01T10:10:16Z</time>
      </trkpt>
      <trkpt lat="42.64913" lon="0.91835">
        <ele>2138</ele>
        <time>2010-01-01T10:10:20Z</time>
      </trkpt>
      <trkpt lat="42.64904" lon="0.91833">
        <ele>2139</ele>
        <time>2010-01-01T10:10:23Z</time>
      </trkpt>
      <trkpt lat="42.64895" lon="0.91829">
        <ele>2139</ele>
        <time>2010-01-01T10:10:27Z</time>
      </trkpt>
      <trkpt lat="42.64886" lon="0.91824">
        <ele>2140</ele>
        <time>2010-01-01T10:10:31Z</time>
      </trkpt>
      <trkpt lat="42.64877" lon="0.91819">
        <ele>2140</ele>
        <time>2010-01-01T10:10:35Z</time>
      </trkpt>
      <trkpt lat="42.64868" lon="0.91815">
        <ele>2140</ele>
        <time>2010-01-01T10:10:39Z</time>
      </trkpt>
      <trkpt lat="42.64859" lon="0.9181">
        <ele>2140</ele>
        <time>2010-01-01T10:10:43Z</time>
      </trkpt>
      <trkpt lat="42.6485" lon="0.91802">
        <ele>2140</ele>
        <time>2010-01-01T10:10:47Z</time>
      </trkpt>
      <trkpt lat="42.64841" lon="0.91796">
        <ele>2140</ele>
        <time>2010-01-01T10:10:51Z</time>
      </trkpt>
      <trkpt lat="42.64832" lon="0.91792">
        <ele>2139</ele>
        <time>2010-01-01T10:10:55Z</time>
      </trkpt>
      <trkpt lat="42.64822" lon="0.91787">
        <ele>2139</ele>
        <time>2010-01-01T10:10:59Z</time>
      </trkpt>
      <trkpt lat="42.64811" lon="0.91784">
        <ele>2138</ele>
        <time>2010-01-01T10:11:04Z</time>
      </trkpt>
      <trkpt lat="42.64801" lon="0.91781">
        <ele>2138</ele>
        <time>2010-01-01T10:11:08Z</time>
      </trkpt>
      <trkpt lat="42.64792" lon="0.91779">
        <ele>2138</ele>
        <time>2010-01-01T10:11:12Z</time>
      </trkpt>
      <trkpt lat="42.64781" lon="0.91778">
        <ele>2138</ele>
        <time>2010-01-01T10:11:16Z</time>
      </trkpt>
      <trkpt lat="42.6477" lon="0.91776">
        <ele>2138</ele>
        <time>2010-01-01T10:11:20Z</time>
      </trkpt>
      <trkpt lat="42.6476" lon="0.91774">
        <ele>2139</ele>
        <time>2010-01-01T10:11:24Z</time>
      </trkpt>
      <trkpt lat="42.64751" lon="0.91772">
        <ele>2140</ele>
        <time>2010-01-01T10:11:28Z</time>
      </trkpt>
      <trkpt lat="42.64742" lon="0.91768">
        <ele>2141</ele>
        <time>2010-01-01T10:11:32Z</time>
      </trkpt>
      <trkpt lat="42.64733" lon="0.91769">
        <ele>2141</ele>
        <time>2010-01-01T10:11:36Z</time>
      </trkpt>
      <trkpt lat="42.64724" lon="0.91777">
        <ele>2140</ele>
        <time>2010-01-01T10:11:40Z</time>
      </trkpt>
      <trkpt lat="42.64718" lon="0.91787">
        <ele>2138</ele>
        <time>2010-01-01T10:11:43Z</time>
      </trkpt>
      <trkpt lat="42.6471" lon="0.91796">
        <ele>2137</ele>
        <time>2010-01-01T10:11:48Z</time>
      </trkpt>
      <trkpt lat="42.64702" lon="0.91804">
        <ele>2135</ele>
        <time>2010-01-01T10:11:52Z</time>
      </trkpt>
      <trkpt lat="42.64693" lon="0.9181">
        <ele>2135</ele>
        <time>2010-01-01T10:11:56Z</time>
      </trkpt>
      <trkpt lat="42.64684" lon="0.91816">
        <ele>2135</ele>
        <time>2010-01-01T10:12:00Z</time>
      </trkpt>
      <trkpt lat="42.64674" lon="0.91823">
        <ele>2136</ele>
        <time>2010-01-01T10:12:04Z</time>
      </trkpt>
      <trkpt lat="42.64664" lon="0.91829">
        <ele>2136</ele>
        <time>2010-01-01T10:12:09Z</time>
      </trkpt>
      <trkpt lat="42.64653" lon="0.91833">
        <ele>2137</ele>
        <time>2010-01-01T10:12:13Z</time>
      </trkpt>
      <trkpt lat="42.64641" lon="0.91836">
        <ele>2138</ele>
        <time>2010-01-01T10:12:18Z</time>
      </trkpt>
      <trkpt lat="42.64629" lon="0.91838">
        <ele>2137</ele>
        <time>2010-01-01T10:12:23Z</time>
      </trkpt>
      <trkpt lat="42.6462" lon="0.91831">
        <ele>2139</ele>
        <time>2010-01-01T10:12:27Z</time>
      </trkpt>
      <trkpt lat="42.64611" lon="0.91823">
        <ele>2142</ele>
        <time>2010-01-01T10:12:31Z</time>
      </trkpt>
      <trkpt lat="42.646" lon="0.9182">
        <ele>2142</ele>
        <time>2010-01-01T10:12:36Z</time>
      </trkpt>
      <trkpt lat="42.6459" lon="0.91817">
        <ele>2143</ele>
        <time>2010-01-01T10:12:40Z</time>
      </trkpt>
      <trkpt lat="42.6458" lon="0.91815">
        <ele>2143</ele>
        <time>2010-01-01T10:12:44Z</time>
      </trkpt>
      <trkpt lat="42.64567" lon="0.91817">
        <ele>2141</ele>
        <time>2010-01-01T10:12:49Z</time>
      </trkpt>
      <trkpt lat="42.64558" lon="0.9182">
        <ele>2138</ele>
        <time>2010-01-01T10:12:53Z</time>
      </trkpt>
      <trkpt lat="42.64548" lon="0.91824">
        <ele>2137</ele>
        <time>2010-01-01T10:12:57Z</time>
      </trkpt>
      <trkpt lat="42.64539" lon="0.91822">
        <ele>2139</ele>
        <time>2010-01-01T10:13:01Z</time>
      </trkpt>
      <trkpt lat="42.64528" lon="0.91822">
        <ele>2142</ele>
        <time>2010-01-01T10:13:05Z</time>
      </trkpt>
      <trkpt lat="42.64518" lon="0.91826">
        <ele>2143</ele>
        <time>2010-01-01T10:13:09Z</time>
      </trkpt>
      <trkpt lat="42.64509" lon="0.91836">
        <ele>2141</ele>
        <time>2010-01-01T10:13:14Z</time>
      </trkpt>
      <trkpt lat="42.64501" lon="0.91845">
        <ele>2140</ele>
        <time>2010-01-01T10:13:18Z</time>
      </trkpt>
      <trkpt lat="42.64493" lon="0.91851">
        <ele>2138</ele>
        <time>2010-01-01T10:13:22Z</time>
      </trkpt>
      <trkpt lat="42.64483" lon="0.91857">
        <ele>2137</ele>
        <time>2010-01-01T10:13:26Z</time>
      </trkpt>
      <trkpt lat="42.64471" lon="0.9186">
        <ele>2137</ele>
        <time>2010-01-01T10:13:31Z</time>
      </trkpt>
      <trkpt lat="42.64461" lon="0.91862">
        <ele>2137</ele>
        <time>2010-01-01T10:13:35Z</time>
      </trkpt>
      <trkpt lat="42.64451" lon="0.91866">
        <ele>2137</ele>
        <time>2010-01-01T10:13:39Z</time>
      </trkpt>
      <trkpt lat="42.64442" lon="0.91869">
        <ele>2137</ele>
        <time>2010-01-01T10:13:43Z</time>
      </trkpt>
      <trkpt lat="42.6443" lon="0.91875">
        <ele>2136</ele>
        <time>2010-01-01T10:13:48Z</time>
      </trkpt>
      <trkpt lat="42.64418" lon="0.9188">
        <ele>2135</ele>
        <time>2010-01-01T10:13:53Z</time>
      </trkpt>
      <trkpt lat="42.64409" lon="0.91884">
        <ele>2133</ele>
        <time>2010-01-01T10:13:57Z</time>
      </trkpt>
      <trkpt lat="42.64398" lon="0.91883">
        <ele>2133</ele>
        <time>2010-01-01T10:14:01Z</time>
      </trkpt>
      <trkpt lat="42.64387" lon="0.91883">
        <ele>2133</ele>
        <time>2010-01-01T10:14:06Z</time>
      </trkpt>
      <trkpt lat="42.64374" lon="0.91882">
        <ele>2132</ele>
        <time>2010-01-01T10:14:11Z</time>
      </trkpt>
      <trkpt lat="42.64361" lon="0.91881">
        <ele>2131</ele>
        <time>2010-01-01T10:14:16Z</time>
      </trkpt>
      <trkpt lat="42.64349" lon="0.91881">
        <ele>2131</ele>
        <time>2010-01-01T10:14:21Z</time>
      </trkpt>
      <trkpt lat="42.64337" lon="0.91883">
        <ele>2128</ele>
        <time>2010-01-01T10:14:26Z</time>
      </trkpt>
      <trkpt lat="42.64327" lon="0.91889">
        <ele>2127</ele>
        <time>2010-01-01T10:14:30Z</time>
      </trkpt>
      <trkpt lat="42.64316" lon="0.91891">
        <ele>2129</ele>
        <time>2010-01-01T10:14:35Z</time>
      </trkpt>
      <trkpt lat="42.64307" lon="0.91896">
        <ele>2129</ele>
        <time>2010-01-01T10:14:38Z</time>
      </trkpt>
      <trkpt lat="42.64296" lon="0.91907">
        <ele>2129</ele>
        <time>2010-01-01T10:14:44Z</time>
      </trkpt>
      <trkpt lat="42.64283" lon="0.91921">
        <ele>2127</ele>
        <time>2010-01-01T10:14:50Z</time>
      </trkpt>
      <trkpt lat="42.64273" lon="0.91928">
        <ele>2125</ele>
        <time>2010-01-01T10:14:55Z</time>
      </trkpt>
      <trkpt lat="42.64262" lon="0.91931">
        <ele>2125</ele>
        <time>2010-01-01T10:15:00Z</time>
      </trkpt>
      <trkpt lat="42.6425" lon="0.91933">
        <ele>2125</ele>
        <time>2010-01-01T10:15:04Z</time>
      </trkpt>
      <trkpt lat="42.64239" lon="0.9193">
        <ele>2126</ele>
        <time>2010-01-01T10:15:09Z</time>
      </trkpt>
      <trkpt lat="42.64224" lon="0.91933">
        <ele>2124</ele>
        <time>2010-01-01T10:15:15Z</time>
      </trkpt>
      <trkpt lat="42.64216" lon="0.91925">
        <ele>2126</ele>
        <time>2010-01-01T10:15:19Z</time>
      </trkpt>
      <trkpt lat="42.64207" lon="0.91919">
        <ele>2126</ele>
        <time>2010-01-01T10:15:23Z</time>
      </trkpt>
      <trkpt lat="42.64189" lon="0.91914">
        <ele>2124</ele>
        <time>2010-01-01T10:15:30Z</time>
      </trkpt>
      <trkpt lat="42.64177" lon="0.91912">
        <ele>2121</ele>
        <time>2010-01-01T10:15:35Z</time>
      </trkpt>
      <trkpt lat="42.64165" lon="0.9191">
        <ele>2118</ele>
        <time>2010-01-01T10:15:40Z</time>
      </trkpt>
      <trkpt lat="42.64155" lon="0.91904">
        <ele>2118</ele>
        <time>2010-01-01T10:15:45Z</time>
      </trkpt>
      <trkpt lat="42.64141" lon="0.91899">
        <ele>2117</ele>
        <time>2010-01-01T10:15:50Z</time>
      </trkpt>
      <trkpt lat="42.64128" lon="0.91902">
        <ele>2114</ele>
        <time>2010-01-01T10:15:55Z</time>
      </trkpt>
      <trkpt lat="42.64118" lon="0.91908">
        <ele>2111</ele>
        <time>2010-01-01T10:16:00Z</time>
      </trkpt>
      <trkpt lat="42.64108" lon="0.91915">
        <ele>2108</ele>
        <time>2010-01-01T10:16:04Z</time>
      </trkpt>
      <trkpt lat="42.64096" lon="0.91918">
        <ele>2107</ele>
        <time>2010-01-01T10:16:09Z</time>
      </trkpt>
      <trkpt lat="42.64085" lon="0.91919">
        <ele>2107</ele>
        <time>2010-01-01T10:16:14Z</time>
      </trkpt>
      <trkpt lat="42.64073" lon="0.91917">
        <ele>2106</ele>
        <time>2010-01-01T10:16:19Z</time>
      </trkpt>
      <trkpt lat="42.64063" lon="0.91914">
        <ele>2106</ele>
        <time>2010-01-01T10:16:23Z</time>
      </trkpt>
      <trkpt lat="42.6405" lon="0.9191">
        <ele>2106</ele>
        <time>2010-01-01T10:16:28Z</time>
      </trkpt>
      <trkpt lat="42.64038" lon="0.91912">
        <ele>2105</ele>
        <time>2010-01-01T10:16:33Z</time>
      </trkpt>
      <trkpt lat="42.64024" lon="0.91915">
        <ele>2102</ele>
        <time>2010-01-01T10:16:38Z</time>
      </trkpt>
      <trkpt lat="42.6401" lon="0.91917">
        <ele>2099</ele>
        <time>2010-01-01T10:16:44Z</time>
      </trkpt>
      <trkpt lat="42.63995" lon="0.91916">
        <ele>2097</ele>
        <time>2010-01-01T10:16:50Z</time>
      </trkpt>
      <trkpt lat="42.63982" lon="0.91913">
        <ele>2096</ele>
        <time>2010-01-01T10:16:55Z</time>
      </trkpt>
      <trkpt lat="42.63971" lon="0.91915">
        <ele>2093</ele>
        <time>2010-01-01T10:17:00Z</time>
      </trkpt>
      <trkpt lat="42.63957" lon="0.91912">
        <ele>2090</ele>
        <time>2010-01-01T10:17:06Z</time>
      </trkpt>
      <trkpt lat="42.63942" lon="0.91902">
        <ele>2089</ele>
        <time>2010-01-01T10:17:12Z</time>
      </trkpt>
      <trkpt lat="42.63929" lon="0.91896">
        <ele>2090</ele>
        <time>2010-01-01T10:17:18Z</time>
      </trkpt>
      <trkpt lat="42.63917" lon="0.91894">
        <ele>2089</ele>
        <time>2010-01-01T10:17:23Z</time>
      </trkpt>
      <trkpt lat="42.63905" lon="0.91889">
        <ele>2091</ele>
        <time>2010-01-01T10:17:27Z</time>
      </trkpt>
      <trkpt lat="42.63895" lon="0.91889">
        <ele>2092</ele>
        <time>2010-01-01T10:17:32Z</time>
      </trkpt>
      <trkpt lat="42.63884" lon="0.91891">
        <ele>2090</ele>
        <time>2010-01-01T10:17:36Z</time>
      </trkpt>
      <trkpt lat="42.63872" lon="0.91897">
        <ele>2088</ele>
        <time>2010-01-01T10:17:41Z</time>
      </trkpt>
      <trkpt lat="42.63866" lon="0.9191">
        <ele>2083</ele>
        <time>2010-01-01T10:17:46Z</time>
      </trkpt>
      <trkpt lat="42.63857" lon="0.91917">
        <ele>2078</ele>
        <time>2010-01-01T10:17:50Z</time>
      </trkpt>
      <trkpt lat="42.63847" lon="0.91914">
        <ele>2078</ele>
        <time>2010-01-01T10:17:54Z</time>
      </trkpt>
      <trkpt lat="42.63836" lon="0.9191">
        <ele>2077</ele>
        <time>2010-01-01T10:17:58Z</time>
      </trkpt>
      <trkpt lat="42.63826" lon="0.91906">
        <ele>2076</ele>
        <time>2010-01-01T10:18:03Z</time>
      </trkpt>
      <trkpt lat="42.63815" lon="0.91905">
        <ele>2072</ele>
        <time>2010-01-01T10:18:07Z</time>
      </trkpt>
      <trkpt lat="42.63805" lon="0.91905">
        <ele>2069</ele>
        <time>2010-01-01T10:18:11Z</time>
      </trkpt>
      <trkpt lat="42.63795" lon="0.91902">
        <ele>2068</ele>
        <time>2010-01-01T10:18:15Z</time>
      </trkpt>
      <trkpt lat="42.63785" lon="0.91899">
        <ele>2068</ele>
        <time>2010-01-01T10:18:19Z</time>
      </trkpt>
      <trkpt lat="42.63773" lon="0.91892">
        <ele>2070</ele>
        <time>2010-01-01T10:18:25Z</time>
      </trkpt>
      <trkpt lat="42.63759" lon="0.91886">
        <ele>2073</ele>
        <time>2010-01-01T10:18:30Z</time>
      </trkpt>
      <trkpt lat="42.63748" lon="0.91882">
        <ele>2076</ele>
        <time>2010-01-01T10:18:35Z</time>
      </trkpt>
      <trkpt lat="42.63736" lon="0.91876">
        <ele>2079</ele>
        <time>2010-01-01T10:18:40Z</time>
      </trkpt>
      <trkpt lat="42.63718" lon="0.91877">
        <ele>2075</ele>
        <time>2010-01-01T10:18:47Z</time>
      </trkpt>
      <trkpt lat="42.63705" lon="0.91876">
        <ele>2071</ele>
        <time>2010-01-01T10:18:52Z</time>
      </trkpt>
      <trkpt lat="42.63694" lon="0.91875">
        <ele>2068</ele>
        <time>2010-01-01T10:18:57Z</time>
      </trkpt>
      <trkpt lat="42.63683" lon="0.91873">
        <ele>2067</ele>
        <time>2010-01-01T10:19:01Z</time>
      </trkpt>
      <trkpt lat="42.63672" lon="0.91873">
        <ele>2064</ele>
        <time>2010-01-01T10:19:05Z</time>
      </trkpt>
      <trkpt lat="42.63662" lon="0.91867">
        <ele>2066</ele>
        <time>2010-01-01T10:19:10Z</time>
      </trkpt>
      <trkpt lat="42.63649" lon="0.91866">
        <ele>2063</ele>
        <time>2010-01-01T10:19:15Z</time>
      </trkpt>
      <trkpt lat="42.63638" lon="0.91865">
        <ele>2058</ele>
        <time>2010-01-01T10:19:20Z</time>
      </trkpt>
      <trkpt lat="42.63627" lon="0.91862">
        <ele>2057</ele>
        <time>2010-01-01T10:19:24Z</time>
      </trkpt>
      <trkpt lat="42.63611" lon="0.91856">
        <ele>2053</ele>
        <time>2010-01-01T10:19:31Z</time>
      </trkpt>
      <trkpt lat="42.63599" lon="0.91851">
        <ele>2050</ele>
        <time>2010-01-01T10:19:36Z</time>
      </trkpt>
      <trkpt lat="42.6359" lon="0.91845">
        <ele>2048</ele>
        <time>2010-01-01T10:19:40Z</time>
      </trkpt>
      <trkpt lat="42.63579" lon="0.91838">
        <ele>2046</ele>
        <time>2010-01-01T10:19:45Z</time>
      </trkpt>
      <trkpt lat="42.63569" lon="0.91832">
        <ele>2046</ele>
        <time>2010-01-01T10:19:49Z</time>
      </trkpt>
      <trkpt lat="42.63556" lon="0.91829">
        <ele>2044</ele>
        <time>2010-01-01T10:19:54Z</time>
      </trkpt>
      <trkpt lat="42.63543" lon="0.91828">
        <ele>2043</ele>
        <time>2010-01-01T10:19:59Z</time>
      </trkpt>
      <trkpt lat="42.63529" lon="0.91826">
        <ele>2042</ele>
        <time>2010-01-01T10:20:05Z</time>
      </trkpt>
      <trkpt lat="42.63511" lon="0.91821">
        <ele>2043</ele>
        <time>2010-01-01T10:20:13Z</time>
      </trkpt>
      <trkpt lat="42.63495" lon="0.91815">
        <ele>2046</ele>
        <time>2010-01-01T10:20:19Z</time>
      </trkpt>
      <trkpt lat="42.63483" lon="0.91822">
        <ele>2037</ele>
        <time>2010-01-01T10:20:24Z</time>
      </trkpt>
      <trkpt lat="42.63471" lon="0.91821">
        <ele>2036</ele>
        <time>2010-01-01T10:20:29Z</time>
      </trkpt>
      <trkpt lat="42.6346" lon="0.91819">
        <ele>2038</ele>
        <time>2010-01-01T10:20:34Z</time>
      </trkpt>
      <trkpt lat="42.63448" lon="0.91817">
        <ele>2040</ele>
        <time>2010-01-01T10:20:39Z</time>
      </trkpt>
      <trkpt lat="42.63433" lon="0.91813">
        <ele>2044</ele>
        <time>2010-01-01T10:20:45Z</time>
      </trkpt>
      <trkpt lat="42.63418" lon="0.91809">
        <ele>2046</ele>
        <time>2010-01-01T10:20:51Z</time>
      </trkpt>
      <trkpt lat="42.63408" lon="0.91812">
        <ele>2042</ele>
        <time>2010-01-01T10:20:55Z</time>
      </trkpt>
      <trkpt lat="42.63396" lon="0.91814">
        <ele>2038</ele>
        <time>2010-01-01T10:21:00Z</time>
      </trkpt>
      <trkpt lat="42.63388" lon="0.91808">
        <ele>2045</ele>
        <time>2010-01-01T10:21:04Z</time>
      </trkpt>
      <trkpt lat="42.63373" lon="0.91806">
        <ele>2048</ele>
        <time>2010-01-01T10:21:09Z</time>
      </trkpt>
      <trkpt lat="42.63358" lon="0.91808">
        <ele>2045</ele>
        <time>2010-01-01T10:21:16Z</time>
      </trkpt>
      <trkpt lat="42.63343" lon="0.9181">
        <ele>2039</ele>
        <time>2010-01-01T10:21:22Z</time>
      </trkpt>
      <trkpt lat="42.63326" lon="0.91811">
        <ele>2036</ele>
        <time>2010-01-01T10:21:28Z</time>
      </trkpt>
      <trkpt lat="42.63308" lon="0.91817">
        <ele>2027</ele>
        <time>2010-01-01T10:21:36Z</time>
      </trkpt>
      <trkpt lat="42.63291" lon="0.91832">
        <ele>2010</ele>
        <time>2010-01-01T10:21:44Z</time>
      </trkpt>
      <trkpt lat="42.63277" lon="0.91848">
        <ele>2005</ele>
        <time>2010-01-01T10:21:51Z</time>
      </trkpt>
      <trkpt lat="42.63266" lon="0.91859">
        <ele>2001</ele>
        <time>2010-01-01T10:21:57Z</time>
      </trkpt>
      <trkpt lat="42.63256" lon="0.91865">
        <ele>2001</ele>
        <time>2010-01-01T10:22:01Z</time>
      </trkpt>
      <trkpt lat="42.63247" lon="0.91869">
        <ele>2003</ele>
        <time>2010-01-01T10:22:05Z</time>
      </trkpt>
      <trkpt lat="42.63236" lon="0.91876">
        <ele>2003</ele>
        <time>2010-01-01T10:22:10Z</time>
      </trkpt>
      <trkpt lat="42.63225" lon="0.91882">
        <ele>2004</ele>
        <time>2010-01-01T10:22:14Z</time>
      </trkpt>
      <trkpt lat="42.63215" lon="0.91885">
        <ele>2003</ele>
        <time>2010-01-01T10:22:19Z</time>
      </trkpt>
      <trkpt lat="42.63203" lon="0.91889">
        <ele>2000</ele>
        <time>2010-01-01T10:22:23Z</time>
      </trkpt>
      <trkpt lat="42.63192" lon="0.91895">
        <ele>1998</ele>
        <time>2010-01-01T10:22:28Z</time>
      </trkpt>
      <trkpt lat="42.63183" lon="0.91904">
        <ele>1996</ele>
        <time>2010-01-01T10:22:33Z</time>
      </trkpt>
      <trkpt lat="42.63173" lon="0.91913">
        <ele>1995</ele>
        <time>2010-01-01T10:22:37Z</time>
      </trkpt>
      <trkpt lat="42.63167" lon="0.91925">
        <ele>1993</ele>
        <time>2010-01-01T10:22:42Z</time>
      </trkpt>
      <trkpt lat="42.63166" lon="0.91939">
        <ele>1991</ele>
        <time>2010-01-01T10:22:46Z</time>
      </trkpt>
      <trkpt lat="42.63163" lon="0.9196">
        <ele>1989</ele>
        <time>2010-01-01T10:22:52Z</time>
      </trkpt>
      <trkpt lat="42.63164" lon="0.91974">
        <ele>1987</ele>
        <time>2010-01-01T10:22:56Z</time>
      </trkpt>
      <trkpt lat="42.63162" lon="0.91986">
        <ele>1987</ele>
        <time>2010-01-01T10:23:00Z</time>
      </trkpt>
      <trkpt lat="42.63163" lon="0.91999">
        <ele>1985</ele>
        <time>2010-01-01T10:23:04Z</time>
      </trkpt>
      <trkpt lat="42.63162" lon="0.92021">
        <ele>1986</ele>
        <time>2010-01-01T10:23:10Z</time>
      </trkpt>
      <trkpt lat="42.63165" lon="0.92035">
        <ele>1985</ele>
        <time>2010-01-01T10:23:15Z</time>
      </trkpt>
      <trkpt lat="42.63169" lon="0.9205">
        <ele>1985</ele>
        <time>2010-01-01T10:23:19Z</time>
      </trkpt>
      <trkpt lat="42.6317" lon="0.92063">
        <ele>1985</ele>
        <time>2010-01-01T10:23:23Z</time>
      </trkpt>
      <trkpt lat="42.6317" lon="0.9208">
        <ele>1985</ele>
        <time>2010-01-01T10:23:28Z</time>
      </trkpt>
      <trkpt lat="42.6317" lon="0.92096">
        <ele>1984</ele>
        <time>2010-01-01T10:23:33Z</time>
      </trkpt>
      <trkpt lat="42.6317" lon="0.92117">
        <ele>1984</ele>
        <time>2010-01-01T10:23:39Z</time>
      </trkpt>
      <trkpt lat="42.63176" lon="0.92129">
        <ele>1985</ele>
        <time>2010-01-01T10:23:43Z</time>
      </trkpt>
      <trkpt lat="42.63189" lon="0.92127">
        <ele>1982</ele>
        <time>2010-01-01T10:23:48Z</time>
      </trkpt>
      <trkpt lat="42.63202" lon="0.92124">
        <ele>1979</ele>
        <time>2010-01-01T10:23:54Z</time>
      </trkpt>
      <trkpt lat="42.63213" lon="0.92126">
        <ele>1977</ele>
        <time>2010-01-01T10:23:58Z</time>
      </trkpt>
      <trkpt lat="42.63224" lon="0.92124">
        <ele>1975</ele>
        <time>2010-01-01T10:24:03Z</time>
      </trkpt>
      <trkpt lat="42.63236" lon="0.92119">
        <ele>1972</ele>
        <time>2010-01-01T10:24:08Z</time>
      </trkpt>
      <trkpt lat="42.63245" lon="0.92111">
        <ele>1969</ele>
        <time>2010-01-01T10:24:12Z</time>
      </trkpt>
      <trkpt lat="42.63255" lon="0.92105">
        <ele>1967</ele>
        <time>2010-01-01T10:24:16Z</time>
      </trkpt>
      <trkpt lat="42.63264" lon="0.92099">
        <ele>1966</ele>
        <time>2010-01-01T10:24:21Z</time>
      </trkpt>
      <trkpt lat="42.63274" lon="0.92094">
        <ele>1966</ele>
        <time>2010-01-01T10:24:25Z</time>
      </trkpt>
      <trkpt lat="42.63278" lon="0.9208">
        <ele>1966</ele>
        <time>2010-01-01T10:24:29Z</time>
      </trkpt>
      <trkpt lat="42.6328" lon="0.92067">
        <ele>1966</ele>
        <time>2010-01-01T10:24:33Z</time>
      </trkpt>
      <trkpt lat="42.63287" lon="0.92055">
        <ele>1966</ele>
        <time>2010-01-01T10:24:37Z</time>
      </trkpt>
      <trkpt lat="42.63294" lon="0.92044">
        <ele>1965</ele>
        <time>2010-01-01T10:24:42Z</time>
      </trkpt>
      <trkpt lat="42.633" lon="0.92032">
        <ele>1965</ele>
        <time>2010-01-01T10:24:46Z</time>
      </trkpt>
      <trkpt lat="42.63308" lon="0.92021">
        <ele>1965</ele>
        <time>2010-01-01T10:24:51Z</time>
      </trkpt>
      <trkpt lat="42.63315" lon="0.9201">
        <ele>1965</ele>
        <time>2010-01-01T10:24:55Z</time>
      </trkpt>
      <trkpt lat="42.63324" lon="0.92">
        <ele>1965</ele>
        <time>2010-01-01T10:25:00Z</time>
      </trkpt>
      <trkpt lat="42.63333" lon="0.91992">
        <ele>1965</ele>
        <time>2010-01-01T10:25:04Z</time>
      </trkpt>
      <trkpt lat="42.63344" lon="0.91984">
        <ele>1965</ele>
        <time>2010-01-01T10:25:09Z</time>
      </trkpt>
      <trkpt lat="42.63353" lon="0.91977">
        <ele>1965</ele>
        <time>2010-01-01T10:25:13Z</time>
      </trkpt>
      <trkpt lat="42.63363" lon="0.91974">
        <ele>1965</ele>
        <time>2010-01-01T10:25:17Z</time>
      </trkpt>
      <trkpt lat="42.63372" lon="0.91968">
        <ele>1965</ele>
        <time>2010-01-01T10:25:21Z</time>
      </trkpt>
      <trkpt lat="42.63381" lon="0.91964">
        <ele>1966</ele>
        <time>2010-01-01T10:25:25Z</time>
      </trkpt>
      <trkpt lat="42.6339" lon="0.91975">
        <ele>1963</ele>
        <time>2010-01-01T10:25:30Z</time>
      </trkpt>
      <trkpt lat="42.63393" lon="0.91987">
        <ele>1963</ele>
        <time>2010-01-01T10:25:34Z</time>
      </trkpt>
      <trkpt lat="42.63402" lon="0.91996">
        <ele>1962</ele>
        <time>2010-01-01T10:25:38Z</time>
      </trkpt>
      <trkpt lat="42.63413" lon="0.91994">
        <ele>1963</ele>
        <time>2010-01-01T10:25:43Z</time>
      </trkpt>
      <trkpt lat="42.63428" lon="0.91995">
        <ele>1964</ele>
        <time>2010-01-01T10:25:48Z</time>
      </trkpt>
      <trkpt lat="42.63445" lon="0.92003">
        <ele>1963</ele>
        <time>2010-01-01T10:25:55Z</time>
      </trkpt>
      <trkpt lat="42.63458" lon="0.92012">
        <ele>1961</ele>
        <time>2010-01-01T10:26:02Z</time>
      </trkpt>
      <trkpt lat="42.63468" lon="0.92007">
        <ele>1960</ele>
        <time>2010-01-01T10:26:06Z</time>
      </trkpt>
      <trkpt lat="42.6348" lon="0.92017">
        <ele>1959</ele>
        <time>2010-01-01T10:26:11Z</time>
      </trkpt>
      <trkpt lat="42.63496" lon="0.9202">
        <ele>1958</ele>
        <time>2010-01-01T10:26:18Z</time>
      </trkpt>
      <trkpt lat="42.63511" lon="0.92026">
        <ele>1958</ele>
        <time>2010-01-01T10:26:24Z</time>
      </trkpt>
      <trkpt lat="42.6352" lon="0.92036">
        <ele>1957</ele>
        <time>2010-01-01T10:26:29Z</time>
      </trkpt>
      <trkpt lat="42.63529" lon="0.92048">
        <ele>1956</ele>
        <time>2010-01-01T10:26:34Z</time>
      </trkpt>
      <trkpt lat="42.63534" lon="0.9206">
        <ele>1955</ele>
        <time>2010-01-01T10:26:38Z</time>
      </trkpt>
      <trkpt lat="42.63539" lon="0.92074">
        <ele>1954</ele>
        <time>2010-01-01T10:26:42Z</time>
      </trkpt>
      <trkpt lat="42.63543" lon="0.92087">
        <ele>1953</ele>
        <time>2010-01-01T10:26:46Z</time>
      </trkpt>
      <trkpt lat="42.63551" lon="0.92096">
        <ele>1953</ele>
        <time>2010-01-01T10:26:50Z</time>
      </trkpt>
      <trkpt lat="42.63563" lon="0.92109">
        <ele>1953</ele>
        <time>2010-01-01T10:26:57Z</time>
      </trkpt>
      <trkpt lat="42.63569" lon="0.92124">
        <ele>1952</ele>
        <time>2010-01-01T10:27:02Z</time>
      </trkpt>
      <trkpt lat="42.63572" lon="0.92139">
        <ele>1949</ele>
        <time>2010-01-01T10:27:06Z</time>
      </trkpt>
      <trkpt lat="42.63576" lon="0.92151">
        <ele>1947</ele>
        <time>2010-01-01T10:27:10Z</time>
      </trkpt>
      <trkpt lat="42.63584" lon="0.92165">
        <ele>1945</ele>
        <time>2010-01-01T10:27:16Z</time>
      </trkpt>
      <trkpt lat="42.63589" lon="0.92178">
        <ele>1943</ele>
        <time>2010-01-01T10:27:20Z</time>
      </trkpt>
      <trkpt lat="42.63589" lon="0.92193">
        <ele>1940</ele>
        <time>2010-01-01T10:27:24Z</time>
      </trkpt>
      <trkpt lat="42.63588" lon="0.92203">
        <ele>1937</ele>
        <time>2010-01-01T10:27:27Z</time>
      </trkpt>
      <trkpt lat="42.63595" lon="0.92212">
        <ele>1936</ele>
        <time>2010-01-01T10:27:31Z</time>
      </trkpt>
      <trkpt lat="42.63603" lon="0.92219">
        <ele>1935</ele>
        <time>2010-01-01T10:27:35Z</time>
      </trkpt>
      <trkpt lat="42.63612" lon="0.92226">
        <ele>1935</ele>
        <time>2010-01-01T10:27:39Z</time>
      </trkpt>
      <trkpt lat="42.63621" lon="0.92232">
        <ele>1935</ele>
        <time>2010-01-01T10:27:43Z</time>
      </trkpt>
      <trkpt lat="42.6363" lon="0.9224">
        <ele>1935</ele>
        <time>2010-01-01T10:27:47Z</time>
      </trkpt>
      <trkpt lat="42.6364" lon="0.92247">
        <ele>1935</ele>
        <time>2010-01-01T10:27:52Z</time>
      </trkpt>
      <trkpt lat="42.63649" lon="0.92255">
        <ele>1934</ele>
        <time>2010-01-01T10:27:56Z</time>
      </trkpt>
      <trkpt lat="42.63657" lon="0.92263">
        <ele>1933</ele>
        <time>2010-01-01T10:28:00Z</time>
      </trkpt>
      <trkpt lat="42.63666" lon="0.92273">
        <ele>1931</ele>
        <time>2010-01-01T10:28:05Z</time>
      </trkpt>
      <trkpt lat="42.63673" lon="0.92287">
        <ele>1929</ele>
        <time>2010-01-01T10:28:09Z</time>
      </trkpt>
      <trkpt lat="42.63677" lon="0.92299">
        <ele>1927</ele>
        <time>2010-01-01T10:28:13Z</time>
      </trkpt>
      <trkpt lat="42.63679" lon="0.92312">
        <ele>1926</ele>
        <time>2010-01-01T10:28:17Z</time>
      </trkpt>
      <trkpt lat="42.63681" lon="0.92325">
        <ele>1925</ele>
        <time>2010-01-01T10:28:21Z</time>
      </trkpt>
      <trkpt lat="42.63681" lon="0.92338">
        <ele>1924</ele>
        <time>2010-01-01T10:28:25Z</time>
      </trkpt>
      <trkpt lat="42.63678" lon="0.92352">
        <ele>1924</ele>
        <time>2010-01-01T10:28:29Z</time>
      </trkpt>
      <trkpt lat="42.63671" lon="0.92365">
        <ele>1923</ele>
        <time>2010-01-01T10:28:34Z</time>
      </trkpt>
      <trkpt lat="42.63662" lon="0.92374">
        <ele>1921</ele>
        <time>2010-01-01T10:28:38Z</time>
      </trkpt>
      <trkpt lat="42.63653" lon="0.9238">
        <ele>1920</ele>
        <time>2010-01-01T10:28:43Z</time>
      </trkpt>
      <trkpt lat="42.63642" lon="0.92385">
        <ele>1917</ele>
        <time>2010-01-01T10:28:47Z</time>
      </trkpt>
      <trkpt lat="42.63635" lon="0.92393">
        <ele>1916</ele>
        <time>2010-01-01T10:28:51Z</time>
      </trkpt>
      <trkpt lat="42.63631" lon="0.92407">
        <ele>1914</ele>
        <time>2010-01-01T10:28:55Z</time>
      </trkpt>
      <trkpt lat="42.6363" lon="0.9242">
        <ele>1913</ele>
        <time>2010-01-01T10:28:59Z</time>
      </trkpt>
      <trkpt lat="42.63629" lon="0.92432">
        <ele>1913</ele>
        <time>2010-01-01T10:29:03Z</time>
      </trkpt>
      <trkpt lat="42.63628" lon="0.92444">
        <ele>1913</ele>
        <time>2010-01-01T10:29:06Z</time>
      </trkpt>
      <trkpt lat="42.63626" lon="0.92457">
        <ele>1912</ele>
        <time>2010-01-01T10:29:10Z</time>
      </trkpt>
      <trkpt lat="42.63621" lon="0.92469">
        <ele>1912</ele>
        <time>2010-01-01T10:29:14Z</time>
      </trkpt>
      <trkpt lat="42.63612" lon="0.92477">
        <ele>1911</ele>
        <time>2010-01-01T10:29:18Z</time>
      </trkpt>
      <trkpt lat="42.63601" lon="0.92487">
        <ele>1909</ele>
        <time>2010-01-01T10:29:23Z</time>
      </trkpt>
      <trkpt lat="42.63595" lon="0.92498">
        <ele>1907</ele>
        <time>2010-01-01T10:29:28Z</time>
      </trkpt>
      <trkpt lat="42.63597" lon="0.92513">
        <ele>1907</ele>
        <time>2010-01-01T10:29:32Z</time>
      </trkpt>
      <trkpt lat="42.63602" lon="0.92527">
        <ele>1907</ele>
        <time>2010-01-01T10:29:37Z</time>
      </trkpt>
      <trkpt lat="42.63607" lon="0.92538">
        <ele>1907</ele>
        <time>2010-01-01T10:29:40Z</time>
      </trkpt>
      <trkpt lat="42.63613" lon="0.92549">
        <ele>1907</ele>
        <time>2010-01-01T10:29:45Z</time>
      </trkpt>
      <trkpt lat="42.63621" lon="0.9256">
        <ele>1908</ele>
        <time>2010-01-01T10:29:49Z</time>
      </trkpt>
      <trkpt lat="42.63629" lon="0.92568">
        <ele>1909</ele>
        <time>2010-01-01T10:29:53Z</time>
      </trkpt>
      <trkpt lat="42.63637" lon="0.92576">
        <ele>1909</ele>
        <time>2010-01-01T10:29:57Z</time>
      </trkpt>
      <trkpt lat="42.63644" lon="0.92586">
        <ele>1908</ele>
        <time>2010-01-01T10:30:01Z</time>
      </trkpt>
      <trkpt lat="42.63652" lon="0.92595">
        <ele>1908</ele>
        <time>2010-01-01T10:30:05Z</time>
      </trkpt>
      <trkpt lat="42.63661" lon="0.92602">
        <ele>1907</ele>
        <time>2010-01-01T10:30:09Z</time>
      </trkpt>
      <trkpt lat="42.6367" lon="0.92606">
        <ele>1906</ele>
        <time>2010-01-01T10:30:13Z</time>
      </trkpt>
      <trkpt lat="42.63681" lon="0.92607">
        <ele>1905</ele>
        <time>2010-01-01T10:30:18Z</time>
      </trkpt>
      <trkpt lat="42.63692" lon="0.92603">
        <ele>1904</ele>
        <time>2010-01-01T10:30:22Z</time>
      </trkpt>
      <trkpt lat="42.63701" lon="0.92598">
        <ele>1903</ele>
        <time>2010-01-01T10:30:26Z</time>
      </trkpt>
      <trkpt lat="42.63714" lon="0.92597">
        <ele>1902</ele>
        <time>2010-01-01T10:30:31Z</time>
      </trkpt>
      <trkpt lat="42.63725" lon="0.926">
        <ele>1901</ele>
        <time>2010-01-01T10:30:36Z</time>
      </trkpt>
      <trkpt lat="42.63733" lon="0.92604">
        <ele>1901</ele>
        <time>2010-01-01T10:30:39Z</time>
      </trkpt>
      <trkpt lat="42.63741" lon="0.92613">
        <ele>1900</ele>
        <time>2010-01-01T10:30:43Z</time>
      </trkpt>
      <trkpt lat="42.63745" lon="0.92625">
        <ele>1900</ele>
        <time>2010-01-01T10:30:47Z</time>
      </trkpt>
      <trkpt lat="42.63741" lon="0.92635">
        <ele>1899</ele>
        <time>2010-01-01T10:30:51Z</time>
      </trkpt>
      <trkpt lat="42.63731" lon="0.92641">
        <ele>1899</ele>
        <time>2010-01-01T10:30:55Z</time>
      </trkpt>
      <trkpt lat="42.6372" lon="0.92654">
        <ele>1898</ele>
        <time>2010-01-01T10:31:01Z</time>
      </trkpt>
      <trkpt lat="42.63713" lon="0.92668">
        <ele>1897</ele>
        <time>2010-01-01T10:31:06Z</time>
      </trkpt>
      <trkpt lat="42.63703" lon="0.92682">
        <ele>1896</ele>
        <time>2010-01-01T10:31:12Z</time>
      </trkpt>
      <trkpt lat="42.63698" lon="0.92689">
        <ele>1896</ele>
        <time>2010-01-01T10:31:15Z</time>
      </trkpt>
      <trkpt lat="42.63702" lon="0.92717">
        <ele>1891</ele>
        <time>2010-01-01T10:31:23Z</time>
      </trkpt>
      <trkpt lat="42.63693" lon="0.92728">
        <ele>1889</ele>
        <time>2010-01-01T10:31:28Z</time>
      </trkpt>
      <trkpt lat="42.63698" lon="0.92738">
        <ele>1886</ele>
        <time>2010-01-01T10:31:31Z</time>
      </trkpt>
      <trkpt lat="42.63708" lon="0.92744">
        <ele>1883</ele>
        <time>2010-01-01T10:31:36Z</time>
      </trkpt>
      <trkpt lat="42.63721" lon="0.92749">
        <ele>1881</ele>
        <time>2010-01-01T10:31:41Z</time>
      </trkpt>
      <trkpt lat="42.6373" lon="0.92752">
        <ele>1879</ele>
        <time>2010-01-01T10:31:45Z</time>
      </trkpt>
      <trkpt lat="42.63741" lon="0.92753">
        <ele>1879</ele>
        <time>2010-01-01T10:31:50Z</time>
      </trkpt>
      <trkpt lat="42.63766" lon="0.92744">
        <ele>1879</ele>
        <time>2010-01-01T10:32:00Z</time>
      </trkpt>
      <trkpt lat="42.63782" lon="0.92741">
        <ele>1880</ele>
        <time>2010-01-01T10:32:06Z</time>
      </trkpt>
      <trkpt lat="42.63827" lon="0.92732">
        <ele>1881</ele>
        <time>2010-01-01T10:32:24Z</time>
      </trkpt>
      <trkpt lat="42.63852" lon="0.92714">
        <ele>1879</ele>
        <time>2010-01-01T10:32:36Z</time>
      </trkpt>
      <trkpt lat="42.63863" lon="0.92687">
        <ele>1880</ele>
        <time>2010-01-01T10:32:45Z</time>
      </trkpt>
      <trkpt lat="42.63886" lon="0.92676">
        <ele>1877</ele>
        <time>2010-01-01T10:32:54Z</time>
      </trkpt>
      <trkpt lat="42.63913" lon="0.92683">
        <ele>1871</ele>
        <time>2010-01-01T10:33:06Z</time>
      </trkpt>
      <trkpt lat="42.63923" lon="0.9269">
        <ele>1870</ele>
        <time>2010-01-01T10:33:10Z</time>
      </trkpt>
      <trkpt lat="42.63937" lon="0.92696">
        <ele>1868</ele>
        <time>2010-01-01T10:33:16Z</time>
      </trkpt>
      <trkpt lat="42.63971" lon="0.92703">
        <ele>1870</ele>
        <time>2010-01-01T10:33:29Z</time>
      </trkpt>
      <trkpt lat="42.63993" lon="0.92726">
        <ele>1868</ele>
        <time>2010-01-01T10:33:41Z</time>
      </trkpt>
      <trkpt lat="42.64003" lon="0.92739">
        <ele>1868</ele>
        <time>2010-01-01T10:33:46Z</time>
      </trkpt>
      <trkpt lat="42.64016" lon="0.92769">
        <ele>1867</ele>
        <time>2010-01-01T10:33:57Z</time>
      </trkpt>
      <trkpt lat="42.6402" lon="0.92803">
        <ele>1864</ele>
        <time>2010-01-01T10:34:07Z</time>
      </trkpt>
      <trkpt lat="42.64014" lon="0.92819">
        <ele>1862</ele>
        <time>2010-01-01T10:34:12Z</time>
      </trkpt>
      <trkpt lat="42.64026" lon="0.92865">
        <ele>1861</ele>
        <time>2010-01-01T10:34:26Z</time>
      </trkpt>
      <trkpt lat="42.64037" lon="0.92875">
        <ele>1861</ele>
        <time>2010-01-01T10:34:31Z</time>
      </trkpt>
      <trkpt lat="42.6405" lon="0.92887">
        <ele>1861</ele>
        <time>2010-01-01T10:34:38Z</time>
      </trkpt>
      <trkpt lat="42.64064" lon="0.92894">
        <ele>1860</ele>
        <time>2010-01-01T10:34:44Z</time>
      </trkpt>
      <trkpt lat="42.64075" lon="0.92902">
        <ele>1860</ele>
        <time>2010-01-01T10:34:49Z</time>
      </trkpt>
      <trkpt lat="42.64085" lon="0.92909">
        <ele>1859</ele>
        <time>2010-01-01T10:34:53Z</time>
      </trkpt>
      <trkpt lat="42.64097" lon="0.92925">
        <ele>1858</ele>
        <time>2010-01-01T10:35:00Z</time>
      </trkpt>
      <trkpt lat="42.64109" lon="0.92941">
        <ele>1857</ele>
        <time>2010-01-01T10:35:07Z</time>
      </trkpt>
      <trkpt lat="42.64116" lon="0.92952">
        <ele>1856</ele>
        <time>2010-01-01T10:35:11Z</time>
      </trkpt>
      <trkpt lat="42.64124" lon="0.92964">
        <ele>1856</ele>
        <time>2010-01-01T10:35:16Z</time>
      </trkpt>
      <trkpt lat="42.64135" lon="0.92974">
        <ele>1857</ele>
        <time>2010-01-01T10:35:21Z</time>
      </trkpt>
      <trkpt lat="42.64151" lon="0.92985">
        <ele>1858</ele>
        <time>2010-01-01T10:35:28Z</time>
      </trkpt>
      <trkpt lat="42.64167" lon="0.92983">
        <ele>1858</ele>
        <time>2010-01-01T10:35:35Z</time>
      </trkpt>
      <trkpt lat="42.64182" lon="0.92974">
        <ele>1858</ele>
        <time>2010-01-01T10:35:41Z</time>
      </trkpt>
      <trkpt lat="42.642" lon="0.92964">
        <ele>1857</ele>
        <time>2010-01-01T10:35:49Z</time>
      </trkpt>
      <trkpt lat="42.6422" lon="0.92961">
        <ele>1855</ele>
        <time>2010-01-01T10:35:57Z</time>
      </trkpt>
      <trkpt lat="42.64242" lon="0.92959">
        <ele>1853</ele>
        <time>2010-01-01T10:36:06Z</time>
      </trkpt>
      <trkpt lat="42.64263" lon="0.92958">
        <ele>1850</ele>
        <time>2010-01-01T10:36:14Z</time>
      </trkpt>
      <trkpt lat="42.64284" lon="0.92957">
        <ele>1847</ele>
        <time>2010-01-01T10:36:23Z</time>
      </trkpt>
      <trkpt lat="42.64311" lon="0.92964">
        <ele>1843</ele>
        <time>2010-01-01T10:36:34Z</time>
      </trkpt>
      <trkpt lat="42.64332" lon="0.92975">
        <ele>1842</ele>
        <time>2010-01-01T10:36:43Z</time>
      </trkpt>
      <trkpt lat="42.64359" lon="0.92979">
        <ele>1842</ele>
        <time>2010-01-01T10:36:54Z</time>
      </trkpt>
      <trkpt lat="42.64373" lon="0.92984">
        <ele>1840</ele>
        <time>2010-01-01T10:36:59Z</time>
      </trkpt>
      <trkpt lat="42.64399" lon="0.92967">
        <ele>1839</ele>
        <time>2010-01-01T10:37:11Z</time>
      </trkpt>
      <trkpt lat="42.64415" lon="0.92925">
        <ele>1842</ele>
        <time>2010-01-01T10:37:25Z</time>
      </trkpt>
      <trkpt lat="42.64435" lon="0.92886">
        <ele>1842</ele>
        <time>2010-01-01T10:37:39Z</time>
      </trkpt>
      <trkpt lat="42.64454" lon="0.92879">
        <ele>1839</ele>
        <time>2010-01-01T10:37:47Z</time>
      </trkpt>
      <trkpt lat="42.64478" lon="0.92863">
        <ele>1838</ele>
        <time>2010-01-01T10:37:57Z</time>
      </trkpt>
      <trkpt lat="42.64502" lon="0.92852">
        <ele>1838</ele>
        <time>2010-01-01T10:38:08Z</time>
      </trkpt>
      <trkpt lat="42.64513" lon="0.92863">
        <ele>1838</ele>
        <time>2010-01-01T10:38:13Z</time>
      </trkpt>
      <trkpt lat="42.64524" lon="0.92863">
        <ele>1838</ele>
        <time>2010-01-01T10:38:17Z</time>
      </trkpt>
      <trkpt lat="42.64542" lon="0.92857">
        <ele>1841</ele>
        <time>2010-01-01T10:38:25Z</time>
      </trkpt>
      <trkpt lat="42.64559" lon="0.92862">
        <ele>1843</ele>
        <time>2010-01-01T10:38:32Z</time>
      </trkpt>
      <trkpt lat="42.64572" lon="0.92874">
        <ele>1845</ele>
        <time>2010-01-01T10:38:38Z</time>
      </trkpt>
      <trkpt lat="42.64588" lon="0.92891">
        <ele>1846</ele>
        <time>2010-01-01T10:38:46Z</time>
      </trkpt>
      <trkpt lat="42.64627" lon="0.92934">
        <ele>1849</ele>
        <time>2010-01-01T10:39:07Z</time>
      </trkpt>
      <trkpt lat="42.64633" lon="0.92966">
        <ele>1847</ele>
        <time>2010-01-01T10:39:16Z</time>
      </trkpt>
      <trkpt lat="42.64639" lon="0.92983">
        <ele>1847</ele>
        <time>2010-01-01T10:39:22Z</time>
      </trkpt>
      <trkpt lat="42.64663" lon="0.93007">
        <ele>1852</ele>
        <time>2010-01-01T10:39:34Z</time>
      </trkpt>
      <trkpt lat="42.64671" lon="0.93022">
        <ele>1852</ele>
        <time>2010-01-01T10:39:39Z</time>
      </trkpt>
      <trkpt lat="42.64708" lon="0.93048">
        <ele>1860</ele>
        <time>2010-01-01T10:39:56Z</time>
      </trkpt>
      <trkpt lat="42.64717" lon="0.93059">
        <ele>1861</ele>
        <time>2010-01-01T10:40:01Z</time>
      </trkpt>
      <trkpt lat="42.64731" lon="0.93095">
        <ele>1858</ele>
        <time>2010-01-01T10:40:13Z</time>
      </trkpt>
      <trkpt lat="42.64751" lon="0.93127">
        <ele>1855</ele>
        <time>2010-01-01T10:40:25Z</time>
      </trkpt>
      <trkpt lat="42.64756" lon="0.93134">
        <ele>1853</ele>
        <time>2010-01-01T10:40:28Z</time>
      </trkpt>
      <trkpt lat="42.64763" lon="0.93167">
        <ele>1845</ele>
        <time>2010-01-01T10:40:38Z</time>
      </trkpt>
      <trkpt lat="42.64764" lon="0.93184">
        <ele>1841</ele>
        <time>2010-01-01T10:40:43Z</time>
      </trkpt>
      <trkpt lat="42.64781" lon="0.93233">
        <ele>1836</ele>
        <time>2010-01-01T10:40:59Z</time>
      </trkpt>
      <trkpt lat="42.64797" lon="0.9325">
        <ele>1836</ele>
        <time>2010-01-01T10:41:07Z</time>
      </trkpt>
      <trkpt lat="42.64811" lon="0.93263">
        <ele>1835</ele>
        <time>2010-01-01T10:41:14Z</time>
      </trkpt>
      <trkpt lat="42.64834" lon="0.9329">
        <ele>1831</ele>
        <time>2010-01-01T10:41:26Z</time>
      </trkpt>
      <trkpt lat="42.64847" lon="0.93306">
        <ele>1829</ele>
        <time>2010-01-01T10:41:33Z</time>
      </trkpt>
      <trkpt lat="42.64883" lon="0.93324">
        <ele>1824</ele>
        <time>2010-01-01T10:41:48Z</time>
      </trkpt>
      <trkpt lat="42.64916" lon="0.93333">
        <ele>1819</ele>
        <time>2010-01-01T10:42:02Z</time>
      </trkpt>
      <trkpt lat="42.64935" lon="0.93325">
        <ele>1819</ele>
        <time>2010-01-01T10:42:10Z</time>
      </trkpt>
      <trkpt lat="42.64952" lon="0.93323">
        <ele>1819</ele>
        <time>2010-01-01T10:42:17Z</time>
      </trkpt>
      <trkpt lat="42.6497" lon="0.93331">
        <ele>1818</ele>
        <time>2010-01-01T10:42:24Z</time>
      </trkpt>
      <trkpt lat="42.64982" lon="0.93342">
        <ele>1817</ele>
        <time>2010-01-01T10:42:30Z</time>
      </trkpt>
      <trkpt lat="42.65" lon="0.93346">
        <ele>1815</ele>
        <time>2010-01-01T10:42:37Z</time>
      </trkpt>
      <trkpt lat="42.65016" lon="0.93343">
        <ele>1812</ele>
        <time>2010-01-01T10:42:44Z</time>
      </trkpt>
      <trkpt lat="42.65028" lon="0.93342">
        <ele>1811</ele>
        <time>2010-01-01T10:42:48Z</time>
      </trkpt>
      <trkpt lat="42.6504" lon="0.93346">
        <ele>1810</ele>
        <time>2010-01-01T10:42:53Z</time>
      </trkpt>
      <trkpt lat="42.65048" lon="0.93353">
        <ele>1810</ele>
        <time>2010-01-01T10:42:57Z</time>
      </trkpt>
      <trkpt lat="42.65058" lon="0.93358">
        <ele>1809</ele>
        <time>2010-01-01T10:43:02Z</time>
      </trkpt>
      <trkpt lat="42.65068" lon="0.9336">
        <ele>1808</ele>
        <time>2010-01-01T10:43:05Z</time>
      </trkpt>
      <trkpt lat="42.65083" lon="0.93345">
        <ele>1804</ele>
        <time>2010-01-01T10:43:13Z</time>
      </trkpt>
      <trkpt lat="42.65103" lon="0.93304">
        <ele>1803</ele>
        <time>2010-01-01T10:43:28Z</time>
      </trkpt>
      <trkpt lat="42.65117" lon="0.93247">
        <ele>1799</ele>
        <time>2010-01-01T10:43:45Z</time>
      </trkpt>
      <trkpt lat="42.65139" lon="0.93206">
        <ele>1796</ele>
        <time>2010-01-01T10:44:00Z</time>
      </trkpt>
      <trkpt lat="42.65148" lon="0.93168">
        <ele>1792</ele>
        <time>2010-01-01T10:44:12Z</time>
      </trkpt>
      <trkpt lat="42.65148" lon="0.93141">
        <ele>1792</ele>
        <time>2010-01-01T10:44:20Z</time>
      </trkpt>
      <trkpt lat="42.65127" lon="0.9311">
        <ele>1791</ele>
        <time>2010-01-01T10:44:32Z</time>
      </trkpt>
      <trkpt lat="42.65115" lon="0.93097">
        <ele>1790</ele>
        <time>2010-01-01T10:44:38Z</time>
      </trkpt>
      <trkpt lat="42.65118" lon="0.93064">
        <ele>1787</ele>
        <time>2010-01-01T10:44:48Z</time>
      </trkpt>
      <trkpt lat="42.65121" lon="0.93047">
        <ele>1785</ele>
        <time>2010-01-01T10:44:53Z</time>
      </trkpt>
      <trkpt lat="42.65123" lon="0.93033">
        <ele>1784</ele>
        <time>2010-01-01T10:44:57Z</time>
      </trkpt>
      <trkpt lat="42.65133" lon="0.93012">
        <ele>1784</ele>
        <time>2010-01-01T10:45:05Z</time>
      </trkpt>
      <trkpt lat="42.65143" lon="0.92998">
        <ele>1784</ele>
        <time>2010-01-01T10:45:11Z</time>
      </trkpt>
      <trkpt lat="42.65164" lon="0.92986">
        <ele>1783</ele>
        <time>2010-01-01T10:45:20Z</time>
      </trkpt>
      <trkpt lat="42.6521" lon="0.92968">
        <ele>1778</ele>
        <time>2010-01-01T10:45:39Z</time>
      </trkpt>
      <trkpt lat="42.65252" lon="0.92939">
        <ele>1777</ele>
        <time>2010-01-01T10:45:58Z</time>
      </trkpt>
      <trkpt lat="42.65276" lon="0.92926">
        <ele>1777</ele>
        <time>2010-01-01T10:46:08Z</time>
      </trkpt>
      <trkpt lat="42.65289" lon="0.92911">
        <ele>1776</ele>
        <time>2010-01-01T10:46:15Z</time>
      </trkpt>
      <trkpt lat="42.653" lon="0.92898">
        <ele>1775</ele>
        <time>2010-01-01T10:46:21Z</time>
      </trkpt>
      <trkpt lat="42.65301" lon="0.92882">
        <ele>1773</ele>
        <time>2010-01-01T10:46:26Z</time>
      </trkpt>
      <trkpt lat="42.65304" lon="0.92867">
        <ele>1772</ele>
        <time>2010-01-01T10:46:30Z</time>
      </trkpt>
      <trkpt lat="42.65304" lon="0.92851">
        <ele>1771</ele>
        <time>2010-01-01T10:46:35Z</time>
      </trkpt>
      <trkpt lat="42.6531" lon="0.92833">
        <ele>1770</ele>
        <time>2010-01-01T10:46:41Z</time>
      </trkpt>
      <trkpt lat="42.6532" lon="0.92825">
        <ele>1770</ele>
        <time>2010-01-01T10:46:45Z</time>
      </trkpt>
      <trkpt lat="42.65333" lon="0.92819">
        <ele>1770</ele>
        <time>2010-01-01T10:46:51Z</time>
      </trkpt>
      <trkpt lat="42.65346" lon="0.92814">
        <ele>1768</ele>
        <time>2010-01-01T10:46:56Z</time>
      </trkpt>
      <trkpt lat="42.65357" lon="0.92813">
        <ele>1767</ele>
        <time>2010-01-01T10:47:01Z</time>
      </trkpt>
      <trkpt lat="42.65367" lon="0.92814">
        <ele>1766</ele>
        <time>2010-01-01T10:47:05Z</time>
      </trkpt>
      <trkpt lat="42.65377" lon="0.92813">
        <ele>1766</ele>
        <time>2010-01-01T10:47:09Z</time>
      </trkpt>
      <trkpt lat="42.65388" lon="0.9281">
        <ele>1765</ele>
        <time>2010-01-01T10:47:13Z</time>
      </trkpt>
      <trkpt lat="42.65399" lon="0.92809">
        <ele>1765</ele>
        <time>2010-01-01T10:47:18Z</time>
      </trkpt>
      <trkpt lat="42.65409" lon="0.92807">
        <ele>1765</ele>
        <time>2010-01-01T10:47:22Z</time>
      </trkpt>
      <trkpt lat="42.65419" lon="0.92809">
        <ele>1766</ele>
        <time>2010-01-01T10:47:26Z</time>
      </trkpt>
      <trkpt lat="42.65431" lon="0.92806">
        <ele>1766</ele>
        <time>2010-01-01T10:47:30Z</time>
      </trkpt>
      <trkpt lat="42.65446" lon="0.92807">
        <ele>1766</ele>
        <time>2010-01-01T10:47:36Z</time>
      </trkpt>
      <trkpt lat="42.65459" lon="0.92805">
        <ele>1765</ele>
        <time>2010-01-01T10:47:42Z</time>
      </trkpt>
      <trkpt lat="42.65472" lon="0.92803">
        <ele>1765</ele>
        <time>2010-01-01T10:47:47Z</time>
      </trkpt>
      <trkpt lat="42.65483" lon="0.92803">
        <ele>1764</ele>
        <time>2010-01-01T10:47:52Z</time>
      </trkpt>
      <trkpt lat="42.65495" lon="0.92801">
        <ele>1762</ele>
        <time>2010-01-01T10:47:56Z</time>
      </trkpt>
      <trkpt lat="42.65507" lon="0.928">
        <ele>1762</ele>
        <time>2010-01-01T10:48:01Z</time>
      </trkpt>
      <trkpt lat="42.65518" lon="0.92802">
        <ele>1762</ele>
        <time>2010-01-01T10:48:05Z</time>
      </trkpt>
      <trkpt lat="42.65528" lon="0.92804">
        <ele>1762</ele>
        <time>2010-01-01T10:48:10Z</time>
      </trkpt>
      <trkpt lat="42.65541" lon="0.928">
        <ele>1760</ele>
        <time>2010-01-01T10:48:15Z</time>
      </trkpt>
      <trkpt lat="42.65552" lon="0.92799">
        <ele>1759</ele>
        <time>2010-01-01T10:48:19Z</time>
      </trkpt>
      <trkpt lat="42.65561" lon="0.92796">
        <ele>1759</ele>
        <time>2010-01-01T10:48:23Z</time>
      </trkpt>
      <trkpt lat="42.65571" lon="0.92793">
        <ele>1758</ele>
        <time>2010-01-01T10:48:27Z</time>
      </trkpt>
      <trkpt lat="42.65582" lon="0.9279">
        <ele>1757</ele>
        <time>2010-01-01T10:48:32Z</time>
      </trkpt>
      <trkpt lat="42.65597" lon="0.92786">
        <ele>1756</ele>
        <time>2010-01-01T10:48:38Z</time>
      </trkpt>
      <trkpt lat="42.65609" lon="0.92782">
        <ele>1755</ele>
        <time>2010-01-01T10:48:43Z</time>
      </trkpt>
      <trkpt lat="42.65621" lon="0.92779">
        <ele>1755</ele>
        <time>2010-01-01T10:48:47Z</time>
      </trkpt>
      <trkpt lat="42.65632" lon="0.92777">
        <ele>1754</ele>
        <time>2010-01-01T10:48:52Z</time>
      </trkpt>
      <trkpt lat="42.65643" lon="0.92772">
        <ele>1754</ele>
        <time>2010-01-01T10:48:57Z</time>
      </trkpt>
      <trkpt lat="42.65654" lon="0.92766">
        <ele>1753</ele>
        <time>2010-01-01T10:49:01Z</time>
      </trkpt>
      <trkpt lat="42.65667" lon="0.92761">
        <ele>1753</ele>
        <time>2010-01-01T10:49:07Z</time>
      </trkpt>
      <trkpt lat="42.65678" lon="0.9276">
        <ele>1752</ele>
        <time>2010-01-01T10:49:11Z</time>
      </trkpt>
      <trkpt lat="42.6569" lon="0.92754">
        <ele>1751</ele>
        <time>2010-01-01T10:49:16Z</time>
      </trkpt>
      <trkpt lat="42.65702" lon="0.92752">
        <ele>1751</ele>
        <time>2010-01-01T10:49:21Z</time>
      </trkpt>
      <trkpt lat="42.65712" lon="0.92748">
        <ele>1752</ele>
        <time>2010-01-01T10:49:25Z</time>
      </trkpt>
      <trkpt lat="42.6572" lon="0.92751">
        <ele>1752</ele>
        <time>2010-01-01T10:49:29Z</time>
      </trkpt>
      <trkpt lat="42.65721" lon="0.92751">
        <ele>1752</ele>
        <time>2010-01-01T10:49:29Z</time>
      </trkpt>
      <trkpt lat="42.65716" lon="0.92728">
        <ele>1749</ele>
        <time>2010-01-01T10:49:36Z</time>
      </trkpt>
      <trkpt lat="42.65713" lon="0.92713">
        <ele>1747</ele>
        <time>2010-01-01T10:49:40Z</time>
      </trkpt>
      <trkpt lat="42.65711" lon="0.92699">
        <ele>1746</ele>
        <time>2010-01-01T10:49:45Z</time>
      </trkpt>
      <trkpt lat="42.65719" lon="0.92692">
        <ele>1746</ele>
        <time>2010-01-01T10:49:48Z</time>
      </trkpt>
      <trkpt lat="42.6573" lon="0.92691">
        <ele>1747</ele>
        <time>2010-01-01T10:49:53Z</time>
      </trkpt>
      <trkpt lat="42.6574" lon="0.92692">
        <ele>1748</ele>
        <time>2010-01-01T10:49:57Z</time>
      </trkpt>
      <trkpt lat="42.65751" lon="0.92697">
        <ele>1750</ele>
        <time>2010-01-01T10:50:01Z</time>
      </trkpt>
      <trkpt lat="42.6576" lon="0.92705">
        <ele>1753</ele>
        <time>2010-01-01T10:50:05Z</time>
      </trkpt>
      <trkpt lat="42.65768" lon="0.92713">
        <ele>1754</ele>
        <time>2010-01-01T10:50:10Z</time>
      </trkpt>
      <trkpt lat="42.65778" lon="0.9272">
        <ele>1756</ele>
        <time>2010-01-01T10:50:14Z</time>
      </trkpt>
      <trkpt lat="42.65788" lon="0.92726">
        <ele>1758</ele>
        <time>2010-01-01T10:50:18Z</time>
      </trkpt>
      <trkpt lat="42.65798" lon="0.9273">
        <ele>1760</ele>
        <time>2010-01-01T10:50:23Z</time>
      </trkpt>
      <trkpt lat="42.65809" lon="0.92734">
        <ele>1762</ele>
        <time>2010-01-01T10:50:27Z</time>
      </trkpt>
      <trkpt lat="42.65818" lon="0.92737">
        <ele>1763</ele>
        <time>2010-01-01T10:50:31Z</time>
      </trkpt>
      <trkpt lat="42.65828" lon="0.92741">
        <ele>1764</ele>
        <time>2010-01-01T10:50:35Z</time>
      </trkpt>
      <trkpt lat="42.65838" lon="0.92745">
        <ele>1764</ele>
        <time>2010-01-01T10:50:39Z</time>
      </trkpt>
      <trkpt lat="42.65848" lon="0.92744">
        <ele>1765</ele>
        <time>2010-01-01T10:50:43Z</time>
      </trkpt>
      <trkpt lat="42.65859" lon="0.92747">
        <ele>1765</ele>
        <time>2010-01-01T10:50:48Z</time>
      </trkpt>
      <trkpt lat="42.65869" lon="0.92752">
        <ele>1764</ele>
        <time>2010-01-01T10:50:52Z</time>
      </trkpt>
      <trkpt lat="42.65878" lon="0.9276">
        <ele>1764</ele>
        <time>2010-01-01T10:50:56Z</time>
      </trkpt>
      <trkpt lat="42.65888" lon="0.92766">
        <ele>1763</ele>
        <time>2010-01-01T10:51:01Z</time>
      </trkpt>
      <trkpt lat="42.65898" lon="0.92771">
        <ele>1763</ele>
        <time>2010-01-01T10:51:05Z</time>
      </trkpt>
      <trkpt lat="42.65908" lon="0.92775">
        <ele>1763</ele>
        <time>2010-01-01T10:51:09Z</time>
      </trkpt>
      <trkpt lat="42.6592" lon="0.92779">
        <ele>1762</ele>
        <time>2010-01-01T10:51:14Z</time>
      </trkpt>
      <trkpt lat="42.65931" lon="0.92782">
        <ele>1762</ele>
        <time>2010-01-01T10:51:18Z</time>
      </trkpt>
      <trkpt lat="42.65942" lon="0.92785">
        <ele>1762</ele>
        <time>2010-01-01T10:51:23Z</time>
      </trkpt>
      <trkpt lat="42.65953" lon="0.92792">
        <ele>1761</ele>
        <time>2010-01-01T10:51:28Z</time>
      </trkpt>
      <trkpt lat="42.65962" lon="0.92803">
        <ele>1760</ele>
        <time>2010-01-01T10:51:33Z</time>
      </trkpt>
      <trkpt lat="42.65972" lon="0.92811">
        <ele>1759</ele>
        <time>2010-01-01T10:51:37Z</time>
      </trkpt>
      <trkpt lat="42.65981" lon="0.92819">
        <ele>1758</ele>
        <time>2010-01-01T10:51:42Z</time>
      </trkpt>
      <trkpt lat="42.65988" lon="0.92829">
        <ele>1756</ele>
        <time>2010-01-01T10:51:46Z</time>
      </trkpt>
      <trkpt lat="42.65997" lon="0.9284">
        <ele>1755</ele>
        <time>2010-01-01T10:51:50Z</time>
      </trkpt>
      <trkpt lat="42.66004" lon="0.92849">
        <ele>1753</ele>
        <time>2010-01-01T10:51:55Z</time>
      </trkpt>
      <trkpt lat="42.66014" lon="0.92857">
        <ele>1752</ele>
        <time>2010-01-01T10:51:59Z</time>
      </trkpt>
      <trkpt lat="42.6602" lon="0.92866">
        <ele>1751</ele>
        <time>2010-01-01T10:52:03Z</time>
      </trkpt>
      <trkpt lat="42.66026" lon="0.92877">
        <ele>1751</ele>
        <time>2010-01-01T10:52:07Z</time>
      </trkpt>
      <trkpt lat="42.66031" lon="0.92889">
        <ele>1750</ele>
        <time>2010-01-01T10:52:11Z</time>
      </trkpt>
      <trkpt lat="42.66039" lon="0.92899">
        <ele>1750</ele>
        <time>2010-01-01T10:52:15Z</time>
      </trkpt>
      <trkpt lat="42.66048" lon="0.92908">
        <ele>1749</ele>
        <time>2010-01-01T10:52:20Z</time>
      </trkpt>
      <trkpt lat="42.66058" lon="0.92913">
        <ele>1749</ele>
        <time>2010-01-01T10:52:24Z</time>
      </trkpt>
      <trkpt lat="42.66071" lon="0.92911">
        <ele>1749</ele>
        <time>2010-01-01T10:52:29Z</time>
      </trkpt>
      <trkpt lat="42.66084" lon="0.92908">
        <ele>1750</ele>
        <time>2010-01-01T10:52:34Z</time>
      </trkpt>
      <trkpt lat="42.66097" lon="0.92906">
        <ele>1750</ele>
        <time>2010-01-01T10:52:39Z</time>
      </trkpt>
      <trkpt lat="42.66109" lon="0.929">
        <ele>1751</ele>
        <time>2010-01-01T10:52:45Z</time>
      </trkpt>
      <trkpt lat="42.66123" lon="0.92893">
        <ele>1750</ele>
        <time>2010-01-01T10:52:51Z</time>
      </trkpt>
      <trkpt lat="42.66135" lon="0.92883">
        <ele>1751</ele>
        <time>2010-01-01T10:52:56Z</time>
      </trkpt>
      <trkpt lat="42.66146" lon="0.92874">
        <ele>1751</ele>
        <time>2010-01-01T10:53:01Z</time>
      </trkpt>
      <trkpt lat="42.66158" lon="0.92877">
        <ele>1749</ele>
        <time>2010-01-01T10:53:06Z</time>
      </trkpt>
      <trkpt lat="42.66165" lon="0.92888">
        <ele>1747</ele>
        <time>2010-01-01T10:53:11Z</time>
      </trkpt>
      <trkpt lat="42.66172" lon="0.92898">
        <ele>1746</ele>
        <time>2010-01-01T10:53:15Z</time>
      </trkpt>
      <trkpt lat="42.6618" lon="0.9291">
        <ele>1746</ele>
        <time>2010-01-01T10:53:19Z</time>
      </trkpt>
      <trkpt lat="42.66191" lon="0.92915">
        <ele>1746</ele>
        <time>2010-01-01T10:53:24Z</time>
      </trkpt>
      <trkpt lat="42.66205" lon="0.92914">
        <ele>1748</ele>
        <time>2010-01-01T10:53:30Z</time>
      </trkpt>
      <trkpt lat="42.66232" lon="0.92916">
        <ele>1752</ele>
        <time>2010-01-01T10:53:40Z</time>
      </trkpt>
      <trkpt lat="42.66249" lon="0.92912">
        <ele>1753</ele>
        <time>2010-01-01T10:53:47Z</time>
      </trkpt>
      <trkpt lat="42.66262" lon="0.92907">
        <ele>1753</ele>
        <time>2010-01-01T10:53:53Z</time>
      </trkpt>
      <trkpt lat="42.66277" lon="0.92905">
        <ele>1753</ele>
        <time>2010-01-01T10:53:59Z</time>
      </trkpt>
      <trkpt lat="42.66291" lon="0.92906">
        <ele>1756</ele>
        <time>2010-01-01T10:54:04Z</time>
      </trkpt>
      <trkpt lat="42.66303" lon="0.92903">
        <ele>1757</ele>
        <time>2010-01-01T10:54:09Z</time>
      </trkpt>
      <trkpt lat="42.66318" lon="0.92893">
        <ele>1758</ele>
        <time>2010-01-01T10:54:16Z</time>
      </trkpt>
      <trkpt lat="42.66328" lon="0.92886">
        <ele>1759</ele>
        <time>2010-01-01T10:54:20Z</time>
      </trkpt>
      <trkpt lat="42.66337" lon="0.92878">
        <ele>1758</ele>
        <time>2010-01-01T10:54:25Z</time>
      </trkpt>
      <trkpt lat="42.66362" lon="0.92873">
        <ele>1756</ele>
        <time>2010-01-01T10:54:35Z</time>
      </trkpt>
      <trkpt lat="42.66387" lon="0.92872">
        <ele>1759</ele>
        <time>2010-01-01T10:54:45Z</time>
      </trkpt>
      <trkpt lat="42.66404" lon="0.9287">
        <ele>1763</ele>
        <time>2010-01-01T10:54:52Z</time>
      </trkpt>
      <trkpt lat="42.66423" lon="0.92864">
        <ele>1766</ele>
        <time>2010-01-01T10:54:59Z</time>
      </trkpt>
      <trkpt lat="42.66436" lon="0.92861">
        <ele>1769</ele>
        <time>2010-01-01T10:55:05Z</time>
      </trkpt>
      <trkpt lat="42.6645" lon="0.92856">
        <ele>1772</ele>
        <time>2010-01-01T10:55:11Z</time>
      </trkpt>
      <trkpt lat="42.66461" lon="0.92851">
        <ele>1774</ele>
        <time>2010-01-01T10:55:15Z</time>
      </trkpt>
      <trkpt lat="42.66473" lon="0.92843">
        <ele>1774</ele>
        <time>2010-01-01T10:55:21Z</time>
      </trkpt>
      <trkpt lat="42.66486" lon="0.92832">
        <ele>1775</ele>
        <time>2010-01-01T10:55:27Z</time>
      </trkpt>
      <trkpt lat="42.66498" lon="0.92825">
        <ele>1777</ele>
        <time>2010-01-01T10:55:32Z</time>
      </trkpt>
      <trkpt lat="42.66536" lon="0.92802">
        <ele>1789</ele>
        <time>2010-01-01T10:55:49Z</time>
      </trkpt>
      <trkpt lat="42.66557" lon="0.9278">
        <ele>1791</ele>
        <time>2010-01-01T10:55:59Z</time>
      </trkpt>
      <trkpt lat="42.6658" lon="0.92755">
        <ele>1792</ele>
        <time>2010-01-01T10:56:11Z</time>
      </trkpt>
      <trkpt lat="42.66594" lon="0.92739">
        <ele>1794</ele>
        <time>2010-01-01T10:56:18Z</time>
      </trkpt>
      <trkpt lat="42.66612" lon="0.9271">
        <ele>1795</ele>
        <time>2010-01-01T10:56:30Z</time>
      </trkpt>
      <trkpt lat="42.6663" lon="0.92688">
        <ele>1797</ele>
        <time>2010-01-01T10:56:39Z</time>
      </trkpt>
      <trkpt lat="42.66663" lon="0.92652">
        <ele>1799</ele>
        <time>2010-01-01T10:56:56Z</time>
      </trkpt>
      <trkpt lat="42.66672" lon="0.92633">
        <ele>1797</ele>
        <time>2010-01-01T10:57:03Z</time>
      </trkpt>
      <trkpt lat="42.66688" lon="0.92608">
        <ele>1795</ele>
        <time>2010-01-01T10:57:12Z</time>
      </trkpt>
      <trkpt lat="42.66719" lon="0.92579">
        <ele>1798</ele>
        <time>2010-01-01T10:57:28Z</time>
      </trkpt>
      <trkpt lat="42.66732" lon="0.92575">
        <ele>1799</ele>
        <time>2010-01-01T10:57:33Z</time>
      </trkpt>
      <trkpt lat="42.6678" lon="0.92582">
        <ele>1809</ele>
        <time>2010-01-01T10:57:52Z</time>
      </trkpt>
      <trkpt lat="42.66805" lon="0.92575">
        <ele>1810</ele>
        <time>2010-01-01T10:58:03Z</time>
      </trkpt>
      <trkpt lat="42.66825" lon="0.92564">
        <ele>1812</ele>
        <time>2010-01-01T10:58:11Z</time>
      </trkpt>
      <trkpt lat="42.66847" lon="0.92544">
        <ele>1813</ele>
        <time>2010-01-01T10:58:21Z</time>
      </trkpt>
      <trkpt lat="42.66849" lon="0.92576">
        <ele>1819</ele>
        <time>2010-01-01T10:58:31Z</time>
      </trkpt>
      <trkpt lat="42.66797" lon="0.9262">
        <ele>1823</ele>
        <time>2010-01-01T10:58:55Z</time>
      </trkpt>
      <trkpt lat="42.66771" lon="0.92631">
        <ele>1823</ele>
        <time>2010-01-01T10:59:06Z</time>
      </trkpt>
      <trkpt lat="42.66752" lon="0.92648">
        <ele>1823</ele>
        <time>2010-01-01T10:59:15Z</time>
      </trkpt>
      <trkpt lat="42.66732" lon="0.92677">
        <ele>1826</ele>
        <time>2010-01-01T10:59:27Z</time>
      </trkpt>
      <trkpt lat="42.66722" lon="0.92694">
        <ele>1828</ele>
        <time>2010-01-01T10:59:33Z</time>
      </trkpt>
      <trkpt lat="42.66711" lon="0.92718">
        <ele>1830</ele>
        <time>2010-01-01T10:59:42Z</time>
      </trkpt>
      <trkpt lat="42.66703" lon="0.92744">
        <ele>1831</ele>
        <time>2010-01-01T10:59:50Z</time>
      </trkpt>
      <trkpt lat="42.66732" lon="0.92774">
        <ele>1844</ele>
        <time>2010-01-01T11:00:05Z</time>
      </trkpt>
      <trkpt lat="42.66752" lon="0.92768">
        <ele>1848</ele>
        <time>2010-01-01T11:00:13Z</time>
      </trkpt>
      <trkpt lat="42.66785" lon="0.92758">
        <ele>1852</ele>
        <time>2010-01-01T11:00:26Z</time>
      </trkpt>
      <trkpt lat="42.66809" lon="0.92751">
        <ele>1855</ele>
        <time>2010-01-01T11:00:36Z</time>
      </trkpt>
      <trkpt lat="42.66833" lon="0.92756">
        <ele>1858</ele>
        <time>2010-01-01T11:00:46Z</time>
      </trkpt>
      <trkpt lat="42.66875" lon="0.92764">
        <ele>1863</ele>
        <time>2010-01-01T11:01:03Z</time>
      </trkpt>
      <trkpt lat="42.66908" lon="0.9278">
        <ele>1870</ele>
        <time>2010-01-01T11:01:17Z</time>
      </trkpt>
      <trkpt lat="42.66958" lon="0.92803">
        <ele>1881</ele>
        <time>2010-01-01T11:01:38Z</time>
      </trkpt>
      <trkpt lat="42.66998" lon="0.92825">
        <ele>1889</ele>
        <time>2010-01-01T11:01:55Z</time>
      </trkpt>
      <trkpt lat="42.67047" lon="0.92833">
        <ele>1894</ele>
        <time>2010-01-01T11:02:15Z</time>
      </trkpt>
      <trkpt lat="42.67061" lon="0.92837">
        <ele>1895</ele>
        <time>2010-01-01T11:02:21Z</time>
      </trkpt>
      <trkpt lat="42.67076" lon="0.92846">
        <ele>1896</ele>
        <time>2010-01-01T11:02:27Z</time>
      </trkpt>
      <trkpt lat="42.67088" lon="0.92851">
        <ele>1897</ele>
        <time>2010-01-01T11:02:32Z</time>
      </trkpt>
      <trkpt lat="42.67102" lon="0.92862">
        <ele>1898</ele>
        <time>2010-01-01T11:02:39Z</time>
      </trkpt>
      <trkpt lat="42.67113" lon="0.92869">
        <ele>1898</ele>
        <time>2010-01-01T11:02:43Z</time>
      </trkpt>
      <trkpt lat="42.67122" lon="0.92879">
        <ele>1900</ele>
        <time>2010-01-01T11:02:48Z</time>
      </trkpt>
      <trkpt lat="42.6713" lon="0.92887">
        <ele>1901</ele>
        <time>2010-01-01T11:02:52Z</time>
      </trkpt>
      <trkpt lat="42.67141" lon="0.92895">
        <ele>1902</ele>
        <time>2010-01-01T11:02:57Z</time>
      </trkpt>
      <trkpt lat="42.67155" lon="0.92902">
        <ele>1903</ele>
        <time>2010-01-01T11:03:03Z</time>
      </trkpt>
      <trkpt lat="42.67169" lon="0.92907">
        <ele>1904</ele>
        <time>2010-01-01T11:03:09Z</time>
      </trkpt>
      <trkpt lat="42.67189" lon="0.92912">
        <ele>1904</ele>
        <time>2010-01-01T11:03:17Z</time>
      </trkpt>
      <trkpt lat="42.67203" lon="0.92909">
        <ele>1904</ele>
        <time>2010-01-01T11:03:23Z</time>
      </trkpt>
      <trkpt lat="42.6724" lon="0.92892">
        <ele>1906</ele>
        <time>2010-01-01T11:03:38Z</time>
      </trkpt>
      <trkpt lat="42.67264" lon="0.92893">
        <ele>1908</ele>
        <time>2010-01-01T11:03:48Z</time>
      </trkpt>
      <trkpt lat="42.67292" lon="0.92895">
        <ele>1912</ele>
        <time>2010-01-01T11:03:59Z</time>
      </trkpt>
      <trkpt lat="42.67337" lon="0.92893">
        <ele>1918</ele>
        <time>2010-01-01T11:04:17Z</time>
      </trkpt>
      <trkpt lat="42.67387" lon="0.9289">
        <ele>1922</ele>
        <time>2010-01-01T11:04:37Z</time>
      </trkpt>
      <trkpt lat="42.67462" lon="0.92889">
        <ele>1934</ele>
        <time>2010-01-01T11:05:07Z</time>
      </trkpt>
      <trkpt lat="42.67502" lon="0.92904">
        <ele>1941</ele>
        <time>2010-01-01T11:05:24Z</time>
      </trkpt>
      <trkpt lat="42.67528" lon="0.92912">
        <ele>1946</ele>
        <time>2010-01-01T11:05:34Z</time>
      </trkpt>
      <trkpt lat="42.67539" lon="0.92924">
        <ele>1948</ele>
        <time>2010-01-01T11:05:40Z</time>
      </trkpt>
      <trkpt lat="42.67566" lon="0.92932">
        <ele>1953</ele>
        <time>2010-01-01T11:05:51Z</time>
      </trkpt>
      <trkpt lat="42.67632" lon="0.9297">
        <ele>1967</ele>
        <time>2010-01-01T11:06:20Z</time>
      </trkpt>
      <trkpt lat="42.67693" lon="0.93038">
        <ele>1980</ele>
        <time>2010-01-01T11:06:51Z</time>
      </trkpt>
      <trkpt lat="42.677" lon="0.93062">
        <ele>1981</ele>
        <time>2010-01-01T11:06:59Z</time>
      </trkpt>
      <trkpt lat="42.6772" lon="0.93087">
        <ele>1986</ele>
        <time>2010-01-01T11:07:10Z</time>
      </trkpt>
      <trkpt lat="42.67759" lon="0.93143">
        <ele>1992</ele>
        <time>2010-01-01T11:07:32Z</time>
      </trkpt>
      <trkpt lat="42.67805" lon="0.93151">
        <ele>1995</ele>
        <time>2010-01-01T11:07:51Z</time>
      </trkpt>
      <trkpt lat="42.6782" lon="0.93154">
        <ele>1995</ele>
        <time>2010-01-01T11:07:57Z</time>
      </trkpt>
      <trkpt lat="42.67831" lon="0.93154">
        <ele>1995</ele>
        <time>2010-01-01T11:08:01Z</time>
      </trkpt>
      <trkpt lat="42.67844" lon="0.93155">
        <ele>1996</ele>
        <time>2010-01-01T11:08:07Z</time>
      </trkpt>
      <trkpt lat="42.67854" lon="0.93159">
        <ele>1996</ele>
        <time>2010-01-01T11:08:11Z</time>
      </trkpt>
      <trkpt lat="42.67864" lon="0.93161">
        <ele>1997</ele>
        <time>2010-01-01T11:08:15Z</time>
      </trkpt>
      <trkpt lat="42.67875" lon="0.93161">
        <ele>1997</ele>
        <time>2010-01-01T11:08:19Z</time>
      </trkpt>
      <trkpt lat="42.67886" lon="0.93161">
        <ele>1997</ele>
        <time>2010-01-01T11:08:24Z</time>
      </trkpt>
      <trkpt lat="42.67897" lon="0.93162">
        <ele>1997</ele>
        <time>2010-01-01T11:08:28Z</time>
      </trkpt>
      <trkpt lat="42.67909" lon="0.93161">
        <ele>1997</ele>
        <time>2010-01-01T11:08:33Z</time>
      </trkpt>
      <trkpt lat="42.6792" lon="0.93159">
        <ele>1997</ele>
        <time>2010-01-01T11:08:38Z</time>
      </trkpt>
      <trkpt lat="42.67931" lon="0.93159">
        <ele>1997</ele>
        <time>2010-01-01T11:08:42Z</time>
      </trkpt>
      <trkpt lat="42.67943" lon="0.93156">
        <ele>1997</ele>
        <time>2010-01-01T11:08:47Z</time>
      </trkpt>
      <trkpt lat="42.67953" lon="0.93153">
        <ele>1996</ele>
        <time>2010-01-01T11:08:51Z</time>
      </trkpt>
      <trkpt lat="42.67962" lon="0.93147">
        <ele>1996</ele>
        <time>2010-01-01T11:08:55Z</time>
      </trkpt>
      <trkpt lat="42.67972" lon="0.93137">
        <ele>1998</ele>
        <time>2010-01-01T11:09:00Z</time>
      </trkpt>
      <trkpt lat="42.67983" lon="0.93131">
        <ele>1999</ele>
        <time>2010-01-01T11:09:05Z</time>
      </trkpt>
      <trkpt lat="42.67993" lon="0.93133">
        <ele>2000</ele>
        <time>2010-01-01T11:09:09Z</time>
      </trkpt>
      <trkpt lat="42.68003" lon="0.93136">
        <ele>2000</ele>
        <time>2010-01-01T11:09:13Z</time>
      </trkpt>
      <trkpt lat="42.68015" lon="0.93137">
        <ele>2000</ele>
        <time>2010-01-01T11:09:18Z</time>
      </trkpt>
      <trkpt lat="42.68025" lon="0.93137">
        <ele>2000</ele>
        <time>2010-01-01T11:09:22Z</time>
      </trkpt>
      <trkpt lat="42.68032" lon="0.93136">
        <ele>2000</ele>
        <time>2010-01-01T11:09:25Z</time>
      </trkpt>
      <trkpt lat="42.6804" lon="0.9314">
        <ele>1999</ele>
        <time>2010-01-01T11:09:28Z</time>
      </trkpt>
      <trkpt lat="42.68047" lon="0.93146">
        <ele>1998</ele>
        <time>2010-01-01T11:09:31Z</time>
      </trkpt>
      <trkpt lat="42.68055" lon="0.93148">
        <ele>1998</ele>
        <time>2010-01-01T11:09:35Z</time>
      </trkpt>
      <trkpt lat="42.68065" lon="0.93151">
        <ele>1998</ele>
        <time>2010-01-01T11:09:38Z</time>
      </trkpt>
      <trkpt lat="42.68076" lon="0.93154">
        <ele>1998</ele>
        <time>2010-01-01T11:09:43Z</time>
      </trkpt>
      <trkpt lat="42.68086" lon="0.93157">
        <ele>1998</ele>
        <time>2010-01-01T11:09:47Z</time>
      </trkpt>
      <trkpt lat="42.68096" lon="0.93159">
        <ele>1999</ele>
        <time>2010-01-01T11:09:51Z</time>
      </trkpt>
      <trkpt lat="42.68106" lon="0.93161">
        <ele>2000</ele>
        <time>2010-01-01T11:09:55Z</time>
      </trkpt>
      <trkpt lat="42.68117" lon="0.93161">
        <ele>2001</ele>
        <time>2010-01-01T11:10:00Z</time>
      </trkpt>
      <trkpt lat="42.68128" lon="0.9316">
        <ele>2003</ele>
        <time>2010-01-01T11:10:04Z</time>
      </trkpt>
      <trkpt lat="42.68145" lon="0.93157">
        <ele>2007</ele>
        <time>2010-01-01T11:10:11Z</time>
      </trkpt>
      <trkpt lat="42.6816" lon="0.9316">
        <ele>2009</ele>
        <time>2010-01-01T11:10:17Z</time>
      </trkpt>
      <trkpt lat="42.68172" lon="0.93164">
        <ele>2010</ele>
        <time>2010-01-01T11:10:22Z</time>
      </trkpt>
      <trkpt lat="42.68182" lon="0.93169">
        <ele>2010</ele>
        <time>2010-01-01T11:10:26Z</time>
      </trkpt>
      <trkpt lat="42.68195" lon="0.93167">
        <ele>2012</ele>
        <time>2010-01-01T11:10:32Z</time>
      </trkpt>
      <trkpt lat="42.68208" lon="0.93168">
        <ele>2012</ele>
        <time>2010-01-01T11:10:37Z</time>
      </trkpt>
      <trkpt lat="42.68219" lon="0.93169">
        <ele>2013</ele>
        <time>2010-01-01T11:10:41Z</time>
      </trkpt>
      <trkpt lat="42.6823" lon="0.93171">
        <ele>2014</ele>
        <time>2010-01-01T11:10:45Z</time>
      </trkpt>
      <trkpt lat="42.68239" lon="0.93167">
        <ele>2015</ele>
        <time>2010-01-01T11:10:49Z</time>
      </trkpt>
      <trkpt lat="42.68251" lon="0.93161">
        <ele>2016</ele>
        <time>2010-01-01T11:10:54Z</time>
      </trkpt>
      <trkpt lat="42.68262" lon="0.93159">
        <ele>2017</ele>
        <time>2010-01-01T11:10:59Z</time>
      </trkpt>
      <trkpt lat="42.68273" lon="0.93156">
        <ele>2017</ele>
        <time>2010-01-01T11:11:03Z</time>
      </trkpt>
      <trkpt lat="42.68283" lon="0.93154">
        <ele>2017</ele>
        <time>2010-01-01T11:11:08Z</time>
      </trkpt>
      <trkpt lat="42.68292" lon="0.93153">
        <ele>2017</ele>
        <time>2010-01-01T11:11:11Z</time>
      </trkpt>
      <trkpt lat="42.68302" lon="0.93151">
        <ele>2017</ele>
        <time>2010-01-01T11:11:15Z</time>
      </trkpt>
      <trkpt lat="42.68312" lon="0.93147">
        <ele>2017</ele>
        <time>2010-01-01T11:11:19Z</time>
      </trkpt>
      <trkpt lat="42.68321" lon="0.93143">
        <ele>2016</ele>
        <time>2010-01-01T11:11:23Z</time>
      </trkpt>
      <trkpt lat="42.68337" lon="0.93137">
        <ele>2014</ele>
        <time>2010-01-01T11:11:30Z</time>
      </trkpt>
      <trkpt lat="42.68355" lon="0.93131">
        <ele>2012</ele>
        <time>2010-01-01T11:11:37Z</time>
      </trkpt>
      <trkpt lat="42.68378" lon="0.93132">
        <ele>2011</ele>
        <time>2010-01-01T11:11:47Z</time>
      </trkpt>
      <trkpt lat="42.68394" lon="0.93128">
        <ele>2011</ele>
        <time>2010-01-01T11:11:53Z</time>
      </trkpt>
      <trkpt lat="42.68416" lon="0.93124">
        <ele>2009</ele>
        <time>2010-01-01T11:12:02Z</time>
      </trkpt>
      <trkpt lat="42.68447" lon="0.93119">
        <ele>2003</ele>
        <time>2010-01-01T11:12:14Z</time>
      </trkpt>
      <trkpt lat="42.68471" lon="0.93121">
        <ele>1999</ele>
        <time>2010-01-01T11:12:24Z</time>
      </trkpt>
      <trkpt lat="42.6849" lon="0.93123">
        <ele>1998</ele>
        <time>2010-01-01T11:12:32Z</time>
      </trkpt>
      <trkpt lat="42.68506" lon="0.93129">
        <ele>1997</ele>
        <time>2010-01-01T11:12:38Z</time>
      </trkpt>
      <trkpt lat="42.68522" lon="0.9313">
        <ele>1995</ele>
        <time>2010-01-01T11:12:45Z</time>
      </trkpt>
      <trkpt lat="42.68539" lon="0.93131">
        <ele>1994</ele>
        <time>2010-01-01T11:12:52Z</time>
      </trkpt>
      <trkpt lat="42.68565" lon="0.93127">
        <ele>1994</ele>
        <time>2010-01-01T11:13:02Z</time>
      </trkpt>
      <trkpt lat="42.68581" lon="0.93118">
        <ele>1992</ele>
        <time>2010-01-01T11:13:09Z</time>
      </trkpt>
      <trkpt lat="42.68596" lon="0.93113">
        <ele>1989</ele>
        <time>2010-01-01T11:13:15Z</time>
      </trkpt>
      <trkpt lat="42.6861" lon="0.93107">
        <ele>1987</ele>
        <time>2010-01-01T11:13:21Z</time>
      </trkpt>
      <trkpt lat="42.6862" lon="0.93099">
        <ele>1986</ele>
        <time>2010-01-01T11:13:26Z</time>
      </trkpt>
      <trkpt lat="42.68633" lon="0.93087">
        <ele>1984</ele>
        <time>2010-01-01T11:13:32Z</time>
      </trkpt>
      <trkpt lat="42.6864" lon="0.93074">
        <ele>1983</ele>
        <time>2010-01-01T11:13:37Z</time>
      </trkpt>
      <trkpt lat="42.68646" lon="0.93059">
        <ele>1984</ele>
        <time>2010-01-01T11:13:42Z</time>
      </trkpt>
      <trkpt lat="42.68651" lon="0.93045">
        <ele>1984</ele>
        <time>2010-01-01T11:13:46Z</time>
      </trkpt>
      <trkpt lat="42.68656" lon="0.9303">
        <ele>1983</ele>
        <time>2010-01-01T11:13:51Z</time>
      </trkpt>
      <trkpt lat="42.68664" lon="0.93018">
        <ele>1982</ele>
        <time>2010-01-01T11:13:56Z</time>
      </trkpt>
      <trkpt lat="42.68673" lon="0.93002">
        <ele>1980</ele>
        <time>2010-01-01T11:14:02Z</time>
      </trkpt>
      <trkpt lat="42.68677" lon="0.92986">
        <ele>1979</ele>
        <time>2010-01-01T11:14:07Z</time>
      </trkpt>
      <trkpt lat="42.68682" lon="0.9297">
        <ele>1978</ele>
        <time>2010-01-01T11:14:12Z</time>
      </trkpt>
      <trkpt lat="42.68689" lon="0.92955">
        <ele>1976</ele>
        <time>2010-01-01T11:14:17Z</time>
      </trkpt>
      <trkpt lat="42.68699" lon="0.9294">
        <ele>1974</ele>
        <time>2010-01-01T11:14:23Z</time>
      </trkpt>
      <trkpt lat="42.68711" lon="0.9293">
        <ele>1972</ele>
        <time>2010-01-01T11:14:29Z</time>
      </trkpt>
      <trkpt lat="42.68727" lon="0.92917">
        <ele>1970</ele>
        <time>2010-01-01T11:14:36Z</time>
      </trkpt>
      <trkpt lat="42.68755" lon="0.92887">
        <ele>1962</ele>
        <time>2010-01-01T11:14:50Z</time>
      </trkpt>
      <trkpt lat="42.68777" lon="0.92864">
        <ele>1951</ele>
        <time>2010-01-01T11:15:01Z</time>
      </trkpt>
      <trkpt lat="42.68821" lon="0.92839">
        <ele>1939</ele>
        <time>2010-01-01T11:15:21Z</time>
      </trkpt>
      <trkpt lat="42.68836" lon="0.92826">
        <ele>1935</ele>
        <time>2010-01-01T11:15:28Z</time>
      </trkpt>
      <trkpt lat="42.68858" lon="0.92806">
        <ele>1932</ele>
        <time>2010-01-01T11:15:38Z</time>
      </trkpt>
      <trkpt lat="42.68879" lon="0.92788">
        <ele>1932</ele>
        <time>2010-01-01T11:15:48Z</time>
      </trkpt>
      <trkpt lat="42.68908" lon="0.92755">
        <ele>1928</ele>
        <time>2010-01-01T11:16:03Z</time>
      </trkpt>
      <trkpt lat="42.68926" lon="0.92745">
        <ele>1926</ele>
        <time>2010-01-01T11:16:11Z</time>
      </trkpt>
      <trkpt lat="42.68938" lon="0.92736">
        <ele>1923</ele>
        <time>2010-01-01T11:16:17Z</time>
      </trkpt>
      <trkpt lat="42.68965" lon="0.92727">
        <ele>1919</ele>
        <time>2010-01-01T11:16:28Z</time>
      </trkpt>
      <trkpt lat="42.68984" lon="0.92729">
        <ele>1916</ele>
        <time>2010-01-01T11:16:35Z</time>
      </trkpt>
      <trkpt lat="42.69021" lon="0.92717">
        <ele>1906</ele>
        <time>2010-01-01T11:16:51Z</time>
      </trkpt>
      <trkpt lat="42.69032" lon="0.92706">
        <ele>1902</ele>
        <time>2010-01-01T11:16:56Z</time>
      </trkpt>
      <trkpt lat="42.69046" lon="0.92706">
        <ele>1897</ele>
        <time>2010-01-01T11:17:02Z</time>
      </trkpt>
      <trkpt lat="42.69057" lon="0.92719">
        <ele>1894</ele>
        <time>2010-01-01T11:17:08Z</time>
      </trkpt>
      <trkpt lat="42.6906" lon="0.92735">
        <ele>1894</ele>
        <time>2010-01-01T11:17:13Z</time>
      </trkpt>
      <trkpt lat="42.69058" lon="0.92754">
        <ele>1894</ele>
        <time>2010-01-01T11:17:18Z</time>
      </trkpt>
      <trkpt lat="42.69061" lon="0.92775">
        <ele>1894</ele>
        <time>2010-01-01T11:17:24Z</time>
      </trkpt>
      <trkpt lat="42.69065" lon="0.92791">
        <ele>1893</ele>
        <time>2010-01-01T11:17:29Z</time>
      </trkpt>
      <trkpt lat="42.69125" lon="0.92854">
        <ele>1865</ele>
        <time>2010-01-01T11:17:59Z</time>
      </trkpt>
      <trkpt lat="42.69124" lon="0.92928">
        <ele>1846</ele>
        <time>2010-01-01T11:18:21Z</time>
      </trkpt>
      <trkpt lat="42.69105" lon="0.9302">
        <ele>1831</ele>
        <time>2010-01-01T11:18:50Z</time>
      </trkpt>
      <trkpt lat="42.69086" lon="0.93086">
        <ele>1817</ele>
        <time>2010-01-01T11:19:10Z</time>
      </trkpt>
      <trkpt lat="42.69074" lon="0.93107">
        <ele>1813</ele>
        <time>2010-01-01T11:19:18Z</time>
      </trkpt>
      <trkpt lat="42.69049" lon="0.93167">
        <ele>1797</ele>
        <time>2010-01-01T11:19:39Z</time>
      </trkpt>
      <trkpt lat="42.69012" lon="0.93234">
        <ele>1787</ele>
        <time>2010-01-01T11:20:03Z</time>
      </trkpt>
      <trkpt lat="42.68993" lon="0.93259">
        <ele>1789</ele>
        <time>2010-01-01T11:20:14Z</time>
      </trkpt>
      <trkpt lat="42.69015" lon="0.93321">
        <ele>1752</ele>
        <time>2010-01-01T11:20:34Z</time>
      </trkpt>
      <trkpt lat="42.69009" lon="0.93387">
        <ele>1732</ele>
        <time>2010-01-01T11:20:54Z</time>
      </trkpt>
      <trkpt lat="42.68985" lon="0.93442">
        <ele>1725</ele>
        <time>2010-01-01T11:21:12Z</time>
      </trkpt>
      <trkpt lat="42.68952" lon="0.93491">
        <ele>1720</ele>
        <time>2010-01-01T11:21:32Z</time>
      </trkpt>
      <trkpt lat="42.68896" lon="0.93578">
        <ele>1702</ele>
        <time>2010-01-01T11:22:06Z</time>
      </trkpt>
      <trkpt lat="42.68818" lon="0.93703">
        <ele>1684</ele>
        <time>2010-01-01T11:22:54Z</time>
      </trkpt>
      <trkpt lat="42.6881" lon="0.93714">
        <ele>1682</ele>
        <time>2010-01-01T11:22:59Z</time>
      </trkpt>
      <trkpt lat="42.68798" lon="0.93732">
        <ele>1676</ele>
        <time>2010-01-01T11:23:06Z</time>
      </trkpt>
      <trkpt lat="42.68782" lon="0.93756">
        <ele>1666</ele>
        <time>2010-01-01T11:23:15Z</time>
      </trkpt>
      <trkpt lat="42.68792" lon="0.93753">
        <ele>1666</ele>
        <time>2010-01-01T11:23:19Z</time>
      </trkpt>
      <trkpt lat="42.68809" lon="0.93747">
        <ele>1664</ele>
        <time>2010-01-01T11:23:26Z</time>
      </trkpt>
      <trkpt lat="42.68824" lon="0.93745">
        <ele>1658</ele>
        <time>2010-01-01T11:23:32Z</time>
      </trkpt>
      <trkpt lat="42.68907" lon="0.9378">
        <ele>1618</ele>
        <time>2010-01-01T11:24:07Z</time>
      </trkpt>
      <trkpt lat="42.68816" lon="0.93925">
        <ele>1586</ele>
        <time>2010-01-01T11:25:03Z</time>
      </trkpt>
      <trkpt lat="42.68802" lon="0.9395">
        <ele>1580</ele>
        <time>2010-01-01T11:25:12Z</time>
      </trkpt>
      <trkpt lat="42.68783" lon="0.93998">
        <ele>1569</ele>
        <time>2010-01-01T11:25:28Z</time>
      </trkpt>
      <trkpt lat="42.6878" lon="0.94018">
        <ele>1560</ele>
        <time>2010-01-01T11:25:35Z</time>
      </trkpt>
      <trkpt lat="42.68785" lon="0.94033">
        <ele>1552</ele>
        <time>2010-01-01T11:25:39Z</time>
      </trkpt>
      <trkpt lat="42.6879" lon="0.94046">
        <ele>1547</ele>
        <time>2010-01-01T11:25:43Z</time>
      </trkpt>
      <trkpt lat="42.68799" lon="0.94051">
        <ele>1545</ele>
        <time>2010-01-01T11:25:48Z</time>
      </trkpt>
      <trkpt lat="42.68804" lon="0.94064">
        <ele>1541</ele>
        <time>2010-01-01T11:25:52Z</time>
      </trkpt>
      <trkpt lat="42.68811" lon="0.94076">
        <ele>1537</ele>
        <time>2010-01-01T11:25:56Z</time>
      </trkpt>
      <trkpt lat="42.68817" lon="0.94086">
        <ele>1534</ele>
        <time>2010-01-01T11:26:00Z</time>
      </trkpt>
      <trkpt lat="42.68825" lon="0.94098">
        <ele>1531</ele>
        <time>2010-01-01T11:26:05Z</time>
      </trkpt>
      <trkpt lat="42.68831" lon="0.94114">
        <ele>1526</ele>
        <time>2010-01-01T11:26:10Z</time>
      </trkpt>
      <trkpt lat="42.68826" lon="0.9414">
        <ele>1522</ele>
        <time>2010-01-01T11:26:18Z</time>
      </trkpt>
      <trkpt lat="42.68802" lon="0.9417">
        <ele>1522</ele>
        <time>2010-01-01T11:26:31Z</time>
      </trkpt>
      <trkpt lat="42.68787" lon="0.94186">
        <ele>1521</ele>
        <time>2010-01-01T11:26:39Z</time>
      </trkpt>
      <trkpt lat="42.68776" lon="0.94202">
        <ele>1519</ele>
        <time>2010-01-01T11:26:45Z</time>
      </trkpt>
      <trkpt lat="42.68765" lon="0.94225">
        <ele>1516</ele>
        <time>2010-01-01T11:26:53Z</time>
      </trkpt>
      <trkpt lat="42.68763" lon="0.94242">
        <ele>1516</ele>
        <time>2010-01-01T11:26:58Z</time>
      </trkpt>
      <trkpt lat="42.68765" lon="0.94255">
        <ele>1515</ele>
        <time>2010-01-01T11:27:02Z</time>
      </trkpt>
      <trkpt lat="42.68768" lon="0.94268">
        <ele>1514</ele>
        <time>2010-01-01T11:27:06Z</time>
      </trkpt>
      <trkpt lat="42.68776" lon="0.94272">
        <ele>1512</ele>
        <time>2010-01-01T11:27:10Z</time>
      </trkpt>
      <trkpt lat="42.68784" lon="0.94263">
        <ele>1512</ele>
        <time>2010-01-01T11:27:14Z</time>
      </trkpt>
      <trkpt lat="42.68793" lon="0.94249">
        <ele>1512</ele>
        <time>2010-01-01T11:27:19Z</time>
      </trkpt>
      <trkpt lat="42.68797" lon="0.94234">
        <ele>1514</ele>
        <time>2010-01-01T11:27:24Z</time>
      </trkpt>
      <trkpt lat="42.688" lon="0.94219">
        <ele>1515</ele>
        <time>2010-01-01T11:27:28Z</time>
      </trkpt>
      <trkpt lat="42.6881" lon="0.9421">
        <ele>1516</ele>
        <time>2010-01-01T11:27:33Z</time>
      </trkpt>
      <trkpt lat="42.68822" lon="0.94203">
        <ele>1514</ele>
        <time>2010-01-01T11:27:38Z</time>
      </trkpt>
      <trkpt lat="42.68833" lon="0.94198">
        <ele>1512</ele>
        <time>2010-01-01T11:27:43Z</time>
      </trkpt>
      <trkpt lat="42.68842" lon="0.94191">
        <ele>1512</ele>
        <time>2010-01-01T11:27:47Z</time>
      </trkpt>
      <trkpt lat="42.68851" lon="0.94183">
        <ele>1511</ele>
        <time>2010-01-01T11:27:52Z</time>
      </trkpt>
      <trkpt lat="42.68859" lon="0.94174">
        <ele>1510</ele>
        <time>2010-01-01T11:27:56Z</time>
      </trkpt>
      <trkpt lat="42.68866" lon="0.94166">
        <ele>1510</ele>
        <time>2010-01-01T11:27:59Z</time>
      </trkpt>
      <trkpt lat="42.68875" lon="0.9416">
        <ele>1509</ele>
        <time>2010-01-01T11:28:03Z</time>
      </trkpt>
      <trkpt lat="42.68883" lon="0.94151">
        <ele>1509</ele>
        <time>2010-01-01T11:28:07Z</time>
      </trkpt>
      <trkpt lat="42.68895" lon="0.94144">
        <ele>1507</ele>
        <time>2010-01-01T11:28:13Z</time>
      </trkpt>
      <trkpt lat="42.68902" lon="0.94134">
        <ele>1507</ele>
        <time>2010-01-01T11:28:17Z</time>
      </trkpt>
      <trkpt lat="42.68908" lon="0.9412">
        <ele>1508</ele>
        <time>2010-01-01T11:28:21Z</time>
      </trkpt>
      <trkpt lat="42.68913" lon="0.94106">
        <ele>1509</ele>
        <time>2010-01-01T11:28:26Z</time>
      </trkpt>
      <trkpt lat="42.6892" lon="0.94094">
        <ele>1509</ele>
        <time>2010-01-01T11:28:31Z</time>
      </trkpt>
      <trkpt lat="42.68927" lon="0.94081">
        <ele>1509</ele>
        <time>2010-01-01T11:28:35Z</time>
      </trkpt>
      <trkpt lat="42.6894" lon="0.94072">
        <ele>1506</ele>
        <time>2010-01-01T11:28:41Z</time>
      </trkpt>
      <trkpt lat="42.68951" lon="0.94062">
        <ele>1505</ele>
        <time>2010-01-01T11:28:46Z</time>
      </trkpt>
      <trkpt lat="42.68959" lon="0.94049">
        <ele>1505</ele>
        <time>2010-01-01T11:28:51Z</time>
      </trkpt>
      <trkpt lat="42.68968" lon="0.94034">
        <ele>1506</ele>
        <time>2010-01-01T11:28:57Z</time>
      </trkpt>
      <trkpt lat="42.68978" lon="0.94022">
        <ele>1505</ele>
        <time>2010-01-01T11:29:03Z</time>
      </trkpt>
      <trkpt lat="42.68988" lon="0.94011">
        <ele>1505</ele>
        <time>2010-01-01T11:29:08Z</time>
      </trkpt>
      <trkpt lat="42.68999" lon="0.94001">
        <ele>1504</ele>
        <time>2010-01-01T11:29:13Z</time>
      </trkpt>
      <trkpt lat="42.6901" lon="0.9399">
        <ele>1505</ele>
        <time>2010-01-01T11:29:18Z</time>
      </trkpt>
      <trkpt lat="42.69021" lon="0.93979">
        <ele>1507</ele>
        <time>2010-01-01T11:29:24Z</time>
      </trkpt>
      <trkpt lat="42.69032" lon="0.9397">
        <ele>1507</ele>
        <time>2010-01-01T11:29:29Z</time>
      </trkpt>
      <trkpt lat="42.69045" lon="0.93958">
        <ele>1506</ele>
        <time>2010-01-01T11:29:35Z</time>
      </trkpt>
      <trkpt lat="42.69059" lon="0.93951">
        <ele>1505</ele>
        <time>2010-01-01T11:29:41Z</time>
      </trkpt>
      <trkpt lat="42.69072" lon="0.93946">
        <ele>1503</ele>
        <time>2010-01-01T11:29:47Z</time>
      </trkpt>
      <trkpt lat="42.69084" lon="0.93938">
        <ele>1503</ele>
        <time>2010-01-01T11:29:52Z</time>
      </trkpt>
      <trkpt lat="42.69095" lon="0.93926">
        <ele>1503</ele>
        <time>2010-01-01T11:29:58Z</time>
      </trkpt>
      <trkpt lat="42.69103" lon="0.93912">
        <ele>1503</ele>
        <time>2010-01-01T11:30:03Z</time>
      </trkpt>
      <trkpt lat="42.69108" lon="0.93889">
        <ele>1505</ele>
        <time>2010-01-01T11:30:10Z</time>
      </trkpt>
      <trkpt lat="42.69115" lon="0.9387">
        <ele>1508</ele>
        <time>2010-01-01T11:30:16Z</time>
      </trkpt>
      <trkpt lat="42.69125" lon="0.9386">
        <ele>1507</ele>
        <time>2010-01-01T11:30:21Z</time>
      </trkpt>
      <trkpt lat="42.69134" lon="0.93849">
        <ele>1507</ele>
        <time>2010-01-01T11:30:26Z</time>
      </trkpt>
      <trkpt lat="42.69144" lon="0.9384">
        <ele>1506</ele>
        <time>2010-01-01T11:30:31Z</time>
      </trkpt>
      <trkpt lat="42.69152" lon="0.93828">
        <ele>1505</ele>
        <time>2010-01-01T11:30:36Z</time>
      </trkpt>
      <trkpt lat="42.69161" lon="0.93814">
        <ele>1503</ele>
        <time>2010-01-01T11:30:41Z</time>
      </trkpt>
      <trkpt lat="42.69169" lon="0.938">
        <ele>1502</ele>
        <time>2010-01-01T11:30:46Z</time>
      </trkpt>
      <trkpt lat="42.69176" lon="0.93788">
        <ele>1504</ele>
        <time>2010-01-01T11:30:51Z</time>
      </trkpt>
      <trkpt lat="42.69187" lon="0.9378">
        <ele>1505</ele>
        <time>2010-01-01T11:30:56Z</time>
      </trkpt>
      <trkpt lat="42.69197" lon="0.9377">
        <ele>1504</ele>
        <time>2010-01-01T11:31:01Z</time>
      </trkpt>
      <trkpt lat="42.69204" lon="0.93759">
        <ele>1501</ele>
        <time>2010-01-01T11:31:05Z</time>
      </trkpt>
      <trkpt lat="42.6921" lon="0.93746">
        <ele>1500</ele>
        <time>2010-01-01T11:31:10Z</time>
      </trkpt>
      <trkpt lat="42.69218" lon="0.93732">
        <ele>1498</ele>
        <time>2010-01-01T11:31:15Z</time>
      </trkpt>
      <trkpt lat="42.69224" lon="0.93716">
        <ele>1499</ele>
        <time>2010-01-01T11:31:20Z</time>
      </trkpt>
      <trkpt lat="42.69227" lon="0.93698">
        <ele>1506</ele>
        <time>2010-01-01T11:31:26Z</time>
      </trkpt>
      <trkpt lat="42.69238" lon="0.93683">
        <ele>1505</ele>
        <time>2010-01-01T11:31:32Z</time>
      </trkpt>
      <trkpt lat="42.69245" lon="0.93668">
        <ele>1505</ele>
        <time>2010-01-01T11:31:37Z</time>
      </trkpt>
      <trkpt lat="42.69252" lon="0.93653">
        <ele>1505</ele>
        <time>2010-01-01T11:31:42Z</time>
      </trkpt>
      <trkpt lat="42.69259" lon="0.93638">
        <ele>1506</ele>
        <time>2010-01-01T11:31:47Z</time>
      </trkpt>
      <trkpt lat="42.69265" lon="0.93625">
        <ele>1504</ele>
        <time>2010-01-01T11:31:52Z</time>
      </trkpt>
      <trkpt lat="42.69277" lon="0.93614">
        <ele>1503</ele>
        <time>2010-01-01T11:31:58Z</time>
      </trkpt>
      <trkpt lat="42.69286" lon="0.936">
        <ele>1503</ele>
        <time>2010-01-01T11:32:03Z</time>
      </trkpt>
      <trkpt lat="42.69294" lon="0.93587">
        <ele>1504</ele>
        <time>2010-01-01T11:32:08Z</time>
      </trkpt>
      <trkpt lat="42.69303" lon="0.93577">
        <ele>1503</ele>
        <time>2010-01-01T11:32:13Z</time>
      </trkpt>
      <trkpt lat="42.69312" lon="0.93564">
        <ele>1504</ele>
        <time>2010-01-01T11:32:18Z</time>
      </trkpt>
      <trkpt lat="42.69318" lon="0.93548">
        <ele>1506</ele>
        <time>2010-01-01T11:32:23Z</time>
      </trkpt>
      <trkpt lat="42.69325" lon="0.93534">
        <ele>1507</ele>
        <time>2010-01-01T11:32:28Z</time>
      </trkpt>
      <trkpt lat="42.69335" lon="0.93523">
        <ele>1507</ele>
        <time>2010-01-01T11:32:33Z</time>
      </trkpt>
      <trkpt lat="42.69346" lon="0.93515">
        <ele>1506</ele>
        <time>2010-01-01T11:32:38Z</time>
      </trkpt>
      <trkpt lat="42.69356" lon="0.93506">
        <ele>1505</ele>
        <time>2010-01-01T11:32:43Z</time>
      </trkpt>
      <trkpt lat="42.69364" lon="0.93496">
        <ele>1504</ele>
        <time>2010-01-01T11:32:48Z</time>
      </trkpt>
      <trkpt lat="42.69376" lon="0.93485">
        <ele>1500</ele>
        <time>2010-01-01T11:32:53Z</time>
      </trkpt>
      <trkpt lat="42.69386" lon="0.93475">
        <ele>1497</ele>
        <time>2010-01-01T11:32:58Z</time>
      </trkpt>
      <trkpt lat="42.69397" lon="0.93465">
        <ele>1494</ele>
        <time>2010-01-01T11:33:04Z</time>
      </trkpt>
      <trkpt lat="42.69406" lon="0.93453">
        <ele>1493</ele>
        <time>2010-01-01T11:33:08Z</time>
      </trkpt>
      <trkpt lat="42.69414" lon="0.93437">
        <ele>1492</ele>
        <time>2010-01-01T11:33:14Z</time>
      </trkpt>
      <trkpt lat="42.69425" lon="0.93425">
        <ele>1491</ele>
        <time>2010-01-01T11:33:20Z</time>
      </trkpt>
      <trkpt lat="42.69432" lon="0.93409">
        <ele>1491</ele>
        <time>2010-01-01T11:33:25Z</time>
      </trkpt>
      <trkpt lat="42.69437" lon="0.93396">
        <ele>1492</ele>
        <time>2010-01-01T11:33:30Z</time>
      </trkpt>
      <trkpt lat="42.69446" lon="0.9338">
        <ele>1491</ele>
        <time>2010-01-01T11:33:36Z</time>
      </trkpt>
      <trkpt lat="42.69445" lon="0.93362">
        <ele>1494</ele>
        <time>2010-01-01T11:33:41Z</time>
      </trkpt>
      <trkpt lat="42.69441" lon="0.93347">
        <ele>1499</ele>
        <time>2010-01-01T11:33:46Z</time>
      </trkpt>
      <trkpt lat="42.69439" lon="0.93335">
        <ele>1501</ele>
        <time>2010-01-01T11:33:49Z</time>
      </trkpt>
      <trkpt lat="42.69437" lon="0.93323">
        <ele>1505</ele>
        <time>2010-01-01T11:33:53Z</time>
      </trkpt>
      <trkpt lat="42.69442" lon="0.93305">
        <ele>1506</ele>
        <time>2010-01-01T11:33:58Z</time>
      </trkpt>
      <trkpt lat="42.69444" lon="0.93289">
        <ele>1508</ele>
        <time>2010-01-01T11:34:03Z</time>
      </trkpt>
      <trkpt lat="42.69458" lon="0.93276">
        <ele>1503</ele>
        <time>2010-01-01T11:34:10Z</time>
      </trkpt>
      <trkpt lat="42.69469" lon="0.93265">
        <ele>1500</ele>
        <time>2010-01-01T11:34:15Z</time>
      </trkpt>
      <trkpt lat="42.69478" lon="0.93251">
        <ele>1498</ele>
        <time>2010-01-01T11:34:21Z</time>
      </trkpt>
      <trkpt lat="42.69488" lon="0.93238">
        <ele>1497</ele>
        <time>2010-01-01T11:34:26Z</time>
      </trkpt>
      <trkpt lat="42.69502" lon="0.93219">
        <ele>1494</ele>
        <time>2010-01-01T11:34:34Z</time>
      </trkpt>
      <trkpt lat="42.69512" lon="0.93207">
        <ele>1491</ele>
        <time>2010-01-01T11:34:40Z</time>
      </trkpt>
      <trkpt lat="42.69523" lon="0.93197">
        <ele>1486</ele>
        <time>2010-01-01T11:34:45Z</time>
      </trkpt>
      <trkpt lat="42.69531" lon="0.93186">
        <ele>1484</ele>
        <time>2010-01-01T11:34:49Z</time>
      </trkpt>
      <trkpt lat="42.69537" lon="0.93173">
        <ele>1483</ele>
        <time>2010-01-01T11:34:54Z</time>
      </trkpt>
      <trkpt lat="42.69542" lon="0.93162">
        <ele>1481</ele>
        <time>2010-01-01T11:34:58Z</time>
      </trkpt>
      <trkpt lat="42.69548" lon="0.93151">
        <ele>1479</ele>
        <time>2010-01-01T11:35:02Z</time>
      </trkpt>
      <trkpt lat="42.69554" lon="0.93141">
        <ele>1477</ele>
        <time>2010-01-01T11:35:06Z</time>
      </trkpt>
      <trkpt lat="42.6956" lon="0.93129">
        <ele>1474</ele>
        <time>2010-01-01T11:35:10Z</time>
      </trkpt>
      <trkpt lat="42.69567" lon="0.93117">
        <ele>1472</ele>
        <time>2010-01-01T11:35:14Z</time>
      </trkpt>
      <trkpt lat="42.69575" lon="0.93107">
        <ele>1468</ele>
        <time>2010-01-01T11:35:19Z</time>
      </trkpt>
      <trkpt lat="42.69581" lon="0.93097">
        <ele>1465</ele>
        <time>2010-01-01T11:35:22Z</time>
      </trkpt>
      <trkpt lat="42.69587" lon="0.93085">
        <ele>1464</ele>
        <time>2010-01-01T11:35:27Z</time>
      </trkpt>
      <trkpt lat="42.69637" lon="0.93063">
        <ele>1451</ele>
        <time>2010-01-01T11:35:48Z</time>
      </trkpt>
      <trkpt lat="42.69646" lon="0.93049">
        <ele>1448</ele>
        <time>2010-01-01T11:35:53Z</time>
      </trkpt>
      <trkpt lat="42.69652" lon="0.93035">
        <ele>1446</ele>
        <time>2010-01-01T11:35:58Z</time>
      </trkpt>
      <trkpt lat="42.69656" lon="0.9302">
        <ele>1446</ele>
        <time>2010-01-01T11:36:03Z</time>
      </trkpt>
      <trkpt lat="42.69659" lon="0.93002">
        <ele>1447</ele>
        <time>2010-01-01T11:36:08Z</time>
      </trkpt>
      <trkpt lat="42.69668" lon="0.92981">
        <ele>1447</ele>
        <time>2010-01-01T11:36:15Z</time>
      </trkpt>
      <trkpt lat="42.69673" lon="0.92967">
        <ele>1447</ele>
        <time>2010-01-01T11:36:20Z</time>
      </trkpt>
      <trkpt lat="42.6968" lon="0.92953">
        <ele>1446</ele>
        <time>2010-01-01T11:36:25Z</time>
      </trkpt>
      <trkpt lat="42.69689" lon="0.9294">
        <ele>1445</ele>
        <time>2010-01-01T11:36:30Z</time>
      </trkpt>
      <trkpt lat="42.69699" lon="0.92919">
        <ele>1441</ele>
        <time>2010-01-01T11:36:38Z</time>
      </trkpt>
      <trkpt lat="42.69704" lon="0.92906">
        <ele>1439</ele>
        <time>2010-01-01T11:36:42Z</time>
      </trkpt>
      <trkpt lat="42.69709" lon="0.92894">
        <ele>1438</ele>
        <time>2010-01-01T11:36:46Z</time>
      </trkpt>
      <trkpt lat="42.69717" lon="0.92883">
        <ele>1435</ele>
        <time>2010-01-01T11:36:50Z</time>
      </trkpt>
      <trkpt lat="42.69726" lon="0.92872">
        <ele>1432</ele>
        <time>2010-01-01T11:36:55Z</time>
      </trkpt>
      <trkpt lat="42.69733" lon="0.9286">
        <ele>1430</ele>
        <time>2010-01-01T11:37:00Z</time>
      </trkpt>
      <trkpt lat="42.69735" lon="0.92847">
        <ele>1429</ele>
        <time>2010-01-01T11:37:04Z</time>
      </trkpt>
      <trkpt lat="42.69738" lon="0.92832">
        <ele>1428</ele>
        <time>2010-01-01T11:37:08Z</time>
      </trkpt>
      <trkpt lat="42.6974" lon="0.92818">
        <ele>1427</ele>
        <time>2010-01-01T11:37:13Z</time>
      </trkpt>
      <trkpt lat="42.69738" lon="0.92804">
        <ele>1428</ele>
        <time>2010-01-01T11:37:17Z</time>
      </trkpt>
      <trkpt lat="42.69739" lon="0.92771">
        <ele>1429</ele>
        <time>2010-01-01T11:37:27Z</time>
      </trkpt>
      <trkpt lat="42.69748" lon="0.92736">
        <ele>1426</ele>
        <time>2010-01-01T11:37:37Z</time>
      </trkpt>
      <trkpt lat="42.69756" lon="0.92726">
        <ele>1422</ele>
        <time>2010-01-01T11:37:42Z</time>
      </trkpt>
      <trkpt lat="42.69764" lon="0.9272">
        <ele>1418</ele>
        <time>2010-01-01T11:37:45Z</time>
      </trkpt>
      <trkpt lat="42.69772" lon="0.92709">
        <ele>1414</ele>
        <time>2010-01-01T11:37:50Z</time>
      </trkpt>
      <trkpt lat="42.69779" lon="0.92698">
        <ele>1411</ele>
        <time>2010-01-01T11:37:54Z</time>
      </trkpt>
      <trkpt lat="42.69785" lon="0.92686">
        <ele>1410</ele>
        <time>2010-01-01T11:37:58Z</time>
      </trkpt>
      <trkpt lat="42.69785" lon="0.92673">
        <ele>1411</ele>
        <time>2010-01-01T11:38:02Z</time>
      </trkpt>
      <trkpt lat="42.69783" lon="0.92657">
        <ele>1414</ele>
        <time>2010-01-01T11:38:07Z</time>
      </trkpt>
      <trkpt lat="42.69781" lon="0.92644">
        <ele>1418</ele>
        <time>2010-01-01T11:38:11Z</time>
      </trkpt>
      <trkpt lat="42.69779" lon="0.92615">
        <ele>1422</ele>
        <time>2010-01-01T11:38:20Z</time>
      </trkpt>
      <trkpt lat="42.69784" lon="0.92585">
        <ele>1415</ele>
        <time>2010-01-01T11:38:29Z</time>
      </trkpt>
      <trkpt lat="42.69791" lon="0.92572">
        <ele>1410</ele>
        <time>2010-01-01T11:38:33Z</time>
      </trkpt>
      <trkpt lat="42.69804" lon="0.9256">
        <ele>1400</ele>
        <time>2010-01-01T11:38:40Z</time>
      </trkpt>
      <trkpt lat="42.69813" lon="0.92545">
        <ele>1396</ele>
        <time>2010-01-01T11:38:45Z</time>
      </trkpt>
      <trkpt lat="42.69813" lon="0.92521">
        <ele>1396</ele>
        <time>2010-01-01T11:38:52Z</time>
      </trkpt>
      <trkpt lat="42.69818" lon="0.92504">
        <ele>1395</ele>
        <time>2010-01-01T11:38:58Z</time>
      </trkpt>
      <trkpt lat="42.69821" lon="0.92489">
        <ele>1395</ele>
        <time>2010-01-01T11:39:02Z</time>
      </trkpt>
      <trkpt lat="42.69828" lon="0.92475">
        <ele>1392</ele>
        <time>2010-01-01T11:39:07Z</time>
      </trkpt>
      <trkpt lat="42.69836" lon="0.92469">
        <ele>1388</ele>
        <time>2010-01-01T11:39:11Z</time>
      </trkpt>
      <trkpt lat="42.69845" lon="0.92453">
        <ele>1386</ele>
        <time>2010-01-01T11:39:17Z</time>
      </trkpt>
      <trkpt lat="42.69852" lon="0.92435">
        <ele>1383</ele>
        <time>2010-01-01T11:39:23Z</time>
      </trkpt>
      <trkpt lat="42.69857" lon="0.92417">
        <ele>1381</ele>
        <time>2010-01-01T11:39:29Z</time>
      </trkpt>
      <trkpt lat="42.69861" lon="0.92402">
        <ele>1380</ele>
        <time>2010-01-01T11:39:33Z</time>
      </trkpt>
      <trkpt lat="42.69864" lon="0.92382">
        <ele>1381</ele>
        <time>2010-01-01T11:39:39Z</time>
      </trkpt>
      <trkpt lat="42.6987" lon="0.92369">
        <ele>1380</ele>
        <time>2010-01-01T11:39:44Z</time>
      </trkpt>
      <trkpt lat="42.69874" lon="0.92358">
        <ele>1379</ele>
        <time>2010-01-01T11:39:47Z</time>
      </trkpt>
      <trkpt lat="42.6988" lon="0.92347">
        <ele>1376</ele>
        <time>2010-01-01T11:39:51Z</time>
      </trkpt>
      <trkpt lat="42.69887" lon="0.92336">
        <ele>1373</ele>
        <time>2010-01-01T11:39:56Z</time>
      </trkpt>
      <trkpt lat="42.69892" lon="0.92319">
        <ele>1371</ele>
        <time>2010-01-01T11:40:01Z</time>
      </trkpt>
      <trkpt lat="42.69892" lon="0.92301">
        <ele>1372</ele>
        <time>2010-01-01T11:40:06Z</time>
      </trkpt>
      <trkpt lat="42.69899" lon="0.92272">
        <ele>1370</ele>
        <time>2010-01-01T11:40:15Z</time>
      </trkpt>
      <trkpt lat="42.69913" lon="0.92234">
        <ele>1368</ele>
        <time>2010-01-01T11:40:28Z</time>
      </trkpt>
      <trkpt lat="42.69921" lon="0.92221">
        <ele>1365</ele>
        <time>2010-01-01T11:40:33Z</time>
      </trkpt>
      <trkpt lat="42.69923" lon="0.92206">
        <ele>1366</ele>
        <time>2010-01-01T11:40:37Z</time>
      </trkpt>
      <trkpt lat="42.69924" lon="0.92173">
        <ele>1366</ele>
        <time>2010-01-01T11:40:47Z</time>
      </trkpt>
      <trkpt lat="42.69926" lon="0.92158">
        <ele>1364</ele>
        <time>2010-01-01T11:40:51Z</time>
      </trkpt>
      <trkpt lat="42.69926" lon="0.92143">
        <ele>1362</ele>
        <time>2010-01-01T11:40:56Z</time>
      </trkpt>
      <trkpt lat="42.69925" lon="0.92125">
        <ele>1361</ele>
        <time>2010-01-01T11:41:01Z</time>
      </trkpt>
      <trkpt lat="42.69927" lon="0.92108">
        <ele>1359</ele>
        <time>2010-01-01T11:41:06Z</time>
      </trkpt>
      <trkpt lat="42.69928" lon="0.92088">
        <ele>1359</ele>
        <time>2010-01-01T11:41:12Z</time>
      </trkpt>
      <trkpt lat="42.69931" lon="0.92068">
        <ele>1358</ele>
        <time>2010-01-01T11:41:18Z</time>
      </trkpt>
      <trkpt lat="42.69935" lon="0.92044">
        <ele>1356</ele>
        <time>2010-01-01T11:41:26Z</time>
      </trkpt>
      <trkpt lat="42.69943" lon="0.92005">
        <ele>1350</ele>
        <time>2010-01-01T11:41:37Z</time>
      </trkpt>
      <trkpt lat="42.69946" lon="0.91981">
        <ele>1347</ele>
        <time>2010-01-01T11:41:45Z</time>
      </trkpt>
      <trkpt lat="42.69947" lon="0.91965">
        <ele>1345</ele>
        <time>2010-01-01T11:41:49Z</time>
      </trkpt>
      <trkpt lat="42.69947" lon="0.91946">
        <ele>1343</ele>
        <time>2010-01-01T11:41:55Z</time>
      </trkpt>
      <trkpt lat="42.69947" lon="0.91926">
        <ele>1340</ele>
        <time>2010-01-01T11:42:01Z</time>
      </trkpt>
      <trkpt lat="42.69946" lon="0.91911">
        <ele>1338</ele>
        <time>2010-01-01T11:42:05Z</time>
      </trkpt>
      <trkpt lat="42.69947" lon="0.91894">
        <ele>1335</ele>
        <time>2010-01-01T11:42:10Z</time>
      </trkpt>
      <trkpt lat="42.69946" lon="0.91877">
        <ele>1332</ele>
        <time>2010-01-01T11:42:15Z</time>
      </trkpt>
      <trkpt lat="42.69949" lon="0.91856">
        <ele>1329</ele>
        <time>2010-01-01T11:42:22Z</time>
      </trkpt>
      <trkpt lat="42.69962" lon="0.91844">
        <ele>1326</ele>
        <time>2010-01-01T11:42:28Z</time>
      </trkpt>
      <trkpt lat="42.69977" lon="0.91832">
        <ele>1323</ele>
        <time>2010-01-01T11:42:35Z</time>
      </trkpt>
      <trkpt lat="42.69985" lon="0.91816">
        <ele>1323</ele>
        <time>2010-01-01T11:42:40Z</time>
      </trkpt>
      <trkpt lat="42.69989" lon="0.91802">
        <ele>1323</ele>
        <time>2010-01-01T11:42:45Z</time>
      </trkpt>
      <trkpt lat="42.69994" lon="0.91783">
        <ele>1323</ele>
        <time>2010-01-01T11:42:51Z</time>
      </trkpt>
      <trkpt lat="42.69995" lon="0.91761">
        <ele>1325</ele>
        <time>2010-01-01T11:42:57Z</time>
      </trkpt>
      <trkpt lat="42.70001" lon="0.91747">
        <ele>1325</ele>
        <time>2010-01-01T11:43:02Z</time>
      </trkpt>
      <trkpt lat="42.70011" lon="0.91733">
        <ele>1323</ele>
        <time>2010-01-01T11:43:08Z</time>
      </trkpt>
      <trkpt lat="42.70018" lon="0.91721">
        <ele>1321</ele>
        <time>2010-01-01T11:43:12Z</time>
      </trkpt>
      <trkpt lat="42.70024" lon="0.91705">
        <ele>1319</ele>
        <time>2010-01-01T11:43:18Z</time>
      </trkpt>
      <trkpt lat="42.7003" lon="0.91684">
        <ele>1317</ele>
        <time>2010-01-01T11:43:24Z</time>
      </trkpt>
      <trkpt lat="42.70032" lon="0.91669">
        <ele>1317</ele>
        <time>2010-01-01T11:43:29Z</time>
      </trkpt>
      <trkpt lat="42.7004" lon="0.9164">
        <ele>1316</ele>
        <time>2010-01-01T11:43:38Z</time>
      </trkpt>
      <trkpt lat="42.70045" lon="0.91618">
        <ele>1317</ele>
        <time>2010-01-01T11:43:44Z</time>
      </trkpt>
      <trkpt lat="42.70049" lon="0.91599">
        <ele>1317</ele>
        <time>2010-01-01T11:43:50Z</time>
      </trkpt>
      <trkpt lat="42.70056" lon="0.91586">
        <ele>1316</ele>
        <time>2010-01-01T11:43:55Z</time>
      </trkpt>
      <trkpt lat="42.70063" lon="0.91577">
        <ele>1315</ele>
        <time>2010-01-01T11:43:59Z</time>
      </trkpt>
      <trkpt lat="42.70071" lon="0.91565">
        <ele>1313</ele>
        <time>2010-01-01T11:44:04Z</time>
      </trkpt>
      <trkpt lat="42.70076" lon="0.91551">
        <ele>1312</ele>
        <time>2010-01-01T11:44:08Z</time>
      </trkpt>
      <trkpt lat="42.70084" lon="0.91546">
        <ele>1309</ele>
        <time>2010-01-01T11:44:12Z</time>
      </trkpt>
      <trkpt lat="42.70093" lon="0.91538">
        <ele>1308</ele>
        <time>2010-01-01T11:44:16Z</time>
      </trkpt>
      <trkpt lat="42.70098" lon="0.91524">
        <ele>1307</ele>
        <time>2010-01-01T11:44:21Z</time>
      </trkpt>
      <trkpt lat="42.70107" lon="0.91511">
        <ele>1304</ele>
        <time>2010-01-01T11:44:26Z</time>
      </trkpt>
      <trkpt lat="42.70117" lon="0.91506">
        <ele>1302</ele>
        <time>2010-01-01T11:44:30Z</time>
      </trkpt>
      <trkpt lat="42.70129" lon="0.91503">
        <ele>1301</ele>
        <time>2010-01-01T11:44:35Z</time>
      </trkpt>
      <trkpt lat="42.7014" lon="0.91499">
        <ele>1300</ele>
        <time>2010-01-01T11:44:40Z</time>
      </trkpt>
      <trkpt lat="42.70155" lon="0.91501">
        <ele>1301</ele>
        <time>2010-01-01T11:44:46Z</time>
      </trkpt>
      <trkpt lat="42.70168" lon="0.91497">
        <ele>1300</ele>
        <time>2010-01-01T11:44:51Z</time>
      </trkpt>
      <trkpt lat="42.70178" lon="0.91489">
        <ele>1300</ele>
        <time>2010-01-01T11:44:56Z</time>
      </trkpt>
      <trkpt lat="42.70187" lon="0.91475">
        <ele>1298</ele>
        <time>2010-01-01T11:45:01Z</time>
      </trkpt>
      <trkpt lat="42.702" lon="0.91462">
        <ele>1297</ele>
        <time>2010-01-01T11:45:08Z</time>
      </trkpt>
      <trkpt lat="42.7021" lon="0.91448">
        <ele>1296</ele>
        <time>2010-01-01T11:45:13Z</time>
      </trkpt>
      <trkpt lat="42.70216" lon="0.91434">
        <ele>1296</ele>
        <time>2010-01-01T11:45:18Z</time>
      </trkpt>
      <trkpt lat="42.70223" lon="0.9142">
        <ele>1295</ele>
        <time>2010-01-01T11:45:23Z</time>
      </trkpt>
      <trkpt lat="42.70229" lon="0.91407">
        <ele>1293</ele>
        <time>2010-01-01T11:45:28Z</time>
      </trkpt>
      <trkpt lat="42.70236" lon="0.91392">
        <ele>1291</ele>
        <time>2010-01-01T11:45:33Z</time>
      </trkpt>
      <trkpt lat="42.70241" lon="0.91379">
        <ele>1290</ele>
        <time>2010-01-01T11:45:37Z</time>
      </trkpt>
      <trkpt lat="42.70245" lon="0.91366">
        <ele>1289</ele>
        <time>2010-01-01T11:45:41Z</time>
      </trkpt>
      <trkpt lat="42.70251" lon="0.91352">
        <ele>1288</ele>
        <time>2010-01-01T11:45:46Z</time>
      </trkpt>
      <trkpt lat="42.70255" lon="0.91338">
        <ele>1288</ele>
        <time>2010-01-01T11:45:51Z</time>
      </trkpt>
      <trkpt lat="42.70263" lon="0.91327">
        <ele>1287</ele>
        <time>2010-01-01T11:45:55Z</time>
      </trkpt>
      <trkpt lat="42.70271" lon="0.9132">
        <ele>1287</ele>
        <time>2010-01-01T11:45:59Z</time>
      </trkpt>
      <trkpt lat="42.70282" lon="0.91311">
        <ele>1285</ele>
        <time>2010-01-01T11:46:04Z</time>
      </trkpt>
      <trkpt lat="42.70291" lon="0.91305">
        <ele>1285</ele>
        <time>2010-01-01T11:46:08Z</time>
      </trkpt>
      <trkpt lat="42.703" lon="0.91292">
        <ele>1284</ele>
        <time>2010-01-01T11:46:13Z</time>
      </trkpt>
      <trkpt lat="42.70307" lon="0.9128">
        <ele>1283</ele>
        <time>2010-01-01T11:46:18Z</time>
      </trkpt>
      <trkpt lat="42.70318" lon="0.9127">
        <ele>1283</ele>
        <time>2010-01-01T11:46:23Z</time>
      </trkpt>
      <trkpt lat="42.7033" lon="0.91265">
        <ele>1284</ele>
        <time>2010-01-01T11:46:28Z</time>
      </trkpt>
      <trkpt lat="42.70342" lon="0.91258">
        <ele>1284</ele>
        <time>2010-01-01T11:46:33Z</time>
      </trkpt>
      <trkpt lat="42.70359" lon="0.91244">
        <ele>1282</ele>
        <time>2010-01-01T11:46:41Z</time>
      </trkpt>
      <trkpt lat="42.70367" lon="0.91232">
        <ele>1282</ele>
        <time>2010-01-01T11:46:46Z</time>
      </trkpt>
      <trkpt lat="42.70376" lon="0.91218">
        <ele>1283</ele>
        <time>2010-01-01T11:46:51Z</time>
      </trkpt>
      <trkpt lat="42.70385" lon="0.91204">
        <ele>1284</ele>
        <time>2010-01-01T11:46:57Z</time>
      </trkpt>
      <trkpt lat="42.70393" lon="0.9119">
        <ele>1285</ele>
        <time>2010-01-01T11:47:02Z</time>
      </trkpt>
      <trkpt lat="42.70402" lon="0.91181">
        <ele>1286</ele>
        <time>2010-01-01T11:47:06Z</time>
      </trkpt>
      <trkpt lat="42.70412" lon="0.91172">
        <ele>1287</ele>
        <time>2010-01-01T11:47:11Z</time>
      </trkpt>
      <trkpt lat="42.70423" lon="0.91161">
        <ele>1287</ele>
        <time>2010-01-01T11:47:17Z</time>
      </trkpt>
      <trkpt lat="42.70436" lon="0.91147">
        <ele>1287</ele>
        <time>2010-01-01T11:47:23Z</time>
      </trkpt>
      <trkpt lat="42.70441" lon="0.9113">
        <ele>1286</ele>
        <time>2010-01-01T11:47:29Z</time>
      </trkpt>
      <trkpt lat="42.70441" lon="0.91116">
        <ele>1285</ele>
        <time>2010-01-01T11:47:33Z</time>
      </trkpt>
      <trkpt lat="42.70444" lon="0.91101">
        <ele>1285</ele>
        <time>2010-01-01T11:47:37Z</time>
      </trkpt>
      <trkpt lat="42.70446" lon="0.9108">
        <ele>1283</ele>
        <time>2010-01-01T11:47:44Z</time>
      </trkpt>
      <trkpt lat="42.70446" lon="0.91056">
        <ele>1282</ele>
        <time>2010-01-01T11:47:51Z</time>
      </trkpt>
      <trkpt lat="42.70448" lon="0.9104">
        <ele>1280</ele>
        <time>2010-01-01T11:47:55Z</time>
      </trkpt>
      <trkpt lat="42.70451" lon="0.91024">
        <ele>1279</ele>
        <time>2010-01-01T11:48:00Z</time>
      </trkpt>
      <trkpt lat="42.70454" lon="0.9101">
        <ele>1278</ele>
        <time>2010-01-01T11:48:05Z</time>
      </trkpt>
      <trkpt lat="42.70453" lon="0.90994">
        <ele>1277</ele>
        <time>2010-01-01T11:48:09Z</time>
      </trkpt>
      <trkpt lat="42.70451" lon="0.90981">
        <ele>1276</ele>
        <time>2010-01-01T11:48:13Z</time>
      </trkpt>
      <trkpt lat="42.70452" lon="0.90964">
        <ele>1275</ele>
        <time>2010-01-01T11:48:18Z</time>
      </trkpt>
      <trkpt lat="42.70455" lon="0.90948">
        <ele>1274</ele>
        <time>2010-01-01T11:48:23Z</time>
      </trkpt>
      <trkpt lat="42.70459" lon="0.90933">
        <ele>1273</ele>
        <time>2010-01-01T11:48:28Z</time>
      </trkpt>
      <trkpt lat="42.70463" lon="0.90916">
        <ele>1271</ele>
        <time>2010-01-01T11:48:33Z</time>
      </trkpt>
      <trkpt lat="42.7047" lon="0.90884">
        <ele>1266</ele>
        <time>2010-01-01T11:48:43Z</time>
      </trkpt>
      <trkpt lat="42.70473" lon="0.90867">
        <ele>1266</ele>
        <time>2010-01-01T11:48:48Z</time>
      </trkpt>
      <trkpt lat="42.70479" lon="0.90845">
        <ele>1267</ele>
        <time>2010-01-01T11:48:55Z</time>
      </trkpt>
      <trkpt lat="42.70483" lon="0.90822">
        <ele>1266</ele>
        <time>2010-01-01T11:49:02Z</time>
      </trkpt>
      <trkpt lat="42.70485" lon="0.90802">
        <ele>1265</ele>
        <time>2010-01-01T11:49:08Z</time>
      </trkpt>
      <trkpt lat="42.70485" lon="0.90768">
        <ele>1264</ele>
        <time>2010-01-01T11:49:18Z</time>
      </trkpt>
      <trkpt lat="42.70487" lon="0.90754">
        <ele>1263</ele>
        <time>2010-01-01T11:49:22Z</time>
      </trkpt>
      <trkpt lat="42.70488" lon="0.90738">
        <ele>1262</ele>
        <time>2010-01-01T11:49:27Z</time>
      </trkpt>
      <trkpt lat="42.70491" lon="0.90709">
        <ele>1261</ele>
        <time>2010-01-01T11:49:35Z</time>
      </trkpt>
      <trkpt lat="42.70495" lon="0.90681">
        <ele>1259</ele>
        <time>2010-01-01T11:49:44Z</time>
      </trkpt>
      <trkpt lat="42.70498" lon="0.9066">
        <ele>1258</ele>
        <time>2010-01-01T11:49:50Z</time>
      </trkpt>
      <trkpt lat="42.70503" lon="0.90643">
        <ele>1257</ele>
        <time>2010-01-01T11:49:55Z</time>
      </trkpt>
      <trkpt lat="42.70507" lon="0.90626">
        <ele>1257</ele>
        <time>2010-01-01T11:50:01Z</time>
      </trkpt>
      <trkpt lat="42.7051" lon="0.90609">
        <ele>1256</ele>
        <time>2010-01-01T11:50:06Z</time>
      </trkpt>
      <trkpt lat="42.70514" lon="0.90595">
        <ele>1255</ele>
        <time>2010-01-01T11:50:10Z</time>
      </trkpt>
      <trkpt lat="42.70518" lon="0.9058">
        <ele>1254</ele>
        <time>2010-01-01T11:50:15Z</time>
      </trkpt>
      <trkpt lat="42.70524" lon="0.90563">
        <ele>1254</ele>
        <time>2010-01-01T11:50:20Z</time>
      </trkpt>
      <trkpt lat="42.70533" lon="0.9054">
        <ele>1254</ele>
        <time>2010-01-01T11:50:28Z</time>
      </trkpt>
      <trkpt lat="42.7054" lon="0.90525">
        <ele>1253</ele>
        <time>2010-01-01T11:50:33Z</time>
      </trkpt>
      <trkpt lat="42.70546" lon="0.90506">
        <ele>1251</ele>
        <time>2010-01-01T11:50:39Z</time>
      </trkpt>
      <trkpt lat="42.70551" lon="0.90491">
        <ele>1249</ele>
        <time>2010-01-01T11:50:44Z</time>
      </trkpt>
      <trkpt lat="42.70559" lon="0.90478">
        <ele>1249</ele>
        <time>2010-01-01T11:50:49Z</time>
      </trkpt>
      <trkpt lat="42.70566" lon="0.90468">
        <ele>1249</ele>
        <time>2010-01-01T11:50:53Z</time>
      </trkpt>
      <trkpt lat="42.70574" lon="0.9046">
        <ele>1249</ele>
        <time>2010-01-01T11:50:57Z</time>
      </trkpt>
      <trkpt lat="42.70583" lon="0.90454">
        <ele>1249</ele>
        <time>2010-01-01T11:51:01Z</time>
      </trkpt>
      <trkpt lat="42.70593" lon="0.90442">
        <ele>1248</ele>
        <time>2010-01-01T11:51:07Z</time>
      </trkpt>
      <trkpt lat="42.70602" lon="0.90431">
        <ele>1248</ele>
        <time>2010-01-01T11:51:11Z</time>
      </trkpt>
      <trkpt lat="42.70611" lon="0.90422">
        <ele>1247</ele>
        <time>2010-01-01T11:51:16Z</time>
      </trkpt>
      <trkpt lat="42.70618" lon="0.90415">
        <ele>1247</ele>
        <time>2010-01-01T11:51:19Z</time>
      </trkpt>
      <trkpt lat="42.70629" lon="0.90407">
        <ele>1247</ele>
        <time>2010-01-01T11:51:25Z</time>
      </trkpt>
      <trkpt lat="42.70636" lon="0.90394">
        <ele>1246</ele>
        <time>2010-01-01T11:51:29Z</time>
      </trkpt>
      <trkpt lat="42.70644" lon="0.90382">
        <ele>1246</ele>
        <time>2010-01-01T11:51:34Z</time>
      </trkpt>
      <trkpt lat="42.70652" lon="0.90369">
        <ele>1247</ele>
        <time>2010-01-01T11:51:39Z</time>
      </trkpt>
      <trkpt lat="42.7066" lon="0.90358">
        <ele>1249</ele>
        <time>2010-01-01T11:51:44Z</time>
      </trkpt>
      <trkpt lat="42.70667" lon="0.90347">
        <ele>1251</ele>
        <time>2010-01-01T11:51:48Z</time>
      </trkpt>
      <trkpt lat="42.70678" lon="0.90329">
        <ele>1254</ele>
        <time>2010-01-01T11:51:55Z</time>
      </trkpt>
      <trkpt lat="42.70681" lon="0.90317">
        <ele>1254</ele>
        <time>2010-01-01T11:51:59Z</time>
      </trkpt>
      <trkpt lat="42.70683" lon="0.90303">
        <ele>1254</ele>
        <time>2010-01-01T11:52:03Z</time>
      </trkpt>
      <trkpt lat="42.70689" lon="0.90292">
        <ele>1255</ele>
        <time>2010-01-01T11:52:07Z</time>
      </trkpt>
      <trkpt lat="42.70696" lon="0.90281">
        <ele>1257</ele>
        <time>2010-01-01T11:52:11Z</time>
      </trkpt>
      <trkpt lat="42.70705" lon="0.90274">
        <ele>1259</ele>
        <time>2010-01-01T11:52:15Z</time>
      </trkpt>
      <trkpt lat="42.70719" lon="0.90278">
        <ele>1261</ele>
        <time>2010-01-01T11:52:21Z</time>
      </trkpt>
      <trkpt lat="42.70729" lon="0.90284">
        <ele>1261</ele>
        <time>2010-01-01T11:52:26Z</time>
      </trkpt>
      <trkpt lat="42.70736" lon="0.90293">
        <ele>1261</ele>
        <time>2010-01-01T11:52:29Z</time>
      </trkpt>
      <trkpt lat="42.70739" lon="0.90305">
        <ele>1260</ele>
        <time>2010-01-01T11:52:33Z</time>
      </trkpt>
      <trkpt lat="42.70741" lon="0.90318">
        <ele>1261</ele>
        <time>2010-01-01T11:52:37Z</time>
      </trkpt>
      <trkpt lat="42.70749" lon="0.90334">
        <ele>1263</ele>
        <time>2010-01-01T11:52:43Z</time>
      </trkpt>
      <trkpt lat="42.70755" lon="0.90348">
        <ele>1264</ele>
        <time>2010-01-01T11:52:47Z</time>
      </trkpt>
      <trkpt lat="42.70763" lon="0.9036">
        <ele>1266</ele>
        <time>2010-01-01T11:52:52Z</time>
      </trkpt>
      <trkpt lat="42.70767" lon="0.90372">
        <ele>1267</ele>
        <time>2010-01-01T11:52:56Z</time>
      </trkpt>
      <trkpt lat="42.70766" lon="0.90386">
        <ele>1268</ele>
        <time>2010-01-01T11:53:00Z</time>
      </trkpt>
      <trkpt lat="42.70763" lon="0.90412">
        <ele>1270</ele>
        <time>2010-01-01T11:53:08Z</time>
      </trkpt>
    </trkseg>
  </trk>
</gpx>